<?xml version='1.0' encoding='UTF-8'?><gpx version="1.1" creator="JPX - https://github.com/jenetics/jpx" xmlns="http://www.topografix.com/GPX/1/1"><trk><trkseg><trkpt lat="44.98192" lon="9.7300433"><ele>81.0</ele><time>2026-04-06T07:00:13.601Z</time></trkpt><trkpt lat="44.981985" lon="9.7300483"><ele>81.0</ele><time>2026-04-06T07:00:15.6Z</time></trkpt><trkpt lat="44.9820483" lon="9.73005"><ele>81.0</ele><time>2026-04-06T07:00:20.599Z</time></trkpt><trkpt lat="44.9821133" lon="9.7299267"><ele>81.0</ele><time>2026-04-06T07:00:31.6Z</time></trkpt><trkpt lat="44.9821317" lon="9.7298317"><ele>81.0</ele><time>2026-04-06T07:00:32.603Z</time></trkpt><trkpt lat="44.9821483" lon="9.7297167"><ele>81.0</ele><time>2026-04-06T07:00:33.601Z</time></trkpt><trkpt lat="44.9821633" lon="9.7295983"><ele>81.0</ele><time>2026-04-06T07:00:34.599Z</time></trkpt><trkpt lat="44.9821783" lon="9.72947"><ele>81.0</ele><time>2026-04-06T07:00:35.601Z</time></trkpt><trkpt lat="44.9821933" lon="9.729335"><ele>81.0</ele><time>2026-04-06T07:00:36.599Z</time></trkpt><trkpt lat="44.9822117" lon="9.7291833"><ele>81.0</ele><time>2026-04-06T07:00:37.6Z</time></trkpt><trkpt lat="44.9822333" lon="9.7290217"><ele>81.0</ele><time>2026-04-06T07:00:38.6Z</time></trkpt><trkpt lat="44.982255" lon="9.7288483"><ele>81.75</ele><time>2026-04-06T07:00:39.6Z</time></trkpt><trkpt lat="44.98228" lon="9.7286617"><ele>82.5</ele><time>2026-04-06T07:00:40.599Z</time></trkpt><trkpt lat="44.9823033" lon="9.72847"><ele>83.25</ele><time>2026-04-06T07:00:41.6Z</time></trkpt><trkpt lat="44.98233" lon="9.72827"><ele>84.0</ele><time>2026-04-06T07:00:42.6Z</time></trkpt><trkpt lat="44.9823567" lon="9.7280633"><ele>84.33333333333333</ele><time>2026-04-06T07:00:43.6Z</time></trkpt><trkpt lat="44.9823833" lon="9.727855"><ele>84.66666666666666</ele><time>2026-04-06T07:00:44.6Z</time></trkpt><trkpt lat="44.9824083" lon="9.72764"><ele>85.0</ele><time>2026-04-06T07:00:45.602Z</time></trkpt><trkpt lat="44.9824317" lon="9.7274233"><ele>85.0</ele><time>2026-04-06T07:00:46.599Z</time></trkpt><trkpt lat="44.9824567" lon="9.727205"><ele>85.0</ele><time>2026-04-06T07:00:47.6Z</time></trkpt><trkpt lat="44.9824833" lon="9.7269867"><ele>85.0</ele><time>2026-04-06T07:00:48.6Z</time></trkpt><trkpt lat="44.9825083" lon="9.7267683"><ele>85.0</ele><time>2026-04-06T07:00:49.6Z</time></trkpt><trkpt lat="44.9825333" lon="9.72655"><ele>85.0</ele><time>2026-04-06T07:00:50.599Z</time></trkpt><trkpt lat="44.9825583" lon="9.7263333"><ele>85.0</ele><time>2026-04-06T07:00:51.6Z</time></trkpt><trkpt lat="44.982585" lon="9.7261167"><ele>85.0</ele><time>2026-04-06T07:00:52.6Z</time></trkpt><trkpt lat="44.9826117" lon="9.7259033"><ele>85.0</ele><time>2026-04-06T07:00:53.601Z</time></trkpt><trkpt lat="44.9826383" lon="9.72569"><ele>85.0</ele><time>2026-04-06T07:00:54.601Z</time></trkpt><trkpt lat="44.9826667" lon="9.72548"><ele>85.0</ele><time>2026-04-06T07:00:55.6Z</time></trkpt><trkpt lat="44.9826917" lon="9.7252683"><ele>85.0</ele><time>2026-04-06T07:00:56.601Z</time></trkpt><trkpt lat="44.9827167" lon="9.7250567"><ele>85.0</ele><time>2026-04-06T07:00:57.6Z</time></trkpt><trkpt lat="44.9827417" lon="9.724845"><ele>85.0</ele><time>2026-04-06T07:00:58.599Z</time></trkpt><trkpt lat="44.982765" lon="9.7246317"><ele>85.0</ele><time>2026-04-06T07:00:59.601Z</time></trkpt><trkpt lat="44.98279" lon="9.72442"><ele>85.0</ele><time>2026-04-06T07:01:00.601Z</time></trkpt><trkpt lat="44.982815" lon="9.724205"><ele>85.0</ele><time>2026-04-06T07:01:01.599Z</time></trkpt><trkpt lat="44.98284" lon="9.72399"><ele>85.0</ele><time>2026-04-06T07:01:02.599Z</time></trkpt><trkpt lat="44.9828667" lon="9.7237717"><ele>85.0</ele><time>2026-04-06T07:01:03.601Z</time></trkpt><trkpt lat="44.9828933" lon="9.7235533"><ele>85.0</ele><time>2026-04-06T07:01:04.599Z</time></trkpt><trkpt lat="44.9829217" lon="9.7233333"><ele>85.0</ele><time>2026-04-06T07:01:05.599Z</time></trkpt><trkpt lat="44.9829467" lon="9.7231133"><ele>85.0</ele><time>2026-04-06T07:01:06.6Z</time></trkpt><trkpt lat="44.982975" lon="9.7228933"><ele>85.33333333333333</ele><time>2026-04-06T07:01:07.601Z</time></trkpt><trkpt lat="44.9830017" lon="9.7226733"><ele>85.66666666666667</ele><time>2026-04-06T07:01:08.6Z</time></trkpt><trkpt lat="44.9830283" lon="9.72245"><ele>86.0</ele><time>2026-04-06T07:01:09.6Z</time></trkpt><trkpt lat="44.9830567" lon="9.7222233"><ele>86.0</ele><time>2026-04-06T07:01:10.6Z</time></trkpt><trkpt lat="44.983085" lon="9.721995"><ele>86.0</ele><time>2026-04-06T07:01:11.6Z</time></trkpt><trkpt lat="44.983115" lon="9.721765"><ele>86.0</ele><time>2026-04-06T07:01:12.601Z</time></trkpt><trkpt lat="44.983145" lon="9.7215333"><ele>86.33333333333334</ele><time>2026-04-06T07:01:13.602Z</time></trkpt><trkpt lat="44.9831783" lon="9.7212983"><ele>86.66666666666667</ele><time>2026-04-06T07:01:14.599Z</time></trkpt><trkpt lat="44.9832083" lon="9.7210617"><ele>87.0</ele><time>2026-04-06T07:01:15.599Z</time></trkpt><trkpt lat="44.9832383" lon="9.7208217"><ele>86.33333333333333</ele><time>2026-04-06T07:01:16.599Z</time></trkpt><trkpt lat="44.9832683" lon="9.7205783"><ele>85.66666666666666</ele><time>2026-04-06T07:01:17.601Z</time></trkpt><trkpt lat="44.9832967" lon="9.7203333"><ele>85.0</ele><time>2026-04-06T07:01:18.6Z</time></trkpt><trkpt lat="44.9833283" lon="9.7200867"><ele>84.33333333333333</ele><time>2026-04-06T07:01:19.6Z</time></trkpt><trkpt lat="44.9833583" lon="9.7198417"><ele>83.66666666666667</ele><time>2026-04-06T07:01:20.601Z</time></trkpt><trkpt lat="44.98339" lon="9.7195967"><ele>83.0</ele><time>2026-04-06T07:01:21.6Z</time></trkpt><trkpt lat="44.9834233" lon="9.7193517"><ele>82.0</ele><time>2026-04-06T07:01:22.598Z</time></trkpt><trkpt lat="44.983455" lon="9.7191067"><ele>81.0</ele><time>2026-04-06T07:01:23.603Z</time></trkpt><trkpt lat="44.983485" lon="9.7188617"><ele>80.0</ele><time>2026-04-06T07:01:24.6Z</time></trkpt><trkpt lat="44.9835133" lon="9.718615"><ele>80.33333333333334</ele><time>2026-04-06T07:01:25.6Z</time></trkpt><trkpt lat="44.9835417" lon="9.7183667"><ele>80.66666666666667</ele><time>2026-04-06T07:01:26.6Z</time></trkpt><trkpt lat="44.9835717" lon="9.71812"><ele>81.0</ele><time>2026-04-06T07:01:27.6Z</time></trkpt><trkpt lat="44.9836033" lon="9.7178767"><ele>81.0</ele><time>2026-04-06T07:01:28.6Z</time></trkpt><trkpt lat="44.9836317" lon="9.7176333"><ele>81.0</ele><time>2026-04-06T07:01:29.601Z</time></trkpt><trkpt lat="44.9836617" lon="9.717395"><ele>81.0</ele><time>2026-04-06T07:01:30.6Z</time></trkpt><trkpt lat="44.9836933" lon="9.7171567"><ele>81.0</ele><time>2026-04-06T07:01:31.599Z</time></trkpt><trkpt lat="44.9837233" lon="9.71692"><ele>81.0</ele><time>2026-04-06T07:01:32.599Z</time></trkpt><trkpt lat="44.983755" lon="9.7166833"><ele>81.0</ele><time>2026-04-06T07:01:33.598Z</time></trkpt><trkpt lat="44.983785" lon="9.7164467"><ele>81.66666666666667</ele><time>2026-04-06T07:01:34.598Z</time></trkpt><trkpt lat="44.9838133" lon="9.7162083"><ele>82.33333333333334</ele><time>2026-04-06T07:01:35.599Z</time></trkpt><trkpt lat="44.98384" lon="9.7159717"><ele>83.0</ele><time>2026-04-06T07:01:36.599Z</time></trkpt><trkpt lat="44.9838683" lon="9.715735"><ele>83.0</ele><time>2026-04-06T07:01:37.599Z</time></trkpt><trkpt lat="44.9838967" lon="9.715495"><ele>83.0</ele><time>2026-04-06T07:01:38.6Z</time></trkpt><trkpt lat="44.983925" lon="9.71526"><ele>83.0</ele><time>2026-04-06T07:01:39.599Z</time></trkpt><trkpt lat="44.9839517" lon="9.7150233"><ele>83.0</ele><time>2026-04-06T07:01:40.598Z</time></trkpt><trkpt lat="44.9839767" lon="9.71479"><ele>83.0</ele><time>2026-04-06T07:01:41.598Z</time></trkpt><trkpt lat="44.9839867" lon="9.7145533"><ele>83.0</ele><time>2026-04-06T07:01:42.597Z</time></trkpt><trkpt lat="44.9839767" lon="9.7143133"><ele>83.33333333333334</ele><time>2026-04-06T07:01:43.598Z</time></trkpt><trkpt lat="44.9839467" lon="9.7140717"><ele>83.66666666666667</ele><time>2026-04-06T07:01:44.598Z</time></trkpt><trkpt lat="44.9839067" lon="9.7138283"><ele>84.0</ele><time>2026-04-06T07:01:45.598Z</time></trkpt><trkpt lat="44.9838583" lon="9.713585"><ele>83.66666666666667</ele><time>2026-04-06T07:01:46.598Z</time></trkpt><trkpt lat="44.98381" lon="9.71334"><ele>83.33333333333334</ele><time>2026-04-06T07:01:47.599Z</time></trkpt><trkpt lat="44.9837617" lon="9.7130933"><ele>83.0</ele><time>2026-04-06T07:01:48.599Z</time></trkpt><trkpt lat="44.9837117" lon="9.7128483"><ele>83.0</ele><time>2026-04-06T07:01:49.599Z</time></trkpt><trkpt lat="44.9836633" lon="9.7126017"><ele>83.0</ele><time>2026-04-06T07:01:50.599Z</time></trkpt><trkpt lat="44.9836117" lon="9.71235"><ele>83.0</ele><time>2026-04-06T07:01:51.601Z</time></trkpt><trkpt lat="44.9835567" lon="9.712095"><ele>83.0</ele><time>2026-04-06T07:01:52.599Z</time></trkpt><trkpt lat="44.9835033" lon="9.71184"><ele>83.0</ele><time>2026-04-06T07:01:53.599Z</time></trkpt><trkpt lat="44.9834517" lon="9.711585"><ele>83.0</ele><time>2026-04-06T07:01:54.598Z</time></trkpt><trkpt lat="44.9834017" lon="9.7113317"><ele>83.0</ele><time>2026-04-06T07:01:55.598Z</time></trkpt><trkpt lat="44.9833517" lon="9.7110833"><ele>83.0</ele><time>2026-04-06T07:01:56.6Z</time></trkpt><trkpt lat="44.9833017" lon="9.7108333"><ele>83.0</ele><time>2026-04-06T07:01:57.6Z</time></trkpt><trkpt lat="44.9832517" lon="9.7105833"><ele>83.66666666666667</ele><time>2026-04-06T07:01:58.6Z</time></trkpt><trkpt lat="44.983205" lon="9.7103333"><ele>84.33333333333333</ele><time>2026-04-06T07:01:59.601Z</time></trkpt><trkpt lat="44.9831583" lon="9.7100833"><ele>85.0</ele><time>2026-04-06T07:02:00.599Z</time></trkpt><trkpt lat="44.9831117" lon="9.7098317"><ele>85.0</ele><time>2026-04-06T07:02:01.6Z</time></trkpt><trkpt lat="44.983065" lon="9.70958"><ele>85.0</ele><time>2026-04-06T07:02:02.6Z</time></trkpt><trkpt lat="44.98302" lon="9.70933"><ele>85.0</ele><time>2026-04-06T07:02:03.601Z</time></trkpt><trkpt lat="44.9829733" lon="9.7090783"><ele>85.0</ele><time>2026-04-06T07:02:04.599Z</time></trkpt><trkpt lat="44.9829233" lon="9.7088233"><ele>85.0</ele><time>2026-04-06T07:02:05.601Z</time></trkpt><trkpt lat="44.982875" lon="9.70857"><ele>85.0</ele><time>2026-04-06T07:02:06.6Z</time></trkpt><trkpt lat="44.9828267" lon="9.708315"><ele>85.33333333333333</ele><time>2026-04-06T07:02:07.6Z</time></trkpt><trkpt lat="44.9827817" lon="9.7080633"><ele>85.66666666666667</ele><time>2026-04-06T07:02:08.6Z</time></trkpt><trkpt lat="44.9827367" lon="9.7078133"><ele>86.0</ele><time>2026-04-06T07:02:09.6Z</time></trkpt><trkpt lat="44.9826883" lon="9.70756"><ele>86.33333333333334</ele><time>2026-04-06T07:02:10.601Z</time></trkpt><trkpt lat="44.9826383" lon="9.7073033"><ele>86.66666666666667</ele><time>2026-04-06T07:02:11.6Z</time></trkpt><trkpt lat="44.9825883" lon="9.7070467"><ele>87.0</ele><time>2026-04-06T07:02:12.6Z</time></trkpt><trkpt lat="44.9825383" lon="9.7067917"><ele>86.66666666666667</ele><time>2026-04-06T07:02:13.6Z</time></trkpt><trkpt lat="44.9824867" lon="9.706535"><ele>86.33333333333334</ele><time>2026-04-06T07:02:14.6Z</time></trkpt><trkpt lat="44.9824367" lon="9.7062783"><ele>86.0</ele><time>2026-04-06T07:02:15.6Z</time></trkpt><trkpt lat="44.9823883" lon="9.7060233"><ele>86.0</ele><time>2026-04-06T07:02:16.6Z</time></trkpt><trkpt lat="44.9823383" lon="9.7057667"><ele>86.0</ele><time>2026-04-06T07:02:17.601Z</time></trkpt><trkpt lat="44.9822867" lon="9.7055117"><ele>86.0</ele><time>2026-04-06T07:02:18.6Z</time></trkpt><trkpt lat="44.9822367" lon="9.70526"><ele>85.66666666666667</ele><time>2026-04-06T07:02:19.6Z</time></trkpt><trkpt lat="44.9821867" lon="9.7050167"><ele>85.33333333333333</ele><time>2026-04-06T07:02:20.6Z</time></trkpt><trkpt lat="44.982145" lon="9.7047833"><ele>85.0</ele><time>2026-04-06T07:02:21.6Z</time></trkpt><trkpt lat="44.9821133" lon="9.7045517"><ele>85.0</ele><time>2026-04-06T07:02:22.6Z</time></trkpt><trkpt lat="44.9820967" lon="9.7043167"><ele>85.0</ele><time>2026-04-06T07:02:23.6Z</time></trkpt><trkpt lat="44.98209" lon="9.7040717"><ele>85.0</ele><time>2026-04-06T07:02:24.6Z</time></trkpt><trkpt lat="44.9820867" lon="9.703825"><ele>85.33333333333333</ele><time>2026-04-06T07:02:25.601Z</time></trkpt><trkpt lat="44.9820833" lon="9.7035783"><ele>85.66666666666667</ele><time>2026-04-06T07:02:26.601Z</time></trkpt><trkpt lat="44.9820817" lon="9.70333"><ele>86.0</ele><time>2026-04-06T07:02:27.598Z</time></trkpt><trkpt lat="44.9820783" lon="9.7030833"><ele>86.0</ele><time>2026-04-06T07:02:28.598Z</time></trkpt><trkpt lat="44.9820767" lon="9.702835"><ele>86.0</ele><time>2026-04-06T07:02:29.598Z</time></trkpt><trkpt lat="44.982075" lon="9.7025833"><ele>86.0</ele><time>2026-04-06T07:02:30.599Z</time></trkpt><trkpt lat="44.9820733" lon="9.70233"><ele>85.66666666666667</ele><time>2026-04-06T07:02:31.599Z</time></trkpt><trkpt lat="44.9820717" lon="9.70208"><ele>85.33333333333333</ele><time>2026-04-06T07:02:32.6Z</time></trkpt><trkpt lat="44.9820683" lon="9.7018317"><ele>85.0</ele><time>2026-04-06T07:02:33.601Z</time></trkpt><trkpt lat="44.9820667" lon="9.7015833"><ele>85.0</ele><time>2026-04-06T07:02:34.6Z</time></trkpt><trkpt lat="44.982065" lon="9.7013333"><ele>85.0</ele><time>2026-04-06T07:02:35.602Z</time></trkpt><trkpt lat="44.982065" lon="9.7010833"><ele>85.0</ele><time>2026-04-06T07:02:36.599Z</time></trkpt><trkpt lat="44.9820633" lon="9.7008317"><ele>85.33333333333333</ele><time>2026-04-06T07:02:37.601Z</time></trkpt><trkpt lat="44.9820617" lon="9.7005817"><ele>85.66666666666667</ele><time>2026-04-06T07:02:38.601Z</time></trkpt><trkpt lat="44.98206" lon="9.7003367"><ele>86.0</ele><time>2026-04-06T07:02:39.6Z</time></trkpt><trkpt lat="44.98206" lon="9.7000933"><ele>86.33333333333334</ele><time>2026-04-06T07:02:40.599Z</time></trkpt><trkpt lat="44.9820617" lon="9.69986"><ele>86.66666666666667</ele><time>2026-04-06T07:02:41.599Z</time></trkpt><trkpt lat="44.9820617" lon="9.69964"><ele>87.0</ele><time>2026-04-06T07:02:42.6Z</time></trkpt><trkpt lat="44.9820617" lon="9.6994333"><ele>87.0</ele><time>2026-04-06T07:02:43.599Z</time></trkpt><trkpt lat="44.9820617" lon="9.6992367"><ele>87.0</ele><time>2026-04-06T07:02:44.601Z</time></trkpt><trkpt lat="44.98206" lon="9.6990483"><ele>87.0</ele><time>2026-04-06T07:02:45.602Z</time></trkpt><trkpt lat="44.9820667" lon="9.698875"><ele>87.0</ele><time>2026-04-06T07:02:46.599Z</time></trkpt><trkpt lat="44.9820683" lon="9.6987117"><ele>87.5</ele><time>2026-04-06T07:02:47.601Z</time></trkpt><trkpt lat="44.9820683" lon="9.6985567"><ele>88.0</ele><time>2026-04-06T07:02:48.599Z</time></trkpt><trkpt lat="44.9820667" lon="9.6983983"><ele>88.5</ele><time>2026-04-06T07:02:49.599Z</time></trkpt><trkpt lat="44.982065" lon="9.6982333"><ele>89.0</ele><time>2026-04-06T07:02:50.6Z</time></trkpt><trkpt lat="44.982065" lon="9.6980583"><ele>89.0</ele><time>2026-04-06T07:02:51.598Z</time></trkpt><trkpt lat="44.9820667" lon="9.6978733"><ele>89.0</ele><time>2026-04-06T07:02:52.599Z</time></trkpt><trkpt lat="44.98207" lon="9.6976817"><ele>89.0</ele><time>2026-04-06T07:02:53.599Z</time></trkpt><trkpt lat="44.982075" lon="9.6974883"><ele>89.0</ele><time>2026-04-06T07:02:54.598Z</time></trkpt><trkpt lat="44.9820783" lon="9.6972867"><ele>89.5</ele><time>2026-04-06T07:02:55.598Z</time></trkpt><trkpt lat="44.982085" lon="9.6970817"><ele>90.0</ele><time>2026-04-06T07:02:56.599Z</time></trkpt><trkpt lat="44.9820967" lon="9.6968783"><ele>90.5</ele><time>2026-04-06T07:02:57.599Z</time></trkpt><trkpt lat="44.9821083" lon="9.6966883"><ele>91.0</ele><time>2026-04-06T07:02:58.599Z</time></trkpt><trkpt lat="44.9821217" lon="9.6965083"><ele>90.0</ele><time>2026-04-06T07:02:59.597Z</time></trkpt><trkpt lat="44.9821317" lon="9.6963367"><ele>89.0</ele><time>2026-04-06T07:03:00.599Z</time></trkpt><trkpt lat="44.9821417" lon="9.696175"><ele>88.0</ele><time>2026-04-06T07:03:01.597Z</time></trkpt><trkpt lat="44.9821483" lon="9.6960183"><ele>87.0</ele><time>2026-04-06T07:03:02.6Z</time></trkpt><trkpt lat="44.9821533" lon="9.6958767"><ele>86.0</ele><time>2026-04-06T07:03:03.598Z</time></trkpt><trkpt lat="44.98216" lon="9.6957367"><ele>86.0</ele><time>2026-04-06T07:03:04.599Z</time></trkpt><trkpt lat="44.9821683" lon="9.69559"><ele>86.0</ele><time>2026-04-06T07:03:05.598Z</time></trkpt><trkpt lat="44.9821783" lon="9.6954333"><ele>86.0</ele><time>2026-04-06T07:03:06.599Z</time></trkpt><trkpt lat="44.9821867" lon="9.6952833"><ele>86.0</ele><time>2026-04-06T07:03:07.599Z</time></trkpt><trkpt lat="44.9821967" lon="9.6951467"><ele>86.0</ele><time>2026-04-06T07:03:08.6Z</time></trkpt><trkpt lat="44.982205" lon="9.6950233"><ele>86.0</ele><time>2026-04-06T07:03:09.599Z</time></trkpt><trkpt lat="44.9822133" lon="9.6949117"><ele>86.0</ele><time>2026-04-06T07:03:10.599Z</time></trkpt><trkpt lat="44.9822167" lon="9.6947933"><ele>86.0</ele><time>2026-04-06T07:03:11.597Z</time></trkpt><trkpt lat="44.98222" lon="9.6946583"><ele>86.0</ele><time>2026-04-06T07:03:12.598Z</time></trkpt><trkpt lat="44.9822267" lon="9.69451"><ele>86.0</ele><time>2026-04-06T07:03:13.598Z</time></trkpt><trkpt lat="44.9822367" lon="9.694345"><ele>86.19999999999999</ele><time>2026-04-06T07:03:14.6Z</time></trkpt><trkpt lat="44.982245" lon="9.6941783"><ele>86.39999999999999</ele><time>2026-04-06T07:03:15.599Z</time></trkpt><trkpt lat="44.9822533" lon="9.6940217"><ele>86.6</ele><time>2026-04-06T07:03:16.599Z</time></trkpt><trkpt lat="44.982265" lon="9.6938783"><ele>86.8</ele><time>2026-04-06T07:03:17.598Z</time></trkpt><trkpt lat="44.982275" lon="9.69374"><ele>87.0</ele><time>2026-04-06T07:03:18.598Z</time></trkpt><trkpt lat="44.9822867" lon="9.6936117"><ele>87.0</ele><time>2026-04-06T07:03:19.6Z</time></trkpt><trkpt lat="44.9822967" lon="9.693495"><ele>87.0</ele><time>2026-04-06T07:03:20.6Z</time></trkpt><trkpt lat="44.9823033" lon="9.69338"><ele>87.0</ele><time>2026-04-06T07:03:21.601Z</time></trkpt><trkpt lat="44.982315" lon="9.69325"><ele>87.0</ele><time>2026-04-06T07:03:22.599Z</time></trkpt><trkpt lat="44.9823233" lon="9.6931117"><ele>87.0</ele><time>2026-04-06T07:03:23.601Z</time></trkpt><trkpt lat="44.9823317" lon="9.6929567"><ele>87.0</ele><time>2026-04-06T07:03:24.6Z</time></trkpt><trkpt lat="44.98234" lon="9.6928017"><ele>87.0</ele><time>2026-04-06T07:03:25.601Z</time></trkpt><trkpt lat="44.9823483" lon="9.6926583"><ele>87.0</ele><time>2026-04-06T07:03:26.602Z</time></trkpt><trkpt lat="44.9823583" lon="9.6925233"><ele>87.0</ele><time>2026-04-06T07:03:27.599Z</time></trkpt><trkpt lat="44.9823683" lon="9.692395"><ele>87.0</ele><time>2026-04-06T07:03:28.599Z</time></trkpt><trkpt lat="44.9823783" lon="9.6922783"><ele>86.8</ele><time>2026-04-06T07:03:29.6Z</time></trkpt><trkpt lat="44.9823867" lon="9.6921683"><ele>86.6</ele><time>2026-04-06T07:03:30.599Z</time></trkpt><trkpt lat="44.982395" lon="9.6920533"><ele>86.39999999999999</ele><time>2026-04-06T07:03:31.599Z</time></trkpt><trkpt lat="44.9824033" lon="9.6919183"><ele>86.19999999999999</ele><time>2026-04-06T07:03:32.598Z</time></trkpt><trkpt lat="44.9824167" lon="9.6917633"><ele>86.0</ele><time>2026-04-06T07:03:33.599Z</time></trkpt><trkpt lat="44.98243" lon="9.691595"><ele>86.0</ele><time>2026-04-06T07:03:34.6Z</time></trkpt><trkpt lat="44.982445" lon="9.6914083"><ele>86.0</ele><time>2026-04-06T07:03:35.598Z</time></trkpt><trkpt lat="44.9824567" lon="9.6911867"><ele>86.0</ele><time>2026-04-06T07:03:36.599Z</time></trkpt><trkpt lat="44.9824733" lon="9.6909283"><ele>85.66666666666667</ele><time>2026-04-06T07:03:37.598Z</time></trkpt><trkpt lat="44.9824967" lon="9.6906417"><ele>85.33333333333333</ele><time>2026-04-06T07:03:38.6Z</time></trkpt><trkpt lat="44.982525" lon="9.6903567"><ele>85.0</ele><time>2026-04-06T07:03:39.599Z</time></trkpt><trkpt lat="44.9825517" lon="9.6900933"><ele>85.0</ele><time>2026-04-06T07:03:40.598Z</time></trkpt><trkpt lat="44.982575" lon="9.68985"><ele>85.0</ele><time>2026-04-06T07:03:41.599Z</time></trkpt><trkpt lat="44.9826017" lon="9.6896083"><ele>85.0</ele><time>2026-04-06T07:03:42.598Z</time></trkpt><trkpt lat="44.9826253" lon="9.6893675"><ele>85.33333333333333</ele><time>2026-04-06T07:03:43.597Z</time></trkpt><trkpt lat="44.9826444" lon="9.6891356"><ele>85.66666666666667</ele><time>2026-04-06T07:03:44.599Z</time></trkpt><trkpt lat="44.9826639" lon="9.6889163"><ele>86.0</ele><time>2026-04-06T07:03:45.598Z</time></trkpt><trkpt lat="44.9826829" lon="9.6887091"><ele>86.0</ele><time>2026-04-06T07:03:46.598Z</time></trkpt><trkpt lat="44.9826981" lon="9.6885158"><ele>86.0</ele><time>2026-04-06T07:03:47.597Z</time></trkpt><trkpt lat="44.9827122" lon="9.6883299"><ele>86.0</ele><time>2026-04-06T07:03:48.598Z</time></trkpt><trkpt lat="44.9827246" lon="9.6881436"><ele>86.0</ele><time>2026-04-06T07:03:49.599Z</time></trkpt><trkpt lat="44.9827358" lon="9.6879616"><ele>86.0</ele><time>2026-04-06T07:03:50.599Z</time></trkpt><trkpt lat="44.9827449" lon="9.6877887"><ele>86.0</ele><time>2026-04-06T07:03:51.6Z</time></trkpt><trkpt lat="44.9827515" lon="9.6876273"><ele>86.0</ele><time>2026-04-06T07:03:52.6Z</time></trkpt><trkpt lat="44.982758" lon="9.6874796"><ele>86.0</ele><time>2026-04-06T07:03:53.6Z</time></trkpt><trkpt lat="44.9827649" lon="9.6873549"><ele>86.0</ele><time>2026-04-06T07:03:54.599Z</time></trkpt><trkpt lat="44.982774" lon="9.6872535"><ele>86.0</ele><time>2026-04-06T07:03:55.6Z</time></trkpt><trkpt lat="44.9828103" lon="9.6871004"><ele>86.0</ele><time>2026-04-06T07:03:57.601Z</time></trkpt><trkpt lat="44.9828687" lon="9.6869759"><ele>86.0</ele><time>2026-04-06T07:03:59.601Z</time></trkpt><trkpt lat="44.9829294" lon="9.6868381"><ele>86.0</ele><time>2026-04-06T07:04:01.6Z</time></trkpt><trkpt lat="44.982921" lon="9.6866654"><ele>86.14285714285715</ele><time>2026-04-06T07:04:03.598Z</time></trkpt><trkpt lat="44.9828786" lon="9.6865969"><ele>86.28571428571429</ele><time>2026-04-06T07:04:04.599Z</time></trkpt><trkpt lat="44.9828186" lon="9.6865602"><ele>86.42857142857143</ele><time>2026-04-06T07:04:05.599Z</time></trkpt><trkpt lat="44.9827518" lon="9.6865639"><ele>86.57142857142858</ele><time>2026-04-06T07:04:06.599Z</time></trkpt><trkpt lat="44.9826894" lon="9.686605"><ele>86.71428571428572</ele><time>2026-04-06T07:04:07.601Z</time></trkpt><trkpt lat="44.9826402" lon="9.6866771"><ele>86.85714285714286</ele><time>2026-04-06T07:04:08.599Z</time></trkpt><trkpt lat="44.9826061" lon="9.6867695"><ele>87.0</ele><time>2026-04-06T07:04:09.599Z</time></trkpt><trkpt lat="44.9826023" lon="9.6868888"><ele>86.75</ele><time>2026-04-06T07:04:10.599Z</time></trkpt><trkpt lat="44.9826152" lon="9.6870226"><ele>86.5</ele><time>2026-04-06T07:04:11.599Z</time></trkpt><trkpt lat="44.9826485" lon="9.6872035"><ele>86.25</ele><time>2026-04-06T07:04:12.599Z</time></trkpt><trkpt lat="44.9826795" lon="9.6874408"><ele>86.0</ele><time>2026-04-06T07:04:13.597Z</time></trkpt><trkpt lat="44.9826886" lon="9.6877269"><ele>86.0</ele><time>2026-04-06T07:04:14.6Z</time></trkpt><trkpt lat="44.9826839" lon="9.6880458"><ele>86.0</ele><time>2026-04-06T07:04:15.598Z</time></trkpt><trkpt lat="44.9826693" lon="9.6883773"><ele>86.0</ele><time>2026-04-06T07:04:16.598Z</time></trkpt><trkpt lat="44.9826431" lon="9.6886994"><ele>86.0</ele><time>2026-04-06T07:04:17.599Z</time></trkpt><trkpt lat="44.9826156" lon="9.6890078"><ele>86.0</ele><time>2026-04-06T07:04:18.598Z</time></trkpt><trkpt lat="44.9825931" lon="9.689318"><ele>85.66666666666667</ele><time>2026-04-06T07:04:19.6Z</time></trkpt><trkpt lat="44.9825699" lon="9.6896312"><ele>85.33333333333333</ele><time>2026-04-06T07:04:20.6Z</time></trkpt><trkpt lat="44.9825481" lon="9.6899293"><ele>85.0</ele><time>2026-04-06T07:04:21.6Z</time></trkpt><trkpt lat="44.9825254" lon="9.6902208"><ele>85.0</ele><time>2026-04-06T07:04:22.599Z</time></trkpt><trkpt lat="44.9825024" lon="9.6905089"><ele>85.0</ele><time>2026-04-06T07:04:23.6Z</time></trkpt><trkpt lat="44.9824803" lon="9.6907944"><ele>85.0</ele><time>2026-04-06T07:04:24.599Z</time></trkpt><trkpt lat="44.9824577" lon="9.6910672"><ele>85.33333333333333</ele><time>2026-04-06T07:04:25.6Z</time></trkpt><trkpt lat="44.9824345" lon="9.6913344"><ele>85.66666666666667</ele><time>2026-04-06T07:04:26.599Z</time></trkpt><trkpt lat="44.9824117" lon="9.6915906"><ele>86.0</ele><time>2026-04-06T07:04:27.601Z</time></trkpt><trkpt lat="44.9823932" lon="9.6918293"><ele>86.0</ele><time>2026-04-06T07:04:28.599Z</time></trkpt><trkpt lat="44.9823753" lon="9.6920565"><ele>86.0</ele><time>2026-04-06T07:04:29.598Z</time></trkpt><trkpt lat="44.9823597" lon="9.6922691"><ele>86.0</ele><time>2026-04-06T07:04:30.598Z</time></trkpt><trkpt lat="44.9823443" lon="9.6924676"><ele>86.0</ele><time>2026-04-06T07:04:31.597Z</time></trkpt><trkpt lat="44.9823245" lon="9.6926723"><ele>86.0</ele><time>2026-04-06T07:04:32.6Z</time></trkpt><trkpt lat="44.9823042" lon="9.6928904"><ele>86.0</ele><time>2026-04-06T07:04:33.597Z</time></trkpt><trkpt lat="44.9822901" lon="9.6931085"><ele>86.25</ele><time>2026-04-06T07:04:34.599Z</time></trkpt><trkpt lat="44.9822775" lon="9.6933098"><ele>86.5</ele><time>2026-04-06T07:04:35.599Z</time></trkpt><trkpt lat="44.982264" lon="9.6934939"><ele>86.75</ele><time>2026-04-06T07:04:36.599Z</time></trkpt><trkpt lat="44.9822503" lon="9.6936708"><ele>87.0</ele><time>2026-04-06T07:04:37.599Z</time></trkpt><trkpt lat="44.982241" lon="9.6938564"><ele>87.0</ele><time>2026-04-06T07:04:38.599Z</time></trkpt><trkpt lat="44.9822375" lon="9.6940587"><ele>87.0</ele><time>2026-04-06T07:04:39.601Z</time></trkpt><trkpt lat="44.9822284" lon="9.6942749"><ele>87.0</ele><time>2026-04-06T07:04:40.599Z</time></trkpt><trkpt lat="44.9822165" lon="9.6944874"><ele>87.0</ele><time>2026-04-06T07:04:41.601Z</time></trkpt><trkpt lat="44.9822095" lon="9.6946824"><ele>86.75</ele><time>2026-04-06T07:04:42.599Z</time></trkpt><trkpt lat="44.9822025" lon="9.6948647"><ele>86.5</ele><time>2026-04-06T07:04:43.599Z</time></trkpt><trkpt lat="44.9821925" lon="9.695035"><ele>86.25</ele><time>2026-04-06T07:04:44.602Z</time></trkpt><trkpt lat="44.9821829" lon="9.6952026"><ele>86.0</ele><time>2026-04-06T07:04:45.599Z</time></trkpt><trkpt lat="44.9821725" lon="9.6953863"><ele>85.66666666666667</ele><time>2026-04-06T07:04:46.599Z</time></trkpt><trkpt lat="44.9821596" lon="9.6955914"><ele>85.33333333333333</ele><time>2026-04-06T07:04:47.602Z</time></trkpt><trkpt lat="44.9821434" lon="9.6958028"><ele>85.0</ele><time>2026-04-06T07:04:48.6Z</time></trkpt><trkpt lat="44.9821277" lon="9.6960259"><ele>85.33333333333333</ele><time>2026-04-06T07:04:49.602Z</time></trkpt><trkpt lat="44.982112" lon="9.6962547"><ele>85.66666666666667</ele><time>2026-04-06T07:04:50.601Z</time></trkpt><trkpt lat="44.9820955" lon="9.6964957"><ele>86.0</ele><time>2026-04-06T07:04:51.6Z</time></trkpt><trkpt lat="44.9820779" lon="9.696749"><ele>87.66666666666667</ele><time>2026-04-06T07:04:52.601Z</time></trkpt><trkpt lat="44.982064" lon="9.6970079"><ele>89.33333333333333</ele><time>2026-04-06T07:04:53.6Z</time></trkpt><trkpt lat="44.9820537" lon="9.6972658"><ele>91.0</ele><time>2026-04-06T07:04:54.599Z</time></trkpt><trkpt lat="44.9820445" lon="9.6975243"><ele>90.33333333333333</ele><time>2026-04-06T07:04:55.598Z</time></trkpt><trkpt lat="44.9820372" lon="9.6977866"><ele>89.66666666666667</ele><time>2026-04-06T07:04:56.601Z</time></trkpt><trkpt lat="44.9820347" lon="9.6980531"><ele>89.0</ele><time>2026-04-06T07:04:57.599Z</time></trkpt><trkpt lat="44.9820336" lon="9.6983192"><ele>89.0</ele><time>2026-04-06T07:04:58.601Z</time></trkpt><trkpt lat="44.9820345" lon="9.6985787"><ele>89.0</ele><time>2026-04-06T07:04:59.599Z</time></trkpt><trkpt lat="44.982035" lon="9.6988168"><ele>89.0</ele><time>2026-04-06T07:05:00.598Z</time></trkpt><trkpt lat="44.9820369" lon="9.6990371"><ele>88.33333333333334</ele><time>2026-04-06T07:05:01.598Z</time></trkpt><trkpt lat="44.9820386" lon="9.6992663"><ele>87.66666666666667</ele><time>2026-04-06T07:05:02.601Z</time></trkpt><trkpt lat="44.9820448" lon="9.699531"><ele>87.0</ele><time>2026-04-06T07:05:03.599Z</time></trkpt><trkpt lat="44.9820494" lon="9.6998426"><ele>87.0</ele><time>2026-04-06T07:05:04.598Z</time></trkpt><trkpt lat="44.9820522" lon="9.7001935"><ele>87.0</ele><time>2026-04-06T07:05:05.598Z</time></trkpt><trkpt lat="44.9820544" lon="9.7005692"><ele>86.5</ele><time>2026-04-06T07:05:06.598Z</time></trkpt><trkpt lat="44.982054" lon="9.7009618"><ele>86.0</ele><time>2026-04-06T07:05:07.599Z</time></trkpt><trkpt lat="44.9820528" lon="9.7013653"><ele>85.5</ele><time>2026-04-06T07:05:08.599Z</time></trkpt><trkpt lat="44.9820536" lon="9.701769"><ele>85.0</ele><time>2026-04-06T07:05:09.599Z</time></trkpt><trkpt lat="44.982055" lon="9.7021641"><ele>85.0</ele><time>2026-04-06T07:05:10.599Z</time></trkpt><trkpt lat="44.9820565" lon="9.7025549"><ele>85.0</ele><time>2026-04-06T07:05:11.599Z</time></trkpt><trkpt lat="44.982055" lon="9.7029217"><ele>85.0</ele><time>2026-04-06T07:05:12.599Z</time></trkpt><trkpt lat="44.982055" lon="9.7032717"><ele>85.0</ele><time>2026-04-06T07:05:13.598Z</time></trkpt><trkpt lat="44.9820533" lon="9.7036117"><ele>85.0</ele><time>2026-04-06T07:05:14.599Z</time></trkpt><trkpt lat="44.982055" lon="9.7039317"><ele>85.0</ele><time>2026-04-06T07:05:15.598Z</time></trkpt><trkpt lat="44.982065" lon="9.7042367"><ele>85.0</ele><time>2026-04-06T07:05:16.599Z</time></trkpt><trkpt lat="44.9820883" lon="9.7045483"><ele>85.0</ele><time>2026-04-06T07:05:17.598Z</time></trkpt><trkpt lat="44.9821333" lon="9.7048667"><ele>85.0</ele><time>2026-04-06T07:05:18.598Z</time></trkpt><trkpt lat="44.9821883" lon="9.7051967"><ele>85.5</ele><time>2026-04-06T07:05:19.6Z</time></trkpt><trkpt lat="44.9822483" lon="9.705535"><ele>86.0</ele><time>2026-04-06T07:05:20.601Z</time></trkpt><trkpt lat="44.9823117" lon="9.7058783"><ele>86.0</ele><time>2026-04-06T07:05:21.6Z</time></trkpt><trkpt lat="44.9823783" lon="9.7062267"><ele>86.0</ele><time>2026-04-06T07:05:22.6Z</time></trkpt><trkpt lat="44.9824483" lon="9.7065783"><ele>86.5</ele><time>2026-04-06T07:05:23.599Z</time></trkpt><trkpt lat="44.9825183" lon="9.7069333"><ele>87.0</ele><time>2026-04-06T07:05:24.598Z</time></trkpt><trkpt lat="44.98259" lon="9.70729"><ele>87.0</ele><time>2026-04-06T07:05:25.598Z</time></trkpt><trkpt lat="44.982665" lon="9.7076517"><ele>87.0</ele><time>2026-04-06T07:05:26.599Z</time></trkpt><trkpt lat="44.98274" lon="9.7080183"><ele>86.5</ele><time>2026-04-06T07:05:27.598Z</time></trkpt><trkpt lat="44.982815" lon="9.7083883"><ele>86.0</ele><time>2026-04-06T07:05:28.598Z</time></trkpt><trkpt lat="44.9828883" lon="9.70876"><ele>85.5</ele><time>2026-04-06T07:05:29.6Z</time></trkpt><trkpt lat="44.9829617" lon="9.7091333"><ele>85.0</ele><time>2026-04-06T07:05:30.599Z</time></trkpt><trkpt lat="44.983035" lon="9.7095067"><ele>85.0</ele><time>2026-04-06T07:05:31.599Z</time></trkpt><trkpt lat="44.9831083" lon="9.7098817"><ele>85.0</ele><time>2026-04-06T07:05:32.6Z</time></trkpt><trkpt lat="44.9831817" lon="9.7102567"><ele>85.0</ele><time>2026-04-06T07:05:33.598Z</time></trkpt><trkpt lat="44.9832567" lon="9.710635"><ele>85.0</ele><time>2026-04-06T07:05:34.599Z</time></trkpt><trkpt lat="44.9833317" lon="9.7110117"><ele>84.0</ele><time>2026-04-06T07:05:35.597Z</time></trkpt><trkpt lat="44.9834067" lon="9.71139"><ele>83.0</ele><time>2026-04-06T07:05:36.597Z</time></trkpt><trkpt lat="44.9834783" lon="9.71177"><ele>83.0</ele><time>2026-04-06T07:05:37.601Z</time></trkpt><trkpt lat="44.9835533" lon="9.7121483"><ele>83.0</ele><time>2026-04-06T07:05:38.599Z</time></trkpt><trkpt lat="44.9836283" lon="9.71252"><ele>83.0</ele><time>2026-04-06T07:05:39.597Z</time></trkpt><trkpt lat="44.9836967" lon="9.712865"><ele>83.0</ele><time>2026-04-06T07:05:40.598Z</time></trkpt><trkpt lat="44.98376" lon="9.7131883"><ele>83.0</ele><time>2026-04-06T07:05:41.598Z</time></trkpt><trkpt lat="44.98382" lon="9.7134967"><ele>83.0</ele><time>2026-04-06T07:05:42.599Z</time></trkpt><trkpt lat="44.983875" lon="9.7137917"><ele>83.0</ele><time>2026-04-06T07:05:43.599Z</time></trkpt><trkpt lat="44.9839183" lon="9.71408"><ele>83.0</ele><time>2026-04-06T07:05:44.599Z</time></trkpt><trkpt lat="44.9839433" lon="9.71438"><ele>83.0</ele><time>2026-04-06T07:05:45.598Z</time></trkpt><trkpt lat="44.98395" lon="9.7146917"><ele>83.0</ele><time>2026-04-06T07:05:46.599Z</time></trkpt><trkpt lat="44.9839333" lon="9.7150183"><ele>83.0</ele><time>2026-04-06T07:05:47.599Z</time></trkpt><trkpt lat="44.9839017" lon="9.715365"><ele>83.0</ele><time>2026-04-06T07:05:48.599Z</time></trkpt><trkpt lat="44.9838617" lon="9.7157317"><ele>83.0</ele><time>2026-04-06T07:05:49.599Z</time></trkpt><trkpt lat="44.983815" lon="9.71611"><ele>83.0</ele><time>2026-04-06T07:05:50.6Z</time></trkpt><trkpt lat="44.9837683" lon="9.716495"><ele>83.0</ele><time>2026-04-06T07:05:51.6Z</time></trkpt><trkpt lat="44.98372" lon="9.7168817"><ele>83.0</ele><time>2026-04-06T07:05:52.599Z</time></trkpt><trkpt lat="44.9836717" lon="9.71727"><ele>82.0</ele><time>2026-04-06T07:05:53.601Z</time></trkpt><trkpt lat="44.983625" lon="9.7176567"><ele>81.0</ele><time>2026-04-06T07:05:54.599Z</time></trkpt><trkpt lat="44.9835783" lon="9.718045"><ele>81.0</ele><time>2026-04-06T07:05:55.597Z</time></trkpt><trkpt lat="44.9835317" lon="9.718435"><ele>81.0</ele><time>2026-04-06T07:05:56.599Z</time></trkpt><trkpt lat="44.983485" lon="9.7188217"><ele>80.5</ele><time>2026-04-06T07:05:57.599Z</time></trkpt><trkpt lat="44.9834383" lon="9.7192067"><ele>80.0</ele><time>2026-04-06T07:05:58.598Z</time></trkpt><trkpt lat="44.9833933" lon="9.7195933"><ele>82.0</ele><time>2026-04-06T07:05:59.598Z</time></trkpt><trkpt lat="44.983345" lon="9.7199817"><ele>84.0</ele><time>2026-04-06T07:06:00.598Z</time></trkpt><trkpt lat="44.9832967" lon="9.7203683"><ele>84.5</ele><time>2026-04-06T07:06:01.597Z</time></trkpt><trkpt lat="44.983245" lon="9.7207583"><ele>85.0</ele><time>2026-04-06T07:06:02.6Z</time></trkpt><trkpt lat="44.9831883" lon="9.72115"><ele>85.5</ele><time>2026-04-06T07:06:03.599Z</time></trkpt><trkpt lat="44.98313" lon="9.7215467"><ele>86.0</ele><time>2026-04-06T07:06:04.599Z</time></trkpt><trkpt lat="44.9830717" lon="9.7219433"><ele>86.0</ele><time>2026-04-06T07:06:05.598Z</time></trkpt><trkpt lat="44.9830183" lon="9.7223467"><ele>86.0</ele><time>2026-04-06T07:06:06.598Z</time></trkpt><trkpt lat="44.9829667" lon="9.7227517"><ele>85.5</ele><time>2026-04-06T07:06:07.598Z</time></trkpt><trkpt lat="44.9829133" lon="9.7231567"><ele>85.0</ele><time>2026-04-06T07:06:08.599Z</time></trkpt><trkpt lat="44.9828633" lon="9.7235633"><ele>85.0</ele><time>2026-04-06T07:06:09.599Z</time></trkpt><trkpt lat="44.9828117" lon="9.7239717"><ele>85.0</ele><time>2026-04-06T07:06:10.599Z</time></trkpt><trkpt lat="44.9827633" lon="9.72438"><ele>84.5</ele><time>2026-04-06T07:06:11.597Z</time></trkpt><trkpt lat="44.982715" lon="9.7247867"><ele>84.0</ele><time>2026-04-06T07:06:12.6Z</time></trkpt><trkpt lat="44.982665" lon="9.7251883"><ele>84.5</ele><time>2026-04-06T07:06:13.6Z</time></trkpt><trkpt lat="44.9826167" lon="9.7255867"><ele>85.0</ele><time>2026-04-06T07:06:14.599Z</time></trkpt><trkpt lat="44.9825683" lon="9.72598"><ele>85.0</ele><time>2026-04-06T07:06:15.599Z</time></trkpt><trkpt lat="44.98252" lon="9.726365"><ele>85.0</ele><time>2026-04-06T07:06:16.598Z</time></trkpt><trkpt lat="44.9824733" lon="9.7267267"><ele>85.0</ele><time>2026-04-06T07:06:17.599Z</time></trkpt><trkpt lat="44.9824317" lon="9.72706"><ele>85.0</ele><time>2026-04-06T07:06:18.598Z</time></trkpt><trkpt lat="44.9823933" lon="9.7273683"><ele>85.0</ele><time>2026-04-06T07:06:19.599Z</time></trkpt><trkpt lat="44.9823583" lon="9.72766"><ele>85.0</ele><time>2026-04-06T07:06:20.599Z</time></trkpt><trkpt lat="44.9823233" lon="9.727935"><ele>85.0</ele><time>2026-04-06T07:06:21.598Z</time></trkpt><trkpt lat="44.9822933" lon="9.7282"><ele>85.0</ele><time>2026-04-06T07:06:22.598Z</time></trkpt><trkpt lat="44.9822617" lon="9.728465"><ele>85.0</ele><time>2026-04-06T07:06:23.599Z</time></trkpt><trkpt lat="44.982235" lon="9.7287183"><ele>85.0</ele><time>2026-04-06T07:06:24.599Z</time></trkpt><trkpt lat="44.9822067" lon="9.72896"><ele>84.66666666666666</ele><time>2026-04-06T07:06:25.598Z</time></trkpt><trkpt lat="44.9821767" lon="9.7291883"><ele>84.33333333333333</ele><time>2026-04-06T07:06:26.599Z</time></trkpt><trkpt lat="44.98215" lon="9.7294017"><ele>84.0</ele><time>2026-04-06T07:06:27.598Z</time></trkpt><trkpt lat="44.982125" lon="9.7295917"><ele>83.5</ele><time>2026-04-06T07:06:28.599Z</time></trkpt><trkpt lat="44.982105" lon="9.729745"><ele>83.0</ele><time>2026-04-06T07:06:29.598Z</time></trkpt><trkpt lat="44.98209" lon="9.7298633"><ele>82.5</ele><time>2026-04-06T07:06:30.597Z</time></trkpt><trkpt lat="44.9820767" lon="9.7299517"><ele>82.0</ele><time>2026-04-06T07:06:31.599Z</time></trkpt><trkpt lat="44.9820383" lon="9.730055"><ele>81.5</ele><time>2026-04-06T07:06:33.599Z</time></trkpt><trkpt lat="44.98194" lon="9.7300533"><ele>81.0</ele><time>2026-04-06T07:06:36.6Z</time></trkpt><trkpt lat="44.98187" lon="9.7300267"><ele>81.0</ele><time>2026-04-06T07:06:39.6Z</time></trkpt><trkpt lat="44.9819483" lon="9.7300733"><ele>81.0</ele><time>2026-04-06T07:09:42.597Z</time></trkpt><trkpt lat="44.9820183" lon="9.730065"><ele>81.0</ele><time>2026-04-06T07:09:44.599Z</time></trkpt><trkpt lat="44.982095" lon="9.730005"><ele>81.0</ele><time>2026-04-06T07:09:49.598Z</time></trkpt><trkpt lat="44.9821217" lon="9.7299033"><ele>81.0</ele><time>2026-04-06T07:09:50.599Z</time></trkpt><trkpt lat="44.9821417" lon="9.7297667"><ele>81.0</ele><time>2026-04-06T07:09:51.598Z</time></trkpt><trkpt lat="44.9821667" lon="9.7295917"><ele>82.0</ele><time>2026-04-06T07:09:52.597Z</time></trkpt><trkpt lat="44.982195" lon="9.7293817"><ele>83.0</ele><time>2026-04-06T07:09:53.597Z</time></trkpt><trkpt lat="44.982225" lon="9.729125"><ele>84.0</ele><time>2026-04-06T07:09:54.599Z</time></trkpt><trkpt lat="44.98226" lon="9.7288183"><ele>84.5</ele><time>2026-04-06T07:09:55.599Z</time></trkpt><trkpt lat="44.9823033" lon="9.7284667"><ele>85.0</ele><time>2026-04-06T07:09:56.598Z</time></trkpt><trkpt lat="44.98235" lon="9.72809"><ele>85.0</ele><time>2026-04-06T07:09:57.598Z</time></trkpt><trkpt lat="44.9823983" lon="9.727695"><ele>85.0</ele><time>2026-04-06T07:09:58.599Z</time></trkpt><trkpt lat="44.9824483" lon="9.7272783"><ele>85.0</ele><time>2026-04-06T07:09:59.599Z</time></trkpt><trkpt lat="44.9825017" lon="9.7268583"><ele>85.0</ele><time>2026-04-06T07:10:00.597Z</time></trkpt><trkpt lat="44.9825517" lon="9.7264283"><ele>85.0</ele><time>2026-04-06T07:10:01.598Z</time></trkpt><trkpt lat="44.9826017" lon="9.725995"><ele>85.0</ele><time>2026-04-06T07:10:02.597Z</time></trkpt><trkpt lat="44.9826533" lon="9.7255567"><ele>84.5</ele><time>2026-04-06T07:10:03.599Z</time></trkpt><trkpt lat="44.982705" lon="9.7251117"><ele>84.0</ele><time>2026-04-06T07:10:04.598Z</time></trkpt><trkpt lat="44.98276" lon="9.72466"><ele>84.5</ele><time>2026-04-06T07:10:05.599Z</time></trkpt><trkpt lat="44.982815" lon="9.7242067"><ele>85.0</ele><time>2026-04-06T07:10:06.598Z</time></trkpt><trkpt lat="44.9828717" lon="9.72375"><ele>85.0</ele><time>2026-04-06T07:10:07.598Z</time></trkpt><trkpt lat="44.9829283" lon="9.7232833"><ele>85.0</ele><time>2026-04-06T07:10:08.599Z</time></trkpt><trkpt lat="44.9829867" lon="9.7228083"><ele>85.5</ele><time>2026-04-06T07:10:09.6Z</time></trkpt><trkpt lat="44.9830483" lon="9.72233"><ele>86.0</ele><time>2026-04-06T07:10:10.597Z</time></trkpt><trkpt lat="44.98311" lon="9.721845"><ele>86.5</ele><time>2026-04-06T07:10:11.599Z</time></trkpt><trkpt lat="44.98317" lon="9.72136"><ele>87.0</ele><time>2026-04-06T07:10:12.598Z</time></trkpt><trkpt lat="44.9832267" lon="9.7209017"><ele>86.0</ele><time>2026-04-06T07:10:13.598Z</time></trkpt><trkpt lat="44.9832833" lon="9.720465"><ele>85.0</ele><time>2026-04-06T07:10:14.6Z</time></trkpt><trkpt lat="44.9833367" lon="9.7200283"><ele>84.0</ele><time>2026-04-06T07:10:15.6Z</time></trkpt><trkpt lat="44.9833883" lon="9.7196017"><ele>83.0</ele><time>2026-04-06T07:10:16.598Z</time></trkpt><trkpt lat="44.9834417" lon="9.719175"><ele>82.0</ele><time>2026-04-06T07:10:17.598Z</time></trkpt><trkpt lat="44.9834967" lon="9.7187467"><ele>81.0</ele><time>2026-04-06T07:10:18.598Z</time></trkpt><trkpt lat="44.98355" lon="9.7183133"><ele>81.0</ele><time>2026-04-06T07:10:19.598Z</time></trkpt><trkpt lat="44.9836017" lon="9.717885"><ele>81.0</ele><time>2026-04-06T07:10:20.599Z</time></trkpt><trkpt lat="44.9836533" lon="9.71747"><ele>81.0</ele><time>2026-04-06T07:10:21.598Z</time></trkpt><trkpt lat="44.9837033" lon="9.7170717"><ele>81.0</ele><time>2026-04-06T07:10:22.598Z</time></trkpt><trkpt lat="44.9837533" lon="9.7166767"><ele>82.0</ele><time>2026-04-06T07:10:23.598Z</time></trkpt><trkpt lat="44.9838017" lon="9.7162983"><ele>83.0</ele><time>2026-04-06T07:10:24.597Z</time></trkpt><trkpt lat="44.9838467" lon="9.71595"><ele>83.0</ele><time>2026-04-06T07:10:25.598Z</time></trkpt><trkpt lat="44.9838833" lon="9.7156183"><ele>83.0</ele><time>2026-04-06T07:10:26.599Z</time></trkpt><trkpt lat="44.9839183" lon="9.7153033"><ele>83.0</ele><time>2026-04-06T07:10:27.597Z</time></trkpt><trkpt lat="44.9839483" lon="9.7149933"><ele>83.0</ele><time>2026-04-06T07:10:28.598Z</time></trkpt><trkpt lat="44.983965" lon="9.7146833"><ele>83.0</ele><time>2026-04-06T07:10:29.599Z</time></trkpt><trkpt lat="44.9839567" lon="9.7143583"><ele>83.5</ele><time>2026-04-06T07:10:30.597Z</time></trkpt><trkpt lat="44.98392" lon="9.7140133"><ele>84.0</ele><time>2026-04-06T07:10:31.599Z</time></trkpt><trkpt lat="44.9838617" lon="9.7136517"><ele>83.5</ele><time>2026-04-06T07:10:32.599Z</time></trkpt><trkpt lat="44.9837933" lon="9.7132767"><ele>83.0</ele><time>2026-04-06T07:10:33.598Z</time></trkpt><trkpt lat="44.98372" lon="9.7128967"><ele>83.0</ele><time>2026-04-06T07:10:34.598Z</time></trkpt><trkpt lat="44.9836467" lon="9.7125133"><ele>83.0</ele><time>2026-04-06T07:10:35.597Z</time></trkpt><trkpt lat="44.9835717" lon="9.7121283"><ele>83.0</ele><time>2026-04-06T07:10:36.598Z</time></trkpt><trkpt lat="44.9834917" lon="9.7117417"><ele>83.0</ele><time>2026-04-06T07:10:37.599Z</time></trkpt><trkpt lat="44.9834117" lon="9.7113533"><ele>84.0</ele><time>2026-04-06T07:10:38.599Z</time></trkpt><trkpt lat="44.983335" lon="9.7109617"><ele>85.0</ele><time>2026-04-06T07:10:39.598Z</time></trkpt><trkpt lat="44.9832533" lon="9.710565"><ele>85.0</ele><time>2026-04-06T07:10:40.598Z</time></trkpt><trkpt lat="44.9831733" lon="9.710165"><ele>85.0</ele><time>2026-04-06T07:10:41.597Z</time></trkpt><trkpt lat="44.9830967" lon="9.7097633"><ele>85.0</ele><time>2026-04-06T07:10:42.598Z</time></trkpt><trkpt lat="44.9830183" lon="9.7093617"><ele>85.0</ele><time>2026-04-06T07:10:43.598Z</time></trkpt><trkpt lat="44.9829383" lon="9.7089567"><ele>85.5</ele><time>2026-04-06T07:10:44.599Z</time></trkpt><trkpt lat="44.98286" lon="9.70855"><ele>86.0</ele><time>2026-04-06T07:10:45.598Z</time></trkpt><trkpt lat="44.9827817" lon="9.7081417"><ele>86.5</ele><time>2026-04-06T07:10:46.598Z</time></trkpt><trkpt lat="44.982705" lon="9.7077317"><ele>87.0</ele><time>2026-04-06T07:10:47.601Z</time></trkpt><trkpt lat="44.982625" lon="9.70732"><ele>87.0</ele><time>2026-04-06T07:10:48.598Z</time></trkpt><trkpt lat="44.9825467" lon="9.7069083"><ele>87.0</ele><time>2026-04-06T07:10:49.599Z</time></trkpt><trkpt lat="44.9824667" lon="9.7064967"><ele>86.5</ele><time>2026-04-06T07:10:50.601Z</time></trkpt><trkpt lat="44.9823883" lon="9.7060983"><ele>86.0</ele><time>2026-04-06T07:10:51.6Z</time></trkpt><trkpt lat="44.9823183" lon="9.7057283"><ele>86.0</ele><time>2026-04-06T07:10:52.599Z</time></trkpt><trkpt lat="44.9822533" lon="9.7053867"><ele>86.0</ele><time>2026-04-06T07:10:53.6Z</time></trkpt><trkpt lat="44.9821933" lon="9.705065"><ele>85.66666666666667</ele><time>2026-04-06T07:10:54.6Z</time></trkpt><trkpt lat="44.9821433" lon="9.70477"><ele>85.33333333333333</ele><time>2026-04-06T07:10:55.598Z</time></trkpt><trkpt lat="44.9821083" lon="9.7044917"><ele>85.0</ele><time>2026-04-06T07:10:56.599Z</time></trkpt><trkpt lat="44.9820917" lon="9.7042033"><ele>85.0</ele><time>2026-04-06T07:10:57.599Z</time></trkpt><trkpt lat="44.9820867" lon="9.70389"><ele>85.0</ele><time>2026-04-06T07:10:58.598Z</time></trkpt><trkpt lat="44.9820867" lon="9.70356"><ele>85.5</ele><time>2026-04-06T07:10:59.598Z</time></trkpt><trkpt lat="44.9820833" lon="9.703215"><ele>86.0</ele><time>2026-04-06T07:11:00.599Z</time></trkpt><trkpt lat="44.9820783" lon="9.70286"><ele>85.5</ele><time>2026-04-06T07:11:01.599Z</time></trkpt><trkpt lat="44.982075" lon="9.7024967"><ele>85.0</ele><time>2026-04-06T07:11:02.599Z</time></trkpt><trkpt lat="44.98207" lon="9.7021233"><ele>85.0</ele><time>2026-04-06T07:11:03.598Z</time></trkpt><trkpt lat="44.98207" lon="9.7017467"><ele>85.0</ele><time>2026-04-06T07:11:04.598Z</time></trkpt><trkpt lat="44.9820683" lon="9.70137"><ele>85.5</ele><time>2026-04-06T07:11:05.598Z</time></trkpt><trkpt lat="44.9820683" lon="9.7009917"><ele>86.0</ele><time>2026-04-06T07:11:06.599Z</time></trkpt><trkpt lat="44.9820683" lon="9.7006217"><ele>86.0</ele><time>2026-04-06T07:11:07.598Z</time></trkpt><trkpt lat="44.9820683" lon="9.7002733"><ele>86.0</ele><time>2026-04-06T07:11:08.599Z</time></trkpt><trkpt lat="44.9820667" lon="9.69995"><ele>86.33333333333334</ele><time>2026-04-06T07:11:09.599Z</time></trkpt><trkpt lat="44.982065" lon="9.6996517"><ele>86.66666666666667</ele><time>2026-04-06T07:11:10.598Z</time></trkpt><trkpt lat="44.982065" lon="9.699385"><ele>87.0</ele><time>2026-04-06T07:11:11.599Z</time></trkpt><trkpt lat="44.9820583" lon="9.69915"><ele>87.0</ele><time>2026-04-06T07:11:12.598Z</time></trkpt><trkpt lat="44.982055" lon="9.6989483"><ele>87.0</ele><time>2026-04-06T07:11:13.598Z</time></trkpt><trkpt lat="44.9820533" lon="9.698765"><ele>87.0</ele><time>2026-04-06T07:11:14.598Z</time></trkpt><trkpt lat="44.9820517" lon="9.6985767"><ele>87.0</ele><time>2026-04-06T07:11:15.598Z</time></trkpt><trkpt lat="44.9820533" lon="9.6983567"><ele>87.66666666666667</ele><time>2026-04-06T07:11:16.597Z</time></trkpt><trkpt lat="44.982055" lon="9.6980983"><ele>88.33333333333334</ele><time>2026-04-06T07:11:17.598Z</time></trkpt><trkpt lat="44.9820583" lon="9.6978083"><ele>89.0</ele><time>2026-04-06T07:11:18.6Z</time></trkpt><trkpt lat="44.9820617" lon="9.6975"><ele>89.66666666666667</ele><time>2026-04-06T07:11:19.6Z</time></trkpt><trkpt lat="44.9820717" lon="9.6971783"><ele>90.33333333333333</ele><time>2026-04-06T07:11:20.601Z</time></trkpt><trkpt lat="44.9820867" lon="9.6968683"><ele>91.0</ele><time>2026-04-06T07:11:21.6Z</time></trkpt><trkpt lat="44.9821033" lon="9.696585"><ele>89.33333333333333</ele><time>2026-04-06T07:11:22.601Z</time></trkpt><trkpt lat="44.98212" lon="9.6963267"><ele>87.66666666666667</ele><time>2026-04-06T07:11:23.601Z</time></trkpt><trkpt lat="44.9821367" lon="9.69609"><ele>86.0</ele><time>2026-04-06T07:11:24.599Z</time></trkpt><trkpt lat="44.98215" lon="9.6958633"><ele>86.0</ele><time>2026-04-06T07:11:25.598Z</time></trkpt><trkpt lat="44.982165" lon="9.695645"><ele>86.0</ele><time>2026-04-06T07:11:26.6Z</time></trkpt><trkpt lat="44.9821783" lon="9.6954317"><ele>86.0</ele><time>2026-04-06T07:11:27.599Z</time></trkpt><trkpt lat="44.98219" lon="9.695235"><ele>86.0</ele><time>2026-04-06T07:11:28.598Z</time></trkpt><trkpt lat="44.9822" lon="9.69505"><ele>86.0</ele><time>2026-04-06T07:11:29.599Z</time></trkpt><trkpt lat="44.98221" lon="9.6948667"><ele>86.0</ele><time>2026-04-06T07:11:30.599Z</time></trkpt><trkpt lat="44.9822217" lon="9.694665"><ele>86.0</ele><time>2026-04-06T07:11:31.599Z</time></trkpt><trkpt lat="44.9822367" lon="9.6944467"><ele>86.0</ele><time>2026-04-06T07:11:32.599Z</time></trkpt><trkpt lat="44.98225" lon="9.694215"><ele>86.33333333333334</ele><time>2026-04-06T07:11:33.598Z</time></trkpt><trkpt lat="44.9822667" lon="9.693985"><ele>86.66666666666667</ele><time>2026-04-06T07:11:34.6Z</time></trkpt><trkpt lat="44.9822867" lon="9.6937683"><ele>87.0</ele><time>2026-04-06T07:11:35.599Z</time></trkpt><trkpt lat="44.9822983" lon="9.6935583"><ele>87.0</ele><time>2026-04-06T07:11:36.6Z</time></trkpt><trkpt lat="44.9823117" lon="9.6933483"><ele>87.0</ele><time>2026-04-06T07:11:37.599Z</time></trkpt><trkpt lat="44.9823233" lon="9.69312"><ele>87.0</ele><time>2026-04-06T07:11:38.599Z</time></trkpt><trkpt lat="44.9823383" lon="9.6928767"><ele>86.66666666666667</ele><time>2026-04-06T07:11:39.599Z</time></trkpt><trkpt lat="44.982355" lon="9.6926367"><ele>86.33333333333334</ele><time>2026-04-06T07:11:40.599Z</time></trkpt><trkpt lat="44.982375" lon="9.69241"><ele>86.0</ele><time>2026-04-06T07:11:41.598Z</time></trkpt><trkpt lat="44.982395" lon="9.6921867"><ele>86.0</ele><time>2026-04-06T07:11:42.6Z</time></trkpt><trkpt lat="44.982415" lon="9.6919517"><ele>86.0</ele><time>2026-04-06T07:11:43.6Z</time></trkpt><trkpt lat="44.9824417" lon="9.6916817"><ele>86.0</ele><time>2026-04-06T07:11:44.6Z</time></trkpt><trkpt lat="44.98247" lon="9.6913833"><ele>85.5</ele><time>2026-04-06T07:11:45.6Z</time></trkpt><trkpt lat="44.9824983" lon="9.69106"><ele>85.0</ele><time>2026-04-06T07:11:46.598Z</time></trkpt><trkpt lat="44.9825233" lon="9.690725"><ele>85.0</ele><time>2026-04-06T07:11:47.6Z</time></trkpt><trkpt lat="44.9825483" lon="9.690405"><ele>85.0</ele><time>2026-04-06T07:11:48.6Z</time></trkpt><trkpt lat="44.9825717" lon="9.690105"><ele>85.0</ele><time>2026-04-06T07:11:49.6Z</time></trkpt><trkpt lat="44.9825933" lon="9.6898267"><ele>85.0</ele><time>2026-04-06T07:11:50.601Z</time></trkpt><trkpt lat="44.982615" lon="9.6895617"><ele>85.0</ele><time>2026-04-06T07:11:51.6Z</time></trkpt><trkpt lat="44.9826367" lon="9.6892883"><ele>85.0</ele><time>2026-04-06T07:11:52.6Z</time></trkpt><trkpt lat="44.9826567" lon="9.6890217"><ele>85.33333333333333</ele><time>2026-04-06T07:11:53.601Z</time></trkpt><trkpt lat="44.9826767" lon="9.6887733"><ele>85.66666666666667</ele><time>2026-04-06T07:11:54.599Z</time></trkpt><trkpt lat="44.982695" lon="9.6885383"><ele>86.0</ele><time>2026-04-06T07:11:55.598Z</time></trkpt><trkpt lat="44.98271" lon="9.68832"><ele>86.0</ele><time>2026-04-06T07:11:56.598Z</time></trkpt><trkpt lat="44.982725" lon="9.68811"><ele>86.0</ele><time>2026-04-06T07:11:57.599Z</time></trkpt><trkpt lat="44.982735" lon="9.6879117"><ele>86.0</ele><time>2026-04-06T07:11:58.598Z</time></trkpt><trkpt lat="44.9827483" lon="9.687725"><ele>86.0</ele><time>2026-04-06T07:11:59.598Z</time></trkpt><trkpt lat="44.98276" lon="9.68755"><ele>86.0</ele><time>2026-04-06T07:12:00.599Z</time></trkpt><trkpt lat="44.98277" lon="9.68739"><ele>86.0</ele><time>2026-04-06T07:12:01.599Z</time></trkpt><trkpt lat="44.9827867" lon="9.6872483"><ele>86.0</ele><time>2026-04-06T07:12:02.599Z</time></trkpt><trkpt lat="44.98282" lon="9.687135"><ele>86.0</ele><time>2026-04-06T07:12:03.598Z</time></trkpt><trkpt lat="44.9828683" lon="9.6870333"><ele>86.0</ele><time>2026-04-06T07:12:04.6Z</time></trkpt><trkpt lat="44.982915" lon="9.6869333"><ele>86.19999999999999</ele><time>2026-04-06T07:12:05.599Z</time></trkpt><trkpt lat="44.982945" lon="9.6868267"><ele>86.39999999999999</ele><time>2026-04-06T07:12:06.598Z</time></trkpt><trkpt lat="44.9829417" lon="9.68671"><ele>86.6</ele><time>2026-04-06T07:12:07.599Z</time></trkpt><trkpt lat="44.9829183" lon="9.6865767"><ele>86.8</ele><time>2026-04-06T07:12:08.6Z</time></trkpt><trkpt lat="44.9829017" lon="9.686425"><ele>87.0</ele><time>2026-04-06T07:12:09.599Z</time></trkpt><trkpt lat="44.9829083" lon="9.6862517"><ele>87.0</ele><time>2026-04-06T07:12:10.599Z</time></trkpt><trkpt lat="44.98293" lon="9.6860633"><ele>87.0</ele><time>2026-04-06T07:12:11.599Z</time></trkpt><trkpt lat="44.98296" lon="9.6858617"><ele>87.0</ele><time>2026-04-06T07:12:12.599Z</time></trkpt><trkpt lat="44.9829867" lon="9.68565"><ele>87.0</ele><time>2026-04-06T07:12:13.599Z</time></trkpt><trkpt lat="44.9830117" lon="9.6854317"><ele>87.0</ele><time>2026-04-06T07:12:14.601Z</time></trkpt><trkpt lat="44.9830367" lon="9.6852083"><ele>87.0</ele><time>2026-04-06T07:12:15.598Z</time></trkpt><trkpt lat="44.9830667" lon="9.6849783"><ele>87.0</ele><time>2026-04-06T07:12:16.6Z</time></trkpt><trkpt lat="44.9831017" lon="9.6847583"><ele>87.0</ele><time>2026-04-06T07:12:17.6Z</time></trkpt><trkpt lat="44.983135" lon="9.6845517"><ele>87.0</ele><time>2026-04-06T07:12:18.6Z</time></trkpt><trkpt lat="44.983165" lon="9.68435"><ele>87.0</ele><time>2026-04-06T07:12:19.6Z</time></trkpt><trkpt lat="44.9831933" lon="9.6841417"><ele>87.0</ele><time>2026-04-06T07:12:20.6Z</time></trkpt><trkpt lat="44.9832233" lon="9.6839217"><ele>87.0</ele><time>2026-04-06T07:12:21.599Z</time></trkpt><trkpt lat="44.9832567" lon="9.6836867"><ele>87.0</ele><time>2026-04-06T07:12:22.604Z</time></trkpt><trkpt lat="44.9832933" lon="9.6834417"><ele>87.0</ele><time>2026-04-06T07:12:23.6Z</time></trkpt><trkpt lat="44.9833317" lon="9.6831867"><ele>85.66666666666667</ele><time>2026-04-06T07:12:24.6Z</time></trkpt><trkpt lat="44.9833683" lon="9.6829233"><ele>84.33333333333334</ele><time>2026-04-06T07:12:25.6Z</time></trkpt><trkpt lat="44.9834083" lon="9.682655"><ele>83.0</ele><time>2026-04-06T07:12:26.601Z</time></trkpt><trkpt lat="44.9834483" lon="9.6823817"><ele>82.66666666666667</ele><time>2026-04-06T07:12:27.6Z</time></trkpt><trkpt lat="44.9834917" lon="9.6821067"><ele>82.33333333333333</ele><time>2026-04-06T07:12:28.599Z</time></trkpt><trkpt lat="44.98353" lon="9.68183"><ele>82.0</ele><time>2026-04-06T07:12:29.598Z</time></trkpt><trkpt lat="44.9835683" lon="9.6815483"><ele>81.66666666666666</ele><time>2026-04-06T07:12:30.598Z</time></trkpt><trkpt lat="44.9836067" lon="9.6812683"><ele>81.33333333333333</ele><time>2026-04-06T07:12:31.599Z</time></trkpt><trkpt lat="44.983645" lon="9.6809883"><ele>81.0</ele><time>2026-04-06T07:12:32.6Z</time></trkpt><trkpt lat="44.9836833" lon="9.6807083"><ele>80.66666666666667</ele><time>2026-04-06T07:12:33.599Z</time></trkpt><trkpt lat="44.9837217" lon="9.6804267"><ele>80.33333333333334</ele><time>2026-04-06T07:12:34.599Z</time></trkpt><trkpt lat="44.9837617" lon="9.68015"><ele>80.0</ele><time>2026-04-06T07:12:35.598Z</time></trkpt><trkpt lat="44.9838" lon="9.679875"><ele>80.0</ele><time>2026-04-06T07:12:36.599Z</time></trkpt><trkpt lat="44.9838383" lon="9.6796033"><ele>80.0</ele><time>2026-04-06T07:12:37.598Z</time></trkpt><trkpt lat="44.9838767" lon="9.679335"><ele>80.0</ele><time>2026-04-06T07:12:38.6Z</time></trkpt><trkpt lat="44.9839133" lon="9.6790733"><ele>80.0</ele><time>2026-04-06T07:12:39.599Z</time></trkpt><trkpt lat="44.9839483" lon="9.6788283"><ele>80.0</ele><time>2026-04-06T07:12:40.6Z</time></trkpt><trkpt lat="44.9839783" lon="9.6785983"><ele>80.0</ele><time>2026-04-06T07:12:41.601Z</time></trkpt><trkpt lat="44.9840083" lon="9.678385"><ele>81.0</ele><time>2026-04-06T07:12:42.599Z</time></trkpt><trkpt lat="44.9840367" lon="9.678195"><ele>82.0</ele><time>2026-04-06T07:12:43.599Z</time></trkpt><trkpt lat="44.9840617" lon="9.6780317"><ele>83.0</ele><time>2026-04-06T07:12:44.6Z</time></trkpt><trkpt lat="44.984075" lon="9.6778933"><ele>84.0</ele><time>2026-04-06T07:12:45.6Z</time></trkpt><trkpt lat="44.984075" lon="9.6777767"><ele>85.0</ele><time>2026-04-06T07:12:46.601Z</time></trkpt><trkpt lat="44.9840517" lon="9.6776767"><ele>85.4</ele><time>2026-04-06T07:12:47.601Z</time></trkpt><trkpt lat="44.9839983" lon="9.6776083"><ele>85.8</ele><time>2026-04-06T07:12:48.601Z</time></trkpt><trkpt lat="44.983915" lon="9.6775683"><ele>86.19999999999999</ele><time>2026-04-06T07:12:49.6Z</time></trkpt><trkpt lat="44.9838033" lon="9.6775383"><ele>86.6</ele><time>2026-04-06T07:12:50.602Z</time></trkpt><trkpt lat="44.9836733" lon="9.6775033"><ele>87.0</ele><time>2026-04-06T07:12:51.601Z</time></trkpt><trkpt lat="44.9835317" lon="9.6774667"><ele>87.0</ele><time>2026-04-06T07:12:52.6Z</time></trkpt><trkpt lat="44.9833867" lon="9.6774267"><ele>87.0</ele><time>2026-04-06T07:12:53.602Z</time></trkpt><trkpt lat="44.9832383" lon="9.6773883"><ele>87.0</ele><time>2026-04-06T07:12:54.599Z</time></trkpt><trkpt lat="44.98309" lon="9.6773483"><ele>87.25</ele><time>2026-04-06T07:12:55.6Z</time></trkpt><trkpt lat="44.98295" lon="9.6773133"><ele>87.5</ele><time>2026-04-06T07:12:56.6Z</time></trkpt><trkpt lat="44.9828217" lon="9.67728"><ele>87.75</ele><time>2026-04-06T07:12:57.6Z</time></trkpt><trkpt lat="44.9827133" lon="9.677245"><ele>88.0</ele><time>2026-04-06T07:12:58.599Z</time></trkpt><trkpt lat="44.9826217" lon="9.6772067"><ele>88.0</ele><time>2026-04-06T07:12:59.599Z</time></trkpt><trkpt lat="44.98254" lon="9.6771467"><ele>88.0</ele><time>2026-04-06T07:13:00.6Z</time></trkpt><trkpt lat="44.9824833" lon="9.677055"><ele>88.0</ele><time>2026-04-06T07:13:01.598Z</time></trkpt><trkpt lat="44.98245" lon="9.67693"><ele>88.0</ele><time>2026-04-06T07:13:02.598Z</time></trkpt><trkpt lat="44.9824583" lon="9.67676"><ele>88.0</ele><time>2026-04-06T07:13:03.6Z</time></trkpt><trkpt lat="44.98247" lon="9.6765717"><ele>87.0</ele><time>2026-04-06T07:13:04.598Z</time></trkpt><trkpt lat="44.9824783" lon="9.6763867"><ele>86.0</ele><time>2026-04-06T07:13:05.6Z</time></trkpt><trkpt lat="44.9824833" lon="9.67622"><ele>85.0</ele><time>2026-04-06T07:13:06.598Z</time></trkpt><trkpt lat="44.982485" lon="9.676075"><ele>84.0</ele><time>2026-04-06T07:13:07.598Z</time></trkpt><trkpt lat="44.98247" lon="9.67595"><ele>83.0</ele><time>2026-04-06T07:13:08.6Z</time></trkpt><trkpt lat="44.98243" lon="9.6758467"><ele>83.0</ele><time>2026-04-06T07:13:09.6Z</time></trkpt><trkpt lat="44.9823667" lon="9.6757783"><ele>83.0</ele><time>2026-04-06T07:13:10.598Z</time></trkpt><trkpt lat="44.9822717" lon="9.675745"><ele>83.0</ele><time>2026-04-06T07:13:11.6Z</time></trkpt><trkpt lat="44.9821817" lon="9.6757267"><ele>83.0</ele><time>2026-04-06T07:13:12.598Z</time></trkpt><trkpt lat="44.9820967" lon="9.6756983"><ele>83.0</ele><time>2026-04-06T07:13:13.599Z</time></trkpt><trkpt lat="44.982035" lon="9.6756333"><ele>83.0</ele><time>2026-04-06T07:13:14.599Z</time></trkpt><trkpt lat="44.9820117" lon="9.6755283"><ele>83.0</ele><time>2026-04-06T07:13:15.599Z</time></trkpt><trkpt lat="44.982015" lon="9.6753917"><ele>83.0</ele><time>2026-04-06T07:13:16.599Z</time></trkpt><trkpt lat="44.9820383" lon="9.675215"><ele>83.0</ele><time>2026-04-06T07:13:17.598Z</time></trkpt><trkpt lat="44.98206" lon="9.6750117"><ele>83.0</ele><time>2026-04-06T07:13:18.602Z</time></trkpt><trkpt lat="44.982085" lon="9.6747883"><ele>83.33333333333334</ele><time>2026-04-06T07:13:19.601Z</time></trkpt><trkpt lat="44.98211" lon="9.67455"><ele>83.66666666666667</ele><time>2026-04-06T07:13:20.602Z</time></trkpt><trkpt lat="44.982135" lon="9.6743033"><ele>84.0</ele><time>2026-04-06T07:13:21.602Z</time></trkpt><trkpt lat="44.98216" lon="9.6740467"><ele>84.66666666666667</ele><time>2026-04-06T07:13:22.601Z</time></trkpt><trkpt lat="44.98219" lon="9.6737717"><ele>85.33333333333334</ele><time>2026-04-06T07:13:23.601Z</time></trkpt><trkpt lat="44.9822217" lon="9.6734933"><ele>86.0</ele><time>2026-04-06T07:13:24.599Z</time></trkpt><trkpt lat="44.98225" lon="9.67324"><ele>86.66666666666667</ele><time>2026-04-06T07:13:25.598Z</time></trkpt><trkpt lat="44.982275" lon="9.6730083"><ele>87.33333333333333</ele><time>2026-04-06T07:13:26.599Z</time></trkpt><trkpt lat="44.9822967" lon="9.67279"><ele>88.0</ele><time>2026-04-06T07:13:27.599Z</time></trkpt><trkpt lat="44.9823183" lon="9.6725967"><ele>88.0</ele><time>2026-04-06T07:13:28.599Z</time></trkpt><trkpt lat="44.982335" lon="9.6724383"><ele>88.0</ele><time>2026-04-06T07:13:29.599Z</time></trkpt><trkpt lat="44.982345" lon="9.672305"><ele>88.0</ele><time>2026-04-06T07:13:30.598Z</time></trkpt><trkpt lat="44.9823367" lon="9.672195"><ele>88.0</ele><time>2026-04-06T07:13:31.599Z</time></trkpt><trkpt lat="44.9823117" lon="9.6720967"><ele>88.0</ele><time>2026-04-06T07:13:32.599Z</time></trkpt><trkpt lat="44.9822333" lon="9.6720417"><ele>88.0</ele><time>2026-04-06T07:13:33.599Z</time></trkpt><trkpt lat="44.9821317" lon="9.672015"><ele>88.0</ele><time>2026-04-06T07:13:34.599Z</time></trkpt><trkpt lat="44.98201" lon="9.6719883"><ele>88.0</ele><time>2026-04-06T07:13:35.599Z</time></trkpt><trkpt lat="44.9818833" lon="9.6719567"><ele>88.0</ele><time>2026-04-06T07:13:36.599Z</time></trkpt><trkpt lat="44.981765" lon="9.6719233"><ele>88.0</ele><time>2026-04-06T07:13:37.599Z</time></trkpt><trkpt lat="44.9816583" lon="9.671895"><ele>87.66666666666666</ele><time>2026-04-06T07:13:38.6Z</time></trkpt><trkpt lat="44.9815667" lon="9.6718633"><ele>87.33333333333333</ele><time>2026-04-06T07:13:39.6Z</time></trkpt><trkpt lat="44.9814933" lon="9.6718133"><ele>87.0</ele><time>2026-04-06T07:13:40.601Z</time></trkpt><trkpt lat="44.9814383" lon="9.6717367"><ele>86.66666666666667</ele><time>2026-04-06T07:13:41.599Z</time></trkpt><trkpt lat="44.9814283" lon="9.67163"><ele>86.33333333333334</ele><time>2026-04-06T07:13:42.598Z</time></trkpt><trkpt lat="44.981435" lon="9.6714983"><ele>86.0</ele><time>2026-04-06T07:13:43.599Z</time></trkpt><trkpt lat="44.981465" lon="9.6713217"><ele>86.0</ele><time>2026-04-06T07:13:44.6Z</time></trkpt><trkpt lat="44.981495" lon="9.671125"><ele>86.0</ele><time>2026-04-06T07:13:45.599Z</time></trkpt><trkpt lat="44.98152" lon="9.670915"><ele>86.0</ele><time>2026-04-06T07:13:46.599Z</time></trkpt><trkpt lat="44.98155" lon="9.670695"><ele>86.33333333333334</ele><time>2026-04-06T07:13:47.6Z</time></trkpt><trkpt lat="44.9815817" lon="9.6704633"><ele>86.66666666666667</ele><time>2026-04-06T07:13:48.599Z</time></trkpt><trkpt lat="44.9816133" lon="9.6702217"><ele>87.0</ele><time>2026-04-06T07:13:49.599Z</time></trkpt><trkpt lat="44.9816483" lon="9.6699633"><ele>87.0</ele><time>2026-04-06T07:13:50.599Z</time></trkpt><trkpt lat="44.9816867" lon="9.669685"><ele>87.0</ele><time>2026-04-06T07:13:51.599Z</time></trkpt><trkpt lat="44.9817233" lon="9.6693933"><ele>87.0</ele><time>2026-04-06T07:13:52.599Z</time></trkpt><trkpt lat="44.98176" lon="9.6691167"><ele>87.0</ele><time>2026-04-06T07:13:53.599Z</time></trkpt><trkpt lat="44.9817917" lon="9.6688683"><ele>87.0</ele><time>2026-04-06T07:13:54.6Z</time></trkpt><trkpt lat="44.9818183" lon="9.6686417"><ele>87.0</ele><time>2026-04-06T07:13:55.599Z</time></trkpt><trkpt lat="44.981845" lon="9.668435"><ele>86.8</ele><time>2026-04-06T07:13:56.599Z</time></trkpt><trkpt lat="44.9818683" lon="9.6682583"><ele>86.6</ele><time>2026-04-06T07:13:57.6Z</time></trkpt><trkpt lat="44.9818883" lon="9.66811"><ele>86.39999999999999</ele><time>2026-04-06T07:13:58.598Z</time></trkpt><trkpt lat="44.981895" lon="9.6679883"><ele>86.19999999999999</ele><time>2026-04-06T07:13:59.599Z</time></trkpt><trkpt lat="44.9818833" lon="9.6678883"><ele>86.0</ele><time>2026-04-06T07:14:00.599Z</time></trkpt><trkpt lat="44.98185" lon="9.6678117"><ele>86.0</ele><time>2026-04-06T07:14:01.6Z</time></trkpt><trkpt lat="44.9817833" lon="9.6677683"><ele>86.0</ele><time>2026-04-06T07:14:02.6Z</time></trkpt><trkpt lat="44.9816867" lon="9.6677433"><ele>86.0</ele><time>2026-04-06T07:14:03.599Z</time></trkpt><trkpt lat="44.9815667" lon="9.667715"><ele>86.0</ele><time>2026-04-06T07:14:04.6Z</time></trkpt><trkpt lat="44.9814433" lon="9.6676867"><ele>86.0</ele><time>2026-04-06T07:14:05.6Z</time></trkpt><trkpt lat="44.98133" lon="9.667665"><ele>86.0</ele><time>2026-04-06T07:14:06.599Z</time></trkpt><trkpt lat="44.9812333" lon="9.66764"><ele>86.0</ele><time>2026-04-06T07:14:07.599Z</time></trkpt><trkpt lat="44.9811517" lon="9.6676067"><ele>86.0</ele><time>2026-04-06T07:14:08.6Z</time></trkpt><trkpt lat="44.981085" lon="9.667545"><ele>86.0</ele><time>2026-04-06T07:14:09.6Z</time></trkpt><trkpt lat="44.98105" lon="9.6674533"><ele>86.0</ele><time>2026-04-06T07:14:10.599Z</time></trkpt><trkpt lat="44.9810683" lon="9.667325"><ele>86.0</ele><time>2026-04-06T07:14:11.598Z</time></trkpt><trkpt lat="44.981085" lon="9.667165"><ele>86.0</ele><time>2026-04-06T07:14:12.6Z</time></trkpt><trkpt lat="44.9811033" lon="9.6669767"><ele>86.0</ele><time>2026-04-06T07:14:13.598Z</time></trkpt><trkpt lat="44.981125" lon="9.666765"><ele>86.0</ele><time>2026-04-06T07:14:14.601Z</time></trkpt><trkpt lat="44.98115" lon="9.6665317"><ele>86.33333333333334</ele><time>2026-04-06T07:14:15.6Z</time></trkpt><trkpt lat="44.98118" lon="9.66628"><ele>86.66666666666667</ele><time>2026-04-06T07:14:16.599Z</time></trkpt><trkpt lat="44.98121" lon="9.6660133"><ele>87.0</ele><time>2026-04-06T07:14:17.6Z</time></trkpt><trkpt lat="44.9812417" lon="9.6657333"><ele>86.33333333333333</ele><time>2026-04-06T07:14:18.599Z</time></trkpt><trkpt lat="44.9812733" lon="9.6654517"><ele>85.66666666666666</ele><time>2026-04-06T07:14:19.6Z</time></trkpt><trkpt lat="44.981305" lon="9.6651767"><ele>85.0</ele><time>2026-04-06T07:14:20.6Z</time></trkpt><trkpt lat="44.9813367" lon="9.6649167"><ele>85.0</ele><time>2026-04-06T07:14:21.598Z</time></trkpt><trkpt lat="44.9813683" lon="9.6646617"><ele>85.0</ele><time>2026-04-06T07:14:22.599Z</time></trkpt><trkpt lat="44.9814017" lon="9.6644083"><ele>85.0</ele><time>2026-04-06T07:14:23.599Z</time></trkpt><trkpt lat="44.9814333" lon="9.6641517"><ele>85.66666666666666</ele><time>2026-04-06T07:14:24.598Z</time></trkpt><trkpt lat="44.9814667" lon="9.6638917"><ele>86.33333333333333</ele><time>2026-04-06T07:14:25.598Z</time></trkpt><trkpt lat="44.9814983" lon="9.6636283"><ele>87.0</ele><time>2026-04-06T07:14:26.6Z</time></trkpt><trkpt lat="44.98153" lon="9.6633633"><ele>87.66666666666667</ele><time>2026-04-06T07:14:27.599Z</time></trkpt><trkpt lat="44.9815617" lon="9.663095"><ele>88.33333333333334</ele><time>2026-04-06T07:14:28.598Z</time></trkpt><trkpt lat="44.9815917" lon="9.6628217"><ele>89.0</ele><time>2026-04-06T07:14:29.6Z</time></trkpt><trkpt lat="44.9816233" lon="9.6625417"><ele>89.0</ele><time>2026-04-06T07:14:30.6Z</time></trkpt><trkpt lat="44.981655" lon="9.66226"><ele>89.0</ele><time>2026-04-06T07:14:31.602Z</time></trkpt><trkpt lat="44.9816867" lon="9.6619917"><ele>89.0</ele><time>2026-04-06T07:14:32.6Z</time></trkpt><trkpt lat="44.9817183" lon="9.66174"><ele>89.0</ele><time>2026-04-06T07:14:33.602Z</time></trkpt><trkpt lat="44.9817467" lon="9.661505"><ele>89.0</ele><time>2026-04-06T07:14:34.601Z</time></trkpt><trkpt lat="44.981775" lon="9.66128"><ele>89.0</ele><time>2026-04-06T07:14:35.601Z</time></trkpt><trkpt lat="44.9818033" lon="9.6610683"><ele>89.0</ele><time>2026-04-06T07:14:36.6Z</time></trkpt><trkpt lat="44.9818283" lon="9.660875"><ele>89.0</ele><time>2026-04-06T07:14:37.601Z</time></trkpt><trkpt lat="44.9818533" lon="9.660705"><ele>89.0</ele><time>2026-04-06T07:14:38.602Z</time></trkpt><trkpt lat="44.981875" lon="9.6605683"><ele>89.0</ele><time>2026-04-06T07:14:39.601Z</time></trkpt><trkpt lat="44.9819" lon="9.6604633"><ele>89.0</ele><time>2026-04-06T07:14:40.6Z</time></trkpt><trkpt lat="44.98193" lon="9.6603333"><ele>89.0</ele><time>2026-04-06T07:14:42.601Z</time></trkpt><trkpt lat="44.9819083" lon="9.66023"><ele>89.0</ele><time>2026-04-06T07:14:44.601Z</time></trkpt><trkpt lat="44.9818033" lon="9.6601233"><ele>89.0</ele><time>2026-04-06T07:14:46.599Z</time></trkpt><trkpt lat="44.981715" lon="9.6600883"><ele>89.0</ele><time>2026-04-06T07:14:47.599Z</time></trkpt><trkpt lat="44.9816067" lon="9.660055"><ele>89.0</ele><time>2026-04-06T07:14:48.6Z</time></trkpt><trkpt lat="44.98148" lon="9.6600167"><ele>89.0</ele><time>2026-04-06T07:14:49.598Z</time></trkpt><trkpt lat="44.9813333" lon="9.6599733"><ele>89.0</ele><time>2026-04-06T07:14:50.599Z</time></trkpt><trkpt lat="44.981175" lon="9.65993"><ele>89.0</ele><time>2026-04-06T07:14:51.599Z</time></trkpt><trkpt lat="44.9810017" lon="9.6598833"><ele>89.0</ele><time>2026-04-06T07:14:52.6Z</time></trkpt><trkpt lat="44.98082" lon="9.6598333"><ele>89.0</ele><time>2026-04-06T07:14:53.599Z</time></trkpt><trkpt lat="44.9806317" lon="9.6597833"><ele>89.0</ele><time>2026-04-06T07:14:54.599Z</time></trkpt><trkpt lat="44.9804383" lon="9.6597317"><ele>89.0</ele><time>2026-04-06T07:14:55.599Z</time></trkpt><trkpt lat="44.9802417" lon="9.6596783"><ele>89.0</ele><time>2026-04-06T07:14:56.6Z</time></trkpt><trkpt lat="44.9800433" lon="9.6596233"><ele>89.0</ele><time>2026-04-06T07:14:57.601Z</time></trkpt><trkpt lat="44.97984" lon="9.6595683"><ele>89.0</ele><time>2026-04-06T07:14:58.599Z</time></trkpt><trkpt lat="44.9796367" lon="9.659515"><ele>89.0</ele><time>2026-04-06T07:14:59.602Z</time></trkpt><trkpt lat="44.9794317" lon="9.65946"><ele>89.0</ele><time>2026-04-06T07:15:00.599Z</time></trkpt><trkpt lat="44.9792283" lon="9.6594067"><ele>90.0</ele><time>2026-04-06T07:15:01.601Z</time></trkpt><trkpt lat="44.9790267" lon="9.6593517"><ele>91.0</ele><time>2026-04-06T07:15:02.601Z</time></trkpt><trkpt lat="44.9788233" lon="9.6593017"><ele>92.0</ele><time>2026-04-06T07:15:03.6Z</time></trkpt><trkpt lat="44.978625" lon="9.6592483"><ele>92.0</ele><time>2026-04-06T07:15:04.601Z</time></trkpt><trkpt lat="44.978425" lon="9.6591933"><ele>92.0</ele><time>2026-04-06T07:15:05.601Z</time></trkpt><trkpt lat="44.9782267" lon="9.6591367"><ele>92.0</ele><time>2026-04-06T07:15:06.599Z</time></trkpt><trkpt lat="44.97803" lon="9.6590817"><ele>91.66666666666667</ele><time>2026-04-06T07:15:07.601Z</time></trkpt><trkpt lat="44.9778317" lon="9.6590283"><ele>91.33333333333333</ele><time>2026-04-06T07:15:08.601Z</time></trkpt><trkpt lat="44.9776317" lon="9.6589733"><ele>91.0</ele><time>2026-04-06T07:15:09.601Z</time></trkpt><trkpt lat="44.97743" lon="9.658915"><ele>91.0</ele><time>2026-04-06T07:15:10.603Z</time></trkpt><trkpt lat="44.977225" lon="9.6588567"><ele>91.0</ele><time>2026-04-06T07:15:11.6Z</time></trkpt><trkpt lat="44.9770183" lon="9.6588"><ele>91.0</ele><time>2026-04-06T07:15:12.599Z</time></trkpt><trkpt lat="44.97681" lon="9.65874"><ele>91.33333333333333</ele><time>2026-04-06T07:15:13.601Z</time></trkpt><trkpt lat="44.9766" lon="9.65868"><ele>91.66666666666667</ele><time>2026-04-06T07:15:14.601Z</time></trkpt><trkpt lat="44.97639" lon="9.65862"><ele>92.0</ele><time>2026-04-06T07:15:15.598Z</time></trkpt><trkpt lat="44.9761817" lon="9.6585583"><ele>92.0</ele><time>2026-04-06T07:15:16.599Z</time></trkpt><trkpt lat="44.975975" lon="9.6584933"><ele>92.0</ele><time>2026-04-06T07:15:17.599Z</time></trkpt><trkpt lat="44.9757683" lon="9.65842"><ele>92.0</ele><time>2026-04-06T07:15:18.599Z</time></trkpt><trkpt lat="44.9755633" lon="9.65834"><ele>92.33333333333334</ele><time>2026-04-06T07:15:19.6Z</time></trkpt><trkpt lat="44.9753633" lon="9.6582533"><ele>92.66666666666667</ele><time>2026-04-06T07:15:20.599Z</time></trkpt><trkpt lat="44.9751683" lon="9.6581633"><ele>93.0</ele><time>2026-04-06T07:15:21.601Z</time></trkpt><trkpt lat="44.9749733" lon="9.658065"><ele>93.33333333333333</ele><time>2026-04-06T07:15:22.601Z</time></trkpt><trkpt lat="44.974785" lon="9.6579667"><ele>93.66666666666666</ele><time>2026-04-06T07:15:23.601Z</time></trkpt><trkpt lat="44.974595" lon="9.65787"><ele>94.0</ele><time>2026-04-06T07:15:24.6Z</time></trkpt><trkpt lat="44.9744083" lon="9.657775"><ele>94.0</ele><time>2026-04-06T07:15:25.601Z</time></trkpt><trkpt lat="44.9742233" lon="9.6576783"><ele>94.0</ele><time>2026-04-06T07:15:26.601Z</time></trkpt><trkpt lat="44.9740383" lon="9.6575817"><ele>94.0</ele><time>2026-04-06T07:15:27.601Z</time></trkpt><trkpt lat="44.9738517" lon="9.6574867"><ele>93.66666666666666</ele><time>2026-04-06T07:15:28.601Z</time></trkpt><trkpt lat="44.973665" lon="9.65739"><ele>93.33333333333333</ele><time>2026-04-06T07:15:29.598Z</time></trkpt><trkpt lat="44.973475" lon="9.6572933"><ele>93.0</ele><time>2026-04-06T07:15:30.599Z</time></trkpt><trkpt lat="44.9732833" lon="9.6571967"><ele>93.66666666666667</ele><time>2026-04-06T07:15:31.599Z</time></trkpt><trkpt lat="44.9730917" lon="9.6570983"><ele>94.33333333333334</ele><time>2026-04-06T07:15:32.599Z</time></trkpt><trkpt lat="44.9729017" lon="9.657"><ele>95.0</ele><time>2026-04-06T07:15:33.6Z</time></trkpt><trkpt lat="44.9727117" lon="9.6568983"><ele>95.0</ele><time>2026-04-06T07:15:34.6Z</time></trkpt><trkpt lat="44.9725233" lon="9.6567983"><ele>95.0</ele><time>2026-04-06T07:15:35.6Z</time></trkpt><trkpt lat="44.9723367" lon="9.6567"><ele>95.0</ele><time>2026-04-06T07:15:36.599Z</time></trkpt><trkpt lat="44.9721483" lon="9.656605"><ele>95.33333333333334</ele><time>2026-04-06T07:15:37.598Z</time></trkpt><trkpt lat="44.9719617" lon="9.65651"><ele>95.66666666666667</ele><time>2026-04-06T07:15:38.601Z</time></trkpt><trkpt lat="44.9717733" lon="9.6564083"><ele>96.0</ele><time>2026-04-06T07:15:39.599Z</time></trkpt><trkpt lat="44.9715817" lon="9.6563083"><ele>96.0</ele><time>2026-04-06T07:15:40.599Z</time></trkpt><trkpt lat="44.9713917" lon="9.6562083"><ele>96.0</ele><time>2026-04-06T07:15:41.599Z</time></trkpt><trkpt lat="44.9711983" lon="9.65611"><ele>96.0</ele><time>2026-04-06T07:15:42.6Z</time></trkpt><trkpt lat="44.9710033" lon="9.65601"><ele>96.0</ele><time>2026-04-06T07:15:43.601Z</time></trkpt><trkpt lat="44.9708067" lon="9.6559133"><ele>96.0</ele><time>2026-04-06T07:15:44.599Z</time></trkpt><trkpt lat="44.9706133" lon="9.655815"><ele>96.0</ele><time>2026-04-06T07:15:45.599Z</time></trkpt><trkpt lat="44.9704183" lon="9.6557133"><ele>96.0</ele><time>2026-04-06T07:15:46.6Z</time></trkpt><trkpt lat="44.9702217" lon="9.6556083"><ele>96.0</ele><time>2026-04-06T07:15:47.598Z</time></trkpt><trkpt lat="44.970025" lon="9.6555033"><ele>96.0</ele><time>2026-04-06T07:15:48.599Z</time></trkpt><trkpt lat="44.9698267" lon="9.6553983"><ele>96.0</ele><time>2026-04-06T07:15:49.599Z</time></trkpt><trkpt lat="44.9696267" lon="9.655295"><ele>96.0</ele><time>2026-04-06T07:15:50.6Z</time></trkpt><trkpt lat="44.969425" lon="9.6551917"><ele>96.0</ele><time>2026-04-06T07:15:51.601Z</time></trkpt><trkpt lat="44.9692233" lon="9.65509"><ele>96.33333333333334</ele><time>2026-04-06T07:15:52.601Z</time></trkpt><trkpt lat="44.96902" lon="9.6549867"><ele>96.66666666666667</ele><time>2026-04-06T07:15:53.601Z</time></trkpt><trkpt lat="44.9688167" lon="9.6548833"><ele>97.0</ele><time>2026-04-06T07:15:54.605Z</time></trkpt><trkpt lat="44.9686133" lon="9.65478"><ele>97.0</ele><time>2026-04-06T07:15:55.6Z</time></trkpt><trkpt lat="44.9684083" lon="9.654675"><ele>97.0</ele><time>2026-04-06T07:15:56.602Z</time></trkpt><trkpt lat="44.9682033" lon="9.6545717"><ele>97.0</ele><time>2026-04-06T07:15:57.601Z</time></trkpt><trkpt lat="44.9680017" lon="9.654465"><ele>97.33333333333334</ele><time>2026-04-06T07:15:58.6Z</time></trkpt><trkpt lat="44.9677983" lon="9.65436"><ele>97.66666666666666</ele><time>2026-04-06T07:15:59.598Z</time></trkpt><trkpt lat="44.967595" lon="9.6542533"><ele>98.0</ele><time>2026-04-06T07:16:00.6Z</time></trkpt><trkpt lat="44.96739" lon="9.6541483"><ele>98.33333333333333</ele><time>2026-04-06T07:16:01.599Z</time></trkpt><trkpt lat="44.9671833" lon="9.654045"><ele>98.66666666666666</ele><time>2026-04-06T07:16:02.6Z</time></trkpt><trkpt lat="44.9669783" lon="9.6539383"><ele>99.0</ele><time>2026-04-06T07:16:03.599Z</time></trkpt><trkpt lat="44.9667767" lon="9.6538317"><ele>99.0</ele><time>2026-04-06T07:16:04.599Z</time></trkpt><trkpt lat="44.9665733" lon="9.6537233"><ele>99.0</ele><time>2026-04-06T07:16:05.6Z</time></trkpt><trkpt lat="44.96637" lon="9.6536167"><ele>99.0</ele><time>2026-04-06T07:16:06.599Z</time></trkpt><trkpt lat="44.966165" lon="9.6535083"><ele>99.0</ele><time>2026-04-06T07:16:07.599Z</time></trkpt><trkpt lat="44.96596" lon="9.6534017"><ele>99.0</ele><time>2026-04-06T07:16:08.6Z</time></trkpt><trkpt lat="44.9657567" lon="9.653295"><ele>99.0</ele><time>2026-04-06T07:16:09.598Z</time></trkpt><trkpt lat="44.965555" lon="9.6531917"><ele>99.33333333333334</ele><time>2026-04-06T07:16:10.599Z</time></trkpt><trkpt lat="44.9653567" lon="9.6530883"><ele>99.66666666666667</ele><time>2026-04-06T07:16:11.599Z</time></trkpt><trkpt lat="44.96516" lon="9.6529867"><ele>100.0</ele><time>2026-04-06T07:16:12.598Z</time></trkpt><trkpt lat="44.9649683" lon="9.6528833"><ele>100.33333333333334</ele><time>2026-04-06T07:16:13.601Z</time></trkpt><trkpt lat="44.9647817" lon="9.6527767"><ele>100.66666666666666</ele><time>2026-04-06T07:16:14.598Z</time></trkpt><trkpt lat="44.9646033" lon="9.6526683"><ele>101.0</ele><time>2026-04-06T07:16:15.599Z</time></trkpt><trkpt lat="44.964435" lon="9.6525533"><ele>101.0</ele><time>2026-04-06T07:16:16.599Z</time></trkpt><trkpt lat="44.9642717" lon="9.6524383"><ele>101.0</ele><time>2026-04-06T07:16:17.601Z</time></trkpt><trkpt lat="44.9641183" lon="9.652325"><ele>101.0</ele><time>2026-04-06T07:16:18.598Z</time></trkpt><trkpt lat="44.9639733" lon="9.652215"><ele>101.33333333333333</ele><time>2026-04-06T07:16:19.599Z</time></trkpt><trkpt lat="44.9638317" lon="9.652105"><ele>101.66666666666666</ele><time>2026-04-06T07:16:20.601Z</time></trkpt><trkpt lat="44.9636917" lon="9.6519933"><ele>102.0</ele><time>2026-04-06T07:16:21.601Z</time></trkpt><trkpt lat="44.96355" lon="9.6518783"><ele>101.66666666666666</ele><time>2026-04-06T07:16:22.601Z</time></trkpt><trkpt lat="44.9634083" lon="9.6517667"><ele>101.33333333333333</ele><time>2026-04-06T07:16:23.602Z</time></trkpt><trkpt lat="44.9632667" lon="9.651655"><ele>101.0</ele><time>2026-04-06T07:16:24.6Z</time></trkpt><trkpt lat="44.9631283" lon="9.651545"><ele>101.0</ele><time>2026-04-06T07:16:25.601Z</time></trkpt><trkpt lat="44.9629917" lon="9.6514367"><ele>101.0</ele><time>2026-04-06T07:16:26.6Z</time></trkpt><trkpt lat="44.96286" lon="9.65133"><ele>101.0</ele><time>2026-04-06T07:16:27.601Z</time></trkpt><trkpt lat="44.96273" lon="9.65123"><ele>101.0</ele><time>2026-04-06T07:16:28.6Z</time></trkpt><trkpt lat="44.9626033" lon="9.6511267"><ele>101.0</ele><time>2026-04-06T07:16:29.6Z</time></trkpt><trkpt lat="44.9624767" lon="9.651025"><ele>101.0</ele><time>2026-04-06T07:16:30.599Z</time></trkpt><trkpt lat="44.9623483" lon="9.65092"><ele>101.0</ele><time>2026-04-06T07:16:31.6Z</time></trkpt><trkpt lat="44.96222" lon="9.6508133"><ele>101.33333333333333</ele><time>2026-04-06T07:16:32.6Z</time></trkpt><trkpt lat="44.9620883" lon="9.650705"><ele>101.66666666666666</ele><time>2026-04-06T07:16:33.599Z</time></trkpt><trkpt lat="44.9619483" lon="9.650595"><ele>102.0</ele><time>2026-04-06T07:16:34.6Z</time></trkpt><trkpt lat="44.9618017" lon="9.65048"><ele>102.33333333333334</ele><time>2026-04-06T07:16:35.598Z</time></trkpt><trkpt lat="44.9616533" lon="9.6503633"><ele>102.66666666666667</ele><time>2026-04-06T07:16:36.6Z</time></trkpt><trkpt lat="44.9615" lon="9.6502417"><ele>103.0</ele><time>2026-04-06T07:16:37.599Z</time></trkpt><trkpt lat="44.961345" lon="9.65012"><ele>102.66666666666667</ele><time>2026-04-06T07:16:38.599Z</time></trkpt><trkpt lat="44.961185" lon="9.649995"><ele>102.33333333333334</ele><time>2026-04-06T07:16:39.599Z</time></trkpt><trkpt lat="44.9610217" lon="9.6498683"><ele>102.0</ele><time>2026-04-06T07:16:40.599Z</time></trkpt><trkpt lat="44.960855" lon="9.6497383"><ele>102.0</ele><time>2026-04-06T07:16:41.597Z</time></trkpt><trkpt lat="44.9606883" lon="9.6496067"><ele>102.0</ele><time>2026-04-06T07:16:42.599Z</time></trkpt><trkpt lat="44.96052" lon="9.6494733"><ele>102.0</ele><time>2026-04-06T07:16:43.598Z</time></trkpt><trkpt lat="44.96035" lon="9.6493383"><ele>102.0</ele><time>2026-04-06T07:16:44.603Z</time></trkpt><trkpt lat="44.9601817" lon="9.649205"><ele>102.0</ele><time>2026-04-06T07:16:45.601Z</time></trkpt><trkpt lat="44.9600133" lon="9.6490733"><ele>102.0</ele><time>2026-04-06T07:16:46.599Z</time></trkpt><trkpt lat="44.9598467" lon="9.6489417"><ele>102.66666666666666</ele><time>2026-04-06T07:16:47.6Z</time></trkpt><trkpt lat="44.9596783" lon="9.6488083"><ele>103.33333333333333</ele><time>2026-04-06T07:16:48.599Z</time></trkpt><trkpt lat="44.9595083" lon="9.6486767"><ele>104.0</ele><time>2026-04-06T07:16:49.6Z</time></trkpt><trkpt lat="44.9593367" lon="9.6485417"><ele>104.33333333333333</ele><time>2026-04-06T07:16:50.6Z</time></trkpt><trkpt lat="44.9591667" lon="9.6484083"><ele>104.66666666666666</ele><time>2026-04-06T07:16:51.598Z</time></trkpt><trkpt lat="44.9589967" lon="9.6482733"><ele>105.0</ele><time>2026-04-06T07:16:52.599Z</time></trkpt><trkpt lat="44.9588283" lon="9.6481383"><ele>105.0</ele><time>2026-04-06T07:16:53.599Z</time></trkpt><trkpt lat="44.9586617" lon="9.6480067"><ele>105.0</ele><time>2026-04-06T07:16:54.599Z</time></trkpt><trkpt lat="44.9584983" lon="9.647875"><ele>105.0</ele><time>2026-04-06T07:16:55.603Z</time></trkpt><trkpt lat="44.958335" lon="9.647745"><ele>105.0</ele><time>2026-04-06T07:16:56.599Z</time></trkpt><trkpt lat="44.95817" lon="9.647615"><ele>105.0</ele><time>2026-04-06T07:16:57.599Z</time></trkpt><trkpt lat="44.9580033" lon="9.6474833"><ele>105.0</ele><time>2026-04-06T07:16:58.599Z</time></trkpt><trkpt lat="44.95783" lon="9.6473467"><ele>105.0</ele><time>2026-04-06T07:16:59.601Z</time></trkpt><trkpt lat="44.957655" lon="9.6472083"><ele>105.0</ele><time>2026-04-06T07:17:00.6Z</time></trkpt><trkpt lat="44.9574767" lon="9.64707"><ele>105.0</ele><time>2026-04-06T07:17:01.601Z</time></trkpt><trkpt lat="44.9572983" lon="9.64693"><ele>105.66666666666666</ele><time>2026-04-06T07:17:02.601Z</time></trkpt><trkpt lat="44.95712" lon="9.6467867"><ele>106.33333333333333</ele><time>2026-04-06T07:17:03.602Z</time></trkpt><trkpt lat="44.9569433" lon="9.6466433"><ele>107.0</ele><time>2026-04-06T07:17:04.6Z</time></trkpt><trkpt lat="44.95677" lon="9.6464967"><ele>107.0</ele><time>2026-04-06T07:17:05.6Z</time></trkpt><trkpt lat="44.9565983" lon="9.6463433"><ele>107.0</ele><time>2026-04-06T07:17:06.601Z</time></trkpt><trkpt lat="44.95643" lon="9.6461833"><ele>107.0</ele><time>2026-04-06T07:17:07.598Z</time></trkpt><trkpt lat="44.9562633" lon="9.6460167"><ele>107.0</ele><time>2026-04-06T07:17:08.599Z</time></trkpt><trkpt lat="44.9561017" lon="9.6458467"><ele>107.0</ele><time>2026-04-06T07:17:09.598Z</time></trkpt><trkpt lat="44.9559417" lon="9.6456717"><ele>107.0</ele><time>2026-04-06T07:17:10.599Z</time></trkpt><trkpt lat="44.955785" lon="9.64549"><ele>107.66666666666666</ele><time>2026-04-06T07:17:11.598Z</time></trkpt><trkpt lat="44.9556283" lon="9.6453067"><ele>108.33333333333334</ele><time>2026-04-06T07:17:12.599Z</time></trkpt><trkpt lat="44.955475" lon="9.6451183"><ele>109.0</ele><time>2026-04-06T07:17:13.598Z</time></trkpt><trkpt lat="44.9553283" lon="9.6449283"><ele>109.0</ele><time>2026-04-06T07:17:14.6Z</time></trkpt><trkpt lat="44.9551817" lon="9.6447367"><ele>109.0</ele><time>2026-04-06T07:17:15.598Z</time></trkpt><trkpt lat="44.955035" lon="9.64454"><ele>109.0</ele><time>2026-04-06T07:17:16.6Z</time></trkpt><trkpt lat="44.9548883" lon="9.644345"><ele>109.33333333333334</ele><time>2026-04-06T07:17:17.6Z</time></trkpt><trkpt lat="44.95474" lon="9.6441483"><ele>109.66666666666666</ele><time>2026-04-06T07:17:18.601Z</time></trkpt><trkpt lat="44.9545917" lon="9.6439517"><ele>110.0</ele><time>2026-04-06T07:17:19.599Z</time></trkpt><trkpt lat="44.9544433" lon="9.6437567"><ele>110.0</ele><time>2026-04-06T07:17:20.599Z</time></trkpt><trkpt lat="44.954295" lon="9.6435617"><ele>110.0</ele><time>2026-04-06T07:17:21.599Z</time></trkpt><trkpt lat="44.954145" lon="9.6433683"><ele>110.0</ele><time>2026-04-06T07:17:22.599Z</time></trkpt><trkpt lat="44.953995" lon="9.6431733"><ele>111.0</ele><time>2026-04-06T07:17:23.601Z</time></trkpt><trkpt lat="44.953845" lon="9.642975"><ele>112.0</ele><time>2026-04-06T07:17:24.599Z</time></trkpt><trkpt lat="44.9536917" lon="9.642775"><ele>113.0</ele><time>2026-04-06T07:17:25.598Z</time></trkpt><trkpt lat="44.9535383" lon="9.6425767"><ele>113.0</ele><time>2026-04-06T07:17:26.6Z</time></trkpt><trkpt lat="44.9533833" lon="9.6423783"><ele>113.0</ele><time>2026-04-06T07:17:27.599Z</time></trkpt><trkpt lat="44.9532217" lon="9.6421817"><ele>113.0</ele><time>2026-04-06T07:17:28.6Z</time></trkpt><trkpt lat="44.9530567" lon="9.6419817"><ele>113.0</ele><time>2026-04-06T07:17:29.598Z</time></trkpt><trkpt lat="44.9528933" lon="9.641785"><ele>113.0</ele><time>2026-04-06T07:17:30.597Z</time></trkpt><trkpt lat="44.9527283" lon="9.6415933"><ele>113.0</ele><time>2026-04-06T07:17:31.601Z</time></trkpt><trkpt lat="44.9525617" lon="9.6414033"><ele>113.33333333333333</ele><time>2026-04-06T07:17:32.599Z</time></trkpt><trkpt lat="44.9523933" lon="9.6412167"><ele>113.66666666666666</ele><time>2026-04-06T07:17:33.6Z</time></trkpt><trkpt lat="44.952225" lon="9.641035"><ele>114.0</ele><time>2026-04-06T07:17:34.597Z</time></trkpt><trkpt lat="44.9520517" lon="9.6408533"><ele>114.0</ele><time>2026-04-06T07:17:35.599Z</time></trkpt><trkpt lat="44.9518733" lon="9.6406733"><ele>114.0</ele><time>2026-04-06T07:17:36.599Z</time></trkpt><trkpt lat="44.951695" lon="9.6404983"><ele>114.0</ele><time>2026-04-06T07:17:37.599Z</time></trkpt><trkpt lat="44.951515" lon="9.6403283"><ele>114.0</ele><time>2026-04-06T07:17:38.599Z</time></trkpt><trkpt lat="44.9513367" lon="9.64016"><ele>114.0</ele><time>2026-04-06T07:17:39.6Z</time></trkpt><trkpt lat="44.951155" lon="9.6399967"><ele>114.0</ele><time>2026-04-06T07:17:40.599Z</time></trkpt><trkpt lat="44.9509733" lon="9.639835"><ele>114.66666666666666</ele><time>2026-04-06T07:17:41.598Z</time></trkpt><trkpt lat="44.95079" lon="9.6396767"><ele>115.33333333333333</ele><time>2026-04-06T07:17:42.6Z</time></trkpt><trkpt lat="44.950605" lon="9.639525"><ele>116.0</ele><time>2026-04-06T07:17:43.599Z</time></trkpt><trkpt lat="44.9504233" lon="9.639375"><ele>116.33333333333333</ele><time>2026-04-06T07:17:44.6Z</time></trkpt><trkpt lat="44.9502383" lon="9.6392317"><ele>116.66666666666666</ele><time>2026-04-06T07:17:45.598Z</time></trkpt><trkpt lat="44.950055" lon="9.6390883"><ele>117.0</ele><time>2026-04-06T07:17:46.598Z</time></trkpt><trkpt lat="44.9498633" lon="9.63895"><ele>117.0</ele><time>2026-04-06T07:17:47.599Z</time></trkpt><trkpt lat="44.949675" lon="9.6388117"><ele>117.0</ele><time>2026-04-06T07:17:48.598Z</time></trkpt><trkpt lat="44.949485" lon="9.638675"><ele>117.0</ele><time>2026-04-06T07:17:49.599Z</time></trkpt><trkpt lat="44.9492933" lon="9.6385383"><ele>117.66666666666666</ele><time>2026-04-06T07:17:50.6Z</time></trkpt><trkpt lat="44.9491017" lon="9.6384033"><ele>118.33333333333333</ele><time>2026-04-06T07:17:51.601Z</time></trkpt><trkpt lat="44.94891" lon="9.6382683"><ele>119.0</ele><time>2026-04-06T07:17:52.6Z</time></trkpt><trkpt lat="44.9487167" lon="9.638135"><ele>119.0</ele><time>2026-04-06T07:17:53.601Z</time></trkpt><trkpt lat="44.9485267" lon="9.6380033"><ele>119.0</ele><time>2026-04-06T07:17:54.6Z</time></trkpt><trkpt lat="44.9483367" lon="9.63787"><ele>119.0</ele><time>2026-04-06T07:17:55.598Z</time></trkpt><trkpt lat="44.9481483" lon="9.6377383"><ele>119.0</ele><time>2026-04-06T07:17:56.6Z</time></trkpt><trkpt lat="44.9479583" lon="9.6376083"><ele>119.0</ele><time>2026-04-06T07:17:57.599Z</time></trkpt><trkpt lat="44.9477683" lon="9.6374767"><ele>119.0</ele><time>2026-04-06T07:17:58.599Z</time></trkpt><trkpt lat="44.9475767" lon="9.637345"><ele>119.0</ele><time>2026-04-06T07:17:59.599Z</time></trkpt><trkpt lat="44.9473867" lon="9.6372133"><ele>119.0</ele><time>2026-04-06T07:18:00.599Z</time></trkpt><trkpt lat="44.9471983" lon="9.6370833"><ele>119.0</ele><time>2026-04-06T07:18:01.598Z</time></trkpt><trkpt lat="44.9470117" lon="9.636955"><ele>119.0</ele><time>2026-04-06T07:18:02.599Z</time></trkpt><trkpt lat="44.9468283" lon="9.6368233"><ele>119.0</ele><time>2026-04-06T07:18:03.598Z</time></trkpt><trkpt lat="44.9466467" lon="9.6366933"><ele>119.0</ele><time>2026-04-06T07:18:04.599Z</time></trkpt><trkpt lat="44.946465" lon="9.6365617"><ele>120.0</ele><time>2026-04-06T07:18:05.598Z</time></trkpt><trkpt lat="44.946285" lon="9.6364267"><ele>121.0</ele><time>2026-04-06T07:18:06.599Z</time></trkpt><trkpt lat="44.9461017" lon="9.636295"><ele>122.0</ele><time>2026-04-06T07:18:07.598Z</time></trkpt><trkpt lat="44.94592" lon="9.636165"><ele>121.66666666666666</ele><time>2026-04-06T07:18:08.599Z</time></trkpt><trkpt lat="44.9457367" lon="9.636035"><ele>121.33333333333334</ele><time>2026-04-06T07:18:09.599Z</time></trkpt><trkpt lat="44.945555" lon="9.635905"><ele>121.0</ele><time>2026-04-06T07:18:10.598Z</time></trkpt><trkpt lat="44.945375" lon="9.6357783"><ele>121.0</ele><time>2026-04-06T07:18:11.598Z</time></trkpt><trkpt lat="44.9451933" lon="9.6356517"><ele>121.0</ele><time>2026-04-06T07:18:12.599Z</time></trkpt><trkpt lat="44.9450133" lon="9.6355283"><ele>121.0</ele><time>2026-04-06T07:18:13.6Z</time></trkpt><trkpt lat="44.944835" lon="9.6354067"><ele>121.0</ele><time>2026-04-06T07:18:14.6Z</time></trkpt><trkpt lat="44.9446567" lon="9.6352817"><ele>121.0</ele><time>2026-04-06T07:18:15.599Z</time></trkpt><trkpt lat="44.9444817" lon="9.6351583"><ele>121.0</ele><time>2026-04-06T07:18:16.599Z</time></trkpt><trkpt lat="44.9443083" lon="9.6350333"><ele>120.66666666666667</ele><time>2026-04-06T07:18:17.598Z</time></trkpt><trkpt lat="44.944135" lon="9.63491"><ele>120.33333333333334</ele><time>2026-04-06T07:18:18.599Z</time></trkpt><trkpt lat="44.9439683" lon="9.634795"><ele>120.0</ele><time>2026-04-06T07:18:19.598Z</time></trkpt><trkpt lat="44.9438083" lon="9.6346833"><ele>120.0</ele><time>2026-04-06T07:18:20.599Z</time></trkpt><trkpt lat="44.94365" lon="9.6345717"><ele>120.0</ele><time>2026-04-06T07:18:21.598Z</time></trkpt><trkpt lat="44.9434933" lon="9.6344567"><ele>120.0</ele><time>2026-04-06T07:18:22.599Z</time></trkpt><trkpt lat="44.943345" lon="9.6343383"><ele>120.33333333333334</ele><time>2026-04-06T07:18:23.599Z</time></trkpt><trkpt lat="44.9432033" lon="9.6342183"><ele>120.66666666666667</ele><time>2026-04-06T07:18:24.6Z</time></trkpt><trkpt lat="44.9430683" lon="9.6340917"><ele>121.0</ele><time>2026-04-06T07:18:25.598Z</time></trkpt><trkpt lat="44.94293" lon="9.63396"><ele>121.0</ele><time>2026-04-06T07:18:26.605Z</time></trkpt><trkpt lat="44.9427983" lon="9.6338233"><ele>121.0</ele><time>2026-04-06T07:18:27.598Z</time></trkpt><trkpt lat="44.9426667" lon="9.6336883"><ele>121.0</ele><time>2026-04-06T07:18:28.599Z</time></trkpt><trkpt lat="44.9425317" lon="9.6335483"><ele>121.66666666666667</ele><time>2026-04-06T07:18:29.598Z</time></trkpt><trkpt lat="44.9423983" lon="9.6334083"><ele>122.33333333333334</ele><time>2026-04-06T07:18:30.598Z</time></trkpt><trkpt lat="44.942265" lon="9.6332733"><ele>123.0</ele><time>2026-04-06T07:18:31.599Z</time></trkpt><trkpt lat="44.9421367" lon="9.63314"><ele>123.0</ele><time>2026-04-06T07:18:32.599Z</time></trkpt><trkpt lat="44.942015" lon="9.633015"><ele>123.0</ele><time>2026-04-06T07:18:33.6Z</time></trkpt><trkpt lat="44.9418967" lon="9.6328967"><ele>123.0</ele><time>2026-04-06T07:18:34.6Z</time></trkpt><trkpt lat="44.9417817" lon="9.63278"><ele>123.0</ele><time>2026-04-06T07:18:35.601Z</time></trkpt><trkpt lat="44.9416667" lon="9.6326633"><ele>124.0</ele><time>2026-04-06T07:18:36.599Z</time></trkpt><trkpt lat="44.94155" lon="9.632545"><ele>125.0</ele><time>2026-04-06T07:18:37.598Z</time></trkpt><trkpt lat="44.941425" lon="9.6324233"><ele>126.0</ele><time>2026-04-06T07:18:38.599Z</time></trkpt><trkpt lat="44.9412967" lon="9.6322983"><ele>126.0</ele><time>2026-04-06T07:18:39.599Z</time></trkpt><trkpt lat="44.9411683" lon="9.6321717"><ele>126.0</ele><time>2026-04-06T07:18:40.599Z</time></trkpt><trkpt lat="44.9410367" lon="9.6320367"><ele>126.0</ele><time>2026-04-06T07:18:41.599Z</time></trkpt><trkpt lat="44.9409" lon="9.6318967"><ele>126.0</ele><time>2026-04-06T07:18:42.599Z</time></trkpt><trkpt lat="44.940765" lon="9.6317517"><ele>126.0</ele><time>2026-04-06T07:18:43.598Z</time></trkpt><trkpt lat="44.9406283" lon="9.6315967"><ele>126.0</ele><time>2026-04-06T07:18:44.599Z</time></trkpt><trkpt lat="44.94049" lon="9.63143"><ele>126.0</ele><time>2026-04-06T07:18:45.599Z</time></trkpt><trkpt lat="44.94035" lon="9.6312583"><ele>126.0</ele><time>2026-04-06T07:18:46.6Z</time></trkpt><trkpt lat="44.94021" lon="9.63108"><ele>126.0</ele><time>2026-04-06T07:18:47.599Z</time></trkpt><trkpt lat="44.9400667" lon="9.6308917"><ele>127.33333333333334</ele><time>2026-04-06T07:18:48.598Z</time></trkpt><trkpt lat="44.9399267" lon="9.63069"><ele>128.66666666666669</ele><time>2026-04-06T07:18:49.598Z</time></trkpt><trkpt lat="44.9397833" lon="9.630485"><ele>130.0</ele><time>2026-04-06T07:18:50.599Z</time></trkpt><trkpt lat="44.9396417" lon="9.6302683"><ele>130.0</ele><time>2026-04-06T07:18:51.598Z</time></trkpt><trkpt lat="44.9395" lon="9.6300483"><ele>130.0</ele><time>2026-04-06T07:18:52.598Z</time></trkpt><trkpt lat="44.9393633" lon="9.6298267"><ele>130.0</ele><time>2026-04-06T07:18:53.598Z</time></trkpt><trkpt lat="44.9392317" lon="9.6296117"><ele>130.33333333333334</ele><time>2026-04-06T07:18:54.598Z</time></trkpt><trkpt lat="44.9391017" lon="9.6294017"><ele>130.66666666666666</ele><time>2026-04-06T07:18:55.599Z</time></trkpt><trkpt lat="44.9389733" lon="9.6292"><ele>131.0</ele><time>2026-04-06T07:18:56.599Z</time></trkpt><trkpt lat="44.9388433" lon="9.6290017"><ele>131.0</ele><time>2026-04-06T07:18:57.598Z</time></trkpt><trkpt lat="44.938715" lon="9.6288117"><ele>131.0</ele><time>2026-04-06T07:18:58.599Z</time></trkpt><trkpt lat="44.9385833" lon="9.6286317"><ele>131.0</ele><time>2026-04-06T07:18:59.598Z</time></trkpt><trkpt lat="44.9384483" lon="9.628455"><ele>131.33333333333331</ele><time>2026-04-06T07:19:00.599Z</time></trkpt><trkpt lat="44.9383117" lon="9.6282833"><ele>131.66666666666666</ele><time>2026-04-06T07:19:01.598Z</time></trkpt><trkpt lat="44.93817" lon="9.6281167"><ele>132.0</ele><time>2026-04-06T07:19:02.6Z</time></trkpt><trkpt lat="44.9380233" lon="9.62795"><ele>131.33333333333334</ele><time>2026-04-06T07:19:03.599Z</time></trkpt><trkpt lat="44.93787" lon="9.6277867"><ele>130.66666666666669</ele><time>2026-04-06T07:19:04.603Z</time></trkpt><trkpt lat="44.9377167" lon="9.6276233"><ele>130.0</ele><time>2026-04-06T07:19:05.598Z</time></trkpt><trkpt lat="44.9375617" lon="9.627455"><ele>130.66666666666669</ele><time>2026-04-06T07:19:06.599Z</time></trkpt><trkpt lat="44.937405" lon="9.6272867"><ele>131.33333333333334</ele><time>2026-04-06T07:19:07.598Z</time></trkpt><trkpt lat="44.9372467" lon="9.6271233"><ele>132.0</ele><time>2026-04-06T07:19:08.599Z</time></trkpt><trkpt lat="44.93709" lon="9.62696"><ele>132.0</ele><time>2026-04-06T07:19:09.599Z</time></trkpt><trkpt lat="44.9369317" lon="9.6267933"><ele>132.0</ele><time>2026-04-06T07:19:10.598Z</time></trkpt><trkpt lat="44.9367733" lon="9.626625"><ele>132.0</ele><time>2026-04-06T07:19:11.598Z</time></trkpt><trkpt lat="44.9366183" lon="9.6264617"><ele>133.0</ele><time>2026-04-06T07:19:12.598Z</time></trkpt><trkpt lat="44.9364683" lon="9.6263033"><ele>134.0</ele><time>2026-04-06T07:19:13.598Z</time></trkpt><trkpt lat="44.9363267" lon="9.626155"><ele>135.0</ele><time>2026-04-06T07:19:14.599Z</time></trkpt><trkpt lat="44.93619" lon="9.6260083"><ele>135.0</ele><time>2026-04-06T07:19:15.598Z</time></trkpt><trkpt lat="44.9360517" lon="9.6258617"><ele>135.0</ele><time>2026-04-06T07:19:16.598Z</time></trkpt><trkpt lat="44.93591" lon="9.62571"><ele>135.0</ele><time>2026-04-06T07:19:17.598Z</time></trkpt><trkpt lat="44.9357667" lon="9.6255517"><ele>134.66666666666666</ele><time>2026-04-06T07:19:18.598Z</time></trkpt><trkpt lat="44.9356183" lon="9.6253917"><ele>134.33333333333331</ele><time>2026-04-06T07:19:19.597Z</time></trkpt><trkpt lat="44.93547" lon="9.625235"><ele>134.0</ele><time>2026-04-06T07:19:20.598Z</time></trkpt><trkpt lat="44.9353267" lon="9.6250817"><ele>134.0</ele><time>2026-04-06T07:19:21.599Z</time></trkpt><trkpt lat="44.9351867" lon="9.6249333"><ele>134.0</ele><time>2026-04-06T07:19:22.598Z</time></trkpt><trkpt lat="44.935045" lon="9.6247833"><ele>134.0</ele><time>2026-04-06T07:19:23.598Z</time></trkpt><trkpt lat="44.9349033" lon="9.6246333"><ele>132.66666666666666</ele><time>2026-04-06T07:19:24.599Z</time></trkpt><trkpt lat="44.9347583" lon="9.6244783"><ele>131.33333333333334</ele><time>2026-04-06T07:19:25.597Z</time></trkpt><trkpt lat="44.934615" lon="9.624325"><ele>130.0</ele><time>2026-04-06T07:19:26.598Z</time></trkpt><trkpt lat="44.9344733" lon="9.624175"><ele>130.0</ele><time>2026-04-06T07:19:27.597Z</time></trkpt><trkpt lat="44.9343333" lon="9.62403"><ele>130.0</ele><time>2026-04-06T07:19:28.599Z</time></trkpt><trkpt lat="44.9341967" lon="9.623885"><ele>130.0</ele><time>2026-04-06T07:19:29.6Z</time></trkpt><trkpt lat="44.9340633" lon="9.623735"><ele>130.66666666666669</ele><time>2026-04-06T07:19:30.598Z</time></trkpt><trkpt lat="44.9339317" lon="9.6235817"><ele>131.33333333333334</ele><time>2026-04-06T07:19:31.601Z</time></trkpt><trkpt lat="44.9337983" lon="9.6234267"><ele>132.0</ele><time>2026-04-06T07:19:32.598Z</time></trkpt><trkpt lat="44.9336633" lon="9.6232733"><ele>132.0</ele><time>2026-04-06T07:19:33.599Z</time></trkpt><trkpt lat="44.9335267" lon="9.6231217"><ele>132.0</ele><time>2026-04-06T07:19:34.598Z</time></trkpt><trkpt lat="44.933385" lon="9.622965"><ele>132.0</ele><time>2026-04-06T07:19:35.598Z</time></trkpt><trkpt lat="44.9332333" lon="9.622805"><ele>133.0</ele><time>2026-04-06T07:19:36.598Z</time></trkpt><trkpt lat="44.93307" lon="9.62263"><ele>134.0</ele><time>2026-04-06T07:19:37.599Z</time></trkpt><trkpt lat="44.9329" lon="9.6224383"><ele>135.0</ele><time>2026-04-06T07:19:38.6Z</time></trkpt><trkpt lat="44.9327367" lon="9.6222483"><ele>135.0</ele><time>2026-04-06T07:19:39.599Z</time></trkpt><trkpt lat="44.9325833" lon="9.62207"><ele>135.0</ele><time>2026-04-06T07:19:40.598Z</time></trkpt><trkpt lat="44.93244" lon="9.621905"><ele>135.0</ele><time>2026-04-06T07:19:41.599Z</time></trkpt><trkpt lat="44.9323033" lon="9.6217467"><ele>135.0</ele><time>2026-04-06T07:19:42.598Z</time></trkpt><trkpt lat="44.9321683" lon="9.6215917"><ele>135.0</ele><time>2026-04-06T07:19:43.599Z</time></trkpt><trkpt lat="44.9320367" lon="9.6214417"><ele>135.0</ele><time>2026-04-06T07:19:44.599Z</time></trkpt><trkpt lat="44.9319083" lon="9.6212967"><ele>135.0</ele><time>2026-04-06T07:19:45.598Z</time></trkpt><trkpt lat="44.9317817" lon="9.6211533"><ele>135.0</ele><time>2026-04-06T07:19:46.597Z</time></trkpt><trkpt lat="44.931655" lon="9.6210083"><ele>135.0</ele><time>2026-04-06T07:19:47.599Z</time></trkpt><trkpt lat="44.9315233" lon="9.6208617"><ele>134.66666666666666</ele><time>2026-04-06T07:19:48.598Z</time></trkpt><trkpt lat="44.9313933" lon="9.6207117"><ele>134.33333333333331</ele><time>2026-04-06T07:19:49.598Z</time></trkpt><trkpt lat="44.931265" lon="9.620565"><ele>134.0</ele><time>2026-04-06T07:19:50.599Z</time></trkpt><trkpt lat="44.931135" lon="9.62042"><ele>134.66666666666666</ele><time>2026-04-06T07:19:51.598Z</time></trkpt><trkpt lat="44.9310017" lon="9.6202717"><ele>135.33333333333334</ele><time>2026-04-06T07:19:52.599Z</time></trkpt><trkpt lat="44.9308667" lon="9.6201217"><ele>136.0</ele><time>2026-04-06T07:19:53.6Z</time></trkpt><trkpt lat="44.93073" lon="9.6199733"><ele>136.0</ele><time>2026-04-06T07:19:54.6Z</time></trkpt><trkpt lat="44.9305967" lon="9.6198267"><ele>136.0</ele><time>2026-04-06T07:19:55.602Z</time></trkpt><trkpt lat="44.930465" lon="9.619685"><ele>136.0</ele><time>2026-04-06T07:19:56.6Z</time></trkpt><trkpt lat="44.9303267" lon="9.6195483"><ele>135.33333333333334</ele><time>2026-04-06T07:19:57.605Z</time></trkpt><trkpt lat="44.9301883" lon="9.6194117"><ele>134.66666666666666</ele><time>2026-04-06T07:19:58.598Z</time></trkpt><trkpt lat="44.93004" lon="9.6192683"><ele>134.0</ele><time>2026-04-06T07:19:59.599Z</time></trkpt><trkpt lat="44.9298733" lon="9.6191083"><ele>134.0</ele><time>2026-04-06T07:20:00.599Z</time></trkpt><trkpt lat="44.92971" lon="9.6189483"><ele>134.0</ele><time>2026-04-06T07:20:01.599Z</time></trkpt><trkpt lat="44.9295583" lon="9.61879"><ele>134.0</ele><time>2026-04-06T07:20:02.599Z</time></trkpt><trkpt lat="44.929415" lon="9.6186367"><ele>134.66666666666666</ele><time>2026-04-06T07:20:03.598Z</time></trkpt><trkpt lat="44.9292733" lon="9.6184833"><ele>135.33333333333334</ele><time>2026-04-06T07:20:04.599Z</time></trkpt><trkpt lat="44.9291317" lon="9.6183333"><ele>136.0</ele><time>2026-04-06T07:20:05.599Z</time></trkpt><trkpt lat="44.9289867" lon="9.6181867"><ele>136.0</ele><time>2026-04-06T07:20:06.598Z</time></trkpt><trkpt lat="44.92884" lon="9.618035"><ele>136.0</ele><time>2026-04-06T07:20:07.597Z</time></trkpt><trkpt lat="44.9286933" lon="9.6178833"><ele>136.0</ele><time>2026-04-06T07:20:08.599Z</time></trkpt><trkpt lat="44.92855" lon="9.61773"><ele>136.0</ele><time>2026-04-06T07:20:09.598Z</time></trkpt><trkpt lat="44.92841" lon="9.6175667"><ele>136.0</ele><time>2026-04-06T07:20:10.599Z</time></trkpt><trkpt lat="44.92828" lon="9.617395"><ele>136.0</ele><time>2026-04-06T07:20:11.599Z</time></trkpt><trkpt lat="44.9281517" lon="9.6172133"><ele>136.0</ele><time>2026-04-06T07:20:12.6Z</time></trkpt><trkpt lat="44.9280183" lon="9.6170183"><ele>136.0</ele><time>2026-04-06T07:20:13.599Z</time></trkpt><trkpt lat="44.9278767" lon="9.616805"><ele>136.0</ele><time>2026-04-06T07:20:14.599Z</time></trkpt><trkpt lat="44.9277267" lon="9.6165717"><ele>135.0</ele><time>2026-04-06T07:20:15.599Z</time></trkpt><trkpt lat="44.9275733" lon="9.6163283"><ele>134.0</ele><time>2026-04-06T07:20:16.599Z</time></trkpt><trkpt lat="44.927425" lon="9.61609"><ele>134.0</ele><time>2026-04-06T07:20:17.598Z</time></trkpt><trkpt lat="44.9272883" lon="9.6158667"><ele>134.0</ele><time>2026-04-06T07:20:18.598Z</time></trkpt><trkpt lat="44.9271583" lon="9.6156567"><ele>134.0</ele><time>2026-04-06T07:20:19.597Z</time></trkpt><trkpt lat="44.9270267" lon="9.6154533"><ele>134.0</ele><time>2026-04-06T07:20:20.6Z</time></trkpt><trkpt lat="44.9268917" lon="9.6152633"><ele>134.0</ele><time>2026-04-06T07:20:21.599Z</time></trkpt><trkpt lat="44.9267467" lon="9.6150867"><ele>134.0</ele><time>2026-04-06T07:20:22.601Z</time></trkpt><trkpt lat="44.926605" lon="9.614925"><ele>134.0</ele><time>2026-04-06T07:20:23.599Z</time></trkpt><trkpt lat="44.9264667" lon="9.614775"><ele>134.0</ele><time>2026-04-06T07:20:24.599Z</time></trkpt><trkpt lat="44.92633" lon="9.6146333"><ele>134.0</ele><time>2026-04-06T07:20:25.598Z</time></trkpt><trkpt lat="44.92619" lon="9.6144983"><ele>134.0</ele><time>2026-04-06T07:20:26.599Z</time></trkpt><trkpt lat="44.92605" lon="9.6143733"><ele>134.0</ele><time>2026-04-06T07:20:27.598Z</time></trkpt><trkpt lat="44.9259083" lon="9.6142483"><ele>134.0</ele><time>2026-04-06T07:20:28.599Z</time></trkpt><trkpt lat="44.9257567" lon="9.6141183"><ele>134.0</ele><time>2026-04-06T07:20:29.598Z</time></trkpt><trkpt lat="44.9255917" lon="9.6139817"><ele>134.0</ele><time>2026-04-06T07:20:30.598Z</time></trkpt><trkpt lat="44.9254133" lon="9.6138317"><ele>134.0</ele><time>2026-04-06T07:20:31.599Z</time></trkpt><trkpt lat="44.9252283" lon="9.61367"><ele>133.66666666666666</ele><time>2026-04-06T07:20:32.599Z</time></trkpt><trkpt lat="44.9250467" lon="9.6135067"><ele>133.33333333333334</ele><time>2026-04-06T07:20:33.598Z</time></trkpt><trkpt lat="44.9248733" lon="9.61335"><ele>133.0</ele><time>2026-04-06T07:20:34.598Z</time></trkpt><trkpt lat="44.92471" lon="9.6132"><ele>133.0</ele><time>2026-04-06T07:20:35.605Z</time></trkpt><trkpt lat="44.9245533" lon="9.613055"><ele>133.0</ele><time>2026-04-06T07:20:36.598Z</time></trkpt><trkpt lat="44.9243967" lon="9.6129133"><ele>133.0</ele><time>2026-04-06T07:20:37.598Z</time></trkpt><trkpt lat="44.9242433" lon="9.6127767"><ele>132.33333333333334</ele><time>2026-04-06T07:20:38.598Z</time></trkpt><trkpt lat="44.924095" lon="9.6126433"><ele>131.66666666666666</ele><time>2026-04-06T07:20:39.598Z</time></trkpt><trkpt lat="44.92395" lon="9.6125183"><ele>131.0</ele><time>2026-04-06T07:20:40.599Z</time></trkpt><trkpt lat="44.92381" lon="9.612395"><ele>131.0</ele><time>2026-04-06T07:20:41.601Z</time></trkpt><trkpt lat="44.9236733" lon="9.6122733"><ele>131.0</ele><time>2026-04-06T07:20:42.599Z</time></trkpt><trkpt lat="44.92354" lon="9.612155"><ele>131.0</ele><time>2026-04-06T07:20:43.599Z</time></trkpt><trkpt lat="44.92341" lon="9.6120383"><ele>131.66666666666666</ele><time>2026-04-06T07:20:44.599Z</time></trkpt><trkpt lat="44.9232783" lon="9.61192"><ele>132.33333333333334</ele><time>2026-04-06T07:20:45.598Z</time></trkpt><trkpt lat="44.9231383" lon="9.611785"><ele>133.0</ele><time>2026-04-06T07:20:46.597Z</time></trkpt><trkpt lat="44.9229817" lon="9.6116333"><ele>133.0</ele><time>2026-04-06T07:20:47.599Z</time></trkpt><trkpt lat="44.922815" lon="9.6114583"><ele>133.0</ele><time>2026-04-06T07:20:48.597Z</time></trkpt><trkpt lat="44.9226433" lon="9.6112733"><ele>133.0</ele><time>2026-04-06T07:20:49.598Z</time></trkpt><trkpt lat="44.9224767" lon="9.6110917"><ele>132.33333333333334</ele><time>2026-04-06T07:20:50.6Z</time></trkpt><trkpt lat="44.9223217" lon="9.61092"><ele>131.66666666666666</ele><time>2026-04-06T07:20:51.598Z</time></trkpt><trkpt lat="44.922175" lon="9.6107617"><ele>131.0</ele><time>2026-04-06T07:20:52.598Z</time></trkpt><trkpt lat="44.9220433" lon="9.610615"><ele>131.0</ele><time>2026-04-06T07:20:53.597Z</time></trkpt><trkpt lat="44.9219233" lon="9.6104783"><ele>131.0</ele><time>2026-04-06T07:20:54.598Z</time></trkpt><trkpt lat="44.92181" lon="9.61035"><ele>131.0</ele><time>2026-04-06T07:20:55.598Z</time></trkpt><trkpt lat="44.9217017" lon="9.610225"><ele>131.0</ele><time>2026-04-06T07:20:56.599Z</time></trkpt><trkpt lat="44.921585" lon="9.6100967"><ele>131.33333333333331</ele><time>2026-04-06T07:20:57.598Z</time></trkpt><trkpt lat="44.9214533" lon="9.6099533"><ele>131.66666666666666</ele><time>2026-04-06T07:20:58.598Z</time></trkpt><trkpt lat="44.921305" lon="9.6097933"><ele>132.0</ele><time>2026-04-06T07:20:59.598Z</time></trkpt><trkpt lat="44.9211533" lon="9.6096183"><ele>131.66666666666666</ele><time>2026-04-06T07:21:00.598Z</time></trkpt><trkpt lat="44.921005" lon="9.6094417"><ele>131.33333333333331</ele><time>2026-04-06T07:21:01.599Z</time></trkpt><trkpt lat="44.9208617" lon="9.6092683"><ele>131.0</ele><time>2026-04-06T07:21:02.602Z</time></trkpt><trkpt lat="44.9207183" lon="9.6091017"><ele>131.66666666666666</ele><time>2026-04-06T07:21:03.598Z</time></trkpt><trkpt lat="44.920575" lon="9.60894"><ele>132.33333333333334</ele><time>2026-04-06T07:21:04.597Z</time></trkpt><trkpt lat="44.9204267" lon="9.6087817"><ele>133.0</ele><time>2026-04-06T07:21:05.598Z</time></trkpt><trkpt lat="44.9202817" lon="9.6086333"><ele>133.0</ele><time>2026-04-06T07:21:06.598Z</time></trkpt><trkpt lat="44.9201333" lon="9.6084933"><ele>133.0</ele><time>2026-04-06T07:21:07.597Z</time></trkpt><trkpt lat="44.919985" lon="9.608365"><ele>133.0</ele><time>2026-04-06T07:21:08.598Z</time></trkpt><trkpt lat="44.9198317" lon="9.6082467"><ele>133.66666666666669</ele><time>2026-04-06T07:21:09.597Z</time></trkpt><trkpt lat="44.91968" lon="9.608135"><ele>134.33333333333334</ele><time>2026-04-06T07:21:10.597Z</time></trkpt><trkpt lat="44.9195317" lon="9.60803"><ele>135.0</ele><time>2026-04-06T07:21:11.6Z</time></trkpt><trkpt lat="44.9193833" lon="9.6079317"><ele>135.0</ele><time>2026-04-06T07:21:12.598Z</time></trkpt><trkpt lat="44.9192383" lon="9.6078367"><ele>135.0</ele><time>2026-04-06T07:21:13.6Z</time></trkpt><trkpt lat="44.91909" lon="9.6077383"><ele>135.0</ele><time>2026-04-06T07:21:14.599Z</time></trkpt><trkpt lat="44.9189417" lon="9.6076433"><ele>135.33333333333334</ele><time>2026-04-06T07:21:15.598Z</time></trkpt><trkpt lat="44.9187917" lon="9.6075467"><ele>135.66666666666669</ele><time>2026-04-06T07:21:16.597Z</time></trkpt><trkpt lat="44.9186417" lon="9.6074483"><ele>136.0</ele><time>2026-04-06T07:21:17.6Z</time></trkpt><trkpt lat="44.9184933" lon="9.60735"><ele>137.0</ele><time>2026-04-06T07:21:18.598Z</time></trkpt><trkpt lat="44.9183483" lon="9.6072533"><ele>138.0</ele><time>2026-04-06T07:21:19.601Z</time></trkpt><trkpt lat="44.9182067" lon="9.60716"><ele>139.0</ele><time>2026-04-06T07:21:20.598Z</time></trkpt><trkpt lat="44.918065" lon="9.6070667"><ele>138.66666666666669</ele><time>2026-04-06T07:21:21.598Z</time></trkpt><trkpt lat="44.917925" lon="9.60697"><ele>138.33333333333334</ele><time>2026-04-06T07:21:22.597Z</time></trkpt><trkpt lat="44.9177867" lon="9.6068667"><ele>138.0</ele><time>2026-04-06T07:21:23.599Z</time></trkpt><trkpt lat="44.91765" lon="9.60676"><ele>139.0</ele><time>2026-04-06T07:21:24.598Z</time></trkpt><trkpt lat="44.917515" lon="9.606645"><ele>140.0</ele><time>2026-04-06T07:21:25.599Z</time></trkpt><trkpt lat="44.917385" lon="9.60652"><ele>141.0</ele><time>2026-04-06T07:21:26.598Z</time></trkpt><trkpt lat="44.9172567" lon="9.6063867"><ele>141.0</ele><time>2026-04-06T07:21:27.598Z</time></trkpt><trkpt lat="44.9171267" lon="9.6062483"><ele>141.0</ele><time>2026-04-06T07:21:28.598Z</time></trkpt><trkpt lat="44.9169967" lon="9.60611"><ele>141.0</ele><time>2026-04-06T07:21:29.599Z</time></trkpt><trkpt lat="44.9168683" lon="9.6059733"><ele>141.0</ele><time>2026-04-06T07:21:30.598Z</time></trkpt><trkpt lat="44.9167433" lon="9.605835"><ele>141.0</ele><time>2026-04-06T07:21:31.598Z</time></trkpt><trkpt lat="44.91662" lon="9.6056933"><ele>141.0</ele><time>2026-04-06T07:21:32.599Z</time></trkpt><trkpt lat="44.9165" lon="9.605545"><ele>141.0</ele><time>2026-04-06T07:21:33.599Z</time></trkpt><trkpt lat="44.9163817" lon="9.6053867"><ele>141.0</ele><time>2026-04-06T07:21:34.598Z</time></trkpt><trkpt lat="44.91627" lon="9.6052233"><ele>141.0</ele><time>2026-04-06T07:21:35.597Z</time></trkpt><trkpt lat="44.916165" lon="9.6050583"><ele>141.0</ele><time>2026-04-06T07:21:36.598Z</time></trkpt><trkpt lat="44.9160667" lon="9.604895"><ele>141.0</ele><time>2026-04-06T07:21:37.599Z</time></trkpt><trkpt lat="44.9159717" lon="9.6047233"><ele>141.0</ele><time>2026-04-06T07:21:38.599Z</time></trkpt><trkpt lat="44.915885" lon="9.6045417"><ele>141.66666666666666</ele><time>2026-04-06T07:21:39.599Z</time></trkpt><trkpt lat="44.9158067" lon="9.6043483"><ele>142.33333333333331</ele><time>2026-04-06T07:21:40.597Z</time></trkpt><trkpt lat="44.9157317" lon="9.604145"><ele>143.0</ele><time>2026-04-06T07:21:41.598Z</time></trkpt><trkpt lat="44.9156533" lon="9.60394"><ele>143.0</ele><time>2026-04-06T07:21:42.598Z</time></trkpt><trkpt lat="44.9155733" lon="9.6037333"><ele>143.0</ele><time>2026-04-06T07:21:43.598Z</time></trkpt><trkpt lat="44.9154917" lon="9.6035233"><ele>143.0</ele><time>2026-04-06T07:21:44.598Z</time></trkpt><trkpt lat="44.9154083" lon="9.603315"><ele>142.33333333333331</ele><time>2026-04-06T07:21:45.599Z</time></trkpt><trkpt lat="44.915325" lon="9.603105"><ele>141.66666666666666</ele><time>2026-04-06T07:21:46.597Z</time></trkpt><trkpt lat="44.9152417" lon="9.6028983"><ele>141.0</ele><time>2026-04-06T07:21:47.598Z</time></trkpt><trkpt lat="44.9151567" lon="9.6026883"><ele>139.66666666666666</ele><time>2026-04-06T07:21:48.598Z</time></trkpt><trkpt lat="44.915075" lon="9.6024767"><ele>138.33333333333331</ele><time>2026-04-06T07:21:49.598Z</time></trkpt><trkpt lat="44.91499" lon="9.602265"><ele>137.0</ele><time>2026-04-06T07:21:50.599Z</time></trkpt><trkpt lat="44.9149033" lon="9.6020483"><ele>136.33333333333331</ele><time>2026-04-06T07:21:51.598Z</time></trkpt><trkpt lat="44.9148133" lon="9.6018267"><ele>135.66666666666666</ele><time>2026-04-06T07:21:52.598Z</time></trkpt><trkpt lat="44.9147233" lon="9.601605"><ele>135.0</ele><time>2026-04-06T07:21:53.599Z</time></trkpt><trkpt lat="44.9146333" lon="9.601385"><ele>134.66666666666666</ele><time>2026-04-06T07:21:54.598Z</time></trkpt><trkpt lat="44.914545" lon="9.6011633"><ele>134.33333333333331</ele><time>2026-04-06T07:21:55.598Z</time></trkpt><trkpt lat="44.9144583" lon="9.6009383"><ele>134.0</ele><time>2026-04-06T07:21:56.598Z</time></trkpt><trkpt lat="44.91437" lon="9.600715"><ele>134.0</ele><time>2026-04-06T07:21:57.6Z</time></trkpt><trkpt lat="44.9142833" lon="9.600495"><ele>134.0</ele><time>2026-04-06T07:21:58.598Z</time></trkpt><trkpt lat="44.9141983" lon="9.6002733"><ele>134.0</ele><time>2026-04-06T07:21:59.597Z</time></trkpt><trkpt lat="44.9141117" lon="9.6000533"><ele>134.66666666666666</ele><time>2026-04-06T07:22:00.599Z</time></trkpt><trkpt lat="44.9140267" lon="9.599835"><ele>135.33333333333334</ele><time>2026-04-06T07:22:01.599Z</time></trkpt><trkpt lat="44.91394" lon="9.5996183"><ele>136.0</ele><time>2026-04-06T07:22:02.6Z</time></trkpt><trkpt lat="44.9138533" lon="9.5994033"><ele>136.33333333333334</ele><time>2026-04-06T07:22:03.598Z</time></trkpt><trkpt lat="44.913765" lon="9.5991867"><ele>136.66666666666666</ele><time>2026-04-06T07:22:04.599Z</time></trkpt><trkpt lat="44.913675" lon="9.5989683"><ele>137.0</ele><time>2026-04-06T07:22:05.598Z</time></trkpt><trkpt lat="44.9135867" lon="9.59875"><ele>137.33333333333331</ele><time>2026-04-06T07:22:06.598Z</time></trkpt><trkpt lat="44.9135" lon="9.59853"><ele>137.66666666666666</ele><time>2026-04-06T07:22:07.598Z</time></trkpt><trkpt lat="44.9134117" lon="9.5983083"><ele>138.0</ele><time>2026-04-06T07:22:08.599Z</time></trkpt><trkpt lat="44.913325" lon="9.59809"><ele>138.0</ele><time>2026-04-06T07:22:09.6Z</time></trkpt><trkpt lat="44.9132417" lon="9.5978833"><ele>138.0</ele><time>2026-04-06T07:22:10.598Z</time></trkpt><trkpt lat="44.9131633" lon="9.59769"><ele>138.0</ele><time>2026-04-06T07:22:11.599Z</time></trkpt><trkpt lat="44.913085" lon="9.5975033"><ele>138.0</ele><time>2026-04-06T07:22:12.599Z</time></trkpt><trkpt lat="44.9129983" lon="9.5973233"><ele>138.0</ele><time>2026-04-06T07:22:13.598Z</time></trkpt><trkpt lat="44.9129033" lon="9.5971483"><ele>138.0</ele><time>2026-04-06T07:22:14.599Z</time></trkpt><trkpt lat="44.9127967" lon="9.5969817"><ele>138.0</ele><time>2026-04-06T07:22:15.6Z</time></trkpt><trkpt lat="44.9126767" lon="9.596825"><ele>138.0</ele><time>2026-04-06T07:22:16.598Z</time></trkpt><trkpt lat="44.912545" lon="9.5966833"><ele>138.0</ele><time>2026-04-06T07:22:17.599Z</time></trkpt><trkpt lat="44.9124067" lon="9.5965567"><ele>138.33333333333334</ele><time>2026-04-06T07:22:18.6Z</time></trkpt><trkpt lat="44.9122633" lon="9.5964467"><ele>138.66666666666669</ele><time>2026-04-06T07:22:19.598Z</time></trkpt><trkpt lat="44.9121133" lon="9.5963517"><ele>139.0</ele><time>2026-04-06T07:22:20.599Z</time></trkpt><trkpt lat="44.91196" lon="9.596265"><ele>139.0</ele><time>2026-04-06T07:22:21.599Z</time></trkpt><trkpt lat="44.9118067" lon="9.5961833"><ele>139.0</ele><time>2026-04-06T07:22:22.598Z</time></trkpt><trkpt lat="44.9116533" lon="9.596105"><ele>139.0</ele><time>2026-04-06T07:22:23.599Z</time></trkpt><trkpt lat="44.9115033" lon="9.5960267"><ele>136.66666666666669</ele><time>2026-04-06T07:22:24.598Z</time></trkpt><trkpt lat="44.9113533" lon="9.5959467"><ele>134.33333333333334</ele><time>2026-04-06T07:22:25.599Z</time></trkpt><trkpt lat="44.9112029" lon="9.5958674"><ele>132.0</ele><time>2026-04-06T07:22:26.6Z</time></trkpt><trkpt lat="44.9110518" lon="9.5957867"><ele>133.0</ele><time>2026-04-06T07:22:27.598Z</time></trkpt><trkpt lat="44.9108983" lon="9.5957067"><ele>134.0</ele><time>2026-04-06T07:22:28.597Z</time></trkpt><trkpt lat="44.9107452" lon="9.5956237"><ele>135.0</ele><time>2026-04-06T07:22:29.598Z</time></trkpt><trkpt lat="44.9105934" lon="9.5955392"><ele>135.0</ele><time>2026-04-06T07:22:30.599Z</time></trkpt><trkpt lat="44.910446" lon="9.5954487"><ele>135.0</ele><time>2026-04-06T07:22:31.598Z</time></trkpt><trkpt lat="44.9103054" lon="9.5953443"><ele>135.0</ele><time>2026-04-06T07:22:32.599Z</time></trkpt><trkpt lat="44.9101713" lon="9.595226"><ele>134.0</ele><time>2026-04-06T07:22:33.598Z</time></trkpt><trkpt lat="44.9100454" lon="9.5950954"><ele>133.0</ele><time>2026-04-06T07:22:34.597Z</time></trkpt><trkpt lat="44.9099262" lon="9.5949472"><ele>132.0</ele><time>2026-04-06T07:22:35.599Z</time></trkpt><trkpt lat="44.9098099" lon="9.5947869"><ele>132.0</ele><time>2026-04-06T07:22:36.599Z</time></trkpt><trkpt lat="44.9096964" lon="9.594616"><ele>132.0</ele><time>2026-04-06T07:22:37.599Z</time></trkpt><trkpt lat="44.9095867" lon="9.5944452"><ele>132.0</ele><time>2026-04-06T07:22:38.599Z</time></trkpt><trkpt lat="44.9094836" lon="9.5942846"><ele>131.75</ele><time>2026-04-06T07:22:39.599Z</time></trkpt><trkpt lat="44.9093852" lon="9.5941333"><ele>131.5</ele><time>2026-04-06T07:22:40.598Z</time></trkpt><trkpt lat="44.9092921" lon="9.5939866"><ele>131.25</ele><time>2026-04-06T07:22:41.597Z</time></trkpt><trkpt lat="44.9092041" lon="9.5938462"><ele>131.0</ele><time>2026-04-06T07:22:42.598Z</time></trkpt><trkpt lat="44.9091207" lon="9.5937163"><ele>131.75</ele><time>2026-04-06T07:22:43.597Z</time></trkpt><trkpt lat="44.9090376" lon="9.5935904"><ele>132.5</ele><time>2026-04-06T07:22:44.598Z</time></trkpt><trkpt lat="44.908956" lon="9.5934636"><ele>133.25</ele><time>2026-04-06T07:22:45.598Z</time></trkpt><trkpt lat="44.9088728" lon="9.593333"><ele>134.0</ele><time>2026-04-06T07:22:46.598Z</time></trkpt><trkpt lat="44.9087889" lon="9.5932008"><ele>134.0</ele><time>2026-04-06T07:22:47.599Z</time></trkpt><trkpt lat="44.9087069" lon="9.5930719"><ele>134.0</ele><time>2026-04-06T07:22:48.599Z</time></trkpt><trkpt lat="44.908626" lon="9.592948"><ele>134.0</ele><time>2026-04-06T07:22:49.599Z</time></trkpt><trkpt lat="44.9085383" lon="9.59282"><ele>134.0</ele><time>2026-04-06T07:22:50.599Z</time></trkpt><trkpt lat="44.9084417" lon="9.5926917"><ele>134.0</ele><time>2026-04-06T07:22:51.598Z</time></trkpt><trkpt lat="44.9083317" lon="9.592565"><ele>134.0</ele><time>2026-04-06T07:22:52.599Z</time></trkpt><trkpt lat="44.9082167" lon="9.5924467"><ele>134.0</ele><time>2026-04-06T07:22:53.598Z</time></trkpt><trkpt lat="44.9080967" lon="9.5923333"><ele>134.0</ele><time>2026-04-06T07:22:54.599Z</time></trkpt><trkpt lat="44.907975" lon="9.5922217"><ele>134.0</ele><time>2026-04-06T07:22:55.6Z</time></trkpt><trkpt lat="44.9078467" lon="9.5921133"><ele>134.0</ele><time>2026-04-06T07:22:56.599Z</time></trkpt><trkpt lat="44.9077133" lon="9.592005"><ele>134.0</ele><time>2026-04-06T07:22:57.598Z</time></trkpt><trkpt lat="44.9075817" lon="9.5919"><ele>134.25</ele><time>2026-04-06T07:22:58.598Z</time></trkpt><trkpt lat="44.9074567" lon="9.5917983"><ele>134.5</ele><time>2026-04-06T07:22:59.599Z</time></trkpt><trkpt lat="44.9073383" lon="9.591705"><ele>134.75</ele><time>2026-04-06T07:23:00.597Z</time></trkpt><trkpt lat="44.9072183" lon="9.5916133"><ele>135.0</ele><time>2026-04-06T07:23:01.598Z</time></trkpt><trkpt lat="44.9070933" lon="9.5915133"><ele>135.0</ele><time>2026-04-06T07:23:02.598Z</time></trkpt><trkpt lat="44.906965" lon="9.5914067"><ele>135.0</ele><time>2026-04-06T07:23:03.598Z</time></trkpt><trkpt lat="44.9068383" lon="9.5913017"><ele>135.0</ele><time>2026-04-06T07:23:04.598Z</time></trkpt><trkpt lat="44.9067117" lon="9.591195"><ele>135.0</ele><time>2026-04-06T07:23:05.598Z</time></trkpt><trkpt lat="44.906585" lon="9.5910883"><ele>136.25</ele><time>2026-04-06T07:23:06.6Z</time></trkpt><trkpt lat="44.9064567" lon="9.59098"><ele>137.5</ele><time>2026-04-06T07:23:07.599Z</time></trkpt><trkpt lat="44.9063267" lon="9.5908733"><ele>138.75</ele><time>2026-04-06T07:23:08.598Z</time></trkpt><trkpt lat="44.9061983" lon="9.5907683"><ele>140.0</ele><time>2026-04-06T07:23:09.598Z</time></trkpt><trkpt lat="44.9060717" lon="9.5906633"><ele>140.0</ele><time>2026-04-06T07:23:10.598Z</time></trkpt><trkpt lat="44.9059467" lon="9.59056"><ele>140.0</ele><time>2026-04-06T07:23:11.598Z</time></trkpt><trkpt lat="44.905825" lon="9.5904567"><ele>140.0</ele><time>2026-04-06T07:23:12.597Z</time></trkpt><trkpt lat="44.9057017" lon="9.5903533"><ele>140.0</ele><time>2026-04-06T07:23:13.598Z</time></trkpt><trkpt lat="44.905575" lon="9.5902483"><ele>140.0</ele><time>2026-04-06T07:23:14.599Z</time></trkpt><trkpt lat="44.9054467" lon="9.5901433"><ele>140.0</ele><time>2026-04-06T07:23:15.597Z</time></trkpt><trkpt lat="44.9053167" lon="9.5900383"><ele>140.0</ele><time>2026-04-06T07:23:16.598Z</time></trkpt><trkpt lat="44.905185" lon="9.5899317"><ele>142.33333333333331</ele><time>2026-04-06T07:23:17.598Z</time></trkpt><trkpt lat="44.9050517" lon="9.5898233"><ele>144.66666666666666</ele><time>2026-04-06T07:23:18.599Z</time></trkpt><trkpt lat="44.9049183" lon="9.5897133"><ele>147.0</ele><time>2026-04-06T07:23:19.6Z</time></trkpt><trkpt lat="44.9047817" lon="9.5896"><ele>145.0</ele><time>2026-04-06T07:23:20.598Z</time></trkpt><trkpt lat="44.9046417" lon="9.5894867"><ele>143.0</ele><time>2026-04-06T07:23:21.597Z</time></trkpt><trkpt lat="44.9045" lon="9.5893717"><ele>141.0</ele><time>2026-04-06T07:23:22.599Z</time></trkpt><trkpt lat="44.9043583" lon="9.5892567"><ele>144.66666666666666</ele><time>2026-04-06T07:23:23.6Z</time></trkpt><trkpt lat="44.9042167" lon="9.5891417"><ele>148.33333333333331</ele><time>2026-04-06T07:23:24.598Z</time></trkpt><trkpt lat="44.9040767" lon="9.5890283"><ele>152.0</ele><time>2026-04-06T07:23:25.598Z</time></trkpt><trkpt lat="44.90394" lon="9.588915"><ele>152.0</ele><time>2026-04-06T07:23:26.599Z</time></trkpt><trkpt lat="44.903795" lon="9.5888"><ele>152.0</ele><time>2026-04-06T07:23:27.597Z</time></trkpt><trkpt lat="44.9036483" lon="9.5886817"><ele>152.0</ele><time>2026-04-06T07:23:28.599Z</time></trkpt><trkpt lat="44.9035017" lon="9.5885617"><ele>152.0</ele><time>2026-04-06T07:23:29.599Z</time></trkpt><trkpt lat="44.9033533" lon="9.5884433"><ele>152.0</ele><time>2026-04-06T07:23:30.599Z</time></trkpt><trkpt lat="44.90321" lon="9.588325"><ele>152.0</ele><time>2026-04-06T07:23:31.598Z</time></trkpt><trkpt lat="44.9030683" lon="9.58821"><ele>152.0</ele><time>2026-04-06T07:23:32.6Z</time></trkpt><trkpt lat="44.9029317" lon="9.588095"><ele>152.0</ele><time>2026-04-06T07:23:33.598Z</time></trkpt><trkpt lat="44.9027967" lon="9.5879817"><ele>152.0</ele><time>2026-04-06T07:23:34.598Z</time></trkpt><trkpt lat="44.90266" lon="9.587865"><ele>154.33333333333331</ele><time>2026-04-06T07:23:35.598Z</time></trkpt><trkpt lat="44.9025217" lon="9.5877433"><ele>156.66666666666666</ele><time>2026-04-06T07:23:36.598Z</time></trkpt><trkpt lat="44.902385" lon="9.58762"><ele>159.0</ele><time>2026-04-06T07:23:37.597Z</time></trkpt><trkpt lat="44.9022467" lon="9.5874983"><ele>159.0</ele><time>2026-04-06T07:23:38.598Z</time></trkpt><trkpt lat="44.9021083" lon="9.587375"><ele>159.0</ele><time>2026-04-06T07:23:39.598Z</time></trkpt><trkpt lat="44.9019683" lon="9.5872533"><ele>159.0</ele><time>2026-04-06T07:23:40.598Z</time></trkpt><trkpt lat="44.9018333" lon="9.5871383"><ele>159.0</ele><time>2026-04-06T07:23:41.598Z</time></trkpt><trkpt lat="44.90169" lon="9.58702"><ele>159.0</ele><time>2026-04-06T07:23:42.598Z</time></trkpt><trkpt lat="44.9015433" lon="9.5869"><ele>159.0</ele><time>2026-04-06T07:23:43.598Z</time></trkpt><trkpt lat="44.901395" lon="9.58678"><ele>159.0</ele><time>2026-04-06T07:23:44.598Z</time></trkpt><trkpt lat="44.901245" lon="9.5866617"><ele>159.0</ele><time>2026-04-06T07:23:45.597Z</time></trkpt><trkpt lat="44.9010917" lon="9.5865483"><ele>159.0</ele><time>2026-04-06T07:23:46.598Z</time></trkpt><trkpt lat="44.9009383" lon="9.5864433"><ele>157.66666666666666</ele><time>2026-04-06T07:23:47.6Z</time></trkpt><trkpt lat="44.9007833" lon="9.586345"><ele>156.33333333333331</ele><time>2026-04-06T07:23:48.598Z</time></trkpt><trkpt lat="44.9006267" lon="9.5862517"><ele>155.0</ele><time>2026-04-06T07:23:49.599Z</time></trkpt><trkpt lat="44.900465" lon="9.5861767"><ele>155.0</ele><time>2026-04-06T07:23:50.6Z</time></trkpt><trkpt lat="44.9003033" lon="9.5861117"><ele>155.0</ele><time>2026-04-06T07:23:51.598Z</time></trkpt><trkpt lat="44.900145" lon="9.5860517"><ele>155.0</ele><time>2026-04-06T07:23:52.599Z</time></trkpt><trkpt lat="44.899985" lon="9.5859967"><ele>157.66666666666666</ele><time>2026-04-06T07:23:53.6Z</time></trkpt><trkpt lat="44.8998317" lon="9.5859467"><ele>160.33333333333334</ele><time>2026-04-06T07:23:54.599Z</time></trkpt><trkpt lat="44.8996783" lon="9.5859017"><ele>163.0</ele><time>2026-04-06T07:23:55.598Z</time></trkpt><trkpt lat="44.8995267" lon="9.5858583"><ele>163.0</ele><time>2026-04-06T07:23:56.598Z</time></trkpt><trkpt lat="44.8993767" lon="9.5858167"><ele>163.0</ele><time>2026-04-06T07:23:57.599Z</time></trkpt><trkpt lat="44.8992267" lon="9.5857683"><ele>163.0</ele><time>2026-04-06T07:23:58.598Z</time></trkpt><trkpt lat="44.8990733" lon="9.5857167"><ele>164.5</ele><time>2026-04-06T07:23:59.598Z</time></trkpt><trkpt lat="44.8989217" lon="9.5856667"><ele>166.0</ele><time>2026-04-06T07:24:00.597Z</time></trkpt><trkpt lat="44.8987733" lon="9.58562"><ele>167.5</ele><time>2026-04-06T07:24:01.599Z</time></trkpt><trkpt lat="44.898635" lon="9.5855883"><ele>169.0</ele><time>2026-04-06T07:24:02.598Z</time></trkpt><trkpt lat="44.8985017" lon="9.5855883"><ele>170.25</ele><time>2026-04-06T07:24:03.598Z</time></trkpt><trkpt lat="44.898365" lon="9.5856233"><ele>171.5</ele><time>2026-04-06T07:24:04.598Z</time></trkpt><trkpt lat="44.8982333" lon="9.5856917"><ele>172.75</ele><time>2026-04-06T07:24:05.598Z</time></trkpt><trkpt lat="44.898105" lon="9.5857733"><ele>174.0</ele><time>2026-04-06T07:24:06.598Z</time></trkpt><trkpt lat="44.89798" lon="9.5858417"><ele>174.0</ele><time>2026-04-06T07:24:07.598Z</time></trkpt><trkpt lat="44.897855" lon="9.58588"><ele>174.0</ele><time>2026-04-06T07:24:08.598Z</time></trkpt><trkpt lat="44.897725" lon="9.585885"><ele>174.0</ele><time>2026-04-06T07:24:09.598Z</time></trkpt><trkpt lat="44.8975883" lon="9.5858517"><ele>174.0</ele><time>2026-04-06T07:24:10.597Z</time></trkpt><trkpt lat="44.8974533" lon="9.5857917"><ele>175.25</ele><time>2026-04-06T07:24:11.598Z</time></trkpt><trkpt lat="44.8973217" lon="9.5857217"><ele>176.5</ele><time>2026-04-06T07:24:12.597Z</time></trkpt><trkpt lat="44.8971983" lon="9.5856483"><ele>177.75</ele><time>2026-04-06T07:24:13.597Z</time></trkpt><trkpt lat="44.8970833" lon="9.5855783"><ele>179.0</ele><time>2026-04-06T07:24:14.599Z</time></trkpt><trkpt lat="44.8969717" lon="9.58551"><ele>179.0</ele><time>2026-04-06T07:24:15.597Z</time></trkpt><trkpt lat="44.89686" lon="9.5854417"><ele>179.0</ele><time>2026-04-06T07:24:16.599Z</time></trkpt><trkpt lat="44.896745" lon="9.5853683"><ele>179.0</ele><time>2026-04-06T07:24:17.599Z</time></trkpt><trkpt lat="44.8966233" lon="9.5852917"><ele>179.0</ele><time>2026-04-06T07:24:18.598Z</time></trkpt><trkpt lat="44.8964967" lon="9.5852183"><ele>177.5</ele><time>2026-04-06T07:24:19.6Z</time></trkpt><trkpt lat="44.8963633" lon="9.5851583"><ele>176.0</ele><time>2026-04-06T07:24:20.598Z</time></trkpt><trkpt lat="44.8962317" lon="9.585115"><ele>174.5</ele><time>2026-04-06T07:24:21.6Z</time></trkpt><trkpt lat="44.896105" lon="9.5850783"><ele>173.0</ele><time>2026-04-06T07:24:22.598Z</time></trkpt><trkpt lat="44.8959783" lon="9.585045"><ele>174.75</ele><time>2026-04-06T07:24:23.598Z</time></trkpt><trkpt lat="44.8958483" lon="9.5850167"><ele>176.5</ele><time>2026-04-06T07:24:24.598Z</time></trkpt><trkpt lat="44.8957133" lon="9.5850067"><ele>178.25</ele><time>2026-04-06T07:24:25.598Z</time></trkpt><trkpt lat="44.895575" lon="9.5850233"><ele>180.0</ele><time>2026-04-06T07:24:26.599Z</time></trkpt><trkpt lat="44.8954333" lon="9.5850633"><ele>180.0</ele><time>2026-04-06T07:24:27.599Z</time></trkpt><trkpt lat="44.89529" lon="9.5851067"><ele>180.0</ele><time>2026-04-06T07:24:28.599Z</time></trkpt><trkpt lat="44.8951467" lon="9.5851467"><ele>180.0</ele><time>2026-04-06T07:24:29.598Z</time></trkpt><trkpt lat="44.8950033" lon="9.5851833"><ele>180.0</ele><time>2026-04-06T07:24:30.598Z</time></trkpt><trkpt lat="44.8948617" lon="9.5852133"><ele>180.75</ele><time>2026-04-06T07:24:31.598Z</time></trkpt><trkpt lat="44.89472" lon="9.585235"><ele>181.5</ele><time>2026-04-06T07:24:32.599Z</time></trkpt><trkpt lat="44.8945767" lon="9.5852467"><ele>182.25</ele><time>2026-04-06T07:24:33.598Z</time></trkpt><trkpt lat="44.8944333" lon="9.5852517"><ele>183.0</ele><time>2026-04-06T07:24:34.597Z</time></trkpt><trkpt lat="44.89429" lon="9.5852567"><ele>183.0</ele><time>2026-04-06T07:24:35.598Z</time></trkpt><trkpt lat="44.894145" lon="9.58526"><ele>183.0</ele><time>2026-04-06T07:24:36.604Z</time></trkpt><trkpt lat="44.8939967" lon="9.5852667"><ele>183.0</ele><time>2026-04-06T07:24:37.598Z</time></trkpt><trkpt lat="44.893845" lon="9.58527"><ele>183.0</ele><time>2026-04-06T07:24:38.6Z</time></trkpt><trkpt lat="44.893675" lon="9.585285"><ele>183.0</ele><time>2026-04-06T07:24:39.598Z</time></trkpt><trkpt lat="44.8934733" lon="9.5853017"><ele>183.0</ele><time>2026-04-06T07:24:40.6Z</time></trkpt><trkpt lat="44.893235" lon="9.5853133"><ele>183.0</ele><time>2026-04-06T07:24:41.597Z</time></trkpt><trkpt lat="44.8929683" lon="9.5853183"><ele>184.0</ele><time>2026-04-06T07:24:42.598Z</time></trkpt><trkpt lat="44.8927083" lon="9.5853217"><ele>185.0</ele><time>2026-04-06T07:24:43.597Z</time></trkpt><trkpt lat="44.8924683" lon="9.58532"><ele>187.0</ele><time>2026-04-06T07:24:44.598Z</time></trkpt><trkpt lat="44.8922467" lon="9.5853217"><ele>189.0</ele><time>2026-04-06T07:24:45.598Z</time></trkpt><trkpt lat="44.8920367" lon="9.5853317"><ele>191.0</ele><time>2026-04-06T07:24:46.599Z</time></trkpt><trkpt lat="44.8918133" lon="9.5853433"><ele>191.5</ele><time>2026-04-06T07:24:47.598Z</time></trkpt><trkpt lat="44.8915667" lon="9.58536"><ele>192.0</ele><time>2026-04-06T07:24:48.599Z</time></trkpt><trkpt lat="44.8912933" lon="9.585375"><ele>192.0</ele><time>2026-04-06T07:24:49.6Z</time></trkpt><trkpt lat="44.891025" lon="9.5853883"><ele>192.0</ele><time>2026-04-06T07:24:50.6Z</time></trkpt><trkpt lat="44.8907767" lon="9.585395"><ele>191.5</ele><time>2026-04-06T07:24:51.599Z</time></trkpt><trkpt lat="44.89054" lon="9.5854133"><ele>191.0</ele><time>2026-04-06T07:24:52.599Z</time></trkpt><trkpt lat="44.8903167" lon="9.58545"><ele>191.0</ele><time>2026-04-06T07:24:53.6Z</time></trkpt><trkpt lat="44.8901167" lon="9.5854967"><ele>191.0</ele><time>2026-04-06T07:24:54.598Z</time></trkpt><trkpt lat="44.8899317" lon="9.5855267"><ele>191.0</ele><time>2026-04-06T07:24:55.597Z</time></trkpt><trkpt lat="44.8897583" lon="9.585525"><ele>191.66666666666666</ele><time>2026-04-06T07:24:56.599Z</time></trkpt><trkpt lat="44.8895933" lon="9.58547"><ele>192.33333333333331</ele><time>2026-04-06T07:24:57.598Z</time></trkpt><trkpt lat="44.889435" lon="9.5853483"><ele>193.0</ele><time>2026-04-06T07:24:58.598Z</time></trkpt><trkpt lat="44.8892833" lon="9.58516"><ele>191.66666666666666</ele><time>2026-04-06T07:24:59.597Z</time></trkpt><trkpt lat="44.88915" lon="9.5849383"><ele>190.33333333333331</ele><time>2026-04-06T07:25:00.598Z</time></trkpt><trkpt lat="44.8890317" lon="9.58472"><ele>189.0</ele><time>2026-04-06T07:25:01.598Z</time></trkpt><trkpt lat="44.8889233" lon="9.5845183"><ele>186.33333333333334</ele><time>2026-04-06T07:25:02.598Z</time></trkpt><trkpt lat="44.8888133" lon="9.58434"><ele>183.66666666666669</ele><time>2026-04-06T07:25:03.598Z</time></trkpt><trkpt lat="44.8886917" lon="9.5841967"><ele>181.0</ele><time>2026-04-06T07:25:04.597Z</time></trkpt><trkpt lat="44.8885433" lon="9.5841017"><ele>182.0</ele><time>2026-04-06T07:25:05.599Z</time></trkpt><trkpt lat="44.8883783" lon="9.584065"><ele>183.0</ele><time>2026-04-06T07:25:06.599Z</time></trkpt><trkpt lat="44.88821" lon="9.58409"><ele>184.0</ele><time>2026-04-06T07:25:07.598Z</time></trkpt><trkpt lat="44.88805" lon="9.5841317"><ele>184.0</ele><time>2026-04-06T07:25:08.598Z</time></trkpt><trkpt lat="44.8879" lon="9.5841467"><ele>184.0</ele><time>2026-04-06T07:25:09.598Z</time></trkpt><trkpt lat="44.88776" lon="9.5840967"><ele>184.0</ele><time>2026-04-06T07:25:10.598Z</time></trkpt><trkpt lat="44.8876333" lon="9.5839717"><ele>184.0</ele><time>2026-04-06T07:25:11.598Z</time></trkpt><trkpt lat="44.8875233" lon="9.5838"><ele>182.66666666666669</ele><time>2026-04-06T07:25:12.598Z</time></trkpt><trkpt lat="44.8874167" lon="9.5836233"><ele>181.33333333333334</ele><time>2026-04-06T07:25:13.598Z</time></trkpt><trkpt lat="44.887305" lon="9.5834817"><ele>180.0</ele><time>2026-04-06T07:25:14.597Z</time></trkpt><trkpt lat="44.8871783" lon="9.5833767"><ele>180.0</ele><time>2026-04-06T07:25:15.597Z</time></trkpt><trkpt lat="44.8870183" lon="9.5833217"><ele>180.0</ele><time>2026-04-06T07:25:16.598Z</time></trkpt><trkpt lat="44.8868367" lon="9.5833233"><ele>180.0</ele><time>2026-04-06T07:25:17.599Z</time></trkpt><trkpt lat="44.8866633" lon="9.5833533"><ele>179.66666666666666</ele><time>2026-04-06T07:25:18.598Z</time></trkpt><trkpt lat="44.8865033" lon="9.5833667"><ele>179.33333333333331</ele><time>2026-04-06T07:25:19.6Z</time></trkpt><trkpt lat="44.8863483" lon="9.583325"><ele>179.0</ele><time>2026-04-06T07:25:20.599Z</time></trkpt><trkpt lat="44.88621" lon="9.58321"><ele>179.0</ele><time>2026-04-06T07:25:21.599Z</time></trkpt><trkpt lat="44.8860967" lon="9.5830383"><ele>179.0</ele><time>2026-04-06T07:25:22.598Z</time></trkpt><trkpt lat="44.8860033" lon="9.58285"><ele>179.0</ele><time>2026-04-06T07:25:23.6Z</time></trkpt><trkpt lat="44.88592" lon="9.5826683"><ele>179.25</ele><time>2026-04-06T07:25:24.599Z</time></trkpt><trkpt lat="44.8858417" lon="9.582495"><ele>179.5</ele><time>2026-04-06T07:25:25.598Z</time></trkpt><trkpt lat="44.8857633" lon="9.5823333"><ele>179.75</ele><time>2026-04-06T07:25:26.598Z</time></trkpt><trkpt lat="44.88569" lon="9.5821733"><ele>180.0</ele><time>2026-04-06T07:25:27.598Z</time></trkpt><trkpt lat="44.88562" lon="9.5820067"><ele>178.5</ele><time>2026-04-06T07:25:28.597Z</time></trkpt><trkpt lat="44.88557" lon="9.5818283"><ele>177.0</ele><time>2026-04-06T07:25:29.597Z</time></trkpt><trkpt lat="44.8855383" lon="9.58164"><ele>175.5</ele><time>2026-04-06T07:25:30.598Z</time></trkpt><trkpt lat="44.8855217" lon="9.58144"><ele>174.0</ele><time>2026-04-06T07:25:31.598Z</time></trkpt><trkpt lat="44.88551" lon="9.5812367"><ele>173.5</ele><time>2026-04-06T07:25:32.598Z</time></trkpt><trkpt lat="44.8854917" lon="9.58104"><ele>173.0</ele><time>2026-04-06T07:25:33.599Z</time></trkpt><trkpt lat="44.8854583" lon="9.5808467"><ele>172.5</ele><time>2026-04-06T07:25:34.598Z</time></trkpt><trkpt lat="44.8854117" lon="9.5806633"><ele>172.0</ele><time>2026-04-06T07:25:35.597Z</time></trkpt><trkpt lat="44.8853517" lon="9.580495"><ele>170.75</ele><time>2026-04-06T07:25:36.598Z</time></trkpt><trkpt lat="44.8852883" lon="9.5803333"><ele>169.5</ele><time>2026-04-06T07:25:37.598Z</time></trkpt><trkpt lat="44.8852233" lon="9.580175"><ele>168.25</ele><time>2026-04-06T07:25:38.599Z</time></trkpt><trkpt lat="44.88516" lon="9.580015"><ele>167.0</ele><time>2026-04-06T07:25:39.597Z</time></trkpt><trkpt lat="44.8851067" lon="9.579855"><ele>170.0</ele><time>2026-04-06T07:25:40.599Z</time></trkpt><trkpt lat="44.885065" lon="9.5796917"><ele>173.0</ele><time>2026-04-06T07:25:41.598Z</time></trkpt><trkpt lat="44.885025" lon="9.579525"><ele>176.0</ele><time>2026-04-06T07:25:42.599Z</time></trkpt><trkpt lat="44.8849883" lon="9.579355"><ele>179.0</ele><time>2026-04-06T07:25:43.602Z</time></trkpt><trkpt lat="44.884955" lon="9.579185"><ele>179.0</ele><time>2026-04-06T07:25:44.598Z</time></trkpt><trkpt lat="44.8849233" lon="9.5790083"><ele>179.0</ele><time>2026-04-06T07:25:45.598Z</time></trkpt><trkpt lat="44.8848933" lon="9.5788333"><ele>179.0</ele><time>2026-04-06T07:25:46.597Z</time></trkpt><trkpt lat="44.88486" lon="9.5786567"><ele>179.0</ele><time>2026-04-06T07:25:47.598Z</time></trkpt><trkpt lat="44.884825" lon="9.5784767"><ele>178.5</ele><time>2026-04-06T07:25:48.598Z</time></trkpt><trkpt lat="44.88479" lon="9.5782983"><ele>178.0</ele><time>2026-04-06T07:25:49.597Z</time></trkpt><trkpt lat="44.8847583" lon="9.578125"><ele>177.5</ele><time>2026-04-06T07:25:50.598Z</time></trkpt><trkpt lat="44.884735" lon="9.5779567"><ele>177.0</ele><time>2026-04-06T07:25:51.597Z</time></trkpt><trkpt lat="44.88472" lon="9.57779"><ele>175.25</ele><time>2026-04-06T07:25:52.598Z</time></trkpt><trkpt lat="44.88471" lon="9.5776283"><ele>173.5</ele><time>2026-04-06T07:25:53.598Z</time></trkpt><trkpt lat="44.8847033" lon="9.5774733"><ele>171.75</ele><time>2026-04-06T07:25:54.598Z</time></trkpt><trkpt lat="44.8847" lon="9.5773133"><ele>170.0</ele><time>2026-04-06T07:25:55.597Z</time></trkpt><trkpt lat="44.8846983" lon="9.57715"><ele>169.0</ele><time>2026-04-06T07:25:56.599Z</time></trkpt><trkpt lat="44.884695" lon="9.57699"><ele>168.0</ele><time>2026-04-06T07:25:57.598Z</time></trkpt><trkpt lat="44.88469" lon="9.5768367"><ele>167.0</ele><time>2026-04-06T07:25:58.597Z</time></trkpt><trkpt lat="44.88468" lon="9.5766917"><ele>166.0</ele><time>2026-04-06T07:25:59.598Z</time></trkpt><trkpt lat="44.8846567" lon="9.5765533"><ele>165.0</ele><time>2026-04-06T07:26:00.598Z</time></trkpt><trkpt lat="44.8846117" lon="9.5764217"><ele>165.0</ele><time>2026-04-06T07:26:01.599Z</time></trkpt><trkpt lat="44.8845417" lon="9.5763033"><ele>165.0</ele><time>2026-04-06T07:26:02.599Z</time></trkpt><trkpt lat="44.8844483" lon="9.5762"><ele>165.0</ele><time>2026-04-06T07:26:03.598Z</time></trkpt><trkpt lat="44.8843417" lon="9.5761083"><ele>165.0</ele><time>2026-04-06T07:26:04.598Z</time></trkpt><trkpt lat="44.8842267" lon="9.5760217"><ele>167.0</ele><time>2026-04-06T07:26:05.598Z</time></trkpt><trkpt lat="44.884115" lon="9.5759283"><ele>169.0</ele><time>2026-04-06T07:26:06.598Z</time></trkpt><trkpt lat="44.8840117" lon="9.5758217"><ele>171.0</ele><time>2026-04-06T07:26:07.597Z</time></trkpt><trkpt lat="44.8839238" lon="9.5756918"><ele>173.0</ele><time>2026-04-06T07:26:08.598Z</time></trkpt><trkpt lat="44.8838655" lon="9.5755285"><ele>171.0</ele><time>2026-04-06T07:26:09.603Z</time></trkpt><trkpt lat="44.883839" lon="9.5753306"><ele>169.0</ele><time>2026-04-06T07:26:10.598Z</time></trkpt><trkpt lat="44.883832" lon="9.575114"><ele>167.0</ele><time>2026-04-06T07:26:11.599Z</time></trkpt><trkpt lat="44.8838349" lon="9.5748899"><ele>167.0</ele><time>2026-04-06T07:26:12.597Z</time></trkpt><trkpt lat="44.8838505" lon="9.5746619"><ele>167.0</ele><time>2026-04-06T07:26:13.598Z</time></trkpt><trkpt lat="44.8838812" lon="9.5744362"><ele>167.0</ele><time>2026-04-06T07:26:14.599Z</time></trkpt><trkpt lat="44.8839168" lon="9.5742254"><ele>167.25</ele><time>2026-04-06T07:26:15.598Z</time></trkpt><trkpt lat="44.8839406" lon="9.5740289"><ele>167.5</ele><time>2026-04-06T07:26:16.597Z</time></trkpt><trkpt lat="44.8839372" lon="9.5738298"><ele>167.75</ele><time>2026-04-06T07:26:17.597Z</time></trkpt><trkpt lat="44.8839015" lon="9.5736238"><ele>168.0</ele><time>2026-04-06T07:26:18.597Z</time></trkpt><trkpt lat="44.8838408" lon="9.573407"><ele>168.0</ele><time>2026-04-06T07:26:19.597Z</time></trkpt><trkpt lat="44.8837594" lon="9.5731751"><ele>168.0</ele><time>2026-04-06T07:26:20.599Z</time></trkpt><trkpt lat="44.8836716" lon="9.5729303"><ele>168.0</ele><time>2026-04-06T07:26:21.599Z</time></trkpt><trkpt lat="44.8835845" lon="9.5726811"><ele>168.33333333333334</ele><time>2026-04-06T07:26:22.599Z</time></trkpt><trkpt lat="44.8834952" lon="9.5724302"><ele>168.66666666666669</ele><time>2026-04-06T07:26:23.597Z</time></trkpt><trkpt lat="44.8834062" lon="9.5721792"><ele>169.0</ele><time>2026-04-06T07:26:24.597Z</time></trkpt><trkpt lat="44.8833176" lon="9.5719299"><ele>169.0</ele><time>2026-04-06T07:26:25.599Z</time></trkpt><trkpt lat="44.8832315" lon="9.5716801"><ele>169.0</ele><time>2026-04-06T07:26:26.598Z</time></trkpt><trkpt lat="44.8831425" lon="9.5714285"><ele>169.0</ele><time>2026-04-06T07:26:27.598Z</time></trkpt><trkpt lat="44.883054" lon="9.5711769"><ele>167.66666666666669</ele><time>2026-04-06T07:26:28.598Z</time></trkpt><trkpt lat="44.8829668" lon="9.5709277"><ele>166.33333333333334</ele><time>2026-04-06T07:26:29.597Z</time></trkpt><trkpt lat="44.8828803" lon="9.5706798"><ele>165.0</ele><time>2026-04-06T07:26:30.597Z</time></trkpt><trkpt lat="44.8827948" lon="9.5704304"><ele>164.33333333333334</ele><time>2026-04-06T07:26:31.597Z</time></trkpt><trkpt lat="44.8827107" lon="9.570183"><ele>163.66666666666669</ele><time>2026-04-06T07:26:32.599Z</time></trkpt><trkpt lat="44.8826254" lon="9.5699373"><ele>163.0</ele><time>2026-04-06T07:26:33.598Z</time></trkpt><trkpt lat="44.8825377" lon="9.5696892"><ele>165.66666666666669</ele><time>2026-04-06T07:26:34.598Z</time></trkpt><trkpt lat="44.8824506" lon="9.5694376"><ele>168.33333333333334</ele><time>2026-04-06T07:26:35.597Z</time></trkpt><trkpt lat="44.8823631" lon="9.5691839"><ele>171.0</ele><time>2026-04-06T07:26:36.598Z</time></trkpt><trkpt lat="44.8822737" lon="9.5689282"><ele>169.66666666666666</ele><time>2026-04-06T07:26:37.599Z</time></trkpt><trkpt lat="44.8821863" lon="9.568672"><ele>168.33333333333331</ele><time>2026-04-06T07:26:38.598Z</time></trkpt><trkpt lat="44.8821004" lon="9.5684194"><ele>167.0</ele><time>2026-04-06T07:26:39.598Z</time></trkpt><trkpt lat="44.8820138" lon="9.5681736"><ele>167.0</ele><time>2026-04-06T07:26:40.598Z</time></trkpt><trkpt lat="44.8819295" lon="9.5679334"><ele>167.0</ele><time>2026-04-06T07:26:41.598Z</time></trkpt><trkpt lat="44.88184" lon="9.5677002"><ele>167.0</ele><time>2026-04-06T07:26:42.598Z</time></trkpt><trkpt lat="44.8817394" lon="9.5674747"><ele>167.66666666666666</ele><time>2026-04-06T07:26:43.598Z</time></trkpt><trkpt lat="44.881624" lon="9.5672566"><ele>168.33333333333334</ele><time>2026-04-06T07:26:44.597Z</time></trkpt><trkpt lat="44.8814952" lon="9.5670467"><ele>169.0</ele><time>2026-04-06T07:26:45.598Z</time></trkpt><trkpt lat="44.881354" lon="9.5668434"><ele>169.0</ele><time>2026-04-06T07:26:46.598Z</time></trkpt><trkpt lat="44.8812017" lon="9.5666417"><ele>169.0</ele><time>2026-04-06T07:26:47.6Z</time></trkpt><trkpt lat="44.8810483" lon="9.5664433"><ele>169.0</ele><time>2026-04-06T07:26:48.598Z</time></trkpt><trkpt lat="44.8808983" lon="9.5662417"><ele>169.0</ele><time>2026-04-06T07:26:49.6Z</time></trkpt><trkpt lat="44.8807467" lon="9.5660433"><ele>169.0</ele><time>2026-04-06T07:26:50.6Z</time></trkpt><trkpt lat="44.8805967" lon="9.565845"><ele>169.0</ele><time>2026-04-06T07:26:51.6Z</time></trkpt><trkpt lat="44.8804467" lon="9.565645"><ele>169.0</ele><time>2026-04-06T07:26:52.599Z</time></trkpt><trkpt lat="44.8803017" lon="9.5654433"><ele>169.0</ele><time>2026-04-06T07:26:53.599Z</time></trkpt><trkpt lat="44.880155" lon="9.56524"><ele>169.0</ele><time>2026-04-06T07:26:54.598Z</time></trkpt><trkpt lat="44.8800083" lon="9.56504"><ele>170.66666666666669</ele><time>2026-04-06T07:26:55.599Z</time></trkpt><trkpt lat="44.8798583" lon="9.5648417"><ele>172.33333333333334</ele><time>2026-04-06T07:26:56.6Z</time></trkpt><trkpt lat="44.8797067" lon="9.5646467"><ele>174.0</ele><time>2026-04-06T07:26:57.598Z</time></trkpt><trkpt lat="44.8795567" lon="9.5644483"><ele>176.33333333333334</ele><time>2026-04-06T07:26:58.6Z</time></trkpt><trkpt lat="44.8794083" lon="9.56425"><ele>178.66666666666669</ele><time>2026-04-06T07:26:59.599Z</time></trkpt><trkpt lat="44.8792633" lon="9.5640533"><ele>181.0</ele><time>2026-04-06T07:27:00.599Z</time></trkpt><trkpt lat="44.8791167" lon="9.5638583"><ele>176.0</ele><time>2026-04-06T07:27:01.6Z</time></trkpt><trkpt lat="44.87897" lon="9.5636667"><ele>171.0</ele><time>2026-04-06T07:27:02.601Z</time></trkpt><trkpt lat="44.87883" lon="9.5634733"><ele>166.0</ele><time>2026-04-06T07:27:03.6Z</time></trkpt><trkpt lat="44.878685" lon="9.5632833"><ele>166.0</ele><time>2026-04-06T07:27:04.601Z</time></trkpt><trkpt lat="44.8785367" lon="9.5630967"><ele>166.0</ele><time>2026-04-06T07:27:05.602Z</time></trkpt><trkpt lat="44.8783817" lon="9.5629117"><ele>166.0</ele><time>2026-04-06T07:27:06.601Z</time></trkpt><trkpt lat="44.8782217" lon="9.56273"><ele>168.66666666666669</ele><time>2026-04-06T07:27:07.601Z</time></trkpt><trkpt lat="44.8780567" lon="9.5625533"><ele>171.33333333333334</ele><time>2026-04-06T07:27:08.602Z</time></trkpt><trkpt lat="44.8778917" lon="9.5623767"><ele>174.0</ele><time>2026-04-06T07:27:09.6Z</time></trkpt><trkpt lat="44.877725" lon="9.5622017"><ele>174.33333333333334</ele><time>2026-04-06T07:27:10.6Z</time></trkpt><trkpt lat="44.87756" lon="9.5620283"><ele>174.66666666666669</ele><time>2026-04-06T07:27:11.6Z</time></trkpt><trkpt lat="44.877395" lon="9.5618583"><ele>175.0</ele><time>2026-04-06T07:27:12.6Z</time></trkpt><trkpt lat="44.8772317" lon="9.5616883"><ele>175.0</ele><time>2026-04-06T07:27:13.601Z</time></trkpt><trkpt lat="44.8770767" lon="9.5615267"><ele>175.0</ele><time>2026-04-06T07:27:14.601Z</time></trkpt><trkpt lat="44.8769267" lon="9.5613767"><ele>175.0</ele><time>2026-04-06T07:27:15.599Z</time></trkpt><trkpt lat="44.87678" lon="9.5612383"><ele>175.0</ele><time>2026-04-06T07:27:16.598Z</time></trkpt><trkpt lat="44.876625" lon="9.5611217"><ele>175.0</ele><time>2026-04-06T07:27:17.6Z</time></trkpt><trkpt lat="44.8764567" lon="9.56102"><ele>175.0</ele><time>2026-04-06T07:27:18.598Z</time></trkpt><trkpt lat="44.8762833" lon="9.5609417"><ele>175.0</ele><time>2026-04-06T07:27:19.6Z</time></trkpt><trkpt lat="44.876105" lon="9.5608933"><ele>175.0</ele><time>2026-04-06T07:27:20.601Z</time></trkpt><trkpt lat="44.87592" lon="9.560875"><ele>175.0</ele><time>2026-04-06T07:27:21.601Z</time></trkpt><trkpt lat="44.8757267" lon="9.5608933"><ele>175.33333333333334</ele><time>2026-04-06T07:27:22.6Z</time></trkpt><trkpt lat="44.8755333" lon="9.56093"><ele>175.66666666666666</ele><time>2026-04-06T07:27:23.6Z</time></trkpt><trkpt lat="44.8753483" lon="9.5609767"><ele>176.0</ele><time>2026-04-06T07:27:24.6Z</time></trkpt><trkpt lat="44.8751733" lon="9.56102"><ele>176.33333333333331</ele><time>2026-04-06T07:27:25.601Z</time></trkpt><trkpt lat="44.8750117" lon="9.56105"><ele>176.66666666666666</ele><time>2026-04-06T07:27:26.602Z</time></trkpt><trkpt lat="44.87486" lon="9.561055"><ele>177.0</ele><time>2026-04-06T07:27:27.601Z</time></trkpt><trkpt lat="44.8747183" lon="9.561015"><ele>177.0</ele><time>2026-04-06T07:27:28.6Z</time></trkpt><trkpt lat="44.874575" lon="9.5609417"><ele>177.0</ele><time>2026-04-06T07:27:29.6Z</time></trkpt><trkpt lat="44.8744283" lon="9.5608433"><ele>177.0</ele><time>2026-04-06T07:27:30.599Z</time></trkpt><trkpt lat="44.874275" lon="9.5607283"><ele>177.66666666666666</ele><time>2026-04-06T07:27:31.599Z</time></trkpt><trkpt lat="44.8741133" lon="9.5606"><ele>178.33333333333331</ele><time>2026-04-06T07:27:32.599Z</time></trkpt><trkpt lat="44.873945" lon="9.5604683"><ele>179.0</ele><time>2026-04-06T07:27:33.599Z</time></trkpt><trkpt lat="44.8737667" lon="9.56034"><ele>179.66666666666666</ele><time>2026-04-06T07:27:34.599Z</time></trkpt><trkpt lat="44.8735833" lon="9.560205"><ele>180.33333333333334</ele><time>2026-04-06T07:27:35.598Z</time></trkpt><trkpt lat="44.8734017" lon="9.560075"><ele>181.0</ele><time>2026-04-06T07:27:36.599Z</time></trkpt><trkpt lat="44.8732226" lon="9.5599487"><ele>181.0</ele><time>2026-04-06T07:27:37.599Z</time></trkpt><trkpt lat="44.8730487" lon="9.5598229"><ele>181.0</ele><time>2026-04-06T07:27:38.598Z</time></trkpt><trkpt lat="44.8728779" lon="9.5597023"><ele>181.0</ele><time>2026-04-06T07:27:39.599Z</time></trkpt><trkpt lat="44.8727129" lon="9.5595914"><ele>180.0</ele><time>2026-04-06T07:27:40.599Z</time></trkpt><trkpt lat="44.8725604" lon="9.5594867"><ele>179.0</ele><time>2026-04-06T07:27:41.599Z</time></trkpt><trkpt lat="44.8724223" lon="9.5593778"><ele>178.0</ele><time>2026-04-06T07:27:42.598Z</time></trkpt><trkpt lat="44.8722971" lon="9.5592473"><ele>178.0</ele><time>2026-04-06T07:27:43.599Z</time></trkpt><trkpt lat="44.8721861" lon="9.5590876"><ele>178.0</ele><time>2026-04-06T07:27:44.598Z</time></trkpt><trkpt lat="44.8720982" lon="9.5588974"><ele>178.0</ele><time>2026-04-06T07:27:45.599Z</time></trkpt><trkpt lat="44.8720315" lon="9.5586915"><ele>177.0</ele><time>2026-04-06T07:27:46.599Z</time></trkpt><trkpt lat="44.8719739" lon="9.5584951"><ele>176.0</ele><time>2026-04-06T07:27:47.599Z</time></trkpt><trkpt lat="44.8719164" lon="9.5583158"><ele>175.0</ele><time>2026-04-06T07:27:48.598Z</time></trkpt><trkpt lat="44.8718523" lon="9.5581533"><ele>174.0</ele><time>2026-04-06T07:27:49.6Z</time></trkpt><trkpt lat="44.871778" lon="9.5580125"><ele>174.79999999999998</ele><time>2026-04-06T07:27:50.6Z</time></trkpt><trkpt lat="44.8716937" lon="9.5578941"><ele>175.6</ele><time>2026-04-06T07:27:51.6Z</time></trkpt><trkpt lat="44.871608" lon="9.5577984"><ele>176.4</ele><time>2026-04-06T07:27:52.599Z</time></trkpt><trkpt lat="44.8715209" lon="9.5577194"><ele>177.2</ele><time>2026-04-06T07:27:53.6Z</time></trkpt><trkpt lat="44.8714281" lon="9.5576545"><ele>178.0</ele><time>2026-04-06T07:27:54.6Z</time></trkpt><trkpt lat="44.871334" lon="9.5576063"><ele>178.0</ele><time>2026-04-06T07:27:55.6Z</time></trkpt><trkpt lat="44.8712352" lon="9.5575727"><ele>178.0</ele><time>2026-04-06T07:27:56.6Z</time></trkpt><trkpt lat="44.8711258" lon="9.5575619"><ele>178.0</ele><time>2026-04-06T07:27:57.605Z</time></trkpt><trkpt lat="44.8710001" lon="9.5575818"><ele>178.0</ele><time>2026-04-06T07:27:58.599Z</time></trkpt><trkpt lat="44.8708479" lon="9.5576271"><ele>180.66666666666669</ele><time>2026-04-06T07:27:59.599Z</time></trkpt><trkpt lat="44.8706678" lon="9.55769"><ele>183.33333333333334</ele><time>2026-04-06T07:28:00.599Z</time></trkpt><trkpt lat="44.8704641" lon="9.5577584"><ele>186.0</ele><time>2026-04-06T07:28:01.599Z</time></trkpt><trkpt lat="44.87026" lon="9.5578218"><ele>189.33333333333331</ele><time>2026-04-06T07:28:02.599Z</time></trkpt><trkpt lat="44.870075" lon="9.5578718"><ele>192.66666666666666</ele><time>2026-04-06T07:28:03.599Z</time></trkpt><trkpt lat="44.8699072" lon="9.5579112"><ele>196.0</ele><time>2026-04-06T07:28:04.599Z</time></trkpt><trkpt lat="44.8697452" lon="9.557934"><ele>196.0</ele><time>2026-04-06T07:28:05.599Z</time></trkpt><trkpt lat="44.8695712" lon="9.5579362"><ele>196.0</ele><time>2026-04-06T07:28:06.599Z</time></trkpt><trkpt lat="44.8693853" lon="9.5579075"><ele>196.0</ele><time>2026-04-06T07:28:07.599Z</time></trkpt><trkpt lat="44.8692002" lon="9.5578624"><ele>192.33333333333331</ele><time>2026-04-06T07:28:08.599Z</time></trkpt><trkpt lat="44.8690337" lon="9.5577923"><ele>188.66666666666666</ele><time>2026-04-06T07:28:09.599Z</time></trkpt><trkpt lat="44.8688808" lon="9.5576765"><ele>185.0</ele><time>2026-04-06T07:28:10.599Z</time></trkpt><trkpt lat="44.8687444" lon="9.5575017"><ele>185.0</ele><time>2026-04-06T07:28:11.599Z</time></trkpt><trkpt lat="44.8686307" lon="9.5572794"><ele>185.0</ele><time>2026-04-06T07:28:12.599Z</time></trkpt><trkpt lat="44.8685364" lon="9.5570457"><ele>185.0</ele><time>2026-04-06T07:28:13.599Z</time></trkpt><trkpt lat="44.8684502" lon="9.5568324"><ele>186.0</ele><time>2026-04-06T07:28:14.599Z</time></trkpt><trkpt lat="44.8683694" lon="9.5566434"><ele>187.0</ele><time>2026-04-06T07:28:15.599Z</time></trkpt><trkpt lat="44.8682752" lon="9.5564788"><ele>188.0</ele><time>2026-04-06T07:28:16.598Z</time></trkpt><trkpt lat="44.8681525" lon="9.5563413"><ele>188.0</ele><time>2026-04-06T07:28:17.599Z</time></trkpt><trkpt lat="44.867993" lon="9.5562366"><ele>188.0</ele><time>2026-04-06T07:28:18.598Z</time></trkpt><trkpt lat="44.8678075" lon="9.5561669"><ele>188.0</ele><time>2026-04-06T07:28:19.599Z</time></trkpt><trkpt lat="44.8676193" lon="9.5561219"><ele>187.33333333333331</ele><time>2026-04-06T07:28:20.6Z</time></trkpt><trkpt lat="44.8674397" lon="9.5560773"><ele>186.66666666666666</ele><time>2026-04-06T07:28:21.6Z</time></trkpt><trkpt lat="44.867265" lon="9.5560071"><ele>186.0</ele><time>2026-04-06T07:28:22.601Z</time></trkpt><trkpt lat="44.8670951" lon="9.5558996"><ele>186.0</ele><time>2026-04-06T07:28:23.603Z</time></trkpt><trkpt lat="44.8669409" lon="9.5557559"><ele>186.0</ele><time>2026-04-06T07:28:24.6Z</time></trkpt><trkpt lat="44.8668167" lon="9.555595"><ele>186.0</ele><time>2026-04-06T07:28:25.601Z</time></trkpt><trkpt lat="44.8667" lon="9.5554417"><ele>186.0</ele><time>2026-04-06T07:28:26.602Z</time></trkpt><trkpt lat="44.8665883" lon="9.55529"><ele>186.0</ele><time>2026-04-06T07:28:27.6Z</time></trkpt><trkpt lat="44.866475" lon="9.5551383"><ele>186.0</ele><time>2026-04-06T07:28:28.601Z</time></trkpt><trkpt lat="44.8663683" lon="9.5549883"><ele>186.0</ele><time>2026-04-06T07:28:29.598Z</time></trkpt><trkpt lat="44.866255" lon="9.5548483"><ele>186.0</ele><time>2026-04-06T07:28:30.599Z</time></trkpt><trkpt lat="44.8661317" lon="9.55473"><ele>186.0</ele><time>2026-04-06T07:28:31.599Z</time></trkpt><trkpt lat="44.8659917" lon="9.5546533"><ele>189.0</ele><time>2026-04-06T07:28:32.6Z</time></trkpt><trkpt lat="44.8658333" lon="9.554635"><ele>192.0</ele><time>2026-04-06T07:28:33.598Z</time></trkpt><trkpt lat="44.8656517" lon="9.554665"><ele>195.0</ele><time>2026-04-06T07:28:34.598Z</time></trkpt><trkpt lat="44.86546" lon="9.5547183"><ele>195.0</ele><time>2026-04-06T07:28:35.6Z</time></trkpt><trkpt lat="44.86526" lon="9.554775"><ele>195.0</ele><time>2026-04-06T07:28:36.598Z</time></trkpt><trkpt lat="44.8650633" lon="9.5548317"><ele>195.0</ele><time>2026-04-06T07:28:37.599Z</time></trkpt><trkpt lat="44.86488" lon="9.5548817"><ele>194.33333333333331</ele><time>2026-04-06T07:28:38.599Z</time></trkpt><trkpt lat="44.8647017" lon="9.554935"><ele>193.66666666666666</ele><time>2026-04-06T07:28:39.6Z</time></trkpt><trkpt lat="44.86453" lon="9.5549867"><ele>193.0</ele><time>2026-04-06T07:28:40.6Z</time></trkpt><trkpt lat="44.86436" lon="9.55504"><ele>191.33333333333331</ele><time>2026-04-06T07:28:41.603Z</time></trkpt><trkpt lat="44.864195" lon="9.5550933"><ele>189.66666666666666</ele><time>2026-04-06T07:28:42.599Z</time></trkpt><trkpt lat="44.864035" lon="9.555145"><ele>188.0</ele><time>2026-04-06T07:28:43.598Z</time></trkpt><trkpt lat="44.8638783" lon="9.5551867"><ele>188.0</ele><time>2026-04-06T07:28:44.6Z</time></trkpt><trkpt lat="44.8637167" lon="9.5552117"><ele>188.0</ele><time>2026-04-06T07:28:45.599Z</time></trkpt><trkpt lat="44.863545" lon="9.5551983"><ele>188.0</ele><time>2026-04-06T07:28:46.599Z</time></trkpt><trkpt lat="44.8633733" lon="9.55514"><ele>188.0</ele><time>2026-04-06T07:28:47.598Z</time></trkpt><trkpt lat="44.8632067" lon="9.5550333"><ele>188.0</ele><time>2026-04-06T07:28:48.599Z</time></trkpt><trkpt lat="44.863055" lon="9.5548767"><ele>188.0</ele><time>2026-04-06T07:28:49.6Z</time></trkpt><trkpt lat="44.862925" lon="9.5546683"><ele>189.0</ele><time>2026-04-06T07:28:50.601Z</time></trkpt><trkpt lat="44.8628183" lon="9.5544283"><ele>190.0</ele><time>2026-04-06T07:28:51.6Z</time></trkpt><trkpt lat="44.86272" lon="9.5541967"><ele>191.0</ele><time>2026-04-06T07:28:52.599Z</time></trkpt><trkpt lat="44.8626133" lon="9.5539883"><ele>191.0</ele><time>2026-04-06T07:28:53.6Z</time></trkpt><trkpt lat="44.8624767" lon="9.5538067"><ele>191.0</ele><time>2026-04-06T07:28:54.601Z</time></trkpt><trkpt lat="44.862315" lon="9.55365"><ele>191.0</ele><time>2026-04-06T07:28:55.6Z</time></trkpt><trkpt lat="44.8621517" lon="9.55352"><ele>187.33333333333331</ele><time>2026-04-06T07:28:56.601Z</time></trkpt><trkpt lat="44.8619967" lon="9.5533983"><ele>183.66666666666666</ele><time>2026-04-06T07:28:57.6Z</time></trkpt><trkpt lat="44.8618517" lon="9.553255"><ele>180.0</ele><time>2026-04-06T07:28:58.601Z</time></trkpt><trkpt lat="44.8617167" lon="9.5530633"><ele>181.66666666666666</ele><time>2026-04-06T07:28:59.6Z</time></trkpt><trkpt lat="44.86159" lon="9.5528233"><ele>183.33333333333331</ele><time>2026-04-06T07:29:00.598Z</time></trkpt><trkpt lat="44.8614833" lon="9.5525833"><ele>185.0</ele><time>2026-04-06T07:29:01.599Z</time></trkpt><trkpt lat="44.86139" lon="9.5523667"><ele>185.0</ele><time>2026-04-06T07:29:02.599Z</time></trkpt><trkpt lat="44.8612883" lon="9.552165"><ele>185.0</ele><time>2026-04-06T07:29:03.6Z</time></trkpt><trkpt lat="44.86115" lon="9.551975"><ele>185.0</ele><time>2026-04-06T07:29:04.599Z</time></trkpt><trkpt lat="44.8609767" lon="9.5517917"><ele>185.66666666666666</ele><time>2026-04-06T07:29:05.599Z</time></trkpt><trkpt lat="44.8608017" lon="9.5516117"><ele>186.33333333333334</ele><time>2026-04-06T07:29:06.599Z</time></trkpt><trkpt lat="44.86063" lon="9.5514367"><ele>187.0</ele><time>2026-04-06T07:29:07.6Z</time></trkpt><trkpt lat="44.86046" lon="9.551255"><ele>189.33333333333334</ele><time>2026-04-06T07:29:08.6Z</time></trkpt><trkpt lat="44.8602967" lon="9.5510617"><ele>191.66666666666669</ele><time>2026-04-06T07:29:09.601Z</time></trkpt><trkpt lat="44.8601533" lon="9.5508667"><ele>194.0</ele><time>2026-04-06T07:29:10.598Z</time></trkpt><trkpt lat="44.86001" lon="9.5506733"><ele>194.0</ele><time>2026-04-06T07:29:11.599Z</time></trkpt><trkpt lat="44.8598583" lon="9.55049"><ele>194.0</ele><time>2026-04-06T07:29:12.598Z</time></trkpt><trkpt lat="44.8597" lon="9.5503183"><ele>194.0</ele><time>2026-04-06T07:29:13.598Z</time></trkpt><trkpt lat="44.859545" lon="9.5501583"><ele>196.33333333333334</ele><time>2026-04-06T07:29:14.6Z</time></trkpt><trkpt lat="44.859395" lon="9.5500083"><ele>198.66666666666669</ele><time>2026-04-06T07:29:15.6Z</time></trkpt><trkpt lat="44.8592483" lon="9.5498583"><ele>201.0</ele><time>2026-04-06T07:29:16.598Z</time></trkpt><trkpt lat="44.8590967" lon="9.5497067"><ele>201.0</ele><time>2026-04-06T07:29:17.6Z</time></trkpt><trkpt lat="44.8589417" lon="9.5495517"><ele>201.0</ele><time>2026-04-06T07:29:18.599Z</time></trkpt><trkpt lat="44.858785" lon="9.5494033"><ele>201.0</ele><time>2026-04-06T07:29:19.6Z</time></trkpt><trkpt lat="44.85863" lon="9.5492583"><ele>200.66666666666669</ele><time>2026-04-06T07:29:20.599Z</time></trkpt><trkpt lat="44.8584833" lon="9.5491067"><ele>200.33333333333334</ele><time>2026-04-06T07:29:21.598Z</time></trkpt><trkpt lat="44.8583417" lon="9.5489517"><ele>200.0</ele><time>2026-04-06T07:29:22.599Z</time></trkpt><trkpt lat="44.8582" lon="9.5487967"><ele>192.0</ele><time>2026-04-06T07:29:23.601Z</time></trkpt><trkpt lat="44.858055" lon="9.5486633"><ele>184.0</ele><time>2026-04-06T07:29:24.599Z</time></trkpt><trkpt lat="44.8579033" lon="9.5485483"><ele>176.0</ele><time>2026-04-06T07:29:25.601Z</time></trkpt><trkpt lat="44.857745" lon="9.5484483"><ele>179.0</ele><time>2026-04-06T07:29:26.598Z</time></trkpt><trkpt lat="44.8575817" lon="9.5483617"><ele>182.0</ele><time>2026-04-06T07:29:27.599Z</time></trkpt><trkpt lat="44.85741" lon="9.548285"><ele>185.0</ele><time>2026-04-06T07:29:28.598Z</time></trkpt><trkpt lat="44.8572417" lon="9.5482067"><ele>185.0</ele><time>2026-04-06T07:29:29.598Z</time></trkpt><trkpt lat="44.85708" lon="9.5481283"><ele>185.0</ele><time>2026-04-06T07:29:30.6Z</time></trkpt><trkpt lat="44.8569217" lon="9.548055"><ele>185.0</ele><time>2026-04-06T07:29:31.598Z</time></trkpt><trkpt lat="44.856765" lon="9.5479767"><ele>186.0</ele><time>2026-04-06T07:29:32.598Z</time></trkpt><trkpt lat="44.8566067" lon="9.5478983"><ele>187.0</ele><time>2026-04-06T07:29:33.599Z</time></trkpt><trkpt lat="44.8564517" lon="9.5478183"><ele>188.0</ele><time>2026-04-06T07:29:34.6Z</time></trkpt><trkpt lat="44.856305" lon="9.547735"><ele>188.33333333333331</ele><time>2026-04-06T07:29:35.6Z</time></trkpt><trkpt lat="44.8561667" lon="9.5476367"><ele>188.66666666666666</ele><time>2026-04-06T07:29:36.6Z</time></trkpt><trkpt lat="44.8560367" lon="9.5475083"><ele>189.0</ele><time>2026-04-06T07:29:37.599Z</time></trkpt><trkpt lat="44.8559067" lon="9.5473533"><ele>189.0</ele><time>2026-04-06T07:29:38.598Z</time></trkpt><trkpt lat="44.8557733" lon="9.5471883"><ele>189.0</ele><time>2026-04-06T07:29:39.6Z</time></trkpt><trkpt lat="44.8556383" lon="9.5470217"><ele>189.0</ele><time>2026-04-06T07:29:40.598Z</time></trkpt><trkpt lat="44.8555033" lon="9.546855"><ele>189.66666666666666</ele><time>2026-04-06T07:29:41.599Z</time></trkpt><trkpt lat="44.8553683" lon="9.5466867"><ele>190.33333333333331</ele><time>2026-04-06T07:29:42.598Z</time></trkpt><trkpt lat="44.8552333" lon="9.546515"><ele>191.0</ele><time>2026-04-06T07:29:43.599Z</time></trkpt><trkpt lat="44.8550967" lon="9.5463467"><ele>188.33333333333331</ele><time>2026-04-06T07:29:44.599Z</time></trkpt><trkpt lat="44.8549617" lon="9.5461833"><ele>185.66666666666666</ele><time>2026-04-06T07:29:45.6Z</time></trkpt><trkpt lat="44.8548283" lon="9.5460233"><ele>183.0</ele><time>2026-04-06T07:29:46.598Z</time></trkpt><trkpt lat="44.8547" lon="9.545855"><ele>183.0</ele><time>2026-04-06T07:29:47.6Z</time></trkpt><trkpt lat="44.85458" lon="9.5456783"><ele>183.0</ele><time>2026-04-06T07:29:48.599Z</time></trkpt><trkpt lat="44.854465" lon="9.5454867"><ele>183.0</ele><time>2026-04-06T07:29:49.6Z</time></trkpt><trkpt lat="44.8543533" lon="9.5452817"><ele>185.0</ele><time>2026-04-06T07:29:50.6Z</time></trkpt><trkpt lat="44.8542467" lon="9.5450783"><ele>187.0</ele><time>2026-04-06T07:29:51.599Z</time></trkpt><trkpt lat="44.85414" lon="9.5448883"><ele>189.0</ele><time>2026-04-06T07:29:52.598Z</time></trkpt><trkpt lat="44.8540417" lon="9.5446983"><ele>186.66666666666666</ele><time>2026-04-06T07:29:53.6Z</time></trkpt><trkpt lat="44.8539683" lon="9.5444933"><ele>184.33333333333331</ele><time>2026-04-06T07:29:54.598Z</time></trkpt><trkpt lat="44.853915" lon="9.544265"><ele>182.0</ele><time>2026-04-06T07:29:55.598Z</time></trkpt><trkpt lat="44.8538717" lon="9.5440217"><ele>182.0</ele><time>2026-04-06T07:29:56.598Z</time></trkpt><trkpt lat="44.853835" lon="9.5437683"><ele>182.0</ele><time>2026-04-06T07:29:57.598Z</time></trkpt><trkpt lat="44.8538017" lon="9.54353"><ele>182.0</ele><time>2026-04-06T07:29:58.599Z</time></trkpt><trkpt lat="44.8537667" lon="9.543305"><ele>181.33333333333331</ele><time>2026-04-06T07:29:59.598Z</time></trkpt><trkpt lat="44.85372" lon="9.543085"><ele>180.66666666666666</ele><time>2026-04-06T07:30:00.6Z</time></trkpt><trkpt lat="44.8536533" lon="9.542865"><ele>180.0</ele><time>2026-04-06T07:30:01.601Z</time></trkpt><trkpt lat="44.8535533" lon="9.542655"><ele>183.66666666666666</ele><time>2026-04-06T07:30:02.599Z</time></trkpt><trkpt lat="44.8534267" lon="9.5424583"><ele>187.33333333333331</ele><time>2026-04-06T07:30:03.599Z</time></trkpt><trkpt lat="44.85327" lon="9.54228"><ele>191.0</ele><time>2026-04-06T07:30:04.599Z</time></trkpt><trkpt lat="44.85309" lon="9.542125"><ele>191.66666666666666</ele><time>2026-04-06T07:30:05.599Z</time></trkpt><trkpt lat="44.8529067" lon="9.541985"><ele>192.33333333333331</ele><time>2026-04-06T07:30:06.598Z</time></trkpt><trkpt lat="44.8527267" lon="9.5418567"><ele>193.0</ele><time>2026-04-06T07:30:07.599Z</time></trkpt><trkpt lat="44.85255" lon="9.5417383"><ele>193.0</ele><time>2026-04-06T07:30:08.598Z</time></trkpt><trkpt lat="44.852375" lon="9.5416267"><ele>193.0</ele><time>2026-04-06T07:30:09.599Z</time></trkpt><trkpt lat="44.8522017" lon="9.5415167"><ele>193.0</ele><time>2026-04-06T07:30:10.6Z</time></trkpt><trkpt lat="44.8520283" lon="9.5414117"><ele>193.0</ele><time>2026-04-06T07:30:11.599Z</time></trkpt><trkpt lat="44.85186" lon="9.54131"><ele>193.0</ele><time>2026-04-06T07:30:12.599Z</time></trkpt><trkpt lat="44.8516983" lon="9.5412117"><ele>193.0</ele><time>2026-04-06T07:30:13.6Z</time></trkpt><trkpt lat="44.8515367" lon="9.5411133"><ele>192.0</ele><time>2026-04-06T07:30:14.599Z</time></trkpt><trkpt lat="44.8513767" lon="9.5410217"><ele>191.0</ele><time>2026-04-06T07:30:15.598Z</time></trkpt><trkpt lat="44.8512133" lon="9.5409467"><ele>190.0</ele><time>2026-04-06T07:30:16.598Z</time></trkpt><trkpt lat="44.8510383" lon="9.5408933"><ele>190.66666666666669</ele><time>2026-04-06T07:30:17.599Z</time></trkpt><trkpt lat="44.8508533" lon="9.5408583"><ele>191.33333333333334</ele><time>2026-04-06T07:30:18.599Z</time></trkpt><trkpt lat="44.85067" lon="9.5408333"><ele>192.0</ele><time>2026-04-06T07:30:19.599Z</time></trkpt><trkpt lat="44.8504917" lon="9.5408117"><ele>192.0</ele><time>2026-04-06T07:30:20.601Z</time></trkpt><trkpt lat="44.85032" lon="9.5407883"><ele>192.0</ele><time>2026-04-06T07:30:21.599Z</time></trkpt><trkpt lat="44.8501483" lon="9.5407667"><ele>192.0</ele><time>2026-04-06T07:30:22.6Z</time></trkpt><trkpt lat="44.84998" lon="9.5407467"><ele>191.33333333333334</ele><time>2026-04-06T07:30:23.599Z</time></trkpt><trkpt lat="44.8498117" lon="9.54073"><ele>190.66666666666669</ele><time>2026-04-06T07:30:24.599Z</time></trkpt><trkpt lat="44.8496467" lon="9.54071"><ele>190.0</ele><time>2026-04-06T07:30:25.6Z</time></trkpt><trkpt lat="44.8494817" lon="9.5406867"><ele>190.0</ele><time>2026-04-06T07:30:26.599Z</time></trkpt><trkpt lat="44.8493133" lon="9.5406683"><ele>190.0</ele><time>2026-04-06T07:30:27.6Z</time></trkpt><trkpt lat="44.8491433" lon="9.5406483"><ele>190.0</ele><time>2026-04-06T07:30:28.598Z</time></trkpt><trkpt lat="44.8489717" lon="9.5406283"><ele>191.0</ele><time>2026-04-06T07:30:29.599Z</time></trkpt><trkpt lat="44.8488017" lon="9.5406117"><ele>192.0</ele><time>2026-04-06T07:30:30.599Z</time></trkpt><trkpt lat="44.8486367" lon="9.5405967"><ele>193.0</ele><time>2026-04-06T07:30:31.599Z</time></trkpt><trkpt lat="44.8484783" lon="9.540565"><ele>192.0</ele><time>2026-04-06T07:30:32.601Z</time></trkpt><trkpt lat="44.848325" lon="9.5405033"><ele>191.0</ele><time>2026-04-06T07:30:33.6Z</time></trkpt><trkpt lat="44.848175" lon="9.5403883"><ele>190.0</ele><time>2026-04-06T07:30:34.6Z</time></trkpt><trkpt lat="44.848035" lon="9.5402233"><ele>188.33333333333334</ele><time>2026-04-06T07:30:35.6Z</time></trkpt><trkpt lat="44.8479" lon="9.5400283"><ele>186.66666666666666</ele><time>2026-04-06T07:30:36.599Z</time></trkpt><trkpt lat="44.847765" lon="9.5398267"><ele>185.0</ele><time>2026-04-06T07:30:37.601Z</time></trkpt><trkpt lat="44.8476333" lon="9.5396283"><ele>186.33333333333331</ele><time>2026-04-06T07:30:38.6Z</time></trkpt><trkpt lat="44.847505" lon="9.5394333"><ele>187.66666666666666</ele><time>2026-04-06T07:30:39.6Z</time></trkpt><trkpt lat="44.8473783" lon="9.5392383"><ele>189.0</ele><time>2026-04-06T07:30:40.601Z</time></trkpt><trkpt lat="44.8472517" lon="9.5390483"><ele>189.0</ele><time>2026-04-06T07:30:41.598Z</time></trkpt><trkpt lat="44.84712" lon="9.5388633"><ele>189.0</ele><time>2026-04-06T07:30:42.597Z</time></trkpt><trkpt lat="44.846975" lon="9.538695"><ele>189.0</ele><time>2026-04-06T07:30:43.597Z</time></trkpt><trkpt lat="44.84681" lon="9.5385467"><ele>188.66666666666666</ele><time>2026-04-06T07:30:44.6Z</time></trkpt><trkpt lat="44.846635" lon="9.5384167"><ele>188.33333333333331</ele><time>2026-04-06T07:30:45.599Z</time></trkpt><trkpt lat="44.84646" lon="9.5383067"><ele>188.0</ele><time>2026-04-06T07:30:46.598Z</time></trkpt><trkpt lat="44.846295" lon="9.5382133"><ele>188.0</ele><time>2026-04-06T07:30:47.599Z</time></trkpt><trkpt lat="44.8461433" lon="9.5381283"><ele>188.0</ele><time>2026-04-06T07:30:48.598Z</time></trkpt><trkpt lat="44.8460017" lon="9.5380217"><ele>188.0</ele><time>2026-04-06T07:30:49.598Z</time></trkpt><trkpt lat="44.8458767" lon="9.53787"><ele>189.33333333333331</ele><time>2026-04-06T07:30:50.599Z</time></trkpt><trkpt lat="44.84577" lon="9.5376567"><ele>190.66666666666666</ele><time>2026-04-06T07:30:51.598Z</time></trkpt><trkpt lat="44.8456683" lon="9.5374217"><ele>192.0</ele><time>2026-04-06T07:30:52.599Z</time></trkpt><trkpt lat="44.84557" lon="9.5372083"><ele>188.0</ele><time>2026-04-06T07:30:53.597Z</time></trkpt><trkpt lat="44.84546" lon="9.53703"><ele>184.0</ele><time>2026-04-06T07:30:54.599Z</time></trkpt><trkpt lat="44.84532" lon="9.536885"><ele>180.0</ele><time>2026-04-06T07:30:55.599Z</time></trkpt><trkpt lat="44.8451533" lon="9.5367767"><ele>185.66666666666669</ele><time>2026-04-06T07:30:56.599Z</time></trkpt><trkpt lat="44.8449867" lon="9.5366817"><ele>191.33333333333334</ele><time>2026-04-06T07:30:57.597Z</time></trkpt><trkpt lat="44.8448317" lon="9.5365617"><ele>197.0</ele><time>2026-04-06T07:30:58.6Z</time></trkpt><trkpt lat="44.8447017" lon="9.5364"><ele>197.0</ele><time>2026-04-06T07:30:59.6Z</time></trkpt><trkpt lat="44.8445983" lon="9.5362217"><ele>197.0</ele><time>2026-04-06T07:31:00.598Z</time></trkpt><trkpt lat="44.8444867" lon="9.5360633"><ele>197.0</ele><time>2026-04-06T07:31:01.599Z</time></trkpt><trkpt lat="44.8443567" lon="9.53595"><ele>197.33333333333334</ele><time>2026-04-06T07:31:02.599Z</time></trkpt><trkpt lat="44.8442017" lon="9.5359033"><ele>197.66666666666669</ele><time>2026-04-06T07:31:03.599Z</time></trkpt><trkpt lat="44.8440367" lon="9.5359217"><ele>198.0</ele><time>2026-04-06T07:31:04.598Z</time></trkpt><trkpt lat="44.8438733" lon="9.5359367"><ele>198.0</ele><time>2026-04-06T07:31:05.599Z</time></trkpt><trkpt lat="44.843715" lon="9.5359033"><ele>198.0</ele><time>2026-04-06T07:31:06.6Z</time></trkpt><trkpt lat="44.8435667" lon="9.535815"><ele>198.0</ele><time>2026-04-06T07:31:07.6Z</time></trkpt><trkpt lat="44.843445" lon="9.53568"><ele>200.66666666666669</ele><time>2026-04-06T07:31:08.6Z</time></trkpt><trkpt lat="44.8433717" lon="9.53552"><ele>203.33333333333334</ele><time>2026-04-06T07:31:09.601Z</time></trkpt><trkpt lat="44.8433367" lon="9.5353033"><ele>206.0</ele><time>2026-04-06T07:31:10.599Z</time></trkpt><trkpt lat="44.84331" lon="9.53504"><ele>206.0</ele><time>2026-04-06T07:31:11.598Z</time></trkpt><trkpt lat="44.84328" lon="9.534735"><ele>206.0</ele><time>2026-04-06T07:31:12.599Z</time></trkpt><trkpt lat="44.843245" lon="9.5343833"><ele>203.5</ele><time>2026-04-06T07:31:13.597Z</time></trkpt><trkpt lat="44.8432017" lon="9.5339917"><ele>201.0</ele><time>2026-04-06T07:31:14.599Z</time></trkpt><trkpt lat="44.843145" lon="9.533605"><ele>199.0</ele><time>2026-04-06T07:31:15.598Z</time></trkpt><trkpt lat="44.8430817" lon="9.53326"><ele>197.0</ele><time>2026-04-06T07:31:16.599Z</time></trkpt><trkpt lat="44.84302" lon="9.5329517"><ele>194.0</ele><time>2026-04-06T07:31:17.598Z</time></trkpt><trkpt lat="44.8429633" lon="9.5326667"><ele>191.0</ele><time>2026-04-06T07:31:18.598Z</time></trkpt><trkpt lat="44.8429117" lon="9.5324067"><ele>188.0</ele><time>2026-04-06T07:31:19.598Z</time></trkpt><trkpt lat="44.8428617" lon="9.532175"><ele>186.33333333333331</ele><time>2026-04-06T07:31:20.598Z</time></trkpt><trkpt lat="44.8428" lon="9.5319783"><ele>184.66666666666666</ele><time>2026-04-06T07:31:21.598Z</time></trkpt><trkpt lat="44.8427" lon="9.531815"><ele>183.0</ele><time>2026-04-06T07:31:22.599Z</time></trkpt><trkpt lat="44.8425483" lon="9.5316817"><ele>191.33333333333331</ele><time>2026-04-06T07:31:23.598Z</time></trkpt><trkpt lat="44.8423717" lon="9.5315733"><ele>199.66666666666666</ele><time>2026-04-06T07:31:24.598Z</time></trkpt><trkpt lat="44.8422017" lon="9.5314667"><ele>208.0</ele><time>2026-04-06T07:31:25.597Z</time></trkpt><trkpt lat="44.8420533" lon="9.531355"><ele>208.0</ele><time>2026-04-06T07:31:26.6Z</time></trkpt><trkpt lat="44.8419267" lon="9.5312283"><ele>208.0</ele><time>2026-04-06T07:31:27.599Z</time></trkpt><trkpt lat="44.8418167" lon="9.5310783"><ele>208.0</ele><time>2026-04-06T07:31:28.599Z</time></trkpt><trkpt lat="44.8417167" lon="9.5309067"><ele>209.0</ele><time>2026-04-06T07:31:29.599Z</time></trkpt><trkpt lat="44.8416333" lon="9.5307183"><ele>210.0</ele><time>2026-04-06T07:31:30.598Z</time></trkpt><trkpt lat="44.8415583" lon="9.5305233"><ele>211.0</ele><time>2026-04-06T07:31:31.599Z</time></trkpt><trkpt lat="44.841485" lon="9.530325"><ele>208.0</ele><time>2026-04-06T07:31:32.6Z</time></trkpt><trkpt lat="44.8414067" lon="9.53012"><ele>205.0</ele><time>2026-04-06T07:31:33.599Z</time></trkpt><trkpt lat="44.84132" lon="9.529915"><ele>202.0</ele><time>2026-04-06T07:31:34.599Z</time></trkpt><trkpt lat="44.8412233" lon="9.5297117"><ele>204.0</ele><time>2026-04-06T07:31:35.599Z</time></trkpt><trkpt lat="44.841115" lon="9.5295167"><ele>206.0</ele><time>2026-04-06T07:31:36.598Z</time></trkpt><trkpt lat="44.8410017" lon="9.5293283"><ele>208.0</ele><time>2026-04-06T07:31:37.599Z</time></trkpt><trkpt lat="44.8408867" lon="9.5291417"><ele>208.0</ele><time>2026-04-06T07:31:38.601Z</time></trkpt><trkpt lat="44.8407667" lon="9.52895"><ele>208.0</ele><time>2026-04-06T07:31:39.599Z</time></trkpt><trkpt lat="44.840645" lon="9.5287483"><ele>208.0</ele><time>2026-04-06T07:31:40.598Z</time></trkpt><trkpt lat="44.8405267" lon="9.52854"><ele>206.33333333333331</ele><time>2026-04-06T07:31:41.6Z</time></trkpt><trkpt lat="44.840415" lon="9.5283183"><ele>204.66666666666669</ele><time>2026-04-06T07:31:42.598Z</time></trkpt><trkpt lat="44.8403083" lon="9.52808"><ele>203.0</ele><time>2026-04-06T07:31:43.599Z</time></trkpt><trkpt lat="44.84021" lon="9.52783"><ele>207.0</ele><time>2026-04-06T07:31:44.599Z</time></trkpt><trkpt lat="44.84011" lon="9.5275767"><ele>211.0</ele><time>2026-04-06T07:31:45.598Z</time></trkpt><trkpt lat="44.8400133" lon="9.5273217"><ele>215.0</ele><time>2026-04-06T07:31:46.6Z</time></trkpt><trkpt lat="44.8399167" lon="9.527065"><ele>212.0</ele><time>2026-04-06T07:31:47.598Z</time></trkpt><trkpt lat="44.8398183" lon="9.526805"><ele>209.0</ele><time>2026-04-06T07:31:48.598Z</time></trkpt><trkpt lat="44.8397217" lon="9.5265417"><ele>206.0</ele><time>2026-04-06T07:31:49.598Z</time></trkpt><trkpt lat="44.8396233" lon="9.5262783"><ele>203.33333333333334</ele><time>2026-04-06T07:31:50.6Z</time></trkpt><trkpt lat="44.839525" lon="9.52602"><ele>200.66666666666669</ele><time>2026-04-06T07:31:51.599Z</time></trkpt><trkpt lat="44.8394217" lon="9.5257733"><ele>198.0</ele><time>2026-04-06T07:31:52.599Z</time></trkpt><trkpt lat="44.83932" lon="9.5255483"><ele>203.33333333333331</ele><time>2026-04-06T07:31:53.597Z</time></trkpt><trkpt lat="44.8392183" lon="9.5253317"><ele>208.66666666666666</ele><time>2026-04-06T07:31:54.599Z</time></trkpt><trkpt lat="44.8391233" lon="9.52511"><ele>214.0</ele><time>2026-04-06T07:31:55.597Z</time></trkpt><trkpt lat="44.8390483" lon="9.5248783"><ele>214.0</ele><time>2026-04-06T07:31:56.599Z</time></trkpt><trkpt lat="44.8389967" lon="9.524635"><ele>214.0</ele><time>2026-04-06T07:31:57.598Z</time></trkpt><trkpt lat="44.8389533" lon="9.52439"><ele>214.0</ele><time>2026-04-06T07:31:58.6Z</time></trkpt><trkpt lat="44.8389" lon="9.52414"><ele>212.0</ele><time>2026-04-06T07:31:59.599Z</time></trkpt><trkpt lat="44.8388267" lon="9.5238917"><ele>210.0</ele><time>2026-04-06T07:32:00.599Z</time></trkpt><trkpt lat="44.83873" lon="9.523655"><ele>208.0</ele><time>2026-04-06T07:32:01.599Z</time></trkpt><trkpt lat="44.8386167" lon="9.5234317"><ele>206.33333333333331</ele><time>2026-04-06T07:32:02.6Z</time></trkpt><trkpt lat="44.8385017" lon="9.523225"><ele>204.66666666666669</ele><time>2026-04-06T07:32:03.6Z</time></trkpt><trkpt lat="44.8383633" lon="9.52303"><ele>203.0</ele><time>2026-04-06T07:32:04.605Z</time></trkpt><trkpt lat="44.8382067" lon="9.52285"><ele>203.0</ele><time>2026-04-06T07:32:05.599Z</time></trkpt><trkpt lat="44.83804" lon="9.5226783"><ele>203.0</ele><time>2026-04-06T07:32:06.6Z</time></trkpt><trkpt lat="44.837875" lon="9.5225133"><ele>203.0</ele><time>2026-04-06T07:32:07.599Z</time></trkpt><trkpt lat="44.8377067" lon="9.5223433"><ele>203.0</ele><time>2026-04-06T07:32:08.598Z</time></trkpt><trkpt lat="44.8375317" lon="9.5221717"><ele>203.0</ele><time>2026-04-06T07:32:09.599Z</time></trkpt><trkpt lat="44.8373633" lon="9.5220017"><ele>203.0</ele><time>2026-04-06T07:32:10.599Z</time></trkpt><trkpt lat="44.8371983" lon="9.52183"><ele>203.0</ele><time>2026-04-06T07:32:11.599Z</time></trkpt><trkpt lat="44.8370383" lon="9.521655"><ele>203.0</ele><time>2026-04-06T07:32:12.598Z</time></trkpt><trkpt lat="44.83689" lon="9.52146"><ele>203.0</ele><time>2026-04-06T07:32:13.599Z</time></trkpt><trkpt lat="44.836745" lon="9.521255"><ele>204.66666666666669</ele><time>2026-04-06T07:32:14.599Z</time></trkpt><trkpt lat="44.836605" lon="9.5210533"><ele>206.33333333333331</ele><time>2026-04-06T07:32:15.598Z</time></trkpt><trkpt lat="44.8364733" lon="9.52086"><ele>208.0</ele><time>2026-04-06T07:32:16.599Z</time></trkpt><trkpt lat="44.8363467" lon="9.5206817"><ele>208.0</ele><time>2026-04-06T07:32:17.599Z</time></trkpt><trkpt lat="44.83622" lon="9.5205167"><ele>208.0</ele><time>2026-04-06T07:32:18.599Z</time></trkpt><trkpt lat="44.8360767" lon="9.5203683"><ele>208.0</ele><time>2026-04-06T07:32:19.599Z</time></trkpt><trkpt lat="44.83591" lon="9.520245"><ele>206.66666666666666</ele><time>2026-04-06T07:32:20.598Z</time></trkpt><trkpt lat="44.8357383" lon="9.5201333"><ele>205.33333333333331</ele><time>2026-04-06T07:32:21.599Z</time></trkpt><trkpt lat="44.8355717" lon="9.5200433"><ele>204.0</ele><time>2026-04-06T07:32:22.598Z</time></trkpt><trkpt lat="44.8354133" lon="9.5199683"><ele>204.0</ele><time>2026-04-06T07:32:23.599Z</time></trkpt><trkpt lat="44.8352683" lon="9.5199167"><ele>204.0</ele><time>2026-04-06T07:32:24.597Z</time></trkpt><trkpt lat="44.8351333" lon="9.5198983"><ele>204.0</ele><time>2026-04-06T07:32:25.599Z</time></trkpt><trkpt lat="44.8350033" lon="9.5199283"><ele>204.0</ele><time>2026-04-06T07:32:26.598Z</time></trkpt><trkpt lat="44.83488" lon="9.5199967"><ele>206.0</ele><time>2026-04-06T07:32:27.598Z</time></trkpt><trkpt lat="44.83477" lon="9.5200983"><ele>208.0</ele><time>2026-04-06T07:32:28.599Z</time></trkpt><trkpt lat="44.834675" lon="9.5201983"><ele>210.0</ele><time>2026-04-06T07:32:29.599Z</time></trkpt><trkpt lat="44.834575" lon="9.520275"><ele>212.0</ele><time>2026-04-06T07:32:30.599Z</time></trkpt><trkpt lat="44.834465" lon="9.5203167"><ele>212.0</ele><time>2026-04-06T07:32:31.602Z</time></trkpt><trkpt lat="44.83435" lon="9.5203017"><ele>212.0</ele><time>2026-04-06T07:32:32.602Z</time></trkpt><trkpt lat="44.83423" lon="9.520225"><ele>212.0</ele><time>2026-04-06T07:32:33.6Z</time></trkpt><trkpt lat="44.83411" lon="9.5201033"><ele>212.0</ele><time>2026-04-06T07:32:34.602Z</time></trkpt><trkpt lat="44.8339883" lon="9.51998"><ele>210.75</ele><time>2026-04-06T07:32:35.599Z</time></trkpt><trkpt lat="44.8338683" lon="9.51988"><ele>209.5</ele><time>2026-04-06T07:32:36.599Z</time></trkpt><trkpt lat="44.8337433" lon="9.5197917"><ele>208.25</ele><time>2026-04-06T07:32:37.599Z</time></trkpt><trkpt lat="44.833615" lon="9.5197133"><ele>207.0</ele><time>2026-04-06T07:32:38.599Z</time></trkpt><trkpt lat="44.83349" lon="9.5196467"><ele>208.25</ele><time>2026-04-06T07:32:39.599Z</time></trkpt><trkpt lat="44.8333633" lon="9.519605"><ele>209.5</ele><time>2026-04-06T07:32:40.6Z</time></trkpt><trkpt lat="44.8332317" lon="9.5195933"><ele>210.75</ele><time>2026-04-06T07:32:41.599Z</time></trkpt><trkpt lat="44.833095" lon="9.5196133"><ele>212.0</ele><time>2026-04-06T07:32:42.599Z</time></trkpt><trkpt lat="44.8329533" lon="9.5196583"><ele>212.0</ele><time>2026-04-06T07:32:43.598Z</time></trkpt><trkpt lat="44.8328083" lon="9.5197167"><ele>212.0</ele><time>2026-04-06T07:32:44.598Z</time></trkpt><trkpt lat="44.83266" lon="9.5197867"><ele>212.0</ele><time>2026-04-06T07:32:45.598Z</time></trkpt><trkpt lat="44.8325117" lon="9.519855"><ele>211.25</ele><time>2026-04-06T07:32:46.599Z</time></trkpt><trkpt lat="44.8323633" lon="9.5199217"><ele>210.5</ele><time>2026-04-06T07:32:47.599Z</time></trkpt><trkpt lat="44.8322217" lon="9.5199817"><ele>209.75</ele><time>2026-04-06T07:32:48.599Z</time></trkpt><trkpt lat="44.832085" lon="9.5200367"><ele>209.0</ele><time>2026-04-06T07:32:49.598Z</time></trkpt><trkpt lat="44.8319483" lon="9.5200783"><ele>209.0</ele><time>2026-04-06T07:32:50.602Z</time></trkpt><trkpt lat="44.8318133" lon="9.5201017"><ele>209.0</ele><time>2026-04-06T07:32:51.6Z</time></trkpt><trkpt lat="44.8316817" lon="9.5200883"><ele>209.0</ele><time>2026-04-06T07:32:52.599Z</time></trkpt><trkpt lat="44.8315517" lon="9.5200267"><ele>209.0</ele><time>2026-04-06T07:32:53.599Z</time></trkpt><trkpt lat="44.8314267" lon="9.5199183"><ele>207.66666666666669</ele><time>2026-04-06T07:32:54.599Z</time></trkpt><trkpt lat="44.83131" lon="9.5197767"><ele>206.33333333333331</ele><time>2026-04-06T07:32:55.598Z</time></trkpt><trkpt lat="44.8312017" lon="9.5196217"><ele>205.0</ele><time>2026-04-06T07:32:56.598Z</time></trkpt><trkpt lat="44.8311017" lon="9.51947"><ele>204.25</ele><time>2026-04-06T07:32:57.599Z</time></trkpt><trkpt lat="44.8310083" lon="9.51933"><ele>203.5</ele><time>2026-04-06T07:32:58.601Z</time></trkpt><trkpt lat="44.8309233" lon="9.5191983"><ele>202.75</ele><time>2026-04-06T07:32:59.599Z</time></trkpt><trkpt lat="44.8308417" lon="9.5190733"><ele>202.0</ele><time>2026-04-06T07:33:00.6Z</time></trkpt><trkpt lat="44.8307617" lon="9.5189533"><ele>202.0</ele><time>2026-04-06T07:33:01.6Z</time></trkpt><trkpt lat="44.830685" lon="9.5188317"><ele>202.0</ele><time>2026-04-06T07:33:02.6Z</time></trkpt><trkpt lat="44.8306133" lon="9.518705"><ele>202.0</ele><time>2026-04-06T07:33:03.602Z</time></trkpt><trkpt lat="44.8305583" lon="9.5185667"><ele>202.0</ele><time>2026-04-06T07:33:04.599Z</time></trkpt><trkpt lat="44.8305267" lon="9.51842"><ele>201.5</ele><time>2026-04-06T07:33:05.601Z</time></trkpt><trkpt lat="44.8305283" lon="9.518265"><ele>201.0</ele><time>2026-04-06T07:33:06.598Z</time></trkpt><trkpt lat="44.8305583" lon="9.5181067"><ele>200.5</ele><time>2026-04-06T07:33:07.599Z</time></trkpt><trkpt lat="44.83061" lon="9.5179467"><ele>200.0</ele><time>2026-04-06T07:33:08.598Z</time></trkpt><trkpt lat="44.8306667" lon="9.5177967"><ele>201.2</ele><time>2026-04-06T07:33:09.598Z</time></trkpt><trkpt lat="44.8307217" lon="9.5176533"><ele>202.4</ele><time>2026-04-06T07:33:10.598Z</time></trkpt><trkpt lat="44.8307767" lon="9.517515"><ele>203.60000000000002</ele><time>2026-04-06T07:33:11.599Z</time></trkpt><trkpt lat="44.8308267" lon="9.5173783"><ele>204.8</ele><time>2026-04-06T07:33:12.598Z</time></trkpt><trkpt lat="44.83086" lon="9.5172367"><ele>206.0</ele><time>2026-04-06T07:33:13.598Z</time></trkpt><trkpt lat="44.830875" lon="9.5170933"><ele>205.8</ele><time>2026-04-06T07:33:14.599Z</time></trkpt><trkpt lat="44.8308733" lon="9.5169467"><ele>205.60000000000002</ele><time>2026-04-06T07:33:15.598Z</time></trkpt><trkpt lat="44.8308583" lon="9.5168033"><ele>205.4</ele><time>2026-04-06T07:33:16.597Z</time></trkpt><trkpt lat="44.8308417" lon="9.5166667"><ele>205.2</ele><time>2026-04-06T07:33:17.598Z</time></trkpt><trkpt lat="44.83082" lon="9.51654"><ele>205.0</ele><time>2026-04-06T07:33:18.598Z</time></trkpt><trkpt lat="44.8307917" lon="9.51643"><ele>204.99999999999997</ele><time>2026-04-06T07:33:19.599Z</time></trkpt><trkpt lat="44.8307517" lon="9.5163417"><ele>205.0</ele><time>2026-04-06T07:33:20.599Z</time></trkpt><trkpt lat="44.8307033" lon="9.5162633"><ele>205.0</ele><time>2026-04-06T07:33:21.599Z</time></trkpt><trkpt lat="44.8306483" lon="9.516185"><ele>205.0</ele><time>2026-04-06T07:33:22.598Z</time></trkpt><trkpt lat="44.830595" lon="9.5160967"><ele>204.99999999999997</ele><time>2026-04-06T07:33:23.599Z</time></trkpt><trkpt lat="44.83054" lon="9.5160033"><ele>205.0</ele><time>2026-04-06T07:33:24.599Z</time></trkpt><trkpt lat="44.83047" lon="9.515905"><ele>205.5</ele><time>2026-04-06T07:33:25.598Z</time></trkpt><trkpt lat="44.8303917" lon="9.515795"><ele>206.0</ele><time>2026-04-06T07:33:26.599Z</time></trkpt><trkpt lat="44.83031" lon="9.5156733"><ele>206.5</ele><time>2026-04-06T07:33:27.599Z</time></trkpt><trkpt lat="44.830215" lon="9.5155467"><ele>207.0</ele><time>2026-04-06T07:33:28.601Z</time></trkpt><trkpt lat="44.8301083" lon="9.5154183"><ele>202.66666666666669</ele><time>2026-04-06T07:33:29.599Z</time></trkpt><trkpt lat="44.8299883" lon="9.5152917"><ele>198.33333333333334</ele><time>2026-04-06T07:33:30.599Z</time></trkpt><trkpt lat="44.8298617" lon="9.5151633"><ele>194.0</ele><time>2026-04-06T07:33:31.598Z</time></trkpt><trkpt lat="44.8297267" lon="9.5150383"><ele>194.0</ele><time>2026-04-06T07:33:32.6Z</time></trkpt><trkpt lat="44.8295867" lon="9.5149083"><ele>194.0</ele><time>2026-04-06T07:33:33.598Z</time></trkpt><trkpt lat="44.8294417" lon="9.5147783"><ele>194.0</ele><time>2026-04-06T07:33:34.599Z</time></trkpt><trkpt lat="44.829295" lon="9.51465"><ele>194.33333333333334</ele><time>2026-04-06T07:33:35.597Z</time></trkpt><trkpt lat="44.8291567" lon="9.5145233"><ele>194.66666666666669</ele><time>2026-04-06T07:33:36.599Z</time></trkpt><trkpt lat="44.8290233" lon="9.5143967"><ele>195.0</ele><time>2026-04-06T07:33:37.601Z</time></trkpt><trkpt lat="44.8288883" lon="9.5142617"><ele>195.0</ele><time>2026-04-06T07:33:38.599Z</time></trkpt><trkpt lat="44.828755" lon="9.51411"><ele>195.0</ele><time>2026-04-06T07:33:39.598Z</time></trkpt><trkpt lat="44.8286217" lon="9.5139417"><ele>195.0</ele><time>2026-04-06T07:33:40.598Z</time></trkpt><trkpt lat="44.8284967" lon="9.513755"><ele>197.33333333333331</ele><time>2026-04-06T07:33:41.599Z</time></trkpt><trkpt lat="44.8283817" lon="9.5135467"><ele>199.66666666666666</ele><time>2026-04-06T07:33:42.597Z</time></trkpt><trkpt lat="44.8282767" lon="9.5133233"><ele>202.0</ele><time>2026-04-06T07:33:43.597Z</time></trkpt><trkpt lat="44.82818" lon="9.5130883"><ele>198.33333333333331</ele><time>2026-04-06T07:33:44.598Z</time></trkpt><trkpt lat="44.82809" lon="9.512845"><ele>194.66666666666666</ele><time>2026-04-06T07:33:45.6Z</time></trkpt><trkpt lat="44.828" lon="9.5126"><ele>191.0</ele><time>2026-04-06T07:33:46.598Z</time></trkpt><trkpt lat="44.8279117" lon="9.5123567"><ele>191.0</ele><time>2026-04-06T07:33:47.597Z</time></trkpt><trkpt lat="44.82782" lon="9.5121167"><ele>191.0</ele><time>2026-04-06T07:33:48.598Z</time></trkpt><trkpt lat="44.8277183" lon="9.5118833"><ele>191.0</ele><time>2026-04-06T07:33:49.599Z</time></trkpt><trkpt lat="44.8276017" lon="9.5116583"><ele>190.33333333333331</ele><time>2026-04-06T07:33:50.6Z</time></trkpt><trkpt lat="44.8274767" lon="9.51144"><ele>189.66666666666666</ele><time>2026-04-06T07:33:51.599Z</time></trkpt><trkpt lat="44.827345" lon="9.5112267"><ele>189.0</ele><time>2026-04-06T07:33:52.598Z</time></trkpt><trkpt lat="44.82721" lon="9.511015"><ele>189.0</ele><time>2026-04-06T07:33:53.6Z</time></trkpt><trkpt lat="44.827075" lon="9.5108033"><ele>189.0</ele><time>2026-04-06T07:33:54.599Z</time></trkpt><trkpt lat="44.8269433" lon="9.5105917"><ele>189.0</ele><time>2026-04-06T07:33:55.598Z</time></trkpt><trkpt lat="44.8268133" lon="9.5103783"><ele>188.66666666666666</ele><time>2026-04-06T07:33:56.6Z</time></trkpt><trkpt lat="44.82669" lon="9.5101633"><ele>188.33333333333331</ele><time>2026-04-06T07:33:57.6Z</time></trkpt><trkpt lat="44.8265683" lon="9.5099417"><ele>188.0</ele><time>2026-04-06T07:33:58.598Z</time></trkpt><trkpt lat="44.8264533" lon="9.5097183"><ele>187.66666666666666</ele><time>2026-04-06T07:33:59.599Z</time></trkpt><trkpt lat="44.8263417" lon="9.5094917"><ele>187.33333333333334</ele><time>2026-04-06T07:34:00.597Z</time></trkpt><trkpt lat="44.8262283" lon="9.509265"><ele>187.0</ele><time>2026-04-06T07:34:01.599Z</time></trkpt><trkpt lat="44.826115" lon="9.5090417"><ele>187.0</ele><time>2026-04-06T07:34:02.601Z</time></trkpt><trkpt lat="44.826005" lon="9.5088167"><ele>187.0</ele><time>2026-04-06T07:34:03.598Z</time></trkpt><trkpt lat="44.8258933" lon="9.5085917"><ele>187.0</ele><time>2026-04-06T07:34:04.6Z</time></trkpt><trkpt lat="44.8257817" lon="9.5083633"><ele>187.33333333333334</ele><time>2026-04-06T07:34:05.599Z</time></trkpt><trkpt lat="44.82567" lon="9.5081333"><ele>187.66666666666666</ele><time>2026-04-06T07:34:06.599Z</time></trkpt><trkpt lat="44.8255583" lon="9.5079"><ele>188.0</ele><time>2026-04-06T07:34:07.601Z</time></trkpt><trkpt lat="44.8254467" lon="9.5076667"><ele>188.0</ele><time>2026-04-06T07:34:08.6Z</time></trkpt><trkpt lat="44.8253333" lon="9.5074333"><ele>188.0</ele><time>2026-04-06T07:34:09.599Z</time></trkpt><trkpt lat="44.8252217" lon="9.5071983"><ele>188.0</ele><time>2026-04-06T07:34:10.599Z</time></trkpt><trkpt lat="44.8251117" lon="9.5069583"><ele>188.0</ele><time>2026-04-06T07:34:11.598Z</time></trkpt><trkpt lat="44.8250017" lon="9.506715"><ele>188.0</ele><time>2026-04-06T07:34:12.598Z</time></trkpt><trkpt lat="44.82489" lon="9.5064717"><ele>188.0</ele><time>2026-04-06T07:34:13.598Z</time></trkpt><trkpt lat="44.8247767" lon="9.5062283"><ele>188.0</ele><time>2026-04-06T07:34:14.598Z</time></trkpt><trkpt lat="44.824665" lon="9.5059867"><ele>188.0</ele><time>2026-04-06T07:34:15.6Z</time></trkpt><trkpt lat="44.8245533" lon="9.5057433"><ele>188.0</ele><time>2026-04-06T07:34:16.598Z</time></trkpt><trkpt lat="44.82444" lon="9.5055017"><ele>187.66666666666666</ele><time>2026-04-06T07:34:17.598Z</time></trkpt><trkpt lat="44.8243283" lon="9.5052633"><ele>187.33333333333334</ele><time>2026-04-06T07:34:18.597Z</time></trkpt><trkpt lat="44.824215" lon="9.5050283"><ele>187.0</ele><time>2026-04-06T07:34:19.599Z</time></trkpt><trkpt lat="44.8241017" lon="9.5048"><ele>187.33333333333334</ele><time>2026-04-06T07:34:20.598Z</time></trkpt><trkpt lat="44.8239867" lon="9.5045767"><ele>187.66666666666666</ele><time>2026-04-06T07:34:21.599Z</time></trkpt><trkpt lat="44.8238667" lon="9.5043583"><ele>188.0</ele><time>2026-04-06T07:34:22.6Z</time></trkpt><trkpt lat="44.8237433" lon="9.50415"><ele>188.0</ele><time>2026-04-06T07:34:23.6Z</time></trkpt><trkpt lat="44.8236133" lon="9.50395"><ele>188.0</ele><time>2026-04-06T07:34:24.601Z</time></trkpt><trkpt lat="44.8234833" lon="9.5037583"><ele>188.0</ele><time>2026-04-06T07:34:25.597Z</time></trkpt><trkpt lat="44.823355" lon="9.503585"><ele>188.33333333333331</ele><time>2026-04-06T07:34:26.599Z</time></trkpt><trkpt lat="44.8232283" lon="9.5034233"><ele>188.66666666666666</ele><time>2026-04-06T07:34:27.599Z</time></trkpt><trkpt lat="44.8231017" lon="9.5032683"><ele>189.0</ele><time>2026-04-06T07:34:28.598Z</time></trkpt><trkpt lat="44.8229683" lon="9.5031133"><ele>189.0</ele><time>2026-04-06T07:34:29.599Z</time></trkpt><trkpt lat="44.822835" lon="9.5029583"><ele>189.0</ele><time>2026-04-06T07:34:30.599Z</time></trkpt><trkpt lat="44.8227017" lon="9.502805"><ele>189.0</ele><time>2026-04-06T07:34:31.598Z</time></trkpt><trkpt lat="44.8225717" lon="9.5026533"><ele>188.33333333333334</ele><time>2026-04-06T07:34:32.599Z</time></trkpt><trkpt lat="44.8224367" lon="9.5024983"><ele>187.66666666666669</ele><time>2026-04-06T07:34:33.598Z</time></trkpt><trkpt lat="44.8223" lon="9.502345"><ele>187.0</ele><time>2026-04-06T07:34:34.599Z</time></trkpt><trkpt lat="44.8221617" lon="9.5021933"><ele>186.66666666666669</ele><time>2026-04-06T07:34:35.598Z</time></trkpt><trkpt lat="44.82202" lon="9.50204"><ele>186.33333333333334</ele><time>2026-04-06T07:34:36.598Z</time></trkpt><trkpt lat="44.8218817" lon="9.501875"><ele>186.0</ele><time>2026-04-06T07:34:37.597Z</time></trkpt><trkpt lat="44.821745" lon="9.5016983"><ele>187.0</ele><time>2026-04-06T07:34:38.598Z</time></trkpt><trkpt lat="44.8216133" lon="9.5015083"><ele>188.0</ele><time>2026-04-06T07:34:39.6Z</time></trkpt><trkpt lat="44.8214833" lon="9.501305"><ele>189.0</ele><time>2026-04-06T07:34:40.598Z</time></trkpt><trkpt lat="44.8213633" lon="9.5010917"><ele>189.0</ele><time>2026-04-06T07:34:41.598Z</time></trkpt><trkpt lat="44.8212533" lon="9.5008717"><ele>189.0</ele><time>2026-04-06T07:34:42.597Z</time></trkpt><trkpt lat="44.8211517" lon="9.5006433"><ele>189.0</ele><time>2026-04-06T07:34:43.598Z</time></trkpt><trkpt lat="44.82106" lon="9.5004117"><ele>190.33333333333331</ele><time>2026-04-06T07:34:44.599Z</time></trkpt><trkpt lat="44.8209783" lon="9.5001717"><ele>191.66666666666666</ele><time>2026-04-06T07:34:45.598Z</time></trkpt><trkpt lat="44.8209" lon="9.4999217"><ele>193.0</ele><time>2026-04-06T07:34:46.598Z</time></trkpt><trkpt lat="44.82083" lon="9.49967"><ele>193.0</ele><time>2026-04-06T07:34:47.599Z</time></trkpt><trkpt lat="44.820765" lon="9.49942"><ele>193.0</ele><time>2026-04-06T07:34:48.599Z</time></trkpt><trkpt lat="44.8207017" lon="9.4991733"><ele>193.0</ele><time>2026-04-06T07:34:49.599Z</time></trkpt><trkpt lat="44.82064" lon="9.49893"><ele>192.66666666666666</ele><time>2026-04-06T07:34:50.6Z</time></trkpt><trkpt lat="44.82058" lon="9.4986867"><ele>192.33333333333331</ele><time>2026-04-06T07:34:51.6Z</time></trkpt><trkpt lat="44.8205183" lon="9.4984433"><ele>192.0</ele><time>2026-04-06T07:34:52.601Z</time></trkpt><trkpt lat="44.8204517" lon="9.4981967"><ele>192.0</ele><time>2026-04-06T07:34:53.6Z</time></trkpt><trkpt lat="44.82038" lon="9.4979517"><ele>192.0</ele><time>2026-04-06T07:34:54.598Z</time></trkpt><trkpt lat="44.820305" lon="9.49771"><ele>192.0</ele><time>2026-04-06T07:34:55.598Z</time></trkpt><trkpt lat="44.820225" lon="9.4974733"><ele>194.0</ele><time>2026-04-06T07:34:56.598Z</time></trkpt><trkpt lat="44.820145" lon="9.4972383"><ele>196.0</ele><time>2026-04-06T07:34:57.599Z</time></trkpt><trkpt lat="44.8200667" lon="9.4970033"><ele>198.0</ele><time>2026-04-06T07:34:58.597Z</time></trkpt><trkpt lat="44.8199883" lon="9.4967617"><ele>198.0</ele><time>2026-04-06T07:34:59.602Z</time></trkpt><trkpt lat="44.81991" lon="9.4965183"><ele>198.0</ele><time>2026-04-06T07:35:00.598Z</time></trkpt><trkpt lat="44.8198317" lon="9.4962733"><ele>198.0</ele><time>2026-04-06T07:35:01.597Z</time></trkpt><trkpt lat="44.819755" lon="9.49603"><ele>196.33333333333331</ele><time>2026-04-06T07:35:02.598Z</time></trkpt><trkpt lat="44.81968" lon="9.4957833"><ele>194.66666666666666</ele><time>2026-04-06T07:35:03.599Z</time></trkpt><trkpt lat="44.8196083" lon="9.495535"><ele>193.0</ele><time>2026-04-06T07:35:04.598Z</time></trkpt><trkpt lat="44.819535" lon="9.4952867"><ele>192.0</ele><time>2026-04-06T07:35:05.598Z</time></trkpt><trkpt lat="44.8194633" lon="9.4950367"><ele>191.0</ele><time>2026-04-06T07:35:06.601Z</time></trkpt><trkpt lat="44.8193917" lon="9.494785"><ele>190.0</ele><time>2026-04-06T07:35:07.6Z</time></trkpt><trkpt lat="44.81932" lon="9.4945317"><ele>192.66666666666669</ele><time>2026-04-06T07:35:08.601Z</time></trkpt><trkpt lat="44.8192517" lon="9.494275"><ele>195.33333333333334</ele><time>2026-04-06T07:35:09.599Z</time></trkpt><trkpt lat="44.8191883" lon="9.4940167"><ele>198.0</ele><time>2026-04-06T07:35:10.598Z</time></trkpt><trkpt lat="44.8191317" lon="9.49376"><ele>196.66666666666669</ele><time>2026-04-06T07:35:11.599Z</time></trkpt><trkpt lat="44.819085" lon="9.4934983"><ele>195.33333333333334</ele><time>2026-04-06T07:35:12.599Z</time></trkpt><trkpt lat="44.8190467" lon="9.4932333"><ele>194.0</ele><time>2026-04-06T07:35:13.598Z</time></trkpt><trkpt lat="44.8190133" lon="9.4929633"><ele>194.0</ele><time>2026-04-06T07:35:14.599Z</time></trkpt><trkpt lat="44.8189833" lon="9.49269"><ele>194.0</ele><time>2026-04-06T07:35:15.599Z</time></trkpt><trkpt lat="44.81896" lon="9.4924167"><ele>194.0</ele><time>2026-04-06T07:35:16.599Z</time></trkpt><trkpt lat="44.8189433" lon="9.4921383"><ele>194.0</ele><time>2026-04-06T07:35:17.598Z</time></trkpt><trkpt lat="44.8189333" lon="9.49186"><ele>194.0</ele><time>2026-04-06T07:35:18.598Z</time></trkpt><trkpt lat="44.818925" lon="9.4915833"><ele>194.0</ele><time>2026-04-06T07:35:19.598Z</time></trkpt><trkpt lat="44.818915" lon="9.49131"><ele>194.33333333333334</ele><time>2026-04-06T07:35:20.6Z</time></trkpt><trkpt lat="44.8189067" lon="9.4910383"><ele>194.66666666666669</ele><time>2026-04-06T07:35:21.6Z</time></trkpt><trkpt lat="44.8189" lon="9.49077"><ele>195.0</ele><time>2026-04-06T07:35:22.599Z</time></trkpt><trkpt lat="44.8188933" lon="9.4905017"><ele>195.0</ele><time>2026-04-06T07:35:23.602Z</time></trkpt><trkpt lat="44.8188883" lon="9.490235"><ele>195.0</ele><time>2026-04-06T07:35:24.599Z</time></trkpt><trkpt lat="44.8188833" lon="9.4899667"><ele>195.0</ele><time>2026-04-06T07:35:25.598Z</time></trkpt><trkpt lat="44.8188783" lon="9.4897"><ele>195.0</ele><time>2026-04-06T07:35:26.6Z</time></trkpt><trkpt lat="44.8188717" lon="9.4894317"><ele>195.0</ele><time>2026-04-06T07:35:27.598Z</time></trkpt><trkpt lat="44.8188633" lon="9.4891633"><ele>195.0</ele><time>2026-04-06T07:35:28.598Z</time></trkpt><trkpt lat="44.8188533" lon="9.4888967"><ele>194.66666666666669</ele><time>2026-04-06T07:35:29.598Z</time></trkpt><trkpt lat="44.818845" lon="9.48863"><ele>194.33333333333334</ele><time>2026-04-06T07:35:30.597Z</time></trkpt><trkpt lat="44.8188383" lon="9.4883617"><ele>194.0</ele><time>2026-04-06T07:35:31.598Z</time></trkpt><trkpt lat="44.8188317" lon="9.4880933"><ele>194.66666666666669</ele><time>2026-04-06T07:35:32.599Z</time></trkpt><trkpt lat="44.8188267" lon="9.4878267"><ele>195.33333333333331</ele><time>2026-04-06T07:35:33.599Z</time></trkpt><trkpt lat="44.8188183" lon="9.48756"><ele>196.0</ele><time>2026-04-06T07:35:34.6Z</time></trkpt><trkpt lat="44.81881" lon="9.4872933"><ele>196.66666666666666</ele><time>2026-04-06T07:35:35.6Z</time></trkpt><trkpt lat="44.8188" lon="9.4870233"><ele>197.33333333333331</ele><time>2026-04-06T07:35:36.6Z</time></trkpt><trkpt lat="44.8187817" lon="9.4867517"><ele>198.0</ele><time>2026-04-06T07:35:37.602Z</time></trkpt><trkpt lat="44.8187533" lon="9.4864817"><ele>198.33333333333331</ele><time>2026-04-06T07:35:38.602Z</time></trkpt><trkpt lat="44.81871" lon="9.4862167"><ele>198.66666666666666</ele><time>2026-04-06T07:35:39.599Z</time></trkpt><trkpt lat="44.8186567" lon="9.4859617"><ele>199.0</ele><time>2026-04-06T07:35:40.6Z</time></trkpt><trkpt lat="44.8185917" lon="9.4857133"><ele>199.0</ele><time>2026-04-06T07:35:41.598Z</time></trkpt><trkpt lat="44.81852" lon="9.4854717"><ele>199.0</ele><time>2026-04-06T07:35:42.599Z</time></trkpt><trkpt lat="44.818445" lon="9.4852383"><ele>199.0</ele><time>2026-04-06T07:35:43.598Z</time></trkpt><trkpt lat="44.8183717" lon="9.48501"><ele>204.0</ele><time>2026-04-06T07:35:44.599Z</time></trkpt><trkpt lat="44.8171733" lon="9.48184"><ele>204.0</ele><time>2026-04-06T07:36:00.597Z</time></trkpt><trkpt lat="44.8171017" lon="9.4816567"><ele>204.0</ele><time>2026-04-06T07:36:01.598Z</time></trkpt><trkpt lat="44.8170467" lon="9.4814517"><ele>204.0</ele><time>2026-04-06T07:36:02.599Z</time></trkpt><trkpt lat="44.81699" lon="9.4812533"><ele>202.66666666666669</ele><time>2026-04-06T07:36:03.598Z</time></trkpt><trkpt lat="44.8169333" lon="9.4810517"><ele>201.33333333333334</ele><time>2026-04-06T07:36:04.598Z</time></trkpt><trkpt lat="44.8168783" lon="9.480835"><ele>200.0</ele><time>2026-04-06T07:36:05.597Z</time></trkpt><trkpt lat="44.816825" lon="9.4806083"><ele>202.33333333333334</ele><time>2026-04-06T07:36:06.599Z</time></trkpt><trkpt lat="44.81678" lon="9.4803783"><ele>204.66666666666669</ele><time>2026-04-06T07:36:07.598Z</time></trkpt><trkpt lat="44.81674" lon="9.4801467"><ele>207.0</ele><time>2026-04-06T07:36:08.599Z</time></trkpt><trkpt lat="44.816705" lon="9.4799083"><ele>207.0</ele><time>2026-04-06T07:36:09.6Z</time></trkpt><trkpt lat="44.816675" lon="9.47966"><ele>207.0</ele><time>2026-04-06T07:36:10.601Z</time></trkpt><trkpt lat="44.81665" lon="9.4793983"><ele>207.0</ele><time>2026-04-06T07:36:11.6Z</time></trkpt><trkpt lat="44.8166283" lon="9.47912"><ele>207.66666666666669</ele><time>2026-04-06T07:36:12.598Z</time></trkpt><trkpt lat="44.8166133" lon="9.4788283"><ele>208.33333333333334</ele><time>2026-04-06T07:36:13.599Z</time></trkpt><trkpt lat="44.8166083" lon="9.4785233"><ele>209.0</ele><time>2026-04-06T07:36:14.599Z</time></trkpt><trkpt lat="44.8166083" lon="9.47822"><ele>209.66666666666669</ele><time>2026-04-06T07:36:15.599Z</time></trkpt><trkpt lat="44.8166117" lon="9.4779217"><ele>210.33333333333331</ele><time>2026-04-06T07:36:16.598Z</time></trkpt><trkpt lat="44.8166167" lon="9.477635"><ele>211.0</ele><time>2026-04-06T07:36:17.599Z</time></trkpt><trkpt lat="44.81662" lon="9.4773517"><ele>212.66666666666666</ele><time>2026-04-06T07:36:18.599Z</time></trkpt><trkpt lat="44.8166217" lon="9.4770733"><ele>214.33333333333331</ele><time>2026-04-06T07:36:19.602Z</time></trkpt><trkpt lat="44.816625" lon="9.4767983"><ele>216.0</ele><time>2026-04-06T07:36:20.601Z</time></trkpt><trkpt lat="44.8166267" lon="9.4765217"><ele>217.66666666666669</ele><time>2026-04-06T07:36:21.599Z</time></trkpt><trkpt lat="44.81663" lon="9.4762467"><ele>219.33333333333334</ele><time>2026-04-06T07:36:22.601Z</time></trkpt><trkpt lat="44.81663" lon="9.4759717"><ele>221.0</ele><time>2026-04-06T07:36:23.6Z</time></trkpt><trkpt lat="44.81663" lon="9.4756967"><ele>222.33333333333334</ele><time>2026-04-06T07:36:24.598Z</time></trkpt><trkpt lat="44.8166317" lon="9.4754183"><ele>223.66666666666669</ele><time>2026-04-06T07:36:25.598Z</time></trkpt><trkpt lat="44.8166333" lon="9.475135"><ele>225.0</ele><time>2026-04-06T07:36:26.598Z</time></trkpt><trkpt lat="44.816635" lon="9.4748533"><ele>226.0</ele><time>2026-04-06T07:36:27.6Z</time></trkpt><trkpt lat="44.8166383" lon="9.47458"><ele>227.0</ele><time>2026-04-06T07:36:28.598Z</time></trkpt><trkpt lat="44.8166417" lon="9.4743233"><ele>228.0</ele><time>2026-04-06T07:36:29.598Z</time></trkpt><trkpt lat="44.816645" lon="9.474085"><ele>228.0</ele><time>2026-04-06T07:36:30.599Z</time></trkpt><trkpt lat="44.8166517" lon="9.4738583"><ele>228.0</ele><time>2026-04-06T07:36:31.599Z</time></trkpt><trkpt lat="44.8166633" lon="9.4736483"><ele>228.0</ele><time>2026-04-06T07:36:32.598Z</time></trkpt><trkpt lat="44.8166783" lon="9.4734433"><ele>228.0</ele><time>2026-04-06T07:36:33.599Z</time></trkpt><trkpt lat="44.816705" lon="9.473235"><ele>228.0</ele><time>2026-04-06T07:36:34.599Z</time></trkpt><trkpt lat="44.8167517" lon="9.4730233"><ele>228.0</ele><time>2026-04-06T07:36:35.599Z</time></trkpt><trkpt lat="44.81682" lon="9.47281"><ele>226.33333333333331</ele><time>2026-04-06T07:36:36.599Z</time></trkpt><trkpt lat="44.8169083" lon="9.4726017"><ele>224.66666666666666</ele><time>2026-04-06T07:36:37.598Z</time></trkpt><trkpt lat="44.8170117" lon="9.47241"><ele>223.0</ele><time>2026-04-06T07:36:38.599Z</time></trkpt><trkpt lat="44.8171233" lon="9.4722367"><ele>225.66666666666666</ele><time>2026-04-06T07:36:39.599Z</time></trkpt><trkpt lat="44.8172383" lon="9.4720717"><ele>228.33333333333331</ele><time>2026-04-06T07:36:40.6Z</time></trkpt><trkpt lat="44.8173467" lon="9.4719"><ele>231.0</ele><time>2026-04-06T07:36:41.6Z</time></trkpt><trkpt lat="44.8174417" lon="9.47171"><ele>231.0</ele><time>2026-04-06T07:36:42.598Z</time></trkpt><trkpt lat="44.8175167" lon="9.4715"><ele>231.0</ele><time>2026-04-06T07:36:43.597Z</time></trkpt><trkpt lat="44.8175683" lon="9.471265"><ele>231.0</ele><time>2026-04-06T07:36:44.599Z</time></trkpt><trkpt lat="44.8175933" lon="9.471015"><ele>230.66666666666669</ele><time>2026-04-06T07:36:45.597Z</time></trkpt><trkpt lat="44.81759" lon="9.470755"><ele>230.33333333333334</ele><time>2026-04-06T07:36:46.598Z</time></trkpt><trkpt lat="44.8175617" lon="9.47049"><ele>230.0</ele><time>2026-04-06T07:36:47.598Z</time></trkpt><trkpt lat="44.8175167" lon="9.470225"><ele>230.0</ele><time>2026-04-06T07:36:48.599Z</time></trkpt><trkpt lat="44.817465" lon="9.46996"><ele>230.0</ele><time>2026-04-06T07:36:49.598Z</time></trkpt><trkpt lat="44.8174117" lon="9.4696983"><ele>230.0</ele><time>2026-04-06T07:36:50.601Z</time></trkpt><trkpt lat="44.8173583" lon="9.469435"><ele>226.66666666666669</ele><time>2026-04-06T07:36:51.599Z</time></trkpt><trkpt lat="44.817305" lon="9.46917"><ele>223.33333333333331</ele><time>2026-04-06T07:36:52.598Z</time></trkpt><trkpt lat="44.8172533" lon="9.4689067"><ele>220.0</ele><time>2026-04-06T07:36:53.599Z</time></trkpt><trkpt lat="44.8172" lon="9.4686433"><ele>219.33333333333331</ele><time>2026-04-06T07:36:54.599Z</time></trkpt><trkpt lat="44.8171467" lon="9.46838"><ele>218.66666666666669</ele><time>2026-04-06T07:36:55.598Z</time></trkpt><trkpt lat="44.817095" lon="9.4681133"><ele>218.0</ele><time>2026-04-06T07:36:56.599Z</time></trkpt><trkpt lat="44.81704" lon="9.4678483"><ele>217.66666666666669</ele><time>2026-04-06T07:36:57.597Z</time></trkpt><trkpt lat="44.81698" lon="9.4675833"><ele>217.33333333333331</ele><time>2026-04-06T07:36:58.598Z</time></trkpt><trkpt lat="44.8169083" lon="9.4673217"><ele>217.0</ele><time>2026-04-06T07:36:59.598Z</time></trkpt><trkpt lat="44.8168267" lon="9.467065"><ele>220.66666666666666</ele><time>2026-04-06T07:37:00.598Z</time></trkpt><trkpt lat="44.816735" lon="9.4668117"><ele>224.33333333333331</ele><time>2026-04-06T07:37:01.598Z</time></trkpt><trkpt lat="44.8166333" lon="9.466555"><ele>228.0</ele><time>2026-04-06T07:37:02.599Z</time></trkpt><trkpt lat="44.8165233" lon="9.4662917"><ele>225.0</ele><time>2026-04-06T07:37:03.598Z</time></trkpt><trkpt lat="44.8164133" lon="9.466035"><ele>222.0</ele><time>2026-04-06T07:37:04.599Z</time></trkpt><trkpt lat="44.8163117" lon="9.4657867"><ele>219.0</ele><time>2026-04-06T07:37:05.598Z</time></trkpt><trkpt lat="44.8162217" lon="9.4655283"><ele>217.0</ele><time>2026-04-06T07:37:06.599Z</time></trkpt><trkpt lat="44.8161517" lon="9.4652533"><ele>215.0</ele><time>2026-04-06T07:37:07.6Z</time></trkpt><trkpt lat="44.8161033" lon="9.464965"><ele>213.0</ele><time>2026-04-06T07:37:08.598Z</time></trkpt><trkpt lat="44.8160733" lon="9.464665"><ele>212.33333333333331</ele><time>2026-04-06T07:37:09.598Z</time></trkpt><trkpt lat="44.816045" lon="9.4643583"><ele>211.66666666666666</ele><time>2026-04-06T07:37:10.599Z</time></trkpt><trkpt lat="44.816015" lon="9.46405"><ele>211.0</ele><time>2026-04-06T07:37:11.599Z</time></trkpt><trkpt lat="44.8159783" lon="9.46374"><ele>217.0</ele><time>2026-04-06T07:37:12.6Z</time></trkpt><trkpt lat="44.8159367" lon="9.4634333"><ele>223.0</ele><time>2026-04-06T07:37:13.598Z</time></trkpt><trkpt lat="44.8158967" lon="9.4631383"><ele>229.0</ele><time>2026-04-06T07:37:14.6Z</time></trkpt><trkpt lat="44.8158533" lon="9.462855"><ele>229.0</ele><time>2026-04-06T07:37:15.598Z</time></trkpt><trkpt lat="44.81581" lon="9.4625817"><ele>229.0</ele><time>2026-04-06T07:37:16.599Z</time></trkpt><trkpt lat="44.81577" lon="9.4623267"><ele>229.0</ele><time>2026-04-06T07:37:17.598Z</time></trkpt><trkpt lat="44.8157317" lon="9.4620867"><ele>228.0</ele><time>2026-04-06T07:37:18.599Z</time></trkpt><trkpt lat="44.815695" lon="9.4618583"><ele>227.0</ele><time>2026-04-06T07:37:19.602Z</time></trkpt><trkpt lat="44.8156617" lon="9.4616417"><ele>226.0</ele><time>2026-04-06T07:37:20.599Z</time></trkpt><trkpt lat="44.8156317" lon="9.46143"><ele>225.33333333333331</ele><time>2026-04-06T07:37:21.599Z</time></trkpt><trkpt lat="44.8156067" lon="9.4612133"><ele>224.66666666666669</ele><time>2026-04-06T07:37:22.597Z</time></trkpt><trkpt lat="44.8155833" lon="9.4609983"><ele>224.0</ele><time>2026-04-06T07:37:23.599Z</time></trkpt><trkpt lat="44.8155633" lon="9.4607933"><ele>224.0</ele><time>2026-04-06T07:37:24.599Z</time></trkpt><trkpt lat="44.815545" lon="9.4606"><ele>224.0</ele><time>2026-04-06T07:37:25.599Z</time></trkpt><trkpt lat="44.81553" lon="9.4604133"><ele>224.0</ele><time>2026-04-06T07:37:26.6Z</time></trkpt><trkpt lat="44.815515" lon="9.4602283"><ele>224.0</ele><time>2026-04-06T07:37:27.599Z</time></trkpt><trkpt lat="44.8155" lon="9.4600433"><ele>223.75</ele><time>2026-04-06T07:37:28.598Z</time></trkpt><trkpt lat="44.815485" lon="9.4598583"><ele>223.5</ele><time>2026-04-06T07:37:29.599Z</time></trkpt><trkpt lat="44.8154717" lon="9.4596833"><ele>223.25</ele><time>2026-04-06T07:37:30.598Z</time></trkpt><trkpt lat="44.8154583" lon="9.4595167"><ele>223.0</ele><time>2026-04-06T07:37:31.599Z</time></trkpt><trkpt lat="44.8154417" lon="9.4593633"><ele>222.99999999999997</ele><time>2026-04-06T07:37:32.599Z</time></trkpt><trkpt lat="44.815425" lon="9.4592183"><ele>223.0</ele><time>2026-04-06T07:37:33.598Z</time></trkpt><trkpt lat="44.8154033" lon="9.459085"><ele>223.0</ele><time>2026-04-06T07:37:34.597Z</time></trkpt><trkpt lat="44.81538" lon="9.4589617"><ele>223.0</ele><time>2026-04-06T07:37:35.598Z</time></trkpt><trkpt lat="44.81536" lon="9.4588567"><ele>222.99999999999997</ele><time>2026-04-06T07:37:36.597Z</time></trkpt><trkpt lat="44.8153417" lon="9.4587717"><ele>223.0</ele><time>2026-04-06T07:37:37.598Z</time></trkpt><trkpt lat="44.8153017" lon="9.45864"><ele>222.8</ele><time>2026-04-06T07:37:39.6Z</time></trkpt><trkpt lat="44.8152617" lon="9.4585083"><ele>222.60000000000002</ele><time>2026-04-06T07:37:41.599Z</time></trkpt><trkpt lat="44.81522" lon="9.4583567"><ele>222.39999999999998</ele><time>2026-04-06T07:37:43.598Z</time></trkpt><trkpt lat="44.8151783" lon="9.4582267"><ele>222.2</ele><time>2026-04-06T07:37:45.598Z</time></trkpt><trkpt lat="44.8151467" lon="9.4581283"><ele>222.0</ele><time>2026-04-06T07:37:47.598Z</time></trkpt><trkpt lat="44.8151167" lon="9.4580417"><ele>222.8</ele><time>2026-04-06T07:37:50.599Z</time></trkpt><trkpt lat="44.8150817" lon="9.457945"><ele>223.6</ele><time>2026-04-06T07:38:24.598Z</time></trkpt><trkpt lat="44.8150383" lon="9.45784"><ele>224.40000000000003</ele><time>2026-04-06T07:38:25.598Z</time></trkpt><trkpt lat="44.81498" lon="9.4577083"><ele>225.20000000000002</ele><time>2026-04-06T07:38:26.599Z</time></trkpt><trkpt lat="44.8149167" lon="9.4575583"><ele>226.0</ele><time>2026-04-06T07:38:27.599Z</time></trkpt><trkpt lat="44.81484" lon="9.457385"><ele>226.0</ele><time>2026-04-06T07:38:28.598Z</time></trkpt><trkpt lat="44.81476" lon="9.4572083"><ele>226.0</ele><time>2026-04-06T07:38:29.599Z</time></trkpt><trkpt lat="44.8146767" lon="9.45702"><ele>226.0</ele><time>2026-04-06T07:38:30.599Z</time></trkpt><trkpt lat="44.8145917" lon="9.456825"><ele>224.0</ele><time>2026-04-06T07:38:31.597Z</time></trkpt><trkpt lat="44.8145017" lon="9.4566217"><ele>222.0</ele><time>2026-04-06T07:38:32.599Z</time></trkpt><trkpt lat="44.8144083" lon="9.4564117"><ele>220.0</ele><time>2026-04-06T07:38:33.597Z</time></trkpt><trkpt lat="44.8143117" lon="9.4561933"><ele>220.0</ele><time>2026-04-06T07:38:34.599Z</time></trkpt><trkpt lat="44.8142133" lon="9.4559733"><ele>220.0</ele><time>2026-04-06T07:38:35.598Z</time></trkpt><trkpt lat="44.8141167" lon="9.455755"><ele>220.0</ele><time>2026-04-06T07:38:36.598Z</time></trkpt><trkpt lat="44.8140183" lon="9.45554"><ele>218.33333333333331</ele><time>2026-04-06T07:38:37.598Z</time></trkpt><trkpt lat="44.81392" lon="9.45532"><ele>216.66666666666669</ele><time>2026-04-06T07:38:38.597Z</time></trkpt><trkpt lat="44.8138183" lon="9.4550933"><ele>215.0</ele><time>2026-04-06T07:38:39.598Z</time></trkpt><trkpt lat="44.813715" lon="9.4548633"><ele>215.0</ele><time>2026-04-06T07:38:40.599Z</time></trkpt><trkpt lat="44.8136117" lon="9.4546267"><ele>215.0</ele><time>2026-04-06T07:38:41.599Z</time></trkpt><trkpt lat="44.813505" lon="9.4543883"><ele>215.0</ele><time>2026-04-06T07:38:42.599Z</time></trkpt><trkpt lat="44.8134" lon="9.45415"><ele>214.66666666666669</ele><time>2026-04-06T07:38:43.598Z</time></trkpt><trkpt lat="44.8132917" lon="9.4539117"><ele>214.33333333333331</ele><time>2026-04-06T07:38:44.599Z</time></trkpt><trkpt lat="44.8131833" lon="9.4536667"><ele>214.0</ele><time>2026-04-06T07:38:45.597Z</time></trkpt><trkpt lat="44.813075" lon="9.4534233"><ele>214.0</ele><time>2026-04-06T07:38:46.598Z</time></trkpt><trkpt lat="44.8129667" lon="9.453175"><ele>214.0</ele><time>2026-04-06T07:38:47.598Z</time></trkpt><trkpt lat="44.8128533" lon="9.4529217"><ele>214.0</ele><time>2026-04-06T07:38:48.598Z</time></trkpt><trkpt lat="44.8127383" lon="9.452665"><ele>216.66666666666666</ele><time>2026-04-06T07:38:49.598Z</time></trkpt><trkpt lat="44.812635" lon="9.45241"><ele>219.33333333333331</ele><time>2026-04-06T07:38:50.599Z</time></trkpt><trkpt lat="44.812545" lon="9.4521583"><ele>222.0</ele><time>2026-04-06T07:38:51.598Z</time></trkpt><trkpt lat="44.81247" lon="9.4518933"><ele>222.0</ele><time>2026-04-06T07:38:52.598Z</time></trkpt><trkpt lat="44.8124117" lon="9.4516117"><ele>222.0</ele><time>2026-04-06T07:38:53.598Z</time></trkpt><trkpt lat="44.8123667" lon="9.45132"><ele>222.0</ele><time>2026-04-06T07:38:54.597Z</time></trkpt><trkpt lat="44.8123283" lon="9.4510217"><ele>221.0</ele><time>2026-04-06T07:38:55.599Z</time></trkpt><trkpt lat="44.8122933" lon="9.4507233"><ele>220.0</ele><time>2026-04-06T07:38:56.598Z</time></trkpt><trkpt lat="44.8122567" lon="9.4504233"><ele>219.0</ele><time>2026-04-06T07:38:57.597Z</time></trkpt><trkpt lat="44.81222" lon="9.450125"><ele>219.0</ele><time>2026-04-06T07:38:58.597Z</time></trkpt><trkpt lat="44.8121833" lon="9.4498233"><ele>219.0</ele><time>2026-04-06T07:38:59.6Z</time></trkpt><trkpt lat="44.812145" lon="9.44952"><ele>219.0</ele><time>2026-04-06T07:39:00.598Z</time></trkpt><trkpt lat="44.8121083" lon="9.4492167"><ele>217.66666666666669</ele><time>2026-04-06T07:39:01.599Z</time></trkpt><trkpt lat="44.8120733" lon="9.4489083"><ele>216.33333333333334</ele><time>2026-04-06T07:39:02.599Z</time></trkpt><trkpt lat="44.8120367" lon="9.4486017"><ele>215.0</ele><time>2026-04-06T07:39:03.599Z</time></trkpt><trkpt lat="44.8119983" lon="9.4482967"><ele>214.66666666666669</ele><time>2026-04-06T07:39:04.598Z</time></trkpt><trkpt lat="44.8119617" lon="9.4479933"><ele>214.33333333333331</ele><time>2026-04-06T07:39:05.598Z</time></trkpt><trkpt lat="44.8119233" lon="9.4476933"><ele>214.0</ele><time>2026-04-06T07:39:06.597Z</time></trkpt><trkpt lat="44.8118867" lon="9.447395"><ele>214.33333333333331</ele><time>2026-04-06T07:39:07.599Z</time></trkpt><trkpt lat="44.8118517" lon="9.4470933"><ele>214.66666666666669</ele><time>2026-04-06T07:39:08.599Z</time></trkpt><trkpt lat="44.8118167" lon="9.4467933"><ele>215.0</ele><time>2026-04-06T07:39:09.598Z</time></trkpt><trkpt lat="44.8117833" lon="9.4464917"><ele>216.66666666666669</ele><time>2026-04-06T07:39:10.599Z</time></trkpt><trkpt lat="44.81175" lon="9.4461917"><ele>218.33333333333331</ele><time>2026-04-06T07:39:11.598Z</time></trkpt><trkpt lat="44.811715" lon="9.4458883"><ele>220.0</ele><time>2026-04-06T07:39:12.598Z</time></trkpt><trkpt lat="44.81168" lon="9.4455833"><ele>221.0</ele><time>2026-04-06T07:39:13.598Z</time></trkpt><trkpt lat="44.8116383" lon="9.4452717"><ele>222.0</ele><time>2026-04-06T07:39:14.598Z</time></trkpt><trkpt lat="44.811595" lon="9.4449517"><ele>222.0</ele><time>2026-04-06T07:39:15.597Z</time></trkpt><trkpt lat="44.8115517" lon="9.444625"><ele>222.0</ele><time>2026-04-06T07:39:16.598Z</time></trkpt><trkpt lat="44.811505" lon="9.4442983"><ele>222.0</ele><time>2026-04-06T07:39:17.599Z</time></trkpt><trkpt lat="44.8114583" lon="9.4439667"><ele>222.0</ele><time>2026-04-06T07:39:18.599Z</time></trkpt><trkpt lat="44.811415" lon="9.4436333"><ele>221.5</ele><time>2026-04-06T07:39:19.598Z</time></trkpt><trkpt lat="44.8113717" lon="9.4433"><ele>221.0</ele><time>2026-04-06T07:39:20.598Z</time></trkpt><trkpt lat="44.8113283" lon="9.4429667"><ele>221.0</ele><time>2026-04-06T07:39:21.598Z</time></trkpt><trkpt lat="44.811285" lon="9.4426317"><ele>221.0</ele><time>2026-04-06T07:39:22.598Z</time></trkpt><trkpt lat="44.811245" lon="9.4422983"><ele>220.0</ele><time>2026-04-06T07:39:23.598Z</time></trkpt><trkpt lat="44.8112067" lon="9.441965"><ele>219.0</ele><time>2026-04-06T07:39:24.597Z</time></trkpt><trkpt lat="44.81117" lon="9.4416317"><ele>219.0</ele><time>2026-04-06T07:39:25.598Z</time></trkpt><trkpt lat="44.8111333" lon="9.4413"><ele>219.0</ele><time>2026-04-06T07:39:26.599Z</time></trkpt><trkpt lat="44.8110867" lon="9.4409733"><ele>218.0</ele><time>2026-04-06T07:39:27.598Z</time></trkpt><trkpt lat="44.811025" lon="9.4406533"><ele>217.0</ele><time>2026-04-06T07:39:28.6Z</time></trkpt><trkpt lat="44.8109467" lon="9.4403417"><ele>221.0</ele><time>2026-04-06T07:39:29.599Z</time></trkpt><trkpt lat="44.8108483" lon="9.4400417"><ele>225.0</ele><time>2026-04-06T07:39:30.599Z</time></trkpt><trkpt lat="44.8107317" lon="9.4397533"><ele>223.0</ele><time>2026-04-06T07:39:31.599Z</time></trkpt><trkpt lat="44.8105933" lon="9.4394783"><ele>221.0</ele><time>2026-04-06T07:39:32.598Z</time></trkpt><trkpt lat="44.81044" lon="9.439215"><ele>221.0</ele><time>2026-04-06T07:39:33.599Z</time></trkpt><trkpt lat="44.81028" lon="9.4389617"><ele>221.0</ele><time>2026-04-06T07:39:34.598Z</time></trkpt><trkpt lat="44.8101167" lon="9.438715"><ele>225.0</ele><time>2026-04-06T07:39:35.598Z</time></trkpt><trkpt lat="44.809955" lon="9.4384767"><ele>229.0</ele><time>2026-04-06T07:39:36.598Z</time></trkpt><trkpt lat="44.8097917" lon="9.4382417"><ele>229.0</ele><time>2026-04-06T07:39:37.598Z</time></trkpt><trkpt lat="44.8096283" lon="9.4380067"><ele>229.0</ele><time>2026-04-06T07:39:38.6Z</time></trkpt><trkpt lat="44.8094717" lon="9.4377717"><ele>230.5</ele><time>2026-04-06T07:39:39.599Z</time></trkpt><trkpt lat="44.809315" lon="9.4375383"><ele>232.0</ele><time>2026-04-06T07:39:40.601Z</time></trkpt><trkpt lat="44.8091667" lon="9.4373033"><ele>228.66666666666666</ele><time>2026-04-06T07:39:41.601Z</time></trkpt><trkpt lat="44.8090317" lon="9.4370583"><ele>225.33333333333331</ele><time>2026-04-06T07:39:42.599Z</time></trkpt><trkpt lat="44.8089167" lon="9.43679"><ele>222.0</ele><time>2026-04-06T07:39:43.603Z</time></trkpt><trkpt lat="44.808815" lon="9.4365033"><ele>219.5</ele><time>2026-04-06T07:39:44.601Z</time></trkpt><trkpt lat="44.8087167" lon="9.4362067"><ele>217.0</ele><time>2026-04-06T07:39:45.599Z</time></trkpt><trkpt lat="44.808615" lon="9.43591"><ele>217.0</ele><time>2026-04-06T07:39:46.597Z</time></trkpt><trkpt lat="44.8085117" lon="9.435615"><ele>217.0</ele><time>2026-04-06T07:39:47.599Z</time></trkpt><trkpt lat="44.80841" lon="9.43532"><ele>217.5</ele><time>2026-04-06T07:39:48.598Z</time></trkpt><trkpt lat="44.8083083" lon="9.43503"><ele>218.0</ele><time>2026-04-06T07:39:49.599Z</time></trkpt><trkpt lat="44.8082067" lon="9.4347417"><ele>219.5</ele><time>2026-04-06T07:39:50.598Z</time></trkpt><trkpt lat="44.808105" lon="9.434455"><ele>221.0</ele><time>2026-04-06T07:39:51.599Z</time></trkpt><trkpt lat="44.808005" lon="9.43417"><ele>221.0</ele><time>2026-04-06T07:39:52.6Z</time></trkpt><trkpt lat="44.807905" lon="9.43388"><ele>221.0</ele><time>2026-04-06T07:39:53.599Z</time></trkpt><trkpt lat="44.8078033" lon="9.4335917"><ele>221.0</ele><time>2026-04-06T07:39:54.599Z</time></trkpt><trkpt lat="44.8077033" lon="9.4333033"><ele>221.0</ele><time>2026-04-06T07:39:55.601Z</time></trkpt><trkpt lat="44.8076017" lon="9.433015"><ele>223.0</ele><time>2026-04-06T07:39:56.6Z</time></trkpt><trkpt lat="44.8074983" lon="9.4327233"><ele>225.0</ele><time>2026-04-06T07:39:57.6Z</time></trkpt><trkpt lat="44.8073983" lon="9.4324317"><ele>225.0</ele><time>2026-04-06T07:39:58.599Z</time></trkpt><trkpt lat="44.8072933" lon="9.4321417"><ele>225.0</ele><time>2026-04-06T07:39:59.6Z</time></trkpt><trkpt lat="44.8071833" lon="9.431855"><ele>229.5</ele><time>2026-04-06T07:40:00.6Z</time></trkpt><trkpt lat="44.8070667" lon="9.4315717"><ele>234.0</ele><time>2026-04-06T07:40:01.6Z</time></trkpt><trkpt lat="44.8069433" lon="9.431295"><ele>231.5</ele><time>2026-04-06T07:40:02.598Z</time></trkpt><trkpt lat="44.8068117" lon="9.431025"><ele>229.0</ele><time>2026-04-06T07:40:03.598Z</time></trkpt><trkpt lat="44.8066733" lon="9.430755"><ele>229.0</ele><time>2026-04-06T07:40:04.598Z</time></trkpt><trkpt lat="44.80653" lon="9.43049"><ele>229.0</ele><time>2026-04-06T07:40:05.598Z</time></trkpt><trkpt lat="44.80638" lon="9.430235"><ele>229.0</ele><time>2026-04-06T07:40:06.598Z</time></trkpt><trkpt lat="44.8062217" lon="9.4299867"><ele>229.0</ele><time>2026-04-06T07:40:07.599Z</time></trkpt><trkpt lat="44.8060533" lon="9.42975"><ele>227.5</ele><time>2026-04-06T07:40:08.6Z</time></trkpt><trkpt lat="44.8058767" lon="9.429515"><ele>226.0</ele><time>2026-04-06T07:40:09.599Z</time></trkpt><trkpt lat="44.8056917" lon="9.4292767"><ele>226.0</ele><time>2026-04-06T07:40:10.598Z</time></trkpt><trkpt lat="44.8055017" lon="9.4290367"><ele>226.0</ele><time>2026-04-06T07:40:11.599Z</time></trkpt><trkpt lat="44.8053117" lon="9.4287933"><ele>226.0</ele><time>2026-04-06T07:40:12.597Z</time></trkpt><trkpt lat="44.8051267" lon="9.4285467"><ele>226.0</ele><time>2026-04-06T07:40:13.598Z</time></trkpt><trkpt lat="44.804945" lon="9.4282983"><ele>226.0</ele><time>2026-04-06T07:40:14.6Z</time></trkpt><trkpt lat="44.8047617" lon="9.4280483"><ele>226.0</ele><time>2026-04-06T07:40:15.598Z</time></trkpt><trkpt lat="44.8045783" lon="9.4278"><ele>226.0</ele><time>2026-04-06T07:40:16.599Z</time></trkpt><trkpt lat="44.8043933" lon="9.4275533"><ele>226.0</ele><time>2026-04-06T07:40:17.598Z</time></trkpt><trkpt lat="44.8042117" lon="9.42731"><ele>228.0</ele><time>2026-04-06T07:40:18.598Z</time></trkpt><trkpt lat="44.8040283" lon="9.4270683"><ele>230.0</ele><time>2026-04-06T07:40:19.598Z</time></trkpt><trkpt lat="44.8038467" lon="9.42683"><ele>230.0</ele><time>2026-04-06T07:40:20.598Z</time></trkpt><trkpt lat="44.8036633" lon="9.4265933"><ele>230.0</ele><time>2026-04-06T07:40:21.598Z</time></trkpt><trkpt lat="44.8034767" lon="9.426365"><ele>228.5</ele><time>2026-04-06T07:40:22.599Z</time></trkpt><trkpt lat="44.8032867" lon="9.426145"><ele>227.0</ele><time>2026-04-06T07:40:23.599Z</time></trkpt><trkpt lat="44.80309" lon="9.4259333"><ele>227.0</ele><time>2026-04-06T07:40:24.6Z</time></trkpt><trkpt lat="44.80289" lon="9.4257333"><ele>227.0</ele><time>2026-04-06T07:40:25.601Z</time></trkpt><trkpt lat="44.802685" lon="9.42555"><ele>229.0</ele><time>2026-04-06T07:40:26.6Z</time></trkpt><trkpt lat="44.802475" lon="9.4253833"><ele>231.0</ele><time>2026-04-06T07:40:27.6Z</time></trkpt><trkpt lat="44.8022633" lon="9.425225"><ele>231.0</ele><time>2026-04-06T07:40:28.601Z</time></trkpt><trkpt lat="44.8020517" lon="9.4250783"><ele>231.0</ele><time>2026-04-06T07:40:29.6Z</time></trkpt><trkpt lat="44.801845" lon="9.42493"><ele>229.0</ele><time>2026-04-06T07:40:30.6Z</time></trkpt><trkpt lat="44.80164" lon="9.4247833"><ele>227.0</ele><time>2026-04-06T07:40:31.6Z</time></trkpt><trkpt lat="44.8014367" lon="9.4246417"><ele>227.0</ele><time>2026-04-06T07:40:32.6Z</time></trkpt><trkpt lat="44.8012367" lon="9.4245"><ele>227.0</ele><time>2026-04-06T07:40:33.6Z</time></trkpt><trkpt lat="44.801035" lon="9.4243583"><ele>227.0</ele><time>2026-04-06T07:40:34.6Z</time></trkpt><trkpt lat="44.8008317" lon="9.424215"><ele>228.0</ele><time>2026-04-06T07:40:35.601Z</time></trkpt><trkpt lat="44.8006283" lon="9.42407"><ele>229.0</ele><time>2026-04-06T07:40:36.6Z</time></trkpt><trkpt lat="44.8004233" lon="9.4239217"><ele>228.5</ele><time>2026-04-06T07:40:37.6Z</time></trkpt><trkpt lat="44.8002183" lon="9.4237783"><ele>228.0</ele><time>2026-04-06T07:40:38.601Z</time></trkpt><trkpt lat="44.8000083" lon="9.4236467"><ele>231.0</ele><time>2026-04-06T07:40:39.601Z</time></trkpt><trkpt lat="44.7997933" lon="9.4235283"><ele>234.0</ele><time>2026-04-06T07:40:40.601Z</time></trkpt><trkpt lat="44.7995733" lon="9.4234283"><ele>234.0</ele><time>2026-04-06T07:40:41.597Z</time></trkpt><trkpt lat="44.79935" lon="9.4233517"><ele>234.0</ele><time>2026-04-06T07:40:42.598Z</time></trkpt><trkpt lat="44.79912" lon="9.4232967"><ele>235.0</ele><time>2026-04-06T07:40:43.598Z</time></trkpt><trkpt lat="44.7988867" lon="9.423255"><ele>236.0</ele><time>2026-04-06T07:40:44.598Z</time></trkpt><trkpt lat="44.7986517" lon="9.423225"><ele>238.5</ele><time>2026-04-06T07:40:45.598Z</time></trkpt><trkpt lat="44.7984167" lon="9.4231917"><ele>241.0</ele><time>2026-04-06T07:40:46.599Z</time></trkpt><trkpt lat="44.7981833" lon="9.423155"><ele>241.0</ele><time>2026-04-06T07:40:47.599Z</time></trkpt><trkpt lat="44.7979517" lon="9.423115"><ele>241.0</ele><time>2026-04-06T07:40:48.601Z</time></trkpt><trkpt lat="44.7977233" lon="9.4230683"><ele>241.33333333333331</ele><time>2026-04-06T07:40:49.601Z</time></trkpt><trkpt lat="44.7975" lon="9.4230133"><ele>241.66666666666669</ele><time>2026-04-06T07:40:50.603Z</time></trkpt><trkpt lat="44.7972833" lon="9.422945"><ele>242.0</ele><time>2026-04-06T07:40:51.599Z</time></trkpt><trkpt lat="44.7970817" lon="9.4228583"><ele>241.33333333333334</ele><time>2026-04-06T07:40:52.598Z</time></trkpt><trkpt lat="44.7968883" lon="9.422755"><ele>240.66666666666669</ele><time>2026-04-06T07:40:53.6Z</time></trkpt><trkpt lat="44.7966967" lon="9.4226267"><ele>240.0</ele><time>2026-04-06T07:40:54.6Z</time></trkpt><trkpt lat="44.796505" lon="9.4224767"><ele>240.0</ele><time>2026-04-06T07:40:55.6Z</time></trkpt><trkpt lat="44.7963167" lon="9.4223033"><ele>240.0</ele><time>2026-04-06T07:40:56.601Z</time></trkpt><trkpt lat="44.7961367" lon="9.42211"><ele>243.5</ele><time>2026-04-06T07:40:57.599Z</time></trkpt><trkpt lat="44.7959617" lon="9.4218983"><ele>247.0</ele><time>2026-04-06T07:40:58.601Z</time></trkpt><trkpt lat="44.79579" lon="9.4216717"><ele>247.0</ele><time>2026-04-06T07:40:59.598Z</time></trkpt><trkpt lat="44.795615" lon="9.4214433"><ele>247.0</ele><time>2026-04-06T07:41:00.597Z</time></trkpt><trkpt lat="44.79544" lon="9.4212117"><ele>244.5</ele><time>2026-04-06T07:41:01.598Z</time></trkpt><trkpt lat="44.7952667" lon="9.4209783"><ele>242.0</ele><time>2026-04-06T07:41:02.598Z</time></trkpt><trkpt lat="44.7950933" lon="9.42074"><ele>259.5</ele><time>2026-04-06T07:41:03.598Z</time></trkpt><trkpt lat="44.79492" lon="9.4205033"><ele>277.0</ele><time>2026-04-06T07:41:04.598Z</time></trkpt><trkpt lat="44.7947417" lon="9.4202633"><ele>240.0</ele><time>2026-04-06T07:41:05.602Z</time></trkpt><trkpt lat="44.7901567" lon="9.41422"><ele>240.0</ele><time>2026-04-06T07:41:31.598Z</time></trkpt><trkpt lat="44.7899467" lon="9.4139833"><ele>240.0</ele><time>2026-04-06T07:41:32.597Z</time></trkpt><trkpt lat="44.7897717" lon="9.413765"><ele>238.0</ele><time>2026-04-06T07:41:33.599Z</time></trkpt><trkpt lat="44.7896017" lon="9.413535"><ele>236.0</ele><time>2026-04-06T07:41:34.601Z</time></trkpt><trkpt lat="44.7894317" lon="9.4133133"><ele>236.5</ele><time>2026-04-06T07:41:35.601Z</time></trkpt><trkpt lat="44.789265" lon="9.413095"><ele>237.0</ele><time>2026-04-06T07:41:36.6Z</time></trkpt><trkpt lat="44.7890983" lon="9.412875"><ele>237.0</ele><time>2026-04-06T07:41:37.601Z</time></trkpt><trkpt lat="44.788935" lon="9.4126567"><ele>237.0</ele><time>2026-04-06T07:41:38.601Z</time></trkpt><trkpt lat="44.7887717" lon="9.41244"><ele>237.0</ele><time>2026-04-06T07:41:39.6Z</time></trkpt><trkpt lat="44.7886067" lon="9.4122267"><ele>237.33333333333331</ele><time>2026-04-06T07:41:40.599Z</time></trkpt><trkpt lat="44.7884433" lon="9.4120133"><ele>237.66666666666666</ele><time>2026-04-06T07:41:41.6Z</time></trkpt><trkpt lat="44.7882783" lon="9.4118"><ele>238.0</ele><time>2026-04-06T07:41:42.599Z</time></trkpt><trkpt lat="44.788115" lon="9.4115833"><ele>238.0</ele><time>2026-04-06T07:41:43.601Z</time></trkpt><trkpt lat="44.7879533" lon="9.4113717"><ele>238.0</ele><time>2026-04-06T07:41:44.6Z</time></trkpt><trkpt lat="44.7877933" lon="9.4111583"><ele>238.0</ele><time>2026-04-06T07:41:45.599Z</time></trkpt><trkpt lat="44.7876317" lon="9.410945"><ele>237.66666666666666</ele><time>2026-04-06T07:41:46.597Z</time></trkpt><trkpt lat="44.78747" lon="9.41073"><ele>237.33333333333331</ele><time>2026-04-06T07:41:47.598Z</time></trkpt><trkpt lat="44.7873067" lon="9.4105133"><ele>237.0</ele><time>2026-04-06T07:41:48.598Z</time></trkpt><trkpt lat="44.787145" lon="9.410295"><ele>237.0</ele><time>2026-04-06T07:41:49.599Z</time></trkpt><trkpt lat="44.7869767" lon="9.4100767"><ele>237.0</ele><time>2026-04-06T07:41:50.601Z</time></trkpt><trkpt lat="44.7868067" lon="9.4098583"><ele>241.5</ele><time>2026-04-06T07:41:51.601Z</time></trkpt><trkpt lat="44.786635" lon="9.40964"><ele>246.0</ele><time>2026-04-06T07:41:52.599Z</time></trkpt><trkpt lat="44.7864667" lon="9.4094167"><ele>246.0</ele><time>2026-04-06T07:41:53.601Z</time></trkpt><trkpt lat="44.786295" lon="9.4091917"><ele>246.0</ele><time>2026-04-06T07:41:54.599Z</time></trkpt><trkpt lat="44.7861267" lon="9.40897"><ele>246.0</ele><time>2026-04-06T07:41:55.599Z</time></trkpt><trkpt lat="44.785965" lon="9.4087583"><ele>246.0</ele><time>2026-04-06T07:41:56.599Z</time></trkpt><trkpt lat="44.7858067" lon="9.4085533"><ele>246.0</ele><time>2026-04-06T07:41:57.599Z</time></trkpt><trkpt lat="44.7856517" lon="9.40835"><ele>246.0</ele><time>2026-04-06T07:41:58.597Z</time></trkpt><trkpt lat="44.7854933" lon="9.408145"><ele>246.0</ele><time>2026-04-06T07:41:59.598Z</time></trkpt><trkpt lat="44.7853383" lon="9.4079383"><ele>246.0</ele><time>2026-04-06T07:42:00.597Z</time></trkpt><trkpt lat="44.7851833" lon="9.4077317"><ele>246.0</ele><time>2026-04-06T07:42:01.598Z</time></trkpt><trkpt lat="44.7850283" lon="9.4075267"><ele>246.0</ele><time>2026-04-06T07:42:02.599Z</time></trkpt><trkpt lat="44.7848783" lon="9.4073217"><ele>246.0</ele><time>2026-04-06T07:42:03.599Z</time></trkpt><trkpt lat="44.7847317" lon="9.407115"><ele>246.0</ele><time>2026-04-06T07:42:04.599Z</time></trkpt><trkpt lat="44.7845883" lon="9.4069067"><ele>246.0</ele><time>2026-04-06T07:42:05.6Z</time></trkpt><trkpt lat="44.784445" lon="9.4066967"><ele>246.0</ele><time>2026-04-06T07:42:06.599Z</time></trkpt><trkpt lat="44.7842967" lon="9.4064783"><ele>245.33333333333331</ele><time>2026-04-06T07:42:07.598Z</time></trkpt><trkpt lat="44.7841433" lon="9.4062583"><ele>244.66666666666666</ele><time>2026-04-06T07:42:08.597Z</time></trkpt><trkpt lat="44.7839867" lon="9.4060367"><ele>244.0</ele><time>2026-04-06T07:42:09.598Z</time></trkpt><trkpt lat="44.78383" lon="9.4058167"><ele>244.0</ele><time>2026-04-06T07:42:10.598Z</time></trkpt><trkpt lat="44.78367" lon="9.405595"><ele>244.0</ele><time>2026-04-06T07:42:11.598Z</time></trkpt><trkpt lat="44.7835117" lon="9.4053717"><ele>244.0</ele><time>2026-04-06T07:42:12.599Z</time></trkpt><trkpt lat="44.7833533" lon="9.405145"><ele>242.5</ele><time>2026-04-06T07:42:13.598Z</time></trkpt><trkpt lat="44.7831967" lon="9.4049167"><ele>241.0</ele><time>2026-04-06T07:42:14.598Z</time></trkpt><trkpt lat="44.78304" lon="9.40469"><ele>241.0</ele><time>2026-04-06T07:42:15.597Z</time></trkpt><trkpt lat="44.7828833" lon="9.4044617"><ele>241.0</ele><time>2026-04-06T07:42:16.598Z</time></trkpt><trkpt lat="44.7827267" lon="9.40423"><ele>242.0</ele><time>2026-04-06T07:42:17.597Z</time></trkpt><trkpt lat="44.7825683" lon="9.4040017"><ele>243.0</ele><time>2026-04-06T07:42:18.598Z</time></trkpt><trkpt lat="44.7824083" lon="9.403775"><ele>243.5</ele><time>2026-04-06T07:42:19.599Z</time></trkpt><trkpt lat="44.7822467" lon="9.4035433"><ele>244.0</ele><time>2026-04-06T07:42:20.598Z</time></trkpt><trkpt lat="44.78208" lon="9.4033067"><ele>244.0</ele><time>2026-04-06T07:42:21.598Z</time></trkpt><trkpt lat="44.78191" lon="9.403065"><ele>244.0</ele><time>2026-04-06T07:42:22.599Z</time></trkpt><trkpt lat="44.7817367" lon="9.40282"><ele>245.5</ele><time>2026-04-06T07:42:23.598Z</time></trkpt><trkpt lat="44.7815617" lon="9.4025733"><ele>247.0</ele><time>2026-04-06T07:42:24.598Z</time></trkpt><trkpt lat="44.7813883" lon="9.402325"><ele>250.0</ele><time>2026-04-06T07:42:25.599Z</time></trkpt><trkpt lat="44.7812183" lon="9.4020767"><ele>253.0</ele><time>2026-04-06T07:42:26.6Z</time></trkpt><trkpt lat="44.78105" lon="9.401825"><ele>254.0</ele><time>2026-04-06T07:42:27.599Z</time></trkpt><trkpt lat="44.7808867" lon="9.4015733"><ele>255.0</ele><time>2026-04-06T07:42:28.599Z</time></trkpt><trkpt lat="44.7807283" lon="9.4013233"><ele>255.0</ele><time>2026-04-06T07:42:29.599Z</time></trkpt><trkpt lat="44.7805767" lon="9.4010683"><ele>255.0</ele><time>2026-04-06T07:42:30.598Z</time></trkpt><trkpt lat="44.7804417" lon="9.400805"><ele>255.0</ele><time>2026-04-06T07:42:31.598Z</time></trkpt><trkpt lat="44.78032" lon="9.4005317"><ele>255.0</ele><time>2026-04-06T07:42:32.599Z</time></trkpt><trkpt lat="44.78021" lon="9.4002483"><ele>256.0</ele><time>2026-04-06T07:42:33.597Z</time></trkpt><trkpt lat="44.7801133" lon="9.3999567"><ele>257.0</ele><time>2026-04-06T07:42:34.598Z</time></trkpt><trkpt lat="44.7800283" lon="9.3996567"><ele>257.0</ele><time>2026-04-06T07:42:35.598Z</time></trkpt><trkpt lat="44.7799567" lon="9.3993483"><ele>257.0</ele><time>2026-04-06T07:42:36.598Z</time></trkpt><trkpt lat="44.7798983" lon="9.3990333"><ele>258.5</ele><time>2026-04-06T07:42:37.597Z</time></trkpt><trkpt lat="44.779855" lon="9.3987183"><ele>260.0</ele><time>2026-04-06T07:42:38.599Z</time></trkpt><trkpt lat="44.7798283" lon="9.398395"><ele>260.0</ele><time>2026-04-06T07:42:39.599Z</time></trkpt><trkpt lat="44.7798067" lon="9.39807"><ele>260.0</ele><time>2026-04-06T07:42:40.598Z</time></trkpt><trkpt lat="44.779785" lon="9.3977467"><ele>260.5</ele><time>2026-04-06T07:42:41.599Z</time></trkpt><trkpt lat="44.7797633" lon="9.3974233"><ele>261.0</ele><time>2026-04-06T07:42:42.599Z</time></trkpt><trkpt lat="44.7797383" lon="9.3971067"><ele>264.0</ele><time>2026-04-06T07:42:43.598Z</time></trkpt><trkpt lat="44.7797083" lon="9.39679"><ele>267.0</ele><time>2026-04-06T07:42:44.599Z</time></trkpt><trkpt lat="44.77967" lon="9.3964783"><ele>269.6666666666667</ele><time>2026-04-06T07:42:45.598Z</time></trkpt><trkpt lat="44.7796217" lon="9.3961733"><ele>272.33333333333337</ele><time>2026-04-06T07:42:46.598Z</time></trkpt><trkpt lat="44.7795667" lon="9.3958717"><ele>275.0</ele><time>2026-04-06T07:42:47.599Z</time></trkpt><trkpt lat="44.7795033" lon="9.3955717"><ele>276.6666666666667</ele><time>2026-04-06T07:42:48.598Z</time></trkpt><trkpt lat="44.7794333" lon="9.3952783"><ele>278.3333333333333</ele><time>2026-04-06T07:42:49.598Z</time></trkpt><trkpt lat="44.7793583" lon="9.3949867"><ele>280.0</ele><time>2026-04-06T07:42:50.597Z</time></trkpt><trkpt lat="44.7792733" lon="9.3946967"><ele>271.0</ele><time>2026-04-06T07:42:51.598Z</time></trkpt><trkpt lat="44.7791817" lon="9.3944083"><ele>262.0</ele><time>2026-04-06T07:42:52.599Z</time></trkpt><trkpt lat="44.7790817" lon="9.394125"><ele>253.0</ele><time>2026-04-06T07:42:53.598Z</time></trkpt><trkpt lat="44.778975" lon="9.3938483"><ele>256.66666666666663</ele><time>2026-04-06T07:42:54.598Z</time></trkpt><trkpt lat="44.7788583" lon="9.3935817"><ele>260.3333333333333</ele><time>2026-04-06T07:42:55.598Z</time></trkpt><trkpt lat="44.778735" lon="9.39332"><ele>264.0</ele><time>2026-04-06T07:42:56.599Z</time></trkpt><trkpt lat="44.7786083" lon="9.3930633"><ele>261.0</ele><time>2026-04-06T07:42:57.598Z</time></trkpt><trkpt lat="44.7784767" lon="9.3928167"><ele>258.0</ele><time>2026-04-06T07:42:58.597Z</time></trkpt><trkpt lat="44.778335" lon="9.39258"><ele>255.0</ele><time>2026-04-06T07:42:59.599Z</time></trkpt><trkpt lat="44.7781917" lon="9.3923533"><ele>263.3333333333333</ele><time>2026-04-06T07:43:00.597Z</time></trkpt><trkpt lat="44.77804" lon="9.392135"><ele>271.66666666666663</ele><time>2026-04-06T07:43:01.598Z</time></trkpt><trkpt lat="44.77788" lon="9.3919283"><ele>280.0</ele><time>2026-04-06T07:43:02.598Z</time></trkpt><trkpt lat="44.777715" lon="9.3917333"><ele>278.66666666666663</ele><time>2026-04-06T07:43:03.598Z</time></trkpt><trkpt lat="44.777545" lon="9.3915433"><ele>277.3333333333333</ele><time>2026-04-06T07:43:04.599Z</time></trkpt><trkpt lat="44.77737" lon="9.39136"><ele>276.0</ele><time>2026-04-06T07:43:05.598Z</time></trkpt><trkpt lat="44.77719" lon="9.3911817"><ele>276.0</ele><time>2026-04-06T07:43:06.599Z</time></trkpt><trkpt lat="44.77701" lon="9.3910083"><ele>276.0</ele><time>2026-04-06T07:43:07.598Z</time></trkpt><trkpt lat="44.7768267" lon="9.3908367"><ele>276.0</ele><time>2026-04-06T07:43:08.598Z</time></trkpt><trkpt lat="44.7766467" lon="9.3906667"><ele>274.0</ele><time>2026-04-06T07:43:09.598Z</time></trkpt><trkpt lat="44.77648" lon="9.3905067"><ele>272.0</ele><time>2026-04-06T07:43:10.599Z</time></trkpt><trkpt lat="44.7763217" lon="9.3903533"><ele>270.0</ele><time>2026-04-06T07:43:11.597Z</time></trkpt><trkpt lat="44.7761633" lon="9.3902033"><ele>264.6666666666667</ele><time>2026-04-06T07:43:12.599Z</time></trkpt><trkpt lat="44.7760033" lon="9.3900517"><ele>259.33333333333337</ele><time>2026-04-06T07:43:13.597Z</time></trkpt><trkpt lat="44.7758333" lon="9.3899133"><ele>254.0</ele><time>2026-04-06T07:43:14.598Z</time></trkpt><trkpt lat="44.7756533" lon="9.38979"><ele>254.0</ele><time>2026-04-06T07:43:15.599Z</time></trkpt><trkpt lat="44.7754633" lon="9.3896833"><ele>254.0</ele><time>2026-04-06T07:43:16.597Z</time></trkpt><trkpt lat="44.77527" lon="9.389595"><ele>254.0</ele><time>2026-04-06T07:43:17.598Z</time></trkpt><trkpt lat="44.7750683" lon="9.3895233"><ele>254.33333333333334</ele><time>2026-04-06T07:43:18.598Z</time></trkpt><trkpt lat="44.7748617" lon="9.3894683"><ele>254.66666666666669</ele><time>2026-04-06T07:43:19.598Z</time></trkpt><trkpt lat="44.7746533" lon="9.389435"><ele>255.0</ele><time>2026-04-06T07:43:20.6Z</time></trkpt><trkpt lat="44.7744433" lon="9.3894217"><ele>255.0</ele><time>2026-04-06T07:43:21.598Z</time></trkpt><trkpt lat="44.7742317" lon="9.3894233"><ele>255.0</ele><time>2026-04-06T07:43:22.598Z</time></trkpt><trkpt lat="44.7740283" lon="9.3894333"><ele>255.0</ele><time>2026-04-06T07:43:23.599Z</time></trkpt><trkpt lat="44.7738367" lon="9.3894433"><ele>255.0</ele><time>2026-04-06T07:43:24.599Z</time></trkpt><trkpt lat="44.7736533" lon="9.3894517"><ele>255.0</ele><time>2026-04-06T07:43:25.598Z</time></trkpt><trkpt lat="44.7734817" lon="9.389455"><ele>255.0</ele><time>2026-04-06T07:43:26.599Z</time></trkpt><trkpt lat="44.77332" lon="9.389455"><ele>256.6666666666667</ele><time>2026-04-06T07:43:27.598Z</time></trkpt><trkpt lat="44.7731617" lon="9.3894433"><ele>258.33333333333337</ele><time>2026-04-06T07:43:28.598Z</time></trkpt><trkpt lat="44.773005" lon="9.3894217"><ele>260.0</ele><time>2026-04-06T07:43:29.598Z</time></trkpt><trkpt lat="44.7728483" lon="9.3893917"><ele>260.0</ele><time>2026-04-06T07:43:30.598Z</time></trkpt><trkpt lat="44.77269" lon="9.38935"><ele>260.0</ele><time>2026-04-06T07:43:31.598Z</time></trkpt><trkpt lat="44.772525" lon="9.3892933"><ele>260.0</ele><time>2026-04-06T07:43:32.598Z</time></trkpt><trkpt lat="44.7723583" lon="9.3892217"><ele>259.6666666666667</ele><time>2026-04-06T07:43:33.597Z</time></trkpt><trkpt lat="44.7721883" lon="9.38915"><ele>259.3333333333333</ele><time>2026-04-06T07:43:34.597Z</time></trkpt><trkpt lat="44.772015" lon="9.3890783"><ele>259.0</ele><time>2026-04-06T07:43:35.597Z</time></trkpt><trkpt lat="44.7718333" lon="9.389005"><ele>257.66666666666663</ele><time>2026-04-06T07:43:36.599Z</time></trkpt><trkpt lat="44.7716483" lon="9.388935"><ele>256.3333333333333</ele><time>2026-04-06T07:43:37.599Z</time></trkpt><trkpt lat="44.7714633" lon="9.3888633"><ele>255.0</ele><time>2026-04-06T07:43:38.597Z</time></trkpt><trkpt lat="44.7712833" lon="9.3887883"><ele>257.3333333333333</ele><time>2026-04-06T07:43:39.597Z</time></trkpt><trkpt lat="44.7711017" lon="9.388715"><ele>259.66666666666663</ele><time>2026-04-06T07:43:40.598Z</time></trkpt><trkpt lat="44.7709217" lon="9.3886417"><ele>262.0</ele><time>2026-04-06T07:43:41.598Z</time></trkpt><trkpt lat="44.7707483" lon="9.388575"><ele>262.0</ele><time>2026-04-06T07:43:42.598Z</time></trkpt><trkpt lat="44.7705783" lon="9.38852"><ele>262.0</ele><time>2026-04-06T07:43:43.597Z</time></trkpt><trkpt lat="44.7704117" lon="9.3884767"><ele>262.0</ele><time>2026-04-06T07:43:44.599Z</time></trkpt><trkpt lat="44.7702433" lon="9.3884383"><ele>261.0</ele><time>2026-04-06T07:43:45.599Z</time></trkpt><trkpt lat="44.7700717" lon="9.3884083"><ele>260.0</ele><time>2026-04-06T07:43:46.598Z</time></trkpt><trkpt lat="44.7699" lon="9.38839"><ele>259.0</ele><time>2026-04-06T07:43:47.597Z</time></trkpt><trkpt lat="44.7697317" lon="9.3883833"><ele>259.0</ele><time>2026-04-06T07:43:48.598Z</time></trkpt><trkpt lat="44.7695683" lon="9.3883833"><ele>259.0</ele><time>2026-04-06T07:43:49.598Z</time></trkpt><trkpt lat="44.76941" lon="9.3883917"><ele>259.0</ele><time>2026-04-06T07:43:50.599Z</time></trkpt><trkpt lat="44.76925" lon="9.3884117"><ele>260.66666666666663</ele><time>2026-04-06T07:43:51.598Z</time></trkpt><trkpt lat="44.7690917" lon="9.3884417"><ele>262.3333333333333</ele><time>2026-04-06T07:43:52.598Z</time></trkpt><trkpt lat="44.7689417" lon="9.3884783"><ele>264.0</ele><time>2026-04-06T07:43:53.598Z</time></trkpt><trkpt lat="44.7687967" lon="9.3885167"><ele>264.0</ele><time>2026-04-06T07:43:54.598Z</time></trkpt><trkpt lat="44.76866" lon="9.3885533"><ele>264.0</ele><time>2026-04-06T07:43:55.6Z</time></trkpt><trkpt lat="44.768535" lon="9.3885917"><ele>264.0</ele><time>2026-04-06T07:43:56.603Z</time></trkpt><trkpt lat="44.7684133" lon="9.3886283"><ele>264.0</ele><time>2026-04-06T07:43:57.599Z</time></trkpt><trkpt lat="44.7683017" lon="9.38866"><ele>263.59999999999997</ele><time>2026-04-06T07:43:58.6Z</time></trkpt><trkpt lat="44.7681933" lon="9.38869"><ele>263.2</ele><time>2026-04-06T07:43:59.599Z</time></trkpt><trkpt lat="44.7680917" lon="9.3887183"><ele>262.79999999999995</ele><time>2026-04-06T07:44:00.598Z</time></trkpt><trkpt lat="44.7679933" lon="9.3887467"><ele>262.4</ele><time>2026-04-06T07:44:01.598Z</time></trkpt><trkpt lat="44.7679017" lon="9.3887733"><ele>262.0</ele><time>2026-04-06T07:44:02.599Z</time></trkpt><trkpt lat="44.7678183" lon="9.3887967"><ele>262.0</ele><time>2026-04-06T07:44:03.598Z</time></trkpt><trkpt lat="44.76775" lon="9.3888117"><ele>262.0</ele><time>2026-04-06T07:44:04.599Z</time></trkpt><trkpt lat="44.7676617" lon="9.38883"><ele>262.0</ele><time>2026-04-06T07:44:06.599Z</time></trkpt><trkpt lat="44.7675567" lon="9.388885"><ele>262.0</ele><time>2026-04-06T07:48:17.6Z</time></trkpt><trkpt lat="44.7674833" lon="9.3889117"><ele>262.0</ele><time>2026-04-06T07:48:18.6Z</time></trkpt><trkpt lat="44.7673983" lon="9.3889433"><ele>262.0</ele><time>2026-04-06T07:48:19.601Z</time></trkpt><trkpt lat="44.7673017" lon="9.3889767"><ele>261.25</ele><time>2026-04-06T07:48:20.6Z</time></trkpt><trkpt lat="44.7671917" lon="9.3890167"><ele>260.5</ele><time>2026-04-06T07:48:21.601Z</time></trkpt><trkpt lat="44.7670683" lon="9.38906"><ele>259.75</ele><time>2026-04-06T07:48:22.6Z</time></trkpt><trkpt lat="44.7669367" lon="9.389105"><ele>259.0</ele><time>2026-04-06T07:48:23.598Z</time></trkpt><trkpt lat="44.766805" lon="9.389145"><ele>259.0</ele><time>2026-04-06T07:48:24.598Z</time></trkpt><trkpt lat="44.7666817" lon="9.3891783"><ele>259.0</ele><time>2026-04-06T07:48:25.598Z</time></trkpt><trkpt lat="44.7665583" lon="9.3892033"><ele>259.0</ele><time>2026-04-06T07:48:26.598Z</time></trkpt><trkpt lat="44.766435" lon="9.3892133"><ele>259.0</ele><time>2026-04-06T07:48:27.598Z</time></trkpt><trkpt lat="44.766305" lon="9.3892083"><ele>259.0</ele><time>2026-04-06T07:48:28.599Z</time></trkpt><trkpt lat="44.76617" lon="9.3891833"><ele>259.0</ele><time>2026-04-06T07:48:29.598Z</time></trkpt><trkpt lat="44.7660383" lon="9.389145"><ele>259.0</ele><time>2026-04-06T07:48:30.599Z</time></trkpt><trkpt lat="44.7659133" lon="9.3890883"><ele>259.0</ele><time>2026-04-06T07:48:31.598Z</time></trkpt><trkpt lat="44.76579" lon="9.3890083"><ele>258.5</ele><time>2026-04-06T07:48:32.599Z</time></trkpt><trkpt lat="44.7656683" lon="9.3889117"><ele>258.0</ele><time>2026-04-06T07:48:33.597Z</time></trkpt><trkpt lat="44.7655517" lon="9.38879"><ele>257.5</ele><time>2026-04-06T07:48:34.597Z</time></trkpt><trkpt lat="44.7654383" lon="9.38865"><ele>257.0</ele><time>2026-04-06T07:48:35.599Z</time></trkpt><trkpt lat="44.765335" lon="9.3884883"><ele>257.0</ele><time>2026-04-06T07:48:36.598Z</time></trkpt><trkpt lat="44.7652383" lon="9.3883067"><ele>257.0</ele><time>2026-04-06T07:48:37.602Z</time></trkpt><trkpt lat="44.7651417" lon="9.3881133"><ele>257.0</ele><time>2026-04-06T07:48:38.599Z</time></trkpt><trkpt lat="44.765045" lon="9.3879167"><ele>257.0</ele><time>2026-04-06T07:48:39.599Z</time></trkpt><trkpt lat="44.76495" lon="9.38772"><ele>257.0</ele><time>2026-04-06T07:48:40.598Z</time></trkpt><trkpt lat="44.7648567" lon="9.3875317"><ele>257.0</ele><time>2026-04-06T07:48:41.598Z</time></trkpt><trkpt lat="44.7647667" lon="9.387345"><ele>259.0</ele><time>2026-04-06T07:48:42.598Z</time></trkpt><trkpt lat="44.7646767" lon="9.3871633"><ele>261.0</ele><time>2026-04-06T07:48:43.598Z</time></trkpt><trkpt lat="44.76459" lon="9.3869867"><ele>263.0</ele><time>2026-04-06T07:48:44.599Z</time></trkpt><trkpt lat="44.7645083" lon="9.3868167"><ele>263.0</ele><time>2026-04-06T07:48:45.598Z</time></trkpt><trkpt lat="44.764435" lon="9.3866517"><ele>263.0</ele><time>2026-04-06T07:48:46.598Z</time></trkpt><trkpt lat="44.7643683" lon="9.3864883"><ele>263.0</ele><time>2026-04-06T07:48:47.599Z</time></trkpt><trkpt lat="44.7642983" lon="9.3863167"><ele>263.0</ele><time>2026-04-06T07:48:48.6Z</time></trkpt><trkpt lat="44.7642217" lon="9.3861417"><ele>264.0</ele><time>2026-04-06T07:48:49.6Z</time></trkpt><trkpt lat="44.7641383" lon="9.385965"><ele>265.0</ele><time>2026-04-06T07:48:50.601Z</time></trkpt><trkpt lat="44.7640517" lon="9.385785"><ele>266.0</ele><time>2026-04-06T07:48:51.601Z</time></trkpt><trkpt lat="44.7639633" lon="9.3856033"><ele>271.0</ele><time>2026-04-06T07:48:52.601Z</time></trkpt><trkpt lat="44.7638767" lon="9.3854217"><ele>276.0</ele><time>2026-04-06T07:48:53.601Z</time></trkpt><trkpt lat="44.7637883" lon="9.3852367"><ele>281.0</ele><time>2026-04-06T07:48:54.598Z</time></trkpt><trkpt lat="44.7637017" lon="9.3850467"><ele>281.0</ele><time>2026-04-06T07:48:55.598Z</time></trkpt><trkpt lat="44.763615" lon="9.3848567"><ele>281.0</ele><time>2026-04-06T07:48:56.598Z</time></trkpt><trkpt lat="44.7635283" lon="9.3846683"><ele>281.0</ele><time>2026-04-06T07:48:57.598Z</time></trkpt><trkpt lat="44.76344" lon="9.3844833"><ele>276.6666666666667</ele><time>2026-04-06T07:48:58.598Z</time></trkpt><trkpt lat="44.7633483" lon="9.3842967"><ele>272.3333333333333</ele><time>2026-04-06T07:48:59.598Z</time></trkpt><trkpt lat="44.7632533" lon="9.38411"><ele>268.0</ele><time>2026-04-06T07:49:00.597Z</time></trkpt><trkpt lat="44.7631517" lon="9.38393"><ele>270.66666666666663</ele><time>2026-04-06T07:49:01.597Z</time></trkpt><trkpt lat="44.7630383" lon="9.38376"><ele>273.3333333333333</ele><time>2026-04-06T07:49:02.599Z</time></trkpt><trkpt lat="44.7629133" lon="9.3836017"><ele>276.0</ele><time>2026-04-06T07:49:03.597Z</time></trkpt><trkpt lat="44.76278" lon="9.383455"><ele>271.6666666666667</ele><time>2026-04-06T07:49:04.598Z</time></trkpt><trkpt lat="44.7626367" lon="9.3833233"><ele>267.33333333333337</ele><time>2026-04-06T07:49:05.598Z</time></trkpt><trkpt lat="44.7624867" lon="9.3832067"><ele>263.0</ele><time>2026-04-06T07:49:06.597Z</time></trkpt><trkpt lat="44.7623333" lon="9.3830967"><ele>263.0</ele><time>2026-04-06T07:49:07.598Z</time></trkpt><trkpt lat="44.7621733" lon="9.3829883"><ele>263.0</ele><time>2026-04-06T07:49:08.599Z</time></trkpt><trkpt lat="44.762005" lon="9.38288"><ele>263.0</ele><time>2026-04-06T07:49:09.598Z</time></trkpt><trkpt lat="44.76183" lon="9.382765"><ele>263.0</ele><time>2026-04-06T07:49:10.598Z</time></trkpt><trkpt lat="44.761655" lon="9.382645"><ele>263.0</ele><time>2026-04-06T07:49:11.599Z</time></trkpt><trkpt lat="44.7614833" lon="9.3825267"><ele>263.0</ele><time>2026-04-06T07:49:12.598Z</time></trkpt><trkpt lat="44.761315" lon="9.3824117"><ele>263.0</ele><time>2026-04-06T07:49:13.599Z</time></trkpt><trkpt lat="44.7611483" lon="9.3823017"><ele>263.0</ele><time>2026-04-06T07:49:14.598Z</time></trkpt><trkpt lat="44.7609833" lon="9.38219"><ele>263.0</ele><time>2026-04-06T07:49:15.598Z</time></trkpt><trkpt lat="44.7608217" lon="9.3820717"><ele>264.6666666666667</ele><time>2026-04-06T07:49:16.598Z</time></trkpt><trkpt lat="44.7606567" lon="9.381955"><ele>266.3333333333333</ele><time>2026-04-06T07:49:17.598Z</time></trkpt><trkpt lat="44.76049" lon="9.38185"><ele>268.0</ele><time>2026-04-06T07:49:18.598Z</time></trkpt><trkpt lat="44.76032" lon="9.3817633"><ele>267.3333333333333</ele><time>2026-04-06T07:49:19.599Z</time></trkpt><trkpt lat="44.7601467" lon="9.38169"><ele>266.6666666666667</ele><time>2026-04-06T07:49:20.599Z</time></trkpt><trkpt lat="44.75997" lon="9.38164"><ele>266.0</ele><time>2026-04-06T07:49:21.598Z</time></trkpt><trkpt lat="44.75979" lon="9.38162"><ele>266.0</ele><time>2026-04-06T07:49:22.599Z</time></trkpt><trkpt lat="44.7596083" lon="9.3816233"><ele>266.0</ele><time>2026-04-06T07:49:23.601Z</time></trkpt><trkpt lat="44.75943" lon="9.3816417"><ele>266.0</ele><time>2026-04-06T07:49:24.597Z</time></trkpt><trkpt lat="44.7592517" lon="9.3816667"><ele>266.0</ele><time>2026-04-06T07:49:25.598Z</time></trkpt><trkpt lat="44.759075" lon="9.381695"><ele>266.0</ele><time>2026-04-06T07:49:26.6Z</time></trkpt><trkpt lat="44.7589" lon="9.3817233"><ele>266.0</ele><time>2026-04-06T07:49:27.598Z</time></trkpt><trkpt lat="44.758725" lon="9.3817517"><ele>266.0</ele><time>2026-04-06T07:49:28.598Z</time></trkpt><trkpt lat="44.75855" lon="9.3817817"><ele>266.0</ele><time>2026-04-06T07:49:29.598Z</time></trkpt><trkpt lat="44.7583733" lon="9.3818117"><ele>266.0</ele><time>2026-04-06T07:49:30.598Z</time></trkpt><trkpt lat="44.7582" lon="9.381845"><ele>266.33333333333337</ele><time>2026-04-06T07:49:31.599Z</time></trkpt><trkpt lat="44.758025" lon="9.3818767"><ele>266.6666666666667</ele><time>2026-04-06T07:49:32.598Z</time></trkpt><trkpt lat="44.75785" lon="9.3819067"><ele>267.0</ele><time>2026-04-06T07:49:33.598Z</time></trkpt><trkpt lat="44.757675" lon="9.3819367"><ele>267.6666666666667</ele><time>2026-04-06T07:49:34.599Z</time></trkpt><trkpt lat="44.7574967" lon="9.3819667"><ele>268.33333333333337</ele><time>2026-04-06T07:49:35.598Z</time></trkpt><trkpt lat="44.7573183" lon="9.3819967"><ele>269.0</ele><time>2026-04-06T07:49:36.598Z</time></trkpt><trkpt lat="44.75714" lon="9.3820233"><ele>269.0</ele><time>2026-04-06T07:49:37.599Z</time></trkpt><trkpt lat="44.7569633" lon="9.382045"><ele>269.0</ele><time>2026-04-06T07:49:38.599Z</time></trkpt><trkpt lat="44.756785" lon="9.3820483"><ele>269.0</ele><time>2026-04-06T07:49:39.598Z</time></trkpt><trkpt lat="44.7566083" lon="9.3820317"><ele>269.6666666666667</ele><time>2026-04-06T07:49:40.598Z</time></trkpt><trkpt lat="44.7564333" lon="9.38199"><ele>270.3333333333333</ele><time>2026-04-06T07:49:41.597Z</time></trkpt><trkpt lat="44.75626" lon="9.3819167"><ele>271.0</ele><time>2026-04-06T07:49:42.598Z</time></trkpt><trkpt lat="44.7560917" lon="9.3818233"><ele>270.66666666666663</ele><time>2026-04-06T07:49:43.598Z</time></trkpt><trkpt lat="44.7559283" lon="9.3817033"><ele>270.3333333333333</ele><time>2026-04-06T07:49:44.597Z</time></trkpt><trkpt lat="44.755765" lon="9.38156"><ele>270.0</ele><time>2026-04-06T07:49:45.598Z</time></trkpt><trkpt lat="44.7555933" lon="9.3814083"><ele>270.3333333333333</ele><time>2026-04-06T07:49:46.598Z</time></trkpt><trkpt lat="44.75542" lon="9.3812517"><ele>270.66666666666663</ele><time>2026-04-06T07:49:47.598Z</time></trkpt><trkpt lat="44.75525" lon="9.3811"><ele>271.0</ele><time>2026-04-06T07:49:48.598Z</time></trkpt><trkpt lat="44.7550867" lon="9.380955"><ele>271.0</ele><time>2026-04-06T07:49:49.598Z</time></trkpt><trkpt lat="44.75493" lon="9.3808117"><ele>271.0</ele><time>2026-04-06T07:49:50.598Z</time></trkpt><trkpt lat="44.754775" lon="9.38067"><ele>271.0</ele><time>2026-04-06T07:49:51.598Z</time></trkpt><trkpt lat="44.75462" lon="9.38053"><ele>271.0</ele><time>2026-04-06T07:49:52.597Z</time></trkpt><trkpt lat="44.7544633" lon="9.38039"><ele>271.0</ele><time>2026-04-06T07:49:53.598Z</time></trkpt><trkpt lat="44.7543083" lon="9.3802533"><ele>271.0</ele><time>2026-04-06T07:49:54.599Z</time></trkpt><trkpt lat="44.7541517" lon="9.38013"><ele>271.0</ele><time>2026-04-06T07:49:55.597Z</time></trkpt><trkpt lat="44.753985" lon="9.3800267"><ele>271.0</ele><time>2026-04-06T07:49:56.598Z</time></trkpt><trkpt lat="44.7538067" lon="9.3799533"><ele>271.0</ele><time>2026-04-06T07:49:57.597Z</time></trkpt><trkpt lat="44.75362" lon="9.379905"><ele>268.66666666666663</ele><time>2026-04-06T07:49:58.599Z</time></trkpt><trkpt lat="44.7534217" lon="9.3798817"><ele>266.3333333333333</ele><time>2026-04-06T07:49:59.598Z</time></trkpt><trkpt lat="44.7532083" lon="9.379875"><ele>264.0</ele><time>2026-04-06T07:50:00.599Z</time></trkpt><trkpt lat="44.7529783" lon="9.379865"><ele>264.0</ele><time>2026-04-06T07:50:01.598Z</time></trkpt><trkpt lat="44.7527433" lon="9.3798417"><ele>264.0</ele><time>2026-04-06T07:50:02.597Z</time></trkpt><trkpt lat="44.7525017" lon="9.3798117"><ele>263.0</ele><time>2026-04-06T07:50:03.598Z</time></trkpt><trkpt lat="44.75226" lon="9.3797833"><ele>262.0</ele><time>2026-04-06T07:50:04.598Z</time></trkpt><trkpt lat="44.75202" lon="9.3797567"><ele>263.5</ele><time>2026-04-06T07:50:05.598Z</time></trkpt><trkpt lat="44.7517817" lon="9.3797333"><ele>265.0</ele><time>2026-04-06T07:50:06.599Z</time></trkpt><trkpt lat="44.751545" lon="9.37971"><ele>265.0</ele><time>2026-04-06T07:50:07.599Z</time></trkpt><trkpt lat="44.75131" lon="9.37969"><ele>265.0</ele><time>2026-04-06T07:50:08.6Z</time></trkpt><trkpt lat="44.7510783" lon="9.3796683"><ele>265.66666666666663</ele><time>2026-04-06T07:50:09.598Z</time></trkpt><trkpt lat="44.75086" lon="9.37965"><ele>266.3333333333333</ele><time>2026-04-06T07:50:10.598Z</time></trkpt><trkpt lat="44.7506533" lon="9.379635"><ele>267.0</ele><time>2026-04-06T07:50:11.597Z</time></trkpt><trkpt lat="44.7504517" lon="9.3796267"><ele>267.0</ele><time>2026-04-06T07:50:12.6Z</time></trkpt><trkpt lat="44.7502517" lon="9.3796433"><ele>267.0</ele><time>2026-04-06T07:50:13.598Z</time></trkpt><trkpt lat="44.7500483" lon="9.3796917"><ele>267.0</ele><time>2026-04-06T07:50:14.598Z</time></trkpt><trkpt lat="44.7498517" lon="9.3797717"><ele>268.0</ele><time>2026-04-06T07:50:15.597Z</time></trkpt><trkpt lat="44.7496667" lon="9.3798917"><ele>269.0</ele><time>2026-04-06T07:50:16.597Z</time></trkpt><trkpt lat="44.7494917" lon="9.38005"><ele>270.0</ele><time>2026-04-06T07:50:17.598Z</time></trkpt><trkpt lat="44.7493267" lon="9.380235"><ele>272.0</ele><time>2026-04-06T07:50:18.598Z</time></trkpt><trkpt lat="44.749175" lon="9.3804467"><ele>274.0</ele><time>2026-04-06T07:50:19.597Z</time></trkpt><trkpt lat="44.7490383" lon="9.380685"><ele>276.0</ele><time>2026-04-06T07:50:20.598Z</time></trkpt><trkpt lat="44.74892" lon="9.3809417"><ele>279.0</ele><time>2026-04-06T07:50:21.598Z</time></trkpt><trkpt lat="44.7488267" lon="9.381215"><ele>282.0</ele><time>2026-04-06T07:50:22.597Z</time></trkpt><trkpt lat="44.74877" lon="9.3815067"><ele>285.0</ele><time>2026-04-06T07:50:23.597Z</time></trkpt><trkpt lat="44.7487417" lon="9.3818083"><ele>289.6666666666667</ele><time>2026-04-06T07:50:24.598Z</time></trkpt><trkpt lat="44.7487383" lon="9.3821167"><ele>294.33333333333337</ele><time>2026-04-06T07:50:25.598Z</time></trkpt><trkpt lat="44.7487567" lon="9.3824233"><ele>299.0</ele><time>2026-04-06T07:50:26.598Z</time></trkpt><trkpt lat="44.7487933" lon="9.382725"><ele>301.6666666666667</ele><time>2026-04-06T07:50:27.599Z</time></trkpt><trkpt lat="44.7488367" lon="9.3830217"><ele>304.3333333333333</ele><time>2026-04-06T07:50:28.598Z</time></trkpt><trkpt lat="44.7488817" lon="9.3833183"><ele>307.0</ele><time>2026-04-06T07:50:29.601Z</time></trkpt><trkpt lat="44.74892" lon="9.383615"><ele>308.66666666666663</ele><time>2026-04-06T07:50:30.6Z</time></trkpt><trkpt lat="44.7489467" lon="9.38391"><ele>310.3333333333333</ele><time>2026-04-06T07:50:31.599Z</time></trkpt><trkpt lat="44.74896" lon="9.38421"><ele>312.0</ele><time>2026-04-06T07:50:32.598Z</time></trkpt><trkpt lat="44.748965" lon="9.3845183"><ele>311.0</ele><time>2026-04-06T07:50:33.598Z</time></trkpt><trkpt lat="44.7489667" lon="9.3848267"><ele>310.0</ele><time>2026-04-06T07:50:34.598Z</time></trkpt><trkpt lat="44.7489667" lon="9.3851267"><ele>309.0</ele><time>2026-04-06T07:50:35.599Z</time></trkpt><trkpt lat="44.748965" lon="9.3854217"><ele>311.6666666666667</ele><time>2026-04-06T07:50:36.598Z</time></trkpt><trkpt lat="44.7489617" lon="9.385715"><ele>314.33333333333337</ele><time>2026-04-06T07:50:37.598Z</time></trkpt><trkpt lat="44.7489483" lon="9.3860067"><ele>317.0</ele><time>2026-04-06T07:50:38.598Z</time></trkpt><trkpt lat="44.748925" lon="9.3862983"><ele>321.6666666666667</ele><time>2026-04-06T07:50:39.598Z</time></trkpt><trkpt lat="44.74889" lon="9.3865917"><ele>326.3333333333333</ele><time>2026-04-06T07:50:40.599Z</time></trkpt><trkpt lat="44.7488417" lon="9.3868833"><ele>331.0</ele><time>2026-04-06T07:50:41.599Z</time></trkpt><trkpt lat="44.74878" lon="9.3871717"><ele>336.3333333333333</ele><time>2026-04-06T07:50:42.598Z</time></trkpt><trkpt lat="44.748705" lon="9.38745"><ele>341.6666666666667</ele><time>2026-04-06T07:50:43.597Z</time></trkpt><trkpt lat="44.7486167" lon="9.38772"><ele>347.0</ele><time>2026-04-06T07:50:44.598Z</time></trkpt><trkpt lat="44.748515" lon="9.3879867"><ele>333.6666666666667</ele><time>2026-04-06T07:50:45.597Z</time></trkpt><trkpt lat="44.7484067" lon="9.3882533"><ele>320.3333333333333</ele><time>2026-04-06T07:50:46.599Z</time></trkpt><trkpt lat="44.7482933" lon="9.3885133"><ele>307.0</ele><time>2026-04-06T07:50:47.598Z</time></trkpt><trkpt lat="44.7481833" lon="9.3887633"><ele>317.0</ele><time>2026-04-06T07:50:48.599Z</time></trkpt><trkpt lat="44.7480783" lon="9.3889967"><ele>327.0</ele><time>2026-04-06T07:50:49.597Z</time></trkpt><trkpt lat="44.7479733" lon="9.38921"><ele>337.0</ele><time>2026-04-06T07:50:50.598Z</time></trkpt><trkpt lat="44.7478517" lon="9.3894"><ele>332.66666666666663</ele><time>2026-04-06T07:50:51.597Z</time></trkpt><trkpt lat="44.7477067" lon="9.3895733"><ele>328.3333333333333</ele><time>2026-04-06T07:50:52.6Z</time></trkpt><trkpt lat="44.7475467" lon="9.3897283"><ele>324.0</ele><time>2026-04-06T07:50:53.597Z</time></trkpt><trkpt lat="44.7473733" lon="9.38986"><ele>324.0</ele><time>2026-04-06T07:50:54.598Z</time></trkpt><trkpt lat="44.74719" lon="9.3899667"><ele>324.0</ele><time>2026-04-06T07:50:55.598Z</time></trkpt><trkpt lat="44.7469983" lon="9.3900433"><ele>324.0</ele><time>2026-04-06T07:50:56.599Z</time></trkpt><trkpt lat="44.7468017" lon="9.3900917"><ele>318.0</ele><time>2026-04-06T07:50:57.598Z</time></trkpt><trkpt lat="44.7465983" lon="9.3901083"><ele>312.0</ele><time>2026-04-06T07:50:58.597Z</time></trkpt><trkpt lat="44.74639" lon="9.39009"><ele>306.0</ele><time>2026-04-06T07:50:59.598Z</time></trkpt><trkpt lat="44.74618" lon="9.3900433"><ele>311.3333333333333</ele><time>2026-04-06T07:51:00.598Z</time></trkpt><trkpt lat="44.7459717" lon="9.3899667"><ele>316.66666666666663</ele><time>2026-04-06T07:51:01.598Z</time></trkpt><trkpt lat="44.7457667" lon="9.3898717"><ele>322.0</ele><time>2026-04-06T07:51:02.598Z</time></trkpt><trkpt lat="44.74557" lon="9.38975"><ele>319.3333333333333</ele><time>2026-04-06T07:51:03.599Z</time></trkpt><trkpt lat="44.74538" lon="9.3896083"><ele>316.6666666666667</ele><time>2026-04-06T07:51:04.598Z</time></trkpt><trkpt lat="44.7451917" lon="9.3894667"><ele>314.0</ele><time>2026-04-06T07:51:05.599Z</time></trkpt><trkpt lat="44.7450067" lon="9.389335"><ele>314.0</ele><time>2026-04-06T07:51:06.598Z</time></trkpt><trkpt lat="44.7448217" lon="9.389215"><ele>314.0</ele><time>2026-04-06T07:51:07.598Z</time></trkpt><trkpt lat="44.7446267" lon="9.3891133"><ele>314.0</ele><time>2026-04-06T07:51:08.598Z</time></trkpt><trkpt lat="44.74443" lon="9.389035"><ele>319.33333333333337</ele><time>2026-04-06T07:51:09.597Z</time></trkpt><trkpt lat="44.7442333" lon="9.3889883"><ele>324.6666666666667</ele><time>2026-04-06T07:51:10.599Z</time></trkpt><trkpt lat="44.7440433" lon="9.3889667"><ele>330.0</ele><time>2026-04-06T07:51:11.598Z</time></trkpt><trkpt lat="44.74386" lon="9.388965"><ele>330.0</ele><time>2026-04-06T07:51:12.598Z</time></trkpt><trkpt lat="44.7436717" lon="9.3889783"><ele>330.0</ele><time>2026-04-06T07:51:13.599Z</time></trkpt><trkpt lat="44.7434833" lon="9.3889783"><ele>330.0</ele><time>2026-04-06T07:51:14.6Z</time></trkpt><trkpt lat="44.7432983" lon="9.38895"><ele>335.6666666666667</ele><time>2026-04-06T07:51:15.598Z</time></trkpt><trkpt lat="44.743115" lon="9.38889"><ele>341.33333333333337</ele><time>2026-04-06T07:51:16.598Z</time></trkpt><trkpt lat="44.7429333" lon="9.3888083"><ele>347.0</ele><time>2026-04-06T07:51:17.597Z</time></trkpt><trkpt lat="44.7427467" lon="9.3887067"><ele>342.33333333333337</ele><time>2026-04-06T07:51:18.597Z</time></trkpt><trkpt lat="44.7425567" lon="9.3885917"><ele>337.6666666666667</ele><time>2026-04-06T07:51:19.598Z</time></trkpt><trkpt lat="44.74236" lon="9.3884683"><ele>333.0</ele><time>2026-04-06T07:51:20.604Z</time></trkpt><trkpt lat="44.742165" lon="9.3883417"><ele>333.0</ele><time>2026-04-06T07:51:21.598Z</time></trkpt><trkpt lat="44.74197" lon="9.3882133"><ele>333.0</ele><time>2026-04-06T07:51:22.598Z</time></trkpt><trkpt lat="44.7403276" lon="9.3872505"><ele>327.3333333333333</ele><time>2026-04-06T07:51:31.598Z</time></trkpt><trkpt lat="44.7401637" lon="9.3871941"><ele>321.66666666666663</ele><time>2026-04-06T07:51:32.598Z</time></trkpt><trkpt lat="44.7399938" lon="9.3871525"><ele>316.0</ele><time>2026-04-06T07:51:33.598Z</time></trkpt><trkpt lat="44.7398143" lon="9.3871446"><ele>316.0</ele><time>2026-04-06T07:51:34.598Z</time></trkpt><trkpt lat="44.7396268" lon="9.3871745"><ele>316.0</ele><time>2026-04-06T07:51:35.598Z</time></trkpt><trkpt lat="44.7394391" lon="9.3872376"><ele>316.0</ele><time>2026-04-06T07:51:36.598Z</time></trkpt><trkpt lat="44.7392518" lon="9.3873248"><ele>320.0</ele><time>2026-04-06T07:51:37.598Z</time></trkpt><trkpt lat="44.739072" lon="9.3874399"><ele>324.0</ele><time>2026-04-06T07:51:38.598Z</time></trkpt><trkpt lat="44.7389022" lon="9.3875916"><ele>328.0</ele><time>2026-04-06T07:51:39.598Z</time></trkpt><trkpt lat="44.7387351" lon="9.3877726"><ele>328.0</ele><time>2026-04-06T07:51:40.598Z</time></trkpt><trkpt lat="44.7385715" lon="9.3879694"><ele>328.0</ele><time>2026-04-06T07:51:41.598Z</time></trkpt><trkpt lat="44.7384126" lon="9.3881714"><ele>328.0</ele><time>2026-04-06T07:51:42.597Z</time></trkpt><trkpt lat="44.7382584" lon="9.3883724"><ele>327.3333333333333</ele><time>2026-04-06T07:51:43.598Z</time></trkpt><trkpt lat="44.7381048" lon="9.3885627"><ele>326.6666666666667</ele><time>2026-04-06T07:51:44.599Z</time></trkpt><trkpt lat="44.7379513" lon="9.3887381"><ele>326.0</ele><time>2026-04-06T07:51:45.598Z</time></trkpt><trkpt lat="44.7377952" lon="9.3889021"><ele>328.33333333333337</ele><time>2026-04-06T07:51:46.598Z</time></trkpt><trkpt lat="44.737636" lon="9.3890623"><ele>330.6666666666667</ele><time>2026-04-06T07:51:47.599Z</time></trkpt><trkpt lat="44.7374687" lon="9.3892122"><ele>333.0</ele><time>2026-04-06T07:51:48.598Z</time></trkpt><trkpt lat="44.7372965" lon="9.3893458"><ele>333.0</ele><time>2026-04-06T07:51:49.598Z</time></trkpt><trkpt lat="44.7371196" lon="9.3894588"><ele>333.0</ele><time>2026-04-06T07:51:50.599Z</time></trkpt><trkpt lat="44.7369341" lon="9.3895525"><ele>333.0</ele><time>2026-04-06T07:51:51.598Z</time></trkpt><trkpt lat="44.7367361" lon="9.3896215"><ele>330.0</ele><time>2026-04-06T07:51:52.599Z</time></trkpt><trkpt lat="44.7365293" lon="9.3896646"><ele>327.0</ele><time>2026-04-06T07:51:53.598Z</time></trkpt><trkpt lat="44.7363195" lon="9.3896856"><ele>324.0</ele><time>2026-04-06T07:51:54.598Z</time></trkpt><trkpt lat="44.7361163" lon="9.3896918"><ele>336.0</ele><time>2026-04-06T07:51:55.598Z</time></trkpt><trkpt lat="44.7359235" lon="9.3896946"><ele>348.0</ele><time>2026-04-06T07:51:56.598Z</time></trkpt><trkpt lat="44.735737" lon="9.3896964"><ele>360.0</ele><time>2026-04-06T07:51:57.598Z</time></trkpt><trkpt lat="44.7355566" lon="9.3896862"><ele>350.0</ele><time>2026-04-06T07:51:58.6Z</time></trkpt><trkpt lat="44.7353874" lon="9.3896619"><ele>340.0</ele><time>2026-04-06T07:51:59.599Z</time></trkpt><trkpt lat="44.7352301" lon="9.3896222"><ele>330.0</ele><time>2026-04-06T07:52:00.602Z</time></trkpt><trkpt lat="44.7350848" lon="9.3895715"><ele>330.0</ele><time>2026-04-06T07:52:01.6Z</time></trkpt><trkpt lat="44.7349456" lon="9.3895099"><ele>330.0</ele><time>2026-04-06T07:52:02.6Z</time></trkpt><trkpt lat="44.7348072" lon="9.3894304"><ele>330.0</ele><time>2026-04-06T07:52:03.6Z</time></trkpt><trkpt lat="44.7346738" lon="9.3893392"><ele>330.0</ele><time>2026-04-06T07:52:04.598Z</time></trkpt><trkpt lat="44.7345497" lon="9.3892492"><ele>330.0</ele><time>2026-04-06T07:52:05.598Z</time></trkpt><trkpt lat="44.7344296" lon="9.3891709"><ele>330.0</ele><time>2026-04-06T07:52:06.598Z</time></trkpt><trkpt lat="44.7343033" lon="9.3891183"><ele>330.0</ele><time>2026-04-06T07:52:07.599Z</time></trkpt><trkpt lat="44.7341583" lon="9.38909"><ele>330.0</ele><time>2026-04-06T07:52:08.599Z</time></trkpt><trkpt lat="44.73399" lon="9.3890833"><ele>335.0</ele><time>2026-04-06T07:52:09.597Z</time></trkpt><trkpt lat="44.7338033" lon="9.3890917"><ele>340.0</ele><time>2026-04-06T07:52:10.599Z</time></trkpt><trkpt lat="44.7336167" lon="9.3891133"><ele>345.0</ele><time>2026-04-06T07:52:11.598Z</time></trkpt><trkpt lat="44.7334333" lon="9.389115"><ele>346.0</ele><time>2026-04-06T07:52:12.599Z</time></trkpt><trkpt lat="44.733255" lon="9.389085"><ele>347.0</ele><time>2026-04-06T07:52:13.6Z</time></trkpt><trkpt lat="44.7330717" lon="9.3890483"><ele>348.0</ele><time>2026-04-06T07:52:14.598Z</time></trkpt><trkpt lat="44.7328933" lon="9.3890283"><ele>348.0</ele><time>2026-04-06T07:52:15.598Z</time></trkpt><trkpt lat="44.73273" lon="9.3890167"><ele>348.0</ele><time>2026-04-06T07:52:16.598Z</time></trkpt><trkpt lat="44.7325817" lon="9.3889983"><ele>348.0</ele><time>2026-04-06T07:52:17.598Z</time></trkpt><trkpt lat="44.73245" lon="9.3889533"><ele>348.0</ele><time>2026-04-06T07:52:18.598Z</time></trkpt><trkpt lat="44.7323383" lon="9.3888583"><ele>338.0</ele><time>2026-04-06T07:52:19.599Z</time></trkpt><trkpt lat="44.7322367" lon="9.3887283"><ele>328.0</ele><time>2026-04-06T07:52:20.599Z</time></trkpt><trkpt lat="44.7321183" lon="9.3886"><ele>318.0</ele><time>2026-04-06T07:52:21.6Z</time></trkpt><trkpt lat="44.7319683" lon="9.3884967"><ele>325.6666666666667</ele><time>2026-04-06T07:52:22.603Z</time></trkpt><trkpt lat="44.7318083" lon="9.388425"><ele>333.33333333333337</ele><time>2026-04-06T07:52:23.599Z</time></trkpt><trkpt lat="44.731645" lon="9.3883917"><ele>341.0</ele><time>2026-04-06T07:52:24.601Z</time></trkpt><trkpt lat="44.7314783" lon="9.38841"><ele>341.0</ele><time>2026-04-06T07:52:25.599Z</time></trkpt><trkpt lat="44.731325" lon="9.3884483"><ele>341.0</ele><time>2026-04-06T07:52:26.599Z</time></trkpt><trkpt lat="44.7311817" lon="9.388465"><ele>341.0</ele><time>2026-04-06T07:52:27.598Z</time></trkpt><trkpt lat="44.7310533" lon="9.3884267"><ele>341.0</ele><time>2026-04-06T07:52:28.597Z</time></trkpt><trkpt lat="44.730955" lon="9.3883333"><ele>345.75</ele><time>2026-04-06T07:52:29.598Z</time></trkpt><trkpt lat="44.7308667" lon="9.3882067"><ele>350.5</ele><time>2026-04-06T07:52:30.6Z</time></trkpt><trkpt lat="44.7307633" lon="9.3881033"><ele>355.25</ele><time>2026-04-06T07:52:31.599Z</time></trkpt><trkpt lat="44.7306233" lon="9.38805"><ele>360.0</ele><time>2026-04-06T07:52:32.6Z</time></trkpt><trkpt lat="44.7304567" lon="9.388015"><ele>352.0</ele><time>2026-04-06T07:52:33.598Z</time></trkpt><trkpt lat="44.7302817" lon="9.38795"><ele>344.0</ele><time>2026-04-06T07:52:34.598Z</time></trkpt><trkpt lat="44.7301117" lon="9.3878617"><ele>336.0</ele><time>2026-04-06T07:52:35.598Z</time></trkpt><trkpt lat="44.729955" lon="9.38778"><ele>336.0</ele><time>2026-04-06T07:52:36.598Z</time></trkpt><trkpt lat="44.72981" lon="9.3876917"><ele>336.0</ele><time>2026-04-06T07:52:37.599Z</time></trkpt><trkpt lat="44.7296833" lon="9.3875767"><ele>336.0</ele><time>2026-04-06T07:52:38.599Z</time></trkpt><trkpt lat="44.72956" lon="9.3874617"><ele>336.0</ele><time>2026-04-06T07:52:39.599Z</time></trkpt><trkpt lat="44.7294267" lon="9.3873867"><ele>336.0</ele><time>2026-04-06T07:52:40.6Z</time></trkpt><trkpt lat="44.7292733" lon="9.3873617"><ele>336.0</ele><time>2026-04-06T07:52:41.601Z</time></trkpt><trkpt lat="44.7291133" lon="9.3873433"><ele>332.0</ele><time>2026-04-06T07:52:42.599Z</time></trkpt><trkpt lat="44.7289617" lon="9.3873083"><ele>328.0</ele><time>2026-04-06T07:52:43.598Z</time></trkpt><trkpt lat="44.7288467" lon="9.3872217"><ele>324.0</ele><time>2026-04-06T07:52:44.598Z</time></trkpt><trkpt lat="44.7287683" lon="9.3870917"><ele>320.0</ele><time>2026-04-06T07:52:45.597Z</time></trkpt><trkpt lat="44.7287167" lon="9.38694"><ele>320.0</ele><time>2026-04-06T07:52:46.599Z</time></trkpt><trkpt lat="44.728665" lon="9.3868"><ele>320.0</ele><time>2026-04-06T07:52:47.599Z</time></trkpt><trkpt lat="44.72858" lon="9.3866933"><ele>320.0</ele><time>2026-04-06T07:52:48.598Z</time></trkpt><trkpt lat="44.72845" lon="9.3866367"><ele>320.0</ele><time>2026-04-06T07:52:49.598Z</time></trkpt><trkpt lat="44.7282783" lon="9.38659"><ele>324.33333333333337</ele><time>2026-04-06T07:52:50.598Z</time></trkpt><trkpt lat="44.72808" lon="9.3865267"><ele>328.6666666666667</ele><time>2026-04-06T07:52:51.598Z</time></trkpt><trkpt lat="44.7278667" lon="9.3864367"><ele>333.0</ele><time>2026-04-06T07:52:52.598Z</time></trkpt><trkpt lat="44.727645" lon="9.3863183"><ele>333.0</ele><time>2026-04-06T07:52:53.597Z</time></trkpt><trkpt lat="44.7274417" lon="9.3861783"><ele>333.0</ele><time>2026-04-06T07:52:54.598Z</time></trkpt><trkpt lat="44.7272583" lon="9.3860417"><ele>333.0</ele><time>2026-04-06T07:52:55.597Z</time></trkpt><trkpt lat="44.7270983" lon="9.38591"><ele>333.0</ele><time>2026-04-06T07:52:56.599Z</time></trkpt><trkpt lat="44.7269633" lon="9.3857683"><ele>333.0</ele><time>2026-04-06T07:52:57.599Z</time></trkpt><trkpt lat="44.726855" lon="9.38562"><ele>333.0</ele><time>2026-04-06T07:52:58.598Z</time></trkpt><trkpt lat="44.726745" lon="9.3854933"><ele>329.0</ele><time>2026-04-06T07:52:59.6Z</time></trkpt><trkpt lat="44.726625" lon="9.3853967"><ele>325.0</ele><time>2026-04-06T07:53:00.598Z</time></trkpt><trkpt lat="44.72651" lon="9.3853217"><ele>321.0</ele><time>2026-04-06T07:53:01.598Z</time></trkpt><trkpt lat="44.726405" lon="9.3852617"><ele>317.0</ele><time>2026-04-06T07:53:02.597Z</time></trkpt><trkpt lat="44.7263133" lon="9.3852367"><ele>317.0</ele><time>2026-04-06T07:53:03.598Z</time></trkpt><trkpt lat="44.726225" lon="9.385265"><ele>317.0</ele><time>2026-04-06T07:53:04.599Z</time></trkpt><trkpt lat="44.7261783" lon="9.38535"><ele>317.0</ele><time>2026-04-06T07:53:05.599Z</time></trkpt><trkpt lat="44.7261767" lon="9.3854733"><ele>317.0</ele><time>2026-04-06T07:53:06.599Z</time></trkpt><trkpt lat="44.72621" lon="9.38562"><ele>317.0</ele><time>2026-04-06T07:53:07.598Z</time></trkpt><trkpt lat="44.726255" lon="9.385785"><ele>330.33333333333337</ele><time>2026-04-06T07:53:08.598Z</time></trkpt><trkpt lat="44.7263033" lon="9.38599"><ele>343.6666666666667</ele><time>2026-04-06T07:53:09.597Z</time></trkpt><trkpt lat="44.72635" lon="9.3862267"><ele>357.0</ele><time>2026-04-06T07:53:10.599Z</time></trkpt><trkpt lat="44.72639" lon="9.3864733"><ele>363.3333333333333</ele><time>2026-04-06T07:53:11.599Z</time></trkpt><trkpt lat="44.7264083" lon="9.38671"><ele>369.66666666666663</ele><time>2026-04-06T07:53:12.598Z</time></trkpt><trkpt lat="44.72639" lon="9.3869483"><ele>376.0</ele><time>2026-04-06T07:53:13.599Z</time></trkpt><trkpt lat="44.726335" lon="9.3872"><ele>382.3333333333333</ele><time>2026-04-06T07:53:14.599Z</time></trkpt><trkpt lat="44.726245" lon="9.3874617"><ele>388.66666666666663</ele><time>2026-04-06T07:53:15.597Z</time></trkpt><trkpt lat="44.7261383" lon="9.3877133"><ele>395.0</ele><time>2026-04-06T07:53:16.598Z</time></trkpt><trkpt lat="44.7260217" lon="9.3879467"><ele>386.3333333333333</ele><time>2026-04-06T07:53:17.597Z</time></trkpt><trkpt lat="44.7259017" lon="9.388155"><ele>377.66666666666663</ele><time>2026-04-06T07:53:18.598Z</time></trkpt><trkpt lat="44.725765" lon="9.3883433"><ele>369.0</ele><time>2026-04-06T07:53:19.597Z</time></trkpt><trkpt lat="44.7256133" lon="9.38852"><ele>369.0</ele><time>2026-04-06T07:53:20.6Z</time></trkpt><trkpt lat="44.725455" lon="9.3886717"><ele>369.0</ele><time>2026-04-06T07:53:21.598Z</time></trkpt><trkpt lat="44.7252983" lon="9.3887933"><ele>369.0</ele><time>2026-04-06T07:53:22.597Z</time></trkpt><trkpt lat="44.7251533" lon="9.3889017"><ele>365.0</ele><time>2026-04-06T07:53:23.597Z</time></trkpt><trkpt lat="44.7250267" lon="9.38902"><ele>361.0</ele><time>2026-04-06T07:53:24.599Z</time></trkpt><trkpt lat="44.7249217" lon="9.389195"><ele>357.0</ele><time>2026-04-06T07:53:25.599Z</time></trkpt><trkpt lat="44.724845" lon="9.389415"><ele>357.0</ele><time>2026-04-06T07:53:26.598Z</time></trkpt><trkpt lat="44.724785" lon="9.3896383"><ele>357.0</ele><time>2026-04-06T07:53:27.598Z</time></trkpt><trkpt lat="44.7247467" lon="9.3898483"><ele>357.0</ele><time>2026-04-06T07:53:28.597Z</time></trkpt><trkpt lat="44.7247533" lon="9.3900483"><ele>357.5</ele><time>2026-04-06T07:53:29.598Z</time></trkpt><trkpt lat="44.7248" lon="9.3902283"><ele>358.0</ele><time>2026-04-06T07:53:30.597Z</time></trkpt><trkpt lat="44.7248633" lon="9.3903967"><ele>358.5</ele><time>2026-04-06T07:53:31.599Z</time></trkpt><trkpt lat="44.7249033" lon="9.3905683"><ele>359.0</ele><time>2026-04-06T07:53:32.598Z</time></trkpt><trkpt lat="44.7248933" lon="9.390765"><ele>360.0</ele><time>2026-04-06T07:53:33.598Z</time></trkpt><trkpt lat="44.7248467" lon="9.3909967"><ele>361.0</ele><time>2026-04-06T07:53:34.601Z</time></trkpt><trkpt lat="44.7247833" lon="9.3912683"><ele>362.0</ele><time>2026-04-06T07:53:35.598Z</time></trkpt><trkpt lat="44.724715" lon="9.3915517"><ele>362.0</ele><time>2026-04-06T07:53:36.598Z</time></trkpt><trkpt lat="44.72465" lon="9.39181"><ele>362.0</ele><time>2026-04-06T07:53:37.597Z</time></trkpt><trkpt lat="44.72459" lon="9.392045"><ele>362.0</ele><time>2026-04-06T07:53:38.599Z</time></trkpt><trkpt lat="44.724525" lon="9.3922633"><ele>367.6666666666667</ele><time>2026-04-06T07:53:39.602Z</time></trkpt><trkpt lat="44.7244367" lon="9.39248"><ele>373.3333333333333</ele><time>2026-04-06T07:53:40.598Z</time></trkpt><trkpt lat="44.72432" lon="9.3926967"><ele>379.0</ele><time>2026-04-06T07:53:41.598Z</time></trkpt><trkpt lat="44.724195" lon="9.3929067"><ele>374.66666666666663</ele><time>2026-04-06T07:53:42.598Z</time></trkpt><trkpt lat="44.7240817" lon="9.3931083"><ele>370.3333333333333</ele><time>2026-04-06T07:53:43.598Z</time></trkpt><trkpt lat="44.723975" lon="9.3933017"><ele>366.0</ele><time>2026-04-06T07:53:44.6Z</time></trkpt><trkpt lat="44.7238683" lon="9.3934733"><ele>366.0</ele><time>2026-04-06T07:53:45.597Z</time></trkpt><trkpt lat="44.7237567" lon="9.39361"><ele>366.0</ele><time>2026-04-06T07:53:46.597Z</time></trkpt><trkpt lat="44.7236333" lon="9.3937067"><ele>366.0</ele><time>2026-04-06T07:53:47.598Z</time></trkpt><trkpt lat="44.7234967" lon="9.3937833"><ele>366.0</ele><time>2026-04-06T07:53:48.597Z</time></trkpt><trkpt lat="44.7233533" lon="9.39385"><ele>366.5</ele><time>2026-04-06T07:53:49.598Z</time></trkpt><trkpt lat="44.7232133" lon="9.3939067"><ele>367.0</ele><time>2026-04-06T07:53:50.598Z</time></trkpt><trkpt lat="44.72308" lon="9.3939567"><ele>367.5</ele><time>2026-04-06T07:53:51.597Z</time></trkpt><trkpt lat="44.7229533" lon="9.3940067"><ele>368.0</ele><time>2026-04-06T07:53:52.599Z</time></trkpt><trkpt lat="44.7228367" lon="9.394065"><ele>368.0</ele><time>2026-04-06T07:53:53.599Z</time></trkpt><trkpt lat="44.7227367" lon="9.3941433"><ele>368.0</ele><time>2026-04-06T07:53:54.598Z</time></trkpt><trkpt lat="44.7226633" lon="9.3942517"><ele>368.0</ele><time>2026-04-06T07:53:55.599Z</time></trkpt><trkpt lat="44.7226067" lon="9.3943767"><ele>368.0</ele><time>2026-04-06T07:53:56.599Z</time></trkpt><trkpt lat="44.722555" lon="9.39449"><ele>368.0</ele><time>2026-04-06T07:53:57.598Z</time></trkpt><trkpt lat="44.7224867" lon="9.3945483"><ele>362.4</ele><time>2026-04-06T07:53:58.598Z</time></trkpt><trkpt lat="44.7224017" lon="9.394545"><ele>356.79999999999995</ele><time>2026-04-06T07:53:59.597Z</time></trkpt><trkpt lat="44.7223183" lon="9.39447"><ele>351.2</ele><time>2026-04-06T07:54:00.598Z</time></trkpt><trkpt lat="44.7222383" lon="9.3943417"><ele>345.6</ele><time>2026-04-06T07:54:01.598Z</time></trkpt><trkpt lat="44.7221583" lon="9.3942117"><ele>340.0</ele><time>2026-04-06T07:54:02.598Z</time></trkpt><trkpt lat="44.7220783" lon="9.3940983"><ele>340.0</ele><time>2026-04-06T07:54:03.598Z</time></trkpt><trkpt lat="44.72199" lon="9.3939883"><ele>340.0</ele><time>2026-04-06T07:54:04.598Z</time></trkpt><trkpt lat="44.7218833" lon="9.3938983"><ele>340.0</ele><time>2026-04-06T07:54:05.597Z</time></trkpt><trkpt lat="44.7217667" lon="9.3938417"><ele>340.0</ele><time>2026-04-06T07:54:06.597Z</time></trkpt><trkpt lat="44.7216483" lon="9.3938367"><ele>339.25</ele><time>2026-04-06T07:54:07.598Z</time></trkpt><trkpt lat="44.7215367" lon="9.39389"><ele>338.5</ele><time>2026-04-06T07:54:08.599Z</time></trkpt><trkpt lat="44.721445" lon="9.3940067"><ele>337.75</ele><time>2026-04-06T07:54:09.599Z</time></trkpt><trkpt lat="44.721395" lon="9.3941783"><ele>337.0</ele><time>2026-04-06T07:54:10.602Z</time></trkpt><trkpt lat="44.7213533" lon="9.3943617"><ele>337.0</ele><time>2026-04-06T07:54:11.598Z</time></trkpt><trkpt lat="44.7212867" lon="9.3945367"><ele>337.0</ele><time>2026-04-06T07:54:12.598Z</time></trkpt><trkpt lat="44.7211833" lon="9.3947"><ele>337.0</ele><time>2026-04-06T07:54:13.598Z</time></trkpt><trkpt lat="44.7210567" lon="9.3948383"><ele>340.0</ele><time>2026-04-06T07:54:14.6Z</time></trkpt><trkpt lat="44.7209267" lon="9.3949467"><ele>343.0</ele><time>2026-04-06T07:54:15.6Z</time></trkpt><trkpt lat="44.7207983" lon="9.395015"><ele>346.0</ele><time>2026-04-06T07:54:16.599Z</time></trkpt><trkpt lat="44.7206733" lon="9.39503"><ele>349.0</ele><time>2026-04-06T07:54:17.599Z</time></trkpt><trkpt lat="44.720565" lon="9.3949883"><ele>349.0</ele><time>2026-04-06T07:54:18.598Z</time></trkpt><trkpt lat="44.7204867" lon="9.3948933"><ele>349.0</ele><time>2026-04-06T07:54:19.598Z</time></trkpt><trkpt lat="44.7204583" lon="9.3947433"><ele>349.0</ele><time>2026-04-06T07:54:20.598Z</time></trkpt><trkpt lat="44.720455" lon="9.39455"><ele>349.0</ele><time>2026-04-06T07:54:21.598Z</time></trkpt><trkpt lat="44.7204717" lon="9.3943333"><ele>341.66666666666663</ele><time>2026-04-06T07:54:22.598Z</time></trkpt><trkpt lat="44.7205117" lon="9.394115"><ele>334.3333333333333</ele><time>2026-04-06T07:54:23.599Z</time></trkpt><trkpt lat="44.72059" lon="9.3939067"><ele>327.0</ele><time>2026-04-06T07:54:24.598Z</time></trkpt><trkpt lat="44.72068" lon="9.39371"><ele>327.0</ele><time>2026-04-06T07:54:25.598Z</time></trkpt><trkpt lat="44.720755" lon="9.393525"><ele>327.0</ele><time>2026-04-06T07:54:26.599Z</time></trkpt><trkpt lat="44.7208033" lon="9.39335"><ele>327.0</ele><time>2026-04-06T07:54:27.598Z</time></trkpt><trkpt lat="44.7208067" lon="9.3931767"><ele>327.0</ele><time>2026-04-06T07:54:28.599Z</time></trkpt><trkpt lat="44.720765" lon="9.3930067"><ele>325.3333333333333</ele><time>2026-04-06T07:54:29.599Z</time></trkpt><trkpt lat="44.7206667" lon="9.392835"><ele>323.66666666666663</ele><time>2026-04-06T07:54:30.598Z</time></trkpt><trkpt lat="44.7205567" lon="9.3926433"><ele>322.0</ele><time>2026-04-06T07:54:31.599Z</time></trkpt><trkpt lat="44.7204517" lon="9.3924133"><ele>317.66666666666663</ele><time>2026-04-06T07:54:32.598Z</time></trkpt><trkpt lat="44.7203683" lon="9.3921683"><ele>313.3333333333333</ele><time>2026-04-06T07:54:33.598Z</time></trkpt><trkpt lat="44.720315" lon="9.3919133"><ele>309.0</ele><time>2026-04-06T07:54:34.598Z</time></trkpt><trkpt lat="44.7202767" lon="9.3916367"><ele>307.0</ele><time>2026-04-06T07:54:35.598Z</time></trkpt><trkpt lat="44.7202567" lon="9.3913367"><ele>305.0</ele><time>2026-04-06T07:54:36.598Z</time></trkpt><trkpt lat="44.7202417" lon="9.39105"><ele>303.0</ele><time>2026-04-06T07:54:37.598Z</time></trkpt><trkpt lat="44.7202283" lon="9.390795"><ele>308.3333333333333</ele><time>2026-04-06T07:54:38.598Z</time></trkpt><trkpt lat="44.720205" lon="9.3905683"><ele>313.66666666666663</ele><time>2026-04-06T07:54:39.597Z</time></trkpt><trkpt lat="44.7201617" lon="9.3903633"><ele>319.0</ele><time>2026-04-06T07:54:40.598Z</time></trkpt><trkpt lat="44.7200767" lon="9.390195"><ele>319.0</ele><time>2026-04-06T07:54:41.598Z</time></trkpt><trkpt lat="44.71995" lon="9.3900683"><ele>319.0</ele><time>2026-04-06T07:54:42.597Z</time></trkpt><trkpt lat="44.71978" lon="9.3899867"><ele>319.0</ele><time>2026-04-06T07:54:43.597Z</time></trkpt><trkpt lat="44.7195817" lon="9.3899433"><ele>320.3333333333333</ele><time>2026-04-06T07:54:44.598Z</time></trkpt><trkpt lat="44.7193917" lon="9.3899383"><ele>321.6666666666667</ele><time>2026-04-06T07:54:45.598Z</time></trkpt><trkpt lat="44.7192183" lon="9.3899633"><ele>323.0</ele><time>2026-04-06T07:54:46.598Z</time></trkpt><trkpt lat="44.7190567" lon="9.3900283"><ele>323.0</ele><time>2026-04-06T07:54:47.598Z</time></trkpt><trkpt lat="44.7188983" lon="9.3901167"><ele>323.0</ele><time>2026-04-06T07:54:48.598Z</time></trkpt><trkpt lat="44.718735" lon="9.3901883"><ele>323.0</ele><time>2026-04-06T07:54:49.597Z</time></trkpt><trkpt lat="44.7185533" lon="9.3902183"><ele>323.6666666666667</ele><time>2026-04-06T07:54:50.599Z</time></trkpt><trkpt lat="44.7183533" lon="9.390215"><ele>324.3333333333333</ele><time>2026-04-06T07:54:51.597Z</time></trkpt><trkpt lat="44.7181383" lon="9.3901833"><ele>325.0</ele><time>2026-04-06T07:54:52.597Z</time></trkpt><trkpt lat="44.7179317" lon="9.390155"><ele>325.0</ele><time>2026-04-06T07:54:53.597Z</time></trkpt><trkpt lat="44.7177383" lon="9.3901417"><ele>325.0</ele><time>2026-04-06T07:54:54.598Z</time></trkpt><trkpt lat="44.717555" lon="9.39013"><ele>325.0</ele><time>2026-04-06T07:54:55.598Z</time></trkpt><trkpt lat="44.7173733" lon="9.3900883"><ele>327.3333333333333</ele><time>2026-04-06T07:54:56.599Z</time></trkpt><trkpt lat="44.7171733" lon="9.389995"><ele>329.6666666666667</ele><time>2026-04-06T07:54:57.598Z</time></trkpt><trkpt lat="44.7169717" lon="9.389885"><ele>332.0</ele><time>2026-04-06T07:54:58.598Z</time></trkpt><trkpt lat="44.7167817" lon="9.3897683"><ele>325.33333333333337</ele><time>2026-04-06T07:54:59.598Z</time></trkpt><trkpt lat="44.7166017" lon="9.3896367"><ele>318.6666666666667</ele><time>2026-04-06T07:55:00.597Z</time></trkpt><trkpt lat="44.7164333" lon="9.389495"><ele>312.0</ele><time>2026-04-06T07:55:01.599Z</time></trkpt><trkpt lat="44.7162833" lon="9.3893617"><ele>312.0</ele><time>2026-04-06T07:55:02.597Z</time></trkpt><trkpt lat="44.716155" lon="9.3892283"><ele>312.0</ele><time>2026-04-06T07:55:03.598Z</time></trkpt><trkpt lat="44.7160483" lon="9.3890633"><ele>312.0</ele><time>2026-04-06T07:55:04.598Z</time></trkpt><trkpt lat="44.7159583" lon="9.3888467"><ele>316.0</ele><time>2026-04-06T07:55:05.597Z</time></trkpt><trkpt lat="44.715875" lon="9.3885967"><ele>320.0</ele><time>2026-04-06T07:55:06.598Z</time></trkpt><trkpt lat="44.715795" lon="9.38835"><ele>324.0</ele><time>2026-04-06T07:55:07.599Z</time></trkpt><trkpt lat="44.7157133" lon="9.38813"><ele>319.6666666666667</ele><time>2026-04-06T07:55:08.601Z</time></trkpt><trkpt lat="44.7156233" lon="9.38793"><ele>315.33333333333337</ele><time>2026-04-06T07:55:09.598Z</time></trkpt><trkpt lat="44.7155117" lon="9.3877517"><ele>311.0</ele><time>2026-04-06T07:55:10.597Z</time></trkpt><trkpt lat="44.71539" lon="9.3875867"><ele>311.0</ele><time>2026-04-06T07:55:11.599Z</time></trkpt><trkpt lat="44.7152833" lon="9.3874233"><ele>311.0</ele><time>2026-04-06T07:55:12.598Z</time></trkpt><trkpt lat="44.7152117" lon="9.3872333"><ele>311.0</ele><time>2026-04-06T07:55:13.597Z</time></trkpt><trkpt lat="44.71514" lon="9.38701"><ele>312.33333333333337</ele><time>2026-04-06T07:55:14.597Z</time></trkpt><trkpt lat="44.7150567" lon="9.3867633"><ele>313.6666666666667</ele><time>2026-04-06T07:55:15.597Z</time></trkpt><trkpt lat="44.714955" lon="9.3864833"><ele>315.0</ele><time>2026-04-06T07:55:16.597Z</time></trkpt><trkpt lat="44.7148467" lon="9.3861883"><ele>315.0</ele><time>2026-04-06T07:55:17.599Z</time></trkpt><trkpt lat="44.714745" lon="9.3859183"><ele>315.0</ele><time>2026-04-06T07:55:18.598Z</time></trkpt><trkpt lat="44.7146517" lon="9.3856767"><ele>315.0</ele><time>2026-04-06T07:55:19.599Z</time></trkpt><trkpt lat="44.71457" lon="9.3854583"><ele>312.6666666666667</ele><time>2026-04-06T07:55:20.598Z</time></trkpt><trkpt lat="44.7144967" lon="9.385255"><ele>310.33333333333337</ele><time>2026-04-06T07:55:21.598Z</time></trkpt><trkpt lat="44.7144467" lon="9.385045"><ele>308.0</ele><time>2026-04-06T07:55:22.598Z</time></trkpt><trkpt lat="44.7144217" lon="9.384805"><ele>308.0</ele><time>2026-04-06T07:55:23.597Z</time></trkpt><trkpt lat="44.7144267" lon="9.384535"><ele>308.0</ele><time>2026-04-06T07:55:24.598Z</time></trkpt><trkpt lat="44.71444" lon="9.3842733"><ele>308.0</ele><time>2026-04-06T07:55:25.598Z</time></trkpt><trkpt lat="44.7144667" lon="9.3840333"><ele>309.0</ele><time>2026-04-06T07:55:26.599Z</time></trkpt><trkpt lat="44.714495" lon="9.38382"><ele>310.0</ele><time>2026-04-06T07:55:27.599Z</time></trkpt><trkpt lat="44.7145083" lon="9.3836167"><ele>311.0</ele><time>2026-04-06T07:55:28.599Z</time></trkpt><trkpt lat="44.7144867" lon="9.383425"><ele>312.0</ele><time>2026-04-06T07:55:29.597Z</time></trkpt><trkpt lat="44.7144267" lon="9.3832533"><ele>313.25</ele><time>2026-04-06T07:55:30.598Z</time></trkpt><trkpt lat="44.7143517" lon="9.383105"><ele>314.5</ele><time>2026-04-06T07:55:31.598Z</time></trkpt><trkpt lat="44.7142683" lon="9.3829767"><ele>315.75</ele><time>2026-04-06T07:55:32.599Z</time></trkpt><trkpt lat="44.714185" lon="9.382855"><ele>317.0</ele><time>2026-04-06T07:55:33.598Z</time></trkpt><trkpt lat="44.7141017" lon="9.38273"><ele>317.0</ele><time>2026-04-06T07:55:34.598Z</time></trkpt><trkpt lat="44.714025" lon="9.3825983"><ele>317.0</ele><time>2026-04-06T07:55:35.597Z</time></trkpt><trkpt lat="44.7139667" lon="9.3824567"><ele>317.0</ele><time>2026-04-06T07:55:36.598Z</time></trkpt><trkpt lat="44.7139317" lon="9.3823017"><ele>317.0</ele><time>2026-04-06T07:55:37.598Z</time></trkpt><trkpt lat="44.71391" lon="9.3821383"><ele>316.25</ele><time>2026-04-06T07:55:38.597Z</time></trkpt><trkpt lat="44.713895" lon="9.3819717"><ele>315.5</ele><time>2026-04-06T07:55:39.598Z</time></trkpt><trkpt lat="44.7138817" lon="9.3818083"><ele>314.75</ele><time>2026-04-06T07:55:40.598Z</time></trkpt><trkpt lat="44.71387" lon="9.3816567"><ele>314.0</ele><time>2026-04-06T07:55:41.598Z</time></trkpt><trkpt lat="44.7138567" lon="9.3815083"><ele>314.0</ele><time>2026-04-06T07:55:42.599Z</time></trkpt><trkpt lat="44.7138383" lon="9.3813517"><ele>314.0</ele><time>2026-04-06T07:55:43.598Z</time></trkpt><trkpt lat="44.713805" lon="9.3811917"><ele>314.0</ele><time>2026-04-06T07:55:44.599Z</time></trkpt><trkpt lat="44.713755" lon="9.3810483"><ele>314.0</ele><time>2026-04-06T07:55:45.598Z</time></trkpt><trkpt lat="44.7136917" lon="9.3809183"><ele>314.0</ele><time>2026-04-06T07:55:46.598Z</time></trkpt><trkpt lat="44.7136183" lon="9.3808033"><ele>314.0</ele><time>2026-04-06T07:55:47.597Z</time></trkpt><trkpt lat="44.71355" lon="9.3806983"><ele>314.0</ele><time>2026-04-06T07:55:48.599Z</time></trkpt><trkpt lat="44.7134867" lon="9.3806017"><ele>314.0</ele><time>2026-04-06T07:55:49.598Z</time></trkpt><trkpt lat="44.7134283" lon="9.38051"><ele>314.0</ele><time>2026-04-06T07:55:50.597Z</time></trkpt><trkpt lat="44.713375" lon="9.3804283"><ele>314.83333333333337</ele><time>2026-04-06T07:55:51.598Z</time></trkpt><trkpt lat="44.7133217" lon="9.3803567"><ele>315.6666666666667</ele><time>2026-04-06T07:55:52.597Z</time></trkpt><trkpt lat="44.71327" lon="9.3802983"><ele>316.5</ele><time>2026-04-06T07:55:53.597Z</time></trkpt><trkpt lat="44.713215" lon="9.38025"><ele>317.3333333333333</ele><time>2026-04-06T07:55:54.598Z</time></trkpt><trkpt lat="44.7131133" lon="9.3801933"><ele>318.16666666666663</ele><time>2026-04-06T07:55:56.598Z</time></trkpt><trkpt lat="44.712985" lon="9.3801567"><ele>319.0</ele><time>2026-04-06T07:55:58.598Z</time></trkpt><trkpt lat="44.7128933" lon="9.3801233"><ele>319.0</ele><time>2026-04-06T07:55:59.598Z</time></trkpt><trkpt lat="44.71279" lon="9.380095"><ele>319.0</ele><time>2026-04-06T07:56:00.599Z</time></trkpt><trkpt lat="44.7126817" lon="9.380075"><ele>319.0</ele><time>2026-04-06T07:56:01.597Z</time></trkpt><trkpt lat="44.7125667" lon="9.380055"><ele>319.0</ele><time>2026-04-06T07:56:02.598Z</time></trkpt><trkpt lat="44.712445" lon="9.380035"><ele>319.75</ele><time>2026-04-06T07:56:03.598Z</time></trkpt><trkpt lat="44.71232" lon="9.3800133"><ele>320.5</ele><time>2026-04-06T07:56:04.598Z</time></trkpt><trkpt lat="44.7121933" lon="9.3799917"><ele>321.25</ele><time>2026-04-06T07:56:05.599Z</time></trkpt><trkpt lat="44.71207" lon="9.379975"><ele>322.0</ele><time>2026-04-06T07:56:06.599Z</time></trkpt><trkpt lat="44.711945" lon="9.379955"><ele>321.0</ele><time>2026-04-06T07:56:07.598Z</time></trkpt><trkpt lat="44.7118283" lon="9.37993"><ele>320.0</ele><time>2026-04-06T07:56:08.597Z</time></trkpt><trkpt lat="44.7117167" lon="9.3798833"><ele>319.0</ele><time>2026-04-06T07:56:09.598Z</time></trkpt><trkpt lat="44.7116133" lon="9.379795"><ele>318.0</ele><time>2026-04-06T07:56:10.598Z</time></trkpt><trkpt lat="44.7115183" lon="9.37967"><ele>316.3333333333333</ele><time>2026-04-06T07:56:11.598Z</time></trkpt><trkpt lat="44.71143" lon="9.3795133"><ele>314.66666666666663</ele><time>2026-04-06T07:56:12.597Z</time></trkpt><trkpt lat="44.7113433" lon="9.37933"><ele>313.0</ele><time>2026-04-06T07:56:13.598Z</time></trkpt><trkpt lat="44.7112567" lon="9.379135"><ele>313.0</ele><time>2026-04-06T07:56:14.598Z</time></trkpt><trkpt lat="44.7111633" lon="9.3789367"><ele>313.0</ele><time>2026-04-06T07:56:15.598Z</time></trkpt><trkpt lat="44.7110683" lon="9.3787367"><ele>313.0</ele><time>2026-04-06T07:56:16.599Z</time></trkpt><trkpt lat="44.7109767" lon="9.3785417"><ele>314.0</ele><time>2026-04-06T07:56:17.597Z</time></trkpt><trkpt lat="44.7108867" lon="9.3783517"><ele>315.0</ele><time>2026-04-06T07:56:18.598Z</time></trkpt><trkpt lat="44.7107983" lon="9.3781667"><ele>316.0</ele><time>2026-04-06T07:56:19.598Z</time></trkpt><trkpt lat="44.710715" lon="9.377985"><ele>318.0</ele><time>2026-04-06T07:56:20.598Z</time></trkpt><trkpt lat="44.7106367" lon="9.377815"><ele>320.0</ele><time>2026-04-06T07:56:21.598Z</time></trkpt><trkpt lat="44.710555" lon="9.377665"><ele>322.0</ele><time>2026-04-06T07:56:22.598Z</time></trkpt><trkpt lat="44.7104583" lon="9.3775483"><ele>324.0</ele><time>2026-04-06T07:56:23.597Z</time></trkpt><trkpt lat="44.7103367" lon="9.3774717"><ele>325.75</ele><time>2026-04-06T07:56:24.598Z</time></trkpt><trkpt lat="44.7101967" lon="9.3774483"><ele>327.5</ele><time>2026-04-06T07:56:25.598Z</time></trkpt><trkpt lat="44.7100517" lon="9.37748"><ele>329.25</ele><time>2026-04-06T07:56:26.598Z</time></trkpt><trkpt lat="44.7099083" lon="9.3775633"><ele>331.0</ele><time>2026-04-06T07:56:27.598Z</time></trkpt><trkpt lat="44.7097733" lon="9.3776817"><ele>331.0</ele><time>2026-04-06T07:56:28.599Z</time></trkpt><trkpt lat="44.70964" lon="9.3778067"><ele>331.0</ele><time>2026-04-06T07:56:29.598Z</time></trkpt><trkpt lat="44.7095033" lon="9.3779067"><ele>331.0</ele><time>2026-04-06T07:56:30.6Z</time></trkpt><trkpt lat="44.7093617" lon="9.3779917"><ele>328.25</ele><time>2026-04-06T07:56:31.598Z</time></trkpt><trkpt lat="44.7092267" lon="9.3780533"><ele>325.5</ele><time>2026-04-06T07:56:32.597Z</time></trkpt><trkpt lat="44.7091" lon="9.3780883"><ele>322.75</ele><time>2026-04-06T07:56:33.598Z</time></trkpt><trkpt lat="44.70897" lon="9.3780917"><ele>320.0</ele><time>2026-04-06T07:56:34.6Z</time></trkpt><trkpt lat="44.7088333" lon="9.3780633"><ele>323.75</ele><time>2026-04-06T07:56:35.598Z</time></trkpt><trkpt lat="44.7086917" lon="9.37801"><ele>327.5</ele><time>2026-04-06T07:56:36.598Z</time></trkpt><trkpt lat="44.70855" lon="9.3779483"><ele>331.25</ele><time>2026-04-06T07:56:37.599Z</time></trkpt><trkpt lat="44.7084183" lon="9.3778833"><ele>335.0</ele><time>2026-04-06T07:56:38.599Z</time></trkpt><trkpt lat="44.7083" lon="9.37781"><ele>335.0</ele><time>2026-04-06T07:56:39.597Z</time></trkpt><trkpt lat="44.7082" lon="9.3776983"><ele>335.0</ele><time>2026-04-06T07:56:40.597Z</time></trkpt><trkpt lat="44.708125" lon="9.377545"><ele>335.0</ele><time>2026-04-06T07:56:41.598Z</time></trkpt><trkpt lat="44.7080817" lon="9.3773633"><ele>335.0</ele><time>2026-04-06T07:56:42.599Z</time></trkpt><trkpt lat="44.7080517" lon="9.37719"><ele>337.0</ele><time>2026-04-06T07:56:43.598Z</time></trkpt><trkpt lat="44.7080133" lon="9.3770417"><ele>339.0</ele><time>2026-04-06T07:56:44.598Z</time></trkpt><trkpt lat="44.7079483" lon="9.3769283"><ele>341.0</ele><time>2026-04-06T07:56:45.597Z</time></trkpt><trkpt lat="44.7078533" lon="9.37686"><ele>343.0</ele><time>2026-04-06T07:56:46.598Z</time></trkpt><trkpt lat="44.7077333" lon="9.376835"><ele>345.0</ele><time>2026-04-06T07:56:47.598Z</time></trkpt><trkpt lat="44.7075967" lon="9.3768383"><ele>345.0</ele><time>2026-04-06T07:56:48.599Z</time></trkpt><trkpt lat="44.7074533" lon="9.376845"><ele>345.0</ele><time>2026-04-06T07:56:49.603Z</time></trkpt><trkpt lat="44.707315" lon="9.3768567"><ele>345.0</ele><time>2026-04-06T07:56:50.6Z</time></trkpt><trkpt lat="44.707195" lon="9.3768883"><ele>345.0</ele><time>2026-04-06T07:56:51.598Z</time></trkpt><trkpt lat="44.70709" lon="9.37695"><ele>345.0</ele><time>2026-04-06T07:56:52.598Z</time></trkpt><trkpt lat="44.7070017" lon="9.3770417"><ele>345.0</ele><time>2026-04-06T07:56:53.599Z</time></trkpt><trkpt lat="44.7069233" lon="9.3771517"><ele>345.0</ele><time>2026-04-06T07:56:54.598Z</time></trkpt><trkpt lat="44.7068467" lon="9.3772467"><ele>345.0</ele><time>2026-04-06T07:56:55.598Z</time></trkpt><trkpt lat="44.7067633" lon="9.3773117"><ele>345.0</ele><time>2026-04-06T07:56:56.598Z</time></trkpt><trkpt lat="44.706665" lon="9.3773283"><ele>346.0</ele><time>2026-04-06T07:56:57.598Z</time></trkpt><trkpt lat="44.7065567" lon="9.3772833"><ele>347.0</ele><time>2026-04-06T07:56:58.598Z</time></trkpt><trkpt lat="44.7064383" lon="9.3771983"><ele>348.0</ele><time>2026-04-06T07:56:59.597Z</time></trkpt><trkpt lat="44.706305" lon="9.3770833"><ele>349.0</ele><time>2026-04-06T07:57:00.601Z</time></trkpt><trkpt lat="44.70617" lon="9.37695"><ele>348.0</ele><time>2026-04-06T07:57:01.598Z</time></trkpt><trkpt lat="44.7060367" lon="9.376805"><ele>347.0</ele><time>2026-04-06T07:57:02.599Z</time></trkpt><trkpt lat="44.705915" lon="9.3766567"><ele>346.0</ele><time>2026-04-06T07:57:03.597Z</time></trkpt><trkpt lat="44.7058133" lon="9.3764883"><ele>348.3333333333333</ele><time>2026-04-06T07:57:04.602Z</time></trkpt><trkpt lat="44.7057267" lon="9.3762967"><ele>350.6666666666667</ele><time>2026-04-06T07:57:05.599Z</time></trkpt><trkpt lat="44.70565" lon="9.3761033"><ele>353.0</ele><time>2026-04-06T07:57:06.599Z</time></trkpt><trkpt lat="44.7055867" lon="9.3759183"><ele>353.0</ele><time>2026-04-06T07:57:07.597Z</time></trkpt><trkpt lat="44.7055417" lon="9.3757417"><ele>353.0</ele><time>2026-04-06T07:57:08.599Z</time></trkpt><trkpt lat="44.7055217" lon="9.37557"><ele>353.0</ele><time>2026-04-06T07:57:09.598Z</time></trkpt><trkpt lat="44.705535" lon="9.3753917"><ele>353.0</ele><time>2026-04-06T07:57:10.598Z</time></trkpt><trkpt lat="44.7055767" lon="9.3751967"><ele>354.0</ele><time>2026-04-06T07:57:11.598Z</time></trkpt><trkpt lat="44.70563" lon="9.374995"><ele>355.0</ele><time>2026-04-06T07:57:12.598Z</time></trkpt><trkpt lat="44.7056867" lon="9.374795"><ele>356.0</ele><time>2026-04-06T07:57:13.599Z</time></trkpt><trkpt lat="44.7057383" lon="9.37461"><ele>357.0</ele><time>2026-04-06T07:57:14.597Z</time></trkpt><trkpt lat="44.7057817" lon="9.3744417"><ele>358.0</ele><time>2026-04-06T07:57:15.598Z</time></trkpt><trkpt lat="44.7058133" lon="9.3742817"><ele>359.0</ele><time>2026-04-06T07:57:16.598Z</time></trkpt><trkpt lat="44.7058283" lon="9.3741233"><ele>360.0</ele><time>2026-04-06T07:57:17.598Z</time></trkpt><trkpt lat="44.7058167" lon="9.3739683"><ele>361.0</ele><time>2026-04-06T07:57:18.598Z</time></trkpt><trkpt lat="44.7057683" lon="9.373825"><ele>365.5</ele><time>2026-04-06T07:57:19.598Z</time></trkpt><trkpt lat="44.705695" lon="9.3736883"><ele>370.0</ele><time>2026-04-06T07:57:20.6Z</time></trkpt><trkpt lat="44.70561" lon="9.3735533"><ele>374.5</ele><time>2026-04-06T07:57:21.598Z</time></trkpt><trkpt lat="44.705525" lon="9.3734233"><ele>379.0</ele><time>2026-04-06T07:57:22.598Z</time></trkpt><trkpt lat="44.7054417" lon="9.3732917"><ele>379.0</ele><time>2026-04-06T07:57:23.598Z</time></trkpt><trkpt lat="44.7053583" lon="9.373175"><ele>379.0</ele><time>2026-04-06T07:57:24.598Z</time></trkpt><trkpt lat="44.7052667" lon="9.3730783"><ele>379.0</ele><time>2026-04-06T07:57:25.598Z</time></trkpt><trkpt lat="44.705155" lon="9.3730183"><ele>379.0</ele><time>2026-04-06T07:57:26.597Z</time></trkpt><trkpt lat="44.7050317" lon="9.3729767"><ele>382.25</ele><time>2026-04-06T07:57:27.598Z</time></trkpt><trkpt lat="44.7049083" lon="9.3729367"><ele>385.5</ele><time>2026-04-06T07:57:28.598Z</time></trkpt><trkpt lat="44.7047917" lon="9.3728833"><ele>388.75</ele><time>2026-04-06T07:57:29.598Z</time></trkpt><trkpt lat="44.7046783" lon="9.3728267"><ele>392.0</ele><time>2026-04-06T07:57:30.598Z</time></trkpt><trkpt lat="44.7045617" lon="9.3727983"><ele>392.0</ele><time>2026-04-06T07:57:31.598Z</time></trkpt><trkpt lat="44.70444" lon="9.372805"><ele>392.0</ele><time>2026-04-06T07:57:32.598Z</time></trkpt><trkpt lat="44.7043233" lon="9.3728267"><ele>392.0</ele><time>2026-04-06T07:57:33.597Z</time></trkpt><trkpt lat="44.704215" lon="9.372835"><ele>392.0</ele><time>2026-04-06T07:57:34.599Z</time></trkpt><trkpt lat="44.7041067" lon="9.3728183"><ele>390.8</ele><time>2026-04-06T07:57:35.598Z</time></trkpt><trkpt lat="44.7039983" lon="9.37277"><ele>389.6</ele><time>2026-04-06T07:57:36.598Z</time></trkpt><trkpt lat="44.7038933" lon="9.3726983"><ele>388.40000000000003</ele><time>2026-04-06T07:57:37.599Z</time></trkpt><trkpt lat="44.7037967" lon="9.3726233"><ele>387.20000000000005</ele><time>2026-04-06T07:57:38.601Z</time></trkpt><trkpt lat="44.7037083" lon="9.37254"><ele>386.0</ele><time>2026-04-06T07:57:39.597Z</time></trkpt><trkpt lat="44.703625" lon="9.3724367"><ele>386.5</ele><time>2026-04-06T07:57:40.597Z</time></trkpt><trkpt lat="44.7035467" lon="9.3723117"><ele>387.0</ele><time>2026-04-06T07:57:41.598Z</time></trkpt><trkpt lat="44.7034733" lon="9.372165"><ele>387.5</ele><time>2026-04-06T07:57:42.598Z</time></trkpt><trkpt lat="44.7034017" lon="9.3720117"><ele>388.0</ele><time>2026-04-06T07:57:43.598Z</time></trkpt><trkpt lat="44.7033283" lon="9.3718683"><ele>388.0</ele><time>2026-04-06T07:57:44.597Z</time></trkpt><trkpt lat="44.7032533" lon="9.3717317"><ele>388.0</ele><time>2026-04-06T07:57:45.598Z</time></trkpt><trkpt lat="44.70317" lon="9.37162"><ele>388.0</ele><time>2026-04-06T07:57:46.597Z</time></trkpt><trkpt lat="44.7030633" lon="9.3715367"><ele>388.0</ele><time>2026-04-06T07:57:47.599Z</time></trkpt><trkpt lat="44.702925" lon="9.3714733"><ele>388.0</ele><time>2026-04-06T07:57:48.598Z</time></trkpt><trkpt lat="44.702755" lon="9.3714183"><ele>388.0</ele><time>2026-04-06T07:57:49.598Z</time></trkpt><trkpt lat="44.7025733" lon="9.3713517"><ele>388.0</ele><time>2026-04-06T07:57:50.599Z</time></trkpt><trkpt lat="44.702405" lon="9.3712817"><ele>391.0</ele><time>2026-04-06T07:57:51.598Z</time></trkpt><trkpt lat="44.7022583" lon="9.3712133"><ele>394.0</ele><time>2026-04-06T07:57:52.599Z</time></trkpt><trkpt lat="44.7021283" lon="9.3711433"><ele>397.0</ele><time>2026-04-06T07:57:53.597Z</time></trkpt><trkpt lat="44.7020117" lon="9.3710583"><ele>400.0</ele><time>2026-04-06T07:57:54.598Z</time></trkpt><trkpt lat="44.7019083" lon="9.3709467"><ele>397.0</ele><time>2026-04-06T07:57:55.597Z</time></trkpt><trkpt lat="44.701825" lon="9.370815"><ele>394.0</ele><time>2026-04-06T07:57:56.599Z</time></trkpt><trkpt lat="44.7017767" lon="9.3706733"><ele>391.0</ele><time>2026-04-06T07:57:57.598Z</time></trkpt><trkpt lat="44.7017667" lon="9.3705083"><ele>388.0</ele><time>2026-04-06T07:57:58.598Z</time></trkpt><trkpt lat="44.7017933" lon="9.37034"><ele>388.0</ele><time>2026-04-06T07:57:59.598Z</time></trkpt><trkpt lat="44.701845" lon="9.3701833"><ele>388.0</ele><time>2026-04-06T07:58:00.598Z</time></trkpt><trkpt lat="44.70189" lon="9.3700467"><ele>388.0</ele><time>2026-04-06T07:58:01.597Z</time></trkpt><trkpt lat="44.7019067" lon="9.3699167"><ele>388.0</ele><time>2026-04-06T07:58:02.598Z</time></trkpt><trkpt lat="44.701885" lon="9.3697883"><ele>388.0</ele><time>2026-04-06T07:58:03.599Z</time></trkpt><trkpt lat="44.7018367" lon="9.3696783"><ele>391.79999999999995</ele><time>2026-04-06T07:58:04.599Z</time></trkpt><trkpt lat="44.7017883" lon="9.3695733"><ele>395.6</ele><time>2026-04-06T07:58:05.599Z</time></trkpt><trkpt lat="44.701745" lon="9.3694517"><ele>399.4</ele><time>2026-04-06T07:58:06.597Z</time></trkpt><trkpt lat="44.7017167" lon="9.3693167"><ele>403.20000000000005</ele><time>2026-04-06T07:58:07.597Z</time></trkpt><trkpt lat="44.7016967" lon="9.3691767"><ele>407.0</ele><time>2026-04-06T07:58:08.598Z</time></trkpt><trkpt lat="44.7016667" lon="9.3690317"><ele>407.0</ele><time>2026-04-06T07:58:09.598Z</time></trkpt><trkpt lat="44.7016067" lon="9.3688883"><ele>407.0</ele><time>2026-04-06T07:58:10.599Z</time></trkpt><trkpt lat="44.7015017" lon="9.36874"><ele>407.0</ele><time>2026-04-06T07:58:11.598Z</time></trkpt><trkpt lat="44.7013967" lon="9.3685767"><ele>407.0</ele><time>2026-04-06T07:58:12.599Z</time></trkpt><trkpt lat="44.70131" lon="9.3683783"><ele>409.66666666666663</ele><time>2026-04-06T07:58:13.598Z</time></trkpt><trkpt lat="44.7012383" lon="9.36817"><ele>412.33333333333337</ele><time>2026-04-06T07:58:14.598Z</time></trkpt><trkpt lat="44.7011633" lon="9.36799"><ele>415.0</ele><time>2026-04-06T07:58:15.599Z</time></trkpt><trkpt lat="44.7010617" lon="9.367835"><ele>415.0</ele><time>2026-04-06T07:58:16.6Z</time></trkpt><trkpt lat="44.7009433" lon="9.3677067"><ele>415.0</ele><time>2026-04-06T07:58:17.598Z</time></trkpt><trkpt lat="44.7008283" lon="9.367595"><ele>415.0</ele><time>2026-04-06T07:58:18.599Z</time></trkpt><trkpt lat="44.70072" lon="9.3674833"><ele>415.0</ele><time>2026-04-06T07:58:19.598Z</time></trkpt><trkpt lat="44.7006183" lon="9.3673783"><ele>415.0</ele><time>2026-04-06T07:58:20.598Z</time></trkpt><trkpt lat="44.7005333" lon="9.36727"><ele>415.0</ele><time>2026-04-06T07:58:21.598Z</time></trkpt><trkpt lat="44.700475" lon="9.36714"><ele>415.0</ele><time>2026-04-06T07:58:22.598Z</time></trkpt><trkpt lat="44.7004467" lon="9.366995"><ele>415.0</ele><time>2026-04-06T07:58:23.598Z</time></trkpt><trkpt lat="44.7004533" lon="9.36684"><ele>415.0</ele><time>2026-04-06T07:58:24.598Z</time></trkpt><trkpt lat="44.7004817" lon="9.36669"><ele>419.0</ele><time>2026-04-06T07:58:25.598Z</time></trkpt><trkpt lat="44.7005083" lon="9.3665533"><ele>423.0</ele><time>2026-04-06T07:58:26.598Z</time></trkpt><trkpt lat="44.7005017" lon="9.366425"><ele>427.0</ele><time>2026-04-06T07:58:27.597Z</time></trkpt><trkpt lat="44.7004617" lon="9.3663067"><ele>431.0</ele><time>2026-04-06T07:58:28.597Z</time></trkpt><trkpt lat="44.700385" lon="9.3662067"><ele>435.0</ele><time>2026-04-06T07:58:29.597Z</time></trkpt><trkpt lat="44.7002883" lon="9.366145"><ele>437.0</ele><time>2026-04-06T07:58:30.599Z</time></trkpt><trkpt lat="44.7001717" lon="9.3661317"><ele>439.0</ele><time>2026-04-06T07:58:31.598Z</time></trkpt><trkpt lat="44.7000183" lon="9.3661667"><ele>441.0</ele><time>2026-04-06T07:58:32.598Z</time></trkpt><trkpt lat="44.69983" lon="9.3662183"><ele>441.0</ele><time>2026-04-06T07:58:33.599Z</time></trkpt><trkpt lat="44.6996467" lon="9.3662583"><ele>441.0</ele><time>2026-04-06T07:58:34.598Z</time></trkpt><trkpt lat="44.6994983" lon="9.3662817"><ele>441.0</ele><time>2026-04-06T07:58:35.601Z</time></trkpt><trkpt lat="44.6993733" lon="9.3662767"><ele>437.4</ele><time>2026-04-06T07:58:36.599Z</time></trkpt><trkpt lat="44.6992633" lon="9.3662333"><ele>433.8</ele><time>2026-04-06T07:58:37.597Z</time></trkpt><trkpt lat="44.699165" lon="9.3661533"><ele>430.2</ele><time>2026-04-06T07:58:38.599Z</time></trkpt><trkpt lat="44.6990667" lon="9.3660833"><ele>426.59999999999997</ele><time>2026-04-06T07:58:39.599Z</time></trkpt><trkpt lat="44.698975" lon="9.3660233"><ele>423.0</ele><time>2026-04-06T07:58:40.598Z</time></trkpt><trkpt lat="44.6989033" lon="9.3659467"><ele>423.0</ele><time>2026-04-06T07:58:41.597Z</time></trkpt><trkpt lat="44.6988617" lon="9.3658333"><ele>423.0</ele><time>2026-04-06T07:58:42.598Z</time></trkpt><trkpt lat="44.6988533" lon="9.3657017"><ele>423.0</ele><time>2026-04-06T07:58:43.597Z</time></trkpt><trkpt lat="44.6988417" lon="9.36555"><ele>423.0</ele><time>2026-04-06T07:58:44.599Z</time></trkpt><trkpt lat="44.698805" lon="9.365385"><ele>423.0</ele><time>2026-04-06T07:58:45.598Z</time></trkpt><trkpt lat="44.6987417" lon="9.3652117"><ele>421.5</ele><time>2026-04-06T07:58:46.599Z</time></trkpt><trkpt lat="44.698675" lon="9.3650483"><ele>420.0</ele><time>2026-04-06T07:58:47.599Z</time></trkpt><trkpt lat="44.6985933" lon="9.3649233"><ele>418.5</ele><time>2026-04-06T07:58:48.6Z</time></trkpt><trkpt lat="44.698485" lon="9.3648483"><ele>417.0</ele><time>2026-04-06T07:58:49.6Z</time></trkpt><trkpt lat="44.6983633" lon="9.3648133"><ele>417.0</ele><time>2026-04-06T07:58:50.601Z</time></trkpt><trkpt lat="44.6982417" lon="9.36478"><ele>417.0</ele><time>2026-04-06T07:58:51.6Z</time></trkpt><trkpt lat="44.6981233" lon="9.3647067"><ele>417.0</ele><time>2026-04-06T07:58:52.6Z</time></trkpt><trkpt lat="44.69802" lon="9.36459"><ele>417.0</ele><time>2026-04-06T07:58:53.601Z</time></trkpt><trkpt lat="44.6979383" lon="9.3644383"><ele>421.5</ele><time>2026-04-06T07:58:54.6Z</time></trkpt><trkpt lat="44.69787" lon="9.3642833"><ele>426.0</ele><time>2026-04-06T07:58:55.598Z</time></trkpt><trkpt lat="44.6977983" lon="9.3641517"><ele>430.5</ele><time>2026-04-06T07:58:56.599Z</time></trkpt><trkpt lat="44.6976933" lon="9.36407"><ele>435.0</ele><time>2026-04-06T07:58:57.598Z</time></trkpt><trkpt lat="44.697555" lon="9.3640283"><ele>435.0</ele><time>2026-04-06T07:58:58.599Z</time></trkpt><trkpt lat="44.6973983" lon="9.364005"><ele>435.0</ele><time>2026-04-06T07:58:59.597Z</time></trkpt><trkpt lat="44.6972417" lon="9.3639817"><ele>435.0</ele><time>2026-04-06T07:59:00.598Z</time></trkpt><trkpt lat="44.6970933" lon="9.36397"><ele>435.0</ele><time>2026-04-06T07:59:01.598Z</time></trkpt><trkpt lat="44.696945" lon="9.3639967"><ele>435.0</ele><time>2026-04-06T07:59:02.599Z</time></trkpt><trkpt lat="44.696795" lon="9.364015"><ele>435.0</ele><time>2026-04-06T07:59:03.598Z</time></trkpt><trkpt lat="44.6966333" lon="9.3640167"><ele>438.0</ele><time>2026-04-06T07:59:04.598Z</time></trkpt><trkpt lat="44.6964533" lon="9.3640033"><ele>441.0</ele><time>2026-04-06T07:59:05.597Z</time></trkpt><trkpt lat="44.6962767" lon="9.36398"><ele>444.0</ele><time>2026-04-06T07:59:06.598Z</time></trkpt><trkpt lat="44.6961133" lon="9.3639483"><ele>442.0</ele><time>2026-04-06T07:59:07.598Z</time></trkpt><trkpt lat="44.6959617" lon="9.3639017"><ele>440.0</ele><time>2026-04-06T07:59:08.597Z</time></trkpt><trkpt lat="44.695815" lon="9.3638417"><ele>438.0</ele><time>2026-04-06T07:59:09.601Z</time></trkpt><trkpt lat="44.6956583" lon="9.3638117"><ele>440.66666666666663</ele><time>2026-04-06T07:59:10.599Z</time></trkpt><trkpt lat="44.6954833" lon="9.36382"><ele>443.3333333333333</ele><time>2026-04-06T07:59:11.598Z</time></trkpt><trkpt lat="44.69529" lon="9.3638517"><ele>446.0</ele><time>2026-04-06T07:59:12.598Z</time></trkpt><trkpt lat="44.6950933" lon="9.3638883"><ele>446.0</ele><time>2026-04-06T07:59:13.597Z</time></trkpt><trkpt lat="44.6949117" lon="9.3639233"><ele>446.0</ele><time>2026-04-06T07:59:14.599Z</time></trkpt><trkpt lat="44.6947533" lon="9.3639533"><ele>446.0</ele><time>2026-04-06T07:59:15.599Z</time></trkpt><trkpt lat="44.694615" lon="9.36398"><ele>446.0</ele><time>2026-04-06T07:59:16.598Z</time></trkpt><trkpt lat="44.6944967" lon="9.3639967"><ele>446.0</ele><time>2026-04-06T07:59:17.6Z</time></trkpt><trkpt lat="44.694395" lon="9.3639983"><ele>446.0</ele><time>2026-04-06T07:59:18.598Z</time></trkpt><trkpt lat="44.6943167" lon="9.363965"><ele>446.0</ele><time>2026-04-06T07:59:19.599Z</time></trkpt><trkpt lat="44.6942917" lon="9.3638167"><ele>446.0</ele><time>2026-04-06T07:59:21.598Z</time></trkpt><trkpt lat="44.69434" lon="9.3637367"><ele>442.0</ele><time>2026-04-06T07:59:22.597Z</time></trkpt><trkpt lat="44.69442" lon="9.3636717"><ele>438.0</ele><time>2026-04-06T07:59:23.599Z</time></trkpt><trkpt lat="44.6945067" lon="9.363595"><ele>434.0</ele><time>2026-04-06T07:59:24.599Z</time></trkpt><trkpt lat="44.694575" lon="9.3634867"><ele>430.0</ele><time>2026-04-06T07:59:25.597Z</time></trkpt><trkpt lat="44.694595" lon="9.3633367"><ele>426.0</ele><time>2026-04-06T07:59:26.599Z</time></trkpt><trkpt lat="44.6945917" lon="9.363165"><ele>434.75</ele><time>2026-04-06T07:59:27.598Z</time></trkpt><trkpt lat="44.6945933" lon="9.3629983"><ele>443.5</ele><time>2026-04-06T07:59:28.598Z</time></trkpt><trkpt lat="44.6946183" lon="9.36284"><ele>452.25</ele><time>2026-04-06T07:59:29.599Z</time></trkpt><trkpt lat="44.6946733" lon="9.3626883"><ele>461.0</ele><time>2026-04-06T07:59:30.597Z</time></trkpt><trkpt lat="44.6947467" lon="9.3625417"><ele>461.0</ele><time>2026-04-06T07:59:31.597Z</time></trkpt><trkpt lat="44.6948333" lon="9.3624083"><ele>461.0</ele><time>2026-04-06T07:59:32.598Z</time></trkpt><trkpt lat="44.6949367" lon="9.36229"><ele>461.0</ele><time>2026-04-06T07:59:33.599Z</time></trkpt><trkpt lat="44.6950567" lon="9.3622017"><ele>461.0</ele><time>2026-04-06T07:59:34.599Z</time></trkpt><trkpt lat="44.6951817" lon="9.3621317"><ele>466.75</ele><time>2026-04-06T07:59:35.6Z</time></trkpt><trkpt lat="44.6952933" lon="9.3620467"><ele>472.5</ele><time>2026-04-06T07:59:36.597Z</time></trkpt><trkpt lat="44.6953633" lon="9.3619217"><ele>478.25</ele><time>2026-04-06T07:59:37.598Z</time></trkpt><trkpt lat="44.6953983" lon="9.3617583"><ele>484.0</ele><time>2026-04-06T07:59:38.597Z</time></trkpt><trkpt lat="44.6953867" lon="9.361565"><ele>482.5</ele><time>2026-04-06T07:59:39.598Z</time></trkpt><trkpt lat="44.6953517" lon="9.36136"><ele>481.0</ele><time>2026-04-06T07:59:40.598Z</time></trkpt><trkpt lat="44.695325" lon="9.3611567"><ele>479.5</ele><time>2026-04-06T07:59:41.598Z</time></trkpt><trkpt lat="44.69533" lon="9.3609483"><ele>478.0</ele><time>2026-04-06T07:59:42.599Z</time></trkpt><trkpt lat="44.6953717" lon="9.3607167"><ele>478.6666666666667</ele><time>2026-04-06T07:59:43.597Z</time></trkpt><trkpt lat="44.6954267" lon="9.3604733"><ele>479.33333333333337</ele><time>2026-04-06T07:59:44.598Z</time></trkpt><trkpt lat="44.6954867" lon="9.3602417"><ele>480.0</ele><time>2026-04-06T07:59:45.601Z</time></trkpt><trkpt lat="44.69554" lon="9.3600367"><ele>480.0</ele><time>2026-04-06T07:59:46.597Z</time></trkpt><trkpt lat="44.6955783" lon="9.3598483"><ele>480.0</ele><time>2026-04-06T07:59:47.599Z</time></trkpt><trkpt lat="44.6955967" lon="9.359665"><ele>480.0</ele><time>2026-04-06T07:59:48.597Z</time></trkpt><trkpt lat="44.6955917" lon="9.359485"><ele>480.0</ele><time>2026-04-06T07:59:49.599Z</time></trkpt><trkpt lat="44.6955433" lon="9.3593183"><ele>480.5</ele><time>2026-04-06T07:59:50.599Z</time></trkpt><trkpt lat="44.69546" lon="9.3591883"><ele>481.0</ele><time>2026-04-06T07:59:51.599Z</time></trkpt><trkpt lat="44.6953433" lon="9.359115"><ele>481.5</ele><time>2026-04-06T07:59:52.597Z</time></trkpt><trkpt lat="44.695205" lon="9.3591083"><ele>482.0</ele><time>2026-04-06T07:59:53.598Z</time></trkpt><trkpt lat="44.69505" lon="9.3591533"><ele>479.75</ele><time>2026-04-06T07:59:54.598Z</time></trkpt><trkpt lat="44.6948917" lon="9.359205"><ele>477.5</ele><time>2026-04-06T07:59:55.599Z</time></trkpt><trkpt lat="44.6947517" lon="9.35925"><ele>475.25</ele><time>2026-04-06T07:59:56.599Z</time></trkpt><trkpt lat="44.69463" lon="9.359275"><ele>473.0</ele><time>2026-04-06T07:59:57.598Z</time></trkpt><trkpt lat="44.69452" lon="9.35928"><ele>473.0</ele><time>2026-04-06T07:59:58.598Z</time></trkpt><trkpt lat="44.6944233" lon="9.3592417"><ele>473.0</ele><time>2026-04-06T07:59:59.6Z</time></trkpt><trkpt lat="44.69433" lon="9.3591467"><ele>473.0</ele><time>2026-04-06T08:00:00.599Z</time></trkpt><trkpt lat="44.6942383" lon="9.359"><ele>473.0</ele><time>2026-04-06T08:00:01.601Z</time></trkpt><trkpt lat="44.694145" lon="9.3588383"><ele>471.5</ele><time>2026-04-06T08:00:02.599Z</time></trkpt><trkpt lat="44.694055" lon="9.3586867"><ele>470.0</ele><time>2026-04-06T08:00:03.6Z</time></trkpt><trkpt lat="44.6939783" lon="9.35855"><ele>468.5</ele><time>2026-04-06T08:00:04.6Z</time></trkpt><trkpt lat="44.6939283" lon="9.3584167"><ele>467.0</ele><time>2026-04-06T08:00:05.6Z</time></trkpt><trkpt lat="44.693915" lon="9.35828"><ele>467.0</ele><time>2026-04-06T08:00:06.599Z</time></trkpt><trkpt lat="44.693945" lon="9.35814"><ele>467.0</ele><time>2026-04-06T08:00:07.599Z</time></trkpt><trkpt lat="44.6940083" lon="9.357995"><ele>467.0</ele><time>2026-04-06T08:00:08.6Z</time></trkpt><trkpt lat="44.694095" lon="9.3578617"><ele>467.0</ele><time>2026-04-06T08:00:09.599Z</time></trkpt><trkpt lat="44.69421" lon="9.357745"><ele>471.75</ele><time>2026-04-06T08:00:10.6Z</time></trkpt><trkpt lat="44.69434" lon="9.3576433"><ele>476.5</ele><time>2026-04-06T08:00:11.598Z</time></trkpt><trkpt lat="44.6944633" lon="9.3575517"><ele>481.25</ele><time>2026-04-06T08:00:12.598Z</time></trkpt><trkpt lat="44.6945767" lon="9.3574517"><ele>486.0</ele><time>2026-04-06T08:00:13.599Z</time></trkpt><trkpt lat="44.694665" lon="9.3573167"><ele>481.66666666666663</ele><time>2026-04-06T08:00:14.598Z</time></trkpt><trkpt lat="44.69473" lon="9.35713"><ele>477.3333333333333</ele><time>2026-04-06T08:00:15.598Z</time></trkpt><trkpt lat="44.6947833" lon="9.35692"><ele>473.0</ele><time>2026-04-06T08:00:16.598Z</time></trkpt><trkpt lat="44.6948267" lon="9.3567117"><ele>473.0</ele><time>2026-04-06T08:00:17.599Z</time></trkpt><trkpt lat="44.694865" lon="9.3565117"><ele>473.0</ele><time>2026-04-06T08:00:18.598Z</time></trkpt><trkpt lat="44.6949033" lon="9.3563267"><ele>473.0</ele><time>2026-04-06T08:00:19.597Z</time></trkpt><trkpt lat="44.6949267" lon="9.3561567"><ele>473.0</ele><time>2026-04-06T08:00:20.599Z</time></trkpt><trkpt lat="44.69491" lon="9.356"><ele>472.4</ele><time>2026-04-06T08:00:21.598Z</time></trkpt><trkpt lat="44.6948567" lon="9.355865"><ele>471.79999999999995</ele><time>2026-04-06T08:00:22.598Z</time></trkpt><trkpt lat="44.6947983" lon="9.355735"><ele>471.2</ele><time>2026-04-06T08:00:23.599Z</time></trkpt><trkpt lat="44.6947617" lon="9.3556033"><ele>470.6</ele><time>2026-04-06T08:00:24.598Z</time></trkpt><trkpt lat="44.69476" lon="9.3554433"><ele>470.0</ele><time>2026-04-06T08:00:25.598Z</time></trkpt><trkpt lat="44.6947817" lon="9.3552567"><ele>469.25</ele><time>2026-04-06T08:00:26.599Z</time></trkpt><trkpt lat="44.6948083" lon="9.3550617"><ele>468.5</ele><time>2026-04-06T08:00:27.598Z</time></trkpt><trkpt lat="44.6948433" lon="9.3548717"><ele>467.75</ele><time>2026-04-06T08:00:28.598Z</time></trkpt><trkpt lat="44.6948617" lon="9.3546917"><ele>467.0</ele><time>2026-04-06T08:00:29.598Z</time></trkpt><trkpt lat="44.6948433" lon="9.3545183"><ele>469.75</ele><time>2026-04-06T08:00:30.598Z</time></trkpt><trkpt lat="44.6947883" lon="9.3543617"><ele>472.5</ele><time>2026-04-06T08:00:31.599Z</time></trkpt><trkpt lat="44.694725" lon="9.3542067"><ele>475.25</ele><time>2026-04-06T08:00:32.599Z</time></trkpt><trkpt lat="44.6946917" lon="9.3540383"><ele>478.0</ele><time>2026-04-06T08:00:33.598Z</time></trkpt><trkpt lat="44.6946867" lon="9.35387"><ele>475.0</ele><time>2026-04-06T08:00:34.598Z</time></trkpt><trkpt lat="44.69469" lon="9.35371"><ele>471.99999999999994</ele><time>2026-04-06T08:00:35.599Z</time></trkpt><trkpt lat="44.69466" lon="9.3535733"><ele>468.99999999999994</ele><time>2026-04-06T08:00:36.598Z</time></trkpt><trkpt lat="44.6945933" lon="9.3534683"><ele>466.0</ele><time>2026-04-06T08:00:37.599Z</time></trkpt><trkpt lat="44.6944917" lon="9.3534083"><ele>463.0</ele><time>2026-04-06T08:00:38.599Z</time></trkpt><trkpt lat="44.6943733" lon="9.353405"><ele>463.0</ele><time>2026-04-06T08:00:39.6Z</time></trkpt><trkpt lat="44.6942533" lon="9.353425"><ele>462.99999999999994</ele><time>2026-04-06T08:00:40.598Z</time></trkpt><trkpt lat="44.6941417" lon="9.35344"><ele>462.99999999999994</ele><time>2026-04-06T08:00:41.598Z</time></trkpt><trkpt lat="44.6940317" lon="9.3534433"><ele>463.0</ele><time>2026-04-06T08:00:42.599Z</time></trkpt><trkpt lat="44.69394" lon="9.3533967"><ele>463.0</ele><time>2026-04-06T08:00:43.598Z</time></trkpt><trkpt lat="44.6938667" lon="9.3533167"><ele>463.0</ele><time>2026-04-06T08:00:44.598Z</time></trkpt><trkpt lat="44.693795" lon="9.3532383"><ele>462.99999999999994</ele><time>2026-04-06T08:00:45.598Z</time></trkpt><trkpt lat="44.6937117" lon="9.353195"><ele>462.99999999999994</ele><time>2026-04-06T08:00:46.6Z</time></trkpt><trkpt lat="44.6936117" lon="9.3531817"><ele>463.0</ele><time>2026-04-06T08:00:47.598Z</time></trkpt><trkpt lat="44.6935083" lon="9.35318"><ele>463.0</ele><time>2026-04-06T08:00:48.598Z</time></trkpt><trkpt lat="44.6934133" lon="9.3531517"><ele>459.0</ele><time>2026-04-06T08:00:49.597Z</time></trkpt><trkpt lat="44.6933367" lon="9.3530883"><ele>454.99999999999994</ele><time>2026-04-06T08:00:50.598Z</time></trkpt><trkpt lat="44.69329" lon="9.352995"><ele>450.99999999999994</ele><time>2026-04-06T08:00:51.597Z</time></trkpt><trkpt lat="44.693285" lon="9.3528733"><ele>447.0</ele><time>2026-04-06T08:00:52.598Z</time></trkpt><trkpt lat="44.693305" lon="9.3527283"><ele>443.0</ele><time>2026-04-06T08:00:53.598Z</time></trkpt><trkpt lat="44.693325" lon="9.3525733"><ele>443.0</ele><time>2026-04-06T08:00:54.598Z</time></trkpt><trkpt lat="44.6933233" lon="9.35241"><ele>443.0</ele><time>2026-04-06T08:00:55.599Z</time></trkpt><trkpt lat="44.69328" lon="9.352235"><ele>443.0</ele><time>2026-04-06T08:00:56.599Z</time></trkpt><trkpt lat="44.6932183" lon="9.3520667"><ele>443.0</ele><time>2026-04-06T08:00:57.597Z</time></trkpt><trkpt lat="44.6931417" lon="9.3519033"><ele>449.0</ele><time>2026-04-06T08:00:58.598Z</time></trkpt><trkpt lat="44.6930583" lon="9.351745"><ele>455.0</ele><time>2026-04-06T08:00:59.601Z</time></trkpt><trkpt lat="44.6929867" lon="9.35159"><ele>461.0</ele><time>2026-04-06T08:01:00.599Z</time></trkpt><trkpt lat="44.692935" lon="9.3514317"><ele>467.0</ele><time>2026-04-06T08:01:01.599Z</time></trkpt><trkpt lat="44.6928983" lon="9.3512767"><ele>471.0</ele><time>2026-04-06T08:01:02.599Z</time></trkpt><trkpt lat="44.6928467" lon="9.3511233"><ele>475.0</ele><time>2026-04-06T08:01:03.599Z</time></trkpt><trkpt lat="44.692765" lon="9.350975"><ele>479.0</ele><time>2026-04-06T08:01:04.601Z</time></trkpt><trkpt lat="44.6926583" lon="9.3508333"><ele>483.0</ele><time>2026-04-06T08:01:05.601Z</time></trkpt><trkpt lat="44.69255" lon="9.3506933"><ele>479.25</ele><time>2026-04-06T08:01:06.6Z</time></trkpt><trkpt lat="44.69246" lon="9.3505467"><ele>475.5</ele><time>2026-04-06T08:01:07.6Z</time></trkpt><trkpt lat="44.6923883" lon="9.3503883"><ele>471.75</ele><time>2026-04-06T08:01:08.599Z</time></trkpt><trkpt lat="44.6923183" lon="9.3502317"><ele>468.0</ele><time>2026-04-06T08:01:09.597Z</time></trkpt><trkpt lat="44.692235" lon="9.3500933"><ele>468.0</ele><time>2026-04-06T08:01:10.598Z</time></trkpt><trkpt lat="44.6921433" lon="9.3499717"><ele>468.0</ele><time>2026-04-06T08:01:11.597Z</time></trkpt><trkpt lat="44.69207" lon="9.3498417"><ele>468.0</ele><time>2026-04-06T08:01:12.598Z</time></trkpt><trkpt lat="44.6920217" lon="9.3497017"><ele>468.0</ele><time>2026-04-06T08:01:13.598Z</time></trkpt><trkpt lat="44.6919717" lon="9.349575"><ele>460.59999999999997</ele><time>2026-04-06T08:01:14.598Z</time></trkpt><trkpt lat="44.6919017" lon="9.34948"><ele>453.19999999999993</ele><time>2026-04-06T08:01:15.599Z</time></trkpt><trkpt lat="44.6918083" lon="9.34941"><ele>445.8</ele><time>2026-04-06T08:01:16.598Z</time></trkpt><trkpt lat="44.6917117" lon="9.349335"><ele>438.4</ele><time>2026-04-06T08:01:17.599Z</time></trkpt><trkpt lat="44.6916217" lon="9.3492417"><ele>431.0</ele><time>2026-04-06T08:01:18.598Z</time></trkpt><trkpt lat="44.6915567" lon="9.34913"><ele>431.0</ele><time>2026-04-06T08:01:19.598Z</time></trkpt><trkpt lat="44.691525" lon="9.349005"><ele>431.0</ele><time>2026-04-06T08:01:20.6Z</time></trkpt><trkpt lat="44.6915383" lon="9.348865"><ele>431.0</ele><time>2026-04-06T08:01:21.6Z</time></trkpt><trkpt lat="44.6915867" lon="9.3487317"><ele>431.0</ele><time>2026-04-06T08:01:22.599Z</time></trkpt><trkpt lat="44.6916517" lon="9.3485917"><ele>431.0</ele><time>2026-04-06T08:01:23.6Z</time></trkpt><trkpt lat="44.6917217" lon="9.3484333"><ele>431.8</ele><time>2026-04-06T08:01:24.598Z</time></trkpt><trkpt lat="44.69177" lon="9.34827"><ele>432.6</ele><time>2026-04-06T08:01:25.598Z</time></trkpt><trkpt lat="44.691805" lon="9.34811"><ele>433.4</ele><time>2026-04-06T08:01:26.599Z</time></trkpt><trkpt lat="44.69182" lon="9.3479583"><ele>434.2</ele><time>2026-04-06T08:01:27.599Z</time></trkpt><trkpt lat="44.6918" lon="9.3478267"><ele>435.0</ele><time>2026-04-06T08:01:28.598Z</time></trkpt><trkpt lat="44.6917333" lon="9.347725"><ele>436.4</ele><time>2026-04-06T08:01:29.599Z</time></trkpt><trkpt lat="44.6916567" lon="9.3476383"><ele>437.8</ele><time>2026-04-06T08:01:30.597Z</time></trkpt><trkpt lat="44.6915783" lon="9.3475333"><ele>439.20000000000005</ele><time>2026-04-06T08:01:31.599Z</time></trkpt><trkpt lat="44.6915167" lon="9.3474017"><ele>440.6</ele><time>2026-04-06T08:01:32.599Z</time></trkpt><trkpt lat="44.6914717" lon="9.3472633"><ele>442.0</ele><time>2026-04-06T08:01:33.597Z</time></trkpt><trkpt lat="44.691455" lon="9.3471233"><ele>442.6</ele><time>2026-04-06T08:01:34.6Z</time></trkpt><trkpt lat="44.6914733" lon="9.346985"><ele>443.20000000000005</ele><time>2026-04-06T08:01:35.6Z</time></trkpt><trkpt lat="44.691515" lon="9.3468567"><ele>443.8</ele><time>2026-04-06T08:01:36.6Z</time></trkpt><trkpt lat="44.6915567" lon="9.3467317"><ele>444.4</ele><time>2026-04-06T08:01:37.599Z</time></trkpt><trkpt lat="44.6915733" lon="9.3466033"><ele>445.0</ele><time>2026-04-06T08:01:38.6Z</time></trkpt><trkpt lat="44.69155" lon="9.3464717"><ele>447.25</ele><time>2026-04-06T08:01:39.599Z</time></trkpt><trkpt lat="44.6914833" lon="9.3463533"><ele>449.5</ele><time>2026-04-06T08:01:40.599Z</time></trkpt><trkpt lat="44.6913867" lon="9.3462467"><ele>451.75</ele><time>2026-04-06T08:01:41.598Z</time></trkpt><trkpt lat="44.69129" lon="9.34614"><ele>454.0</ele><time>2026-04-06T08:01:42.597Z</time></trkpt><trkpt lat="44.69121" lon="9.3460167"><ele>454.0</ele><time>2026-04-06T08:01:43.598Z</time></trkpt><trkpt lat="44.6911583" lon="9.34587"><ele>454.0</ele><time>2026-04-06T08:01:44.599Z</time></trkpt><trkpt lat="44.6911383" lon="9.345695"><ele>454.0</ele><time>2026-04-06T08:01:45.598Z</time></trkpt><trkpt lat="44.6911417" lon="9.3454983"><ele>454.0</ele><time>2026-04-06T08:01:46.597Z</time></trkpt><trkpt lat="44.691155" lon="9.3453033"><ele>451.75</ele><time>2026-04-06T08:01:47.598Z</time></trkpt><trkpt lat="44.6911667" lon="9.345125"><ele>449.5</ele><time>2026-04-06T08:01:48.597Z</time></trkpt><trkpt lat="44.6911967" lon="9.3449683"><ele>447.25</ele><time>2026-04-06T08:01:49.598Z</time></trkpt><trkpt lat="44.691255" lon="9.34484"><ele>445.0</ele><time>2026-04-06T08:01:50.598Z</time></trkpt><trkpt lat="44.69134" lon="9.3447433"><ele>437.0</ele><time>2026-04-06T08:01:51.599Z</time></trkpt><trkpt lat="44.691455" lon="9.3446817"><ele>429.0</ele><time>2026-04-06T08:01:52.598Z</time></trkpt><trkpt lat="44.6915817" lon="9.3446017"><ele>421.0</ele><time>2026-04-06T08:01:53.599Z</time></trkpt><trkpt lat="44.6917117" lon="9.34449"><ele>413.0</ele><time>2026-04-06T08:01:54.598Z</time></trkpt><trkpt lat="44.6918417" lon="9.3443667"><ele>423.3333333333333</ele><time>2026-04-06T08:01:55.599Z</time></trkpt><trkpt lat="44.6919733" lon="9.3442467"><ele>433.66666666666663</ele><time>2026-04-06T08:01:56.598Z</time></trkpt><trkpt lat="44.6921133" lon="9.344125"><ele>444.0</ele><time>2026-04-06T08:01:57.599Z</time></trkpt><trkpt lat="44.6922583" lon="9.3439817"><ele>431.66666666666663</ele><time>2026-04-06T08:01:58.598Z</time></trkpt><trkpt lat="44.692395" lon="9.34383"><ele>419.3333333333333</ele><time>2026-04-06T08:01:59.599Z</time></trkpt><trkpt lat="44.6925167" lon="9.3436733"><ele>407.0</ele><time>2026-04-06T08:02:00.597Z</time></trkpt><trkpt lat="44.6926217" lon="9.3435133"><ele>407.0</ele><time>2026-04-06T08:02:01.599Z</time></trkpt><trkpt lat="44.692705" lon="9.34334"><ele>407.0</ele><time>2026-04-06T08:02:02.598Z</time></trkpt><trkpt lat="44.6927683" lon="9.343145"><ele>407.0</ele><time>2026-04-06T08:02:03.597Z</time></trkpt><trkpt lat="44.6928233" lon="9.3429417"><ele>412.66666666666663</ele><time>2026-04-06T08:02:04.598Z</time></trkpt><trkpt lat="44.6928967" lon="9.34274"><ele>418.33333333333337</ele><time>2026-04-06T08:02:05.597Z</time></trkpt><trkpt lat="44.6929917" lon="9.342545"><ele>424.0</ele><time>2026-04-06T08:02:06.597Z</time></trkpt><trkpt lat="44.6930933" lon="9.3423667"><ele>421.0</ele><time>2026-04-06T08:02:07.597Z</time></trkpt><trkpt lat="44.6931967" lon="9.34221"><ele>418.0</ele><time>2026-04-06T08:02:08.598Z</time></trkpt><trkpt lat="44.6932933" lon="9.3420767"><ele>415.0</ele><time>2026-04-06T08:02:09.6Z</time></trkpt><trkpt lat="44.6933717" lon="9.3419517"><ele>412.0</ele><time>2026-04-06T08:02:10.599Z</time></trkpt><trkpt lat="44.693415" lon="9.3418"><ele>412.0</ele><time>2026-04-06T08:02:11.599Z</time></trkpt><trkpt lat="44.6934267" lon="9.3416417"><ele>412.0</ele><time>2026-04-06T08:02:12.599Z</time></trkpt><trkpt lat="44.6934133" lon="9.3414867"><ele>412.0</ele><time>2026-04-06T08:02:13.599Z</time></trkpt><trkpt lat="44.6933733" lon="9.3413567"><ele>412.0</ele><time>2026-04-06T08:02:14.599Z</time></trkpt><trkpt lat="44.6932933" lon="9.3412517"><ele>412.0</ele><time>2026-04-06T08:02:15.597Z</time></trkpt><trkpt lat="44.6931817" lon="9.3411683"><ele>418.75</ele><time>2026-04-06T08:02:16.598Z</time></trkpt><trkpt lat="44.693045" lon="9.3411183"><ele>425.5</ele><time>2026-04-06T08:02:17.598Z</time></trkpt><trkpt lat="44.6928967" lon="9.341115"><ele>432.25</ele><time>2026-04-06T08:02:18.598Z</time></trkpt><trkpt lat="44.6927467" lon="9.341145"><ele>439.0</ele><time>2026-04-06T08:02:19.598Z</time></trkpt><trkpt lat="44.6926033" lon="9.3412283"><ele>439.0</ele><time>2026-04-06T08:02:20.6Z</time></trkpt><trkpt lat="44.692475" lon="9.34138"><ele>439.0</ele><time>2026-04-06T08:02:21.599Z</time></trkpt><trkpt lat="44.6923633" lon="9.341565"><ele>439.0</ele><time>2026-04-06T08:02:22.599Z</time></trkpt><trkpt lat="44.6922583" lon="9.34174"><ele>432.5</ele><time>2026-04-06T08:02:23.599Z</time></trkpt><trkpt lat="44.69216" lon="9.3419067"><ele>426.0</ele><time>2026-04-06T08:02:24.599Z</time></trkpt><trkpt lat="44.69207" lon="9.3420567"><ele>419.5</ele><time>2026-04-06T08:02:25.598Z</time></trkpt><trkpt lat="44.69198" lon="9.3421767"><ele>413.0</ele><time>2026-04-06T08:02:26.6Z</time></trkpt><trkpt lat="44.6918733" lon="9.342265"><ele>413.79999999999995</ele><time>2026-04-06T08:02:27.599Z</time></trkpt><trkpt lat="44.6917633" lon="9.3423217"><ele>414.6</ele><time>2026-04-06T08:02:28.598Z</time></trkpt><trkpt lat="44.69166" lon="9.3423383"><ele>415.4</ele><time>2026-04-06T08:02:29.599Z</time></trkpt><trkpt lat="44.69157" lon="9.3422983"><ele>416.20000000000005</ele><time>2026-04-06T08:02:30.599Z</time></trkpt><trkpt lat="44.691505" lon="9.3422167"><ele>417.0</ele><time>2026-04-06T08:02:31.599Z</time></trkpt><trkpt lat="44.6914783" lon="9.34208"><ele>417.0</ele><time>2026-04-06T08:02:32.598Z</time></trkpt><trkpt lat="44.69149" lon="9.34193"><ele>417.0</ele><time>2026-04-06T08:02:33.598Z</time></trkpt><trkpt lat="44.6915117" lon="9.34176"><ele>417.0</ele><time>2026-04-06T08:02:34.598Z</time></trkpt><trkpt lat="44.691515" lon="9.34157"><ele>417.0</ele><time>2026-04-06T08:02:35.599Z</time></trkpt><trkpt lat="44.69149" lon="9.3413817"><ele>418.25</ele><time>2026-04-06T08:02:36.598Z</time></trkpt><trkpt lat="44.6914483" lon="9.341195"><ele>419.5</ele><time>2026-04-06T08:02:37.599Z</time></trkpt><trkpt lat="44.6914217" lon="9.3410183"><ele>420.75</ele><time>2026-04-06T08:02:38.599Z</time></trkpt><trkpt lat="44.69142" lon="9.3408467"><ele>422.0</ele><time>2026-04-06T08:02:39.598Z</time></trkpt><trkpt lat="44.6914433" lon="9.34066"><ele>422.25</ele><time>2026-04-06T08:02:40.598Z</time></trkpt><trkpt lat="44.6914817" lon="9.34047"><ele>422.5</ele><time>2026-04-06T08:02:41.598Z</time></trkpt><trkpt lat="44.6915233" lon="9.340285"><ele>422.75</ele><time>2026-04-06T08:02:42.598Z</time></trkpt><trkpt lat="44.6915583" lon="9.340115"><ele>423.0</ele><time>2026-04-06T08:02:43.599Z</time></trkpt><trkpt lat="44.6915717" lon="9.339955"><ele>423.0</ele><time>2026-04-06T08:02:44.598Z</time></trkpt><trkpt lat="44.6915517" lon="9.339805"><ele>423.0</ele><time>2026-04-06T08:02:45.599Z</time></trkpt><trkpt lat="44.6915033" lon="9.3396717"><ele>423.0</ele><time>2026-04-06T08:02:46.598Z</time></trkpt><trkpt lat="44.691455" lon="9.3395517"><ele>423.0</ele><time>2026-04-06T08:02:47.599Z</time></trkpt><trkpt lat="44.6914317" lon="9.339425"><ele>423.0</ele><time>2026-04-06T08:02:48.598Z</time></trkpt><trkpt lat="44.6914483" lon="9.3393"><ele>422.5</ele><time>2026-04-06T08:02:49.597Z</time></trkpt><trkpt lat="44.6915" lon="9.3391617"><ele>422.0</ele><time>2026-04-06T08:02:50.597Z</time></trkpt><trkpt lat="44.6915717" lon="9.339015"><ele>421.5</ele><time>2026-04-06T08:02:51.599Z</time></trkpt><trkpt lat="44.6916517" lon="9.3388733"><ele>421.0</ele><time>2026-04-06T08:02:52.598Z</time></trkpt><trkpt lat="44.6917267" lon="9.338735"><ele>420.75</ele><time>2026-04-06T08:02:53.597Z</time></trkpt><trkpt lat="44.6917833" lon="9.3385933"><ele>420.5</ele><time>2026-04-06T08:02:54.599Z</time></trkpt><trkpt lat="44.6918017" lon="9.3384433"><ele>420.25</ele><time>2026-04-06T08:02:55.598Z</time></trkpt><trkpt lat="44.6917767" lon="9.3382833"><ele>420.0</ele><time>2026-04-06T08:02:56.598Z</time></trkpt><trkpt lat="44.6917083" lon="9.3381383"><ele>422.25</ele><time>2026-04-06T08:02:57.598Z</time></trkpt><trkpt lat="44.6916183" lon="9.3380267"><ele>424.5</ele><time>2026-04-06T08:02:58.598Z</time></trkpt><trkpt lat="44.691515" lon="9.3379583"><ele>426.75</ele><time>2026-04-06T08:02:59.597Z</time></trkpt><trkpt lat="44.6914117" lon="9.3379167"><ele>429.0</ele><time>2026-04-06T08:03:00.598Z</time></trkpt><trkpt lat="44.6913017" lon="9.3378833"><ele>429.0</ele><time>2026-04-06T08:03:01.599Z</time></trkpt><trkpt lat="44.691195" lon="9.3378517"><ele>429.0</ele><time>2026-04-06T08:03:02.599Z</time></trkpt><trkpt lat="44.6910933" lon="9.3378167"><ele>429.0</ele><time>2026-04-06T08:03:03.598Z</time></trkpt><trkpt lat="44.6909983" lon="9.337775"><ele>429.0</ele><time>2026-04-06T08:03:04.598Z</time></trkpt><trkpt lat="44.6909" lon="9.337715"><ele>429.0</ele><time>2026-04-06T08:03:05.599Z</time></trkpt><trkpt lat="44.6908083" lon="9.3376267"><ele>427.79999999999995</ele><time>2026-04-06T08:03:06.6Z</time></trkpt><trkpt lat="44.6907233" lon="9.3375217"><ele>426.59999999999997</ele><time>2026-04-06T08:03:07.599Z</time></trkpt><trkpt lat="44.6906467" lon="9.3374133"><ele>425.4</ele><time>2026-04-06T08:03:08.599Z</time></trkpt><trkpt lat="44.6905783" lon="9.3373"><ele>424.2</ele><time>2026-04-06T08:03:09.599Z</time></trkpt><trkpt lat="44.6905283" lon="9.3371717"><ele>423.0</ele><time>2026-04-06T08:03:10.599Z</time></trkpt><trkpt lat="44.6905067" lon="9.337035"><ele>423.0</ele><time>2026-04-06T08:03:11.598Z</time></trkpt><trkpt lat="44.690515" lon="9.3368717"><ele>423.0</ele><time>2026-04-06T08:03:12.599Z</time></trkpt><trkpt lat="44.6905367" lon="9.336685"><ele>423.0</ele><time>2026-04-06T08:03:13.598Z</time></trkpt><trkpt lat="44.6905517" lon="9.336485"><ele>423.0</ele><time>2026-04-06T08:03:14.602Z</time></trkpt><trkpt lat="44.6905583" lon="9.3362617"><ele>424.0</ele><time>2026-04-06T08:03:15.598Z</time></trkpt><trkpt lat="44.690565" lon="9.3360233"><ele>425.0</ele><time>2026-04-06T08:03:16.598Z</time></trkpt><trkpt lat="44.69057" lon="9.33579"><ele>426.0</ele><time>2026-04-06T08:03:17.598Z</time></trkpt><trkpt lat="44.6905767" lon="9.3355733"><ele>425.0</ele><time>2026-04-06T08:03:18.597Z</time></trkpt><trkpt lat="44.6905783" lon="9.3353717"><ele>424.0</ele><time>2026-04-06T08:03:19.597Z</time></trkpt><trkpt lat="44.690565" lon="9.335185"><ele>423.0</ele><time>2026-04-06T08:03:20.599Z</time></trkpt><trkpt lat="44.6905183" lon="9.3350117"><ele>422.0</ele><time>2026-04-06T08:03:21.6Z</time></trkpt><trkpt lat="44.690445" lon="9.3348433"><ele>420.75</ele><time>2026-04-06T08:03:22.598Z</time></trkpt><trkpt lat="44.6903617" lon="9.334685"><ele>419.5</ele><time>2026-04-06T08:03:23.6Z</time></trkpt><trkpt lat="44.6902817" lon="9.3345333"><ele>418.25</ele><time>2026-04-06T08:03:24.598Z</time></trkpt><trkpt lat="44.69022" lon="9.3343783"><ele>417.0</ele><time>2026-04-06T08:03:25.599Z</time></trkpt><trkpt lat="44.6901867" lon="9.3342133"><ele>412.0</ele><time>2026-04-06T08:03:26.598Z</time></trkpt><trkpt lat="44.690175" lon="9.3340267"><ele>407.0</ele><time>2026-04-06T08:03:27.598Z</time></trkpt><trkpt lat="44.69017" lon="9.33382"><ele>402.0</ele><time>2026-04-06T08:03:28.6Z</time></trkpt><trkpt lat="44.6901583" lon="9.3336167"><ele>397.0</ele><time>2026-04-06T08:03:29.599Z</time></trkpt><trkpt lat="44.6901383" lon="9.33343"><ele>397.0</ele><time>2026-04-06T08:03:30.599Z</time></trkpt><trkpt lat="44.6901233" lon="9.3332633"><ele>397.0</ele><time>2026-04-06T08:03:31.601Z</time></trkpt><trkpt lat="44.690135" lon="9.33312"><ele>397.0</ele><time>2026-04-06T08:03:32.599Z</time></trkpt><trkpt lat="44.690185" lon="9.333"><ele>397.0</ele><time>2026-04-06T08:03:33.598Z</time></trkpt><trkpt lat="44.690265" lon="9.332895"><ele>397.0</ele><time>2026-04-06T08:03:34.598Z</time></trkpt><trkpt lat="44.690375" lon="9.332815"><ele>397.0</ele><time>2026-04-06T08:03:35.6Z</time></trkpt><trkpt lat="44.6904967" lon="9.3327683"><ele>397.0</ele><time>2026-04-06T08:03:36.598Z</time></trkpt><trkpt lat="44.6906217" lon="9.33275"><ele>397.0</ele><time>2026-04-06T08:03:37.599Z</time></trkpt><trkpt lat="44.69074" lon="9.332745"><ele>397.0</ele><time>2026-04-06T08:03:38.599Z</time></trkpt><trkpt lat="44.6908483" lon="9.332735"><ele>397.00000000000006</ele><time>2026-04-06T08:03:39.598Z</time></trkpt><trkpt lat="44.690935" lon="9.3327017"><ele>397.0</ele><time>2026-04-06T08:03:40.598Z</time></trkpt><trkpt lat="44.691005" lon="9.33264"><ele>397.0</ele><time>2026-04-06T08:03:41.598Z</time></trkpt><trkpt lat="44.6910517" lon="9.3325467"><ele>397.0</ele><time>2026-04-06T08:03:42.598Z</time></trkpt><trkpt lat="44.69104" lon="9.3324167"><ele>397.00000000000006</ele><time>2026-04-06T08:03:43.598Z</time></trkpt><trkpt lat="44.69099" lon="9.3323233"><ele>397.0</ele><time>2026-04-06T08:03:44.598Z</time></trkpt><trkpt lat="44.690905" lon="9.3322667"><ele>397.0</ele><time>2026-04-06T08:03:45.597Z</time></trkpt><trkpt lat="44.6907983" lon="9.332225"><ele>397.0</ele><time>2026-04-06T08:03:46.599Z</time></trkpt><trkpt lat="44.6906883" lon="9.332175"><ele>397.0</ele><time>2026-04-06T08:03:47.599Z</time></trkpt><trkpt lat="44.690595" lon="9.332095"><ele>397.0</ele><time>2026-04-06T08:03:48.599Z</time></trkpt><trkpt lat="44.6905133" lon="9.3319917"><ele>397.0</ele><time>2026-04-06T08:03:49.598Z</time></trkpt><trkpt lat="44.6904383" lon="9.3318783"><ele>398.40000000000003</ele><time>2026-04-06T08:03:50.601Z</time></trkpt><trkpt lat="44.6903667" lon="9.331765"><ele>399.8</ele><time>2026-04-06T08:03:51.598Z</time></trkpt><trkpt lat="44.6903017" lon="9.3316517"><ele>401.2</ele><time>2026-04-06T08:03:52.599Z</time></trkpt><trkpt lat="44.69025" lon="9.3315317"><ele>402.6</ele><time>2026-04-06T08:03:53.599Z</time></trkpt><trkpt lat="44.69021" lon="9.3314"><ele>404.0</ele><time>2026-04-06T08:03:54.598Z</time></trkpt><trkpt lat="44.6901817" lon="9.331255"><ele>396.75</ele><time>2026-04-06T08:03:55.599Z</time></trkpt><trkpt lat="44.690165" lon="9.331095"><ele>389.5</ele><time>2026-04-06T08:03:56.599Z</time></trkpt><trkpt lat="44.6901633" lon="9.3309317"><ele>382.25</ele><time>2026-04-06T08:03:57.598Z</time></trkpt><trkpt lat="44.6901733" lon="9.3307717"><ele>375.0</ele><time>2026-04-06T08:03:58.598Z</time></trkpt><trkpt lat="44.6901917" lon="9.3306117"><ele>375.4</ele><time>2026-04-06T08:03:59.598Z</time></trkpt><trkpt lat="44.6902067" lon="9.33045"><ele>375.8</ele><time>2026-04-06T08:04:00.599Z</time></trkpt><trkpt lat="44.690215" lon="9.33029"><ele>376.20000000000005</ele><time>2026-04-06T08:04:01.599Z</time></trkpt><trkpt lat="44.6902183" lon="9.330135"><ele>376.6</ele><time>2026-04-06T08:04:02.599Z</time></trkpt><trkpt lat="44.6902167" lon="9.3299883"><ele>377.0</ele><time>2026-04-06T08:04:03.6Z</time></trkpt><trkpt lat="44.6901967" lon="9.3298533"><ele>377.0</ele><time>2026-04-06T08:04:04.597Z</time></trkpt><trkpt lat="44.69015" lon="9.32974"><ele>377.0</ele><time>2026-04-06T08:04:05.601Z</time></trkpt><trkpt lat="44.6900817" lon="9.3296483"><ele>377.0</ele><time>2026-04-06T08:04:06.599Z</time></trkpt><trkpt lat="44.689995" lon="9.3295717"><ele>377.0</ele><time>2026-04-06T08:04:07.599Z</time></trkpt><trkpt lat="44.6898933" lon="9.3295033"><ele>377.0</ele><time>2026-04-06T08:04:08.6Z</time></trkpt><trkpt lat="44.6897833" lon="9.3294417"><ele>376.5</ele><time>2026-04-06T08:04:09.597Z</time></trkpt><trkpt lat="44.6896733" lon="9.329375"><ele>376.0</ele><time>2026-04-06T08:04:10.597Z</time></trkpt><trkpt lat="44.6895683" lon="9.3293083"><ele>375.5</ele><time>2026-04-06T08:04:11.598Z</time></trkpt><trkpt lat="44.689465" lon="9.3292417"><ele>375.0</ele><time>2026-04-06T08:04:12.597Z</time></trkpt><trkpt lat="44.6893633" lon="9.3291733"><ele>374.6</ele><time>2026-04-06T08:04:13.598Z</time></trkpt><trkpt lat="44.68926" lon="9.3291067"><ele>374.2</ele><time>2026-04-06T08:04:14.599Z</time></trkpt><trkpt lat="44.6891583" lon="9.3290433"><ele>373.79999999999995</ele><time>2026-04-06T08:04:15.598Z</time></trkpt><trkpt lat="44.6890683" lon="9.328985"><ele>373.4</ele><time>2026-04-06T08:04:16.599Z</time></trkpt><trkpt lat="44.6889867" lon="9.32892"><ele>373.0</ele><time>2026-04-06T08:04:17.597Z</time></trkpt><trkpt lat="44.688925" lon="9.3288367"><ele>373.0</ele><time>2026-04-06T08:04:18.597Z</time></trkpt><trkpt lat="44.6888883" lon="9.32874"><ele>373.0</ele><time>2026-04-06T08:04:19.599Z</time></trkpt><trkpt lat="44.6888867" lon="9.328625"><ele>373.0</ele><time>2026-04-06T08:04:20.601Z</time></trkpt><trkpt lat="44.6889117" lon="9.32849"><ele>373.0</ele><time>2026-04-06T08:04:21.6Z</time></trkpt><trkpt lat="44.6889433" lon="9.3283533"><ele>373.0</ele><time>2026-04-06T08:04:22.6Z</time></trkpt><trkpt lat="44.6889783" lon="9.32822"><ele>373.0</ele><time>2026-04-06T08:04:23.6Z</time></trkpt><trkpt lat="44.6890117" lon="9.32809"><ele>373.0</ele><time>2026-04-06T08:04:24.6Z</time></trkpt><trkpt lat="44.6890417" lon="9.3279633"><ele>373.0</ele><time>2026-04-06T08:04:25.599Z</time></trkpt><trkpt lat="44.6890633" lon="9.327845"><ele>373.0</ele><time>2026-04-06T08:04:26.6Z</time></trkpt><trkpt lat="44.68908" lon="9.327735"><ele>373.0</ele><time>2026-04-06T08:04:27.599Z</time></trkpt><trkpt lat="44.6890933" lon="9.32763"><ele>373.0</ele><time>2026-04-06T08:04:28.603Z</time></trkpt><trkpt lat="44.689105" lon="9.3275383"><ele>374.0</ele><time>2026-04-06T08:04:29.602Z</time></trkpt><trkpt lat="44.6891233" lon="9.3273833"><ele>375.0</ele><time>2026-04-06T08:04:31.598Z</time></trkpt><trkpt lat="44.689135" lon="9.32726"><ele>376.0</ele><time>2026-04-06T08:04:33.598Z</time></trkpt><trkpt lat="44.689145" lon="9.32717"><ele>377.0</ele><time>2026-04-06T08:04:35.6Z</time></trkpt><trkpt lat="44.6891417" lon="9.3270167"><ele>378.0</ele><time>2026-04-06T08:05:18.597Z</time></trkpt><trkpt lat="44.689155" lon="9.32683"><ele>379.4</ele><time>2026-04-06T08:05:20.599Z</time></trkpt><trkpt lat="44.6891717" lon="9.326715"><ele>380.79999999999995</ele><time>2026-04-06T08:05:21.6Z</time></trkpt><trkpt lat="44.6891933" lon="9.3265783"><ele>382.2</ele><time>2026-04-06T08:05:22.599Z</time></trkpt><trkpt lat="44.6892183" lon="9.32643"><ele>383.6</ele><time>2026-04-06T08:05:23.598Z</time></trkpt><trkpt lat="44.6892417" lon="9.32628"><ele>385.0</ele><time>2026-04-06T08:05:24.598Z</time></trkpt><trkpt lat="44.68926" lon="9.32614"><ele>386.0</ele><time>2026-04-06T08:05:25.598Z</time></trkpt><trkpt lat="44.6892733" lon="9.325995"><ele>387.0</ele><time>2026-04-06T08:05:26.598Z</time></trkpt><trkpt lat="44.6892867" lon="9.3258367"><ele>388.0</ele><time>2026-04-06T08:05:27.598Z</time></trkpt><trkpt lat="44.6892983" lon="9.325665"><ele>389.0</ele><time>2026-04-06T08:05:28.599Z</time></trkpt><trkpt lat="44.689305" lon="9.325485"><ele>389.75</ele><time>2026-04-06T08:05:29.598Z</time></trkpt><trkpt lat="44.68931" lon="9.32529"><ele>390.5</ele><time>2026-04-06T08:05:30.6Z</time></trkpt><trkpt lat="44.68931" lon="9.325085"><ele>391.25</ele><time>2026-04-06T08:05:31.6Z</time></trkpt><trkpt lat="44.6893067" lon="9.3248817"><ele>392.0</ele><time>2026-04-06T08:05:32.599Z</time></trkpt><trkpt lat="44.689305" lon="9.3246817"><ele>392.5</ele><time>2026-04-06T08:05:33.6Z</time></trkpt><trkpt lat="44.6893017" lon="9.3244833"><ele>393.0</ele><time>2026-04-06T08:05:34.598Z</time></trkpt><trkpt lat="44.689295" lon="9.32429"><ele>393.5</ele><time>2026-04-06T08:05:35.599Z</time></trkpt><trkpt lat="44.68929" lon="9.324105"><ele>394.0</ele><time>2026-04-06T08:05:36.598Z</time></trkpt><trkpt lat="44.689275" lon="9.3239433"><ele>393.25</ele><time>2026-04-06T08:05:37.597Z</time></trkpt><trkpt lat="44.6892433" lon="9.32379"><ele>392.5</ele><time>2026-04-06T08:05:38.599Z</time></trkpt><trkpt lat="44.68918" lon="9.3236367"><ele>391.75</ele><time>2026-04-06T08:05:39.597Z</time></trkpt><trkpt lat="44.689105" lon="9.3234833"><ele>391.0</ele><time>2026-04-06T08:05:40.6Z</time></trkpt><trkpt lat="44.6890267" lon="9.32334"><ele>391.0</ele><time>2026-04-06T08:05:41.597Z</time></trkpt><trkpt lat="44.6889433" lon="9.3232217"><ele>391.0</ele><time>2026-04-06T08:05:42.598Z</time></trkpt><trkpt lat="44.688845" lon="9.3231233"><ele>391.0</ele><time>2026-04-06T08:05:43.6Z</time></trkpt><trkpt lat="44.68873" lon="9.3230583"><ele>391.0</ele><time>2026-04-06T08:05:44.599Z</time></trkpt><trkpt lat="44.6886117" lon="9.3230117"><ele>393.6</ele><time>2026-04-06T08:05:45.597Z</time></trkpt><trkpt lat="44.6884967" lon="9.3229667"><ele>396.20000000000005</ele><time>2026-04-06T08:05:46.597Z</time></trkpt><trkpt lat="44.6883917" lon="9.3229033"><ele>398.79999999999995</ele><time>2026-04-06T08:05:47.599Z</time></trkpt><trkpt lat="44.688305" lon="9.3228133"><ele>401.4</ele><time>2026-04-06T08:05:48.599Z</time></trkpt><trkpt lat="44.68825" lon="9.3227"><ele>404.0</ele><time>2026-04-06T08:05:49.599Z</time></trkpt><trkpt lat="44.6882167" lon="9.322565"><ele>404.0</ele><time>2026-04-06T08:05:50.6Z</time></trkpt><trkpt lat="44.6882067" lon="9.3224117"><ele>404.0</ele><time>2026-04-06T08:05:51.599Z</time></trkpt><trkpt lat="44.6881967" lon="9.3222433"><ele>404.0</ele><time>2026-04-06T08:05:52.598Z</time></trkpt><trkpt lat="44.6881717" lon="9.3220683"><ele>404.0</ele><time>2026-04-06T08:05:53.6Z</time></trkpt><trkpt lat="44.688125" lon="9.3218867"><ele>404.0</ele><time>2026-04-06T08:05:54.599Z</time></trkpt><trkpt lat="44.68808" lon="9.321705"><ele>404.0</ele><time>2026-04-06T08:05:55.597Z</time></trkpt><trkpt lat="44.6880583" lon="9.321515"><ele>404.0</ele><time>2026-04-06T08:05:56.598Z</time></trkpt><trkpt lat="44.6880483" lon="9.3213083"><ele>404.0</ele><time>2026-04-06T08:05:57.597Z</time></trkpt><trkpt lat="44.6880533" lon="9.3210817"><ele>402.66666666666663</ele><time>2026-04-06T08:05:58.599Z</time></trkpt><trkpt lat="44.6880617" lon="9.3208417"><ele>401.33333333333337</ele><time>2026-04-06T08:05:59.598Z</time></trkpt><trkpt lat="44.6880683" lon="9.32059"><ele>400.0</ele><time>2026-04-06T08:06:00.598Z</time></trkpt><trkpt lat="44.6880817" lon="9.3203483"><ele>398.5</ele><time>2026-04-06T08:06:01.599Z</time></trkpt><trkpt lat="44.6880967" lon="9.32013"><ele>397.0</ele><time>2026-04-06T08:06:02.598Z</time></trkpt><trkpt lat="44.688115" lon="9.319935"><ele>395.5</ele><time>2026-04-06T08:06:03.598Z</time></trkpt><trkpt lat="44.68813" lon="9.3197617"><ele>394.0</ele><time>2026-04-06T08:06:04.599Z</time></trkpt><trkpt lat="44.6881133" lon="9.3195983"><ele>392.79999999999995</ele><time>2026-04-06T08:06:05.599Z</time></trkpt><trkpt lat="44.6880717" lon="9.3194467"><ele>391.59999999999997</ele><time>2026-04-06T08:06:06.598Z</time></trkpt><trkpt lat="44.6879983" lon="9.31932"><ele>390.4</ele><time>2026-04-06T08:06:07.598Z</time></trkpt><trkpt lat="44.6879067" lon="9.31923"><ele>389.2</ele><time>2026-04-06T08:06:08.599Z</time></trkpt><trkpt lat="44.6878083" lon="9.3191967"><ele>388.0</ele><time>2026-04-06T08:06:09.598Z</time></trkpt><trkpt lat="44.6877033" lon="9.3192167"><ele>395.75</ele><time>2026-04-06T08:06:10.597Z</time></trkpt><trkpt lat="44.6875917" lon="9.3192817"><ele>403.5</ele><time>2026-04-06T08:06:11.598Z</time></trkpt><trkpt lat="44.68748" lon="9.3193633"><ele>411.25</ele><time>2026-04-06T08:06:12.599Z</time></trkpt><trkpt lat="44.6873717" lon="9.3194283"><ele>419.0</ele><time>2026-04-06T08:06:13.598Z</time></trkpt><trkpt lat="44.6872717" lon="9.319455"><ele>419.0</ele><time>2026-04-06T08:06:14.599Z</time></trkpt><trkpt lat="44.68718" lon="9.31943"><ele>419.0</ele><time>2026-04-06T08:06:15.597Z</time></trkpt><trkpt lat="44.6870983" lon="9.319345"><ele>419.0</ele><time>2026-04-06T08:06:16.602Z</time></trkpt><trkpt lat="44.6870283" lon="9.3192033"><ele>419.0</ele><time>2026-04-06T08:06:17.598Z</time></trkpt><trkpt lat="44.6869633" lon="9.3190267"><ele>426.0</ele><time>2026-04-06T08:06:18.599Z</time></trkpt><trkpt lat="44.686905" lon="9.3188417"><ele>433.0</ele><time>2026-04-06T08:06:19.599Z</time></trkpt><trkpt lat="44.6868667" lon="9.318655"><ele>440.0</ele><time>2026-04-06T08:06:20.599Z</time></trkpt><trkpt lat="44.6868533" lon="9.3184617"><ele>447.0</ele><time>2026-04-06T08:06:21.598Z</time></trkpt><trkpt lat="44.6868817" lon="9.3182617"><ele>434.66666666666663</ele><time>2026-04-06T08:06:22.598Z</time></trkpt><trkpt lat="44.6869417" lon="9.31807"><ele>422.3333333333333</ele><time>2026-04-06T08:06:23.598Z</time></trkpt><trkpt lat="44.68703" lon="9.3178933"><ele>410.0</ele><time>2026-04-06T08:06:24.598Z</time></trkpt><trkpt lat="44.6871333" lon="9.3177367"><ele>410.0</ele><time>2026-04-06T08:06:25.598Z</time></trkpt><trkpt lat="44.68722" lon="9.3175933"><ele>410.0</ele><time>2026-04-06T08:06:26.599Z</time></trkpt><trkpt lat="44.6872717" lon="9.31744"><ele>410.0</ele><time>2026-04-06T08:06:27.599Z</time></trkpt><trkpt lat="44.6872867" lon="9.31728"><ele>410.0</ele><time>2026-04-06T08:06:28.597Z</time></trkpt><trkpt lat="44.6872633" lon="9.3170933"><ele>414.0</ele><time>2026-04-06T08:06:29.598Z</time></trkpt><trkpt lat="44.6872433" lon="9.3168883"><ele>418.0</ele><time>2026-04-06T08:06:30.598Z</time></trkpt><trkpt lat="44.6872533" lon="9.3166617"><ele>422.0</ele><time>2026-04-06T08:06:31.598Z</time></trkpt><trkpt lat="44.6872867" lon="9.31641"><ele>425.3333333333333</ele><time>2026-04-06T08:06:32.598Z</time></trkpt><trkpt lat="44.6873317" lon="9.31616"><ele>428.66666666666663</ele><time>2026-04-06T08:06:33.598Z</time></trkpt><trkpt lat="44.68737" lon="9.3159367"><ele>432.0</ele><time>2026-04-06T08:06:34.598Z</time></trkpt><trkpt lat="44.68739" lon="9.315735"><ele>435.25</ele><time>2026-04-06T08:06:35.599Z</time></trkpt><trkpt lat="44.687385" lon="9.31555"><ele>438.5</ele><time>2026-04-06T08:06:36.598Z</time></trkpt><trkpt lat="44.68737" lon="9.3153867"><ele>441.75</ele><time>2026-04-06T08:06:37.599Z</time></trkpt><trkpt lat="44.68739" lon="9.3152383"><ele>445.0</ele><time>2026-04-06T08:06:38.597Z</time></trkpt><trkpt lat="44.6874533" lon="9.315105"><ele>445.0</ele><time>2026-04-06T08:06:39.598Z</time></trkpt><trkpt lat="44.6875333" lon="9.31495"><ele>445.0</ele><time>2026-04-06T08:06:40.598Z</time></trkpt><trkpt lat="44.6876167" lon="9.3147517"><ele>445.0</ele><time>2026-04-06T08:06:41.597Z</time></trkpt><trkpt lat="44.6876867" lon="9.314545"><ele>444.25</ele><time>2026-04-06T08:06:42.598Z</time></trkpt><trkpt lat="44.687725" lon="9.3143433"><ele>443.5</ele><time>2026-04-06T08:06:43.599Z</time></trkpt><trkpt lat="44.6877383" lon="9.3141483"><ele>442.75</ele><time>2026-04-06T08:06:44.598Z</time></trkpt><trkpt lat="44.687735" lon="9.3139733"><ele>442.0</ele><time>2026-04-06T08:06:45.599Z</time></trkpt><trkpt lat="44.6877133" lon="9.3138167"><ele>442.0</ele><time>2026-04-06T08:06:46.597Z</time></trkpt><trkpt lat="44.687665" lon="9.3136833"><ele>442.00000000000006</ele><time>2026-04-06T08:06:47.599Z</time></trkpt><trkpt lat="44.6875833" lon="9.3135783"><ele>442.00000000000006</ele><time>2026-04-06T08:06:48.598Z</time></trkpt><trkpt lat="44.6874767" lon="9.3135067"><ele>442.0</ele><time>2026-04-06T08:06:49.599Z</time></trkpt><trkpt lat="44.6873717" lon="9.3134467"><ele>442.0</ele><time>2026-04-06T08:06:50.599Z</time></trkpt><trkpt lat="44.687285" lon="9.3133733"><ele>442.0</ele><time>2026-04-06T08:06:51.598Z</time></trkpt><trkpt lat="44.687225" lon="9.3132567"><ele>442.0</ele><time>2026-04-06T08:06:52.599Z</time></trkpt><trkpt lat="44.6871783" lon="9.3131017"><ele>442.0</ele><time>2026-04-06T08:06:53.598Z</time></trkpt><trkpt lat="44.6871333" lon="9.3129267"><ele>442.0</ele><time>2026-04-06T08:06:54.598Z</time></trkpt><trkpt lat="44.68708" lon="9.3127333"><ele>446.6666666666667</ele><time>2026-04-06T08:06:55.6Z</time></trkpt><trkpt lat="44.6870183" lon="9.3125283"><ele>451.33333333333337</ele><time>2026-04-06T08:06:56.598Z</time></trkpt><trkpt lat="44.6869483" lon="9.3123217"><ele>456.0</ele><time>2026-04-06T08:06:57.599Z</time></trkpt><trkpt lat="44.686875" lon="9.3121317"><ele>456.0</ele><time>2026-04-06T08:06:58.6Z</time></trkpt><trkpt lat="44.6867967" lon="9.3119633"><ele>456.0</ele><time>2026-04-06T08:06:59.598Z</time></trkpt><trkpt lat="44.68671" lon="9.31181"><ele>456.0</ele><time>2026-04-06T08:07:00.598Z</time></trkpt><trkpt lat="44.686605" lon="9.3116933"><ele>456.0</ele><time>2026-04-06T08:07:01.599Z</time></trkpt><trkpt lat="44.6864917" lon="9.3116033"><ele>456.0</ele><time>2026-04-06T08:07:02.6Z</time></trkpt><trkpt lat="44.6863883" lon="9.3115167"><ele>456.0</ele><time>2026-04-06T08:07:03.599Z</time></trkpt><trkpt lat="44.6863067" lon="9.3114167"><ele>456.0</ele><time>2026-04-06T08:07:04.598Z</time></trkpt><trkpt lat="44.68625" lon="9.31129"><ele>456.0</ele><time>2026-04-06T08:07:05.6Z</time></trkpt><trkpt lat="44.6862217" lon="9.3111333"><ele>454.0</ele><time>2026-04-06T08:07:06.598Z</time></trkpt><trkpt lat="44.6862233" lon="9.3109533"><ele>452.0</ele><time>2026-04-06T08:07:07.598Z</time></trkpt><trkpt lat="44.68625" lon="9.31077"><ele>450.0</ele><time>2026-04-06T08:07:08.599Z</time></trkpt><trkpt lat="44.686285" lon="9.3106"><ele>448.0</ele><time>2026-04-06T08:07:09.598Z</time></trkpt><trkpt lat="44.6863333" lon="9.3104517"><ele>453.5</ele><time>2026-04-06T08:07:10.599Z</time></trkpt><trkpt lat="44.6864033" lon="9.3103333"><ele>459.0</ele><time>2026-04-06T08:07:11.598Z</time></trkpt><trkpt lat="44.6865017" lon="9.3102567"><ele>464.5</ele><time>2026-04-06T08:07:12.598Z</time></trkpt><trkpt lat="44.6866183" lon="9.3102"><ele>470.0</ele><time>2026-04-06T08:07:13.598Z</time></trkpt><trkpt lat="44.686735" lon="9.310135"><ele>470.0</ele><time>2026-04-06T08:07:14.598Z</time></trkpt><trkpt lat="44.6868433" lon="9.3100333"><ele>470.0</ele><time>2026-04-06T08:07:15.598Z</time></trkpt><trkpt lat="44.6869217" lon="9.309885"><ele>470.0</ele><time>2026-04-06T08:07:16.599Z</time></trkpt><trkpt lat="44.686965" lon="9.3097083"><ele>470.0</ele><time>2026-04-06T08:07:17.599Z</time></trkpt><trkpt lat="44.6869667" lon="9.30952"><ele>469.5</ele><time>2026-04-06T08:07:18.598Z</time></trkpt><trkpt lat="44.6869267" lon="9.3093367"><ele>469.0</ele><time>2026-04-06T08:07:19.598Z</time></trkpt><trkpt lat="44.6868583" lon="9.3091833"><ele>468.5</ele><time>2026-04-06T08:07:20.598Z</time></trkpt><trkpt lat="44.6867617" lon="9.3090667"><ele>468.0</ele><time>2026-04-06T08:07:21.598Z</time></trkpt><trkpt lat="44.6866333" lon="9.3089883"><ele>468.0</ele><time>2026-04-06T08:07:22.6Z</time></trkpt><trkpt lat="44.6864883" lon="9.308925"><ele>468.0</ele><time>2026-04-06T08:07:23.597Z</time></trkpt><trkpt lat="44.6863483" lon="9.3088683"><ele>468.0</ele><time>2026-04-06T08:07:24.598Z</time></trkpt><trkpt lat="44.68621" lon="9.308825"><ele>468.0</ele><time>2026-04-06T08:07:25.597Z</time></trkpt><trkpt lat="44.6860667" lon="9.3088133"><ele>462.66666666666663</ele><time>2026-04-06T08:07:26.601Z</time></trkpt><trkpt lat="44.68591" lon="9.308835"><ele>457.3333333333333</ele><time>2026-04-06T08:07:27.599Z</time></trkpt><trkpt lat="44.6857483" lon="9.308855"><ele>452.0</ele><time>2026-04-06T08:07:28.599Z</time></trkpt><trkpt lat="44.68558" lon="9.3088533"><ele>452.0</ele><time>2026-04-06T08:07:29.599Z</time></trkpt><trkpt lat="44.6854117" lon="9.3088417"><ele>452.0</ele><time>2026-04-06T08:07:30.598Z</time></trkpt><trkpt lat="44.6852533" lon="9.3088383"><ele>452.0</ele><time>2026-04-06T08:07:31.598Z</time></trkpt><trkpt lat="44.6851083" lon="9.3088483"><ele>456.0</ele><time>2026-04-06T08:07:32.599Z</time></trkpt><trkpt lat="44.68497" lon="9.3088817"><ele>460.0</ele><time>2026-04-06T08:07:33.598Z</time></trkpt><trkpt lat="44.6848367" lon="9.3089417"><ele>464.0</ele><time>2026-04-06T08:07:34.598Z</time></trkpt><trkpt lat="44.6847117" lon="9.3090217"><ele>468.0</ele><time>2026-04-06T08:07:35.598Z</time></trkpt><trkpt lat="44.6845917" lon="9.3090883"><ele>473.5</ele><time>2026-04-06T08:07:36.597Z</time></trkpt><trkpt lat="44.6844633" lon="9.309115"><ele>479.0</ele><time>2026-04-06T08:07:37.599Z</time></trkpt><trkpt lat="44.684325" lon="9.3091133"><ele>484.5</ele><time>2026-04-06T08:07:38.6Z</time></trkpt><trkpt lat="44.68419" lon="9.3090983"><ele>490.0</ele><time>2026-04-06T08:07:39.6Z</time></trkpt><trkpt lat="44.6840733" lon="9.30907"><ele>490.2</ele><time>2026-04-06T08:07:40.598Z</time></trkpt><trkpt lat="44.683975" lon="9.3090117"><ele>490.4</ele><time>2026-04-06T08:07:41.598Z</time></trkpt><trkpt lat="44.6839033" lon="9.3089117"><ele>490.6</ele><time>2026-04-06T08:07:42.599Z</time></trkpt><trkpt lat="44.6838367" lon="9.3087917"><ele>490.8</ele><time>2026-04-06T08:07:43.598Z</time></trkpt><trkpt lat="44.6837667" lon="9.3086717"><ele>491.0</ele><time>2026-04-06T08:07:44.599Z</time></trkpt><trkpt lat="44.68368" lon="9.30856"><ele>490.6</ele><time>2026-04-06T08:07:45.597Z</time></trkpt><trkpt lat="44.68358" lon="9.3084733"><ele>490.20000000000005</ele><time>2026-04-06T08:07:46.598Z</time></trkpt><trkpt lat="44.68348" lon="9.308405"><ele>489.79999999999995</ele><time>2026-04-06T08:07:47.598Z</time></trkpt><trkpt lat="44.6833883" lon="9.308335"><ele>489.4</ele><time>2026-04-06T08:07:48.598Z</time></trkpt><trkpt lat="44.68332" lon="9.3082483"><ele>489.0</ele><time>2026-04-06T08:07:49.599Z</time></trkpt><trkpt lat="44.6832833" lon="9.308155"><ele>487.6</ele><time>2026-04-06T08:07:50.599Z</time></trkpt><trkpt lat="44.6833067" lon="9.3080533"><ele>486.2</ele><time>2026-04-06T08:07:51.597Z</time></trkpt><trkpt lat="44.6833583" lon="9.3079483"><ele>484.80000000000007</ele><time>2026-04-06T08:07:52.598Z</time></trkpt><trkpt lat="44.68344" lon="9.3078233"><ele>483.40000000000003</ele><time>2026-04-06T08:07:53.598Z</time></trkpt><trkpt lat="44.683525" lon="9.3076767"><ele>482.0</ele><time>2026-04-06T08:07:54.598Z</time></trkpt><trkpt lat="44.6836033" lon="9.3075083"><ele>482.0</ele><time>2026-04-06T08:07:55.597Z</time></trkpt><trkpt lat="44.6836683" lon="9.3073133"><ele>482.0</ele><time>2026-04-06T08:07:56.598Z</time></trkpt><trkpt lat="44.6837167" lon="9.3070983"><ele>482.0</ele><time>2026-04-06T08:07:57.598Z</time></trkpt><trkpt lat="44.683755" lon="9.3068917"><ele>481.75</ele><time>2026-04-06T08:07:58.598Z</time></trkpt><trkpt lat="44.6837783" lon="9.3067083"><ele>481.5</ele><time>2026-04-06T08:07:59.597Z</time></trkpt><trkpt lat="44.6837817" lon="9.30654"><ele>481.25</ele><time>2026-04-06T08:08:00.598Z</time></trkpt><trkpt lat="44.6837533" lon="9.3063683"><ele>481.0</ele><time>2026-04-06T08:08:01.598Z</time></trkpt><trkpt lat="44.6837233" lon="9.3062083"><ele>478.20000000000005</ele><time>2026-04-06T08:08:02.597Z</time></trkpt><trkpt lat="44.6836817" lon="9.3060717"><ele>475.40000000000003</ele><time>2026-04-06T08:08:03.597Z</time></trkpt><trkpt lat="44.6836267" lon="9.3059567"><ele>472.6</ele><time>2026-04-06T08:08:04.597Z</time></trkpt><trkpt lat="44.68354" lon="9.3058883"><ele>469.8</ele><time>2026-04-06T08:08:05.598Z</time></trkpt><trkpt lat="44.68344" lon="9.305835"><ele>467.0</ele><time>2026-04-06T08:08:06.598Z</time></trkpt><trkpt lat="44.6833333" lon="9.305775"><ele>471.40000000000003</ele><time>2026-04-06T08:08:07.598Z</time></trkpt><trkpt lat="44.6832367" lon="9.3056983"><ele>475.80000000000007</ele><time>2026-04-06T08:08:08.597Z</time></trkpt><trkpt lat="44.68316" lon="9.3056033"><ele>480.2</ele><time>2026-04-06T08:08:09.597Z</time></trkpt><trkpt lat="44.683105" lon="9.30549"><ele>484.6</ele><time>2026-04-06T08:08:10.598Z</time></trkpt><trkpt lat="44.6830917" lon="9.30534"><ele>489.0</ele><time>2026-04-06T08:08:11.598Z</time></trkpt><trkpt lat="44.6830867" lon="9.3051683"><ele>489.0</ele><time>2026-04-06T08:08:12.599Z</time></trkpt><trkpt lat="44.6830533" lon="9.3049867"><ele>489.0</ele><time>2026-04-06T08:08:13.599Z</time></trkpt><trkpt lat="44.6829867" lon="9.3048033"><ele>489.0</ele><time>2026-04-06T08:08:14.599Z</time></trkpt><trkpt lat="44.6829117" lon="9.3046117"><ele>489.0</ele><time>2026-04-06T08:08:15.598Z</time></trkpt><trkpt lat="44.68284" lon="9.30443"><ele>489.5</ele><time>2026-04-06T08:08:16.598Z</time></trkpt><trkpt lat="44.6827767" lon="9.304265"><ele>490.0</ele><time>2026-04-06T08:08:17.598Z</time></trkpt><trkpt lat="44.6827133" lon="9.3041217"><ele>490.5</ele><time>2026-04-06T08:08:18.597Z</time></trkpt><trkpt lat="44.68264" lon="9.3040083"><ele>491.0</ele><time>2026-04-06T08:08:19.597Z</time></trkpt><trkpt lat="44.6825467" lon="9.3039317"><ele>493.5</ele><time>2026-04-06T08:08:20.599Z</time></trkpt><trkpt lat="44.6824383" lon="9.3038967"><ele>496.0</ele><time>2026-04-06T08:08:21.598Z</time></trkpt><trkpt lat="44.6823033" lon="9.30391"><ele>498.5</ele><time>2026-04-06T08:08:22.598Z</time></trkpt><trkpt lat="44.6821617" lon="9.3039467"><ele>501.0</ele><time>2026-04-06T08:08:23.597Z</time></trkpt><trkpt lat="44.6820067" lon="9.303995"><ele>502.66666666666663</ele><time>2026-04-06T08:08:24.598Z</time></trkpt><trkpt lat="44.6818483" lon="9.3040383"><ele>504.3333333333333</ele><time>2026-04-06T08:08:25.599Z</time></trkpt><trkpt lat="44.681685" lon="9.3040767"><ele>506.0</ele><time>2026-04-06T08:08:26.599Z</time></trkpt><trkpt lat="44.681525" lon="9.30411"><ele>506.0</ele><time>2026-04-06T08:08:27.597Z</time></trkpt><trkpt lat="44.6813767" lon="9.30414"><ele>506.0</ele><time>2026-04-06T08:08:28.599Z</time></trkpt><trkpt lat="44.6812417" lon="9.3041633"><ele>506.0</ele><time>2026-04-06T08:08:29.597Z</time></trkpt><trkpt lat="44.681115" lon="9.3041583"><ele>506.0</ele><time>2026-04-06T08:08:30.597Z</time></trkpt><trkpt lat="44.6809867" lon="9.3041183"><ele>504.75</ele><time>2026-04-06T08:08:31.597Z</time></trkpt><trkpt lat="44.6808633" lon="9.304035"><ele>503.5</ele><time>2026-04-06T08:08:32.598Z</time></trkpt><trkpt lat="44.68074" lon="9.3039183"><ele>502.25</ele><time>2026-04-06T08:08:33.598Z</time></trkpt><trkpt lat="44.6806167" lon="9.303785"><ele>501.0</ele><time>2026-04-06T08:08:34.598Z</time></trkpt><trkpt lat="44.6805017" lon="9.30365"><ele>501.0</ele><time>2026-04-06T08:08:35.598Z</time></trkpt><trkpt lat="44.680395" lon="9.3035283"><ele>501.0</ele><time>2026-04-06T08:08:36.599Z</time></trkpt><trkpt lat="44.6803017" lon="9.30342"><ele>501.0</ele><time>2026-04-06T08:08:37.597Z</time></trkpt><trkpt lat="44.680205" lon="9.30333"><ele>501.0</ele><time>2026-04-06T08:08:38.599Z</time></trkpt><trkpt lat="44.6801" lon="9.303285"><ele>505.25</ele><time>2026-04-06T08:08:39.598Z</time></trkpt><trkpt lat="44.6799817" lon="9.3033"><ele>509.5</ele><time>2026-04-06T08:08:40.597Z</time></trkpt><trkpt lat="44.679855" lon="9.3033717"><ele>513.75</ele><time>2026-04-06T08:08:41.597Z</time></trkpt><trkpt lat="44.67973" lon="9.303475"><ele>518.0</ele><time>2026-04-06T08:08:42.598Z</time></trkpt><trkpt lat="44.679605" lon="9.3035883"><ele>518.0</ele><time>2026-04-06T08:08:43.598Z</time></trkpt><trkpt lat="44.67948" lon="9.303685"><ele>518.0</ele><time>2026-04-06T08:08:44.599Z</time></trkpt><trkpt lat="44.6793483" lon="9.303745"><ele>518.0</ele><time>2026-04-06T08:08:45.598Z</time></trkpt><trkpt lat="44.6792067" lon="9.3037767"><ele>518.0</ele><time>2026-04-06T08:08:46.597Z</time></trkpt><trkpt lat="44.67906" lon="9.3038017"><ele>518.5</ele><time>2026-04-06T08:08:47.597Z</time></trkpt><trkpt lat="44.6789167" lon="9.30383"><ele>519.0</ele><time>2026-04-06T08:08:48.599Z</time></trkpt><trkpt lat="44.6787783" lon="9.3038733"><ele>519.5</ele><time>2026-04-06T08:08:49.598Z</time></trkpt><trkpt lat="44.67865" lon="9.3039283"><ele>520.0</ele><time>2026-04-06T08:08:50.598Z</time></trkpt><trkpt lat="44.67853" lon="9.3040133"><ele>520.0</ele><time>2026-04-06T08:08:51.598Z</time></trkpt><trkpt lat="44.6784233" lon="9.3041333"><ele>520.0</ele><time>2026-04-06T08:08:52.597Z</time></trkpt><trkpt lat="44.678345" lon="9.304285"><ele>520.0</ele><time>2026-04-06T08:08:53.599Z</time></trkpt><trkpt lat="44.6782883" lon="9.304445"><ele>520.0</ele><time>2026-04-06T08:08:54.597Z</time></trkpt><trkpt lat="44.67823" lon="9.3045833"><ele>520.0</ele><time>2026-04-06T08:08:55.598Z</time></trkpt><trkpt lat="44.67815" lon="9.3046867"><ele>520.0</ele><time>2026-04-06T08:08:56.598Z</time></trkpt><trkpt lat="44.6780433" lon="9.30474"><ele>520.0</ele><time>2026-04-06T08:08:57.599Z</time></trkpt><trkpt lat="44.6779317" lon="9.30479"><ele>520.0</ele><time>2026-04-06T08:08:58.598Z</time></trkpt><trkpt lat="44.6778183" lon="9.3048717"><ele>522.75</ele><time>2026-04-06T08:08:59.597Z</time></trkpt><trkpt lat="44.6777217" lon="9.304985"><ele>525.5</ele><time>2026-04-06T08:09:00.598Z</time></trkpt><trkpt lat="44.6776317" lon="9.305085"><ele>528.25</ele><time>2026-04-06T08:09:01.597Z</time></trkpt><trkpt lat="44.6775217" lon="9.3051433"><ele>531.0</ele><time>2026-04-06T08:09:02.599Z</time></trkpt><trkpt lat="44.6773933" lon="9.3051767"><ele>531.0</ele><time>2026-04-06T08:09:03.597Z</time></trkpt><trkpt lat="44.6772433" lon="9.3051933"><ele>531.0</ele><time>2026-04-06T08:09:04.597Z</time></trkpt><trkpt lat="44.6770767" lon="9.305225"><ele>531.0</ele><time>2026-04-06T08:09:05.599Z</time></trkpt><trkpt lat="44.6768983" lon="9.3052567"><ele>530.6666666666666</ele><time>2026-04-06T08:09:06.598Z</time></trkpt><trkpt lat="44.6767233" lon="9.3052867"><ele>530.3333333333333</ele><time>2026-04-06T08:09:07.598Z</time></trkpt><trkpt lat="44.676555" lon="9.3053133"><ele>530.0</ele><time>2026-04-06T08:09:08.598Z</time></trkpt><trkpt lat="44.6763983" lon="9.30533"><ele>530.0</ele><time>2026-04-06T08:09:09.599Z</time></trkpt><trkpt lat="44.6762467" lon="9.3053533"><ele>530.0</ele><time>2026-04-06T08:09:10.599Z</time></trkpt><trkpt lat="44.676095" lon="9.3054083"><ele>530.0</ele><time>2026-04-06T08:09:11.604Z</time></trkpt><trkpt lat="44.67595" lon="9.3055167"><ele>532.6666666666666</ele><time>2026-04-06T08:09:12.598Z</time></trkpt><trkpt lat="44.6758267" lon="9.3056783"><ele>535.3333333333334</ele><time>2026-04-06T08:09:13.601Z</time></trkpt><trkpt lat="44.67573" lon="9.3058633"><ele>538.0</ele><time>2026-04-06T08:09:14.599Z</time></trkpt><trkpt lat="44.6756583" lon="9.3060517"><ele>538.0</ele><time>2026-04-06T08:09:15.598Z</time></trkpt><trkpt lat="44.675615" lon="9.3062383"><ele>538.0</ele><time>2026-04-06T08:09:16.598Z</time></trkpt><trkpt lat="44.6756017" lon="9.3064317"><ele>538.0</ele><time>2026-04-06T08:09:17.598Z</time></trkpt><trkpt lat="44.67561" lon="9.3066117"><ele>538.0</ele><time>2026-04-06T08:09:18.597Z</time></trkpt><trkpt lat="44.6756117" lon="9.3067683"><ele>540.8</ele><time>2026-04-06T08:09:19.597Z</time></trkpt><trkpt lat="44.6755867" lon="9.3068933"><ele>543.5999999999999</ele><time>2026-04-06T08:09:20.599Z</time></trkpt><trkpt lat="44.6755383" lon="9.3069967"><ele>546.4000000000001</ele><time>2026-04-06T08:09:21.599Z</time></trkpt><trkpt lat="44.6754533" lon="9.3070717"><ele>549.2</ele><time>2026-04-06T08:09:22.599Z</time></trkpt><trkpt lat="44.6753617" lon="9.307155"><ele>552.0</ele><time>2026-04-06T08:09:23.598Z</time></trkpt><trkpt lat="44.67528" lon="9.3072667"><ele>554.0</ele><time>2026-04-06T08:09:24.598Z</time></trkpt><trkpt lat="44.6752267" lon="9.307415"><ele>556.0</ele><time>2026-04-06T08:09:25.598Z</time></trkpt><trkpt lat="44.675215" lon="9.3076017"><ele>558.0</ele><time>2026-04-06T08:09:26.601Z</time></trkpt><trkpt lat="44.6752383" lon="9.3077983"><ele>560.0</ele><time>2026-04-06T08:09:27.599Z</time></trkpt><trkpt lat="44.6752817" lon="9.3079867"><ele>560.5</ele><time>2026-04-06T08:09:28.598Z</time></trkpt><trkpt lat="44.675335" lon="9.3081583"><ele>561.0</ele><time>2026-04-06T08:09:29.598Z</time></trkpt><trkpt lat="44.6753867" lon="9.3083183"><ele>561.5</ele><time>2026-04-06T08:09:30.597Z</time></trkpt><trkpt lat="44.6754317" lon="9.3084633"><ele>562.0</ele><time>2026-04-06T08:09:31.598Z</time></trkpt><trkpt lat="44.6754583" lon="9.308595"><ele>562.0</ele><time>2026-04-06T08:09:32.599Z</time></trkpt><trkpt lat="44.6754567" lon="9.3087183"><ele>562.0</ele><time>2026-04-06T08:09:33.598Z</time></trkpt><trkpt lat="44.6754217" lon="9.3088333"><ele>562.0</ele><time>2026-04-06T08:09:34.598Z</time></trkpt><trkpt lat="44.6753567" lon="9.3089267"><ele>562.0</ele><time>2026-04-06T08:09:35.597Z</time></trkpt><trkpt lat="44.6752467" lon="9.3090133"><ele>562.0</ele><time>2026-04-06T08:09:36.598Z</time></trkpt><trkpt lat="44.6751333" lon="9.3091033"><ele>559.4</ele><time>2026-04-06T08:09:37.598Z</time></trkpt><trkpt lat="44.6750267" lon="9.3091883"><ele>556.8000000000001</ele><time>2026-04-06T08:09:38.598Z</time></trkpt><trkpt lat="44.6749267" lon="9.3092517"><ele>554.2</ele><time>2026-04-06T08:09:39.599Z</time></trkpt><trkpt lat="44.67483" lon="9.3092683"><ele>551.6</ele><time>2026-04-06T08:09:40.599Z</time></trkpt><trkpt lat="44.674745" lon="9.30922"><ele>549.0</ele><time>2026-04-06T08:09:41.597Z</time></trkpt><trkpt lat="44.6746717" lon="9.3091267"><ele>549.0</ele><time>2026-04-06T08:09:42.599Z</time></trkpt><trkpt lat="44.6745883" lon="9.3090233"><ele>549.0</ele><time>2026-04-06T08:09:43.598Z</time></trkpt><trkpt lat="44.6744867" lon="9.3089583"><ele>549.0</ele><time>2026-04-06T08:09:44.599Z</time></trkpt><trkpt lat="44.6743617" lon="9.3089533"><ele>549.0</ele><time>2026-04-06T08:09:45.597Z</time></trkpt><trkpt lat="44.6742317" lon="9.3089767"><ele>551.0</ele><time>2026-04-06T08:09:46.599Z</time></trkpt><trkpt lat="44.6740883" lon="9.3089917"><ele>553.0</ele><time>2026-04-06T08:09:47.598Z</time></trkpt><trkpt lat="44.6739483" lon="9.3089533"><ele>555.0</ele><time>2026-04-06T08:09:48.597Z</time></trkpt><trkpt lat="44.673825" lon="9.3088567"><ele>557.0</ele><time>2026-04-06T08:09:49.597Z</time></trkpt><trkpt lat="44.673715" lon="9.3087317"><ele>550.5</ele><time>2026-04-06T08:09:50.599Z</time></trkpt><trkpt lat="44.6736067" lon="9.3086183"><ele>544.0</ele><time>2026-04-06T08:09:51.6Z</time></trkpt><trkpt lat="44.673495" lon="9.3085317"><ele>537.5</ele><time>2026-04-06T08:09:52.597Z</time></trkpt><trkpt lat="44.6733917" lon="9.3084683"><ele>531.0</ele><time>2026-04-06T08:09:53.598Z</time></trkpt><trkpt lat="44.6732933" lon="9.3084383"><ele>531.0</ele><time>2026-04-06T08:09:54.598Z</time></trkpt><trkpt lat="44.6731933" lon="9.3084717"><ele>531.0</ele><time>2026-04-06T08:09:55.598Z</time></trkpt><trkpt lat="44.6730967" lon="9.3085717"><ele>531.0</ele><time>2026-04-06T08:09:56.6Z</time></trkpt><trkpt lat="44.6730083" lon="9.308715"><ele>531.0</ele><time>2026-04-06T08:09:57.599Z</time></trkpt><trkpt lat="44.6729283" lon="9.3088833"><ele>533.5</ele><time>2026-04-06T08:09:58.599Z</time></trkpt><trkpt lat="44.67285" lon="9.3090467"><ele>536.0</ele><time>2026-04-06T08:09:59.597Z</time></trkpt><trkpt lat="44.6727567" lon="9.309185"><ele>538.5</ele><time>2026-04-06T08:10:00.597Z</time></trkpt><trkpt lat="44.6726433" lon="9.3092983"><ele>541.0</ele><time>2026-04-06T08:10:01.597Z</time></trkpt><trkpt lat="44.672515" lon="9.3094033"><ele>541.0</ele><time>2026-04-06T08:10:02.598Z</time></trkpt><trkpt lat="44.672385" lon="9.3095"><ele>541.0</ele><time>2026-04-06T08:10:03.598Z</time></trkpt><trkpt lat="44.6722617" lon="9.3095883"><ele>541.0</ele><time>2026-04-06T08:10:04.599Z</time></trkpt><trkpt lat="44.67214" lon="9.3096483"><ele>541.0</ele><time>2026-04-06T08:10:05.598Z</time></trkpt><trkpt lat="44.6720117" lon="9.30966"><ele>538.0</ele><time>2026-04-06T08:10:06.597Z</time></trkpt><trkpt lat="44.6718767" lon="9.309655"><ele>535.0</ele><time>2026-04-06T08:10:07.598Z</time></trkpt><trkpt lat="44.6717433" lon="9.30966"><ele>532.0</ele><time>2026-04-06T08:10:08.599Z</time></trkpt><trkpt lat="44.6716183" lon="9.30967"><ele>529.0</ele><time>2026-04-06T08:10:09.599Z</time></trkpt><trkpt lat="44.6715033" lon="9.3096617"><ele>529.0</ele><time>2026-04-06T08:10:10.599Z</time></trkpt><trkpt lat="44.671395" lon="9.3096033"><ele>529.0</ele><time>2026-04-06T08:10:11.599Z</time></trkpt><trkpt lat="44.6712933" lon="9.3095183"><ele>529.0</ele><time>2026-04-06T08:10:12.599Z</time></trkpt><trkpt lat="44.671195" lon="9.3094367"><ele>529.0</ele><time>2026-04-06T08:10:13.599Z</time></trkpt><trkpt lat="44.671095" lon="9.3094"><ele>529.75</ele><time>2026-04-06T08:10:14.599Z</time></trkpt><trkpt lat="44.6709967" lon="9.3094133"><ele>530.5</ele><time>2026-04-06T08:10:15.597Z</time></trkpt><trkpt lat="44.6708917" lon="9.3094817"><ele>531.25</ele><time>2026-04-06T08:10:16.599Z</time></trkpt><trkpt lat="44.67077" lon="9.30955"><ele>532.0</ele><time>2026-04-06T08:10:17.598Z</time></trkpt><trkpt lat="44.6706317" lon="9.3095867"><ele>532.0</ele><time>2026-04-06T08:10:18.598Z</time></trkpt><trkpt lat="44.6704817" lon="9.3095933"><ele>532.0</ele><time>2026-04-06T08:10:19.6Z</time></trkpt><trkpt lat="44.6703333" lon="9.3095667"><ele>532.0</ele><time>2026-04-06T08:10:20.6Z</time></trkpt><trkpt lat="44.6702017" lon="9.3095017"><ele>532.0</ele><time>2026-04-06T08:10:21.598Z</time></trkpt><trkpt lat="44.670085" lon="9.3094333"><ele>530.25</ele><time>2026-04-06T08:10:22.599Z</time></trkpt><trkpt lat="44.6699667" lon="9.309405"><ele>528.5</ele><time>2026-04-06T08:10:23.599Z</time></trkpt><trkpt lat="44.6698533" lon="9.3094417"><ele>526.75</ele><time>2026-04-06T08:10:24.598Z</time></trkpt><trkpt lat="44.669755" lon="9.3095433"><ele>525.0</ele><time>2026-04-06T08:10:25.599Z</time></trkpt><trkpt lat="44.66968" lon="9.3096867"><ele>532.25</ele><time>2026-04-06T08:10:26.599Z</time></trkpt><trkpt lat="44.6696433" lon="9.309855"><ele>539.5</ele><time>2026-04-06T08:10:27.598Z</time></trkpt><trkpt lat="44.6696433" lon="9.3100417"><ele>546.75</ele><time>2026-04-06T08:10:28.598Z</time></trkpt><trkpt lat="44.6696667" lon="9.31023"><ele>554.0</ele><time>2026-04-06T08:10:29.597Z</time></trkpt><trkpt lat="44.6696917" lon="9.3104017"><ele>554.0</ele><time>2026-04-06T08:10:30.599Z</time></trkpt><trkpt lat="44.6696917" lon="9.3105483"><ele>554.0</ele><time>2026-04-06T08:10:31.598Z</time></trkpt><trkpt lat="44.6696567" lon="9.31067"><ele>554.0</ele><time>2026-04-06T08:10:32.599Z</time></trkpt><trkpt lat="44.6695867" lon="9.310755"><ele>554.0</ele><time>2026-04-06T08:10:33.598Z</time></trkpt><trkpt lat="44.6694833" lon="9.3108017"><ele>554.0</ele><time>2026-04-06T08:10:34.598Z</time></trkpt><trkpt lat="44.6693567" lon="9.3108267"><ele>550.25</ele><time>2026-04-06T08:10:35.598Z</time></trkpt><trkpt lat="44.66923" lon="9.310855"><ele>546.5</ele><time>2026-04-06T08:10:36.598Z</time></trkpt><trkpt lat="44.6691133" lon="9.3109117"><ele>542.75</ele><time>2026-04-06T08:10:37.597Z</time></trkpt><trkpt lat="44.6690233" lon="9.3110267"><ele>539.0</ele><time>2026-04-06T08:10:38.599Z</time></trkpt><trkpt lat="44.668965" lon="9.31121"><ele>545.25</ele><time>2026-04-06T08:10:39.598Z</time></trkpt><trkpt lat="44.66893" lon="9.3114233"><ele>551.5</ele><time>2026-04-06T08:10:40.599Z</time></trkpt><trkpt lat="44.6688983" lon="9.311625"><ele>557.75</ele><time>2026-04-06T08:10:41.599Z</time></trkpt><trkpt lat="44.6688583" lon="9.3117917"><ele>564.0</ele><time>2026-04-06T08:10:42.597Z</time></trkpt><trkpt lat="44.6688017" lon="9.3119233"><ele>564.0</ele><time>2026-04-06T08:10:43.599Z</time></trkpt><trkpt lat="44.6687183" lon="9.3120167"><ele>564.0</ele><time>2026-04-06T08:10:44.599Z</time></trkpt><trkpt lat="44.6686033" lon="9.31207"><ele>564.0</ele><time>2026-04-06T08:10:45.599Z</time></trkpt><trkpt lat="44.6684633" lon="9.3120833"><ele>564.0</ele><time>2026-04-06T08:10:46.597Z</time></trkpt><trkpt lat="44.6683233" lon="9.3120683"><ele>559.0</ele><time>2026-04-06T08:10:47.598Z</time></trkpt><trkpt lat="44.6681933" lon="9.312015"><ele>554.0</ele><time>2026-04-06T08:10:48.598Z</time></trkpt><trkpt lat="44.6680817" lon="9.311925"><ele>549.0</ele><time>2026-04-06T08:10:49.603Z</time></trkpt><trkpt lat="44.6679833" lon="9.3118233"><ele>544.0</ele><time>2026-04-06T08:10:50.598Z</time></trkpt><trkpt lat="44.6678867" lon="9.3117483"><ele>544.0</ele><time>2026-04-06T08:10:51.6Z</time></trkpt><trkpt lat="44.66779" lon="9.3117367"><ele>544.0</ele><time>2026-04-06T08:10:52.599Z</time></trkpt><trkpt lat="44.6676967" lon="9.311795"><ele>544.0</ele><time>2026-04-06T08:10:53.6Z</time></trkpt><trkpt lat="44.6676133" lon="9.3119133"><ele>544.0</ele><time>2026-04-06T08:10:54.599Z</time></trkpt><trkpt lat="44.6675333" lon="9.3120767"><ele>547.5</ele><time>2026-04-06T08:10:55.598Z</time></trkpt><trkpt lat="44.6674517" lon="9.3122583"><ele>551.0</ele><time>2026-04-06T08:10:56.598Z</time></trkpt><trkpt lat="44.667375" lon="9.312435"><ele>554.5</ele><time>2026-04-06T08:10:57.598Z</time></trkpt><trkpt lat="44.6673" lon="9.3125967"><ele>558.0</ele><time>2026-04-06T08:10:58.599Z</time></trkpt><trkpt lat="44.6672133" lon="9.3127283"><ele>558.0</ele><time>2026-04-06T08:10:59.599Z</time></trkpt><trkpt lat="44.6670967" lon="9.31281"><ele>558.0</ele><time>2026-04-06T08:11:00.599Z</time></trkpt><trkpt lat="44.6669517" lon="9.3128683"><ele>558.0</ele><time>2026-04-06T08:11:01.6Z</time></trkpt><trkpt lat="44.6667983" lon="9.3129233"><ele>558.0</ele><time>2026-04-06T08:11:02.598Z</time></trkpt><trkpt lat="44.6666517" lon="9.3129783"><ele>553.25</ele><time>2026-04-06T08:11:03.598Z</time></trkpt><trkpt lat="44.6665167" lon="9.313025"><ele>548.5</ele><time>2026-04-06T08:11:04.599Z</time></trkpt><trkpt lat="44.6664" lon="9.3130567"><ele>543.75</ele><time>2026-04-06T08:11:05.598Z</time></trkpt><trkpt lat="44.666295" lon="9.3130567"><ele>539.0</ele><time>2026-04-06T08:11:06.599Z</time></trkpt><trkpt lat="44.6662067" lon="9.31301"><ele>539.0</ele><time>2026-04-06T08:11:07.598Z</time></trkpt><trkpt lat="44.666145" lon="9.3129017"><ele>539.0</ele><time>2026-04-06T08:11:08.601Z</time></trkpt><trkpt lat="44.666075" lon="9.3127783"><ele>539.0</ele><time>2026-04-06T08:11:09.599Z</time></trkpt><trkpt lat="44.6659817" lon="9.3126567"><ele>539.0</ele><time>2026-04-06T08:11:10.601Z</time></trkpt><trkpt lat="44.6658583" lon="9.3125617"><ele>539.0</ele><time>2026-04-06T08:11:11.599Z</time></trkpt><trkpt lat="44.6657367" lon="9.3124733"><ele>539.0</ele><time>2026-04-06T08:11:12.6Z</time></trkpt><trkpt lat="44.66563" lon="9.3123617"><ele>539.0</ele><time>2026-04-06T08:11:13.601Z</time></trkpt><trkpt lat="44.66555" lon="9.3122083"><ele>539.0</ele><time>2026-04-06T08:11:14.6Z</time></trkpt><trkpt lat="44.665485" lon="9.3120317"><ele>539.0</ele><time>2026-04-06T08:11:15.601Z</time></trkpt><trkpt lat="44.6654083" lon="9.3118517"><ele>539.0</ele><time>2026-04-06T08:11:16.6Z</time></trkpt><trkpt lat="44.665315" lon="9.3116733"><ele>539.0</ele><time>2026-04-06T08:11:17.6Z</time></trkpt><trkpt lat="44.6652083" lon="9.3115083"><ele>541.0</ele><time>2026-04-06T08:11:18.6Z</time></trkpt><trkpt lat="44.6650883" lon="9.3113683"><ele>543.0</ele><time>2026-04-06T08:11:19.599Z</time></trkpt><trkpt lat="44.6649617" lon="9.31126"><ele>545.0</ele><time>2026-04-06T08:11:20.6Z</time></trkpt><trkpt lat="44.66483" lon="9.311195"><ele>547.0</ele><time>2026-04-06T08:11:21.6Z</time></trkpt><trkpt lat="44.6646917" lon="9.31117"><ele>547.0</ele><time>2026-04-06T08:11:22.601Z</time></trkpt><trkpt lat="44.6645417" lon="9.3111767"><ele>547.0</ele><time>2026-04-06T08:11:23.6Z</time></trkpt><trkpt lat="44.66439" lon="9.3112033"><ele>547.0</ele><time>2026-04-06T08:11:24.599Z</time></trkpt><trkpt lat="44.6642467" lon="9.3112317"><ele>547.0</ele><time>2026-04-06T08:11:25.599Z</time></trkpt><trkpt lat="44.66411" lon="9.311275"><ele>545.0</ele><time>2026-04-06T08:11:26.599Z</time></trkpt><trkpt lat="44.6639817" lon="9.31136"><ele>543.0</ele><time>2026-04-06T08:11:27.598Z</time></trkpt><trkpt lat="44.6638583" lon="9.3114883"><ele>541.0</ele><time>2026-04-06T08:11:28.598Z</time></trkpt><trkpt lat="44.663725" lon="9.311645"><ele>541.0</ele><time>2026-04-06T08:11:29.597Z</time></trkpt><trkpt lat="44.6635733" lon="9.3117917"><ele>541.0</ele><time>2026-04-06T08:11:30.597Z</time></trkpt><trkpt lat="44.663405" lon="9.31192"><ele>541.0</ele><time>2026-04-06T08:11:31.597Z</time></trkpt><trkpt lat="44.6632383" lon="9.3120367"><ele>541.0</ele><time>2026-04-06T08:11:32.6Z</time></trkpt><trkpt lat="44.6630833" lon="9.3121617"><ele>541.0</ele><time>2026-04-06T08:11:33.598Z</time></trkpt><trkpt lat="44.6629383" lon="9.3122883"><ele>541.0</ele><time>2026-04-06T08:11:34.598Z</time></trkpt><trkpt lat="44.6628067" lon="9.3124167"><ele>540.75</ele><time>2026-04-06T08:11:35.599Z</time></trkpt><trkpt lat="44.6626867" lon="9.3125367"><ele>540.5</ele><time>2026-04-06T08:11:36.597Z</time></trkpt><trkpt lat="44.6625983" lon="9.3126733"><ele>540.25</ele><time>2026-04-06T08:11:37.598Z</time></trkpt><trkpt lat="44.66254" lon="9.312825"><ele>540.0</ele><time>2026-04-06T08:11:38.599Z</time></trkpt><trkpt lat="44.6624917" lon="9.3129783"><ele>545.25</ele><time>2026-04-06T08:11:39.599Z</time></trkpt><trkpt lat="44.6624217" lon="9.3131133"><ele>550.5</ele><time>2026-04-06T08:11:40.599Z</time></trkpt><trkpt lat="44.6623267" lon="9.3132283"><ele>555.75</ele><time>2026-04-06T08:11:41.599Z</time></trkpt><trkpt lat="44.6622167" lon="9.31332"><ele>561.0</ele><time>2026-04-06T08:11:42.601Z</time></trkpt><trkpt lat="44.662105" lon="9.3133783"><ele>561.0</ele><time>2026-04-06T08:11:43.599Z</time></trkpt><trkpt lat="44.6619933" lon="9.3133967"><ele>561.0</ele><time>2026-04-06T08:11:44.597Z</time></trkpt><trkpt lat="44.661895" lon="9.3133633"><ele>561.0</ele><time>2026-04-06T08:11:45.599Z</time></trkpt><trkpt lat="44.6618167" lon="9.3132783"><ele>561.0</ele><time>2026-04-06T08:11:46.599Z</time></trkpt><trkpt lat="44.6617567" lon="9.3131383"><ele>561.0</ele><time>2026-04-06T08:11:47.598Z</time></trkpt><trkpt lat="44.6616983" lon="9.31296"><ele>556.0</ele><time>2026-04-06T08:11:48.598Z</time></trkpt><trkpt lat="44.6616267" lon="9.312755"><ele>551.0</ele><time>2026-04-06T08:11:49.599Z</time></trkpt><trkpt lat="44.66155" lon="9.3125233"><ele>546.0</ele><time>2026-04-06T08:11:50.598Z</time></trkpt><trkpt lat="44.661465" lon="9.3122717"><ele>543.0</ele><time>2026-04-06T08:11:51.599Z</time></trkpt><trkpt lat="44.6613767" lon="9.3120217"><ele>540.0</ele><time>2026-04-06T08:11:52.598Z</time></trkpt><trkpt lat="44.661295" lon="9.31178"><ele>537.0</ele><time>2026-04-06T08:11:53.599Z</time></trkpt><trkpt lat="44.6612283" lon="9.3115333"><ele>535.6666666666666</ele><time>2026-04-06T08:11:54.599Z</time></trkpt><trkpt lat="44.6611733" lon="9.3112833"><ele>534.3333333333333</ele><time>2026-04-06T08:11:55.598Z</time></trkpt><trkpt lat="44.6611383" lon="9.3110383"><ele>533.0</ele><time>2026-04-06T08:11:56.598Z</time></trkpt><trkpt lat="44.6611167" lon="9.3108083"><ele>533.3333333333333</ele><time>2026-04-06T08:11:57.6Z</time></trkpt><trkpt lat="44.6610917" lon="9.3105867"><ele>533.6666666666666</ele><time>2026-04-06T08:11:58.598Z</time></trkpt><trkpt lat="44.66105" lon="9.3103733"><ele>534.0</ele><time>2026-04-06T08:11:59.599Z</time></trkpt><trkpt lat="44.660995" lon="9.310185"><ele>534.0</ele><time>2026-04-06T08:12:00.599Z</time></trkpt><trkpt lat="44.660925" lon="9.3100367"><ele>534.0</ele><time>2026-04-06T08:12:01.598Z</time></trkpt><trkpt lat="44.660835" lon="9.3099417"><ele>534.0</ele><time>2026-04-06T08:12:02.599Z</time></trkpt><trkpt lat="44.6607367" lon="9.3099167"><ele>534.0</ele><time>2026-04-06T08:12:03.599Z</time></trkpt><trkpt lat="44.660645" lon="9.309965"><ele>534.0</ele><time>2026-04-06T08:12:04.599Z</time></trkpt><trkpt lat="44.6605717" lon="9.31009"><ele>534.0</ele><time>2026-04-06T08:12:05.599Z</time></trkpt><trkpt lat="44.6605133" lon="9.3102633"><ele>534.0</ele><time>2026-04-06T08:12:06.598Z</time></trkpt><trkpt lat="44.6604583" lon="9.3104383"><ele>534.0</ele><time>2026-04-06T08:12:07.599Z</time></trkpt><trkpt lat="44.6603833" lon="9.3105833"><ele>534.0</ele><time>2026-04-06T08:12:08.599Z</time></trkpt><trkpt lat="44.6602767" lon="9.3106817"><ele>534.0</ele><time>2026-04-06T08:12:09.599Z</time></trkpt><trkpt lat="44.6601483" lon="9.3107683"><ele>534.0</ele><time>2026-04-06T08:12:10.599Z</time></trkpt><trkpt lat="44.66001" lon="9.3108767"><ele>534.0</ele><time>2026-04-06T08:12:11.597Z</time></trkpt><trkpt lat="44.65987" lon="9.311015"><ele>534.0</ele><time>2026-04-06T08:12:12.599Z</time></trkpt><trkpt lat="44.6597317" lon="9.3111717"><ele>534.0</ele><time>2026-04-06T08:12:13.599Z</time></trkpt><trkpt lat="44.659595" lon="9.311325"><ele>534.0</ele><time>2026-04-06T08:12:14.6Z</time></trkpt><trkpt lat="44.6594433" lon="9.311455"><ele>534.0</ele><time>2026-04-06T08:12:15.599Z</time></trkpt><trkpt lat="44.6592717" lon="9.3115667"><ele>534.0</ele><time>2026-04-06T08:12:16.599Z</time></trkpt><trkpt lat="44.65909" lon="9.3116733"><ele>534.0</ele><time>2026-04-06T08:12:17.601Z</time></trkpt><trkpt lat="44.6589" lon="9.3117883"><ele>534.0</ele><time>2026-04-06T08:12:18.601Z</time></trkpt><trkpt lat="44.6587067" lon="9.311905"><ele>534.0</ele><time>2026-04-06T08:12:19.601Z</time></trkpt><trkpt lat="44.658515" lon="9.3120283"><ele>534.0</ele><time>2026-04-06T08:12:20.6Z</time></trkpt><trkpt lat="44.6583283" lon="9.31216"><ele>535.0</ele><time>2026-04-06T08:12:21.6Z</time></trkpt><trkpt lat="44.65815" lon="9.3122883"><ele>536.0</ele><time>2026-04-06T08:12:22.601Z</time></trkpt><trkpt lat="44.6579833" lon="9.3124117"><ele>537.0</ele><time>2026-04-06T08:12:23.6Z</time></trkpt><trkpt lat="44.6578233" lon="9.31252"><ele>533.0</ele><time>2026-04-06T08:12:24.6Z</time></trkpt><trkpt lat="44.6576583" lon="9.3126033"><ele>529.0</ele><time>2026-04-06T08:12:25.599Z</time></trkpt><trkpt lat="44.6574917" lon="9.312675"><ele>525.0</ele><time>2026-04-06T08:12:26.6Z</time></trkpt><trkpt lat="44.65733" lon="9.3127483"><ele>525.0</ele><time>2026-04-06T08:12:27.597Z</time></trkpt><trkpt lat="44.6571867" lon="9.312825"><ele>525.0</ele><time>2026-04-06T08:12:28.598Z</time></trkpt><trkpt lat="44.6570583" lon="9.3128883"><ele>525.0</ele><time>2026-04-06T08:12:29.599Z</time></trkpt><trkpt lat="44.656945" lon="9.312915"><ele>525.0</ele><time>2026-04-06T08:12:30.597Z</time></trkpt><trkpt lat="44.6568417" lon="9.3128817"><ele>525.75</ele><time>2026-04-06T08:12:31.599Z</time></trkpt><trkpt lat="44.6567433" lon="9.3127883"><ele>526.5</ele><time>2026-04-06T08:12:32.599Z</time></trkpt><trkpt lat="44.6566417" lon="9.31265"><ele>527.25</ele><time>2026-04-06T08:12:33.598Z</time></trkpt><trkpt lat="44.6565383" lon="9.312505"><ele>528.0</ele><time>2026-04-06T08:12:34.598Z</time></trkpt><trkpt lat="44.656435" lon="9.3123733"><ele>528.0</ele><time>2026-04-06T08:12:35.598Z</time></trkpt><trkpt lat="44.6563367" lon="9.3122583"><ele>528.0</ele><time>2026-04-06T08:12:36.598Z</time></trkpt><trkpt lat="44.6562333" lon="9.31219"><ele>528.0</ele><time>2026-04-06T08:12:37.599Z</time></trkpt><trkpt lat="44.6561317" lon="9.31219"><ele>528.0</ele><time>2026-04-06T08:12:38.598Z</time></trkpt><trkpt lat="44.656025" lon="9.3122583"><ele>528.0</ele><time>2026-04-06T08:12:39.599Z</time></trkpt><trkpt lat="44.655915" lon="9.3123533"><ele>528.0</ele><time>2026-04-06T08:12:40.599Z</time></trkpt><trkpt lat="44.6557983" lon="9.31244"><ele>528.0</ele><time>2026-04-06T08:12:41.599Z</time></trkpt><trkpt lat="44.6556633" lon="9.3124933"><ele>528.0</ele><time>2026-04-06T08:12:42.599Z</time></trkpt><trkpt lat="44.6555167" lon="9.3125083"><ele>528.0</ele><time>2026-04-06T08:12:43.599Z</time></trkpt><trkpt lat="44.655365" lon="9.3124883"><ele>528.0</ele><time>2026-04-06T08:12:44.599Z</time></trkpt><trkpt lat="44.655215" lon="9.3124317"><ele>528.0</ele><time>2026-04-06T08:12:45.599Z</time></trkpt><trkpt lat="44.6550817" lon="9.312345"><ele>527.5</ele><time>2026-04-06T08:12:46.599Z</time></trkpt><trkpt lat="44.6549633" lon="9.3122583"><ele>527.0</ele><time>2026-04-06T08:12:47.599Z</time></trkpt><trkpt lat="44.65485" lon="9.312205"><ele>526.5</ele><time>2026-04-06T08:12:48.599Z</time></trkpt><trkpt lat="44.6547333" lon="9.312205"><ele>526.0</ele><time>2026-04-06T08:12:49.6Z</time></trkpt><trkpt lat="44.654615" lon="9.3122633"><ele>526.0</ele><time>2026-04-06T08:12:50.599Z</time></trkpt><trkpt lat="44.6545033" lon="9.31239"><ele>526.0</ele><time>2026-04-06T08:12:51.598Z</time></trkpt><trkpt lat="44.654405" lon="9.3125583"><ele>526.0</ele><time>2026-04-06T08:12:52.598Z</time></trkpt><trkpt lat="44.6543233" lon="9.31274"><ele>524.5</ele><time>2026-04-06T08:12:53.599Z</time></trkpt><trkpt lat="44.6542367" lon="9.3129017"><ele>523.0</ele><time>2026-04-06T08:12:54.599Z</time></trkpt><trkpt lat="44.6541383" lon="9.3130383"><ele>521.5</ele><time>2026-04-06T08:12:55.598Z</time></trkpt><trkpt lat="44.65404" lon="9.3131483"><ele>520.0</ele><time>2026-04-06T08:12:56.598Z</time></trkpt><trkpt lat="44.6539667" lon="9.3132617"><ele>520.0</ele><time>2026-04-06T08:12:57.599Z</time></trkpt><trkpt lat="44.6539317" lon="9.3133933"><ele>520.0</ele><time>2026-04-06T08:12:58.599Z</time></trkpt><trkpt lat="44.6539467" lon="9.3135367"><ele>520.0</ele><time>2026-04-06T08:12:59.599Z</time></trkpt><trkpt lat="44.6540067" lon="9.313685"><ele>520.0</ele><time>2026-04-06T08:13:00.598Z</time></trkpt><trkpt lat="44.6541033" lon="9.3138333"><ele>518.5</ele><time>2026-04-06T08:13:01.598Z</time></trkpt><trkpt lat="44.6542083" lon="9.3139767"><ele>517.0</ele><time>2026-04-06T08:13:02.599Z</time></trkpt><trkpt lat="44.6543017" lon="9.3141167"><ele>515.5</ele><time>2026-04-06T08:13:03.6Z</time></trkpt><trkpt lat="44.6543767" lon="9.31426"><ele>514.0</ele><time>2026-04-06T08:13:04.597Z</time></trkpt><trkpt lat="44.654425" lon="9.31442"><ele>514.0</ele><time>2026-04-06T08:13:05.598Z</time></trkpt><trkpt lat="44.6544283" lon="9.314585"><ele>514.0</ele><time>2026-04-06T08:13:06.598Z</time></trkpt><trkpt lat="44.6543917" lon="9.314735"><ele>514.0</ele><time>2026-04-06T08:13:07.599Z</time></trkpt><trkpt lat="44.6543217" lon="9.314845"><ele>514.0</ele><time>2026-04-06T08:13:08.599Z</time></trkpt><trkpt lat="44.6542233" lon="9.314925"><ele>514.0</ele><time>2026-04-06T08:13:09.598Z</time></trkpt><trkpt lat="44.6541033" lon="9.3149783"><ele>514.5</ele><time>2026-04-06T08:13:10.598Z</time></trkpt><trkpt lat="44.6539733" lon="9.3150233"><ele>515.0</ele><time>2026-04-06T08:13:11.599Z</time></trkpt><trkpt lat="44.6538367" lon="9.3150533"><ele>515.5</ele><time>2026-04-06T08:13:12.599Z</time></trkpt><trkpt lat="44.6537033" lon="9.3150867"><ele>516.0</ele><time>2026-04-06T08:13:13.598Z</time></trkpt><trkpt lat="44.6535905" lon="9.3151428"><ele>515.0</ele><time>2026-04-06T08:13:14.599Z</time></trkpt><trkpt lat="44.6534968" lon="9.3152461"><ele>514.0</ele><time>2026-04-06T08:13:15.599Z</time></trkpt><trkpt lat="44.6534286" lon="9.3154016"><ele>513.0</ele><time>2026-04-06T08:13:16.602Z</time></trkpt><trkpt lat="44.6533693" lon="9.3155658"><ele>512.0</ele><time>2026-04-06T08:13:17.599Z</time></trkpt><trkpt lat="44.6532899" lon="9.3156993"><ele>512.0</ele><time>2026-04-06T08:13:18.598Z</time></trkpt><trkpt lat="44.6531786" lon="9.3157861"><ele>512.0</ele><time>2026-04-06T08:13:19.599Z</time></trkpt><trkpt lat="44.6530393" lon="9.3158212"><ele>512.0</ele><time>2026-04-06T08:13:20.599Z</time></trkpt><trkpt lat="44.6528896" lon="9.3158221"><ele>512.0</ele><time>2026-04-06T08:13:21.598Z</time></trkpt><trkpt lat="44.6527433" lon="9.3158275"><ele>508.0</ele><time>2026-04-06T08:13:22.598Z</time></trkpt><trkpt lat="44.652613" lon="9.3158767"><ele>504.0</ele><time>2026-04-06T08:13:23.598Z</time></trkpt><trkpt lat="44.652512" lon="9.315986"><ele>500.0</ele><time>2026-04-06T08:13:24.598Z</time></trkpt><trkpt lat="44.6524404" lon="9.316134"><ele>496.0</ele><time>2026-04-06T08:13:25.599Z</time></trkpt><trkpt lat="44.6523759" lon="9.3162842"><ele>494.0</ele><time>2026-04-06T08:13:26.599Z</time></trkpt><trkpt lat="44.6522925" lon="9.3164068"><ele>492.0</ele><time>2026-04-06T08:13:27.598Z</time></trkpt><trkpt lat="44.6521836" lon="9.3164898"><ele>490.0</ele><time>2026-04-06T08:13:28.599Z</time></trkpt><trkpt lat="44.6520617" lon="9.3165423"><ele>488.0</ele><time>2026-04-06T08:13:29.598Z</time></trkpt><trkpt lat="44.6519458" lon="9.3166046"><ele>488.0</ele><time>2026-04-06T08:13:30.598Z</time></trkpt><trkpt lat="44.6518529" lon="9.3167071"><ele>488.0</ele><time>2026-04-06T08:13:31.601Z</time></trkpt><trkpt lat="44.6517882" lon="9.3168466"><ele>488.0</ele><time>2026-04-06T08:13:32.599Z</time></trkpt><trkpt lat="44.6517305" lon="9.3169868"><ele>488.0</ele><time>2026-04-06T08:13:33.597Z</time></trkpt><trkpt lat="44.6516534" lon="9.3170893"><ele>488.0</ele><time>2026-04-06T08:13:34.598Z</time></trkpt><trkpt lat="44.6515586" lon="9.3171461"><ele>487.99999999999994</ele><time>2026-04-06T08:13:35.598Z</time></trkpt><trkpt lat="44.6514651" lon="9.3172032"><ele>487.99999999999994</ele><time>2026-04-06T08:13:36.598Z</time></trkpt><trkpt lat="44.6513857" lon="9.317307"><ele>488.0</ele><time>2026-04-06T08:13:37.599Z</time></trkpt><trkpt lat="44.6513433" lon="9.3174628"><ele>488.0</ele><time>2026-04-06T08:13:38.6Z</time></trkpt><trkpt lat="44.6513306" lon="9.3176661"><ele>490.25</ele><time>2026-04-06T08:13:39.598Z</time></trkpt><trkpt lat="44.6513133" lon="9.3178819"><ele>492.5</ele><time>2026-04-06T08:13:40.598Z</time></trkpt><trkpt lat="44.6512664" lon="9.3180842"><ele>494.75</ele><time>2026-04-06T08:13:41.597Z</time></trkpt><trkpt lat="44.6512196" lon="9.3182709"><ele>497.0</ele><time>2026-04-06T08:13:42.598Z</time></trkpt><trkpt lat="44.6511946" lon="9.3184647"><ele>502.0</ele><time>2026-04-06T08:13:43.598Z</time></trkpt><trkpt lat="44.6511943" lon="9.3186768"><ele>507.0</ele><time>2026-04-06T08:13:44.599Z</time></trkpt><trkpt lat="44.6512074" lon="9.3189033"><ele>512.0</ele><time>2026-04-06T08:13:45.599Z</time></trkpt><trkpt lat="44.6512246" lon="9.319131"><ele>512.0</ele><time>2026-04-06T08:13:46.599Z</time></trkpt><trkpt lat="44.6512402" lon="9.3193443"><ele>512.0</ele><time>2026-04-06T08:13:47.598Z</time></trkpt><trkpt lat="44.6512607" lon="9.3195417"><ele>512.0</ele><time>2026-04-06T08:13:48.598Z</time></trkpt><trkpt lat="44.6512913" lon="9.3197113"><ele>512.0</ele><time>2026-04-06T08:13:49.599Z</time></trkpt><trkpt lat="44.6513331" lon="9.3198516"><ele>508.6</ele><time>2026-04-06T08:13:50.598Z</time></trkpt><trkpt lat="44.6513635" lon="9.3199806"><ele>505.20000000000005</ele><time>2026-04-06T08:13:51.598Z</time></trkpt><trkpt lat="44.6513562" lon="9.3201054"><ele>501.8</ele><time>2026-04-06T08:13:52.597Z</time></trkpt><trkpt lat="44.6513019" lon="9.320213"><ele>498.4</ele><time>2026-04-06T08:13:53.598Z</time></trkpt><trkpt lat="44.6512314" lon="9.3203139"><ele>495.0</ele><time>2026-04-06T08:13:54.598Z</time></trkpt><trkpt lat="44.6511796" lon="9.3204174"><ele>495.0</ele><time>2026-04-06T08:13:55.6Z</time></trkpt><trkpt lat="44.6511723" lon="9.320531"><ele>495.0</ele><time>2026-04-06T08:13:56.6Z</time></trkpt><trkpt lat="44.6512143" lon="9.3206371"><ele>495.0</ele><time>2026-04-06T08:13:57.598Z</time></trkpt><trkpt lat="44.6512885" lon="9.3207157"><ele>495.0</ele><time>2026-04-06T08:13:58.599Z</time></trkpt><trkpt lat="44.6513834" lon="9.3207712"><ele>495.0</ele><time>2026-04-06T08:13:59.598Z</time></trkpt><trkpt lat="44.6514738" lon="9.3208324"><ele>491.6</ele><time>2026-04-06T08:14:00.597Z</time></trkpt><trkpt lat="44.6515448" lon="9.3209199"><ele>488.2</ele><time>2026-04-06T08:14:01.597Z</time></trkpt><trkpt lat="44.6515886" lon="9.3210375"><ele>484.79999999999995</ele><time>2026-04-06T08:14:02.598Z</time></trkpt><trkpt lat="44.6515781" lon="9.3211931"><ele>481.4</ele><time>2026-04-06T08:14:03.598Z</time></trkpt><trkpt lat="44.6515331" lon="9.32136"><ele>478.0</ele><time>2026-04-06T08:14:04.599Z</time></trkpt><trkpt lat="44.6514781" lon="9.3215125"><ele>478.0</ele><time>2026-04-06T08:14:05.598Z</time></trkpt><trkpt lat="44.6514181" lon="9.3216361"><ele>477.99999999999994</ele><time>2026-04-06T08:14:06.597Z</time></trkpt><trkpt lat="44.6513486" lon="9.3217108"><ele>477.99999999999994</ele><time>2026-04-06T08:14:07.598Z</time></trkpt><trkpt lat="44.651272" lon="9.3217278"><ele>478.0</ele><time>2026-04-06T08:14:08.599Z</time></trkpt><trkpt lat="44.6511944" lon="9.3216842"><ele>478.0</ele><time>2026-04-06T08:14:09.599Z</time></trkpt><trkpt lat="44.6511305" lon="9.321572"><ele>477.25</ele><time>2026-04-06T08:14:10.597Z</time></trkpt><trkpt lat="44.651066" lon="9.3214371"><ele>476.5</ele><time>2026-04-06T08:14:11.599Z</time></trkpt><trkpt lat="44.6509845" lon="9.3213277"><ele>475.75</ele><time>2026-04-06T08:14:12.598Z</time></trkpt><trkpt lat="44.6508776" lon="9.3212516"><ele>475.0</ele><time>2026-04-06T08:14:13.598Z</time></trkpt><trkpt lat="44.6507467" lon="9.3211929"><ele>473.5</ele><time>2026-04-06T08:14:14.597Z</time></trkpt><trkpt lat="44.6506095" lon="9.3211248"><ele>472.0</ele><time>2026-04-06T08:14:15.6Z</time></trkpt><trkpt lat="44.650484" lon="9.3210451"><ele>470.5</ele><time>2026-04-06T08:14:16.599Z</time></trkpt><trkpt lat="44.6503894" lon="9.3209517"><ele>469.0</ele><time>2026-04-06T08:14:17.597Z</time></trkpt><trkpt lat="44.6503296" lon="9.3208388"><ele>467.4</ele><time>2026-04-06T08:14:18.599Z</time></trkpt><trkpt lat="44.6502902" lon="9.3207051"><ele>465.79999999999995</ele><time>2026-04-06T08:14:19.598Z</time></trkpt><trkpt lat="44.6502515" lon="9.3205721"><ele>464.20000000000005</ele><time>2026-04-06T08:14:20.599Z</time></trkpt><trkpt lat="44.650194" lon="9.320466"><ele>462.6</ele><time>2026-04-06T08:14:21.598Z</time></trkpt><trkpt lat="44.6501115" lon="9.3204041"><ele>461.0</ele><time>2026-04-06T08:14:22.599Z</time></trkpt><trkpt lat="44.649997" lon="9.3204142"><ele>461.0</ele><time>2026-04-06T08:14:23.598Z</time></trkpt><trkpt lat="44.6498513" lon="9.3204974"><ele>461.0</ele><time>2026-04-06T08:14:24.598Z</time></trkpt><trkpt lat="44.6496907" lon="9.3206056"><ele>461.0</ele><time>2026-04-06T08:14:25.599Z</time></trkpt><trkpt lat="44.6495359" lon="9.3207178"><ele>458.0</ele><time>2026-04-06T08:14:26.603Z</time></trkpt><trkpt lat="44.6493968" lon="9.3208328"><ele>455.0</ele><time>2026-04-06T08:14:27.597Z</time></trkpt><trkpt lat="44.6492755" lon="9.320986"><ele>452.0</ele><time>2026-04-06T08:14:28.603Z</time></trkpt><trkpt lat="44.6491697" lon="9.3211817"><ele>452.0</ele><time>2026-04-06T08:14:29.599Z</time></trkpt><trkpt lat="44.6490705" lon="9.321392"><ele>452.0</ele><time>2026-04-06T08:14:30.598Z</time></trkpt><trkpt lat="44.6489745" lon="9.321588"><ele>452.0</ele><time>2026-04-06T08:14:31.599Z</time></trkpt><trkpt lat="44.6488827" lon="9.321768"><ele>455.66666666666663</ele><time>2026-04-06T08:14:32.602Z</time></trkpt><trkpt lat="44.6487951" lon="9.3219429"><ele>459.33333333333337</ele><time>2026-04-06T08:14:33.599Z</time></trkpt><trkpt lat="44.6487127" lon="9.3221252"><ele>463.0</ele><time>2026-04-06T08:14:34.598Z</time></trkpt><trkpt lat="44.6486375" lon="9.3223153"><ele>456.6666666666667</ele><time>2026-04-06T08:14:35.6Z</time></trkpt><trkpt lat="44.6485681" lon="9.3225191"><ele>450.33333333333337</ele><time>2026-04-06T08:14:36.598Z</time></trkpt><trkpt lat="44.6484998" lon="9.3227435"><ele>444.0</ele><time>2026-04-06T08:14:37.598Z</time></trkpt><trkpt lat="44.6484331" lon="9.3229797"><ele>444.33333333333337</ele><time>2026-04-06T08:14:38.599Z</time></trkpt><trkpt lat="44.6483669" lon="9.3232196"><ele>444.6666666666667</ele><time>2026-04-06T08:14:39.599Z</time></trkpt><trkpt lat="44.6482981" lon="9.3234548"><ele>445.0</ele><time>2026-04-06T08:14:40.597Z</time></trkpt><trkpt lat="44.6482279" lon="9.3236857"><ele>448.0</ele><time>2026-04-06T08:14:41.598Z</time></trkpt><trkpt lat="44.6481602" lon="9.3239114"><ele>451.0</ele><time>2026-04-06T08:14:42.598Z</time></trkpt><trkpt lat="44.6480948" lon="9.3241376"><ele>454.0</ele><time>2026-04-06T08:14:43.597Z</time></trkpt><trkpt lat="44.6480284" lon="9.3243693"><ele>454.0</ele><time>2026-04-06T08:14:44.6Z</time></trkpt><trkpt lat="44.647963" lon="9.3246011"><ele>454.0</ele><time>2026-04-06T08:14:45.597Z</time></trkpt><trkpt lat="44.6478968" lon="9.3248301"><ele>454.0</ele><time>2026-04-06T08:14:46.598Z</time></trkpt><trkpt lat="44.6478327" lon="9.3250583"><ele>453.0</ele><time>2026-04-06T08:14:47.598Z</time></trkpt><trkpt lat="44.647768" lon="9.3252852"><ele>452.0</ele><time>2026-04-06T08:14:48.598Z</time></trkpt><trkpt lat="44.647702" lon="9.3255051"><ele>451.0</ele><time>2026-04-06T08:14:49.597Z</time></trkpt><trkpt lat="44.6476353" lon="9.3257187"><ele>450.33333333333337</ele><time>2026-04-06T08:14:50.599Z</time></trkpt><trkpt lat="44.6475617" lon="9.3259267"><ele>449.66666666666663</ele><time>2026-04-06T08:14:51.598Z</time></trkpt><trkpt lat="44.64748" lon="9.3261267"><ele>449.0</ele><time>2026-04-06T08:14:52.598Z</time></trkpt><trkpt lat="44.6473883" lon="9.3263217"><ele>449.0</ele><time>2026-04-06T08:14:53.598Z</time></trkpt><trkpt lat="44.6472883" lon="9.32651"><ele>449.0</ele><time>2026-04-06T08:14:54.598Z</time></trkpt><trkpt lat="44.6471817" lon="9.3266917"><ele>449.0</ele><time>2026-04-06T08:14:55.598Z</time></trkpt><trkpt lat="44.6470633" lon="9.3268633"><ele>450.0</ele><time>2026-04-06T08:14:56.599Z</time></trkpt><trkpt lat="44.6469367" lon="9.3270233"><ele>451.0</ele><time>2026-04-06T08:14:57.599Z</time></trkpt><trkpt lat="44.6468" lon="9.32717"><ele>452.0</ele><time>2026-04-06T08:14:58.599Z</time></trkpt><trkpt lat="44.6466567" lon="9.3273017"><ele>452.0</ele><time>2026-04-06T08:14:59.598Z</time></trkpt><trkpt lat="44.646505" lon="9.3274233"><ele>452.0</ele><time>2026-04-06T08:15:00.598Z</time></trkpt><trkpt lat="44.6463467" lon="9.3275417"><ele>452.0</ele><time>2026-04-06T08:15:01.598Z</time></trkpt><trkpt lat="44.6461833" lon="9.3276633"><ele>457.66666666666663</ele><time>2026-04-06T08:15:02.599Z</time></trkpt><trkpt lat="44.6460183" lon="9.3277867"><ele>463.33333333333337</ele><time>2026-04-06T08:15:03.599Z</time></trkpt><trkpt lat="44.64585" lon="9.327905"><ele>469.0</ele><time>2026-04-06T08:15:04.599Z</time></trkpt><trkpt lat="44.6456817" lon="9.328025"><ele>468.33333333333337</ele><time>2026-04-06T08:15:05.598Z</time></trkpt><trkpt lat="44.64551" lon="9.3281483"><ele>467.66666666666663</ele><time>2026-04-06T08:15:06.599Z</time></trkpt><trkpt lat="44.64534" lon="9.3282633"><ele>467.0</ele><time>2026-04-06T08:15:07.598Z</time></trkpt><trkpt lat="44.645165" lon="9.328365"><ele>467.0</ele><time>2026-04-06T08:15:08.599Z</time></trkpt><trkpt lat="44.644985" lon="9.32845"><ele>467.0</ele><time>2026-04-06T08:15:09.598Z</time></trkpt><trkpt lat="44.6448" lon="9.328515"><ele>467.0</ele><time>2026-04-06T08:15:10.598Z</time></trkpt><trkpt lat="44.6446117" lon="9.32857"><ele>467.66666666666663</ele><time>2026-04-06T08:15:11.599Z</time></trkpt><trkpt lat="44.6444233" lon="9.32862"><ele>468.33333333333337</ele><time>2026-04-06T08:15:12.599Z</time></trkpt><trkpt lat="44.64423" lon="9.3286683"><ele>469.0</ele><time>2026-04-06T08:15:13.599Z</time></trkpt><trkpt lat="44.6440333" lon="9.3287233"><ele>469.0</ele><time>2026-04-06T08:15:14.599Z</time></trkpt><trkpt lat="44.6438333" lon="9.328775"><ele>469.0</ele><time>2026-04-06T08:15:15.599Z</time></trkpt><trkpt lat="44.6436317" lon="9.3288283"><ele>469.0</ele><time>2026-04-06T08:15:16.598Z</time></trkpt><trkpt lat="44.6434317" lon="9.32888"><ele>465.6666666666667</ele><time>2026-04-06T08:15:17.599Z</time></trkpt><trkpt lat="44.64323" lon="9.3289317"><ele>462.33333333333337</ele><time>2026-04-06T08:15:18.598Z</time></trkpt><trkpt lat="44.64303" lon="9.32898"><ele>459.0</ele><time>2026-04-06T08:15:19.598Z</time></trkpt><trkpt lat="44.6428317" lon="9.3290317"><ele>459.66666666666663</ele><time>2026-04-06T08:15:20.599Z</time></trkpt><trkpt lat="44.642635" lon="9.3290833"><ele>460.3333333333333</ele><time>2026-04-06T08:15:21.598Z</time></trkpt><trkpt lat="44.6424433" lon="9.329135"><ele>461.0</ele><time>2026-04-06T08:15:22.599Z</time></trkpt><trkpt lat="44.6422483" lon="9.329185"><ele>461.0</ele><time>2026-04-06T08:15:23.6Z</time></trkpt><trkpt lat="44.642055" lon="9.329235"><ele>461.0</ele><time>2026-04-06T08:15:24.599Z</time></trkpt><trkpt lat="44.64186" lon="9.329285"><ele>461.0</ele><time>2026-04-06T08:15:25.599Z</time></trkpt><trkpt lat="44.641665" lon="9.329335"><ele>462.0</ele><time>2026-04-06T08:15:26.599Z</time></trkpt><trkpt lat="44.6414683" lon="9.3293867"><ele>463.0</ele><time>2026-04-06T08:15:27.6Z</time></trkpt><trkpt lat="44.6412733" lon="9.3294383"><ele>464.0</ele><time>2026-04-06T08:15:28.598Z</time></trkpt><trkpt lat="44.6410783" lon="9.3294933"><ele>465.3333333333333</ele><time>2026-04-06T08:15:29.599Z</time></trkpt><trkpt lat="44.6408883" lon="9.329545"><ele>466.66666666666663</ele><time>2026-04-06T08:15:30.597Z</time></trkpt><trkpt lat="44.640705" lon="9.3295933"><ele>468.0</ele><time>2026-04-06T08:15:31.598Z</time></trkpt><trkpt lat="44.6405283" lon="9.329645"><ele>468.0</ele><time>2026-04-06T08:15:32.599Z</time></trkpt><trkpt lat="44.640355" lon="9.329695"><ele>468.0</ele><time>2026-04-06T08:15:33.598Z</time></trkpt><trkpt lat="44.64018" lon="9.3297417"><ele>468.0</ele><time>2026-04-06T08:15:34.598Z</time></trkpt><trkpt lat="44.64" lon="9.3297917"><ele>465.66666666666663</ele><time>2026-04-06T08:15:35.598Z</time></trkpt><trkpt lat="44.6398183" lon="9.329845"><ele>463.3333333333333</ele><time>2026-04-06T08:15:36.597Z</time></trkpt><trkpt lat="44.6396333" lon="9.329895"><ele>461.0</ele><time>2026-04-06T08:15:37.598Z</time></trkpt><trkpt lat="44.6394467" lon="9.32994"><ele>461.0</ele><time>2026-04-06T08:15:38.6Z</time></trkpt><trkpt lat="44.639265" lon="9.32998"><ele>461.0</ele><time>2026-04-06T08:15:39.598Z</time></trkpt><trkpt lat="44.639085" lon="9.3300017"><ele>461.0</ele><time>2026-04-06T08:15:40.602Z</time></trkpt><trkpt lat="44.638905" lon="9.329995"><ele>461.0</ele><time>2026-04-06T08:15:41.598Z</time></trkpt><trkpt lat="44.638725" lon="9.329965"><ele>461.0</ele><time>2026-04-06T08:15:42.599Z</time></trkpt><trkpt lat="44.6385433" lon="9.32991"><ele>461.0</ele><time>2026-04-06T08:15:43.598Z</time></trkpt><trkpt lat="44.6383617" lon="9.329825"><ele>460.66666666666663</ele><time>2026-04-06T08:15:44.599Z</time></trkpt><trkpt lat="44.6381867" lon="9.3297117"><ele>460.33333333333337</ele><time>2026-04-06T08:15:45.598Z</time></trkpt><trkpt lat="44.6380133" lon="9.3295833"><ele>460.0</ele><time>2026-04-06T08:15:46.598Z</time></trkpt><trkpt lat="44.6378367" lon="9.3294517"><ele>462.6666666666667</ele><time>2026-04-06T08:15:47.598Z</time></trkpt><trkpt lat="44.6376583" lon="9.32932"><ele>465.33333333333337</ele><time>2026-04-06T08:15:48.597Z</time></trkpt><trkpt lat="44.6374783" lon="9.3291867"><ele>468.0</ele><time>2026-04-06T08:15:49.599Z</time></trkpt><trkpt lat="44.6372967" lon="9.329055"><ele>468.0</ele><time>2026-04-06T08:15:50.6Z</time></trkpt><trkpt lat="44.6371183" lon="9.3289233"><ele>468.0</ele><time>2026-04-06T08:15:51.6Z</time></trkpt><trkpt lat="44.6369383" lon="9.328795"><ele>468.0</ele><time>2026-04-06T08:15:52.598Z</time></trkpt><trkpt lat="44.63676" lon="9.328685"><ele>466.33333333333337</ele><time>2026-04-06T08:15:53.598Z</time></trkpt><trkpt lat="44.6365767" lon="9.3285967"><ele>464.6666666666667</ele><time>2026-04-06T08:15:54.599Z</time></trkpt><trkpt lat="44.6363917" lon="9.32853"><ele>463.0</ele><time>2026-04-06T08:15:55.6Z</time></trkpt><trkpt lat="44.6362017" lon="9.3284867"><ele>464.33333333333337</ele><time>2026-04-06T08:15:56.599Z</time></trkpt><trkpt lat="44.6360083" lon="9.3284733"><ele>465.66666666666663</ele><time>2026-04-06T08:15:57.598Z</time></trkpt><trkpt lat="44.6358117" lon="9.3284933"><ele>467.0</ele><time>2026-04-06T08:15:58.598Z</time></trkpt><trkpt lat="44.6356183" lon="9.3285433"><ele>467.0</ele><time>2026-04-06T08:15:59.599Z</time></trkpt><trkpt lat="44.63543" lon="9.3286283"><ele>467.0</ele><time>2026-04-06T08:16:00.599Z</time></trkpt><trkpt lat="44.63524" lon="9.3287367"><ele>467.0</ele><time>2026-04-06T08:16:01.599Z</time></trkpt><trkpt lat="44.6350517" lon="9.3288617"><ele>470.3333333333333</ele><time>2026-04-06T08:16:02.6Z</time></trkpt><trkpt lat="44.6348617" lon="9.3289883"><ele>473.66666666666663</ele><time>2026-04-06T08:16:03.6Z</time></trkpt><trkpt lat="44.6346717" lon="9.3291167"><ele>477.0</ele><time>2026-04-06T08:16:04.598Z</time></trkpt><trkpt lat="44.634485" lon="9.3292433"><ele>474.33333333333337</ele><time>2026-04-06T08:16:05.598Z</time></trkpt><trkpt lat="44.6342967" lon="9.3293733"><ele>471.6666666666667</ele><time>2026-04-06T08:16:06.597Z</time></trkpt><trkpt lat="44.63411" lon="9.3295033"><ele>469.0</ele><time>2026-04-06T08:16:07.599Z</time></trkpt><trkpt lat="44.6339217" lon="9.3296333"><ele>470.0</ele><time>2026-04-06T08:16:08.599Z</time></trkpt><trkpt lat="44.633735" lon="9.3297617"><ele>471.0</ele><time>2026-04-06T08:16:09.6Z</time></trkpt><trkpt lat="44.6335483" lon="9.3298883"><ele>472.0</ele><time>2026-04-06T08:16:10.599Z</time></trkpt><trkpt lat="44.63336" lon="9.330015"><ele>472.0</ele><time>2026-04-06T08:16:11.6Z</time></trkpt><trkpt lat="44.6331717" lon="9.330145"><ele>472.0</ele><time>2026-04-06T08:16:12.6Z</time></trkpt><trkpt lat="44.632985" lon="9.3302833"><ele>472.0</ele><time>2026-04-06T08:16:13.6Z</time></trkpt><trkpt lat="44.6328" lon="9.3304333"><ele>473.33333333333337</ele><time>2026-04-06T08:16:14.601Z</time></trkpt><trkpt lat="44.63262" lon="9.330595"><ele>474.66666666666663</ele><time>2026-04-06T08:16:15.599Z</time></trkpt><trkpt lat="44.6324433" lon="9.330765"><ele>476.0</ele><time>2026-04-06T08:16:16.599Z</time></trkpt><trkpt lat="44.6322683" lon="9.3309383"><ele>476.0</ele><time>2026-04-06T08:16:17.598Z</time></trkpt><trkpt lat="44.632095" lon="9.3311067"><ele>476.0</ele><time>2026-04-06T08:16:18.598Z</time></trkpt><trkpt lat="44.631925" lon="9.3312783"><ele>476.0</ele><time>2026-04-06T08:16:19.598Z</time></trkpt><trkpt lat="44.6317583" lon="9.3314467"><ele>477.3333333333333</ele><time>2026-04-06T08:16:20.599Z</time></trkpt><trkpt lat="44.6315917" lon="9.3316133"><ele>478.66666666666663</ele><time>2026-04-06T08:16:21.599Z</time></trkpt><trkpt lat="44.6314217" lon="9.3317767"><ele>480.0</ele><time>2026-04-06T08:16:22.598Z</time></trkpt><trkpt lat="44.63125" lon="9.3319267"><ele>481.66666666666663</ele><time>2026-04-06T08:16:23.6Z</time></trkpt><trkpt lat="44.6310717" lon="9.33207"><ele>483.3333333333333</ele><time>2026-04-06T08:16:24.6Z</time></trkpt><trkpt lat="44.63089" lon="9.3322067"><ele>485.0</ele><time>2026-04-06T08:16:25.599Z</time></trkpt><trkpt lat="44.6307083" lon="9.3323383"><ele>485.0</ele><time>2026-04-06T08:16:26.6Z</time></trkpt><trkpt lat="44.6305267" lon="9.3324683"><ele>485.0</ele><time>2026-04-06T08:16:27.6Z</time></trkpt><trkpt lat="44.6303433" lon="9.3325917"><ele>485.0</ele><time>2026-04-06T08:16:28.599Z</time></trkpt><trkpt lat="44.6301633" lon="9.3327067"><ele>480.3333333333333</ele><time>2026-04-06T08:16:29.6Z</time></trkpt><trkpt lat="44.6299817" lon="9.3328083"><ele>475.66666666666663</ele><time>2026-04-06T08:16:30.6Z</time></trkpt><trkpt lat="44.6298" lon="9.3328917"><ele>471.0</ele><time>2026-04-06T08:16:31.599Z</time></trkpt><trkpt lat="44.6296217" lon="9.332955"><ele>471.33333333333337</ele><time>2026-04-06T08:16:32.6Z</time></trkpt><trkpt lat="44.6294533" lon="9.333"><ele>471.6666666666667</ele><time>2026-04-06T08:16:33.598Z</time></trkpt><trkpt lat="44.6292933" lon="9.33303"><ele>472.0</ele><time>2026-04-06T08:16:34.598Z</time></trkpt><trkpt lat="44.6291483" lon="9.333045"><ele>472.0</ele><time>2026-04-06T08:16:35.599Z</time></trkpt><trkpt lat="44.6290217" lon="9.33305"><ele>472.00000000000006</ele><time>2026-04-06T08:16:36.598Z</time></trkpt><trkpt lat="44.6289233" lon="9.3330467"><ele>472.00000000000006</ele><time>2026-04-06T08:16:37.599Z</time></trkpt><trkpt lat="44.6288467" lon="9.3330433"><ele>472.0</ele><time>2026-04-06T08:16:38.6Z</time></trkpt><trkpt lat="44.6287483" lon="9.33304"><ele>472.0</ele><time>2026-04-06T08:16:40.599Z</time></trkpt><trkpt lat="44.6286817" lon="9.333045"><ele>473.8</ele><time>2026-04-06T08:16:42.598Z</time></trkpt><trkpt lat="44.6286083" lon="9.3331417"><ele>475.6</ele><time>2026-04-06T08:16:44.599Z</time></trkpt><trkpt lat="44.6285383" lon="9.3332583"><ele>477.40000000000003</ele><time>2026-04-06T08:16:46.598Z</time></trkpt><trkpt lat="44.6284617" lon="9.3333067"><ele>479.20000000000005</ele><time>2026-04-06T08:16:49.599Z</time></trkpt><trkpt lat="44.6283767" lon="9.3332683"><ele>481.0</ele><time>2026-04-06T08:17:34.597Z</time></trkpt><trkpt lat="44.6283383" lon="9.33317"><ele>481.0</ele><time>2026-04-06T08:17:36.598Z</time></trkpt><trkpt lat="44.628295" lon="9.3330833"><ele>481.0</ele><time>2026-04-06T08:17:38.598Z</time></trkpt><trkpt lat="44.6281917" lon="9.3330067"><ele>481.0</ele><time>2026-04-06T08:17:40.598Z</time></trkpt><trkpt lat="44.6281167" lon="9.332985"><ele>481.0</ele><time>2026-04-06T08:17:41.599Z</time></trkpt><trkpt lat="44.6280267" lon="9.3329733"><ele>481.0</ele><time>2026-04-06T08:17:42.598Z</time></trkpt><trkpt lat="44.62792" lon="9.332965"><ele>479.0</ele><time>2026-04-06T08:17:43.597Z</time></trkpt><trkpt lat="44.6278083" lon="9.3329583"><ele>477.0</ele><time>2026-04-06T08:17:44.599Z</time></trkpt><trkpt lat="44.6276917" lon="9.3329483"><ele>475.0</ele><time>2026-04-06T08:17:45.597Z</time></trkpt><trkpt lat="44.62757" lon="9.332935"><ele>473.0</ele><time>2026-04-06T08:17:46.598Z</time></trkpt><trkpt lat="44.6274417" lon="9.3329167"><ele>473.0</ele><time>2026-04-06T08:17:47.599Z</time></trkpt><trkpt lat="44.6273083" lon="9.332895"><ele>473.0</ele><time>2026-04-06T08:17:48.598Z</time></trkpt><trkpt lat="44.6271683" lon="9.3328683"><ele>473.0</ele><time>2026-04-06T08:17:49.599Z</time></trkpt><trkpt lat="44.6270283" lon="9.3328383"><ele>473.0</ele><time>2026-04-06T08:17:50.6Z</time></trkpt><trkpt lat="44.6268867" lon="9.3328017"><ele>474.5</ele><time>2026-04-06T08:17:51.599Z</time></trkpt><trkpt lat="44.6267483" lon="9.332765"><ele>476.0</ele><time>2026-04-06T08:17:52.599Z</time></trkpt><trkpt lat="44.626605" lon="9.3327233"><ele>477.5</ele><time>2026-04-06T08:17:53.599Z</time></trkpt><trkpt lat="44.626455" lon="9.3326717"><ele>479.0</ele><time>2026-04-06T08:17:54.598Z</time></trkpt><trkpt lat="44.6263017" lon="9.3326133"><ele>479.0</ele><time>2026-04-06T08:17:55.599Z</time></trkpt><trkpt lat="44.6261467" lon="9.33255"><ele>479.0</ele><time>2026-04-06T08:17:56.599Z</time></trkpt><trkpt lat="44.625995" lon="9.3324783"><ele>479.0</ele><time>2026-04-06T08:17:57.599Z</time></trkpt><trkpt lat="44.625845" lon="9.3324033"><ele>477.3333333333333</ele><time>2026-04-06T08:17:58.598Z</time></trkpt><trkpt lat="44.6256933" lon="9.3323267"><ele>475.66666666666663</ele><time>2026-04-06T08:17:59.598Z</time></trkpt><trkpt lat="44.6255433" lon="9.3322467"><ele>474.0</ele><time>2026-04-06T08:18:00.598Z</time></trkpt><trkpt lat="44.6253933" lon="9.332165"><ele>476.0</ele><time>2026-04-06T08:18:01.599Z</time></trkpt><trkpt lat="44.6252433" lon="9.3320867"><ele>478.0</ele><time>2026-04-06T08:18:02.597Z</time></trkpt><trkpt lat="44.6250967" lon="9.3320083"><ele>480.0</ele><time>2026-04-06T08:18:03.599Z</time></trkpt><trkpt lat="44.624955" lon="9.3319317"><ele>480.0</ele><time>2026-04-06T08:18:04.597Z</time></trkpt><trkpt lat="44.62482" lon="9.3318533"><ele>480.0</ele><time>2026-04-06T08:18:05.598Z</time></trkpt><trkpt lat="44.6246933" lon="9.3317817"><ele>480.0</ele><time>2026-04-06T08:18:06.599Z</time></trkpt><trkpt lat="44.624575" lon="9.3317117"><ele>480.0</ele><time>2026-04-06T08:18:07.598Z</time></trkpt><trkpt lat="44.6244633" lon="9.33165"><ele>480.4</ele><time>2026-04-06T08:18:08.599Z</time></trkpt><trkpt lat="44.62436" lon="9.3315917"><ele>480.8</ele><time>2026-04-06T08:18:09.598Z</time></trkpt><trkpt lat="44.6242633" lon="9.33154"><ele>481.20000000000005</ele><time>2026-04-06T08:18:10.597Z</time></trkpt><trkpt lat="44.624175" lon="9.3315"><ele>481.6</ele><time>2026-04-06T08:18:11.598Z</time></trkpt><trkpt lat="44.6240933" lon="9.33147"><ele>482.0</ele><time>2026-04-06T08:18:12.598Z</time></trkpt><trkpt lat="44.6240217" lon="9.331465"><ele>481.99999999999994</ele><time>2026-04-06T08:18:13.598Z</time></trkpt><trkpt lat="44.62393" lon="9.3315483"><ele>482.0</ele><time>2026-04-06T08:18:15.599Z</time></trkpt><trkpt lat="44.623905" lon="9.3316367"><ele>482.0</ele><time>2026-04-06T08:18:16.599Z</time></trkpt><trkpt lat="44.62389" lon="9.3317417"><ele>482.0</ele><time>2026-04-06T08:18:17.598Z</time></trkpt><trkpt lat="44.62388" lon="9.3318467"><ele>481.99999999999994</ele><time>2026-04-06T08:18:18.598Z</time></trkpt><trkpt lat="44.62386" lon="9.3319333"><ele>482.0</ele><time>2026-04-06T08:18:19.599Z</time></trkpt><trkpt lat="44.623795" lon="9.3320533"><ele>481.99999999999994</ele><time>2026-04-06T08:18:21.598Z</time></trkpt><trkpt lat="44.6237567" lon="9.3321333"><ele>482.0</ele><time>2026-04-06T08:18:23.599Z</time></trkpt><trkpt lat="44.6237633" lon="9.3322683"><ele>482.0</ele><time>2026-04-06T08:18:25.597Z</time></trkpt><trkpt lat="44.6237767" lon="9.3323633"><ele>482.0</ele><time>2026-04-06T08:18:26.597Z</time></trkpt><trkpt lat="44.6237867" lon="9.3324583"><ele>481.99999999999994</ele><time>2026-04-06T08:18:27.597Z</time></trkpt><trkpt lat="44.6237917" lon="9.3325617"><ele>482.0</ele><time>2026-04-06T08:18:28.599Z</time></trkpt><trkpt lat="44.6237883" lon="9.3326683"><ele>481.99999999999994</ele><time>2026-04-06T08:18:29.597Z</time></trkpt><trkpt lat="44.6237783" lon="9.3327767"><ele>482.0</ele><time>2026-04-06T08:18:30.599Z</time></trkpt><trkpt lat="44.6237617" lon="9.3328867"><ele>482.0</ele><time>2026-04-06T08:18:31.599Z</time></trkpt><trkpt lat="44.6237367" lon="9.3329983"><ele>482.0</ele><time>2026-04-06T08:18:32.599Z</time></trkpt><trkpt lat="44.6237067" lon="9.333105"><ele>481.99999999999994</ele><time>2026-04-06T08:18:33.597Z</time></trkpt><trkpt lat="44.6236767" lon="9.3332067"><ele>482.0</ele><time>2026-04-06T08:18:34.599Z</time></trkpt><trkpt lat="44.6236483" lon="9.333305"><ele>483.8333333333333</ele><time>2026-04-06T08:18:35.598Z</time></trkpt><trkpt lat="44.6236233" lon="9.333395"><ele>485.66666666666663</ele><time>2026-04-06T08:18:36.598Z</time></trkpt><trkpt lat="44.6235717" lon="9.33353"><ele>487.5</ele><time>2026-04-06T08:18:38.599Z</time></trkpt><trkpt lat="44.6235233" lon="9.3336083"><ele>489.33333333333337</ele><time>2026-04-06T08:18:40.598Z</time></trkpt><trkpt lat="44.62346" lon="9.3336267"><ele>491.1666666666667</ele><time>2026-04-06T08:18:42.598Z</time></trkpt><trkpt lat="44.62338" lon="9.3336"><ele>493.0</ele><time>2026-04-06T08:18:44.599Z</time></trkpt><trkpt lat="44.6232783" lon="9.3335583"><ele>493.00000000000006</ele><time>2026-04-06T08:18:46.598Z</time></trkpt><trkpt lat="44.623215" lon="9.3335133"><ele>493.0</ele><time>2026-04-06T08:18:48.598Z</time></trkpt><trkpt lat="44.6231283" lon="9.3335817"><ele>493.0</ele><time>2026-04-06T08:39:26.6Z</time></trkpt><trkpt lat="44.6232067" lon="9.3336067"><ele>493.0</ele><time>2026-04-06T08:39:29.6Z</time></trkpt><trkpt lat="44.6232833" lon="9.33363"><ele>493.00000000000006</ele><time>2026-04-06T08:39:31.6Z</time></trkpt><trkpt lat="44.62336" lon="9.333665"><ele>493.0</ele><time>2026-04-06T08:39:33.601Z</time></trkpt><trkpt lat="44.6234233" lon="9.3337017"><ele>493.00000000000006</ele><time>2026-04-06T08:39:35.6Z</time></trkpt><trkpt lat="44.623495" lon="9.3337217"><ele>493.0</ele><time>2026-04-06T08:39:38.601Z</time></trkpt><trkpt lat="44.62354" lon="9.3336467"><ele>493.0</ele><time>2026-04-06T08:39:40.598Z</time></trkpt><trkpt lat="44.6235867" lon="9.3334833"><ele>493.0</ele><time>2026-04-06T08:39:42.598Z</time></trkpt><trkpt lat="44.6236133" lon="9.3333867"><ele>493.00000000000006</ele><time>2026-04-06T08:39:43.603Z</time></trkpt><trkpt lat="44.6236433" lon="9.33329"><ele>493.0</ele><time>2026-04-06T08:39:44.599Z</time></trkpt><trkpt lat="44.6236683" lon="9.3331983"><ele>491.71428571428567</ele><time>2026-04-06T08:39:45.599Z</time></trkpt><trkpt lat="44.6236983" lon="9.333105"><ele>490.42857142857144</ele><time>2026-04-06T08:39:46.598Z</time></trkpt><trkpt lat="44.6237283" lon="9.3330133"><ele>489.1428571428571</ele><time>2026-04-06T08:39:47.599Z</time></trkpt><trkpt lat="44.6237583" lon="9.3329183"><ele>487.85714285714283</ele><time>2026-04-06T08:39:48.597Z</time></trkpt><trkpt lat="44.6237867" lon="9.3328217"><ele>486.57142857142856</ele><time>2026-04-06T08:39:49.599Z</time></trkpt><trkpt lat="44.6238083" lon="9.33272"><ele>485.2857142857143</ele><time>2026-04-06T08:39:50.598Z</time></trkpt><trkpt lat="44.62382" lon="9.3326083"><ele>484.0</ele><time>2026-04-06T08:39:51.599Z</time></trkpt><trkpt lat="44.623825" lon="9.33249"><ele>483.6666666666667</ele><time>2026-04-06T08:39:52.599Z</time></trkpt><trkpt lat="44.6238267" lon="9.3323783"><ele>483.33333333333337</ele><time>2026-04-06T08:39:53.599Z</time></trkpt><trkpt lat="44.6238333" lon="9.33228"><ele>483.0</ele><time>2026-04-06T08:39:54.598Z</time></trkpt><trkpt lat="44.6238533" lon="9.3321833"><ele>482.66666666666663</ele><time>2026-04-06T08:39:55.598Z</time></trkpt><trkpt lat="44.6238867" lon="9.33208"><ele>482.3333333333333</ele><time>2026-04-06T08:39:56.603Z</time></trkpt><trkpt lat="44.6239283" lon="9.3319633"><ele>482.0</ele><time>2026-04-06T08:39:57.6Z</time></trkpt><trkpt lat="44.6239733" lon="9.3318533"><ele>482.0</ele><time>2026-04-06T08:39:58.6Z</time></trkpt><trkpt lat="44.62401" lon="9.331755"><ele>482.00000000000006</ele><time>2026-04-06T08:39:59.601Z</time></trkpt><trkpt lat="44.6240517" lon="9.3316117"><ele>482.00000000000006</ele><time>2026-04-06T08:40:01.599Z</time></trkpt><trkpt lat="44.6240433" lon="9.3314833"><ele>482.0</ele><time>2026-04-06T08:40:08.598Z</time></trkpt><trkpt lat="44.623955" lon="9.3313667"><ele>482.0</ele><time>2026-04-06T08:40:10.598Z</time></trkpt><trkpt lat="44.6238667" lon="9.33131"><ele>481.25</ele><time>2026-04-06T08:40:11.599Z</time></trkpt><trkpt lat="44.6237667" lon="9.3312567"><ele>480.5</ele><time>2026-04-06T08:40:12.599Z</time></trkpt><trkpt lat="44.6236467" lon="9.3311917"><ele>479.75</ele><time>2026-04-06T08:40:13.598Z</time></trkpt><trkpt lat="44.623515" lon="9.3311133"><ele>479.0</ele><time>2026-04-06T08:40:14.6Z</time></trkpt><trkpt lat="44.62337" lon="9.3310317"><ele>478.66666666666663</ele><time>2026-04-06T08:40:15.598Z</time></trkpt><trkpt lat="44.623215" lon="9.3309433"><ele>478.33333333333337</ele><time>2026-04-06T08:40:16.6Z</time></trkpt><trkpt lat="44.6230533" lon="9.33085"><ele>478.0</ele><time>2026-04-06T08:40:17.598Z</time></trkpt><trkpt lat="44.6228917" lon="9.3307433"><ele>478.33333333333337</ele><time>2026-04-06T08:40:18.599Z</time></trkpt><trkpt lat="44.6227217" lon="9.33061"><ele>478.66666666666663</ele><time>2026-04-06T08:40:19.599Z</time></trkpt><trkpt lat="44.6225467" lon="9.330455"><ele>479.0</ele><time>2026-04-06T08:40:20.601Z</time></trkpt><trkpt lat="44.622375" lon="9.330285"><ele>480.0</ele><time>2026-04-06T08:40:21.599Z</time></trkpt><trkpt lat="44.6222133" lon="9.3301033"><ele>481.0</ele><time>2026-04-06T08:40:22.598Z</time></trkpt><trkpt lat="44.6220683" lon="9.32992"><ele>482.0</ele><time>2026-04-06T08:40:23.599Z</time></trkpt><trkpt lat="44.6219383" lon="9.3297383"><ele>483.3333333333333</ele><time>2026-04-06T08:40:24.598Z</time></trkpt><trkpt lat="44.62182" lon="9.3295517"><ele>484.66666666666663</ele><time>2026-04-06T08:40:25.599Z</time></trkpt><trkpt lat="44.6217033" lon="9.32936"><ele>486.0</ele><time>2026-04-06T08:40:26.599Z</time></trkpt><trkpt lat="44.6215917" lon="9.3291517"><ele>486.0</ele><time>2026-04-06T08:40:27.599Z</time></trkpt><trkpt lat="44.6214833" lon="9.3289233"><ele>486.0</ele><time>2026-04-06T08:40:28.599Z</time></trkpt><trkpt lat="44.6213833" lon="9.328685"><ele>486.0</ele><time>2026-04-06T08:40:29.598Z</time></trkpt><trkpt lat="44.6212833" lon="9.32844"><ele>485.0</ele><time>2026-04-06T08:40:30.599Z</time></trkpt><trkpt lat="44.6211833" lon="9.3281883"><ele>484.0</ele><time>2026-04-06T08:40:31.598Z</time></trkpt><trkpt lat="44.62108" lon="9.3279383"><ele>483.0</ele><time>2026-04-06T08:40:32.601Z</time></trkpt><trkpt lat="44.6209783" lon="9.3276883"><ele>483.0</ele><time>2026-04-06T08:40:33.599Z</time></trkpt><trkpt lat="44.620875" lon="9.32744"><ele>483.0</ele><time>2026-04-06T08:40:34.6Z</time></trkpt><trkpt lat="44.62077" lon="9.3271967"><ele>483.0</ele><time>2026-04-06T08:40:35.599Z</time></trkpt><trkpt lat="44.62066" lon="9.3269567"><ele>483.33333333333337</ele><time>2026-04-06T08:40:36.599Z</time></trkpt><trkpt lat="44.6205417" lon="9.3267217"><ele>483.6666666666667</ele><time>2026-04-06T08:40:37.599Z</time></trkpt><trkpt lat="44.620415" lon="9.3264933"><ele>484.0</ele><time>2026-04-06T08:40:38.599Z</time></trkpt><trkpt lat="44.6202783" lon="9.3262717"><ele>485.33333333333337</ele><time>2026-04-06T08:40:39.599Z</time></trkpt><trkpt lat="44.6201383" lon="9.3260583"><ele>486.66666666666663</ele><time>2026-04-06T08:40:40.599Z</time></trkpt><trkpt lat="44.6199917" lon="9.32585"><ele>488.0</ele><time>2026-04-06T08:40:41.598Z</time></trkpt><trkpt lat="44.6198417" lon="9.3256433"><ele>488.0</ele><time>2026-04-06T08:40:42.598Z</time></trkpt><trkpt lat="44.6196917" lon="9.32544"><ele>488.0</ele><time>2026-04-06T08:40:43.598Z</time></trkpt><trkpt lat="44.6195383" lon="9.3252383"><ele>488.0</ele><time>2026-04-06T08:40:44.598Z</time></trkpt><trkpt lat="44.619385" lon="9.32504"><ele>489.3333333333333</ele><time>2026-04-06T08:40:45.6Z</time></trkpt><trkpt lat="44.619235" lon="9.3248417"><ele>490.66666666666663</ele><time>2026-04-06T08:40:46.599Z</time></trkpt><trkpt lat="44.6190867" lon="9.324645"><ele>492.0</ele><time>2026-04-06T08:40:47.598Z</time></trkpt><trkpt lat="44.6189383" lon="9.3244467"><ele>492.0</ele><time>2026-04-06T08:40:48.6Z</time></trkpt><trkpt lat="44.61879" lon="9.3242483"><ele>492.0</ele><time>2026-04-06T08:40:49.6Z</time></trkpt><trkpt lat="44.61864" lon="9.3240467"><ele>492.0</ele><time>2026-04-06T08:40:50.601Z</time></trkpt><trkpt lat="44.6184883" lon="9.3238417"><ele>494.33333333333337</ele><time>2026-04-06T08:40:51.599Z</time></trkpt><trkpt lat="44.6183367" lon="9.32364"><ele>496.6666666666667</ele><time>2026-04-06T08:40:52.599Z</time></trkpt><trkpt lat="44.6181867" lon="9.3234367"><ele>499.0</ele><time>2026-04-06T08:40:53.598Z</time></trkpt><trkpt lat="44.618035" lon="9.3232333"><ele>500.33333333333337</ele><time>2026-04-06T08:40:54.599Z</time></trkpt><trkpt lat="44.6178817" lon="9.3230283"><ele>501.66666666666663</ele><time>2026-04-06T08:40:55.599Z</time></trkpt><trkpt lat="44.617735" lon="9.3228283"><ele>503.0</ele><time>2026-04-06T08:40:56.6Z</time></trkpt><trkpt lat="44.617595" lon="9.3226417"><ele>498.66666666666663</ele><time>2026-04-06T08:40:57.6Z</time></trkpt><trkpt lat="44.617465" lon="9.3224667"><ele>494.33333333333337</ele><time>2026-04-06T08:40:58.6Z</time></trkpt><trkpt lat="44.6173367" lon="9.3223"><ele>490.0</ele><time>2026-04-06T08:40:59.599Z</time></trkpt><trkpt lat="44.6172083" lon="9.3221517"><ele>490.0</ele><time>2026-04-06T08:41:00.599Z</time></trkpt><trkpt lat="44.6170683" lon="9.32202"><ele>490.0</ele><time>2026-04-06T08:41:01.598Z</time></trkpt><trkpt lat="44.6169083" lon="9.32191"><ele>490.0</ele><time>2026-04-06T08:41:02.598Z</time></trkpt><trkpt lat="44.6167267" lon="9.3218267"><ele>494.0</ele><time>2026-04-06T08:41:03.599Z</time></trkpt><trkpt lat="44.616525" lon="9.3217767"><ele>498.0</ele><time>2026-04-06T08:41:04.598Z</time></trkpt><trkpt lat="44.6163067" lon="9.3217633"><ele>502.0</ele><time>2026-04-06T08:41:05.599Z</time></trkpt><trkpt lat="44.616085" lon="9.3217683"><ele>504.33333333333337</ele><time>2026-04-06T08:41:06.599Z</time></trkpt><trkpt lat="44.61588" lon="9.32178"><ele>506.66666666666663</ele><time>2026-04-06T08:41:07.599Z</time></trkpt><trkpt lat="44.6156917" lon="9.32179"><ele>509.0</ele><time>2026-04-06T08:41:08.6Z</time></trkpt><trkpt lat="44.61551" lon="9.321795"><ele>509.0</ele><time>2026-04-06T08:41:09.6Z</time></trkpt><trkpt lat="44.6153433" lon="9.32178"><ele>509.0</ele><time>2026-04-06T08:41:10.603Z</time></trkpt><trkpt lat="44.61518" lon="9.3217383"><ele>509.0</ele><time>2026-04-06T08:41:11.598Z</time></trkpt><trkpt lat="44.6150317" lon="9.32166"><ele>509.5</ele><time>2026-04-06T08:41:12.599Z</time></trkpt><trkpt lat="44.6149033" lon="9.3215517"><ele>510.0</ele><time>2026-04-06T08:41:13.599Z</time></trkpt><trkpt lat="44.614785" lon="9.3214467"><ele>510.5</ele><time>2026-04-06T08:41:14.599Z</time></trkpt><trkpt lat="44.614655" lon="9.3213767"><ele>511.0</ele><time>2026-04-06T08:41:15.6Z</time></trkpt><trkpt lat="44.6145083" lon="9.3213517"><ele>508.0</ele><time>2026-04-06T08:41:16.598Z</time></trkpt><trkpt lat="44.6143367" lon="9.32137"><ele>505.0</ele><time>2026-04-06T08:41:17.601Z</time></trkpt><trkpt lat="44.61415" lon="9.32141"><ele>502.0</ele><time>2026-04-06T08:41:18.598Z</time></trkpt><trkpt lat="44.6139617" lon="9.321455"><ele>507.0</ele><time>2026-04-06T08:41:19.599Z</time></trkpt><trkpt lat="44.6137817" lon="9.3215017"><ele>512.0</ele><time>2026-04-06T08:41:20.6Z</time></trkpt><trkpt lat="44.6136133" lon="9.3215533"><ele>517.0</ele><time>2026-04-06T08:41:21.6Z</time></trkpt><trkpt lat="44.6134583" lon="9.3216017"><ele>517.0</ele><time>2026-04-06T08:41:22.599Z</time></trkpt><trkpt lat="44.61332" lon="9.3216383"><ele>517.0</ele><time>2026-04-06T08:41:23.599Z</time></trkpt><trkpt lat="44.6131983" lon="9.321645"><ele>517.0</ele><time>2026-04-06T08:41:24.598Z</time></trkpt><trkpt lat="44.6131017" lon="9.3216033"><ele>517.0</ele><time>2026-04-06T08:41:25.597Z</time></trkpt><trkpt lat="44.6130283" lon="9.321515"><ele>513.25</ele><time>2026-04-06T08:41:26.6Z</time></trkpt><trkpt lat="44.6129833" lon="9.3213783"><ele>509.5</ele><time>2026-04-06T08:41:27.598Z</time></trkpt><trkpt lat="44.6129483" lon="9.3211983"><ele>505.75</ele><time>2026-04-06T08:41:28.598Z</time></trkpt><trkpt lat="44.612915" lon="9.32099"><ele>502.0</ele><time>2026-04-06T08:41:29.599Z</time></trkpt><trkpt lat="44.6128767" lon="9.3207867"><ele>503.0</ele><time>2026-04-06T08:41:30.599Z</time></trkpt><trkpt lat="44.6128167" lon="9.3206083"><ele>504.0</ele><time>2026-04-06T08:41:31.599Z</time></trkpt><trkpt lat="44.6127083" lon="9.320445"><ele>505.0</ele><time>2026-04-06T08:41:32.6Z</time></trkpt><trkpt lat="44.61256" lon="9.320295"><ele>505.0</ele><time>2026-04-06T08:41:33.599Z</time></trkpt><trkpt lat="44.6124067" lon="9.32016"><ele>505.0</ele><time>2026-04-06T08:41:34.6Z</time></trkpt><trkpt lat="44.61227" lon="9.3200433"><ele>505.0</ele><time>2026-04-06T08:41:35.599Z</time></trkpt><trkpt lat="44.612145" lon="9.3199417"><ele>505.0</ele><time>2026-04-06T08:41:36.598Z</time></trkpt><trkpt lat="44.6120383" lon="9.3198467"><ele>505.0</ele><time>2026-04-06T08:41:37.599Z</time></trkpt><trkpt lat="44.6119567" lon="9.31975"><ele>505.0</ele><time>2026-04-06T08:41:38.598Z</time></trkpt><trkpt lat="44.6119067" lon="9.3196283"><ele>505.0</ele><time>2026-04-06T08:41:39.601Z</time></trkpt><trkpt lat="44.6118833" lon="9.3194783"><ele>505.0</ele><time>2026-04-06T08:41:40.599Z</time></trkpt><trkpt lat="44.6118817" lon="9.31931"><ele>505.0</ele><time>2026-04-06T08:41:41.599Z</time></trkpt><trkpt lat="44.6118767" lon="9.31915"><ele>505.0</ele><time>2026-04-06T08:41:42.599Z</time></trkpt><trkpt lat="44.611855" lon="9.319"><ele>505.0</ele><time>2026-04-06T08:41:43.597Z</time></trkpt><trkpt lat="44.6117967" lon="9.31887"><ele>505.0</ele><time>2026-04-06T08:41:44.605Z</time></trkpt><trkpt lat="44.6117" lon="9.3187533"><ele>514.3333333333334</ele><time>2026-04-06T08:41:45.599Z</time></trkpt><trkpt lat="44.6115783" lon="9.3186367"><ele>523.6666666666666</ele><time>2026-04-06T08:41:46.6Z</time></trkpt><trkpt lat="44.6114483" lon="9.3185117"><ele>533.0</ele><time>2026-04-06T08:41:47.599Z</time></trkpt><trkpt lat="44.6113233" lon="9.318395"><ele>533.0</ele><time>2026-04-06T08:41:48.599Z</time></trkpt><trkpt lat="44.6112017" lon="9.3182967"><ele>533.0</ele><time>2026-04-06T08:41:49.6Z</time></trkpt><trkpt lat="44.611085" lon="9.3182117"><ele>533.0</ele><time>2026-04-06T08:41:50.601Z</time></trkpt><trkpt lat="44.6109717" lon="9.31814"><ele>533.0</ele><time>2026-04-06T08:41:51.599Z</time></trkpt><trkpt lat="44.6108767" lon="9.3180617"><ele>527.75</ele><time>2026-04-06T08:41:52.6Z</time></trkpt><trkpt lat="44.6108083" lon="9.3179533"><ele>522.5</ele><time>2026-04-06T08:41:53.6Z</time></trkpt><trkpt lat="44.6107767" lon="9.3178033"><ele>517.25</ele><time>2026-04-06T08:41:54.598Z</time></trkpt><trkpt lat="44.6107667" lon="9.317615"><ele>512.0</ele><time>2026-04-06T08:41:55.599Z</time></trkpt><trkpt lat="44.61077" lon="9.3174217"><ele>512.0</ele><time>2026-04-06T08:41:56.6Z</time></trkpt><trkpt lat="44.6107683" lon="9.3172417"><ele>512.0</ele><time>2026-04-06T08:41:57.599Z</time></trkpt><trkpt lat="44.6107567" lon="9.3170767"><ele>512.0</ele><time>2026-04-06T08:41:58.6Z</time></trkpt><trkpt lat="44.6107483" lon="9.316915"><ele>512.0</ele><time>2026-04-06T08:41:59.598Z</time></trkpt><trkpt lat="44.610755" lon="9.3167467"><ele>513.25</ele><time>2026-04-06T08:42:00.599Z</time></trkpt><trkpt lat="44.61079" lon="9.3165733"><ele>514.5</ele><time>2026-04-06T08:42:01.601Z</time></trkpt><trkpt lat="44.6108267" lon="9.3163883"><ele>515.75</ele><time>2026-04-06T08:42:02.599Z</time></trkpt><trkpt lat="44.61084" lon="9.3161867"><ele>517.0</ele><time>2026-04-06T08:42:03.599Z</time></trkpt><trkpt lat="44.61083" lon="9.315975"><ele>517.3333333333334</ele><time>2026-04-06T08:42:04.6Z</time></trkpt><trkpt lat="44.6107983" lon="9.31576"><ele>517.6666666666666</ele><time>2026-04-06T08:42:05.599Z</time></trkpt><trkpt lat="44.610755" lon="9.3155333"><ele>518.0</ele><time>2026-04-06T08:42:06.599Z</time></trkpt><trkpt lat="44.610705" lon="9.3153183"><ele>518.3333333333333</ele><time>2026-04-06T08:42:07.6Z</time></trkpt><trkpt lat="44.6106483" lon="9.3151133"><ele>518.6666666666666</ele><time>2026-04-06T08:42:08.599Z</time></trkpt><trkpt lat="44.6105967" lon="9.314915"><ele>519.0</ele><time>2026-04-06T08:42:09.598Z</time></trkpt><trkpt lat="44.6105517" lon="9.3147167"><ele>521.6666666666666</ele><time>2026-04-06T08:42:10.598Z</time></trkpt><trkpt lat="44.6105217" lon="9.3145117"><ele>524.3333333333333</ele><time>2026-04-06T08:42:11.598Z</time></trkpt><trkpt lat="44.6105083" lon="9.3142933"><ele>527.0</ele><time>2026-04-06T08:42:12.599Z</time></trkpt><trkpt lat="44.6105083" lon="9.3140533"><ele>527.0</ele><time>2026-04-06T08:42:13.599Z</time></trkpt><trkpt lat="44.6105083" lon="9.3138083"><ele>527.0</ele><time>2026-04-06T08:42:14.6Z</time></trkpt><trkpt lat="44.6105" lon="9.3135767"><ele>527.0</ele><time>2026-04-06T08:42:15.598Z</time></trkpt><trkpt lat="44.61048" lon="9.3133517"><ele>527.0</ele><time>2026-04-06T08:42:16.599Z</time></trkpt><trkpt lat="44.6104433" lon="9.3131383"><ele>527.0</ele><time>2026-04-06T08:42:17.599Z</time></trkpt><trkpt lat="44.6103967" lon="9.3129283"><ele>527.0</ele><time>2026-04-06T08:42:18.598Z</time></trkpt><trkpt lat="44.6103417" lon="9.3127183"><ele>521.6666666666666</ele><time>2026-04-06T08:42:19.598Z</time></trkpt><trkpt lat="44.61028" lon="9.3125083"><ele>516.3333333333334</ele><time>2026-04-06T08:42:20.599Z</time></trkpt><trkpt lat="44.61021" lon="9.3123017"><ele>511.0</ele><time>2026-04-06T08:42:21.599Z</time></trkpt><trkpt lat="44.6101483" lon="9.3121117"><ele>511.0</ele><time>2026-04-06T08:42:22.597Z</time></trkpt><trkpt lat="44.6101083" lon="9.3119267"><ele>511.0</ele><time>2026-04-06T08:42:23.598Z</time></trkpt><trkpt lat="44.610105" lon="9.3117367"><ele>511.0</ele><time>2026-04-06T08:42:24.599Z</time></trkpt><trkpt lat="44.61014" lon="9.3115467"><ele>511.0</ele><time>2026-04-06T08:42:25.6Z</time></trkpt><trkpt lat="44.6102133" lon="9.3113667"><ele>510.33333333333337</ele><time>2026-04-06T08:42:26.598Z</time></trkpt><trkpt lat="44.6103167" lon="9.3111883"><ele>509.66666666666663</ele><time>2026-04-06T08:42:27.598Z</time></trkpt><trkpt lat="44.6104233" lon="9.3110217"><ele>509.0</ele><time>2026-04-06T08:42:28.601Z</time></trkpt><trkpt lat="44.6105233" lon="9.3108683"><ele>510.5</ele><time>2026-04-06T08:42:29.599Z</time></trkpt><trkpt lat="44.61062" lon="9.3107183"><ele>512.0</ele><time>2026-04-06T08:42:30.598Z</time></trkpt><trkpt lat="44.6107183" lon="9.3105683"><ele>513.5</ele><time>2026-04-06T08:42:31.599Z</time></trkpt><trkpt lat="44.610815" lon="9.3104233"><ele>515.0</ele><time>2026-04-06T08:42:32.6Z</time></trkpt><trkpt lat="44.6109083" lon="9.3102867"><ele>515.0</ele><time>2026-04-06T08:42:33.599Z</time></trkpt><trkpt lat="44.61099" lon="9.31015"><ele>515.0</ele><time>2026-04-06T08:42:34.599Z</time></trkpt><trkpt lat="44.61106" lon="9.3099983"><ele>515.0</ele><time>2026-04-06T08:42:35.599Z</time></trkpt><trkpt lat="44.6111133" lon="9.3098283"><ele>515.0</ele><time>2026-04-06T08:42:36.599Z</time></trkpt><trkpt lat="44.61115" lon="9.3096433"><ele>522.5</ele><time>2026-04-06T08:42:37.599Z</time></trkpt><trkpt lat="44.6111783" lon="9.3094633"><ele>530.0</ele><time>2026-04-06T08:42:38.599Z</time></trkpt><trkpt lat="44.6112033" lon="9.309295"><ele>537.5</ele><time>2026-04-06T08:42:39.599Z</time></trkpt><trkpt lat="44.6112283" lon="9.3091383"><ele>545.0</ele><time>2026-04-06T08:42:40.599Z</time></trkpt><trkpt lat="44.611245" lon="9.3089933"><ele>541.5</ele><time>2026-04-06T08:42:41.604Z</time></trkpt><trkpt lat="44.6112367" lon="9.30885"><ele>538.0</ele><time>2026-04-06T08:42:42.598Z</time></trkpt><trkpt lat="44.6112033" lon="9.3087117"><ele>534.5</ele><time>2026-04-06T08:42:43.598Z</time></trkpt><trkpt lat="44.6111417" lon="9.3085767"><ele>531.0</ele><time>2026-04-06T08:42:44.6Z</time></trkpt><trkpt lat="44.6110617" lon="9.3084317"><ele>529.0</ele><time>2026-04-06T08:42:45.599Z</time></trkpt><trkpt lat="44.610975" lon="9.308285"><ele>527.0</ele><time>2026-04-06T08:42:46.6Z</time></trkpt><trkpt lat="44.6108917" lon="9.3081483"><ele>525.0</ele><time>2026-04-06T08:42:47.599Z</time></trkpt><trkpt lat="44.61081" lon="9.3080183"><ele>523.0</ele><time>2026-04-06T08:42:48.599Z</time></trkpt><trkpt lat="44.6107317" lon="9.3078883"><ele>523.0</ele><time>2026-04-06T08:42:49.6Z</time></trkpt><trkpt lat="44.6106617" lon="9.307755"><ele>523.0</ele><time>2026-04-06T08:42:50.599Z</time></trkpt><trkpt lat="44.6106117" lon="9.307615"><ele>523.0</ele><time>2026-04-06T08:42:51.598Z</time></trkpt><trkpt lat="44.6105883" lon="9.3074633"><ele>523.0</ele><time>2026-04-06T08:42:52.598Z</time></trkpt><trkpt lat="44.61058" lon="9.307305"><ele>529.5</ele><time>2026-04-06T08:42:53.6Z</time></trkpt><trkpt lat="44.610565" lon="9.3071417"><ele>536.0</ele><time>2026-04-06T08:42:54.599Z</time></trkpt><trkpt lat="44.6105283" lon="9.3069967"><ele>542.5</ele><time>2026-04-06T08:42:55.6Z</time></trkpt><trkpt lat="44.6104467" lon="9.3068733"><ele>549.0</ele><time>2026-04-06T08:42:56.599Z</time></trkpt><trkpt lat="44.6103383" lon="9.3067733"><ele>545.5</ele><time>2026-04-06T08:42:57.598Z</time></trkpt><trkpt lat="44.6102167" lon="9.306705"><ele>542.0</ele><time>2026-04-06T08:42:58.599Z</time></trkpt><trkpt lat="44.6100783" lon="9.3066717"><ele>538.5</ele><time>2026-04-06T08:42:59.598Z</time></trkpt><trkpt lat="44.6099317" lon="9.3066667"><ele>535.0</ele><time>2026-04-06T08:43:00.6Z</time></trkpt><trkpt lat="44.6097783" lon="9.3066883"><ele>535.0</ele><time>2026-04-06T08:43:01.599Z</time></trkpt><trkpt lat="44.60963" lon="9.306715"><ele>535.0</ele><time>2026-04-06T08:43:02.598Z</time></trkpt><trkpt lat="44.6094833" lon="9.3067433"><ele>535.0</ele><time>2026-04-06T08:43:03.598Z</time></trkpt><trkpt lat="44.609335" lon="9.3067883"><ele>535.0</ele><time>2026-04-06T08:43:04.598Z</time></trkpt><trkpt lat="44.6091867" lon="9.306835"><ele>533.75</ele><time>2026-04-06T08:43:05.598Z</time></trkpt><trkpt lat="44.60904" lon="9.3068817"><ele>532.5</ele><time>2026-04-06T08:43:06.6Z</time></trkpt><trkpt lat="44.6088967" lon="9.30693"><ele>531.25</ele><time>2026-04-06T08:43:07.599Z</time></trkpt><trkpt lat="44.6087617" lon="9.3069767"><ele>530.0</ele><time>2026-04-06T08:43:08.598Z</time></trkpt><trkpt lat="44.6086333" lon="9.307015"><ele>529.5</ele><time>2026-04-06T08:43:09.599Z</time></trkpt><trkpt lat="44.6085" lon="9.3070283"><ele>529.0</ele><time>2026-04-06T08:43:10.599Z</time></trkpt><trkpt lat="44.6083583" lon="9.30701"><ele>528.5</ele><time>2026-04-06T08:43:11.6Z</time></trkpt><trkpt lat="44.60821" lon="9.3069833"><ele>528.0</ele><time>2026-04-06T08:43:12.599Z</time></trkpt><trkpt lat="44.60806" lon="9.30696"><ele>528.0</ele><time>2026-04-06T08:43:13.6Z</time></trkpt><trkpt lat="44.6079117" lon="9.30695"><ele>528.0</ele><time>2026-04-06T08:43:14.599Z</time></trkpt><trkpt lat="44.6077767" lon="9.30695"><ele>528.0</ele><time>2026-04-06T08:43:15.597Z</time></trkpt><trkpt lat="44.6076483" lon="9.3069433"><ele>528.0</ele><time>2026-04-06T08:43:16.597Z</time></trkpt><trkpt lat="44.6075233" lon="9.306915"><ele>527.5</ele><time>2026-04-06T08:43:17.601Z</time></trkpt><trkpt lat="44.6074" lon="9.3068517"><ele>527.0</ele><time>2026-04-06T08:43:18.599Z</time></trkpt><trkpt lat="44.607275" lon="9.3067533"><ele>526.5</ele><time>2026-04-06T08:43:19.597Z</time></trkpt><trkpt lat="44.6071533" lon="9.3066367"><ele>526.0</ele><time>2026-04-06T08:43:20.599Z</time></trkpt><trkpt lat="44.60704" lon="9.3065133"><ele>526.25</ele><time>2026-04-06T08:43:21.598Z</time></trkpt><trkpt lat="44.6069433" lon="9.3063783"><ele>526.5</ele><time>2026-04-06T08:43:22.599Z</time></trkpt><trkpt lat="44.60687" lon="9.3062067"><ele>526.75</ele><time>2026-04-06T08:43:23.601Z</time></trkpt><trkpt lat="44.6068217" lon="9.3060067"><ele>527.0</ele><time>2026-04-06T08:43:24.6Z</time></trkpt><trkpt lat="44.6067783" lon="9.3057933"><ele>527.0</ele><time>2026-04-06T08:43:25.6Z</time></trkpt><trkpt lat="44.606745" lon="9.30558"><ele>527.0</ele><time>2026-04-06T08:43:26.598Z</time></trkpt><trkpt lat="44.6067133" lon="9.3053767"><ele>527.0</ele><time>2026-04-06T08:43:27.598Z</time></trkpt><trkpt lat="44.6066917" lon="9.3051717"><ele>527.0</ele><time>2026-04-06T08:43:28.601Z</time></trkpt><trkpt lat="44.6066767" lon="9.3049733"><ele>527.0</ele><time>2026-04-06T08:43:29.599Z</time></trkpt><trkpt lat="44.6066767" lon="9.3047917"><ele>527.0</ele><time>2026-04-06T08:43:30.599Z</time></trkpt><trkpt lat="44.6067017" lon="9.3046167"><ele>527.0</ele><time>2026-04-06T08:43:31.598Z</time></trkpt><trkpt lat="44.6067533" lon="9.3044617"><ele>528.5</ele><time>2026-04-06T08:43:32.6Z</time></trkpt><trkpt lat="44.60684" lon="9.30435"><ele>530.0</ele><time>2026-04-06T08:43:33.599Z</time></trkpt><trkpt lat="44.6069533" lon="9.30429"><ele>531.5</ele><time>2026-04-06T08:43:34.599Z</time></trkpt><trkpt lat="44.6070883" lon="9.304265"><ele>533.0</ele><time>2026-04-06T08:43:35.599Z</time></trkpt><trkpt lat="44.6072417" lon="9.30424"><ele>533.0</ele><time>2026-04-06T08:43:36.6Z</time></trkpt><trkpt lat="44.6073967" lon="9.3041917"><ele>533.0</ele><time>2026-04-06T08:43:37.599Z</time></trkpt><trkpt lat="44.6075383" lon="9.3041167"><ele>533.0</ele><time>2026-04-06T08:43:38.598Z</time></trkpt><trkpt lat="44.60767" lon="9.3040283"><ele>533.0</ele><time>2026-04-06T08:43:39.599Z</time></trkpt><trkpt lat="44.6077933" lon="9.3039267"><ele>533.0</ele><time>2026-04-06T08:43:40.602Z</time></trkpt><trkpt lat="44.6079067" lon="9.303815"><ele>533.0</ele><time>2026-04-06T08:43:41.599Z</time></trkpt><trkpt lat="44.60801" lon="9.3036933"><ele>533.0</ele><time>2026-04-06T08:43:42.6Z</time></trkpt><trkpt lat="44.6081083" lon="9.3035617"><ele>533.25</ele><time>2026-04-06T08:43:43.598Z</time></trkpt><trkpt lat="44.6082" lon="9.303405"><ele>533.5</ele><time>2026-04-06T08:43:44.599Z</time></trkpt><trkpt lat="44.6082867" lon="9.30323"><ele>533.75</ele><time>2026-04-06T08:43:45.598Z</time></trkpt><trkpt lat="44.6083567" lon="9.3030633"><ele>534.0</ele><time>2026-04-06T08:43:46.599Z</time></trkpt><trkpt lat="44.6084167" lon="9.3029033"><ele>533.5</ele><time>2026-04-06T08:43:47.599Z</time></trkpt><trkpt lat="44.60847" lon="9.3027467"><ele>533.0</ele><time>2026-04-06T08:43:48.599Z</time></trkpt><trkpt lat="44.608495" lon="9.3025717"><ele>532.5</ele><time>2026-04-06T08:43:49.599Z</time></trkpt><trkpt lat="44.6084867" lon="9.3023733"><ele>532.0</ele><time>2026-04-06T08:43:50.599Z</time></trkpt><trkpt lat="44.60846" lon="9.3021517"><ele>531.3333333333334</ele><time>2026-04-06T08:43:51.598Z</time></trkpt><trkpt lat="44.6084333" lon="9.3019083"><ele>530.6666666666666</ele><time>2026-04-06T08:43:52.599Z</time></trkpt><trkpt lat="44.6084083" lon="9.3016617"><ele>530.0</ele><time>2026-04-06T08:43:53.599Z</time></trkpt><trkpt lat="44.6083817" lon="9.3014283"><ele>531.0</ele><time>2026-04-06T08:43:54.599Z</time></trkpt><trkpt lat="44.6083583" lon="9.3012017"><ele>532.0</ele><time>2026-04-06T08:43:55.599Z</time></trkpt><trkpt lat="44.6083433" lon="9.3009883"><ele>533.0</ele><time>2026-04-06T08:43:56.599Z</time></trkpt><trkpt lat="44.60834" lon="9.30078"><ele>535.6666666666666</ele><time>2026-04-06T08:43:57.599Z</time></trkpt><trkpt lat="44.60834" lon="9.3005783"><ele>538.3333333333334</ele><time>2026-04-06T08:43:58.599Z</time></trkpt><trkpt lat="44.6083333" lon="9.3003717"><ele>541.0</ele><time>2026-04-06T08:43:59.601Z</time></trkpt><trkpt lat="44.608315" lon="9.30015"><ele>541.0</ele><time>2026-04-06T08:44:00.599Z</time></trkpt><trkpt lat="44.6082883" lon="9.2999033"><ele>541.0</ele><time>2026-04-06T08:44:01.598Z</time></trkpt><trkpt lat="44.60825" lon="9.2996283"><ele>541.0</ele><time>2026-04-06T08:44:02.599Z</time></trkpt><trkpt lat="44.6082067" lon="9.2993533"><ele>543.0</ele><time>2026-04-06T08:44:03.598Z</time></trkpt><trkpt lat="44.6081717" lon="9.2990983"><ele>545.0</ele><time>2026-04-06T08:44:04.6Z</time></trkpt><trkpt lat="44.6081417" lon="9.29887"><ele>547.0</ele><time>2026-04-06T08:44:05.598Z</time></trkpt><trkpt lat="44.608115" lon="9.2986533"><ele>548.5</ele><time>2026-04-06T08:44:06.598Z</time></trkpt><trkpt lat="44.608085" lon="9.298445"><ele>550.0</ele><time>2026-04-06T08:44:07.599Z</time></trkpt><trkpt lat="44.608035" lon="9.2982633"><ele>551.5</ele><time>2026-04-06T08:44:08.599Z</time></trkpt><trkpt lat="44.6079483" lon="9.2981233"><ele>553.0</ele><time>2026-04-06T08:44:09.598Z</time></trkpt><trkpt lat="44.60783" lon="9.2980267"><ele>548.25</ele><time>2026-04-06T08:44:10.598Z</time></trkpt><trkpt lat="44.6076933" lon="9.297955"><ele>543.5</ele><time>2026-04-06T08:44:11.6Z</time></trkpt><trkpt lat="44.6075683" lon="9.29788"><ele>538.75</ele><time>2026-04-06T08:44:12.599Z</time></trkpt><trkpt lat="44.60746" lon="9.2977833"><ele>534.0</ele><time>2026-04-06T08:44:13.597Z</time></trkpt><trkpt lat="44.6073567" lon="9.2976533"><ele>534.0</ele><time>2026-04-06T08:44:14.601Z</time></trkpt><trkpt lat="44.60725" lon="9.2974783"><ele>534.0</ele><time>2026-04-06T08:44:15.599Z</time></trkpt><trkpt lat="44.6071483" lon="9.2972883"><ele>534.0</ele><time>2026-04-06T08:44:16.598Z</time></trkpt><trkpt lat="44.60706" lon="9.2971067"><ele>533.0</ele><time>2026-04-06T08:44:17.597Z</time></trkpt><trkpt lat="44.60698" lon="9.2969433"><ele>532.0</ele><time>2026-04-06T08:44:18.599Z</time></trkpt><trkpt lat="44.606915" lon="9.296775"><ele>531.0</ele><time>2026-04-06T08:44:19.599Z</time></trkpt><trkpt lat="44.60687" lon="9.296595"><ele>530.0</ele><time>2026-04-06T08:44:20.599Z</time></trkpt><trkpt lat="44.6068433" lon="9.2963967"><ele>530.0</ele><time>2026-04-06T08:44:21.598Z</time></trkpt><trkpt lat="44.6068067" lon="9.2962033"><ele>530.0</ele><time>2026-04-06T08:44:22.598Z</time></trkpt><trkpt lat="44.6067483" lon="9.2960333"><ele>530.0</ele><time>2026-04-06T08:44:23.599Z</time></trkpt><trkpt lat="44.6066733" lon="9.295875"><ele>530.0</ele><time>2026-04-06T08:44:24.599Z</time></trkpt><trkpt lat="44.6065917" lon="9.2957017"><ele>529.6666666666666</ele><time>2026-04-06T08:44:25.599Z</time></trkpt><trkpt lat="44.6065033" lon="9.2955183"><ele>529.3333333333334</ele><time>2026-04-06T08:44:26.601Z</time></trkpt><trkpt lat="44.6064017" lon="9.29532"><ele>529.0</ele><time>2026-04-06T08:44:27.599Z</time></trkpt><trkpt lat="44.60629" lon="9.2951017"><ele>529.0</ele><time>2026-04-06T08:44:28.599Z</time></trkpt><trkpt lat="44.606175" lon="9.294865"><ele>529.0</ele><time>2026-04-06T08:44:29.598Z</time></trkpt><trkpt lat="44.606065" lon="9.29463"><ele>529.0</ele><time>2026-04-06T08:44:30.599Z</time></trkpt><trkpt lat="44.6059583" lon="9.2944033"><ele>527.3333333333334</ele><time>2026-04-06T08:44:31.598Z</time></trkpt><trkpt lat="44.605855" lon="9.2941817"><ele>525.6666666666666</ele><time>2026-04-06T08:44:32.599Z</time></trkpt><trkpt lat="44.6057483" lon="9.2939583"><ele>524.0</ele><time>2026-04-06T08:44:33.597Z</time></trkpt><trkpt lat="44.6056433" lon="9.2937433"><ele>524.0</ele><time>2026-04-06T08:44:34.598Z</time></trkpt><trkpt lat="44.60554" lon="9.2935317"><ele>524.0</ele><time>2026-04-06T08:44:35.597Z</time></trkpt><trkpt lat="44.60544" lon="9.2933267"><ele>524.0</ele><time>2026-04-06T08:44:36.6Z</time></trkpt><trkpt lat="44.6053417" lon="9.2931267"><ele>524.3333333333333</ele><time>2026-04-06T08:44:37.599Z</time></trkpt><trkpt lat="44.605245" lon="9.2929317"><ele>524.6666666666666</ele><time>2026-04-06T08:44:38.6Z</time></trkpt><trkpt lat="44.6051467" lon="9.2927333"><ele>525.0</ele><time>2026-04-06T08:44:39.599Z</time></trkpt><trkpt lat="44.6050483" lon="9.2925283"><ele>525.0</ele><time>2026-04-06T08:44:40.598Z</time></trkpt><trkpt lat="44.60495" lon="9.2923283"><ele>525.0</ele><time>2026-04-06T08:44:41.599Z</time></trkpt><trkpt lat="44.6048517" lon="9.2921467"><ele>525.0</ele><time>2026-04-06T08:44:42.599Z</time></trkpt><trkpt lat="44.6047417" lon="9.2919883"><ele>525.0</ele><time>2026-04-06T08:44:43.599Z</time></trkpt><trkpt lat="44.6046067" lon="9.291855"><ele>525.0</ele><time>2026-04-06T08:44:44.599Z</time></trkpt><trkpt lat="44.604445" lon="9.2917433"><ele>525.0</ele><time>2026-04-06T08:44:45.599Z</time></trkpt><trkpt lat="44.6042617" lon="9.2916417"><ele>525.0</ele><time>2026-04-06T08:44:46.598Z</time></trkpt><trkpt lat="44.6040633" lon="9.29154"><ele>525.0</ele><time>2026-04-06T08:44:47.598Z</time></trkpt><trkpt lat="44.603855" lon="9.2914317"><ele>525.0</ele><time>2026-04-06T08:44:48.599Z</time></trkpt><trkpt lat="44.6036383" lon="9.29132"><ele>523.5</ele><time>2026-04-06T08:44:49.598Z</time></trkpt><trkpt lat="44.6034217" lon="9.29121"><ele>522.0</ele><time>2026-04-06T08:44:50.6Z</time></trkpt><trkpt lat="44.6032083" lon="9.2911033"><ele>522.0</ele><time>2026-04-06T08:44:51.598Z</time></trkpt><trkpt lat="44.6029967" lon="9.2909983"><ele>522.0</ele><time>2026-04-06T08:44:52.599Z</time></trkpt><trkpt lat="44.6027867" lon="9.2908933"><ele>522.0</ele><time>2026-04-06T08:44:53.598Z</time></trkpt><trkpt lat="44.60258" lon="9.2907867"><ele>521.3333333333334</ele><time>2026-04-06T08:44:54.599Z</time></trkpt><trkpt lat="44.6023733" lon="9.29068"><ele>520.6666666666667</ele><time>2026-04-06T08:44:55.598Z</time></trkpt><trkpt lat="44.6021617" lon="9.2905767"><ele>520.0</ele><time>2026-04-06T08:44:56.6Z</time></trkpt><trkpt lat="44.6019567" lon="9.290475"><ele>523.6666666666667</ele><time>2026-04-06T08:44:57.598Z</time></trkpt><trkpt lat="44.601765" lon="9.290385"><ele>527.3333333333334</ele><time>2026-04-06T08:44:58.599Z</time></trkpt><trkpt lat="44.6015767" lon="9.290315"><ele>531.0</ele><time>2026-04-06T08:44:59.599Z</time></trkpt><trkpt lat="44.6013817" lon="9.2902833"><ele>531.0</ele><time>2026-04-06T08:45:00.6Z</time></trkpt><trkpt lat="44.601175" lon="9.290305"><ele>531.0</ele><time>2026-04-06T08:45:01.599Z</time></trkpt><trkpt lat="44.6009617" lon="9.29037"><ele>531.0</ele><time>2026-04-06T08:45:02.599Z</time></trkpt><trkpt lat="44.6007617" lon="9.2904517"><ele>531.0</ele><time>2026-04-06T08:45:03.599Z</time></trkpt><trkpt lat="44.6005833" lon="9.290545"><ele>531.0</ele><time>2026-04-06T08:45:04.599Z</time></trkpt><trkpt lat="44.600425" lon="9.290665"><ele>531.0</ele><time>2026-04-06T08:45:05.599Z</time></trkpt><trkpt lat="44.6002883" lon="9.2908333"><ele>531.3333333333334</ele><time>2026-04-06T08:45:06.598Z</time></trkpt><trkpt lat="44.6001617" lon="9.2910483"><ele>531.6666666666667</ele><time>2026-04-06T08:45:07.604Z</time></trkpt><trkpt lat="44.6000333" lon="9.2912983"><ele>532.0</ele><time>2026-04-06T08:45:08.6Z</time></trkpt><trkpt lat="44.5999083" lon="9.2915633"><ele>536.0</ele><time>2026-04-06T08:45:09.6Z</time></trkpt><trkpt lat="44.5997983" lon="9.2918283"><ele>540.0</ele><time>2026-04-06T08:45:10.598Z</time></trkpt><trkpt lat="44.599705" lon="9.2920783"><ele>544.0</ele><time>2026-04-06T08:45:11.598Z</time></trkpt><trkpt lat="44.599625" lon="9.2923117"><ele>541.0</ele><time>2026-04-06T08:45:12.599Z</time></trkpt><trkpt lat="44.5995417" lon="9.2925167"><ele>538.0</ele><time>2026-04-06T08:45:13.599Z</time></trkpt><trkpt lat="44.5994467" lon="9.2926933"><ele>535.0</ele><time>2026-04-06T08:45:14.599Z</time></trkpt><trkpt lat="44.599325" lon="9.2928383"><ele>535.0</ele><time>2026-04-06T08:45:15.599Z</time></trkpt><trkpt lat="44.59916" lon="9.29296"><ele>535.0</ele><time>2026-04-06T08:45:16.599Z</time></trkpt><trkpt lat="44.59896" lon="9.2930767"><ele>535.0</ele><time>2026-04-06T08:45:17.598Z</time></trkpt><trkpt lat="44.59874" lon="9.2931967"><ele>540.5</ele><time>2026-04-06T08:45:18.599Z</time></trkpt><trkpt lat="44.5985217" lon="9.2933133"><ele>546.0</ele><time>2026-04-06T08:45:19.599Z</time></trkpt><trkpt lat="44.5983217" lon="9.2934283"><ele>546.0</ele><time>2026-04-06T08:45:20.6Z</time></trkpt><trkpt lat="44.598135" lon="9.2935267"><ele>546.0</ele><time>2026-04-06T08:45:21.599Z</time></trkpt><trkpt lat="44.597955" lon="9.2935967"><ele>546.0</ele><time>2026-04-06T08:45:22.598Z</time></trkpt><trkpt lat="44.5977833" lon="9.293625"><ele>545.3333333333334</ele><time>2026-04-06T08:45:23.599Z</time></trkpt><trkpt lat="44.5976183" lon="9.293605"><ele>544.6666666666667</ele><time>2026-04-06T08:45:24.6Z</time></trkpt><trkpt lat="44.597445" lon="9.2935217"><ele>544.0</ele><time>2026-04-06T08:45:25.599Z</time></trkpt><trkpt lat="44.5972583" lon="9.2934083"><ele>544.0</ele><time>2026-04-06T08:45:26.599Z</time></trkpt><trkpt lat="44.5970483" lon="9.2932867"><ele>544.0</ele><time>2026-04-06T08:45:27.599Z</time></trkpt><trkpt lat="44.5968267" lon="9.2931817"><ele>547.5</ele><time>2026-04-06T08:45:28.601Z</time></trkpt><trkpt lat="44.596595" lon="9.29309"><ele>551.0</ele><time>2026-04-06T08:45:29.599Z</time></trkpt><trkpt lat="44.59636" lon="9.29301"><ele>543.5</ele><time>2026-04-06T08:45:30.599Z</time></trkpt><trkpt lat="44.5961233" lon="9.2929367"><ele>536.0</ele><time>2026-04-06T08:45:31.599Z</time></trkpt><trkpt lat="44.595895" lon="9.29287"><ele>536.0</ele><time>2026-04-06T08:45:32.601Z</time></trkpt><trkpt lat="44.595685" lon="9.2928067"><ele>536.0</ele><time>2026-04-06T08:45:33.599Z</time></trkpt><trkpt lat="44.59549" lon="9.2927467"><ele>536.0</ele><time>2026-04-06T08:45:34.599Z</time></trkpt><trkpt lat="44.5953117" lon="9.2926917"><ele>542.3333333333333</ele><time>2026-04-06T08:45:35.599Z</time></trkpt><trkpt lat="44.5951583" lon="9.2926183"><ele>548.6666666666666</ele><time>2026-04-06T08:45:36.599Z</time></trkpt><trkpt lat="44.5950333" lon="9.292505"><ele>555.0</ele><time>2026-04-06T08:45:37.6Z</time></trkpt><trkpt lat="44.5949133" lon="9.292395"><ele>555.0</ele><time>2026-04-06T08:45:38.6Z</time></trkpt><trkpt lat="44.5947667" lon="9.2923283"><ele>555.0</ele><time>2026-04-06T08:45:39.599Z</time></trkpt><trkpt lat="44.5946067" lon="9.29228"><ele>555.0</ele><time>2026-04-06T08:45:40.6Z</time></trkpt><trkpt lat="44.59445" lon="9.2922017"><ele>554.6666666666666</ele><time>2026-04-06T08:45:41.601Z</time></trkpt><trkpt lat="44.5943083" lon="9.2920833"><ele>554.3333333333333</ele><time>2026-04-06T08:45:42.599Z</time></trkpt><trkpt lat="44.5941867" lon="9.2919283"><ele>554.0</ele><time>2026-04-06T08:45:43.6Z</time></trkpt><trkpt lat="44.5940917" lon="9.2917233"><ele>554.0</ele><time>2026-04-06T08:45:44.599Z</time></trkpt><trkpt lat="44.594015" lon="9.29147"><ele>554.0</ele><time>2026-04-06T08:45:45.6Z</time></trkpt><trkpt lat="44.59394" lon="9.291185"><ele>554.0</ele><time>2026-04-06T08:45:46.6Z</time></trkpt><trkpt lat="44.593855" lon="9.2908917"><ele>558.5</ele><time>2026-04-06T08:45:47.601Z</time></trkpt><trkpt lat="44.593745" lon="9.2906133"><ele>563.0</ele><time>2026-04-06T08:45:48.6Z</time></trkpt><trkpt lat="44.5936167" lon="9.290345"><ele>563.0</ele><time>2026-04-06T08:45:49.6Z</time></trkpt><trkpt lat="44.59349" lon="9.2900817"><ele>563.0</ele><time>2026-04-06T08:45:50.601Z</time></trkpt><trkpt lat="44.5933617" lon="9.2898317"><ele>563.0</ele><time>2026-04-06T08:45:51.599Z</time></trkpt><trkpt lat="44.59324" lon="9.2895933"><ele>557.6666666666666</ele><time>2026-04-06T08:45:52.599Z</time></trkpt><trkpt lat="44.59313" lon="9.2893683"><ele>552.3333333333334</ele><time>2026-04-06T08:45:53.599Z</time></trkpt><trkpt lat="44.5930267" lon="9.28916"><ele>547.0</ele><time>2026-04-06T08:45:54.599Z</time></trkpt><trkpt lat="44.5929267" lon="9.2889683"><ele>545.6666666666667</ele><time>2026-04-06T08:45:55.599Z</time></trkpt><trkpt lat="44.5928117" lon="9.2888083"><ele>544.3333333333334</ele><time>2026-04-06T08:45:56.6Z</time></trkpt><trkpt lat="44.5926867" lon="9.2886767"><ele>543.0</ele><time>2026-04-06T08:45:57.599Z</time></trkpt><trkpt lat="44.592545" lon="9.2886117"><ele>543.0</ele><time>2026-04-06T08:45:58.6Z</time></trkpt><trkpt lat="44.592385" lon="9.2886167"><ele>543.0</ele><time>2026-04-06T08:45:59.599Z</time></trkpt><trkpt lat="44.592215" lon="9.2886683"><ele>543.0</ele><time>2026-04-06T08:46:00.6Z</time></trkpt><trkpt lat="44.5920517" lon="9.2887283"><ele>545.3333333333334</ele><time>2026-04-06T08:46:01.598Z</time></trkpt><trkpt lat="44.5918967" lon="9.2887617"><ele>547.6666666666667</ele><time>2026-04-06T08:46:02.599Z</time></trkpt><trkpt lat="44.591735" lon="9.288735"><ele>550.0</ele><time>2026-04-06T08:46:03.598Z</time></trkpt><trkpt lat="44.5915533" lon="9.2886533"><ele>550.0</ele><time>2026-04-06T08:46:04.599Z</time></trkpt><trkpt lat="44.5913767" lon="9.2885533"><ele>550.0</ele><time>2026-04-06T08:46:05.599Z</time></trkpt><trkpt lat="44.5912133" lon="9.2884467"><ele>550.0</ele><time>2026-04-06T08:46:06.599Z</time></trkpt><trkpt lat="44.5910667" lon="9.288325"><ele>551.0</ele><time>2026-04-06T08:46:07.599Z</time></trkpt><trkpt lat="44.5909483" lon="9.2881633"><ele>552.0</ele><time>2026-04-06T08:46:08.601Z</time></trkpt><trkpt lat="44.5908617" lon="9.2879617"><ele>553.0</ele><time>2026-04-06T08:46:09.598Z</time></trkpt><trkpt lat="44.5907917" lon="9.287735"><ele>553.0</ele><time>2026-04-06T08:46:10.6Z</time></trkpt><trkpt lat="44.5907233" lon="9.2874917"><ele>553.0</ele><time>2026-04-06T08:46:11.598Z</time></trkpt><trkpt lat="44.59065" lon="9.287235"><ele>553.0</ele><time>2026-04-06T08:46:12.599Z</time></trkpt><trkpt lat="44.59057" lon="9.2869717"><ele>551.0</ele><time>2026-04-06T08:46:13.599Z</time></trkpt><trkpt lat="44.5904883" lon="9.286715"><ele>549.0</ele><time>2026-04-06T08:46:14.599Z</time></trkpt><trkpt lat="44.59041" lon="9.2864717"><ele>547.0</ele><time>2026-04-06T08:46:15.599Z</time></trkpt><trkpt lat="44.59033" lon="9.2862383"><ele>551.0</ele><time>2026-04-06T08:46:16.6Z</time></trkpt><trkpt lat="44.5902367" lon="9.286025"><ele>555.0</ele><time>2026-04-06T08:46:17.599Z</time></trkpt><trkpt lat="44.5901267" lon="9.28584"><ele>559.0</ele><time>2026-04-06T08:46:18.598Z</time></trkpt><trkpt lat="44.58999" lon="9.2856883"><ele>555.0</ele><time>2026-04-06T08:46:19.599Z</time></trkpt><trkpt lat="44.5898567" lon="9.2855433"><ele>551.0</ele><time>2026-04-06T08:46:20.598Z</time></trkpt><trkpt lat="44.5897333" lon="9.28538"><ele>547.0</ele><time>2026-04-06T08:46:21.6Z</time></trkpt><trkpt lat="44.5896317" lon="9.28518"><ele>547.0</ele><time>2026-04-06T08:46:22.599Z</time></trkpt><trkpt lat="44.5895333" lon="9.2849517"><ele>547.0</ele><time>2026-04-06T08:46:23.598Z</time></trkpt><trkpt lat="44.589445" lon="9.2847067"><ele>547.0</ele><time>2026-04-06T08:46:24.598Z</time></trkpt><trkpt lat="44.58936" lon="9.284475"><ele>554.0</ele><time>2026-04-06T08:46:25.599Z</time></trkpt><trkpt lat="44.5892933" lon="9.2842667"><ele>561.0</ele><time>2026-04-06T08:46:26.601Z</time></trkpt><trkpt lat="44.5892533" lon="9.2840683"><ele>568.0</ele><time>2026-04-06T08:46:27.598Z</time></trkpt><trkpt lat="44.5892467" lon="9.2838583"><ele>568.0</ele><time>2026-04-06T08:46:28.6Z</time></trkpt><trkpt lat="44.5892617" lon="9.2836233"><ele>568.0</ele><time>2026-04-06T08:46:29.6Z</time></trkpt><trkpt lat="44.5892633" lon="9.2833683"><ele>568.0</ele><time>2026-04-06T08:46:30.6Z</time></trkpt><trkpt lat="44.5892367" lon="9.2831183"><ele>565.3333333333334</ele><time>2026-04-06T08:46:31.599Z</time></trkpt><trkpt lat="44.5891917" lon="9.2828817"><ele>562.6666666666666</ele><time>2026-04-06T08:46:32.6Z</time></trkpt><trkpt lat="44.5891367" lon="9.2826717"><ele>560.0</ele><time>2026-04-06T08:46:33.599Z</time></trkpt><trkpt lat="44.58908" lon="9.2824783"><ele>560.0</ele><time>2026-04-06T08:46:34.6Z</time></trkpt><trkpt lat="44.5890283" lon="9.2823217"><ele>560.0</ele><time>2026-04-06T08:46:35.599Z</time></trkpt><trkpt lat="44.588985" lon="9.2822033"><ele>560.0</ele><time>2026-04-06T08:46:36.599Z</time></trkpt><trkpt lat="44.5889433" lon="9.28211"><ele>560.0</ele><time>2026-04-06T08:46:37.599Z</time></trkpt><trkpt lat="44.58888" lon="9.281985"><ele>560.0</ele><time>2026-04-06T08:46:39.599Z</time></trkpt><trkpt lat="44.5888317" lon="9.28191"><ele>560.0</ele><time>2026-04-06T08:46:41.599Z</time></trkpt><trkpt lat="44.5887433" lon="9.2818183"><ele>560.0</ele><time>2026-04-06T08:47:28.6Z</time></trkpt><trkpt lat="44.5886167" lon="9.28177"><ele>560.0</ele><time>2026-04-06T08:47:30.6Z</time></trkpt><trkpt lat="44.5885267" lon="9.28176"><ele>560.0</ele><time>2026-04-06T08:47:31.6Z</time></trkpt><trkpt lat="44.5884183" lon="9.281785"><ele>560.0</ele><time>2026-04-06T08:47:32.6Z</time></trkpt><trkpt lat="44.588305" lon="9.2818433"><ele>560.0</ele><time>2026-04-06T08:47:33.598Z</time></trkpt><trkpt lat="44.5881867" lon="9.2819183"><ele>560.0</ele><time>2026-04-06T08:47:34.599Z</time></trkpt><trkpt lat="44.5880733" lon="9.28199"><ele>560.0</ele><time>2026-04-06T08:47:35.599Z</time></trkpt><trkpt lat="44.5879667" lon="9.282045"><ele>560.0</ele><time>2026-04-06T08:47:36.6Z</time></trkpt><trkpt lat="44.58786" lon="9.282075"><ele>560.0</ele><time>2026-04-06T08:47:37.6Z</time></trkpt><trkpt lat="44.5877483" lon="9.2820733"><ele>560.0</ele><time>2026-04-06T08:47:38.6Z</time></trkpt><trkpt lat="44.5876333" lon="9.28203"><ele>560.0</ele><time>2026-04-06T08:47:39.599Z</time></trkpt><trkpt lat="44.5875067" lon="9.2819433"><ele>560.0</ele><time>2026-04-06T08:47:40.599Z</time></trkpt><trkpt lat="44.5873717" lon="9.2818267"><ele>560.0</ele><time>2026-04-06T08:47:41.599Z</time></trkpt><trkpt lat="44.5872433" lon="9.281705"><ele>560.0</ele><time>2026-04-06T08:47:42.599Z</time></trkpt><trkpt lat="44.587125" lon="9.2815733"><ele>560.0</ele><time>2026-04-06T08:47:43.598Z</time></trkpt><trkpt lat="44.5870117" lon="9.2814367"><ele>560.5</ele><time>2026-04-06T08:47:44.6Z</time></trkpt><trkpt lat="44.58691" lon="9.2812983"><ele>561.0</ele><time>2026-04-06T08:47:45.601Z</time></trkpt><trkpt lat="44.5868183" lon="9.2811517"><ele>561.5</ele><time>2026-04-06T08:47:46.6Z</time></trkpt><trkpt lat="44.5867367" lon="9.28098"><ele>562.0</ele><time>2026-04-06T08:47:47.599Z</time></trkpt><trkpt lat="44.5866567" lon="9.2807917"><ele>558.3333333333334</ele><time>2026-04-06T08:47:48.6Z</time></trkpt><trkpt lat="44.586575" lon="9.2805867"><ele>554.6666666666666</ele><time>2026-04-06T08:47:49.598Z</time></trkpt><trkpt lat="44.5864967" lon="9.28037"><ele>551.0</ele><time>2026-04-06T08:47:50.6Z</time></trkpt><trkpt lat="44.5864133" lon="9.2801433"><ele>551.0</ele><time>2026-04-06T08:47:51.6Z</time></trkpt><trkpt lat="44.586335" lon="9.2799067"><ele>551.0</ele><time>2026-04-06T08:47:52.599Z</time></trkpt><trkpt lat="44.5862617" lon="9.2796617"><ele>551.0</ele><time>2026-04-06T08:47:53.599Z</time></trkpt><trkpt lat="44.5861917" lon="9.2794133"><ele>555.3333333333333</ele><time>2026-04-06T08:47:54.599Z</time></trkpt><trkpt lat="44.5861217" lon="9.2791633"><ele>559.6666666666666</ele><time>2026-04-06T08:47:55.598Z</time></trkpt><trkpt lat="44.5860567" lon="9.278915"><ele>564.0</ele><time>2026-04-06T08:47:56.599Z</time></trkpt><trkpt lat="44.5859817" lon="9.278675"><ele>564.0</ele><time>2026-04-06T08:47:57.599Z</time></trkpt><trkpt lat="44.58589" lon="9.2784483"><ele>564.0</ele><time>2026-04-06T08:47:58.598Z</time></trkpt><trkpt lat="44.5857883" lon="9.27823"><ele>564.0</ele><time>2026-04-06T08:47:59.599Z</time></trkpt><trkpt lat="44.5856833" lon="9.2780183"><ele>562.0</ele><time>2026-04-06T08:48:00.598Z</time></trkpt><trkpt lat="44.5855833" lon="9.27782"><ele>560.0</ele><time>2026-04-06T08:48:01.599Z</time></trkpt><trkpt lat="44.5854917" lon="9.2776333"><ele>558.0</ele><time>2026-04-06T08:48:02.604Z</time></trkpt><trkpt lat="44.58541" lon="9.2774467"><ele>563.0</ele><time>2026-04-06T08:48:03.599Z</time></trkpt><trkpt lat="44.58534" lon="9.2772467"><ele>568.0</ele><time>2026-04-06T08:48:04.599Z</time></trkpt><trkpt lat="44.5852983" lon="9.2770167"><ele>573.0</ele><time>2026-04-06T08:48:05.6Z</time></trkpt><trkpt lat="44.58528" lon="9.2767617"><ele>573.0</ele><time>2026-04-06T08:48:06.599Z</time></trkpt><trkpt lat="44.58527" lon="9.2764933"><ele>573.0</ele><time>2026-04-06T08:48:07.599Z</time></trkpt><trkpt lat="44.5852617" lon="9.2762333"><ele>573.0</ele><time>2026-04-06T08:48:08.6Z</time></trkpt><trkpt lat="44.5852433" lon="9.2759867"><ele>574.0</ele><time>2026-04-06T08:48:09.6Z</time></trkpt><trkpt lat="44.5852067" lon="9.2757417"><ele>575.0</ele><time>2026-04-06T08:48:10.599Z</time></trkpt><trkpt lat="44.5851417" lon="9.275495"><ele>576.0</ele><time>2026-04-06T08:48:11.599Z</time></trkpt><trkpt lat="44.5850617" lon="9.2752417"><ele>573.3333333333334</ele><time>2026-04-06T08:48:12.599Z</time></trkpt><trkpt lat="44.584975" lon="9.27498"><ele>570.6666666666667</ele><time>2026-04-06T08:48:13.599Z</time></trkpt><trkpt lat="44.5848833" lon="9.2747167"><ele>568.0</ele><time>2026-04-06T08:48:14.6Z</time></trkpt><trkpt lat="44.5847983" lon="9.274455"><ele>566.6666666666667</ele><time>2026-04-06T08:48:15.599Z</time></trkpt><trkpt lat="44.584705" lon="9.2741883"><ele>565.3333333333334</ele><time>2026-04-06T08:48:16.598Z</time></trkpt><trkpt lat="44.5845983" lon="9.273925"><ele>564.0</ele><time>2026-04-06T08:48:17.601Z</time></trkpt><trkpt lat="44.5844817" lon="9.2736683"><ele>565.6666666666666</ele><time>2026-04-06T08:48:18.599Z</time></trkpt><trkpt lat="44.584355" lon="9.2734167"><ele>567.3333333333333</ele><time>2026-04-06T08:48:19.601Z</time></trkpt><trkpt lat="44.58422" lon="9.2731733"><ele>569.0</ele><time>2026-04-06T08:48:20.602Z</time></trkpt><trkpt lat="44.584085" lon="9.272935"><ele>569.0</ele><time>2026-04-06T08:48:21.601Z</time></trkpt><trkpt lat="44.5839533" lon="9.272705"><ele>569.0</ele><time>2026-04-06T08:48:22.6Z</time></trkpt><trkpt lat="44.5838267" lon="9.272485"><ele>569.0</ele><time>2026-04-06T08:48:23.6Z</time></trkpt><trkpt lat="44.5837" lon="9.2722733"><ele>570.0</ele><time>2026-04-06T08:48:24.599Z</time></trkpt><trkpt lat="44.583565" lon="9.2720717"><ele>571.0</ele><time>2026-04-06T08:48:25.599Z</time></trkpt><trkpt lat="44.5834117" lon="9.2718833"><ele>572.0</ele><time>2026-04-06T08:48:26.601Z</time></trkpt><trkpt lat="44.5832333" lon="9.2717067"><ele>572.0</ele><time>2026-04-06T08:48:27.601Z</time></trkpt><trkpt lat="44.583035" lon="9.27154"><ele>572.0</ele><time>2026-04-06T08:48:28.6Z</time></trkpt><trkpt lat="44.5828217" lon="9.27138"><ele>570.0</ele><time>2026-04-06T08:48:29.6Z</time></trkpt><trkpt lat="44.582605" lon="9.2712183"><ele>568.0</ele><time>2026-04-06T08:48:30.6Z</time></trkpt><trkpt lat="44.582385" lon="9.27106"><ele>568.0</ele><time>2026-04-06T08:48:31.599Z</time></trkpt><trkpt lat="44.5821683" lon="9.270905"><ele>568.0</ele><time>2026-04-06T08:48:32.599Z</time></trkpt><trkpt lat="44.581955" lon="9.2707533"><ele>567.5</ele><time>2026-04-06T08:48:33.599Z</time></trkpt><trkpt lat="44.5817467" lon="9.27061"><ele>567.0</ele><time>2026-04-06T08:48:34.6Z</time></trkpt><trkpt lat="44.5815433" lon="9.2704733"><ele>567.0</ele><time>2026-04-06T08:48:35.599Z</time></trkpt><trkpt lat="44.58134" lon="9.27035"><ele>567.0</ele><time>2026-04-06T08:48:36.6Z</time></trkpt><trkpt lat="44.5811267" lon="9.27025"><ele>567.0</ele><time>2026-04-06T08:48:37.599Z</time></trkpt><trkpt lat="44.5808967" lon="9.27018"><ele>570.0</ele><time>2026-04-06T08:48:38.6Z</time></trkpt><trkpt lat="44.5806517" lon="9.2701317"><ele>573.0</ele><time>2026-04-06T08:48:39.599Z</time></trkpt><trkpt lat="44.5804033" lon="9.2700933"><ele>574.5</ele><time>2026-04-06T08:48:40.599Z</time></trkpt><trkpt lat="44.5801567" lon="9.2700633"><ele>576.0</ele><time>2026-04-06T08:48:41.599Z</time></trkpt><trkpt lat="44.5799167" lon="9.2700333"><ele>576.0</ele><time>2026-04-06T08:48:42.599Z</time></trkpt><trkpt lat="44.5796917" lon="9.2700017"><ele>576.0</ele><time>2026-04-06T08:48:43.599Z</time></trkpt><trkpt lat="44.5794783" lon="9.2699733"><ele>576.0</ele><time>2026-04-06T08:48:44.6Z</time></trkpt><trkpt lat="44.5792733" lon="9.2699517"><ele>576.0</ele><time>2026-04-06T08:48:45.598Z</time></trkpt><trkpt lat="44.5790717" lon="9.2699433"><ele>576.0</ele><time>2026-04-06T08:48:46.6Z</time></trkpt><trkpt lat="44.5788667" lon="9.2699633"><ele>576.0</ele><time>2026-04-06T08:48:47.603Z</time></trkpt><trkpt lat="44.5786517" lon="9.2700133"><ele>575.6666666666666</ele><time>2026-04-06T08:48:48.602Z</time></trkpt><trkpt lat="44.578435" lon="9.270075"><ele>575.3333333333333</ele><time>2026-04-06T08:48:49.601Z</time></trkpt><trkpt lat="44.5782217" lon="9.2701417"><ele>575.0</ele><time>2026-04-06T08:48:50.601Z</time></trkpt><trkpt lat="44.578015" lon="9.2702017"><ele>575.0</ele><time>2026-04-06T08:48:51.602Z</time></trkpt><trkpt lat="44.5778117" lon="9.27024"><ele>575.0</ele><time>2026-04-06T08:48:52.601Z</time></trkpt><trkpt lat="44.5776083" lon="9.2702483"><ele>575.0</ele><time>2026-04-06T08:48:53.601Z</time></trkpt><trkpt lat="44.5774133" lon="9.270235"><ele>575.0</ele><time>2026-04-06T08:48:54.599Z</time></trkpt><trkpt lat="44.577235" lon="9.2702117"><ele>575.0</ele><time>2026-04-06T08:48:55.599Z</time></trkpt><trkpt lat="44.57707" lon="9.27019"><ele>575.0</ele><time>2026-04-06T08:48:56.598Z</time></trkpt><trkpt lat="44.576915" lon="9.2701783"><ele>575.6666666666666</ele><time>2026-04-06T08:48:57.599Z</time></trkpt><trkpt lat="44.5767617" lon="9.2701967"><ele>576.3333333333334</ele><time>2026-04-06T08:48:58.599Z</time></trkpt><trkpt lat="44.5766083" lon="9.2702383"><ele>577.0</ele><time>2026-04-06T08:48:59.6Z</time></trkpt><trkpt lat="44.5764567" lon="9.270285"><ele>577.0</ele><time>2026-04-06T08:49:00.599Z</time></trkpt><trkpt lat="44.5763117" lon="9.270335"><ele>577.0</ele><time>2026-04-06T08:49:01.6Z</time></trkpt><trkpt lat="44.5761717" lon="9.27038"><ele>577.0</ele><time>2026-04-06T08:49:02.599Z</time></trkpt><trkpt lat="44.5760367" lon="9.2704267"><ele>577.0</ele><time>2026-04-06T08:49:03.599Z</time></trkpt><trkpt lat="44.5759067" lon="9.2704617"><ele>577.5</ele><time>2026-04-06T08:49:04.599Z</time></trkpt><trkpt lat="44.575785" lon="9.27049"><ele>578.0</ele><time>2026-04-06T08:49:05.601Z</time></trkpt><trkpt lat="44.5756733" lon="9.2705267"><ele>578.5</ele><time>2026-04-06T08:49:06.6Z</time></trkpt><trkpt lat="44.575565" lon="9.2705883"><ele>579.0</ele><time>2026-04-06T08:49:07.6Z</time></trkpt><trkpt lat="44.5754433" lon="9.2706867"><ele>579.6666666666666</ele><time>2026-04-06T08:49:08.602Z</time></trkpt><trkpt lat="44.5753217" lon="9.2708283"><ele>580.3333333333333</ele><time>2026-04-06T08:49:09.599Z</time></trkpt><trkpt lat="44.5752117" lon="9.2709917"><ele>581.0</ele><time>2026-04-06T08:49:10.6Z</time></trkpt><trkpt lat="44.5751117" lon="9.27116"><ele>581.0</ele><time>2026-04-06T08:49:11.599Z</time></trkpt><trkpt lat="44.57502" lon="9.2713233"><ele>581.0</ele><time>2026-04-06T08:49:12.6Z</time></trkpt><trkpt lat="44.5749333" lon="9.2714867"><ele>581.0</ele><time>2026-04-06T08:49:13.599Z</time></trkpt><trkpt lat="44.5748517" lon="9.2716583"><ele>581.0</ele><time>2026-04-06T08:49:14.599Z</time></trkpt><trkpt lat="44.5747717" lon="9.27185"><ele>583.0</ele><time>2026-04-06T08:49:15.6Z</time></trkpt><trkpt lat="44.5746983" lon="9.272055"><ele>585.0</ele><time>2026-04-06T08:49:16.599Z</time></trkpt><trkpt lat="44.5746317" lon="9.27228"><ele>587.0</ele><time>2026-04-06T08:49:17.599Z</time></trkpt><trkpt lat="44.5745633" lon="9.2725083"><ele>587.0</ele><time>2026-04-06T08:49:18.599Z</time></trkpt><trkpt lat="44.5744967" lon="9.272725"><ele>587.0</ele><time>2026-04-06T08:49:19.6Z</time></trkpt><trkpt lat="44.5744117" lon="9.27293"><ele>587.0</ele><time>2026-04-06T08:49:20.601Z</time></trkpt><trkpt lat="44.5743033" lon="9.27312"><ele>587.0</ele><time>2026-04-06T08:49:21.599Z</time></trkpt><trkpt lat="44.5741667" lon="9.2733033"><ele>587.0</ele><time>2026-04-06T08:49:22.6Z</time></trkpt><trkpt lat="44.5740117" lon="9.2734933"><ele>587.0</ele><time>2026-04-06T08:49:23.599Z</time></trkpt><trkpt lat="44.5738517" lon="9.2736867"><ele>586.3333333333333</ele><time>2026-04-06T08:49:24.6Z</time></trkpt><trkpt lat="44.5736867" lon="9.273885"><ele>585.6666666666666</ele><time>2026-04-06T08:49:25.599Z</time></trkpt><trkpt lat="44.5735217" lon="9.2740817"><ele>585.0</ele><time>2026-04-06T08:49:26.598Z</time></trkpt><trkpt lat="44.5733567" lon="9.2742783"><ele>585.0</ele><time>2026-04-06T08:49:27.597Z</time></trkpt><trkpt lat="44.57319" lon="9.2744633"><ele>585.0</ele><time>2026-04-06T08:49:28.599Z</time></trkpt><trkpt lat="44.5730167" lon="9.27464"><ele>585.0</ele><time>2026-04-06T08:49:29.598Z</time></trkpt><trkpt lat="44.5728317" lon="9.2748067"><ele>585.6666666666666</ele><time>2026-04-06T08:49:30.599Z</time></trkpt><trkpt lat="44.5726417" lon="9.2749633"><ele>586.3333333333333</ele><time>2026-04-06T08:49:31.599Z</time></trkpt><trkpt lat="44.5724567" lon="9.2751083"><ele>587.0</ele><time>2026-04-06T08:49:32.599Z</time></trkpt><trkpt lat="44.572275" lon="9.27524"><ele>587.0</ele><time>2026-04-06T08:49:33.601Z</time></trkpt><trkpt lat="44.572095" lon="9.2753617"><ele>587.0</ele><time>2026-04-06T08:49:34.6Z</time></trkpt><trkpt lat="44.57192" lon="9.2754867"><ele>587.0</ele><time>2026-04-06T08:49:35.601Z</time></trkpt><trkpt lat="44.571755" lon="9.2756283"><ele>587.6666666666666</ele><time>2026-04-06T08:49:36.599Z</time></trkpt><trkpt lat="44.5716033" lon="9.2757767"><ele>588.3333333333334</ele><time>2026-04-06T08:49:37.598Z</time></trkpt><trkpt lat="44.5714683" lon="9.2759233"><ele>589.0</ele><time>2026-04-06T08:49:38.6Z</time></trkpt><trkpt lat="44.5713433" lon="9.276045"><ele>589.0</ele><time>2026-04-06T08:49:39.601Z</time></trkpt><trkpt lat="44.57123" lon="9.276125"><ele>589.0</ele><time>2026-04-06T08:49:40.598Z</time></trkpt><trkpt lat="44.5711083" lon="9.27615"><ele>589.0</ele><time>2026-04-06T08:49:41.599Z</time></trkpt><trkpt lat="44.570975" lon="9.2761017"><ele>589.0</ele><time>2026-04-06T08:49:42.599Z</time></trkpt><trkpt lat="44.570825" lon="9.2760017"><ele>589.0</ele><time>2026-04-06T08:49:43.599Z</time></trkpt><trkpt lat="44.5706633" lon="9.2758883"><ele>589.0</ele><time>2026-04-06T08:49:44.598Z</time></trkpt><trkpt lat="44.5704867" lon="9.2758017"><ele>589.0</ele><time>2026-04-06T08:49:45.599Z</time></trkpt><trkpt lat="44.5702933" lon="9.27576"><ele>587.3333333333334</ele><time>2026-04-06T08:49:46.599Z</time></trkpt><trkpt lat="44.5700979" lon="9.2757478"><ele>585.6666666666666</ele><time>2026-04-06T08:49:47.599Z</time></trkpt><trkpt lat="44.5699039" lon="9.2757742"><ele>584.0</ele><time>2026-04-06T08:49:48.598Z</time></trkpt><trkpt lat="44.5697165" lon="9.2758457"><ele>584.0</ele><time>2026-04-06T08:49:49.602Z</time></trkpt><trkpt lat="44.5695457" lon="9.2759566"><ele>584.0</ele><time>2026-04-06T08:49:50.6Z</time></trkpt><trkpt lat="44.5693943" lon="9.2760999"><ele>584.0</ele><time>2026-04-06T08:49:51.599Z</time></trkpt><trkpt lat="44.5692645" lon="9.2762837"><ele>583.3333333333333</ele><time>2026-04-06T08:49:52.599Z</time></trkpt><trkpt lat="44.5691582" lon="9.2765057"><ele>582.6666666666666</ele><time>2026-04-06T08:49:53.598Z</time></trkpt><trkpt lat="44.5690828" lon="9.2767515"><ele>582.0</ele><time>2026-04-06T08:49:54.6Z</time></trkpt><trkpt lat="44.5690207" lon="9.2769799"><ele>582.0</ele><time>2026-04-06T08:49:55.6Z</time></trkpt><trkpt lat="44.5689415" lon="9.2771791"><ele>582.0</ele><time>2026-04-06T08:49:56.6Z</time></trkpt><trkpt lat="44.5688288" lon="9.2773617"><ele>582.0</ele><time>2026-04-06T08:49:57.599Z</time></trkpt><trkpt lat="44.5686679" lon="9.2775503"><ele>582.0</ele><time>2026-04-06T08:49:58.599Z</time></trkpt><trkpt lat="44.5684776" lon="9.2777544"><ele>582.0</ele><time>2026-04-06T08:49:59.598Z</time></trkpt><trkpt lat="44.5682722" lon="9.2779724"><ele>589.0</ele><time>2026-04-06T08:50:00.599Z</time></trkpt><trkpt lat="44.5680677" lon="9.2781928"><ele>596.0</ele><time>2026-04-06T08:50:01.6Z</time></trkpt><trkpt lat="44.5678726" lon="9.2784015"><ele>592.6666666666666</ele><time>2026-04-06T08:50:02.6Z</time></trkpt><trkpt lat="44.5676883" lon="9.2785911"><ele>589.3333333333334</ele><time>2026-04-06T08:50:03.599Z</time></trkpt><trkpt lat="44.5675054" lon="9.2787611"><ele>586.0</ele><time>2026-04-06T08:50:04.598Z</time></trkpt><trkpt lat="44.5673225" lon="9.2789164"><ele>586.6666666666667</ele><time>2026-04-06T08:50:05.599Z</time></trkpt><trkpt lat="44.5671402" lon="9.2790582"><ele>587.3333333333334</ele><time>2026-04-06T08:50:06.598Z</time></trkpt><trkpt lat="44.5669553" lon="9.2791891"><ele>588.0</ele><time>2026-04-06T08:50:07.599Z</time></trkpt><trkpt lat="44.5667783" lon="9.2793208"><ele>588.0</ele><time>2026-04-06T08:50:08.599Z</time></trkpt><trkpt lat="44.5666118" lon="9.2794523"><ele>588.0</ele><time>2026-04-06T08:50:09.599Z</time></trkpt><trkpt lat="44.5664616" lon="9.2795818"><ele>588.0</ele><time>2026-04-06T08:50:10.598Z</time></trkpt><trkpt lat="44.5663315" lon="9.279726"><ele>588.3333333333334</ele><time>2026-04-06T08:50:11.6Z</time></trkpt><trkpt lat="44.5662207" lon="9.2799067"><ele>588.6666666666667</ele><time>2026-04-06T08:50:12.599Z</time></trkpt><trkpt lat="44.5661224" lon="9.2801255"><ele>589.0</ele><time>2026-04-06T08:50:13.599Z</time></trkpt><trkpt lat="44.566032" lon="9.2803578"><ele>589.0</ele><time>2026-04-06T08:50:14.601Z</time></trkpt><trkpt lat="44.5659486" lon="9.2805739"><ele>589.0</ele><time>2026-04-06T08:50:15.599Z</time></trkpt><trkpt lat="44.5658699" lon="9.2807586"><ele>589.0</ele><time>2026-04-06T08:50:16.6Z</time></trkpt><trkpt lat="44.5657908" lon="9.2809135"><ele>589.4</ele><time>2026-04-06T08:50:17.599Z</time></trkpt><trkpt lat="44.5657013" lon="9.2810308"><ele>589.8</ele><time>2026-04-06T08:50:18.599Z</time></trkpt><trkpt lat="44.5656075" lon="9.2811116"><ele>590.2</ele><time>2026-04-06T08:50:19.599Z</time></trkpt><trkpt lat="44.5655123" lon="9.2811415"><ele>590.6</ele><time>2026-04-06T08:50:20.599Z</time></trkpt><trkpt lat="44.565409" lon="9.2811138"><ele>591.0</ele><time>2026-04-06T08:50:21.598Z</time></trkpt><trkpt lat="44.5652902" lon="9.2810276"><ele>591.0</ele><time>2026-04-06T08:50:22.598Z</time></trkpt><trkpt lat="44.5651644" lon="9.280908"><ele>591.0</ele><time>2026-04-06T08:50:23.599Z</time></trkpt><trkpt lat="44.5650414" lon="9.2807995"><ele>591.0</ele><time>2026-04-06T08:50:24.6Z</time></trkpt><trkpt lat="44.5649217" lon="9.2807389"><ele>591.0</ele><time>2026-04-06T08:50:25.599Z</time></trkpt><trkpt lat="44.564805" lon="9.2807528"><ele>591.0</ele><time>2026-04-06T08:50:26.599Z</time></trkpt><trkpt lat="44.5646895" lon="9.2808495"><ele>591.0</ele><time>2026-04-06T08:50:27.598Z</time></trkpt><trkpt lat="44.5645666" lon="9.2810134"><ele>591.0</ele><time>2026-04-06T08:50:28.598Z</time></trkpt><trkpt lat="44.5644257" lon="9.2812052"><ele>590.5</ele><time>2026-04-06T08:50:29.598Z</time></trkpt><trkpt lat="44.5642564" lon="9.2814053"><ele>590.0</ele><time>2026-04-06T08:50:30.603Z</time></trkpt><trkpt lat="44.5640705" lon="9.2816035"><ele>590.0</ele><time>2026-04-06T08:50:31.6Z</time></trkpt><trkpt lat="44.5638739" lon="9.2817956"><ele>590.0</ele><time>2026-04-06T08:50:32.599Z</time></trkpt><trkpt lat="44.5636728" lon="9.2819824"><ele>589.5</ele><time>2026-04-06T08:50:33.6Z</time></trkpt><trkpt lat="44.5634759" lon="9.2821633"><ele>589.0</ele><time>2026-04-06T08:50:34.598Z</time></trkpt><trkpt lat="44.5632878" lon="9.2823372"><ele>589.0</ele><time>2026-04-06T08:50:35.599Z</time></trkpt><trkpt lat="44.5631074" lon="9.2825063"><ele>589.0</ele><time>2026-04-06T08:50:36.599Z</time></trkpt><trkpt lat="44.5629325" lon="9.2826726"><ele>589.0</ele><time>2026-04-06T08:50:37.598Z</time></trkpt><trkpt lat="44.5627627" lon="9.282836"><ele>589.6666666666667</ele><time>2026-04-06T08:50:38.6Z</time></trkpt><trkpt lat="44.5625936" lon="9.2829962"><ele>590.3333333333334</ele><time>2026-04-06T08:50:39.598Z</time></trkpt><trkpt lat="44.5624222" lon="9.2831541"><ele>591.0</ele><time>2026-04-06T08:50:40.599Z</time></trkpt><trkpt lat="44.562245" lon="9.2832965"><ele>591.0</ele><time>2026-04-06T08:50:41.599Z</time></trkpt><trkpt lat="44.562072" lon="9.2834253"><ele>591.0</ele><time>2026-04-06T08:50:42.599Z</time></trkpt><trkpt lat="44.5619058" lon="9.2835332"><ele>591.0</ele><time>2026-04-06T08:50:43.598Z</time></trkpt><trkpt lat="44.5617353" lon="9.2836123"><ele>599.0</ele><time>2026-04-06T08:50:44.599Z</time></trkpt><trkpt lat="44.5615536" lon="9.2836707"><ele>607.0</ele><time>2026-04-06T08:50:45.599Z</time></trkpt><trkpt lat="44.56136" lon="9.2837169"><ele>615.0</ele><time>2026-04-06T08:50:46.598Z</time></trkpt><trkpt lat="44.5611616" lon="9.2837533"><ele>619.3333333333334</ele><time>2026-04-06T08:50:47.598Z</time></trkpt><trkpt lat="44.5609645" lon="9.2837862"><ele>623.6666666666667</ele><time>2026-04-06T08:50:48.6Z</time></trkpt><trkpt lat="44.5607687" lon="9.2838146"><ele>628.0</ele><time>2026-04-06T08:50:49.602Z</time></trkpt><trkpt lat="44.5605722" lon="9.2838318"><ele>628.0</ele><time>2026-04-06T08:50:50.601Z</time></trkpt><trkpt lat="44.5603753" lon="9.2838371"><ele>628.0</ele><time>2026-04-06T08:50:51.6Z</time></trkpt><trkpt lat="44.5601802" lon="9.2838283"><ele>628.0</ele><time>2026-04-06T08:50:52.601Z</time></trkpt><trkpt lat="44.559994" lon="9.2838084"><ele>628.0</ele><time>2026-04-06T08:50:53.601Z</time></trkpt><trkpt lat="44.5598257" lon="9.2837929"><ele>628.0</ele><time>2026-04-06T08:50:54.601Z</time></trkpt><trkpt lat="44.5596724" lon="9.2837602"><ele>628.0</ele><time>2026-04-06T08:50:55.601Z</time></trkpt><trkpt lat="44.5595292" lon="9.2837013"><ele>621.25</ele><time>2026-04-06T08:50:56.6Z</time></trkpt><trkpt lat="44.559405" lon="9.2836052"><ele>614.5</ele><time>2026-04-06T08:50:57.6Z</time></trkpt><trkpt lat="44.5593025" lon="9.2834778"><ele>607.75</ele><time>2026-04-06T08:50:58.601Z</time></trkpt><trkpt lat="44.5592333" lon="9.2833177"><ele>601.0</ele><time>2026-04-06T08:50:59.601Z</time></trkpt><trkpt lat="44.5592134" lon="9.2831192"><ele>605.0</ele><time>2026-04-06T08:51:00.6Z</time></trkpt><trkpt lat="44.5592094" lon="9.2829009"><ele>609.0</ele><time>2026-04-06T08:51:01.599Z</time></trkpt><trkpt lat="44.5591954" lon="9.2826811"><ele>613.0</ele><time>2026-04-06T08:51:02.6Z</time></trkpt><trkpt lat="44.559151" lon="9.2824733"><ele>613.0</ele><time>2026-04-06T08:51:03.598Z</time></trkpt><trkpt lat="44.5590712" lon="9.2822877"><ele>613.0</ele><time>2026-04-06T08:51:04.599Z</time></trkpt><trkpt lat="44.5589572" lon="9.2821329"><ele>613.0</ele><time>2026-04-06T08:51:05.598Z</time></trkpt><trkpt lat="44.5588191" lon="9.2820168"><ele>610.6666666666667</ele><time>2026-04-06T08:51:06.599Z</time></trkpt><trkpt lat="44.5586705" lon="9.2819423"><ele>608.3333333333334</ele><time>2026-04-06T08:51:07.599Z</time></trkpt><trkpt lat="44.5585227" lon="9.281921"><ele>606.0</ele><time>2026-04-06T08:51:08.6Z</time></trkpt><trkpt lat="44.558375" lon="9.281949"><ele>606.0</ele><time>2026-04-06T08:51:09.599Z</time></trkpt><trkpt lat="44.5582311" lon="9.2820102"><ele>606.0</ele><time>2026-04-06T08:51:10.599Z</time></trkpt><trkpt lat="44.5580892" lon="9.2820924"><ele>606.0</ele><time>2026-04-06T08:51:11.599Z</time></trkpt><trkpt lat="44.5579547" lon="9.2821807"><ele>606.75</ele><time>2026-04-06T08:51:12.601Z</time></trkpt><trkpt lat="44.5578277" lon="9.2822644"><ele>607.5</ele><time>2026-04-06T08:51:13.599Z</time></trkpt><trkpt lat="44.5577075" lon="9.2823431"><ele>608.25</ele><time>2026-04-06T08:51:14.6Z</time></trkpt><trkpt lat="44.5575997" lon="9.2824119"><ele>609.0</ele><time>2026-04-06T08:51:15.598Z</time></trkpt><trkpt lat="44.5575102" lon="9.2824678"><ele>607.3333333333334</ele><time>2026-04-06T08:51:16.599Z</time></trkpt><trkpt lat="44.5574351" lon="9.2825127"><ele>605.6666666666666</ele><time>2026-04-06T08:51:17.598Z</time></trkpt><trkpt lat="44.5573675" lon="9.2825418"><ele>604.0</ele><time>2026-04-06T08:51:18.599Z</time></trkpt><trkpt lat="44.5573048" lon="9.2825537"><ele>602.3333333333333</ele><time>2026-04-06T08:51:19.6Z</time></trkpt><trkpt lat="44.557204" lon="9.2825689"><ele>600.6666666666666</ele><time>2026-04-06T08:51:21.605Z</time></trkpt><trkpt lat="44.5571433" lon="9.2825933"><ele>599.0</ele><time>2026-04-06T08:51:24.6Z</time></trkpt><trkpt lat="44.55706" lon="9.2826783"><ele>599.8</ele><time>2026-04-06T08:57:21.598Z</time></trkpt><trkpt lat="44.5569967" lon="9.282745"><ele>600.5999999999999</ele><time>2026-04-06T08:57:23.598Z</time></trkpt><trkpt lat="44.5568917" lon="9.28285"><ele>601.4</ele><time>2026-04-06T08:57:25.599Z</time></trkpt><trkpt lat="44.5568017" lon="9.2829067"><ele>602.1999999999999</ele><time>2026-04-06T08:57:26.6Z</time></trkpt><trkpt lat="44.55669" lon="9.2829717"><ele>603.0</ele><time>2026-04-06T08:57:27.597Z</time></trkpt><trkpt lat="44.55657" lon="9.2830467"><ele>602.25</ele><time>2026-04-06T08:57:28.599Z</time></trkpt><trkpt lat="44.556445" lon="9.2831317"><ele>601.5</ele><time>2026-04-06T08:57:29.598Z</time></trkpt><trkpt lat="44.55633" lon="9.283205"><ele>600.75</ele><time>2026-04-06T08:57:30.598Z</time></trkpt><trkpt lat="44.5562217" lon="9.2832717"><ele>600.0</ele><time>2026-04-06T08:57:31.598Z</time></trkpt><trkpt lat="44.55612" lon="9.2833367"><ele>601.4</ele><time>2026-04-06T08:57:32.599Z</time></trkpt><trkpt lat="44.5560183" lon="9.2833967"><ele>602.8</ele><time>2026-04-06T08:57:33.598Z</time></trkpt><trkpt lat="44.5559217" lon="9.2834483"><ele>604.2</ele><time>2026-04-06T08:57:34.598Z</time></trkpt><trkpt lat="44.5558383" lon="9.2834883"><ele>605.6</ele><time>2026-04-06T08:57:35.599Z</time></trkpt><trkpt lat="44.5557583" lon="9.2835133"><ele>607.0</ele><time>2026-04-06T08:57:36.598Z</time></trkpt><trkpt lat="44.555685" lon="9.283515"><ele>607.0</ele><time>2026-04-06T08:57:37.599Z</time></trkpt><trkpt lat="44.5556067" lon="9.2834933"><ele>607.0</ele><time>2026-04-06T08:57:38.598Z</time></trkpt><trkpt lat="44.55553" lon="9.2834333"><ele>607.0</ele><time>2026-04-06T08:57:39.599Z</time></trkpt><trkpt lat="44.55545" lon="9.2833517"><ele>607.0</ele><time>2026-04-06T08:57:40.598Z</time></trkpt><trkpt lat="44.55538" lon="9.2832383"><ele>607.0</ele><time>2026-04-06T08:57:41.599Z</time></trkpt><trkpt lat="44.5553167" lon="9.2831017"><ele>605.3333333333334</ele><time>2026-04-06T08:57:42.599Z</time></trkpt><trkpt lat="44.5552567" lon="9.282925"><ele>603.6666666666666</ele><time>2026-04-06T08:57:43.598Z</time></trkpt><trkpt lat="44.5551967" lon="9.28272"><ele>602.0</ele><time>2026-04-06T08:57:44.6Z</time></trkpt><trkpt lat="44.555115" lon="9.28251"><ele>602.0</ele><time>2026-04-06T08:57:45.598Z</time></trkpt><trkpt lat="44.55502" lon="9.2823067"><ele>602.0</ele><time>2026-04-06T08:57:46.597Z</time></trkpt><trkpt lat="44.5549167" lon="9.282125"><ele>602.0</ele><time>2026-04-06T08:57:47.598Z</time></trkpt><trkpt lat="44.5548133" lon="9.281965"><ele>603.0</ele><time>2026-04-06T08:57:48.598Z</time></trkpt><trkpt lat="44.554705" lon="9.281825"><ele>604.0</ele><time>2026-04-06T08:57:49.598Z</time></trkpt><trkpt lat="44.5545983" lon="9.2817033"><ele>605.0</ele><time>2026-04-06T08:57:50.599Z</time></trkpt><trkpt lat="44.554505" lon="9.2815683"><ele>606.0</ele><time>2026-04-06T08:57:51.598Z</time></trkpt><trkpt lat="44.5544217" lon="9.28141"><ele>612.6666666666666</ele><time>2026-04-06T08:57:52.598Z</time></trkpt><trkpt lat="44.5543333" lon="9.2812517"><ele>619.3333333333333</ele><time>2026-04-06T08:57:53.598Z</time></trkpt><trkpt lat="44.55423" lon="9.281105"><ele>626.0</ele><time>2026-04-06T08:57:54.598Z</time></trkpt><trkpt lat="44.554095" lon="9.2809733"><ele>626.0</ele><time>2026-04-06T08:57:55.598Z</time></trkpt><trkpt lat="44.553935" lon="9.2808483"><ele>626.0</ele><time>2026-04-06T08:57:56.598Z</time></trkpt><trkpt lat="44.5537633" lon="9.28074"><ele>626.0</ele><time>2026-04-06T08:57:57.598Z</time></trkpt><trkpt lat="44.553595" lon="9.2806367"><ele>623.6666666666666</ele><time>2026-04-06T08:57:58.597Z</time></trkpt><trkpt lat="44.55343" lon="9.2805417"><ele>621.3333333333334</ele><time>2026-04-06T08:57:59.598Z</time></trkpt><trkpt lat="44.5532733" lon="9.28045"><ele>619.0</ele><time>2026-04-06T08:58:00.598Z</time></trkpt><trkpt lat="44.5531183" lon="9.2803583"><ele>619.0</ele><time>2026-04-06T08:58:01.598Z</time></trkpt><trkpt lat="44.5529633" lon="9.2802617"><ele>619.0</ele><time>2026-04-06T08:58:02.598Z</time></trkpt><trkpt lat="44.5528083" lon="9.280155"><ele>619.0</ele><time>2026-04-06T08:58:03.597Z</time></trkpt><trkpt lat="44.55265" lon="9.2800367"><ele>619.0</ele><time>2026-04-06T08:58:04.598Z</time></trkpt><trkpt lat="44.5524917" lon="9.2799033"><ele>619.0</ele><time>2026-04-06T08:58:05.599Z</time></trkpt><trkpt lat="44.5523283" lon="9.2797717"><ele>619.0</ele><time>2026-04-06T08:58:06.598Z</time></trkpt><trkpt lat="44.5521733" lon="9.2796383"><ele>615.6666666666667</ele><time>2026-04-06T08:58:07.598Z</time></trkpt><trkpt lat="44.5520217" lon="9.27952"><ele>612.3333333333334</ele><time>2026-04-06T08:58:08.598Z</time></trkpt><trkpt lat="44.5518817" lon="9.2794117"><ele>609.0</ele><time>2026-04-06T08:58:09.598Z</time></trkpt><trkpt lat="44.5517533" lon="9.2793017"><ele>609.0</ele><time>2026-04-06T08:58:10.599Z</time></trkpt><trkpt lat="44.5516367" lon="9.2791817"><ele>609.0</ele><time>2026-04-06T08:58:11.598Z</time></trkpt><trkpt lat="44.5515317" lon="9.27904"><ele>609.0</ele><time>2026-04-06T08:58:12.598Z</time></trkpt><trkpt lat="44.5514517" lon="9.2788717"><ele>609.0</ele><time>2026-04-06T08:58:13.598Z</time></trkpt><trkpt lat="44.5514017" lon="9.2786783"><ele>611.0</ele><time>2026-04-06T08:58:14.599Z</time></trkpt><trkpt lat="44.55139" lon="9.2784583"><ele>613.0</ele><time>2026-04-06T08:58:15.599Z</time></trkpt><trkpt lat="44.5513983" lon="9.278215"><ele>615.0</ele><time>2026-04-06T08:58:16.599Z</time></trkpt><trkpt lat="44.5514133" lon="9.27795"><ele>617.0</ele><time>2026-04-06T08:58:17.598Z</time></trkpt><trkpt lat="44.5514317" lon="9.2776717"><ele>619.0</ele><time>2026-04-06T08:58:18.599Z</time></trkpt><trkpt lat="44.5514567" lon="9.2774017"><ele>621.0</ele><time>2026-04-06T08:58:19.598Z</time></trkpt><trkpt lat="44.5514933" lon="9.2771333"><ele>621.0</ele><time>2026-04-06T08:58:20.597Z</time></trkpt><trkpt lat="44.5515483" lon="9.2768617"><ele>621.0</ele><time>2026-04-06T08:58:21.598Z</time></trkpt><trkpt lat="44.5516117" lon="9.276585"><ele>621.0</ele><time>2026-04-06T08:58:22.599Z</time></trkpt><trkpt lat="44.551675" lon="9.2763117"><ele>619.6666666666666</ele><time>2026-04-06T08:58:23.598Z</time></trkpt><trkpt lat="44.5517333" lon="9.2760517"><ele>618.3333333333333</ele><time>2026-04-06T08:58:24.598Z</time></trkpt><trkpt lat="44.5517867" lon="9.27581"><ele>617.0</ele><time>2026-04-06T08:58:25.597Z</time></trkpt><trkpt lat="44.55184" lon="9.275595"><ele>617.0</ele><time>2026-04-06T08:58:26.6Z</time></trkpt><trkpt lat="44.5518767" lon="9.2754017"><ele>617.0</ele><time>2026-04-06T08:58:27.598Z</time></trkpt><trkpt lat="44.5518883" lon="9.275225"><ele>617.0</ele><time>2026-04-06T08:58:28.599Z</time></trkpt><trkpt lat="44.5518567" lon="9.2750567"><ele>617.0</ele><time>2026-04-06T08:58:29.597Z</time></trkpt><trkpt lat="44.5517817" lon="9.2748933"><ele>621.6666666666666</ele><time>2026-04-06T08:58:30.597Z</time></trkpt><trkpt lat="44.5516767" lon="9.27473"><ele>626.3333333333334</ele><time>2026-04-06T08:58:31.598Z</time></trkpt><trkpt lat="44.5515767" lon="9.27457"><ele>631.0</ele><time>2026-04-06T08:58:32.6Z</time></trkpt><trkpt lat="44.5515067" lon="9.274395"><ele>631.0</ele><time>2026-04-06T08:58:33.598Z</time></trkpt><trkpt lat="44.5514617" lon="9.274185"><ele>631.0</ele><time>2026-04-06T08:58:34.598Z</time></trkpt><trkpt lat="44.5514133" lon="9.2739617"><ele>631.0</ele><time>2026-04-06T08:58:35.599Z</time></trkpt><trkpt lat="44.551345" lon="9.2737383"><ele>633.0</ele><time>2026-04-06T08:58:36.598Z</time></trkpt><trkpt lat="44.551255" lon="9.2735133"><ele>635.0</ele><time>2026-04-06T08:58:37.599Z</time></trkpt><trkpt lat="44.5511433" lon="9.2732833"><ele>637.0</ele><time>2026-04-06T08:58:38.599Z</time></trkpt><trkpt lat="44.5510133" lon="9.2730583"><ele>637.0</ele><time>2026-04-06T08:58:39.598Z</time></trkpt><trkpt lat="44.550885" lon="9.2728467"><ele>637.0</ele><time>2026-04-06T08:58:40.6Z</time></trkpt><trkpt lat="44.55077" lon="9.272655"><ele>637.0</ele><time>2026-04-06T08:58:41.599Z</time></trkpt><trkpt lat="44.5506617" lon="9.27248"><ele>637.0</ele><time>2026-04-06T08:58:42.598Z</time></trkpt><trkpt lat="44.5505517" lon="9.2723183"><ele>637.0</ele><time>2026-04-06T08:58:43.597Z</time></trkpt><trkpt lat="44.55043" lon="9.2721783"><ele>637.0</ele><time>2026-04-06T08:58:44.599Z</time></trkpt><trkpt lat="44.5502983" lon="9.2720583"><ele>636.3333333333334</ele><time>2026-04-06T08:58:45.598Z</time></trkpt><trkpt lat="44.550155" lon="9.271945"><ele>635.6666666666666</ele><time>2026-04-06T08:58:46.598Z</time></trkpt><trkpt lat="44.5500133" lon="9.2718417"><ele>635.0</ele><time>2026-04-06T08:58:47.599Z</time></trkpt><trkpt lat="44.549875" lon="9.2717433"><ele>635.0</ele><time>2026-04-06T08:58:48.599Z</time></trkpt><trkpt lat="44.54974" lon="9.2716533"><ele>635.0</ele><time>2026-04-06T08:58:49.6Z</time></trkpt><trkpt lat="44.549605" lon="9.2715567"><ele>635.0</ele><time>2026-04-06T08:58:50.599Z</time></trkpt><trkpt lat="44.5494683" lon="9.27146"><ele>634.6666666666666</ele><time>2026-04-06T08:58:51.599Z</time></trkpt><trkpt lat="44.5493283" lon="9.27136"><ele>634.3333333333334</ele><time>2026-04-06T08:58:52.599Z</time></trkpt><trkpt lat="44.5491833" lon="9.2712717"><ele>634.0</ele><time>2026-04-06T08:58:53.599Z</time></trkpt><trkpt lat="44.5490333" lon="9.2711917"><ele>634.0</ele><time>2026-04-06T08:58:54.6Z</time></trkpt><trkpt lat="44.5488783" lon="9.2711217"><ele>634.0</ele><time>2026-04-06T08:58:55.599Z</time></trkpt><trkpt lat="44.5487233" lon="9.2710533"><ele>634.0</ele><time>2026-04-06T08:58:56.599Z</time></trkpt><trkpt lat="44.54857" lon="9.27098"><ele>628.3333333333334</ele><time>2026-04-06T08:58:57.603Z</time></trkpt><trkpt lat="44.5484183" lon="9.2708983"><ele>622.6666666666666</ele><time>2026-04-06T08:58:58.598Z</time></trkpt><trkpt lat="44.548272" lon="9.2708133"><ele>617.0</ele><time>2026-04-06T08:58:59.598Z</time></trkpt><trkpt lat="44.548134" lon="9.2707265"><ele>617.0</ele><time>2026-04-06T08:59:00.599Z</time></trkpt><trkpt lat="44.5480079" lon="9.2706346"><ele>617.0</ele><time>2026-04-06T08:59:01.598Z</time></trkpt><trkpt lat="44.5478871" lon="9.270534"><ele>617.0</ele><time>2026-04-06T08:59:02.598Z</time></trkpt><trkpt lat="44.5477705" lon="9.2704147"><ele>617.0</ele><time>2026-04-06T08:59:03.598Z</time></trkpt><trkpt lat="44.5476614" lon="9.2702716"><ele>616.3333333333333</ele><time>2026-04-06T08:59:04.599Z</time></trkpt><trkpt lat="44.547565" lon="9.2701071"><ele>615.6666666666666</ele><time>2026-04-06T08:59:05.598Z</time></trkpt><trkpt lat="44.5474785" lon="9.2699313"><ele>615.0</ele><time>2026-04-06T08:59:06.598Z</time></trkpt><trkpt lat="44.5474034" lon="9.2697476"><ele>617.75</ele><time>2026-04-06T08:59:07.598Z</time></trkpt><trkpt lat="44.5473393" lon="9.2695569"><ele>620.5</ele><time>2026-04-06T08:59:08.598Z</time></trkpt><trkpt lat="44.5472819" lon="9.2693703"><ele>623.25</ele><time>2026-04-06T08:59:09.597Z</time></trkpt><trkpt lat="44.5472263" lon="9.2691984"><ele>626.0</ele><time>2026-04-06T08:59:10.598Z</time></trkpt><trkpt lat="44.5471723" lon="9.2690387"><ele>624.5</ele><time>2026-04-06T08:59:11.597Z</time></trkpt><trkpt lat="44.547115" lon="9.2688816"><ele>623.0</ele><time>2026-04-06T08:59:12.599Z</time></trkpt><trkpt lat="44.5470451" lon="9.2687257"><ele>621.5</ele><time>2026-04-06T08:59:13.598Z</time></trkpt><trkpt lat="44.5469589" lon="9.2685768"><ele>620.0</ele><time>2026-04-06T08:59:14.598Z</time></trkpt><trkpt lat="44.5468644" lon="9.2684387"><ele>620.0</ele><time>2026-04-06T08:59:15.598Z</time></trkpt><trkpt lat="44.5467652" lon="9.2683069"><ele>620.0</ele><time>2026-04-06T08:59:16.598Z</time></trkpt><trkpt lat="44.5466641" lon="9.2681807"><ele>620.0</ele><time>2026-04-06T08:59:17.599Z</time></trkpt><trkpt lat="44.5465611" lon="9.2680546"><ele>620.0</ele><time>2026-04-06T08:59:18.599Z</time></trkpt><trkpt lat="44.5464546" lon="9.267927"><ele>621.25</ele><time>2026-04-06T08:59:19.6Z</time></trkpt><trkpt lat="44.5463478" lon="9.2678"><ele>622.5</ele><time>2026-04-06T08:59:20.598Z</time></trkpt><trkpt lat="44.5462424" lon="9.267672"><ele>623.75</ele><time>2026-04-06T08:59:21.599Z</time></trkpt><trkpt lat="44.5461436" lon="9.2675422"><ele>625.0</ele><time>2026-04-06T08:59:22.598Z</time></trkpt><trkpt lat="44.5460514" lon="9.267408"><ele>623.75</ele><time>2026-04-06T08:59:23.601Z</time></trkpt><trkpt lat="44.5459691" lon="9.2672668"><ele>622.5</ele><time>2026-04-06T08:59:24.599Z</time></trkpt><trkpt lat="44.5459025" lon="9.267107"><ele>621.25</ele><time>2026-04-06T08:59:25.599Z</time></trkpt><trkpt lat="44.5458566" lon="9.2669253"><ele>620.0</ele><time>2026-04-06T08:59:26.599Z</time></trkpt><trkpt lat="44.5458323" lon="9.2667269"><ele>620.0</ele><time>2026-04-06T08:59:27.598Z</time></trkpt><trkpt lat="44.5458164" lon="9.2665238"><ele>620.0</ele><time>2026-04-06T08:59:28.598Z</time></trkpt><trkpt lat="44.545796" lon="9.2663145"><ele>620.0</ele><time>2026-04-06T08:59:29.599Z</time></trkpt><trkpt lat="44.5457599" lon="9.2660893"><ele>622.0</ele><time>2026-04-06T08:59:30.598Z</time></trkpt><trkpt lat="44.5456994" lon="9.2658382"><ele>624.0</ele><time>2026-04-06T08:59:31.601Z</time></trkpt><trkpt lat="44.5456237" lon="9.2655586"><ele>626.0</ele><time>2026-04-06T08:59:32.598Z</time></trkpt><trkpt lat="44.5455487" lon="9.265257"><ele>624.3333333333333</ele><time>2026-04-06T08:59:33.599Z</time></trkpt><trkpt lat="44.545479" lon="9.2649491"><ele>622.6666666666666</ele><time>2026-04-06T08:59:34.597Z</time></trkpt><trkpt lat="44.5454098" lon="9.2646579"><ele>621.0</ele><time>2026-04-06T08:59:35.597Z</time></trkpt><trkpt lat="44.5453397" lon="9.2643992"><ele>621.0</ele><time>2026-04-06T08:59:36.599Z</time></trkpt><trkpt lat="44.5452677" lon="9.2641655"><ele>621.0</ele><time>2026-04-06T08:59:37.599Z</time></trkpt><trkpt lat="44.5451939" lon="9.2639494"><ele>621.0</ele><time>2026-04-06T08:59:38.598Z</time></trkpt><trkpt lat="44.5451227" lon="9.2637474"><ele>624.25</ele><time>2026-04-06T08:59:39.598Z</time></trkpt><trkpt lat="44.5450553" lon="9.2635531"><ele>627.5</ele><time>2026-04-06T08:59:40.598Z</time></trkpt><trkpt lat="44.5449925" lon="9.2633665"><ele>630.75</ele><time>2026-04-06T08:59:41.598Z</time></trkpt><trkpt lat="44.5449323" lon="9.2631934"><ele>634.0</ele><time>2026-04-06T08:59:42.598Z</time></trkpt><trkpt lat="44.544878" lon="9.2630328"><ele>636.5</ele><time>2026-04-06T08:59:43.598Z</time></trkpt><trkpt lat="44.5448281" lon="9.2628923"><ele>639.0</ele><time>2026-04-06T08:59:44.598Z</time></trkpt><trkpt lat="44.5447839" lon="9.2627702"><ele>641.5</ele><time>2026-04-06T08:59:45.597Z</time></trkpt><trkpt lat="44.5447466" lon="9.2626639"><ele>644.0</ele><time>2026-04-06T08:59:46.599Z</time></trkpt><trkpt lat="44.5447167" lon="9.2625767"><ele>646.5</ele><time>2026-04-06T08:59:47.601Z</time></trkpt><trkpt lat="44.5446867" lon="9.2624933"><ele>649.0</ele><time>2026-04-06T08:59:48.599Z</time></trkpt><trkpt lat="44.5446383" lon="9.2623417"><ele>649.0</ele><time>2026-04-06T08:59:50.6Z</time></trkpt><trkpt lat="44.5446" lon="9.2622183"><ele>649.0</ele><time>2026-04-06T08:59:52.598Z</time></trkpt><trkpt lat="44.5445683" lon="9.26211"><ele>649.0</ele><time>2026-04-06T08:59:54.598Z</time></trkpt><trkpt lat="44.5445483" lon="9.262025"><ele>649.0</ele><time>2026-04-06T08:59:56.598Z</time></trkpt><trkpt lat="44.5444933" lon="9.2619117"><ele>649.0</ele><time>2026-04-06T09:00:21.599Z</time></trkpt><trkpt lat="44.5444567" lon="9.2617883"><ele>649.0</ele><time>2026-04-06T09:00:23.598Z</time></trkpt><trkpt lat="44.5444367" lon="9.261645"><ele>644.0</ele><time>2026-04-06T09:00:25.6Z</time></trkpt><trkpt lat="44.544425" lon="9.26155"><ele>639.0</ele><time>2026-04-06T09:00:27.598Z</time></trkpt><trkpt lat="44.544385" lon="9.2614033"><ele>634.0</ele><time>2026-04-06T09:00:29.599Z</time></trkpt><trkpt lat="44.5443567" lon="9.2612633"><ele>629.0</ele><time>2026-04-06T09:00:30.599Z</time></trkpt><trkpt lat="44.54433" lon="9.2610717"><ele>624.0</ele><time>2026-04-06T09:00:31.599Z</time></trkpt><trkpt lat="44.5442983" lon="9.2608817"><ele>624.0</ele><time>2026-04-06T09:00:32.599Z</time></trkpt><trkpt lat="44.54426" lon="9.2607117"><ele>624.0</ele><time>2026-04-06T09:00:33.598Z</time></trkpt><trkpt lat="44.5442117" lon="9.260575"><ele>624.0</ele><time>2026-04-06T09:00:34.599Z</time></trkpt><trkpt lat="44.5441483" lon="9.2604783"><ele>624.0</ele><time>2026-04-06T09:00:35.599Z</time></trkpt><trkpt lat="44.54407" lon="9.2604117"><ele>624.0</ele><time>2026-04-06T09:00:36.598Z</time></trkpt><trkpt lat="44.5439717" lon="9.2603683"><ele>623.5</ele><time>2026-04-06T09:00:37.599Z</time></trkpt><trkpt lat="44.5438583" lon="9.2603233"><ele>623.0</ele><time>2026-04-06T09:00:38.599Z</time></trkpt><trkpt lat="44.5437383" lon="9.2602783"><ele>622.5</ele><time>2026-04-06T09:00:39.599Z</time></trkpt><trkpt lat="44.54361" lon="9.260235"><ele>622.0</ele><time>2026-04-06T09:00:40.6Z</time></trkpt><trkpt lat="44.5434817" lon="9.260185"><ele>622.0</ele><time>2026-04-06T09:00:41.599Z</time></trkpt><trkpt lat="44.54335" lon="9.2601367"><ele>622.0</ele><time>2026-04-06T09:00:42.599Z</time></trkpt><trkpt lat="44.543205" lon="9.2600833"><ele>622.0</ele><time>2026-04-06T09:00:43.598Z</time></trkpt><trkpt lat="44.543055" lon="9.2600167"><ele>622.0</ele><time>2026-04-06T09:00:44.6Z</time></trkpt><trkpt lat="44.5429" lon="9.2599433"><ele>622.6666666666667</ele><time>2026-04-06T09:00:45.599Z</time></trkpt><trkpt lat="44.5427433" lon="9.2598733"><ele>623.3333333333334</ele><time>2026-04-06T09:00:46.599Z</time></trkpt><trkpt lat="44.5425983" lon="9.25981"><ele>624.0</ele><time>2026-04-06T09:00:47.603Z</time></trkpt><trkpt lat="44.5424617" lon="9.2597533"><ele>624.0</ele><time>2026-04-06T09:00:48.6Z</time></trkpt><trkpt lat="44.5423233" lon="9.2597167"><ele>624.0</ele><time>2026-04-06T09:00:49.6Z</time></trkpt><trkpt lat="44.5421817" lon="9.2597217"><ele>624.0</ele><time>2026-04-06T09:00:50.601Z</time></trkpt><trkpt lat="44.542045" lon="9.2597717"><ele>624.0</ele><time>2026-04-06T09:00:51.601Z</time></trkpt><trkpt lat="44.5419117" lon="9.2598867"><ele>625.0</ele><time>2026-04-06T09:00:52.6Z</time></trkpt><trkpt lat="44.54179" lon="9.2600383"><ele>626.0</ele><time>2026-04-06T09:00:53.6Z</time></trkpt><trkpt lat="44.5416767" lon="9.260205"><ele>627.0</ele><time>2026-04-06T09:00:54.599Z</time></trkpt><trkpt lat="44.54156" lon="9.26037"><ele>627.0</ele><time>2026-04-06T09:00:55.597Z</time></trkpt><trkpt lat="44.54143" lon="9.26052"><ele>627.0</ele><time>2026-04-06T09:00:56.599Z</time></trkpt><trkpt lat="44.5412883" lon="9.2606433"><ele>627.0</ele><time>2026-04-06T09:00:57.598Z</time></trkpt><trkpt lat="44.5411383" lon="9.26074"><ele>628.6666666666666</ele><time>2026-04-06T09:00:58.599Z</time></trkpt><trkpt lat="44.5409733" lon="9.2608083"><ele>630.3333333333333</ele><time>2026-04-06T09:00:59.599Z</time></trkpt><trkpt lat="44.540795" lon="9.2608533"><ele>632.0</ele><time>2026-04-06T09:01:00.6Z</time></trkpt><trkpt lat="44.5406033" lon="9.2608817"><ele>632.0</ele><time>2026-04-06T09:01:01.599Z</time></trkpt><trkpt lat="44.540405" lon="9.2608983"><ele>632.0</ele><time>2026-04-06T09:01:02.6Z</time></trkpt><trkpt lat="44.5402017" lon="9.26091"><ele>632.0</ele><time>2026-04-06T09:01:03.599Z</time></trkpt><trkpt lat="44.539995" lon="9.2609267"><ele>635.3333333333333</ele><time>2026-04-06T09:01:04.6Z</time></trkpt><trkpt lat="44.5397833" lon="9.2609383"><ele>638.6666666666666</ele><time>2026-04-06T09:01:05.601Z</time></trkpt><trkpt lat="44.53957" lon="9.2609433"><ele>642.0</ele><time>2026-04-06T09:01:06.599Z</time></trkpt><trkpt lat="44.5393517" lon="9.260945"><ele>641.0</ele><time>2026-04-06T09:01:07.598Z</time></trkpt><trkpt lat="44.5391317" lon="9.2609483"><ele>640.0</ele><time>2026-04-06T09:01:08.601Z</time></trkpt><trkpt lat="44.53891" lon="9.260955"><ele>639.0</ele><time>2026-04-06T09:01:09.598Z</time></trkpt><trkpt lat="44.53869" lon="9.2609583"><ele>639.0</ele><time>2026-04-06T09:01:10.599Z</time></trkpt><trkpt lat="44.5384683" lon="9.2609683"><ele>639.0</ele><time>2026-04-06T09:01:11.598Z</time></trkpt><trkpt lat="44.5382483" lon="9.260975"><ele>639.0</ele><time>2026-04-06T09:01:12.599Z</time></trkpt><trkpt lat="44.5380317" lon="9.2609733"><ele>638.0</ele><time>2026-04-06T09:01:13.6Z</time></trkpt><trkpt lat="44.537815" lon="9.260975"><ele>637.0</ele><time>2026-04-06T09:01:14.6Z</time></trkpt><trkpt lat="44.5375967" lon="9.2609767"><ele>636.0</ele><time>2026-04-06T09:01:15.599Z</time></trkpt><trkpt lat="44.5373833" lon="9.26098"><ele>636.0</ele><time>2026-04-06T09:01:16.599Z</time></trkpt><trkpt lat="44.53717" lon="9.26099"><ele>636.0</ele><time>2026-04-06T09:01:17.602Z</time></trkpt><trkpt lat="44.536955" lon="9.2610117"><ele>636.0</ele><time>2026-04-06T09:01:18.601Z</time></trkpt><trkpt lat="44.53674" lon="9.2610433"><ele>637.0</ele><time>2026-04-06T09:01:19.601Z</time></trkpt><trkpt lat="44.5365283" lon="9.2610783"><ele>638.0</ele><time>2026-04-06T09:01:20.601Z</time></trkpt><trkpt lat="44.5363233" lon="9.2611117"><ele>639.0</ele><time>2026-04-06T09:01:21.601Z</time></trkpt><trkpt lat="44.5361317" lon="9.2611367"><ele>645.6666666666666</ele><time>2026-04-06T09:01:22.6Z</time></trkpt><trkpt lat="44.5359517" lon="9.2611483"><ele>652.3333333333333</ele><time>2026-04-06T09:01:23.601Z</time></trkpt><trkpt lat="44.5357817" lon="9.2611433"><ele>659.0</ele><time>2026-04-06T09:01:24.598Z</time></trkpt><trkpt lat="44.5356117" lon="9.2611533"><ele>659.0</ele><time>2026-04-06T09:01:25.598Z</time></trkpt><trkpt lat="44.5354333" lon="9.2612083"><ele>659.0</ele><time>2026-04-06T09:01:26.6Z</time></trkpt><trkpt lat="44.535255" lon="9.2613067"><ele>659.0</ele><time>2026-04-06T09:01:27.599Z</time></trkpt><trkpt lat="44.53508" lon="9.261445"><ele>652.0</ele><time>2026-04-06T09:01:28.599Z</time></trkpt><trkpt lat="44.5349183" lon="9.261585"><ele>645.0</ele><time>2026-04-06T09:01:29.601Z</time></trkpt><trkpt lat="44.5347567" lon="9.2617067"><ele>638.0</ele><time>2026-04-06T09:01:30.6Z</time></trkpt><trkpt lat="44.5345933" lon="9.2618067"><ele>638.0</ele><time>2026-04-06T09:01:31.6Z</time></trkpt><trkpt lat="44.5344367" lon="9.26189"><ele>638.0</ele><time>2026-04-06T09:01:32.601Z</time></trkpt><trkpt lat="44.5342867" lon="9.2619417"><ele>638.0</ele><time>2026-04-06T09:01:33.598Z</time></trkpt><trkpt lat="44.53414" lon="9.26195"><ele>638.0</ele><time>2026-04-06T09:01:34.598Z</time></trkpt><trkpt lat="44.5340033" lon="9.2619183"><ele>638.0</ele><time>2026-04-06T09:01:35.6Z</time></trkpt><trkpt lat="44.5338967" lon="9.2618417"><ele>638.0</ele><time>2026-04-06T09:01:36.6Z</time></trkpt><trkpt lat="44.5338233" lon="9.2617083"><ele>638.0</ele><time>2026-04-06T09:01:37.6Z</time></trkpt><trkpt lat="44.5337817" lon="9.2615217"><ele>642.3333333333333</ele><time>2026-04-06T09:01:38.599Z</time></trkpt><trkpt lat="44.5337733" lon="9.261285"><ele>646.6666666666666</ele><time>2026-04-06T09:01:39.599Z</time></trkpt><trkpt lat="44.5337783" lon="9.2610217"><ele>651.0</ele><time>2026-04-06T09:01:40.6Z</time></trkpt><trkpt lat="44.5337917" lon="9.2607367"><ele>653.3333333333334</ele><time>2026-04-06T09:01:41.599Z</time></trkpt><trkpt lat="44.533795" lon="9.260445"><ele>655.6666666666667</ele><time>2026-04-06T09:01:42.598Z</time></trkpt><trkpt lat="44.5337917" lon="9.2601483"><ele>658.0</ele><time>2026-04-06T09:01:43.6Z</time></trkpt><trkpt lat="44.5337933" lon="9.2598567"><ele>658.3333333333334</ele><time>2026-04-06T09:01:44.603Z</time></trkpt><trkpt lat="44.5338067" lon="9.2595733"><ele>658.6666666666666</ele><time>2026-04-06T09:01:45.599Z</time></trkpt><trkpt lat="44.5338267" lon="9.2592967"><ele>659.0</ele><time>2026-04-06T09:01:46.6Z</time></trkpt><trkpt lat="44.53384" lon="9.2590283"><ele>659.6666666666666</ele><time>2026-04-06T09:01:47.598Z</time></trkpt><trkpt lat="44.5338367" lon="9.2587667"><ele>660.3333333333334</ele><time>2026-04-06T09:01:48.599Z</time></trkpt><trkpt lat="44.53382" lon="9.258515"><ele>661.0</ele><time>2026-04-06T09:01:49.598Z</time></trkpt><trkpt lat="44.5338133" lon="9.2582633"><ele>660.3333333333334</ele><time>2026-04-06T09:01:50.6Z</time></trkpt><trkpt lat="44.53382" lon="9.25801"><ele>659.6666666666666</ele><time>2026-04-06T09:01:51.597Z</time></trkpt><trkpt lat="44.53384" lon="9.2577483"><ele>659.0</ele><time>2026-04-06T09:01:52.599Z</time></trkpt><trkpt lat="44.5338683" lon="9.2574833"><ele>659.0</ele><time>2026-04-06T09:01:53.598Z</time></trkpt><trkpt lat="44.533895" lon="9.257215"><ele>659.0</ele><time>2026-04-06T09:01:54.6Z</time></trkpt><trkpt lat="44.5339167" lon="9.2569467"><ele>659.0</ele><time>2026-04-06T09:01:55.597Z</time></trkpt><trkpt lat="44.53394" lon="9.2566917"><ele>659.0</ele><time>2026-04-06T09:01:56.599Z</time></trkpt><trkpt lat="44.5339617" lon="9.2564567"><ele>659.0</ele><time>2026-04-06T09:01:57.598Z</time></trkpt><trkpt lat="44.5339883" lon="9.25624"><ele>659.0</ele><time>2026-04-06T09:01:58.599Z</time></trkpt><trkpt lat="44.5340117" lon="9.2560383"><ele>659.0</ele><time>2026-04-06T09:01:59.599Z</time></trkpt><trkpt lat="44.534015" lon="9.2558517"><ele>659.0</ele><time>2026-04-06T09:02:00.599Z</time></trkpt><trkpt lat="44.5339767" lon="9.25566"><ele>659.0</ele><time>2026-04-06T09:02:01.598Z</time></trkpt><trkpt lat="44.5339" lon="9.2554717"><ele>659.0</ele><time>2026-04-06T09:02:02.598Z</time></trkpt><trkpt lat="44.533795" lon="9.2552783"><ele>661.0</ele><time>2026-04-06T09:02:03.6Z</time></trkpt><trkpt lat="44.533665" lon="9.2550833"><ele>663.0</ele><time>2026-04-06T09:02:04.6Z</time></trkpt><trkpt lat="44.5335067" lon="9.2548933"><ele>665.0</ele><time>2026-04-06T09:02:05.6Z</time></trkpt><trkpt lat="44.5333317" lon="9.2547183"><ele>665.0</ele><time>2026-04-06T09:02:06.599Z</time></trkpt><trkpt lat="44.533165" lon="9.2545567"><ele>665.0</ele><time>2026-04-06T09:02:07.602Z</time></trkpt><trkpt lat="44.5330133" lon="9.2544133"><ele>665.0</ele><time>2026-04-06T09:02:08.599Z</time></trkpt><trkpt lat="44.5328667" lon="9.2542883"><ele>659.6666666666666</ele><time>2026-04-06T09:02:09.598Z</time></trkpt><trkpt lat="44.5327067" lon="9.25421"><ele>654.3333333333334</ele><time>2026-04-06T09:02:10.599Z</time></trkpt><trkpt lat="44.532525" lon="9.254165"><ele>649.0</ele><time>2026-04-06T09:02:11.599Z</time></trkpt><trkpt lat="44.5323433" lon="9.2541483"><ele>649.0</ele><time>2026-04-06T09:02:12.598Z</time></trkpt><trkpt lat="44.5321733" lon="9.2541483"><ele>649.0</ele><time>2026-04-06T09:02:13.598Z</time></trkpt><trkpt lat="44.5320067" lon="9.254185"><ele>649.0</ele><time>2026-04-06T09:02:14.598Z</time></trkpt><trkpt lat="44.53184" lon="9.2542633"><ele>653.6666666666667</ele><time>2026-04-06T09:02:15.599Z</time></trkpt><trkpt lat="44.5316717" lon="9.2543883"><ele>658.3333333333334</ele><time>2026-04-06T09:02:16.6Z</time></trkpt><trkpt lat="44.5315067" lon="9.2545317"><ele>663.0</ele><time>2026-04-06T09:02:17.598Z</time></trkpt><trkpt lat="44.53135" lon="9.2547033"><ele>664.3333333333334</ele><time>2026-04-06T09:02:18.599Z</time></trkpt><trkpt lat="44.5312033" lon="9.2549067"><ele>665.6666666666667</ele><time>2026-04-06T09:02:19.597Z</time></trkpt><trkpt lat="44.5310667" lon="9.2551183"><ele>667.0</ele><time>2026-04-06T09:02:20.599Z</time></trkpt><trkpt lat="44.5309417" lon="9.2553317"><ele>667.0</ele><time>2026-04-06T09:02:21.599Z</time></trkpt><trkpt lat="44.53082" lon="9.255555"><ele>667.0</ele><time>2026-04-06T09:02:22.599Z</time></trkpt><trkpt lat="44.53071" lon="9.25578"><ele>667.0</ele><time>2026-04-06T09:02:23.599Z</time></trkpt><trkpt lat="44.530615" lon="9.256005"><ele>661.0</ele><time>2026-04-06T09:02:24.598Z</time></trkpt><trkpt lat="44.5305367" lon="9.25623"><ele>655.0</ele><time>2026-04-06T09:02:25.599Z</time></trkpt><trkpt lat="44.5304617" lon="9.2564533"><ele>649.0</ele><time>2026-04-06T09:02:26.601Z</time></trkpt><trkpt lat="44.530415" lon="9.2566917"><ele>659.3333333333334</ele><time>2026-04-06T09:02:27.599Z</time></trkpt><trkpt lat="44.5303817" lon="9.2569517"><ele>669.6666666666666</ele><time>2026-04-06T09:02:28.599Z</time></trkpt><trkpt lat="44.53037" lon="9.25723"><ele>680.0</ele><time>2026-04-06T09:02:29.599Z</time></trkpt><trkpt lat="44.5303633" lon="9.2575233"><ele>680.0</ele><time>2026-04-06T09:02:30.6Z</time></trkpt><trkpt lat="44.5303567" lon="9.257825"><ele>680.0</ele><time>2026-04-06T09:02:31.599Z</time></trkpt><trkpt lat="44.5303633" lon="9.25813"><ele>680.0</ele><time>2026-04-06T09:02:32.6Z</time></trkpt><trkpt lat="44.5303767" lon="9.2584233"><ele>669.0</ele><time>2026-04-06T09:02:33.599Z</time></trkpt><trkpt lat="44.530395" lon="9.2587017"><ele>658.0</ele><time>2026-04-06T09:02:34.599Z</time></trkpt><trkpt lat="44.5304083" lon="9.2589683"><ele>647.0</ele><time>2026-04-06T09:02:35.599Z</time></trkpt><trkpt lat="44.5304233" lon="9.2592267"><ele>647.0</ele><time>2026-04-06T09:02:36.599Z</time></trkpt><trkpt lat="44.5304267" lon="9.2594717"><ele>647.0</ele><time>2026-04-06T09:02:37.599Z</time></trkpt><trkpt lat="44.530405" lon="9.2597067"><ele>647.0</ele><time>2026-04-06T09:02:38.601Z</time></trkpt><trkpt lat="44.53035" lon="9.259925"><ele>647.3333333333333</ele><time>2026-04-06T09:02:39.599Z</time></trkpt><trkpt lat="44.5302467" lon="9.2601217"><ele>647.6666666666666</ele><time>2026-04-06T09:02:40.599Z</time></trkpt><trkpt lat="44.5301133" lon="9.2602817"><ele>648.0</ele><time>2026-04-06T09:02:41.599Z</time></trkpt><trkpt lat="44.5299517" lon="9.2603817"><ele>648.0</ele><time>2026-04-06T09:02:42.599Z</time></trkpt><trkpt lat="44.5297717" lon="9.2604217"><ele>648.0</ele><time>2026-04-06T09:02:43.599Z</time></trkpt><trkpt lat="44.529585" lon="9.2604017"><ele>648.0</ele><time>2026-04-06T09:02:44.6Z</time></trkpt><trkpt lat="44.5294017" lon="9.2603317"><ele>653.3333333333334</ele><time>2026-04-06T09:02:45.6Z</time></trkpt><trkpt lat="44.529215" lon="9.2602433"><ele>658.6666666666667</ele><time>2026-04-06T09:02:46.598Z</time></trkpt><trkpt lat="44.5290233" lon="9.2601683"><ele>664.0</ele><time>2026-04-06T09:02:47.599Z</time></trkpt><trkpt lat="44.5288383" lon="9.260125"><ele>660.0</ele><time>2026-04-06T09:02:48.599Z</time></trkpt><trkpt lat="44.5286667" lon="9.2600817"><ele>656.0</ele><time>2026-04-06T09:02:49.598Z</time></trkpt><trkpt lat="44.5285017" lon="9.2600017"><ele>652.0</ele><time>2026-04-06T09:02:50.599Z</time></trkpt><trkpt lat="44.5283417" lon="9.2598683"><ele>654.0</ele><time>2026-04-06T09:02:51.599Z</time></trkpt><trkpt lat="44.52818" lon="9.259695"><ele>656.0</ele><time>2026-04-06T09:02:52.599Z</time></trkpt><trkpt lat="44.5280183" lon="9.259505"><ele>658.0</ele><time>2026-04-06T09:02:53.6Z</time></trkpt><trkpt lat="44.5278517" lon="9.2593267"><ele>658.0</ele><time>2026-04-06T09:02:54.598Z</time></trkpt><trkpt lat="44.5276733" lon="9.25916"><ele>658.0</ele><time>2026-04-06T09:02:55.599Z</time></trkpt><trkpt lat="44.5274933" lon="9.2590233"><ele>658.0</ele><time>2026-04-06T09:02:56.599Z</time></trkpt><trkpt lat="44.52732" lon="9.258905"><ele>658.0</ele><time>2026-04-06T09:02:57.599Z</time></trkpt><trkpt lat="44.527155" lon="9.2587917"><ele>658.0</ele><time>2026-04-06T09:02:58.599Z</time></trkpt><trkpt lat="44.5269983" lon="9.25866"><ele>658.0</ele><time>2026-04-06T09:02:59.599Z</time></trkpt><trkpt lat="44.52685" lon="9.25851"><ele>658.0</ele><time>2026-04-06T09:03:00.599Z</time></trkpt><trkpt lat="44.5267117" lon="9.2583333"><ele>658.0</ele><time>2026-04-06T09:03:01.599Z</time></trkpt><trkpt lat="44.5265983" lon="9.25813"><ele>658.0</ele><time>2026-04-06T09:03:02.599Z</time></trkpt><trkpt lat="44.5265067" lon="9.25791"><ele>661.0</ele><time>2026-04-06T09:03:03.6Z</time></trkpt><trkpt lat="44.5264367" lon="9.2576733"><ele>664.0</ele><time>2026-04-06T09:03:04.599Z</time></trkpt><trkpt lat="44.5263967" lon="9.2574167"><ele>667.0</ele><time>2026-04-06T09:03:05.598Z</time></trkpt><trkpt lat="44.5263867" lon="9.2571583"><ele>667.0</ele><time>2026-04-06T09:03:06.599Z</time></trkpt><trkpt lat="44.52641" lon="9.256905"><ele>667.0</ele><time>2026-04-06T09:03:07.598Z</time></trkpt><trkpt lat="44.52646" lon="9.256655"><ele>667.0</ele><time>2026-04-06T09:03:08.6Z</time></trkpt><trkpt lat="44.5265333" lon="9.25641"><ele>664.6666666666667</ele><time>2026-04-06T09:03:09.6Z</time></trkpt><trkpt lat="44.5266267" lon="9.256165"><ele>662.3333333333334</ele><time>2026-04-06T09:03:10.598Z</time></trkpt><trkpt lat="44.5267317" lon="9.2559233"><ele>660.0</ele><time>2026-04-06T09:03:11.599Z</time></trkpt><trkpt lat="44.5268367" lon="9.2556867"><ele>658.0</ele><time>2026-04-06T09:03:12.599Z</time></trkpt><trkpt lat="44.5269467" lon="9.255455"><ele>656.0</ele><time>2026-04-06T09:03:13.598Z</time></trkpt><trkpt lat="44.5270633" lon="9.2552267"><ele>654.0</ele><time>2026-04-06T09:03:14.6Z</time></trkpt><trkpt lat="44.527185" lon="9.255"><ele>655.0</ele><time>2026-04-06T09:03:15.598Z</time></trkpt><trkpt lat="44.527315" lon="9.2547683"><ele>656.0</ele><time>2026-04-06T09:03:16.598Z</time></trkpt><trkpt lat="44.5274467" lon="9.2545383"><ele>657.0</ele><time>2026-04-06T09:03:17.599Z</time></trkpt><trkpt lat="44.527575" lon="9.254305"><ele>657.0</ele><time>2026-04-06T09:03:18.599Z</time></trkpt><trkpt lat="44.5276983" lon="9.254075"><ele>657.0</ele><time>2026-04-06T09:03:19.599Z</time></trkpt><trkpt lat="44.5278167" lon="9.2538517"><ele>657.0</ele><time>2026-04-06T09:03:20.599Z</time></trkpt><trkpt lat="44.52793" lon="9.2536433"><ele>662.0</ele><time>2026-04-06T09:03:21.599Z</time></trkpt><trkpt lat="44.528035" lon="9.2534467"><ele>667.0</ele><time>2026-04-06T09:03:22.599Z</time></trkpt><trkpt lat="44.5281317" lon="9.2532633"><ele>672.0</ele><time>2026-04-06T09:03:23.598Z</time></trkpt><trkpt lat="44.5282167" lon="9.2530833"><ele>672.0</ele><time>2026-04-06T09:03:24.648Z</time></trkpt><trkpt lat="44.5282783" lon="9.2528933"><ele>672.0</ele><time>2026-04-06T09:03:25.604Z</time></trkpt><trkpt lat="44.52831" lon="9.25268"><ele>672.0</ele><time>2026-04-06T09:03:26.599Z</time></trkpt><trkpt lat="44.5283183" lon="9.25246"><ele>672.5</ele><time>2026-04-06T09:03:27.648Z</time></trkpt><trkpt lat="44.5283117" lon="9.2522483"><ele>673.0</ele><time>2026-04-06T09:03:28.598Z</time></trkpt><trkpt lat="44.5282933" lon="9.2520533"><ele>673.5</ele><time>2026-04-06T09:03:29.598Z</time></trkpt><trkpt lat="44.5282583" lon="9.25187"><ele>674.0</ele><time>2026-04-06T09:03:30.599Z</time></trkpt><trkpt lat="44.528205" lon="9.2516967"><ele>674.0</ele><time>2026-04-06T09:03:31.598Z</time></trkpt><trkpt lat="44.5281367" lon="9.25153"><ele>674.0</ele><time>2026-04-06T09:03:32.599Z</time></trkpt><trkpt lat="44.5280567" lon="9.25138"><ele>674.0</ele><time>2026-04-06T09:03:33.599Z</time></trkpt><trkpt lat="44.52797" lon="9.2512483"><ele>674.0</ele><time>2026-04-06T09:03:34.599Z</time></trkpt><trkpt lat="44.5278817" lon="9.2511383"><ele>670.4000000000001</ele><time>2026-04-06T09:03:35.599Z</time></trkpt><trkpt lat="44.5277917" lon="9.2510433"><ele>666.8</ele><time>2026-04-06T09:03:36.599Z</time></trkpt><trkpt lat="44.52771" lon="9.2509683"><ele>663.2</ele><time>2026-04-06T09:03:37.598Z</time></trkpt><trkpt lat="44.5276383" lon="9.25092"><ele>659.5999999999999</ele><time>2026-04-06T09:03:38.601Z</time></trkpt><trkpt lat="44.5275767" lon="9.250895"><ele>656.0</ele><time>2026-04-06T09:03:39.601Z</time></trkpt><trkpt lat="44.5274683" lon="9.2509817"><ele>656.0</ele><time>2026-04-06T09:03:41.6Z</time></trkpt><trkpt lat="44.5274083" lon="9.2510783"><ele>656.0</ele><time>2026-04-06T09:03:42.598Z</time></trkpt><trkpt lat="44.5273333" lon="9.251195"><ele>656.0</ele><time>2026-04-06T09:03:43.6Z</time></trkpt><trkpt lat="44.527245" lon="9.25132"><ele>656.0</ele><time>2026-04-06T09:03:44.601Z</time></trkpt><trkpt lat="44.5271567" lon="9.251435"><ele>656.0</ele><time>2026-04-06T09:03:45.598Z</time></trkpt><trkpt lat="44.5270717" lon="9.2515283"><ele>655.5</ele><time>2026-04-06T09:03:46.599Z</time></trkpt><trkpt lat="44.5269783" lon="9.2515833"><ele>655.0</ele><time>2026-04-06T09:03:47.6Z</time></trkpt><trkpt lat="44.5268717" lon="9.2515817"><ele>654.5</ele><time>2026-04-06T09:03:48.598Z</time></trkpt><trkpt lat="44.5267483" lon="9.251535"><ele>654.0</ele><time>2026-04-06T09:03:49.599Z</time></trkpt><trkpt lat="44.526615" lon="9.251455"><ele>654.0</ele><time>2026-04-06T09:03:50.6Z</time></trkpt><trkpt lat="44.5264667" lon="9.251345"><ele>654.0</ele><time>2026-04-06T09:03:51.601Z</time></trkpt><trkpt lat="44.5263117" lon="9.2512167"><ele>654.0</ele><time>2026-04-06T09:03:52.601Z</time></trkpt><trkpt lat="44.5261483" lon="9.25108"><ele>657.0</ele><time>2026-04-06T09:03:53.601Z</time></trkpt><trkpt lat="44.5259783" lon="9.2509433"><ele>660.0</ele><time>2026-04-06T09:03:54.6Z</time></trkpt><trkpt lat="44.5258117" lon="9.2508017"><ele>663.0</ele><time>2026-04-06T09:03:55.601Z</time></trkpt><trkpt lat="44.525645" lon="9.2506667"><ele>663.6666666666666</ele><time>2026-04-06T09:03:56.6Z</time></trkpt><trkpt lat="44.52548" lon="9.25054"><ele>664.3333333333333</ele><time>2026-04-06T09:03:57.6Z</time></trkpt><trkpt lat="44.5253233" lon="9.2504167"><ele>665.0</ele><time>2026-04-06T09:03:58.601Z</time></trkpt><trkpt lat="44.5251767" lon="9.2503"><ele>665.0</ele><time>2026-04-06T09:03:59.601Z</time></trkpt><trkpt lat="44.5250417" lon="9.2501783"><ele>665.0</ele><time>2026-04-06T09:04:00.601Z</time></trkpt><trkpt lat="44.52492" lon="9.2500383"><ele>665.0</ele><time>2026-04-06T09:04:01.6Z</time></trkpt><trkpt lat="44.5248067" lon="9.2498783"><ele>661.6666666666666</ele><time>2026-04-06T09:04:02.6Z</time></trkpt><trkpt lat="44.524705" lon="9.2496983"><ele>658.3333333333334</ele><time>2026-04-06T09:04:03.6Z</time></trkpt><trkpt lat="44.5246233" lon="9.2494967"><ele>655.0</ele><time>2026-04-06T09:04:04.6Z</time></trkpt><trkpt lat="44.5245633" lon="9.2492733"><ele>657.3333333333334</ele><time>2026-04-06T09:04:05.601Z</time></trkpt><trkpt lat="44.52452" lon="9.2490317"><ele>659.6666666666666</ele><time>2026-04-06T09:04:06.601Z</time></trkpt><trkpt lat="44.524485" lon="9.248785"><ele>662.0</ele><time>2026-04-06T09:04:07.601Z</time></trkpt><trkpt lat="44.5244533" lon="9.24854"><ele>662.0</ele><time>2026-04-06T09:04:08.601Z</time></trkpt><trkpt lat="44.5244217" lon="9.2483067"><ele>662.0</ele><time>2026-04-06T09:04:09.599Z</time></trkpt><trkpt lat="44.5243917" lon="9.24809"><ele>662.0</ele><time>2026-04-06T09:04:10.598Z</time></trkpt><trkpt lat="44.5243633" lon="9.247885"><ele>662.25</ele><time>2026-04-06T09:04:11.599Z</time></trkpt><trkpt lat="44.524335" lon="9.247695"><ele>662.5</ele><time>2026-04-06T09:04:12.599Z</time></trkpt><trkpt lat="44.5243" lon="9.247525"><ele>662.75</ele><time>2026-04-06T09:04:13.599Z</time></trkpt><trkpt lat="44.5242433" lon="9.2473767"><ele>663.0</ele><time>2026-04-06T09:04:14.599Z</time></trkpt><trkpt lat="44.52417" lon="9.2472467"><ele>663.0</ele><time>2026-04-06T09:04:15.598Z</time></trkpt><trkpt lat="44.52409" lon="9.2471317"><ele>663.0</ele><time>2026-04-06T09:04:16.602Z</time></trkpt><trkpt lat="44.524015" lon="9.2470283"><ele>663.0</ele><time>2026-04-06T09:04:17.599Z</time></trkpt><trkpt lat="44.52395" lon="9.2469267"><ele>663.0</ele><time>2026-04-06T09:04:18.6Z</time></trkpt><trkpt lat="44.5239067" lon="9.2468083"><ele>663.0</ele><time>2026-04-06T09:04:19.601Z</time></trkpt><trkpt lat="44.523875" lon="9.2466717"><ele>663.0</ele><time>2026-04-06T09:04:20.6Z</time></trkpt><trkpt lat="44.523845" lon="9.2465033"><ele>663.0</ele><time>2026-04-06T09:04:21.601Z</time></trkpt><trkpt lat="44.5238133" lon="9.246315"><ele>663.0</ele><time>2026-04-06T09:04:22.601Z</time></trkpt><trkpt lat="44.52379" lon="9.2461083"><ele>663.0</ele><time>2026-04-06T09:04:23.6Z</time></trkpt><trkpt lat="44.5237817" lon="9.24589"><ele>664.0</ele><time>2026-04-06T09:04:24.601Z</time></trkpt><trkpt lat="44.52379" lon="9.2456567"><ele>665.0</ele><time>2026-04-06T09:04:25.6Z</time></trkpt><trkpt lat="44.5238117" lon="9.245415"><ele>666.0</ele><time>2026-04-06T09:04:26.601Z</time></trkpt><trkpt lat="44.5238467" lon="9.2451633"><ele>668.0</ele><time>2026-04-06T09:04:27.601Z</time></trkpt><trkpt lat="44.5238783" lon="9.244915"><ele>670.0</ele><time>2026-04-06T09:04:28.601Z</time></trkpt><trkpt lat="44.5239017" lon="9.244685"><ele>672.0</ele><time>2026-04-06T09:04:29.6Z</time></trkpt><trkpt lat="44.5239167" lon="9.244475"><ele>673.75</ele><time>2026-04-06T09:04:30.599Z</time></trkpt><trkpt lat="44.52394" lon="9.2442783"><ele>675.5</ele><time>2026-04-06T09:04:31.598Z</time></trkpt><trkpt lat="44.5239883" lon="9.2440833"><ele>677.25</ele><time>2026-04-06T09:04:32.598Z</time></trkpt><trkpt lat="44.524055" lon="9.243885"><ele>679.0</ele><time>2026-04-06T09:04:33.6Z</time></trkpt><trkpt lat="44.5241333" lon="9.2436867"><ele>683.75</ele><time>2026-04-06T09:04:34.598Z</time></trkpt><trkpt lat="44.5242067" lon="9.2435017"><ele>688.5</ele><time>2026-04-06T09:04:35.598Z</time></trkpt><trkpt lat="44.5242733" lon="9.2433417"><ele>693.25</ele><time>2026-04-06T09:04:36.599Z</time></trkpt><trkpt lat="44.52433" lon="9.2431933"><ele>698.0</ele><time>2026-04-06T09:04:37.599Z</time></trkpt><trkpt lat="44.5243617" lon="9.243045"><ele>701.25</ele><time>2026-04-06T09:04:38.6Z</time></trkpt><trkpt lat="44.5243667" lon="9.24288"><ele>704.5</ele><time>2026-04-06T09:04:39.598Z</time></trkpt><trkpt lat="44.5243517" lon="9.2427083"><ele>707.75</ele><time>2026-04-06T09:04:40.598Z</time></trkpt><trkpt lat="44.524345" lon="9.24255"><ele>711.0</ele><time>2026-04-06T09:04:41.599Z</time></trkpt><trkpt lat="44.524365" lon="9.242405"><ele>713.0</ele><time>2026-04-06T09:04:42.602Z</time></trkpt><trkpt lat="44.5244167" lon="9.2422783"><ele>715.0</ele><time>2026-04-06T09:04:43.599Z</time></trkpt><trkpt lat="44.524465" lon="9.2421667"><ele>717.0</ele><time>2026-04-06T09:04:44.599Z</time></trkpt><trkpt lat="44.5244817" lon="9.2420467"><ele>719.0</ele><time>2026-04-06T09:04:45.598Z</time></trkpt><trkpt lat="44.5244833" lon="9.241915"><ele>721.0</ele><time>2026-04-06T09:04:46.599Z</time></trkpt><trkpt lat="44.5244517" lon="9.2417683"><ele>721.0</ele><time>2026-04-06T09:04:47.6Z</time></trkpt><trkpt lat="44.5244267" lon="9.2416167"><ele>721.0</ele><time>2026-04-06T09:04:48.599Z</time></trkpt><trkpt lat="44.52443" lon="9.2414567"><ele>721.0</ele><time>2026-04-06T09:04:49.598Z</time></trkpt><trkpt lat="44.5244483" lon="9.2412917"><ele>721.0</ele><time>2026-04-06T09:04:50.6Z</time></trkpt><trkpt lat="44.52446" lon="9.241115"><ele>722.0</ele><time>2026-04-06T09:04:51.598Z</time></trkpt><trkpt lat="44.5244533" lon="9.2409167"><ele>723.0</ele><time>2026-04-06T09:04:52.6Z</time></trkpt><trkpt lat="44.52443" lon="9.2407017"><ele>724.0</ele><time>2026-04-06T09:04:53.601Z</time></trkpt><trkpt lat="44.5244017" lon="9.2404783"><ele>725.25</ele><time>2026-04-06T09:04:54.6Z</time></trkpt><trkpt lat="44.5243667" lon="9.240265"><ele>726.5</ele><time>2026-04-06T09:04:55.6Z</time></trkpt><trkpt lat="44.5243417" lon="9.2400717"><ele>727.75</ele><time>2026-04-06T09:04:56.6Z</time></trkpt><trkpt lat="44.5243217" lon="9.2399033"><ele>729.0</ele><time>2026-04-06T09:04:57.599Z</time></trkpt><trkpt lat="44.5243267" lon="9.2397583"><ele>730.6</ele><time>2026-04-06T09:04:58.599Z</time></trkpt><trkpt lat="44.5243617" lon="9.23963"><ele>732.2</ele><time>2026-04-06T09:04:59.599Z</time></trkpt><trkpt lat="44.5244317" lon="9.239525"><ele>733.8000000000001</ele><time>2026-04-06T09:05:00.6Z</time></trkpt><trkpt lat="44.5245333" lon="9.23945"><ele>735.4000000000001</ele><time>2026-04-06T09:05:01.599Z</time></trkpt><trkpt lat="44.524645" lon="9.2393967"><ele>737.0</ele><time>2026-04-06T09:05:02.599Z</time></trkpt><trkpt lat="44.5247367" lon="9.2393467"><ele>731.6</ele><time>2026-04-06T09:05:03.604Z</time></trkpt><trkpt lat="44.5248033" lon="9.2392783"><ele>726.2</ele><time>2026-04-06T09:05:04.6Z</time></trkpt><trkpt lat="44.524835" lon="9.2391967"><ele>720.8</ele><time>2026-04-06T09:05:05.6Z</time></trkpt><trkpt lat="44.5247767" lon="9.23908"><ele>715.4</ele><time>2026-04-06T09:05:07.598Z</time></trkpt><trkpt lat="44.5246833" lon="9.239085"><ele>710.0</ele><time>2026-04-06T09:05:08.599Z</time></trkpt><trkpt lat="44.5245733" lon="9.23911"><ele>719.0</ele><time>2026-04-06T09:05:09.599Z</time></trkpt><trkpt lat="44.5244417" lon="9.2391733"><ele>728.0</ele><time>2026-04-06T09:05:10.598Z</time></trkpt><trkpt lat="44.5242883" lon="9.2392917"><ele>737.0</ele><time>2026-04-06T09:05:11.6Z</time></trkpt><trkpt lat="44.5241617" lon="9.23942"><ele>737.0</ele><time>2026-04-06T09:05:12.599Z</time></trkpt><trkpt lat="44.5240517" lon="9.239585"><ele>737.0</ele><time>2026-04-06T09:05:13.599Z</time></trkpt><trkpt lat="44.5239617" lon="9.23978"><ele>737.0</ele><time>2026-04-06T09:05:14.6Z</time></trkpt><trkpt lat="44.5238867" lon="9.2399917"><ele>734.3333333333333</ele><time>2026-04-06T09:05:15.601Z</time></trkpt><trkpt lat="44.5238283" lon="9.24021"><ele>731.6666666666666</ele><time>2026-04-06T09:05:16.601Z</time></trkpt><trkpt lat="44.5237717" lon="9.2404117"><ele>729.0</ele><time>2026-04-06T09:05:17.599Z</time></trkpt><trkpt lat="44.5237117" lon="9.2405983"><ele>738.0</ele><time>2026-04-06T09:05:18.599Z</time></trkpt><trkpt lat="44.5236483" lon="9.240775"><ele>747.0</ele><time>2026-04-06T09:05:19.6Z</time></trkpt><trkpt lat="44.5235883" lon="9.240955"><ele>756.0</ele><time>2026-04-06T09:05:20.6Z</time></trkpt><trkpt lat="44.5235383" lon="9.241145"><ele>765.0</ele><time>2026-04-06T09:05:21.598Z</time></trkpt><trkpt lat="44.5235067" lon="9.24135"><ele>764.75</ele><time>2026-04-06T09:05:22.598Z</time></trkpt><trkpt lat="44.5234867" lon="9.241555"><ele>764.5</ele><time>2026-04-06T09:05:23.599Z</time></trkpt><trkpt lat="44.5234717" lon="9.2417533"><ele>764.25</ele><time>2026-04-06T09:05:24.599Z</time></trkpt><trkpt lat="44.5234433" lon="9.24195"><ele>764.0</ele><time>2026-04-06T09:05:25.598Z</time></trkpt><trkpt lat="44.5233983" lon="9.2421483"><ele>763.3333333333333</ele><time>2026-04-06T09:05:26.599Z</time></trkpt><trkpt lat="44.5233367" lon="9.242355"><ele>762.6666666666666</ele><time>2026-04-06T09:05:27.599Z</time></trkpt><trkpt lat="44.523265" lon="9.2425683"><ele>762.0</ele><time>2026-04-06T09:05:28.603Z</time></trkpt><trkpt lat="44.5232" lon="9.24278"><ele>762.0</ele><time>2026-04-06T09:05:29.599Z</time></trkpt><trkpt lat="44.5231383" lon="9.2429833"><ele>762.0</ele><time>2026-04-06T09:05:30.598Z</time></trkpt><trkpt lat="44.5230667" lon="9.2431733"><ele>762.0</ele><time>2026-04-06T09:05:31.6Z</time></trkpt><trkpt lat="44.52298" lon="9.2433617"><ele>767.75</ele><time>2026-04-06T09:05:32.598Z</time></trkpt><trkpt lat="44.5228867" lon="9.2435317"><ele>773.5</ele><time>2026-04-06T09:05:33.599Z</time></trkpt><trkpt lat="44.5227917" lon="9.2436833"><ele>779.25</ele><time>2026-04-06T09:05:34.6Z</time></trkpt><trkpt lat="44.5227167" lon="9.2438233"><ele>785.0</ele><time>2026-04-06T09:05:35.6Z</time></trkpt><trkpt lat="44.52265" lon="9.243945"><ele>781.0000000000001</ele><time>2026-04-06T09:05:36.599Z</time></trkpt><trkpt lat="44.522585" lon="9.2440517"><ele>777.0</ele><time>2026-04-06T09:05:37.6Z</time></trkpt><trkpt lat="44.5225183" lon="9.2441233"><ele>773.0</ele><time>2026-04-06T09:05:38.6Z</time></trkpt><trkpt lat="44.5224433" lon="9.2441483"><ele>769.0</ele><time>2026-04-06T09:05:39.601Z</time></trkpt><trkpt lat="44.5223617" lon="9.24414"><ele>765.0</ele><time>2026-04-06T09:05:40.598Z</time></trkpt><trkpt lat="44.5222817" lon="9.2440883"><ele>761.0</ele><time>2026-04-06T09:05:41.599Z</time></trkpt><trkpt lat="44.5221933" lon="9.2439867"><ele>766.0</ele><time>2026-04-06T09:05:42.599Z</time></trkpt><trkpt lat="44.52213" lon="9.2438217"><ele>771.0</ele><time>2026-04-06T09:05:43.599Z</time></trkpt><trkpt lat="44.5220633" lon="9.2436717"><ele>776.0</ele><time>2026-04-06T09:05:44.599Z</time></trkpt><trkpt lat="44.5220033" lon="9.2435417"><ele>781.0</ele><time>2026-04-06T09:05:45.601Z</time></trkpt><trkpt lat="44.5219367" lon="9.2434367"><ele>781.0</ele><time>2026-04-06T09:05:46.598Z</time></trkpt><trkpt lat="44.521855" lon="9.2433583"><ele>781.0</ele><time>2026-04-06T09:05:47.598Z</time></trkpt><trkpt lat="44.521765" lon="9.24331"><ele>781.0</ele><time>2026-04-06T09:05:48.599Z</time></trkpt><trkpt lat="44.5216733" lon="9.24328"><ele>781.0</ele><time>2026-04-06T09:05:49.601Z</time></trkpt><trkpt lat="44.5215883" lon="9.2432467"><ele>781.0</ele><time>2026-04-06T09:05:50.601Z</time></trkpt><trkpt lat="44.52151" lon="9.2431867"><ele>785.4</ele><time>2026-04-06T09:05:51.601Z</time></trkpt><trkpt lat="44.521445" lon="9.2430783"><ele>789.8</ele><time>2026-04-06T09:05:52.601Z</time></trkpt><trkpt lat="44.5213833" lon="9.2429667"><ele>794.1999999999999</ele><time>2026-04-06T09:05:53.6Z</time></trkpt><trkpt lat="44.5213233" lon="9.2428717"><ele>798.5999999999999</ele><time>2026-04-06T09:05:54.6Z</time></trkpt><trkpt lat="44.52126" lon="9.2427967"><ele>803.0</ele><time>2026-04-06T09:05:55.598Z</time></trkpt><trkpt lat="44.5211867" lon="9.2427633"><ele>803.0</ele><time>2026-04-06T09:05:56.599Z</time></trkpt><trkpt lat="44.5210917" lon="9.24277"><ele>803.0</ele><time>2026-04-06T09:05:57.6Z</time></trkpt><trkpt lat="44.5209783" lon="9.2427933"><ele>803.0</ele><time>2026-04-06T09:05:58.598Z</time></trkpt><trkpt lat="44.52086" lon="9.242815"><ele>803.0</ele><time>2026-04-06T09:05:59.599Z</time></trkpt><trkpt lat="44.520755" lon="9.242795"><ele>803.0</ele><time>2026-04-06T09:06:00.599Z</time></trkpt><trkpt lat="44.5206583" lon="9.2427567"><ele>803.0</ele><time>2026-04-06T09:06:01.599Z</time></trkpt><trkpt lat="44.5205567" lon="9.2427083"><ele>803.0</ele><time>2026-04-06T09:06:02.599Z</time></trkpt><trkpt lat="44.5204467" lon="9.2426867"><ele>803.0</ele><time>2026-04-06T09:06:03.599Z</time></trkpt><trkpt lat="44.5203417" lon="9.242675"><ele>803.0</ele><time>2026-04-06T09:06:04.601Z</time></trkpt><trkpt lat="44.5202433" lon="9.2426667"><ele>803.0</ele><time>2026-04-06T09:06:05.601Z</time></trkpt><trkpt lat="44.5201467" lon="9.2426317"><ele>799.75</ele><time>2026-04-06T09:06:06.603Z</time></trkpt><trkpt lat="44.5200467" lon="9.2425667"><ele>796.5</ele><time>2026-04-06T09:06:07.599Z</time></trkpt><trkpt lat="44.51995" lon="9.242475"><ele>793.25</ele><time>2026-04-06T09:06:08.599Z</time></trkpt><trkpt lat="44.51986" lon="9.2423467"><ele>790.0</ele><time>2026-04-06T09:06:09.599Z</time></trkpt><trkpt lat="44.5197717" lon="9.2422217"><ele>793.4</ele><time>2026-04-06T09:06:10.599Z</time></trkpt><trkpt lat="44.5196917" lon="9.2421083"><ele>796.8</ele><time>2026-04-06T09:06:11.6Z</time></trkpt><trkpt lat="44.5196217" lon="9.242015"><ele>800.2</ele><time>2026-04-06T09:06:12.599Z</time></trkpt><trkpt lat="44.5195683" lon="9.241935"><ele>803.6</ele><time>2026-04-06T09:06:13.599Z</time></trkpt><trkpt lat="44.5195383" lon="9.2418033"><ele>807.0</ele><time>2026-04-06T09:06:15.599Z</time></trkpt><trkpt lat="44.5196317" lon="9.241845"><ele>803.6</ele><time>2026-04-06T09:06:17.6Z</time></trkpt><trkpt lat="44.5197083" lon="9.2419117"><ele>800.2</ele><time>2026-04-06T09:06:18.598Z</time></trkpt><trkpt lat="44.5198017" lon="9.2420167"><ele>796.8</ele><time>2026-04-06T09:06:19.6Z</time></trkpt><trkpt lat="44.5198983" lon="9.242135"><ele>793.4</ele><time>2026-04-06T09:06:20.6Z</time></trkpt><trkpt lat="44.519985" lon="9.24223"><ele>790.0</ele><time>2026-04-06T09:06:21.6Z</time></trkpt><trkpt lat="44.520075" lon="9.242305"><ele>790.0</ele><time>2026-04-06T09:06:22.6Z</time></trkpt><trkpt lat="44.5201667" lon="9.2423533"><ele>790.0</ele><time>2026-04-06T09:06:23.6Z</time></trkpt><trkpt lat="44.5202633" lon="9.2423667"><ele>790.0</ele><time>2026-04-06T09:06:24.6Z</time></trkpt><trkpt lat="44.520365" lon="9.242345"><ele>790.0</ele><time>2026-04-06T09:06:25.599Z</time></trkpt><trkpt lat="44.52047" lon="9.242315"><ele>790.0</ele><time>2026-04-06T09:06:26.599Z</time></trkpt><trkpt lat="44.52058" lon="9.242305"><ele>792.6</ele><time>2026-04-06T09:06:27.6Z</time></trkpt><trkpt lat="44.5206867" lon="9.2423217"><ele>795.2</ele><time>2026-04-06T09:06:28.598Z</time></trkpt><trkpt lat="44.5207883" lon="9.2423383"><ele>797.8</ele><time>2026-04-06T09:06:29.599Z</time></trkpt><trkpt lat="44.5208967" lon="9.2423233"><ele>800.4</ele><time>2026-04-06T09:06:30.6Z</time></trkpt><trkpt lat="44.5210083" lon="9.2422867"><ele>803.0</ele><time>2026-04-06T09:06:31.599Z</time></trkpt><trkpt lat="44.5211167" lon="9.2422417"><ele>810.5999999999999</ele><time>2026-04-06T09:06:32.6Z</time></trkpt><trkpt lat="44.5212183" lon="9.2422033"><ele>818.1999999999999</ele><time>2026-04-06T09:06:33.6Z</time></trkpt><trkpt lat="44.52131" lon="9.2421717"><ele>825.8</ele><time>2026-04-06T09:06:34.601Z</time></trkpt><trkpt lat="44.5214" lon="9.2421533"><ele>833.4</ele><time>2026-04-06T09:06:35.599Z</time></trkpt><trkpt lat="44.5214833" lon="9.24217"><ele>841.0</ele><time>2026-04-06T09:06:36.599Z</time></trkpt><trkpt lat="44.5215683" lon="9.2422217"><ele>836.0</ele><time>2026-04-06T09:06:37.599Z</time></trkpt><trkpt lat="44.5216517" lon="9.2423067"><ele>831.0</ele><time>2026-04-06T09:06:38.599Z</time></trkpt><trkpt lat="44.52174" lon="9.2423833"><ele>826.0</ele><time>2026-04-06T09:06:39.599Z</time></trkpt><trkpt lat="44.521835" lon="9.2424417"><ele>821.0</ele><time>2026-04-06T09:06:40.599Z</time></trkpt><trkpt lat="44.5219283" lon="9.2424733"><ele>816.0</ele><time>2026-04-06T09:06:41.598Z</time></trkpt><trkpt lat="44.5220083" lon="9.2424817"><ele>814.1999999999999</ele><time>2026-04-06T09:06:42.599Z</time></trkpt><trkpt lat="44.5220717" lon="9.24246"><ele>812.4</ele><time>2026-04-06T09:06:43.599Z</time></trkpt><trkpt lat="44.5221133" lon="9.24235"><ele>810.6</ele><time>2026-04-06T09:06:45.599Z</time></trkpt><trkpt lat="44.522" lon="9.2422867"><ele>808.8</ele><time>2026-04-06T09:06:47.599Z</time></trkpt><trkpt lat="44.5219117" lon="9.2422867"><ele>807.0</ele><time>2026-04-06T09:06:48.599Z</time></trkpt><trkpt lat="44.5218267" lon="9.2422583"><ele>813.8</ele><time>2026-04-06T09:06:49.598Z</time></trkpt><trkpt lat="44.5217383" lon="9.2422017"><ele>820.6</ele><time>2026-04-06T09:06:50.599Z</time></trkpt><trkpt lat="44.5216583" lon="9.2421"><ele>827.4</ele><time>2026-04-06T09:06:51.598Z</time></trkpt><trkpt lat="44.5215783" lon="9.2419933"><ele>834.1999999999999</ele><time>2026-04-06T09:06:52.599Z</time></trkpt><trkpt lat="44.521495" lon="9.2418917"><ele>841.0</ele><time>2026-04-06T09:06:53.599Z</time></trkpt><trkpt lat="44.5214" lon="9.241815"><ele>841.0</ele><time>2026-04-06T09:06:54.599Z</time></trkpt><trkpt lat="44.5212933" lon="9.241765"><ele>841.0</ele><time>2026-04-06T09:06:55.599Z</time></trkpt><trkpt lat="44.5211767" lon="9.241735"><ele>841.0</ele><time>2026-04-06T09:06:56.599Z</time></trkpt><trkpt lat="44.5210617" lon="9.24171"><ele>841.0</ele><time>2026-04-06T09:06:57.599Z</time></trkpt><trkpt lat="44.5209517" lon="9.2416767"><ele>841.25</ele><time>2026-04-06T09:06:58.599Z</time></trkpt><trkpt lat="44.5208383" lon="9.2416283"><ele>841.5</ele><time>2026-04-06T09:06:59.599Z</time></trkpt><trkpt lat="44.5207217" lon="9.2415667"><ele>841.75</ele><time>2026-04-06T09:07:00.599Z</time></trkpt><trkpt lat="44.5206017" lon="9.241505"><ele>842.0</ele><time>2026-04-06T09:07:01.6Z</time></trkpt><trkpt lat="44.5204883" lon="9.2414517"><ele>845.5</ele><time>2026-04-06T09:07:02.599Z</time></trkpt><trkpt lat="44.52037" lon="9.2413967"><ele>849.0</ele><time>2026-04-06T09:07:03.6Z</time></trkpt><trkpt lat="44.5202583" lon="9.2413233"><ele>852.5</ele><time>2026-04-06T09:07:04.598Z</time></trkpt><trkpt lat="44.5201533" lon="9.2412217"><ele>856.0</ele><time>2026-04-06T09:07:05.599Z</time></trkpt><trkpt lat="44.5200483" lon="9.241115"><ele>856.0</ele><time>2026-04-06T09:07:06.598Z</time></trkpt><trkpt lat="44.519955" lon="9.2409983"><ele>856.0</ele><time>2026-04-06T09:07:07.6Z</time></trkpt><trkpt lat="44.51987" lon="9.2408733"><ele>856.0</ele><time>2026-04-06T09:07:08.599Z</time></trkpt><trkpt lat="44.5197867" lon="9.240745"><ele>856.0</ele><time>2026-04-06T09:07:09.599Z</time></trkpt><trkpt lat="44.519685" lon="9.240625"><ele>859.0</ele><time>2026-04-06T09:07:10.599Z</time></trkpt><trkpt lat="44.5195633" lon="9.2405367"><ele>862.0</ele><time>2026-04-06T09:07:11.598Z</time></trkpt><trkpt lat="44.51943" lon="9.2404617"><ele>865.0</ele><time>2026-04-06T09:07:12.599Z</time></trkpt><trkpt lat="44.519295" lon="9.2403817"><ele>868.0</ele><time>2026-04-06T09:07:13.599Z</time></trkpt><trkpt lat="44.519165" lon="9.2402933"><ele>868.0</ele><time>2026-04-06T09:07:14.601Z</time></trkpt><trkpt lat="44.5190433" lon="9.2402017"><ele>868.0</ele><time>2026-04-06T09:07:15.6Z</time></trkpt><trkpt lat="44.518925" lon="9.2401183"><ele>868.0</ele><time>2026-04-06T09:07:16.598Z</time></trkpt><trkpt lat="44.5188167" lon="9.2400467"><ele>868.0</ele><time>2026-04-06T09:07:17.599Z</time></trkpt><trkpt lat="44.5187167" lon="9.2399833"><ele>868.9999999999999</ele><time>2026-04-06T09:07:18.599Z</time></trkpt><trkpt lat="44.51863" lon="9.2399217"><ele>870.0</ele><time>2026-04-06T09:07:19.599Z</time></trkpt><trkpt lat="44.5185483" lon="9.2398817"><ele>871.0</ele><time>2026-04-06T09:07:20.602Z</time></trkpt><trkpt lat="44.518475" lon="9.2398833"><ele>872.0</ele><time>2026-04-06T09:07:21.599Z</time></trkpt><trkpt lat="44.5184017" lon="9.2399367"><ele>872.9999999999999</ele><time>2026-04-06T09:07:22.599Z</time></trkpt><trkpt lat="44.5183317" lon="9.2400217"><ele>874.0</ele><time>2026-04-06T09:07:23.599Z</time></trkpt><trkpt lat="44.5182433" lon="9.2401367"><ele>874.0</ele><time>2026-04-06T09:07:24.601Z</time></trkpt><trkpt lat="44.5181533" lon="9.240255"><ele>874.0000000000001</ele><time>2026-04-06T09:07:25.6Z</time></trkpt><trkpt lat="44.5180667" lon="9.2403733"><ele>874.0000000000001</ele><time>2026-04-06T09:07:26.601Z</time></trkpt><trkpt lat="44.51799" lon="9.240485"><ele>874.0</ele><time>2026-04-06T09:07:27.599Z</time></trkpt><trkpt lat="44.5179267" lon="9.2405717"><ele>874.0</ele><time>2026-04-06T09:07:28.599Z</time></trkpt><trkpt lat="44.5178617" lon="9.24063"><ele>874.6666666666666</ele><time>2026-04-06T09:07:29.599Z</time></trkpt><trkpt lat="44.5177967" lon="9.24065"><ele>875.3333333333333</ele><time>2026-04-06T09:07:30.6Z</time></trkpt><trkpt lat="44.517735" lon="9.2406233"><ele>876.0</ele><time>2026-04-06T09:07:31.598Z</time></trkpt><trkpt lat="44.5176783" lon="9.2405467"><ele>876.6666666666667</ele><time>2026-04-06T09:07:32.599Z</time></trkpt><trkpt lat="44.5176317" lon="9.2404267"><ele>877.3333333333334</ele><time>2026-04-06T09:07:33.598Z</time></trkpt><trkpt lat="44.51758" lon="9.2402833"><ele>878.0</ele><time>2026-04-06T09:07:34.598Z</time></trkpt><trkpt lat="44.5175317" lon="9.240145"><ele>878.0</ele><time>2026-04-06T09:07:35.599Z</time></trkpt><trkpt lat="44.5174833" lon="9.2400233"><ele>878.0</ele><time>2026-04-06T09:07:36.599Z</time></trkpt><trkpt lat="44.5174317" lon="9.2399133"><ele>878.0</ele><time>2026-04-06T09:07:37.599Z</time></trkpt><trkpt lat="44.5173733" lon="9.2398133"><ele>878.0</ele><time>2026-04-06T09:07:38.601Z</time></trkpt><trkpt lat="44.5173067" lon="9.23972"><ele>878.0</ele><time>2026-04-06T09:07:39.599Z</time></trkpt><trkpt lat="44.5172267" lon="9.2396333"><ele>881.2</ele><time>2026-04-06T09:07:40.599Z</time></trkpt><trkpt lat="44.5171333" lon="9.239555"><ele>884.4</ele><time>2026-04-06T09:07:41.599Z</time></trkpt><trkpt lat="44.5170367" lon="9.2394767"><ele>887.6000000000001</ele><time>2026-04-06T09:07:42.6Z</time></trkpt><trkpt lat="44.5169467" lon="9.23939"><ele>890.8000000000001</ele><time>2026-04-06T09:07:43.599Z</time></trkpt><trkpt lat="44.5168533" lon="9.2393083"><ele>894.0</ele><time>2026-04-06T09:07:44.6Z</time></trkpt><trkpt lat="44.5167467" lon="9.239255"><ele>894.0</ele><time>2026-04-06T09:07:45.598Z</time></trkpt><trkpt lat="44.5166333" lon="9.2392167"><ele>894.0</ele><time>2026-04-06T09:07:46.599Z</time></trkpt><trkpt lat="44.516515" lon="9.2391933"><ele>894.0</ele><time>2026-04-06T09:07:47.598Z</time></trkpt><trkpt lat="44.5163933" lon="9.2391533"><ele>894.0</ele><time>2026-04-06T09:07:48.598Z</time></trkpt><trkpt lat="44.5162633" lon="9.2390933"><ele>892.5</ele><time>2026-04-06T09:07:49.599Z</time></trkpt><trkpt lat="44.5161333" lon="9.2390383"><ele>891.0</ele><time>2026-04-06T09:07:50.6Z</time></trkpt><trkpt lat="44.5160117" lon="9.2389833"><ele>889.5</ele><time>2026-04-06T09:07:51.599Z</time></trkpt><trkpt lat="44.5159017" lon="9.23891"><ele>888.0</ele><time>2026-04-06T09:07:52.599Z</time></trkpt><trkpt lat="44.5157967" lon="9.2388167"><ele>890.5999999999999</ele><time>2026-04-06T09:07:53.598Z</time></trkpt><trkpt lat="44.5157017" lon="9.238725"><ele>893.1999999999999</ele><time>2026-04-06T09:07:54.599Z</time></trkpt><trkpt lat="44.51561" lon="9.2386367"><ele>895.8</ele><time>2026-04-06T09:07:55.599Z</time></trkpt><trkpt lat="44.5155233" lon="9.238545"><ele>898.4</ele><time>2026-04-06T09:07:56.599Z</time></trkpt><trkpt lat="44.515445" lon="9.23844"><ele>901.0</ele><time>2026-04-06T09:07:57.598Z</time></trkpt><trkpt lat="44.515385" lon="9.2383317"><ele>901.8333333333333</ele><time>2026-04-06T09:07:58.604Z</time></trkpt><trkpt lat="44.51534" lon="9.23823"><ele>902.6666666666666</ele><time>2026-04-06T09:07:59.599Z</time></trkpt><trkpt lat="44.5152967" lon="9.2381433"><ele>903.5</ele><time>2026-04-06T09:08:00.599Z</time></trkpt><trkpt lat="44.5152383" lon="9.238075"><ele>904.3333333333333</ele><time>2026-04-06T09:08:01.599Z</time></trkpt><trkpt lat="44.5151517" lon="9.238055"><ele>905.1666666666666</ele><time>2026-04-06T09:08:02.599Z</time></trkpt><trkpt lat="44.5150517" lon="9.23805"><ele>906.0</ele><time>2026-04-06T09:08:03.6Z</time></trkpt><trkpt lat="44.514945" lon="9.2380267"><ele>908.0</ele><time>2026-04-06T09:08:04.598Z</time></trkpt><trkpt lat="44.514835" lon="9.2379683"><ele>910.0</ele><time>2026-04-06T09:08:05.599Z</time></trkpt><trkpt lat="44.5147217" lon="9.237885"><ele>912.0</ele><time>2026-04-06T09:08:06.599Z</time></trkpt><trkpt lat="44.51462" lon="9.2377733"><ele>914.0</ele><time>2026-04-06T09:08:07.599Z</time></trkpt><trkpt lat="44.51453" lon="9.237655"><ele>914.0000000000001</ele><time>2026-04-06T09:08:08.598Z</time></trkpt><trkpt lat="44.5144533" lon="9.2375367"><ele>914.0</ele><time>2026-04-06T09:08:09.6Z</time></trkpt><trkpt lat="44.5143867" lon="9.2374317"><ele>914.0</ele><time>2026-04-06T09:08:10.601Z</time></trkpt><trkpt lat="44.51433" lon="9.237345"><ele>914.0</ele><time>2026-04-06T09:08:11.6Z</time></trkpt><trkpt lat="44.5142717" lon="9.2372867"><ele>914.0000000000001</ele><time>2026-04-06T09:08:12.6Z</time></trkpt><trkpt lat="44.5142017" lon="9.23727"><ele>914.0</ele><time>2026-04-06T09:08:13.6Z</time></trkpt><trkpt lat="44.5141183" lon="9.2372933"><ele>914.0</ele><time>2026-04-06T09:08:14.6Z</time></trkpt><trkpt lat="44.51401" lon="9.2373367"><ele>914.0</ele><time>2026-04-06T09:08:15.599Z</time></trkpt><trkpt lat="44.5138833" lon="9.2373783"><ele>914.0</ele><time>2026-04-06T09:08:16.598Z</time></trkpt><trkpt lat="44.513745" lon="9.23742"><ele>914.0</ele><time>2026-04-06T09:08:17.599Z</time></trkpt><trkpt lat="44.5136017" lon="9.2374617"><ele>914.25</ele><time>2026-04-06T09:08:18.598Z</time></trkpt><trkpt lat="44.51346" lon="9.2375083"><ele>914.5</ele><time>2026-04-06T09:08:19.599Z</time></trkpt><trkpt lat="44.5133183" lon="9.2375667"><ele>914.75</ele><time>2026-04-06T09:08:20.599Z</time></trkpt><trkpt lat="44.51317" lon="9.237635"><ele>915.0</ele><time>2026-04-06T09:08:21.601Z</time></trkpt><trkpt lat="44.5130283" lon="9.2377117"><ele>915.5</ele><time>2026-04-06T09:08:22.6Z</time></trkpt><trkpt lat="44.5128967" lon="9.2377767"><ele>916.0</ele><time>2026-04-06T09:08:23.599Z</time></trkpt><trkpt lat="44.512765" lon="9.237825"><ele>916.5</ele><time>2026-04-06T09:08:24.599Z</time></trkpt><trkpt lat="44.5126267" lon="9.2378483"><ele>917.0</ele><time>2026-04-06T09:08:25.599Z</time></trkpt><trkpt lat="44.51248" lon="9.2378417"><ele>917.0</ele><time>2026-04-06T09:08:26.6Z</time></trkpt><trkpt lat="44.5123333" lon="9.2378183"><ele>917.0</ele><time>2026-04-06T09:08:27.597Z</time></trkpt><trkpt lat="44.5121833" lon="9.2377983"><ele>917.0</ele><time>2026-04-06T09:08:28.599Z</time></trkpt><trkpt lat="44.5120267" lon="9.2377883"><ele>924.0</ele><time>2026-04-06T09:08:29.6Z</time></trkpt><trkpt lat="44.5118717" lon="9.2377917"><ele>931.0</ele><time>2026-04-06T09:08:30.598Z</time></trkpt><trkpt lat="44.5117217" lon="9.2378183"><ele>938.0</ele><time>2026-04-06T09:08:31.6Z</time></trkpt><trkpt lat="44.51158" lon="9.2378667"><ele>938.0</ele><time>2026-04-06T09:08:32.6Z</time></trkpt><trkpt lat="44.5114567" lon="9.23793"><ele>938.0</ele><time>2026-04-06T09:08:33.599Z</time></trkpt><trkpt lat="44.511345" lon="9.2379917"><ele>938.0</ele><time>2026-04-06T09:08:34.599Z</time></trkpt><trkpt lat="44.5112567" lon="9.23805"><ele>938.0</ele><time>2026-04-06T09:08:35.598Z</time></trkpt><trkpt lat="44.51118" lon="9.2380917"><ele>938.0</ele><time>2026-04-06T09:08:36.599Z</time></trkpt><trkpt lat="44.5111067" lon="9.2381133"><ele>940.8</ele><time>2026-04-06T09:08:37.599Z</time></trkpt><trkpt lat="44.5109967" lon="9.2380633"><ele>943.5999999999999</ele><time>2026-04-06T09:08:39.6Z</time></trkpt><trkpt lat="44.510935" lon="9.2379917"><ele>946.4000000000001</ele><time>2026-04-06T09:08:40.598Z</time></trkpt><trkpt lat="44.51086" lon="9.2379033"><ele>949.2</ele><time>2026-04-06T09:08:41.599Z</time></trkpt><trkpt lat="44.5107667" lon="9.2378333"><ele>952.0</ele><time>2026-04-06T09:08:42.598Z</time></trkpt><trkpt lat="44.51065" lon="9.23778"><ele>952.0</ele><time>2026-04-06T09:08:43.598Z</time></trkpt><trkpt lat="44.510525" lon="9.2377467"><ele>952.0</ele><time>2026-04-06T09:08:44.6Z</time></trkpt><trkpt lat="44.5103883" lon="9.23771"><ele>952.0</ele><time>2026-04-06T09:08:45.599Z</time></trkpt><trkpt lat="44.5102483" lon="9.2376683"><ele>952.0</ele><time>2026-04-06T09:08:46.598Z</time></trkpt><trkpt lat="44.5101017" lon="9.237635"><ele>953.0</ele><time>2026-04-06T09:08:47.599Z</time></trkpt><trkpt lat="44.5099617" lon="9.2376033"><ele>954.0</ele><time>2026-04-06T09:08:48.6Z</time></trkpt><trkpt lat="44.5098333" lon="9.23756"><ele>955.0</ele><time>2026-04-06T09:08:49.602Z</time></trkpt><trkpt lat="44.5097083" lon="9.2375"><ele>956.0</ele><time>2026-04-06T09:08:50.601Z</time></trkpt><trkpt lat="44.509585" lon="9.23743"><ele>956.75</ele><time>2026-04-06T09:08:51.598Z</time></trkpt><trkpt lat="44.5094633" lon="9.2373617"><ele>957.5</ele><time>2026-04-06T09:08:52.599Z</time></trkpt><trkpt lat="44.5093367" lon="9.2373017"><ele>958.25</ele><time>2026-04-06T09:08:53.598Z</time></trkpt><trkpt lat="44.5092033" lon="9.237245"><ele>959.0</ele><time>2026-04-06T09:08:54.599Z</time></trkpt><trkpt lat="44.50908" lon="9.23719"><ele>959.0</ele><time>2026-04-06T09:08:55.599Z</time></trkpt><trkpt lat="44.5089683" lon="9.23713"><ele>959.0000000000001</ele><time>2026-04-06T09:08:56.599Z</time></trkpt><trkpt lat="44.5088617" lon="9.23707"><ele>959.0000000000001</ele><time>2026-04-06T09:08:57.599Z</time></trkpt><trkpt lat="44.50877" lon="9.2370033"><ele>959.0</ele><time>2026-04-06T09:08:58.599Z</time></trkpt><trkpt lat="44.5086917" lon="9.2369083"><ele>959.0</ele><time>2026-04-06T09:08:59.598Z</time></trkpt><trkpt lat="44.5086267" lon="9.23678"><ele>958.8000000000001</ele><time>2026-04-06T09:09:00.599Z</time></trkpt><trkpt lat="44.50858" lon="9.236645"><ele>958.6000000000001</ele><time>2026-04-06T09:09:01.6Z</time></trkpt><trkpt lat="44.508555" lon="9.2365067"><ele>958.4</ele><time>2026-04-06T09:09:02.599Z</time></trkpt><trkpt lat="44.5085533" lon="9.2363717"><ele>958.2</ele><time>2026-04-06T09:09:03.599Z</time></trkpt><trkpt lat="44.5085583" lon="9.236255"><ele>958.0</ele><time>2026-04-06T09:09:04.599Z</time></trkpt><trkpt lat="44.5085517" lon="9.2361567"><ele>958.0</ele><time>2026-04-06T09:09:05.599Z</time></trkpt><trkpt lat="44.5085267" lon="9.23607"><ele>958.0</ele><time>2026-04-06T09:09:06.6Z</time></trkpt><trkpt lat="44.508415" lon="9.2360483"><ele>958.0</ele><time>2026-04-06T09:09:08.603Z</time></trkpt><trkpt lat="44.5083333" lon="9.236115"><ele>958.0</ele><time>2026-04-06T09:09:09.599Z</time></trkpt><trkpt lat="44.5082383" lon="9.2361983"><ele>958.0</ele><time>2026-04-06T09:09:10.6Z</time></trkpt><trkpt lat="44.5081317" lon="9.236285"><ele>958.0</ele><time>2026-04-06T09:09:11.599Z</time></trkpt><trkpt lat="44.5080167" lon="9.2363633"><ele>958.0</ele><time>2026-04-06T09:09:12.602Z</time></trkpt><trkpt lat="44.5079033" lon="9.2364317"><ele>958.0</ele><time>2026-04-06T09:09:13.599Z</time></trkpt><trkpt lat="44.5077967" lon="9.2365133"><ele>958.0</ele><time>2026-04-06T09:09:14.6Z</time></trkpt><trkpt lat="44.5076983" lon="9.2366283"><ele>962.25</ele><time>2026-04-06T09:09:15.599Z</time></trkpt><trkpt lat="44.5076183" lon="9.236785"><ele>966.5</ele><time>2026-04-06T09:09:16.599Z</time></trkpt><trkpt lat="44.50755" lon="9.2369633"><ele>970.75</ele><time>2026-04-06T09:09:17.599Z</time></trkpt><trkpt lat="44.5074817" lon="9.2371333"><ele>975.0</ele><time>2026-04-06T09:09:18.601Z</time></trkpt><trkpt lat="44.5074117" lon="9.237285"><ele>976.25</ele><time>2026-04-06T09:09:19.6Z</time></trkpt><trkpt lat="44.5073333" lon="9.2374117"><ele>977.5</ele><time>2026-04-06T09:09:20.599Z</time></trkpt><trkpt lat="44.5072433" lon="9.2375267"><ele>978.75</ele><time>2026-04-06T09:09:21.6Z</time></trkpt><trkpt lat="44.5071367" lon="9.237635"><ele>980.0</ele><time>2026-04-06T09:09:22.598Z</time></trkpt><trkpt lat="44.5070167" lon="9.2377367"><ele>980.0</ele><time>2026-04-06T09:09:23.599Z</time></trkpt><trkpt lat="44.5068983" lon="9.2378267"><ele>980.0</ele><time>2026-04-06T09:09:24.6Z</time></trkpt><trkpt lat="44.50678" lon="9.237895"><ele>980.0</ele><time>2026-04-06T09:09:25.599Z</time></trkpt><trkpt lat="44.50665" lon="9.23794"><ele>980.0</ele><time>2026-04-06T09:09:26.598Z</time></trkpt><trkpt lat="44.5065067" lon="9.237975"><ele>980.0</ele><time>2026-04-06T09:09:27.599Z</time></trkpt><trkpt lat="44.5063633" lon="9.2380117"><ele>980.0</ele><time>2026-04-06T09:09:28.599Z</time></trkpt><trkpt lat="44.5062267" lon="9.2380567"><ele>980.0</ele><time>2026-04-06T09:09:29.599Z</time></trkpt><trkpt lat="44.506105" lon="9.2381117"><ele>980.0</ele><time>2026-04-06T09:09:30.6Z</time></trkpt><trkpt lat="44.505995" lon="9.2381583"><ele>983.8</ele><time>2026-04-06T09:09:31.601Z</time></trkpt><trkpt lat="44.50589" lon="9.2381783"><ele>987.6</ele><time>2026-04-06T09:09:32.599Z</time></trkpt><trkpt lat="44.5057967" lon="9.2381867"><ele>991.4000000000001</ele><time>2026-04-06T09:09:33.599Z</time></trkpt><trkpt lat="44.50571" lon="9.2382133"><ele>995.2</ele><time>2026-04-06T09:09:34.6Z</time></trkpt><trkpt lat="44.5056333" lon="9.2382633"><ele>999.0</ele><time>2026-04-06T09:09:35.601Z</time></trkpt><trkpt lat="44.5055783" lon="9.238385"><ele>999.0</ele><time>2026-04-06T09:09:36.599Z</time></trkpt><trkpt lat="44.5055333" lon="9.2385317"><ele>999.0</ele><time>2026-04-06T09:09:37.599Z</time></trkpt><trkpt lat="44.505475" lon="9.2386817"><ele>999.0</ele><time>2026-04-06T09:09:38.601Z</time></trkpt><trkpt lat="44.5053983" lon="9.2388383"><ele>999.0</ele><time>2026-04-06T09:09:39.599Z</time></trkpt><trkpt lat="44.5052917" lon="9.23899"><ele>999.3333333333333</ele><time>2026-04-06T09:09:40.6Z</time></trkpt><trkpt lat="44.5051667" lon="9.2391333"><ele>999.6666666666666</ele><time>2026-04-06T09:09:41.598Z</time></trkpt><trkpt lat="44.5050383" lon="9.2392717"><ele>1000.0</ele><time>2026-04-06T09:09:42.599Z</time></trkpt><trkpt lat="44.5049217" lon="9.2394017"><ele>1000.0</ele><time>2026-04-06T09:09:43.6Z</time></trkpt><trkpt lat="44.5048167" lon="9.2395267"><ele>1000.0</ele><time>2026-04-06T09:09:44.6Z</time></trkpt><trkpt lat="44.5047233" lon="9.239645"><ele>1000.0</ele><time>2026-04-06T09:09:45.599Z</time></trkpt><trkpt lat="44.50463" lon="9.2397467"><ele>1000.0</ele><time>2026-04-06T09:09:46.599Z</time></trkpt><trkpt lat="44.5045217" lon="9.23982"><ele>1002.75</ele><time>2026-04-06T09:09:47.599Z</time></trkpt><trkpt lat="44.5044033" lon="9.23988"><ele>1005.5</ele><time>2026-04-06T09:09:48.599Z</time></trkpt><trkpt lat="44.5042783" lon="9.239935"><ele>1008.25</ele><time>2026-04-06T09:09:49.599Z</time></trkpt><trkpt lat="44.5041583" lon="9.2399933"><ele>1011.0</ele><time>2026-04-06T09:09:50.601Z</time></trkpt><trkpt lat="44.5040433" lon="9.2400467"><ele>1011.0</ele><time>2026-04-06T09:09:51.6Z</time></trkpt><trkpt lat="44.50393" lon="9.240085"><ele>1011.0</ele><time>2026-04-06T09:09:52.601Z</time></trkpt><trkpt lat="44.5038067" lon="9.2401017"><ele>1011.0</ele><time>2026-04-06T09:09:53.598Z</time></trkpt><trkpt lat="44.5036767" lon="9.2400933"><ele>1011.0</ele><time>2026-04-06T09:09:54.599Z</time></trkpt><trkpt lat="44.503545" lon="9.2400733"><ele>1012.25</ele><time>2026-04-06T09:09:55.599Z</time></trkpt><trkpt lat="44.5034233" lon="9.2400467"><ele>1013.5</ele><time>2026-04-06T09:09:56.599Z</time></trkpt><trkpt lat="44.5033083" lon="9.2400067"><ele>1014.75</ele><time>2026-04-06T09:09:57.599Z</time></trkpt><trkpt lat="44.5032017" lon="9.2399433"><ele>1016.0</ele><time>2026-04-06T09:09:58.599Z</time></trkpt><trkpt lat="44.503115" lon="9.239855"><ele>1017.1999999999999</ele><time>2026-04-06T09:09:59.599Z</time></trkpt><trkpt lat="44.50304" lon="9.2397783"><ele>1018.3999999999999</ele><time>2026-04-06T09:10:00.6Z</time></trkpt><trkpt lat="44.5029583" lon="9.2397233"><ele>1019.6</ele><time>2026-04-06T09:10:01.599Z</time></trkpt><trkpt lat="44.5028817" lon="9.2396967"><ele>1020.8</ele><time>2026-04-06T09:10:02.599Z</time></trkpt><trkpt lat="44.5027883" lon="9.2397083"><ele>1022.0</ele><time>2026-04-06T09:10:03.599Z</time></trkpt><trkpt lat="44.5026867" lon="9.2398117"><ele>1022.0</ele><time>2026-04-06T09:10:04.599Z</time></trkpt><trkpt lat="44.5025883" lon="9.2399"><ele>1022.0</ele><time>2026-04-06T09:10:05.6Z</time></trkpt><trkpt lat="44.5024833" lon="9.23997"><ele>1022.0</ele><time>2026-04-06T09:10:06.601Z</time></trkpt><trkpt lat="44.5023667" lon="9.2400167"><ele>1022.0</ele><time>2026-04-06T09:10:07.599Z</time></trkpt><trkpt lat="44.5022467" lon="9.2400517"><ele>1022.0</ele><time>2026-04-06T09:10:08.601Z</time></trkpt><trkpt lat="44.502125" lon="9.2400567"><ele>1022.0</ele><time>2026-04-06T09:10:09.6Z</time></trkpt><trkpt lat="44.5020033" lon="9.2400283"><ele>1022.0</ele><time>2026-04-06T09:10:10.598Z</time></trkpt><trkpt lat="44.5018883" lon="9.2399817"><ele>1022.0</ele><time>2026-04-06T09:10:11.6Z</time></trkpt><trkpt lat="44.5017867" lon="9.239935"><ele>1020.4000000000001</ele><time>2026-04-06T09:10:12.599Z</time></trkpt><trkpt lat="44.5016933" lon="9.23991"><ele>1018.8000000000001</ele><time>2026-04-06T09:10:13.599Z</time></trkpt><trkpt lat="44.5016117" lon="9.2399167"><ele>1017.2</ele><time>2026-04-06T09:10:14.6Z</time></trkpt><trkpt lat="44.5015567" lon="9.24"><ele>1015.6</ele><time>2026-04-06T09:10:15.6Z</time></trkpt><trkpt lat="44.5015183" lon="9.24012"><ele>1014.0</ele><time>2026-04-06T09:10:16.599Z</time></trkpt><trkpt lat="44.501495" lon="9.2403"><ele>1014.0</ele><time>2026-04-06T09:10:17.598Z</time></trkpt><trkpt lat="44.5014533" lon="9.2404883"><ele>1014.0</ele><time>2026-04-06T09:10:18.598Z</time></trkpt><trkpt lat="44.5013917" lon="9.2406767"><ele>1014.0</ele><time>2026-04-06T09:10:19.599Z</time></trkpt><trkpt lat="44.5013017" lon="9.240855"><ele>1014.0</ele><time>2026-04-06T09:10:20.599Z</time></trkpt><trkpt lat="44.501185" lon="9.24103"><ele>1011.3333333333333</ele><time>2026-04-06T09:10:21.599Z</time></trkpt><trkpt lat="44.50106" lon="9.2411933"><ele>1008.6666666666666</ele><time>2026-04-06T09:10:22.599Z</time></trkpt><trkpt lat="44.5009383" lon="9.2413367"><ele>1006.0</ele><time>2026-04-06T09:10:23.598Z</time></trkpt><trkpt lat="44.50082" lon="9.241465"><ele>1009.25</ele><time>2026-04-06T09:10:24.599Z</time></trkpt><trkpt lat="44.500705" lon="9.2415833"><ele>1012.5</ele><time>2026-04-06T09:10:25.599Z</time></trkpt><trkpt lat="44.5005767" lon="9.2416767"><ele>1015.75</ele><time>2026-04-06T09:10:26.6Z</time></trkpt><trkpt lat="44.50044" lon="9.2417483"><ele>1019.0</ele><time>2026-04-06T09:10:27.598Z</time></trkpt><trkpt lat="44.5003" lon="9.2417983"><ele>1020.75</ele><time>2026-04-06T09:10:28.599Z</time></trkpt><trkpt lat="44.50016" lon="9.241835"><ele>1022.5</ele><time>2026-04-06T09:10:29.6Z</time></trkpt><trkpt lat="44.500025" lon="9.24186"><ele>1024.25</ele><time>2026-04-06T09:10:30.599Z</time></trkpt><trkpt lat="44.499895" lon="9.2418733"><ele>1026.0</ele><time>2026-04-06T09:10:31.599Z</time></trkpt><trkpt lat="44.4997733" lon="9.241875"><ele>1026.0</ele><time>2026-04-06T09:10:32.6Z</time></trkpt><trkpt lat="44.4996667" lon="9.24188"><ele>1026.0</ele><time>2026-04-06T09:10:33.6Z</time></trkpt><trkpt lat="44.4995683" lon="9.2419117"><ele>1026.0</ele><time>2026-04-06T09:10:34.602Z</time></trkpt><trkpt lat="44.4994667" lon="9.2419833"><ele>1026.0</ele><time>2026-04-06T09:10:35.601Z</time></trkpt><trkpt lat="44.4993683" lon="9.2420783"><ele>1026.0</ele><time>2026-04-06T09:10:36.6Z</time></trkpt><trkpt lat="44.499285" lon="9.242195"><ele>1032.0</ele><time>2026-04-06T09:10:37.602Z</time></trkpt><trkpt lat="44.4992067" lon="9.2423183"><ele>1038.0</ele><time>2026-04-06T09:10:38.602Z</time></trkpt><trkpt lat="44.49912" lon="9.2424283"><ele>1044.0</ele><time>2026-04-06T09:10:39.601Z</time></trkpt><trkpt lat="44.4990183" lon="9.2425317"><ele>1050.0</ele><time>2026-04-06T09:10:40.601Z</time></trkpt><trkpt lat="44.498915" lon="9.2426433"><ele>1050.0</ele><time>2026-04-06T09:10:41.599Z</time></trkpt><trkpt lat="44.4988217" lon="9.242745"><ele>1050.0</ele><time>2026-04-06T09:10:42.599Z</time></trkpt><trkpt lat="44.498725" lon="9.242825"><ele>1050.0</ele><time>2026-04-06T09:10:43.599Z</time></trkpt><trkpt lat="44.4986333" lon="9.2428917"><ele>1050.0</ele><time>2026-04-06T09:10:44.6Z</time></trkpt><trkpt lat="44.49855" lon="9.2429367"><ele>1050.0</ele><time>2026-04-06T09:10:45.598Z</time></trkpt><trkpt lat="44.4984633" lon="9.24296"><ele>1047.0</ele><time>2026-04-06T09:10:46.599Z</time></trkpt><trkpt lat="44.4983767" lon="9.2429633"><ele>1044.0</ele><time>2026-04-06T09:10:47.599Z</time></trkpt><trkpt lat="44.4982933" lon="9.2429533"><ele>1041.0</ele><time>2026-04-06T09:10:48.6Z</time></trkpt><trkpt lat="44.4982117" lon="9.24294"><ele>1038.0</ele><time>2026-04-06T09:10:49.601Z</time></trkpt><trkpt lat="44.4981367" lon="9.2429383"><ele>1035.0</ele><time>2026-04-06T09:10:50.602Z</time></trkpt><trkpt lat="44.4980167" lon="9.2429917"><ele>1035.0</ele><time>2026-04-06T09:10:52.601Z</time></trkpt><trkpt lat="44.497965" lon="9.2430567"><ele>1035.0</ele><time>2026-04-06T09:10:53.601Z</time></trkpt><trkpt lat="44.4979133" lon="9.2431383"><ele>1035.0</ele><time>2026-04-06T09:10:54.599Z</time></trkpt><trkpt lat="44.4978567" lon="9.243225"><ele>1035.0</ele><time>2026-04-06T09:10:55.598Z</time></trkpt><trkpt lat="44.49779" lon="9.2433067"><ele>1035.0</ele><time>2026-04-06T09:10:56.599Z</time></trkpt><trkpt lat="44.4977167" lon="9.243375"><ele>1035.0</ele><time>2026-04-06T09:10:57.6Z</time></trkpt><trkpt lat="44.4976433" lon="9.2434267"><ele>1039.0</ele><time>2026-04-06T09:10:58.6Z</time></trkpt><trkpt lat="44.4975667" lon="9.2434517"><ele>1043.0</ele><time>2026-04-06T09:10:59.599Z</time></trkpt><trkpt lat="44.4974917" lon="9.2434733"><ele>1047.0</ele><time>2026-04-06T09:11:00.598Z</time></trkpt><trkpt lat="44.49742" lon="9.2434983"><ele>1051.0</ele><time>2026-04-06T09:11:01.601Z</time></trkpt><trkpt lat="44.4973533" lon="9.24354"><ele>1055.0</ele><time>2026-04-06T09:11:02.6Z</time></trkpt><trkpt lat="44.49729" lon="9.2436033"><ele>1059.0</ele><time>2026-04-06T09:11:03.599Z</time></trkpt><trkpt lat="44.4972367" lon="9.2436767"><ele>1059.0</ele><time>2026-04-06T09:11:04.599Z</time></trkpt><trkpt lat="44.4971817" lon="9.2437567"><ele>1059.0</ele><time>2026-04-06T09:11:05.6Z</time></trkpt><trkpt lat="44.4971133" lon="9.24384"><ele>1059.0</ele><time>2026-04-06T09:11:06.599Z</time></trkpt><trkpt lat="44.4970317" lon="9.2439267"><ele>1059.0</ele><time>2026-04-06T09:11:07.6Z</time></trkpt><trkpt lat="44.4969433" lon="9.2440117"><ele>1059.0</ele><time>2026-04-06T09:11:08.6Z</time></trkpt><trkpt lat="44.4968467" lon="9.2440917"><ele>1062.4</ele><time>2026-04-06T09:11:09.599Z</time></trkpt><trkpt lat="44.4967517" lon="9.24416"><ele>1065.8000000000002</ele><time>2026-04-06T09:11:10.599Z</time></trkpt><trkpt lat="44.4966617" lon="9.2442117"><ele>1069.1999999999998</ele><time>2026-04-06T09:11:11.599Z</time></trkpt><trkpt lat="44.49657" lon="9.244255"><ele>1072.6</ele><time>2026-04-06T09:11:12.599Z</time></trkpt><trkpt lat="44.4964667" lon="9.2442983"><ele>1076.0</ele><time>2026-04-06T09:11:13.598Z</time></trkpt><trkpt lat="44.496355" lon="9.2443633"><ele>1078.0</ele><time>2026-04-06T09:11:14.6Z</time></trkpt><trkpt lat="44.49624" lon="9.2444733"><ele>1080.0</ele><time>2026-04-06T09:11:15.598Z</time></trkpt><trkpt lat="44.4961333" lon="9.244605"><ele>1082.0</ele><time>2026-04-06T09:11:16.6Z</time></trkpt><trkpt lat="44.496035" lon="9.24474"><ele>1084.0</ele><time>2026-04-06T09:11:17.6Z</time></trkpt><trkpt lat="44.49593" lon="9.2448517"><ele>1084.0</ele><time>2026-04-06T09:11:18.602Z</time></trkpt><trkpt lat="44.49582" lon="9.2449433"><ele>1084.0</ele><time>2026-04-06T09:11:19.601Z</time></trkpt><trkpt lat="44.49572" lon="9.2450133"><ele>1084.0</ele><time>2026-04-06T09:11:20.601Z</time></trkpt><trkpt lat="44.4956083" lon="9.2450633"><ele>1084.0</ele><time>2026-04-06T09:11:21.601Z</time></trkpt><trkpt lat="44.4954883" lon="9.245095"><ele>1087.5</ele><time>2026-04-06T09:11:22.601Z</time></trkpt><trkpt lat="44.4953567" lon="9.2451233"><ele>1091.0</ele><time>2026-04-06T09:11:23.602Z</time></trkpt><trkpt lat="44.4952183" lon="9.24515"><ele>1094.5</ele><time>2026-04-06T09:11:24.6Z</time></trkpt><trkpt lat="44.4950833" lon="9.24517"><ele>1098.0</ele><time>2026-04-06T09:11:25.599Z</time></trkpt><trkpt lat="44.4949617" lon="9.245185"><ele>1098.0</ele><time>2026-04-06T09:11:26.6Z</time></trkpt><trkpt lat="44.4948483" lon="9.245205"><ele>1098.0</ele><time>2026-04-06T09:11:27.598Z</time></trkpt><trkpt lat="44.4947417" lon="9.2452217"><ele>1098.0</ele><time>2026-04-06T09:11:28.599Z</time></trkpt><trkpt lat="44.494645" lon="9.2452367"><ele>1098.0</ele><time>2026-04-06T09:11:29.599Z</time></trkpt><trkpt lat="44.4945617" lon="9.2452383"><ele>1098.0</ele><time>2026-04-06T09:11:30.598Z</time></trkpt><trkpt lat="44.4944783" lon="9.245225"><ele>1097.1666666666667</ele><time>2026-04-06T09:11:31.599Z</time></trkpt><trkpt lat="44.4943933" lon="9.2451967"><ele>1096.3333333333333</ele><time>2026-04-06T09:11:32.599Z</time></trkpt><trkpt lat="44.4943067" lon="9.2451867"><ele>1095.5</ele><time>2026-04-06T09:11:33.6Z</time></trkpt><trkpt lat="44.4942217" lon="9.245205"><ele>1094.6666666666665</ele><time>2026-04-06T09:11:34.599Z</time></trkpt><trkpt lat="44.4941383" lon="9.245235"><ele>1093.8333333333333</ele><time>2026-04-06T09:11:35.599Z</time></trkpt><trkpt lat="44.49405" lon="9.2452683"><ele>1093.0</ele><time>2026-04-06T09:11:36.598Z</time></trkpt><trkpt lat="44.4939533" lon="9.2453083"><ele>1093.0</ele><time>2026-04-06T09:11:37.599Z</time></trkpt><trkpt lat="44.4938533" lon="9.2453467"><ele>1093.0</ele><time>2026-04-06T09:11:38.6Z</time></trkpt><trkpt lat="44.4937567" lon="9.2453817"><ele>1093.0</ele><time>2026-04-06T09:11:39.599Z</time></trkpt><trkpt lat="44.4936683" lon="9.2454217"><ele>1093.0</ele><time>2026-04-06T09:11:40.599Z</time></trkpt><trkpt lat="44.4935783" lon="9.2454633"><ele>1093.0</ele><time>2026-04-06T09:11:41.599Z</time></trkpt><trkpt lat="44.4934917" lon="9.2454883"><ele>1092.6666666666665</ele><time>2026-04-06T09:11:42.6Z</time></trkpt><trkpt lat="44.4934033" lon="9.2454883"><ele>1092.3333333333333</ele><time>2026-04-06T09:11:43.6Z</time></trkpt><trkpt lat="44.4933133" lon="9.245465"><ele>1092.0</ele><time>2026-04-06T09:11:44.599Z</time></trkpt><trkpt lat="44.4932333" lon="9.2454117"><ele>1091.6666666666667</ele><time>2026-04-06T09:11:45.599Z</time></trkpt><trkpt lat="44.4931567" lon="9.2453517"><ele>1091.3333333333335</ele><time>2026-04-06T09:11:46.599Z</time></trkpt><trkpt lat="44.49308" lon="9.24531"><ele>1091.0</ele><time>2026-04-06T09:11:47.6Z</time></trkpt><trkpt lat="44.492995" lon="9.2452883"><ele>1088.0</ele><time>2026-04-06T09:11:48.6Z</time></trkpt><trkpt lat="44.4929033" lon="9.2453033"><ele>1085.0</ele><time>2026-04-06T09:11:49.6Z</time></trkpt><trkpt lat="44.4928017" lon="9.2453833"><ele>1082.0</ele><time>2026-04-06T09:11:50.599Z</time></trkpt><trkpt lat="44.4927033" lon="9.24548"><ele>1079.0</ele><time>2026-04-06T09:11:51.601Z</time></trkpt><trkpt lat="44.492605" lon="9.24559"><ele>1086.25</ele><time>2026-04-06T09:11:52.599Z</time></trkpt><trkpt lat="44.4925033" lon="9.2456967"><ele>1093.5</ele><time>2026-04-06T09:11:53.601Z</time></trkpt><trkpt lat="44.4924017" lon="9.2458"><ele>1100.75</ele><time>2026-04-06T09:11:54.601Z</time></trkpt><trkpt lat="44.4923033" lon="9.2458967"><ele>1108.0</ele><time>2026-04-06T09:11:55.604Z</time></trkpt><trkpt lat="44.492205" lon="9.24599"><ele>1108.0</ele><time>2026-04-06T09:11:56.6Z</time></trkpt><trkpt lat="44.4921017" lon="9.2460867"><ele>1108.0</ele><time>2026-04-06T09:11:57.599Z</time></trkpt><trkpt lat="44.4919933" lon="9.2461917"><ele>1108.0</ele><time>2026-04-06T09:11:58.599Z</time></trkpt><trkpt lat="44.4918783" lon="9.2462883"><ele>1108.0</ele><time>2026-04-06T09:11:59.6Z</time></trkpt><trkpt lat="44.4917633" lon="9.246375"><ele>1110.6</ele><time>2026-04-06T09:12:00.598Z</time></trkpt><trkpt lat="44.4916517" lon="9.2464417"><ele>1113.1999999999998</ele><time>2026-04-06T09:12:01.6Z</time></trkpt><trkpt lat="44.4915433" lon="9.2464917"><ele>1115.8</ele><time>2026-04-06T09:12:02.599Z</time></trkpt><trkpt lat="44.4914433" lon="9.2465217"><ele>1118.3999999999999</ele><time>2026-04-06T09:12:03.6Z</time></trkpt><trkpt lat="44.49134" lon="9.2465183"><ele>1121.0</ele><time>2026-04-06T09:12:04.599Z</time></trkpt><trkpt lat="44.491245" lon="9.2465067"><ele>1123.3999999999999</ele><time>2026-04-06T09:12:05.599Z</time></trkpt><trkpt lat="44.4911483" lon="9.246465"><ele>1125.8</ele><time>2026-04-06T09:12:06.599Z</time></trkpt><trkpt lat="44.491055" lon="9.2464067"><ele>1128.1999999999998</ele><time>2026-04-06T09:12:07.599Z</time></trkpt><trkpt lat="44.490965" lon="9.2463317"><ele>1130.6</ele><time>2026-04-06T09:12:08.6Z</time></trkpt><trkpt lat="44.4908717" lon="9.246235"><ele>1133.0</ele><time>2026-04-06T09:12:09.599Z</time></trkpt><trkpt lat="44.4907867" lon="9.24612"><ele>1127.8</ele><time>2026-04-06T09:12:10.6Z</time></trkpt><trkpt lat="44.4907033" lon="9.246"><ele>1122.6</ele><time>2026-04-06T09:12:11.599Z</time></trkpt><trkpt lat="44.4906383" lon="9.2458833"><ele>1117.4</ele><time>2026-04-06T09:12:12.598Z</time></trkpt><trkpt lat="44.4905883" lon="9.24576"><ele>1112.2</ele><time>2026-04-06T09:12:13.599Z</time></trkpt><trkpt lat="44.4905433" lon="9.24563"><ele>1107.0</ele><time>2026-04-06T09:12:14.6Z</time></trkpt><trkpt lat="44.4904767" lon="9.2455183"><ele>1107.75</ele><time>2026-04-06T09:12:15.599Z</time></trkpt><trkpt lat="44.49039" lon="9.2454233"><ele>1108.5</ele><time>2026-04-06T09:12:16.599Z</time></trkpt><trkpt lat="44.4902883" lon="9.245335"><ele>1109.25</ele><time>2026-04-06T09:12:17.601Z</time></trkpt><trkpt lat="44.49019" lon="9.2452517"><ele>1110.0</ele><time>2026-04-06T09:12:18.601Z</time></trkpt><trkpt lat="44.4900967" lon="9.245165"><ele>1110.0</ele><time>2026-04-06T09:12:19.601Z</time></trkpt><trkpt lat="44.4900117" lon="9.2450617"><ele>1110.0</ele><time>2026-04-06T09:12:20.602Z</time></trkpt><trkpt lat="44.4899317" lon="9.24494"><ele>1110.0</ele><time>2026-04-06T09:12:21.598Z</time></trkpt><trkpt lat="44.48985" lon="9.2447967"><ele>1110.0</ele><time>2026-04-06T09:12:22.601Z</time></trkpt><trkpt lat="44.48978" lon="9.2446383"><ele>1106.0</ele><time>2026-04-06T09:12:23.6Z</time></trkpt><trkpt lat="44.48972" lon="9.244495"><ele>1102.0</ele><time>2026-04-06T09:12:24.6Z</time></trkpt><trkpt lat="44.489675" lon="9.244325"><ele>1098.0</ele><time>2026-04-06T09:12:25.6Z</time></trkpt><trkpt lat="44.4896283" lon="9.244155"><ele>1094.0</ele><time>2026-04-06T09:12:26.599Z</time></trkpt><trkpt lat="44.4895767" lon="9.24399"><ele>1102.75</ele><time>2026-04-06T09:12:27.599Z</time></trkpt><trkpt lat="44.4895267" lon="9.2438333"><ele>1111.5</ele><time>2026-04-06T09:12:28.599Z</time></trkpt><trkpt lat="44.4894833" lon="9.243665"><ele>1120.25</ele><time>2026-04-06T09:12:29.599Z</time></trkpt><trkpt lat="44.48945" lon="9.2434917"><ele>1129.0</ele><time>2026-04-06T09:12:30.599Z</time></trkpt><trkpt lat="44.4894217" lon="9.2433133"><ele>1129.0</ele><time>2026-04-06T09:12:31.599Z</time></trkpt><trkpt lat="44.4893933" lon="9.2431367"><ele>1129.0</ele><time>2026-04-06T09:12:32.599Z</time></trkpt><trkpt lat="44.4893633" lon="9.2429617"><ele>1129.0</ele><time>2026-04-06T09:12:33.6Z</time></trkpt><trkpt lat="44.48933" lon="9.242785"><ele>1129.0</ele><time>2026-04-06T09:12:34.601Z</time></trkpt><trkpt lat="44.4893067" lon="9.24261"><ele>1127.6000000000001</ele><time>2026-04-06T09:12:35.599Z</time></trkpt><trkpt lat="44.4892833" lon="9.24245"><ele>1126.2</ele><time>2026-04-06T09:12:36.599Z</time></trkpt><trkpt lat="44.48926" lon="9.2422967"><ele>1124.8000000000002</ele><time>2026-04-06T09:12:37.598Z</time></trkpt><trkpt lat="44.4892317" lon="9.242155"><ele>1123.4</ele><time>2026-04-06T09:12:38.599Z</time></trkpt><trkpt lat="44.4891933" lon="9.2420317"><ele>1122.0</ele><time>2026-04-06T09:12:39.599Z</time></trkpt><trkpt lat="44.4891533" lon="9.2419383"><ele>1123.1666666666667</ele><time>2026-04-06T09:12:40.599Z</time></trkpt><trkpt lat="44.4890967" lon="9.2418883"><ele>1124.3333333333333</ele><time>2026-04-06T09:12:41.598Z</time></trkpt><trkpt lat="44.4890317" lon="9.2418683"><ele>1125.5</ele><time>2026-04-06T09:12:42.6Z</time></trkpt><trkpt lat="44.48895" lon="9.2418833"><ele>1126.6666666666665</ele><time>2026-04-06T09:12:43.601Z</time></trkpt><trkpt lat="44.48887" lon="9.24188"><ele>1127.8333333333333</ele><time>2026-04-06T09:12:44.599Z</time></trkpt><trkpt lat="44.4888" lon="9.2418383"><ele>1129.0</ele><time>2026-04-06T09:12:45.598Z</time></trkpt><trkpt lat="44.48873" lon="9.2417667"><ele>1129.0</ele><time>2026-04-06T09:12:46.599Z</time></trkpt><trkpt lat="44.4886517" lon="9.24169"><ele>1129.0</ele><time>2026-04-06T09:12:47.6Z</time></trkpt><trkpt lat="44.4885833" lon="9.2416017"><ele>1129.0</ele><time>2026-04-06T09:12:48.602Z</time></trkpt><trkpt lat="44.4885167" lon="9.2415"><ele>1129.0</ele><time>2026-04-06T09:12:49.6Z</time></trkpt><trkpt lat="44.488465" lon="9.2413883"><ele>1129.0</ele><time>2026-04-06T09:12:50.601Z</time></trkpt><trkpt lat="44.4884267" lon="9.2412767"><ele>1124.5</ele><time>2026-04-06T09:12:51.601Z</time></trkpt><trkpt lat="44.488405" lon="9.2411533"><ele>1120.0</ele><time>2026-04-06T09:12:52.599Z</time></trkpt><trkpt lat="44.48838" lon="9.241045"><ele>1115.5</ele><time>2026-04-06T09:12:53.599Z</time></trkpt><trkpt lat="44.4883367" lon="9.2409483"><ele>1111.0</ele><time>2026-04-06T09:12:54.599Z</time></trkpt><trkpt lat="44.488275" lon="9.2408633"><ele>1106.5</ele><time>2026-04-06T09:12:55.599Z</time></trkpt><trkpt lat="44.4882" lon="9.24078"><ele>1102.0</ele><time>2026-04-06T09:12:56.6Z</time></trkpt><trkpt lat="44.4881167" lon="9.2406883"><ele>1101.0</ele><time>2026-04-06T09:12:57.598Z</time></trkpt><trkpt lat="44.4880333" lon="9.2405883"><ele>1100.0</ele><time>2026-04-06T09:12:58.599Z</time></trkpt><trkpt lat="44.4879517" lon="9.24049"><ele>1099.0</ele><time>2026-04-06T09:12:59.6Z</time></trkpt><trkpt lat="44.4878667" lon="9.2404033"><ele>1098.0</ele><time>2026-04-06T09:13:00.599Z</time></trkpt><trkpt lat="44.4877917" lon="9.2403183"><ele>1097.0</ele><time>2026-04-06T09:13:01.599Z</time></trkpt><trkpt lat="44.4877133" lon="9.2402533"><ele>1097.0</ele><time>2026-04-06T09:13:02.6Z</time></trkpt><trkpt lat="44.4876383" lon="9.240215"><ele>1097.0</ele><time>2026-04-06T09:13:03.599Z</time></trkpt><trkpt lat="44.4875633" lon="9.2402117"><ele>1097.0</ele><time>2026-04-06T09:13:04.598Z</time></trkpt><trkpt lat="44.4874867" lon="9.2402567"><ele>1097.0</ele><time>2026-04-06T09:13:05.6Z</time></trkpt><trkpt lat="44.4874183" lon="9.24033"><ele>1097.0</ele><time>2026-04-06T09:13:06.599Z</time></trkpt><trkpt lat="44.48736" lon="9.240425"><ele>1097.0</ele><time>2026-04-06T09:13:07.599Z</time></trkpt><trkpt lat="44.4872983" lon="9.2404983"><ele>1097.0</ele><time>2026-04-06T09:13:08.599Z</time></trkpt><trkpt lat="44.48723" lon="9.240545"><ele>1097.0</ele><time>2026-04-06T09:13:09.599Z</time></trkpt><trkpt lat="44.4871583" lon="9.240585"><ele>1097.0</ele><time>2026-04-06T09:13:10.599Z</time></trkpt><trkpt lat="44.4870933" lon="9.2406533"><ele>1097.0</ele><time>2026-04-06T09:13:11.599Z</time></trkpt><trkpt lat="44.48704" lon="9.2407383"><ele>1097.0</ele><time>2026-04-06T09:13:12.599Z</time></trkpt><trkpt lat="44.486995" lon="9.240825"><ele>1097.0</ele><time>2026-04-06T09:13:13.598Z</time></trkpt><trkpt lat="44.48694" lon="9.2409033"><ele>1097.3333333333335</ele><time>2026-04-06T09:13:14.6Z</time></trkpt><trkpt lat="44.4868633" lon="9.2409467"><ele>1097.6666666666667</ele><time>2026-04-06T09:13:15.598Z</time></trkpt><trkpt lat="44.4867783" lon="9.240975"><ele>1098.0</ele><time>2026-04-06T09:13:16.601Z</time></trkpt><trkpt lat="44.486705" lon="9.2410233"><ele>1098.3333333333333</ele><time>2026-04-06T09:13:17.599Z</time></trkpt><trkpt lat="44.4866467" lon="9.241095"><ele>1098.6666666666665</ele><time>2026-04-06T09:13:18.6Z</time></trkpt><trkpt lat="44.4866033" lon="9.2411967"><ele>1099.0</ele><time>2026-04-06T09:13:19.6Z</time></trkpt><trkpt lat="44.4865783" lon="9.2413383"><ele>1099.0</ele><time>2026-04-06T09:13:20.601Z</time></trkpt><trkpt lat="44.48655" lon="9.241465"><ele>1099.0</ele><time>2026-04-06T09:13:21.599Z</time></trkpt><trkpt lat="44.4865183" lon="9.2415717"><ele>1099.0</ele><time>2026-04-06T09:13:22.599Z</time></trkpt><trkpt lat="44.48648" lon="9.24166"><ele>1099.0</ele><time>2026-04-06T09:13:23.6Z</time></trkpt><trkpt lat="44.486415" lon="9.24169"><ele>1099.0</ele><time>2026-04-06T09:13:24.599Z</time></trkpt><trkpt lat="44.486345" lon="9.2417133"><ele>1099.0</ele><time>2026-04-06T09:13:25.6Z</time></trkpt><trkpt lat="44.4862733" lon="9.24175"><ele>1098.1666666666665</ele><time>2026-04-06T09:13:26.6Z</time></trkpt><trkpt lat="44.4862033" lon="9.241805"><ele>1097.3333333333333</ele><time>2026-04-06T09:13:27.599Z</time></trkpt><trkpt lat="44.4861483" lon="9.24188"><ele>1096.5</ele><time>2026-04-06T09:13:28.599Z</time></trkpt><trkpt lat="44.4861367" lon="9.2420083"><ele>1095.6666666666667</ele><time>2026-04-06T09:13:29.6Z</time></trkpt><trkpt lat="44.4861233" lon="9.242115"><ele>1094.8333333333335</ele><time>2026-04-06T09:13:30.6Z</time></trkpt><trkpt lat="44.486095" lon="9.2422283"><ele>1094.0</ele><time>2026-04-06T09:13:31.598Z</time></trkpt><trkpt lat="44.486055" lon="9.2423333"><ele>1099.3333333333335</ele><time>2026-04-06T09:13:32.6Z</time></trkpt><trkpt lat="44.4860067" lon="9.2424367"><ele>1104.6666666666667</ele><time>2026-04-06T09:13:33.6Z</time></trkpt><trkpt lat="44.4859433" lon="9.2425133"><ele>1110.0</ele><time>2026-04-06T09:13:34.599Z</time></trkpt><trkpt lat="44.4858817" lon="9.2425683"><ele>1115.3333333333333</ele><time>2026-04-06T09:13:35.598Z</time></trkpt><trkpt lat="44.48578" lon="9.2426083"><ele>1120.6666666666665</ele><time>2026-04-06T09:13:36.599Z</time></trkpt><trkpt lat="44.4856883" lon="9.24265"><ele>1126.0</ele><time>2026-04-06T09:13:37.601Z</time></trkpt><trkpt lat="44.4855917" lon="9.2426983"><ele>1126.0</ele><time>2026-04-06T09:13:38.6Z</time></trkpt><trkpt lat="44.4855017" lon="9.2427633"><ele>1126.0</ele><time>2026-04-06T09:13:39.598Z</time></trkpt><trkpt lat="44.48543" lon="9.24284"><ele>1126.0</ele><time>2026-04-06T09:13:40.6Z</time></trkpt><trkpt lat="44.485365" lon="9.2429333"><ele>1126.0</ele><time>2026-04-06T09:13:41.6Z</time></trkpt><trkpt lat="44.4852883" lon="9.243015"><ele>1126.0</ele><time>2026-04-06T09:13:42.598Z</time></trkpt><trkpt lat="44.4852" lon="9.2430817"><ele>1127.2</ele><time>2026-04-06T09:13:43.599Z</time></trkpt><trkpt lat="44.4850983" lon="9.243125"><ele>1128.3999999999999</ele><time>2026-04-06T09:13:44.599Z</time></trkpt><trkpt lat="44.4849967" lon="9.243145"><ele>1129.6</ele><time>2026-04-06T09:13:45.6Z</time></trkpt><trkpt lat="44.4848933" lon="9.24315"><ele>1130.8</ele><time>2026-04-06T09:13:46.6Z</time></trkpt><trkpt lat="44.48479" lon="9.24313"><ele>1132.0</ele><time>2026-04-06T09:13:47.599Z</time></trkpt><trkpt lat="44.4846883" lon="9.2430833"><ele>1125.4</ele><time>2026-04-06T09:13:48.598Z</time></trkpt><trkpt lat="44.484595" lon="9.24302"><ele>1118.8000000000002</ele><time>2026-04-06T09:13:49.6Z</time></trkpt><trkpt lat="44.4845117" lon="9.2429567"><ele>1112.2</ele><time>2026-04-06T09:13:50.599Z</time></trkpt><trkpt lat="44.484426" lon="9.2428951"><ele>1105.6000000000001</ele><time>2026-04-06T09:13:51.598Z</time></trkpt><trkpt lat="44.4843364" lon="9.2428413"><ele>1099.0</ele><time>2026-04-06T09:13:52.599Z</time></trkpt><trkpt lat="44.4842421" lon="9.242806"><ele>1099.0</ele><time>2026-04-06T09:13:53.598Z</time></trkpt><trkpt lat="44.4841456" lon="9.2427994"><ele>1099.0</ele><time>2026-04-06T09:13:54.602Z</time></trkpt><trkpt lat="44.4840487" lon="9.2428273"><ele>1099.0</ele><time>2026-04-06T09:13:55.601Z</time></trkpt><trkpt lat="44.4839546" lon="9.2428902"><ele>1099.0</ele><time>2026-04-06T09:13:56.601Z</time></trkpt><trkpt lat="44.483866" lon="9.2429838"><ele>1099.0</ele><time>2026-04-06T09:13:57.599Z</time></trkpt><trkpt lat="44.4837907" lon="9.2430904"><ele>1099.5</ele><time>2026-04-06T09:13:58.599Z</time></trkpt><trkpt lat="44.4837254" lon="9.2431813"><ele>1100.0</ele><time>2026-04-06T09:13:59.599Z</time></trkpt><trkpt lat="44.4836631" lon="9.2432367"><ele>1100.5</ele><time>2026-04-06T09:14:00.599Z</time></trkpt><trkpt lat="44.4835897" lon="9.243237"><ele>1101.0</ele><time>2026-04-06T09:14:01.599Z</time></trkpt><trkpt lat="44.4835032" lon="9.2431905"><ele>1101.5</ele><time>2026-04-06T09:14:02.599Z</time></trkpt><trkpt lat="44.4834079" lon="9.2431262"><ele>1102.0</ele><time>2026-04-06T09:14:03.598Z</time></trkpt><trkpt lat="44.4833068" lon="9.2430666"><ele>1102.0</ele><time>2026-04-06T09:14:04.6Z</time></trkpt><trkpt lat="44.483205" lon="9.243013"><ele>1102.0</ele><time>2026-04-06T09:14:05.599Z</time></trkpt><trkpt lat="44.4830993" lon="9.242964"><ele>1102.0</ele><time>2026-04-06T09:14:06.6Z</time></trkpt><trkpt lat="44.4829948" lon="9.2429262"><ele>1102.0</ele><time>2026-04-06T09:14:07.598Z</time></trkpt><trkpt lat="44.4828935" lon="9.2428904"><ele>1102.0</ele><time>2026-04-06T09:14:08.6Z</time></trkpt><trkpt lat="44.4827979" lon="9.2428487"><ele>1104.6</ele><time>2026-04-06T09:14:09.6Z</time></trkpt><trkpt lat="44.4827063" lon="9.2428015"><ele>1107.2</ele><time>2026-04-06T09:14:10.599Z</time></trkpt><trkpt lat="44.4826122" lon="9.2427508"><ele>1109.8</ele><time>2026-04-06T09:14:11.599Z</time></trkpt><trkpt lat="44.4825118" lon="9.2427017"><ele>1112.4</ele><time>2026-04-06T09:14:12.598Z</time></trkpt><trkpt lat="44.4824154" lon="9.2426606"><ele>1115.0</ele><time>2026-04-06T09:14:13.599Z</time></trkpt><trkpt lat="44.4823251" lon="9.2426273"><ele>1115.0</ele><time>2026-04-06T09:14:14.6Z</time></trkpt><trkpt lat="44.4822414" lon="9.2426009"><ele>1115.0</ele><time>2026-04-06T09:14:15.599Z</time></trkpt><trkpt lat="44.482162" lon="9.2425769"><ele>1115.0</ele><time>2026-04-06T09:14:16.599Z</time></trkpt><trkpt lat="44.4820939" lon="9.2425537"><ele>1115.0</ele><time>2026-04-06T09:14:17.6Z</time></trkpt><trkpt lat="44.4820284" lon="9.2425323"><ele>1115.0</ele><time>2026-04-06T09:14:18.6Z</time></trkpt><trkpt lat="44.4819653" lon="9.2425094"><ele>1115.0</ele><time>2026-04-06T09:14:19.599Z</time></trkpt><trkpt lat="44.4819015" lon="9.2424834"><ele>1115.0</ele><time>2026-04-06T09:14:20.599Z</time></trkpt><trkpt lat="44.4818394" lon="9.2424506"><ele>1116.5</ele><time>2026-04-06T09:14:21.6Z</time></trkpt><trkpt lat="44.4817736" lon="9.242423"><ele>1118.0</ele><time>2026-04-06T09:14:22.599Z</time></trkpt><trkpt lat="44.4816972" lon="9.2423995"><ele>1119.5</ele><time>2026-04-06T09:14:23.599Z</time></trkpt><trkpt lat="44.4816118" lon="9.2423756"><ele>1121.0</ele><time>2026-04-06T09:14:24.599Z</time></trkpt><trkpt lat="44.4815203" lon="9.2423432"><ele>1122.5</ele><time>2026-04-06T09:14:25.599Z</time></trkpt><trkpt lat="44.4814287" lon="9.2423004"><ele>1124.0</ele><time>2026-04-06T09:14:26.599Z</time></trkpt><trkpt lat="44.4813381" lon="9.2422518"><ele>1122.2</ele><time>2026-04-06T09:14:27.599Z</time></trkpt><trkpt lat="44.4812529" lon="9.242197"><ele>1120.4</ele><time>2026-04-06T09:14:28.599Z</time></trkpt><trkpt lat="44.4811694" lon="9.2421323"><ele>1118.6</ele><time>2026-04-06T09:14:29.6Z</time></trkpt><trkpt lat="44.4810931" lon="9.2420529"><ele>1116.8</ele><time>2026-04-06T09:14:30.598Z</time></trkpt><trkpt lat="44.4810228" lon="9.2419574"><ele>1115.0</ele><time>2026-04-06T09:14:31.599Z</time></trkpt><trkpt lat="44.4809604" lon="9.241846"><ele>1115.0</ele><time>2026-04-06T09:14:32.599Z</time></trkpt><trkpt lat="44.4809052" lon="9.2417257"><ele>1115.0</ele><time>2026-04-06T09:14:33.598Z</time></trkpt><trkpt lat="44.4808526" lon="9.241608"><ele>1115.0</ele><time>2026-04-06T09:14:34.597Z</time></trkpt><trkpt lat="44.480804" lon="9.2414893"><ele>1115.0</ele><time>2026-04-06T09:14:35.599Z</time></trkpt><trkpt lat="44.4807562" lon="9.241377"><ele>1115.0</ele><time>2026-04-06T09:14:36.598Z</time></trkpt><trkpt lat="44.4807137" lon="9.2412667"><ele>1113.3333333333335</ele><time>2026-04-06T09:14:37.598Z</time></trkpt><trkpt lat="44.4806614" lon="9.241173"><ele>1111.6666666666667</ele><time>2026-04-06T09:14:38.599Z</time></trkpt><trkpt lat="44.480613" lon="9.2410792"><ele>1110.0</ele><time>2026-04-06T09:14:39.599Z</time></trkpt><trkpt lat="44.4805739" lon="9.2409788"><ele>1108.3333333333333</ele><time>2026-04-06T09:14:40.598Z</time></trkpt><trkpt lat="44.4805382" lon="9.2408747"><ele>1106.6666666666665</ele><time>2026-04-06T09:14:41.598Z</time></trkpt><trkpt lat="44.4805007" lon="9.2407645"><ele>1105.0</ele><time>2026-04-06T09:14:42.599Z</time></trkpt><trkpt lat="44.4804611" lon="9.2406533"><ele>1104.5</ele><time>2026-04-06T09:14:43.599Z</time></trkpt><trkpt lat="44.4804197" lon="9.2405514"><ele>1104.0</ele><time>2026-04-06T09:14:44.6Z</time></trkpt><trkpt lat="44.4803769" lon="9.2404575"><ele>1103.5</ele><time>2026-04-06T09:14:45.599Z</time></trkpt><trkpt lat="44.4803308" lon="9.2403622"><ele>1103.0</ele><time>2026-04-06T09:14:46.598Z</time></trkpt><trkpt lat="44.4802792" lon="9.2402601"><ele>1102.5</ele><time>2026-04-06T09:14:47.599Z</time></trkpt><trkpt lat="44.4802213" lon="9.2401493"><ele>1102.0</ele><time>2026-04-06T09:14:48.601Z</time></trkpt><trkpt lat="44.4801608" lon="9.2400296"><ele>1102.0</ele><time>2026-04-06T09:14:49.599Z</time></trkpt><trkpt lat="44.4801" lon="9.2399099"><ele>1102.0</ele><time>2026-04-06T09:14:50.6Z</time></trkpt><trkpt lat="44.4800452" lon="9.2397981"><ele>1102.0</ele><time>2026-04-06T09:14:51.599Z</time></trkpt><trkpt lat="44.4800006" lon="9.2396824"><ele>1102.0</ele><time>2026-04-06T09:14:52.599Z</time></trkpt><trkpt lat="44.4799643" lon="9.2395527"><ele>1102.0</ele><time>2026-04-06T09:14:53.6Z</time></trkpt><trkpt lat="44.47993" lon="9.2394094"><ele>1103.25</ele><time>2026-04-06T09:14:54.599Z</time></trkpt><trkpt lat="44.47989" lon="9.2392467"><ele>1104.5</ele><time>2026-04-06T09:14:55.598Z</time></trkpt><trkpt lat="44.47984" lon="9.2390833"><ele>1105.75</ele><time>2026-04-06T09:14:56.599Z</time></trkpt><trkpt lat="44.479785" lon="9.2389167"><ele>1107.0</ele><time>2026-04-06T09:14:57.599Z</time></trkpt><trkpt lat="44.47973" lon="9.2387467"><ele>1107.0</ele><time>2026-04-06T09:14:58.6Z</time></trkpt><trkpt lat="44.4796767" lon="9.2385833"><ele>1107.0</ele><time>2026-04-06T09:14:59.599Z</time></trkpt><trkpt lat="44.4796217" lon="9.23843"><ele>1107.0</ele><time>2026-04-06T09:15:00.601Z</time></trkpt><trkpt lat="44.4795617" lon="9.23829"><ele>1107.0</ele><time>2026-04-06T09:15:01.601Z</time></trkpt><trkpt lat="44.4794817" lon="9.23817"><ele>1109.25</ele><time>2026-04-06T09:15:02.601Z</time></trkpt><trkpt lat="44.4793883" lon="9.23806"><ele>1111.5</ele><time>2026-04-06T09:15:03.601Z</time></trkpt><trkpt lat="44.479285" lon="9.2379567"><ele>1113.75</ele><time>2026-04-06T09:15:04.601Z</time></trkpt><trkpt lat="44.4791833" lon="9.2378583"><ele>1116.0</ele><time>2026-04-06T09:15:05.602Z</time></trkpt><trkpt lat="44.4790833" lon="9.2377683"><ele>1116.0</ele><time>2026-04-06T09:15:06.602Z</time></trkpt><trkpt lat="44.47899" lon="9.2376783"><ele>1116.0</ele><time>2026-04-06T09:15:07.602Z</time></trkpt><trkpt lat="44.4789067" lon="9.23759"><ele>1116.0</ele><time>2026-04-06T09:15:08.602Z</time></trkpt><trkpt lat="44.4788367" lon="9.23749"><ele>1116.0</ele><time>2026-04-06T09:15:09.601Z</time></trkpt><trkpt lat="44.4787717" lon="9.2373817"><ele>1116.0</ele><time>2026-04-06T09:15:10.6Z</time></trkpt><trkpt lat="44.478705" lon="9.2372633"><ele>1114.6</ele><time>2026-04-06T09:15:11.598Z</time></trkpt><trkpt lat="44.478635" lon="9.23715"><ele>1113.1999999999998</ele><time>2026-04-06T09:15:12.599Z</time></trkpt><trkpt lat="44.4785667" lon="9.2370483"><ele>1111.8000000000002</ele><time>2026-04-06T09:15:13.599Z</time></trkpt><trkpt lat="44.4784983" lon="9.2369533"><ele>1110.4</ele><time>2026-04-06T09:15:14.6Z</time></trkpt><trkpt lat="44.4784283" lon="9.2368733"><ele>1109.0</ele><time>2026-04-06T09:15:15.599Z</time></trkpt><trkpt lat="44.478355" lon="9.2368117"><ele>1109.0</ele><time>2026-04-06T09:15:16.599Z</time></trkpt><trkpt lat="44.4782833" lon="9.2367767"><ele>1109.0</ele><time>2026-04-06T09:15:17.599Z</time></trkpt><trkpt lat="44.4782067" lon="9.2367733"><ele>1109.0</ele><time>2026-04-06T09:15:18.598Z</time></trkpt><trkpt lat="44.4781133" lon="9.236795"><ele>1109.0</ele><time>2026-04-06T09:15:19.599Z</time></trkpt><trkpt lat="44.4780117" lon="9.2368267"><ele>1109.0</ele><time>2026-04-06T09:15:20.602Z</time></trkpt><trkpt lat="44.4779033" lon="9.2368567"><ele>1111.75</ele><time>2026-04-06T09:15:21.6Z</time></trkpt><trkpt lat="44.4777883" lon="9.2368967"><ele>1114.5</ele><time>2026-04-06T09:15:22.599Z</time></trkpt><trkpt lat="44.4776767" lon="9.236935"><ele>1117.25</ele><time>2026-04-06T09:15:23.6Z</time></trkpt><trkpt lat="44.4775683" lon="9.236975"><ele>1120.0</ele><time>2026-04-06T09:15:24.598Z</time></trkpt><trkpt lat="44.4774617" lon="9.2370167"><ele>1120.0</ele><time>2026-04-06T09:15:25.598Z</time></trkpt><trkpt lat="44.47736" lon="9.2370417"><ele>1120.0</ele><time>2026-04-06T09:15:26.599Z</time></trkpt><trkpt lat="44.4772633" lon="9.2370517"><ele>1120.0</ele><time>2026-04-06T09:15:27.6Z</time></trkpt><trkpt lat="44.4771717" lon="9.2370267"><ele>1120.0</ele><time>2026-04-06T09:15:28.599Z</time></trkpt><trkpt lat="44.4770783" lon="9.2369633"><ele>1120.0</ele><time>2026-04-06T09:15:29.6Z</time></trkpt><trkpt lat="44.4769817" lon="9.236885"><ele>1118.2</ele><time>2026-04-06T09:15:30.6Z</time></trkpt><trkpt lat="44.476885" lon="9.2368"><ele>1116.4</ele><time>2026-04-06T09:15:31.598Z</time></trkpt><trkpt lat="44.4768017" lon="9.2367083"><ele>1114.6</ele><time>2026-04-06T09:15:32.6Z</time></trkpt><trkpt lat="44.4767133" lon="9.2366283"><ele>1112.8</ele><time>2026-04-06T09:15:33.6Z</time></trkpt><trkpt lat="44.476625" lon="9.2365783"><ele>1111.0</ele><time>2026-04-06T09:15:34.599Z</time></trkpt><trkpt lat="44.4765283" lon="9.2365767"><ele>1111.0</ele><time>2026-04-06T09:15:35.599Z</time></trkpt><trkpt lat="44.4764317" lon="9.2365933"><ele>1111.0</ele><time>2026-04-06T09:15:36.599Z</time></trkpt><trkpt lat="44.4763317" lon="9.2365933"><ele>1111.0</ele><time>2026-04-06T09:15:37.599Z</time></trkpt><trkpt lat="44.4762383" lon="9.2365567"><ele>1111.0</ele><time>2026-04-06T09:15:38.6Z</time></trkpt><trkpt lat="44.4761617" lon="9.2364917"><ele>1111.0</ele><time>2026-04-06T09:15:39.598Z</time></trkpt><trkpt lat="44.4760933" lon="9.23641"><ele>1109.5</ele><time>2026-04-06T09:15:40.599Z</time></trkpt><trkpt lat="44.4760217" lon="9.23635"><ele>1108.0</ele><time>2026-04-06T09:15:41.6Z</time></trkpt><trkpt lat="44.475945" lon="9.2363267"><ele>1106.5</ele><time>2026-04-06T09:15:42.598Z</time></trkpt><trkpt lat="44.4758667" lon="9.2363617"><ele>1105.0</ele><time>2026-04-06T09:15:43.598Z</time></trkpt><trkpt lat="44.4757883" lon="9.236425"><ele>1103.5</ele><time>2026-04-06T09:15:44.6Z</time></trkpt><trkpt lat="44.4757117" lon="9.236495"><ele>1102.0</ele><time>2026-04-06T09:15:45.602Z</time></trkpt><trkpt lat="44.4756283" lon="9.23656"><ele>1102.0</ele><time>2026-04-06T09:15:46.599Z</time></trkpt><trkpt lat="44.47554" lon="9.23662"><ele>1102.0</ele><time>2026-04-06T09:15:47.599Z</time></trkpt><trkpt lat="44.4754483" lon="9.23668"><ele>1102.0</ele><time>2026-04-06T09:15:48.599Z</time></trkpt><trkpt lat="44.47536" lon="9.2367433"><ele>1102.0</ele><time>2026-04-06T09:15:49.601Z</time></trkpt><trkpt lat="44.4752783" lon="9.236815"><ele>1102.0</ele><time>2026-04-06T09:15:50.603Z</time></trkpt><trkpt lat="44.4752" lon="9.2368983"><ele>1101.4</ele><time>2026-04-06T09:15:51.601Z</time></trkpt><trkpt lat="44.4751283" lon="9.2369983"><ele>1100.8000000000002</ele><time>2026-04-06T09:15:52.601Z</time></trkpt><trkpt lat="44.475065" lon="9.237105"><ele>1100.2</ele><time>2026-04-06T09:15:53.601Z</time></trkpt><trkpt lat="44.4750117" lon="9.237215"><ele>1099.6000000000001</ele><time>2026-04-06T09:15:54.602Z</time></trkpt><trkpt lat="44.4749617" lon="9.2373217"><ele>1099.0</ele><time>2026-04-06T09:15:55.6Z</time></trkpt><trkpt lat="44.4749133" lon="9.2374317"><ele>1099.0</ele><time>2026-04-06T09:15:56.602Z</time></trkpt><trkpt lat="44.4748667" lon="9.2375483"><ele>1099.0</ele><time>2026-04-06T09:15:57.6Z</time></trkpt><trkpt lat="44.4748267" lon="9.2376717"><ele>1099.0</ele><time>2026-04-06T09:15:58.601Z</time></trkpt><trkpt lat="44.474795" lon="9.2377917"><ele>1099.0</ele><time>2026-04-06T09:15:59.599Z</time></trkpt><trkpt lat="44.47476" lon="9.2379"><ele>1099.0</ele><time>2026-04-06T09:16:00.599Z</time></trkpt><trkpt lat="44.47471" lon="9.2379967"><ele>1099.0</ele><time>2026-04-06T09:16:01.597Z</time></trkpt><trkpt lat="44.4746383" lon="9.2380767"><ele>1099.0</ele><time>2026-04-06T09:16:02.598Z</time></trkpt><trkpt lat="44.4745383" lon="9.2381467"><ele>1099.0</ele><time>2026-04-06T09:16:03.6Z</time></trkpt><trkpt lat="44.4744167" lon="9.238215"><ele>1099.0</ele><time>2026-04-06T09:16:04.598Z</time></trkpt><trkpt lat="44.4742783" lon="9.238275"><ele>1099.75</ele><time>2026-04-06T09:16:05.6Z</time></trkpt><trkpt lat="44.4741367" lon="9.23832"><ele>1100.5</ele><time>2026-04-06T09:16:06.599Z</time></trkpt><trkpt lat="44.4739967" lon="9.2383617"><ele>1101.25</ele><time>2026-04-06T09:16:07.599Z</time></trkpt><trkpt lat="44.473865" lon="9.2384017"><ele>1102.0</ele><time>2026-04-06T09:16:08.6Z</time></trkpt><trkpt lat="44.4737367" lon="9.238435"><ele>1100.25</ele><time>2026-04-06T09:16:09.599Z</time></trkpt><trkpt lat="44.4736133" lon="9.23847"><ele>1098.5</ele><time>2026-04-06T09:16:10.599Z</time></trkpt><trkpt lat="44.4734983" lon="9.2385283"><ele>1096.75</ele><time>2026-04-06T09:16:11.599Z</time></trkpt><trkpt lat="44.4733967" lon="9.2386"><ele>1095.0</ele><time>2026-04-06T09:16:12.601Z</time></trkpt><trkpt lat="44.4733033" lon="9.238665"><ele>1095.0</ele><time>2026-04-06T09:16:13.601Z</time></trkpt><trkpt lat="44.47321" lon="9.2386967"><ele>1095.0</ele><time>2026-04-06T09:16:14.599Z</time></trkpt><trkpt lat="44.4731033" lon="9.2386867"><ele>1095.0</ele><time>2026-04-06T09:16:15.599Z</time></trkpt><trkpt lat="44.4729967" lon="9.2386517"><ele>1095.0</ele><time>2026-04-06T09:16:16.598Z</time></trkpt><trkpt lat="44.472885" lon="9.23862"><ele>1095.0</ele><time>2026-04-06T09:16:17.605Z</time></trkpt><trkpt lat="44.472775" lon="9.2385867"><ele>1092.4</ele><time>2026-04-06T09:16:18.6Z</time></trkpt><trkpt lat="44.47267" lon="9.2385583"><ele>1089.8</ele><time>2026-04-06T09:16:19.6Z</time></trkpt><trkpt lat="44.47257" lon="9.238535"><ele>1087.2</ele><time>2026-04-06T09:16:20.601Z</time></trkpt><trkpt lat="44.472475" lon="9.23853"><ele>1084.6</ele><time>2026-04-06T09:16:21.601Z</time></trkpt><trkpt lat="44.472375" lon="9.2385533"><ele>1082.0</ele><time>2026-04-06T09:16:22.6Z</time></trkpt><trkpt lat="44.4722833" lon="9.2386"><ele>1082.0</ele><time>2026-04-06T09:16:23.601Z</time></trkpt><trkpt lat="44.4721917" lon="9.238655"><ele>1082.0</ele><time>2026-04-06T09:16:24.601Z</time></trkpt><trkpt lat="44.472105" lon="9.2387117"><ele>1082.0</ele><time>2026-04-06T09:16:25.599Z</time></trkpt><trkpt lat="44.4720267" lon="9.2387783"><ele>1082.0</ele><time>2026-04-06T09:16:26.601Z</time></trkpt><trkpt lat="44.471965" lon="9.2388717"><ele>1082.0</ele><time>2026-04-06T09:16:27.6Z</time></trkpt><trkpt lat="44.4719217" lon="9.2389833"><ele>1079.2</ele><time>2026-04-06T09:16:28.601Z</time></trkpt><trkpt lat="44.4718883" lon="9.239105"><ele>1076.4</ele><time>2026-04-06T09:16:29.601Z</time></trkpt><trkpt lat="44.4718483" lon="9.23923"><ele>1073.6</ele><time>2026-04-06T09:16:30.601Z</time></trkpt><trkpt lat="44.4717967" lon="9.23936"><ele>1070.8</ele><time>2026-04-06T09:16:31.601Z</time></trkpt><trkpt lat="44.47173" lon="9.23948"><ele>1068.0</ele><time>2026-04-06T09:16:32.599Z</time></trkpt><trkpt lat="44.4716533" lon="9.2395917"><ele>1068.0</ele><time>2026-04-06T09:16:33.6Z</time></trkpt><trkpt lat="44.47158" lon="9.2397"><ele>1068.0</ele><time>2026-04-06T09:16:34.599Z</time></trkpt><trkpt lat="44.4715083" lon="9.2398067"><ele>1068.0</ele><time>2026-04-06T09:16:35.6Z</time></trkpt><trkpt lat="44.47145" lon="9.23991"><ele>1068.0</ele><time>2026-04-06T09:16:36.599Z</time></trkpt><trkpt lat="44.4714067" lon="9.2400083"><ele>1068.0</ele><time>2026-04-06T09:16:37.599Z</time></trkpt><trkpt lat="44.471385" lon="9.24011"><ele>1068.0</ele><time>2026-04-06T09:16:38.6Z</time></trkpt><trkpt lat="44.4713933" lon="9.240205"><ele>1068.0</ele><time>2026-04-06T09:16:39.6Z</time></trkpt><trkpt lat="44.4714633" lon="9.2403233"><ele>1068.0</ele><time>2026-04-06T09:16:41.599Z</time></trkpt><trkpt lat="44.4716033" lon="9.24027"><ele>1068.0</ele><time>2026-04-06T09:16:43.599Z</time></trkpt><trkpt lat="44.47169" lon="9.240205"><ele>1068.0</ele><time>2026-04-06T09:16:44.6Z</time></trkpt><trkpt lat="44.4717867" lon="9.2401433"><ele>1068.0</ele><time>2026-04-06T09:16:45.6Z</time></trkpt><trkpt lat="44.4718783" lon="9.2401083"><ele>1068.0</ele><time>2026-04-06T09:16:46.6Z</time></trkpt><trkpt lat="44.47197" lon="9.2400933"><ele>1068.0</ele><time>2026-04-06T09:16:47.601Z</time></trkpt><trkpt lat="44.4720617" lon="9.24012"><ele>1068.0</ele><time>2026-04-06T09:16:48.602Z</time></trkpt><trkpt lat="44.4721517" lon="9.24018"><ele>1068.0</ele><time>2026-04-06T09:16:49.601Z</time></trkpt><trkpt lat="44.47225" lon="9.240235"><ele>1070.2</ele><time>2026-04-06T09:16:50.601Z</time></trkpt><trkpt lat="44.472355" lon="9.2402683"><ele>1072.4</ele><time>2026-04-06T09:16:51.607Z</time></trkpt><trkpt lat="44.4724633" lon="9.2402933"><ele>1074.6000000000001</ele><time>2026-04-06T09:16:52.601Z</time></trkpt><trkpt lat="44.4725717" lon="9.2403133"><ele>1076.8</ele><time>2026-04-06T09:16:53.602Z</time></trkpt><trkpt lat="44.472675" lon="9.2403367"><ele>1079.0</ele><time>2026-04-06T09:16:54.6Z</time></trkpt><trkpt lat="44.472775" lon="9.2403583"><ele>1079.0</ele><time>2026-04-06T09:16:55.6Z</time></trkpt><trkpt lat="44.47286" lon="9.240385"><ele>1079.0</ele><time>2026-04-06T09:16:56.6Z</time></trkpt><trkpt lat="44.4729283" lon="9.2404383"><ele>1079.0</ele><time>2026-04-06T09:16:57.6Z</time></trkpt><trkpt lat="44.4729867" lon="9.2405167"><ele>1079.0</ele><time>2026-04-06T09:16:58.599Z</time></trkpt><trkpt lat="44.473035" lon="9.2406017"><ele>1079.0</ele><time>2026-04-06T09:16:59.6Z</time></trkpt><trkpt lat="44.473065" lon="9.240725"><ele>1079.0</ele><time>2026-04-06T09:17:00.6Z</time></trkpt><trkpt lat="44.4730967" lon="9.2408717"><ele>1079.0</ele><time>2026-04-06T09:17:01.6Z</time></trkpt><trkpt lat="44.4731283" lon="9.2410017"><ele>1079.0</ele><time>2026-04-06T09:17:02.6Z</time></trkpt><trkpt lat="44.47313" lon="9.24113"><ele>1079.0</ele><time>2026-04-06T09:17:03.6Z</time></trkpt><trkpt lat="44.4731017" lon="9.2412517"><ele>1079.0</ele><time>2026-04-06T09:17:04.598Z</time></trkpt><trkpt lat="44.473065" lon="9.2413633"><ele>1079.0</ele><time>2026-04-06T09:17:05.598Z</time></trkpt><trkpt lat="44.4730317" lon="9.2414717"><ele>1077.1666666666667</ele><time>2026-04-06T09:17:06.6Z</time></trkpt><trkpt lat="44.473015" lon="9.2415783"><ele>1075.3333333333335</ele><time>2026-04-06T09:17:07.601Z</time></trkpt><trkpt lat="44.4730233" lon="9.2416867"><ele>1073.5</ele><time>2026-04-06T09:17:08.599Z</time></trkpt><trkpt lat="44.47306" lon="9.24179"><ele>1071.6666666666667</ele><time>2026-04-06T09:17:09.599Z</time></trkpt><trkpt lat="44.4731317" lon="9.2418733"><ele>1069.8333333333333</ele><time>2026-04-06T09:17:10.6Z</time></trkpt><trkpt lat="44.47321" lon="9.241955"><ele>1068.0</ele><time>2026-04-06T09:17:11.6Z</time></trkpt><trkpt lat="44.47327" lon="9.2420517"><ele>1068.0</ele><time>2026-04-06T09:17:12.599Z</time></trkpt><trkpt lat="44.4732983" lon="9.2421683"><ele>1068.0</ele><time>2026-04-06T09:17:13.599Z</time></trkpt><trkpt lat="44.4733083" lon="9.242295"><ele>1068.0</ele><time>2026-04-06T09:17:14.601Z</time></trkpt><trkpt lat="44.473305" lon="9.24243"><ele>1068.0</ele><time>2026-04-06T09:17:15.6Z</time></trkpt><trkpt lat="44.4732867" lon="9.2425583"><ele>1068.0</ele><time>2026-04-06T09:17:16.6Z</time></trkpt><trkpt lat="44.473245" lon="9.24267"><ele>1066.0</ele><time>2026-04-06T09:17:17.6Z</time></trkpt><trkpt lat="44.473195" lon="9.24277"><ele>1064.0</ele><time>2026-04-06T09:17:18.6Z</time></trkpt><trkpt lat="44.47315" lon="9.2428733"><ele>1062.0</ele><time>2026-04-06T09:17:19.601Z</time></trkpt><trkpt lat="44.4731217" lon="9.2429783"><ele>1060.0</ele><time>2026-04-06T09:17:20.601Z</time></trkpt><trkpt lat="44.4731283" lon="9.2430833"><ele>1058.0</ele><time>2026-04-06T09:17:21.598Z</time></trkpt><trkpt lat="44.4731733" lon="9.243185"><ele>1056.0</ele><time>2026-04-06T09:17:22.601Z</time></trkpt><trkpt lat="44.4732483" lon="9.24327"><ele>1054.2</ele><time>2026-04-06T09:17:23.601Z</time></trkpt><trkpt lat="44.4733217" lon="9.2433617"><ele>1052.3999999999999</ele><time>2026-04-06T09:17:24.601Z</time></trkpt><trkpt lat="44.4733767" lon="9.2434767"><ele>1050.6</ele><time>2026-04-06T09:17:25.598Z</time></trkpt><trkpt lat="44.4734117" lon="9.24362"><ele>1048.8</ele><time>2026-04-06T09:17:26.6Z</time></trkpt><trkpt lat="44.47343" lon="9.24378"><ele>1047.0</ele><time>2026-04-06T09:17:27.599Z</time></trkpt><trkpt lat="44.47344" lon="9.243955"><ele>1043.5</ele><time>2026-04-06T09:17:28.598Z</time></trkpt><trkpt lat="44.4734567" lon="9.244135"><ele>1040.0</ele><time>2026-04-06T09:17:29.6Z</time></trkpt><trkpt lat="44.4734783" lon="9.24431"><ele>1036.5</ele><time>2026-04-06T09:17:30.599Z</time></trkpt><trkpt lat="44.4735017" lon="9.2444683"><ele>1033.0</ele><time>2026-04-06T09:17:31.599Z</time></trkpt><trkpt lat="44.4735167" lon="9.24461"><ele>1033.0</ele><time>2026-04-06T09:17:32.601Z</time></trkpt><trkpt lat="44.4735133" lon="9.24475"><ele>1033.0</ele><time>2026-04-06T09:17:33.6Z</time></trkpt><trkpt lat="44.4734917" lon="9.2448733"><ele>1033.0</ele><time>2026-04-06T09:17:34.598Z</time></trkpt><trkpt lat="44.4734467" lon="9.2449717"><ele>1033.0</ele><time>2026-04-06T09:17:35.602Z</time></trkpt><trkpt lat="44.4733733" lon="9.2450117"><ele>1033.0</ele><time>2026-04-06T09:17:36.599Z</time></trkpt><trkpt lat="44.47331" lon="9.2450133"><ele>1033.0</ele><time>2026-04-06T09:17:37.599Z</time></trkpt><trkpt lat="44.4732483" lon="9.24498"><ele>1033.0</ele><time>2026-04-06T09:17:38.601Z</time></trkpt><trkpt lat="44.4732283" lon="9.2448117"><ele>1033.0</ele><time>2026-04-06T09:17:40.599Z</time></trkpt><trkpt lat="44.473265" lon="9.2446783"><ele>1033.0</ele><time>2026-04-06T09:17:41.6Z</time></trkpt><trkpt lat="44.4732917" lon="9.2445433"><ele>1033.0</ele><time>2026-04-06T09:17:42.6Z</time></trkpt><trkpt lat="44.4733117" lon="9.2443883"><ele>1033.0</ele><time>2026-04-06T09:17:43.6Z</time></trkpt><trkpt lat="44.4732983" lon="9.24423"><ele>1033.0</ele><time>2026-04-06T09:17:44.6Z</time></trkpt><trkpt lat="44.4732767" lon="9.2440667"><ele>1033.0</ele><time>2026-04-06T09:17:45.6Z</time></trkpt><trkpt lat="44.47326" lon="9.24391"><ele>1033.0</ele><time>2026-04-06T09:17:46.599Z</time></trkpt><trkpt lat="44.47324" lon="9.2437783"><ele>1033.0</ele><time>2026-04-06T09:17:47.601Z</time></trkpt><trkpt lat="44.473205" lon="9.2436617"><ele>1033.0</ele><time>2026-04-06T09:17:48.602Z</time></trkpt><trkpt lat="44.4731383" lon="9.24356"><ele>1035.8</ele><time>2026-04-06T09:17:49.601Z</time></trkpt><trkpt lat="44.4730317" lon="9.2435"><ele>1038.6</ele><time>2026-04-06T09:17:50.602Z</time></trkpt><trkpt lat="44.4729233" lon="9.24346"><ele>1041.4</ele><time>2026-04-06T09:17:51.601Z</time></trkpt><trkpt lat="44.472815" lon="9.2434383"><ele>1044.2</ele><time>2026-04-06T09:17:52.602Z</time></trkpt><trkpt lat="44.4727233" lon="9.24342"><ele>1047.0</ele><time>2026-04-06T09:17:53.601Z</time></trkpt><trkpt lat="44.4726467" lon="9.243385"><ele>1040.6</ele><time>2026-04-06T09:17:54.6Z</time></trkpt><trkpt lat="44.47261" lon="9.2432933"><ele>1034.2</ele><time>2026-04-06T09:17:55.598Z</time></trkpt><trkpt lat="44.4726067" lon="9.2431683"><ele>1027.8</ele><time>2026-04-06T09:17:56.6Z</time></trkpt><trkpt lat="44.4726233" lon="9.2430383"><ele>1021.4</ele><time>2026-04-06T09:17:57.6Z</time></trkpt><trkpt lat="44.47267" lon="9.2429017"><ele>1015.0</ele><time>2026-04-06T09:17:58.599Z</time></trkpt><trkpt lat="44.472715" lon="9.2427583"><ele>1015.0</ele><time>2026-04-06T09:17:59.6Z</time></trkpt><trkpt lat="44.4727417" lon="9.2426267"><ele>1015.0</ele><time>2026-04-06T09:18:00.599Z</time></trkpt><trkpt lat="44.4727333" lon="9.242505"><ele>1015.0</ele><time>2026-04-06T09:18:01.599Z</time></trkpt><trkpt lat="44.4726833" lon="9.2423983"><ele>1015.0</ele><time>2026-04-06T09:18:02.6Z</time></trkpt><trkpt lat="44.4725933" lon="9.2423167"><ele>1015.0</ele><time>2026-04-06T09:18:03.598Z</time></trkpt><trkpt lat="44.4724983" lon="9.24225"><ele>1017.1666666666666</ele><time>2026-04-06T09:18:04.598Z</time></trkpt><trkpt lat="44.472415" lon="9.2421867"><ele>1019.3333333333333</ele><time>2026-04-06T09:18:05.599Z</time></trkpt><trkpt lat="44.4723467" lon="9.242115"><ele>1021.5</ele><time>2026-04-06T09:18:06.601Z</time></trkpt><trkpt lat="44.4722967" lon="9.24202"><ele>1023.6666666666667</ele><time>2026-04-06T09:18:07.601Z</time></trkpt><trkpt lat="44.4722783" lon="9.2419167"><ele>1025.8333333333335</ele><time>2026-04-06T09:18:08.6Z</time></trkpt><trkpt lat="44.47229" lon="9.2418067"><ele>1028.0</ele><time>2026-04-06T09:18:09.598Z</time></trkpt><trkpt lat="44.4723017" lon="9.2417017"><ele>1028.0</ele><time>2026-04-06T09:18:10.599Z</time></trkpt><trkpt lat="44.4722983" lon="9.2416017"><ele>1028.0</ele><time>2026-04-06T09:18:11.6Z</time></trkpt><trkpt lat="44.4722583" lon="9.241505"><ele>1028.0</ele><time>2026-04-06T09:18:12.599Z</time></trkpt><trkpt lat="44.4721867" lon="9.24146"><ele>1028.0</ele><time>2026-04-06T09:18:13.6Z</time></trkpt><trkpt lat="44.4721017" lon="9.241475"><ele>1028.0</ele><time>2026-04-06T09:18:14.6Z</time></trkpt><trkpt lat="44.4720167" lon="9.2415167"><ele>1028.0</ele><time>2026-04-06T09:18:15.6Z</time></trkpt><trkpt lat="44.4719317" lon="9.241585"><ele>1023.75</ele><time>2026-04-06T09:18:16.6Z</time></trkpt><trkpt lat="44.4718317" lon="9.2416383"><ele>1019.5</ele><time>2026-04-06T09:18:17.6Z</time></trkpt><trkpt lat="44.4717067" lon="9.2416733"><ele>1015.25</ele><time>2026-04-06T09:18:18.6Z</time></trkpt><trkpt lat="44.47157" lon="9.241715"><ele>1011.0</ele><time>2026-04-06T09:18:19.601Z</time></trkpt><trkpt lat="44.47143" lon="9.2417717"><ele>1011.0</ele><time>2026-04-06T09:18:20.602Z</time></trkpt><trkpt lat="44.471295" lon="9.24183"><ele>1011.0</ele><time>2026-04-06T09:18:21.601Z</time></trkpt><trkpt lat="44.471165" lon="9.2419117"><ele>1011.0</ele><time>2026-04-06T09:18:22.599Z</time></trkpt><trkpt lat="44.471055" lon="9.2419933"><ele>1011.0</ele><time>2026-04-06T09:18:23.6Z</time></trkpt><trkpt lat="44.4709633" lon="9.2420683"><ele>1009.5</ele><time>2026-04-06T09:18:24.599Z</time></trkpt><trkpt lat="44.47089" lon="9.2421217"><ele>1008.0</ele><time>2026-04-06T09:18:25.599Z</time></trkpt><trkpt lat="44.4708217" lon="9.2421467"><ele>1006.5</ele><time>2026-04-06T09:18:26.599Z</time></trkpt><trkpt lat="44.47076" lon="9.2421283"><ele>1005.0</ele><time>2026-04-06T09:18:27.598Z</time></trkpt><trkpt lat="44.4707317" lon="9.2420333"><ele>1003.5</ele><time>2026-04-06T09:18:28.601Z</time></trkpt><trkpt lat="44.4706917" lon="9.2419083"><ele>1002.0</ele><time>2026-04-06T09:18:29.601Z</time></trkpt><trkpt lat="44.470635" lon="9.24176"><ele>1002.0</ele><time>2026-04-06T09:18:30.6Z</time></trkpt><trkpt lat="44.4705583" lon="9.24162"><ele>1002.0</ele><time>2026-04-06T09:18:31.598Z</time></trkpt><trkpt lat="44.4704667" lon="9.2414967"><ele>1002.0</ele><time>2026-04-06T09:18:32.6Z</time></trkpt><trkpt lat="44.470375" lon="9.24138"><ele>1002.0</ele><time>2026-04-06T09:18:33.6Z</time></trkpt><trkpt lat="44.4703067" lon="9.2412517"><ele>1000.0</ele><time>2026-04-06T09:18:34.599Z</time></trkpt><trkpt lat="44.4702583" lon="9.2410983"><ele>998.0</ele><time>2026-04-06T09:18:35.598Z</time></trkpt><trkpt lat="44.4702217" lon="9.2409217"><ele>996.0</ele><time>2026-04-06T09:18:36.6Z</time></trkpt><trkpt lat="44.4701717" lon="9.2407317"><ele>994.0</ele><time>2026-04-06T09:18:37.598Z</time></trkpt><trkpt lat="44.470095" lon="9.240555"><ele>994.0</ele><time>2026-04-06T09:18:38.6Z</time></trkpt><trkpt lat="44.47001" lon="9.240395"><ele>994.0</ele><time>2026-04-06T09:18:39.6Z</time></trkpt><trkpt lat="44.4699217" lon="9.2402417"><ele>994.0</ele><time>2026-04-06T09:18:40.6Z</time></trkpt><trkpt lat="44.4698383" lon="9.2400917"><ele>994.0</ele><time>2026-04-06T09:18:41.599Z</time></trkpt><trkpt lat="44.4697617" lon="9.239955"><ele>994.0</ele><time>2026-04-06T09:18:42.599Z</time></trkpt><trkpt lat="44.4696983" lon="9.2398383"><ele>994.0000000000001</ele><time>2026-04-06T09:18:43.599Z</time></trkpt><trkpt lat="44.4696467" lon="9.2397517"><ele>994.0000000000001</ele><time>2026-04-06T09:18:44.6Z</time></trkpt><trkpt lat="44.4695917" lon="9.2397"><ele>994.0</ele><time>2026-04-06T09:18:45.599Z</time></trkpt><trkpt lat="44.4695083" lon="9.23978"><ele>994.0</ele><time>2026-04-06T09:18:47.601Z</time></trkpt><trkpt lat="44.4695717" lon="9.2399433"><ele>994.0</ele><time>2026-04-06T09:18:49.599Z</time></trkpt><trkpt lat="44.469645" lon="9.2400433"><ele>994.0</ele><time>2026-04-06T09:18:50.6Z</time></trkpt><trkpt lat="44.4697233" lon="9.2401733"><ele>994.0</ele><time>2026-04-06T09:18:51.599Z</time></trkpt><trkpt lat="44.46979" lon="9.2403117"><ele>994.0</ele><time>2026-04-06T09:18:52.599Z</time></trkpt><trkpt lat="44.469835" lon="9.2404583"><ele>994.0</ele><time>2026-04-06T09:18:53.599Z</time></trkpt><trkpt lat="44.46988" lon="9.2405967"><ele>994.0000000000001</ele><time>2026-04-06T09:18:54.6Z</time></trkpt><trkpt lat="44.4699283" lon="9.2407317"><ele>994.0000000000001</ele><time>2026-04-06T09:18:55.599Z</time></trkpt><trkpt lat="44.469965" lon="9.2408583"><ele>994.0</ele><time>2026-04-06T09:18:56.599Z</time></trkpt><trkpt lat="44.4699733" lon="9.24098"><ele>994.0</ele><time>2026-04-06T09:18:57.599Z</time></trkpt><trkpt lat="44.4699667" lon="9.2411033"><ele>991.0</ele><time>2026-04-06T09:18:58.598Z</time></trkpt><trkpt lat="44.46997" lon="9.241235"><ele>988.0000000000001</ele><time>2026-04-06T09:18:59.6Z</time></trkpt><trkpt lat="44.4699983" lon="9.2413783"><ele>985.0000000000001</ele><time>2026-04-06T09:19:00.598Z</time></trkpt><trkpt lat="44.47004" lon="9.2415267"><ele>982.0</ele><time>2026-04-06T09:19:01.599Z</time></trkpt><trkpt lat="44.4700983" lon="9.2416667"><ele>979.0</ele><time>2026-04-06T09:19:02.598Z</time></trkpt><trkpt lat="44.47016" lon="9.2417883"><ele>977.4000000000001</ele><time>2026-04-06T09:19:03.598Z</time></trkpt><trkpt lat="44.4702317" lon="9.2418917"><ele>975.8000000000001</ele><time>2026-04-06T09:19:04.6Z</time></trkpt><trkpt lat="44.4702867" lon="9.2420067"><ele>974.1999999999999</ele><time>2026-04-06T09:19:05.599Z</time></trkpt><trkpt lat="44.4703167" lon="9.24214"><ele>972.5999999999999</ele><time>2026-04-06T09:19:06.606Z</time></trkpt><trkpt lat="44.4703183" lon="9.242295"><ele>971.0</ele><time>2026-04-06T09:19:07.598Z</time></trkpt><trkpt lat="44.470325" lon="9.2424733"><ele>968.75</ele><time>2026-04-06T09:19:08.599Z</time></trkpt><trkpt lat="44.4703267" lon="9.2426583"><ele>966.5</ele><time>2026-04-06T09:19:09.601Z</time></trkpt><trkpt lat="44.4703183" lon="9.2428433"><ele>964.25</ele><time>2026-04-06T09:19:10.601Z</time></trkpt><trkpt lat="44.4703" lon="9.2430167"><ele>962.0</ele><time>2026-04-06T09:19:11.598Z</time></trkpt><trkpt lat="44.4702883" lon="9.2431783"><ele>962.3333333333334</ele><time>2026-04-06T09:19:12.599Z</time></trkpt><trkpt lat="44.4702833" lon="9.2433317"><ele>962.6666666666667</ele><time>2026-04-06T09:19:13.599Z</time></trkpt><trkpt lat="44.4702933" lon="9.2434717"><ele>963.0</ele><time>2026-04-06T09:19:14.599Z</time></trkpt><trkpt lat="44.4703233" lon="9.2435833"><ele>963.3333333333333</ele><time>2026-04-06T09:19:15.599Z</time></trkpt><trkpt lat="44.4703717" lon="9.24367"><ele>963.6666666666666</ele><time>2026-04-06T09:19:16.6Z</time></trkpt><trkpt lat="44.4704333" lon="9.2437233"><ele>964.0</ele><time>2026-04-06T09:19:17.6Z</time></trkpt><trkpt lat="44.4705167" lon="9.2437167"><ele>964.0</ele><time>2026-04-06T09:19:18.6Z</time></trkpt><trkpt lat="44.4705883" lon="9.243705"><ele>964.0</ele><time>2026-04-06T09:19:19.598Z</time></trkpt><trkpt lat="44.4706867" lon="9.2436283"><ele>964.0</ele><time>2026-04-06T09:19:20.602Z</time></trkpt><trkpt lat="44.470825" lon="9.2435183"><ele>964.0</ele><time>2026-04-06T09:19:21.598Z</time></trkpt><trkpt lat="44.4709567" lon="9.243435"><ele>964.0</ele><time>2026-04-06T09:19:22.6Z</time></trkpt><trkpt lat="44.47108" lon="9.2433567"><ele>964.0000000000001</ele><time>2026-04-06T09:19:23.599Z</time></trkpt><trkpt lat="44.4711867" lon="9.2433"><ele>964.0000000000001</ele><time>2026-04-06T09:19:24.6Z</time></trkpt><trkpt lat="44.471265" lon="9.2432767"><ele>964.0</ele><time>2026-04-06T09:19:25.599Z</time></trkpt><trkpt lat="44.4713417" lon="9.2432717"><ele>964.0</ele><time>2026-04-06T09:19:26.599Z</time></trkpt><trkpt lat="44.4713817" lon="9.2433783"><ele>964.0</ele><time>2026-04-06T09:19:28.599Z</time></trkpt><trkpt lat="44.471345" lon="9.2434767"><ele>964.0000000000001</ele><time>2026-04-06T09:19:29.599Z</time></trkpt><trkpt lat="44.4712817" lon="9.2435883"><ele>964.0000000000001</ele><time>2026-04-06T09:19:30.601Z</time></trkpt><trkpt lat="44.4712117" lon="9.2437167"><ele>964.0</ele><time>2026-04-06T09:19:31.601Z</time></trkpt><trkpt lat="44.4711433" lon="9.2438417"><ele>964.0</ele><time>2026-04-06T09:19:32.601Z</time></trkpt><trkpt lat="44.4710683" lon="9.24396"><ele>961.75</ele><time>2026-04-06T09:19:33.601Z</time></trkpt><trkpt lat="44.4709883" lon="9.2440933"><ele>959.5</ele><time>2026-04-06T09:19:34.6Z</time></trkpt><trkpt lat="44.4709233" lon="9.2442317"><ele>957.25</ele><time>2026-04-06T09:19:35.6Z</time></trkpt><trkpt lat="44.470885" lon="9.2443767"><ele>955.0</ele><time>2026-04-06T09:19:36.601Z</time></trkpt><trkpt lat="44.4708667" lon="9.2445167"><ele>954.9999999999999</ele><time>2026-04-06T09:19:37.602Z</time></trkpt><trkpt lat="44.4708817" lon="9.2446483"><ele>955.0</ele><time>2026-04-06T09:19:38.601Z</time></trkpt><trkpt lat="44.470915" lon="9.24475"><ele>955.0</ele><time>2026-04-06T09:19:39.601Z</time></trkpt><trkpt lat="44.4709617" lon="9.2448267"><ele>955.0</ele><time>2026-04-06T09:19:40.601Z</time></trkpt><trkpt lat="44.47102" lon="9.2448683"><ele>954.9999999999999</ele><time>2026-04-06T09:19:41.599Z</time></trkpt><trkpt lat="44.4710967" lon="9.2448783"><ele>955.0</ele><time>2026-04-06T09:19:42.6Z</time></trkpt><trkpt lat="44.471165" lon="9.24489"><ele>954.1666666666666</ele><time>2026-04-06T09:19:43.599Z</time></trkpt><trkpt lat="44.471275" lon="9.2449517"><ele>953.3333333333333</ele><time>2026-04-06T09:19:45.6Z</time></trkpt><trkpt lat="44.4713067" lon="9.2450467"><ele>952.5</ele><time>2026-04-06T09:19:47.598Z</time></trkpt><trkpt lat="44.4712433" lon="9.2451633"><ele>951.6666666666667</ele><time>2026-04-06T09:19:49.601Z</time></trkpt><trkpt lat="44.4711883" lon="9.245215"><ele>950.8333333333334</ele><time>2026-04-06T09:19:50.601Z</time></trkpt><trkpt lat="44.4711433" lon="9.2453017"><ele>950.0</ele><time>2026-04-06T09:19:51.599Z</time></trkpt><trkpt lat="44.471105" lon="9.2454"><ele>950.0</ele><time>2026-04-06T09:19:52.598Z</time></trkpt><trkpt lat="44.4711167" lon="9.2455483"><ele>950.0</ele><time>2026-04-06T09:19:53.602Z</time></trkpt><trkpt lat="44.47114" lon="9.245715"><ele>950.0</ele><time>2026-04-06T09:19:54.598Z</time></trkpt><trkpt lat="44.47118" lon="9.2458983"><ele>950.0</ele><time>2026-04-06T09:19:55.599Z</time></trkpt><trkpt lat="44.471225" lon="9.24608"><ele>949.75</ele><time>2026-04-06T09:19:56.6Z</time></trkpt><trkpt lat="44.4712683" lon="9.2462483"><ele>949.5</ele><time>2026-04-06T09:19:57.6Z</time></trkpt><trkpt lat="44.4712967" lon="9.2464183"><ele>949.25</ele><time>2026-04-06T09:19:58.599Z</time></trkpt><trkpt lat="44.4713217" lon="9.24659"><ele>949.0</ele><time>2026-04-06T09:19:59.599Z</time></trkpt><trkpt lat="44.4713567" lon="9.246755"><ele>950.0</ele><time>2026-04-06T09:20:00.599Z</time></trkpt><trkpt lat="44.4713867" lon="9.2469067"><ele>951.0000000000001</ele><time>2026-04-06T09:20:01.598Z</time></trkpt><trkpt lat="44.4714317" lon="9.2470233"><ele>952.0000000000001</ele><time>2026-04-06T09:20:02.601Z</time></trkpt><trkpt lat="44.4714883" lon="9.2471267"><ele>953.0</ele><time>2026-04-06T09:20:03.599Z</time></trkpt><trkpt lat="44.4715667" lon="9.2472167"><ele>954.0</ele><time>2026-04-06T09:20:04.598Z</time></trkpt><trkpt lat="44.4716633" lon="9.2472983"><ele>953.0</ele><time>2026-04-06T09:20:05.6Z</time></trkpt><trkpt lat="44.47177" lon="9.2473717"><ele>952.0</ele><time>2026-04-06T09:20:06.598Z</time></trkpt><trkpt lat="44.4718817" lon="9.247455"><ele>951.0</ele><time>2026-04-06T09:20:07.6Z</time></trkpt><trkpt lat="44.472" lon="9.2475367"><ele>950.0</ele><time>2026-04-06T09:20:08.599Z</time></trkpt><trkpt lat="44.4721167" lon="9.247635"><ele>950.0</ele><time>2026-04-06T09:20:09.598Z</time></trkpt><trkpt lat="44.4722283" lon="9.2477483"><ele>950.0</ele><time>2026-04-06T09:20:10.599Z</time></trkpt><trkpt lat="44.4723283" lon="9.2478717"><ele>950.0</ele><time>2026-04-06T09:20:11.598Z</time></trkpt><trkpt lat="44.4724117" lon="9.2480117"><ele>950.0</ele><time>2026-04-06T09:20:12.6Z</time></trkpt><trkpt lat="44.4724883" lon="9.24815"><ele>948.2</ele><time>2026-04-06T09:20:13.599Z</time></trkpt><trkpt lat="44.472555" lon="9.24828"><ele>946.4</ele><time>2026-04-06T09:20:14.6Z</time></trkpt><trkpt lat="44.4726" lon="9.2484117"><ele>944.5999999999999</ele><time>2026-04-06T09:20:15.599Z</time></trkpt><trkpt lat="44.4726067" lon="9.2485483"><ele>942.8</ele><time>2026-04-06T09:20:16.599Z</time></trkpt><trkpt lat="44.4725933" lon="9.2486933"><ele>941.0</ele><time>2026-04-06T09:20:17.599Z</time></trkpt><trkpt lat="44.47257" lon="9.2488367"><ele>939.4</ele><time>2026-04-06T09:20:18.599Z</time></trkpt><trkpt lat="44.472545" lon="9.24898"><ele>937.8</ele><time>2026-04-06T09:20:19.599Z</time></trkpt><trkpt lat="44.4725233" lon="9.2491117"><ele>936.1999999999999</ele><time>2026-04-06T09:20:20.6Z</time></trkpt><trkpt lat="44.4725067" lon="9.2492367"><ele>934.5999999999999</ele><time>2026-04-06T09:20:21.6Z</time></trkpt><trkpt lat="44.4724917" lon="9.2493567"><ele>933.0</ele><time>2026-04-06T09:20:22.599Z</time></trkpt><trkpt lat="44.4724817" lon="9.2494767"><ele>933.0</ele><time>2026-04-06T09:20:23.599Z</time></trkpt><trkpt lat="44.4724733" lon="9.24959"><ele>932.9999999999999</ele><time>2026-04-06T09:20:24.6Z</time></trkpt><trkpt lat="44.4724733" lon="9.2496917"><ele>933.0</ele><time>2026-04-06T09:20:25.599Z</time></trkpt><trkpt lat="44.472475" lon="9.24978"><ele>933.0</ele><time>2026-04-06T09:20:26.6Z</time></trkpt><trkpt lat="44.4724833" lon="9.24989"><ele>932.9999999999999</ele><time>2026-04-06T09:20:28.599Z</time></trkpt><trkpt lat="44.472475" lon="9.2499883"><ele>933.0</ele><time>2026-04-06T09:20:32.599Z</time></trkpt><trkpt lat="44.47242" lon="9.250075"><ele>933.0</ele><time>2026-04-06T09:20:35.598Z</time></trkpt><trkpt lat="44.4723583" lon="9.250135"><ele>932.1666666666666</ele><time>2026-04-06T09:20:37.598Z</time></trkpt><trkpt lat="44.4722667" lon="9.25016"><ele>931.3333333333333</ele><time>2026-04-06T09:20:39.598Z</time></trkpt><trkpt lat="44.4721583" lon="9.250125"><ele>930.5</ele><time>2026-04-06T09:20:41.599Z</time></trkpt><trkpt lat="44.472095" lon="9.25008"><ele>929.6666666666666</ele><time>2026-04-06T09:20:42.598Z</time></trkpt><trkpt lat="44.4720383" lon="9.25001"><ele>928.8333333333333</ele><time>2026-04-06T09:20:43.598Z</time></trkpt><trkpt lat="44.4719883" lon="9.2499133"><ele>928.0</ele><time>2026-04-06T09:20:44.598Z</time></trkpt><trkpt lat="44.4719417" lon="9.2497917"><ele>926.25</ele><time>2026-04-06T09:20:45.597Z</time></trkpt><trkpt lat="44.4718883" lon="9.2496567"><ele>924.5</ele><time>2026-04-06T09:20:46.598Z</time></trkpt><trkpt lat="44.4718283" lon="9.2495117"><ele>922.75</ele><time>2026-04-06T09:20:47.6Z</time></trkpt><trkpt lat="44.4717533" lon="9.2493717"><ele>921.0</ele><time>2026-04-06T09:20:48.597Z</time></trkpt><trkpt lat="44.4716633" lon="9.2492367"><ele>921.0</ele><time>2026-04-06T09:20:49.605Z</time></trkpt><trkpt lat="44.4715633" lon="9.24911"><ele>921.0</ele><time>2026-04-06T09:20:50.599Z</time></trkpt><trkpt lat="44.4714533" lon="9.2489983"><ele>921.0</ele><time>2026-04-06T09:20:51.598Z</time></trkpt><trkpt lat="44.471335" lon="9.2489067"><ele>921.0</ele><time>2026-04-06T09:20:52.6Z</time></trkpt><trkpt lat="44.47122" lon="9.2488067"><ele>918.0</ele><time>2026-04-06T09:20:53.597Z</time></trkpt><trkpt lat="44.4711167" lon="9.24869"><ele>915.0</ele><time>2026-04-06T09:20:54.597Z</time></trkpt><trkpt lat="44.4710167" lon="9.2485683"><ele>912.0</ele><time>2026-04-06T09:20:55.597Z</time></trkpt><trkpt lat="44.4709067" lon="9.2484583"><ele>909.0</ele><time>2026-04-06T09:20:56.598Z</time></trkpt><trkpt lat="44.470795" lon="9.2483533"><ele>909.0</ele><time>2026-04-06T09:20:57.598Z</time></trkpt><trkpt lat="44.4706933" lon="9.2482383"><ele>909.0</ele><time>2026-04-06T09:20:58.599Z</time></trkpt><trkpt lat="44.4706117" lon="9.248095"><ele>909.0</ele><time>2026-04-06T09:20:59.597Z</time></trkpt><trkpt lat="44.4705383" lon="9.2479417"><ele>909.0</ele><time>2026-04-06T09:21:00.597Z</time></trkpt><trkpt lat="44.4704633" lon="9.2477867"><ele>902.5</ele><time>2026-04-06T09:21:01.599Z</time></trkpt><trkpt lat="44.4703617" lon="9.2476483"><ele>896.0</ele><time>2026-04-06T09:21:02.599Z</time></trkpt><trkpt lat="44.4702467" lon="9.2475133"><ele>889.5</ele><time>2026-04-06T09:21:03.597Z</time></trkpt><trkpt lat="44.47013" lon="9.2473783"><ele>883.0</ele><time>2026-04-06T09:21:04.597Z</time></trkpt><trkpt lat="44.470015" lon="9.2472417"><ele>879.25</ele><time>2026-04-06T09:21:05.599Z</time></trkpt><trkpt lat="44.4699083" lon="9.2470983"><ele>875.5</ele><time>2026-04-06T09:21:06.597Z</time></trkpt><trkpt lat="44.469815" lon="9.2469433"><ele>871.75</ele><time>2026-04-06T09:21:07.599Z</time></trkpt><trkpt lat="44.4697067" lon="9.2468117"><ele>868.0</ele><time>2026-04-06T09:21:08.598Z</time></trkpt><trkpt lat="44.4695833" lon="9.24668"><ele>868.0</ele><time>2026-04-06T09:21:09.598Z</time></trkpt><trkpt lat="44.46944" lon="9.246565"><ele>868.0</ele><time>2026-04-06T09:21:10.597Z</time></trkpt><trkpt lat="44.46928" lon="9.2464583"><ele>868.0</ele><time>2026-04-06T09:21:11.599Z</time></trkpt><trkpt lat="44.4691117" lon="9.2463533"><ele>873.3333333333333</ele><time>2026-04-06T09:21:12.598Z</time></trkpt><trkpt lat="44.46894" lon="9.2462433"><ele>878.6666666666667</ele><time>2026-04-06T09:21:13.598Z</time></trkpt><trkpt lat="44.468765" lon="9.2461417"><ele>884.0</ele><time>2026-04-06T09:21:14.599Z</time></trkpt><trkpt lat="44.4685933" lon="9.2460417"><ele>884.0</ele><time>2026-04-06T09:21:15.598Z</time></trkpt><trkpt lat="44.4684217" lon="9.2459517"><ele>884.0</ele><time>2026-04-06T09:21:16.598Z</time></trkpt><trkpt lat="44.4682517" lon="9.2458733"><ele>884.0</ele><time>2026-04-06T09:21:17.598Z</time></trkpt><trkpt lat="44.4680867" lon="9.245815"><ele>872.0</ele><time>2026-04-06T09:21:18.597Z</time></trkpt><trkpt lat="44.46792" lon="9.2457867"><ele>860.0</ele><time>2026-04-06T09:21:19.598Z</time></trkpt><trkpt lat="44.46777" lon="9.2457433"><ele>848.0</ele><time>2026-04-06T09:21:20.598Z</time></trkpt><trkpt lat="44.46764" lon="9.2456967"><ele>853.5</ele><time>2026-04-06T09:21:21.598Z</time></trkpt><trkpt lat="44.4675317" lon="9.2456233"><ele>859.0</ele><time>2026-04-06T09:21:22.597Z</time></trkpt><trkpt lat="44.4674533" lon="9.24551"><ele>864.5</ele><time>2026-04-06T09:21:23.598Z</time></trkpt><trkpt lat="44.4674117" lon="9.2453683"><ele>870.0</ele><time>2026-04-06T09:21:24.598Z</time></trkpt><trkpt lat="44.4674117" lon="9.2452"><ele>870.0</ele><time>2026-04-06T09:21:25.598Z</time></trkpt><trkpt lat="44.4674217" lon="9.2450133"><ele>870.0</ele><time>2026-04-06T09:21:26.599Z</time></trkpt><trkpt lat="44.4674133" lon="9.244815"><ele>870.0</ele><time>2026-04-06T09:21:27.599Z</time></trkpt><trkpt lat="44.4673833" lon="9.2446133"><ele>870.0</ele><time>2026-04-06T09:21:28.599Z</time></trkpt><trkpt lat="44.467335" lon="9.2444217"><ele>872.5</ele><time>2026-04-06T09:21:29.599Z</time></trkpt><trkpt lat="44.4672617" lon="9.2442367"><ele>875.0</ele><time>2026-04-06T09:21:30.598Z</time></trkpt><trkpt lat="44.46717" lon="9.2440683"><ele>877.5</ele><time>2026-04-06T09:21:31.599Z</time></trkpt><trkpt lat="44.4670817" lon="9.2439033"><ele>880.0</ele><time>2026-04-06T09:21:32.599Z</time></trkpt><trkpt lat="44.4670167" lon="9.2437233"><ele>875.75</ele><time>2026-04-06T09:21:33.597Z</time></trkpt><trkpt lat="44.4669733" lon="9.24354"><ele>871.5</ele><time>2026-04-06T09:21:34.598Z</time></trkpt><trkpt lat="44.4669483" lon="9.243375"><ele>867.25</ele><time>2026-04-06T09:21:35.598Z</time></trkpt><trkpt lat="44.4669133" lon="9.2432283"><ele>863.0</ele><time>2026-04-06T09:21:36.598Z</time></trkpt><trkpt lat="44.4668467" lon="9.2431017"><ele>863.0</ele><time>2026-04-06T09:21:37.599Z</time></trkpt><trkpt lat="44.4667583" lon="9.2430067"><ele>863.0</ele><time>2026-04-06T09:21:38.598Z</time></trkpt><trkpt lat="44.4666583" lon="9.2429267"><ele>863.0</ele><time>2026-04-06T09:21:39.598Z</time></trkpt><trkpt lat="44.4665667" lon="9.2428383"><ele>863.0</ele><time>2026-04-06T09:21:40.599Z</time></trkpt><trkpt lat="44.466505" lon="9.2427117"><ele>863.0</ele><time>2026-04-06T09:21:41.597Z</time></trkpt><trkpt lat="44.46645" lon="9.2425733"><ele>863.0</ele><time>2026-04-06T09:21:42.598Z</time></trkpt><trkpt lat="44.4663883" lon="9.2424517"><ele>863.0</ele><time>2026-04-06T09:21:43.597Z</time></trkpt><trkpt lat="44.4663" lon="9.2423633"><ele>863.0</ele><time>2026-04-06T09:21:44.599Z</time></trkpt><trkpt lat="44.4661783" lon="9.2423167"><ele>863.0</ele><time>2026-04-06T09:21:45.598Z</time></trkpt><trkpt lat="44.466035" lon="9.2422883"><ele>863.5</ele><time>2026-04-06T09:21:46.598Z</time></trkpt><trkpt lat="44.465885" lon="9.2422533"><ele>864.0</ele><time>2026-04-06T09:21:47.598Z</time></trkpt><trkpt lat="44.4657467" lon="9.2422017"><ele>864.5</ele><time>2026-04-06T09:21:48.597Z</time></trkpt><trkpt lat="44.465605" lon="9.2421633"><ele>865.0</ele><time>2026-04-06T09:21:49.598Z</time></trkpt><trkpt lat="44.465465" lon="9.2421583"><ele>861.25</ele><time>2026-04-06T09:21:50.599Z</time></trkpt><trkpt lat="44.465335" lon="9.2421867"><ele>857.5</ele><time>2026-04-06T09:21:51.598Z</time></trkpt><trkpt lat="44.4652133" lon="9.242215"><ele>853.75</ele><time>2026-04-06T09:21:52.599Z</time></trkpt><trkpt lat="44.465095" lon="9.2422167"><ele>850.0</ele><time>2026-04-06T09:21:53.599Z</time></trkpt><trkpt lat="44.46498" lon="9.2421633"><ele>850.0</ele><time>2026-04-06T09:21:54.598Z</time></trkpt><trkpt lat="44.46487" lon="9.2420817"><ele>850.0</ele><time>2026-04-06T09:21:55.598Z</time></trkpt><trkpt lat="44.464755" lon="9.2420183"><ele>850.0</ele><time>2026-04-06T09:21:56.599Z</time></trkpt><trkpt lat="44.46463" lon="9.2420117"><ele>850.0</ele><time>2026-04-06T09:21:57.598Z</time></trkpt><trkpt lat="44.4644833" lon="9.242055"><ele>848.6666666666666</ele><time>2026-04-06T09:21:58.598Z</time></trkpt><trkpt lat="44.4643317" lon="9.2421217"><ele>847.3333333333333</ele><time>2026-04-06T09:21:59.604Z</time></trkpt><trkpt lat="44.4641817" lon="9.2421833"><ele>846.0</ele><time>2026-04-06T09:22:00.6Z</time></trkpt><trkpt lat="44.4640317" lon="9.2422217"><ele>846.0</ele><time>2026-04-06T09:22:01.598Z</time></trkpt><trkpt lat="44.4638883" lon="9.24221"><ele>846.0</ele><time>2026-04-06T09:22:02.598Z</time></trkpt><trkpt lat="44.4637433" lon="9.2421583"><ele>846.0</ele><time>2026-04-06T09:22:03.597Z</time></trkpt><trkpt lat="44.4635967" lon="9.24209"><ele>846.0</ele><time>2026-04-06T09:22:04.599Z</time></trkpt><trkpt lat="44.4634583" lon="9.2420267"><ele>847.5</ele><time>2026-04-06T09:22:05.598Z</time></trkpt><trkpt lat="44.4633267" lon="9.24199"><ele>849.0</ele><time>2026-04-06T09:22:06.599Z</time></trkpt><trkpt lat="44.463185" lon="9.2420217"><ele>850.5</ele><time>2026-04-06T09:22:07.6Z</time></trkpt><trkpt lat="44.4630333" lon="9.2421133"><ele>852.0</ele><time>2026-04-06T09:22:08.602Z</time></trkpt><trkpt lat="44.4628667" lon="9.242255"><ele>836.3333333333333</ele><time>2026-04-06T09:22:09.6Z</time></trkpt><trkpt lat="44.4627" lon="9.242415"><ele>820.6666666666666</ele><time>2026-04-06T09:22:10.601Z</time></trkpt><trkpt lat="44.4625417" lon="9.24256"><ele>805.0</ele><time>2026-04-06T09:22:11.597Z</time></trkpt><trkpt lat="44.4623933" lon="9.242685"><ele>805.0</ele><time>2026-04-06T09:22:12.598Z</time></trkpt><trkpt lat="44.4622633" lon="9.24279"><ele>805.0</ele><time>2026-04-06T09:22:13.598Z</time></trkpt><trkpt lat="44.46213" lon="9.2428683"><ele>805.0</ele><time>2026-04-06T09:22:14.598Z</time></trkpt><trkpt lat="44.4619917" lon="9.242895"><ele>805.0</ele><time>2026-04-06T09:22:15.599Z</time></trkpt><trkpt lat="44.4618467" lon="9.2428667"><ele>807.75</ele><time>2026-04-06T09:22:16.598Z</time></trkpt><trkpt lat="44.4617033" lon="9.2428267"><ele>810.5</ele><time>2026-04-06T09:22:17.598Z</time></trkpt><trkpt lat="44.4615683" lon="9.2428217"><ele>813.25</ele><time>2026-04-06T09:22:18.599Z</time></trkpt><trkpt lat="44.461445" lon="9.2428717"><ele>816.0</ele><time>2026-04-06T09:22:19.599Z</time></trkpt><trkpt lat="44.4613267" lon="9.2429783"><ele>819.25</ele><time>2026-04-06T09:22:20.6Z</time></trkpt><trkpt lat="44.4612267" lon="9.2431067"><ele>822.5</ele><time>2026-04-06T09:22:21.597Z</time></trkpt><trkpt lat="44.4611367" lon="9.2432433"><ele>825.75</ele><time>2026-04-06T09:22:22.599Z</time></trkpt><trkpt lat="44.4610383" lon="9.243355"><ele>829.0</ele><time>2026-04-06T09:22:23.599Z</time></trkpt><trkpt lat="44.4609167" lon="9.2434267"><ele>822.0</ele><time>2026-04-06T09:22:24.597Z</time></trkpt><trkpt lat="44.46078" lon="9.243465"><ele>815.0</ele><time>2026-04-06T09:22:25.598Z</time></trkpt><trkpt lat="44.4606333" lon="9.2434983"><ele>808.0</ele><time>2026-04-06T09:22:26.599Z</time></trkpt><trkpt lat="44.4604833" lon="9.2435533"><ele>801.0</ele><time>2026-04-06T09:22:27.598Z</time></trkpt><trkpt lat="44.4603417" lon="9.2436433"><ele>801.0</ele><time>2026-04-06T09:22:28.599Z</time></trkpt><trkpt lat="44.4602033" lon="9.2437683"><ele>801.0</ele><time>2026-04-06T09:22:29.597Z</time></trkpt><trkpt lat="44.4600717" lon="9.2439033"><ele>801.0</ele><time>2026-04-06T09:22:30.6Z</time></trkpt><trkpt lat="44.4599367" lon="9.244045"><ele>797.0</ele><time>2026-04-06T09:22:31.6Z</time></trkpt><trkpt lat="44.459805" lon="9.244205"><ele>793.0</ele><time>2026-04-06T09:22:32.601Z</time></trkpt><trkpt lat="44.4596767" lon="9.24439"><ele>789.0</ele><time>2026-04-06T09:22:33.599Z</time></trkpt><trkpt lat="44.4595617" lon="9.2445783"><ele>789.0</ele><time>2026-04-06T09:22:34.598Z</time></trkpt><trkpt lat="44.459455" lon="9.2447633"><ele>789.0</ele><time>2026-04-06T09:22:35.6Z</time></trkpt><trkpt lat="44.4593467" lon="9.244935"><ele>789.0</ele><time>2026-04-06T09:22:36.599Z</time></trkpt><trkpt lat="44.4592367" lon="9.2450717"><ele>783.2</ele><time>2026-04-06T09:22:37.598Z</time></trkpt><trkpt lat="44.4591317" lon="9.2451767"><ele>777.4000000000001</ele><time>2026-04-06T09:22:38.599Z</time></trkpt><trkpt lat="44.4590467" lon="9.2452617"><ele>771.6</ele><time>2026-04-06T09:22:39.598Z</time></trkpt><trkpt lat="44.4589867" lon="9.2453483"><ele>765.8</ele><time>2026-04-06T09:22:40.598Z</time></trkpt><trkpt lat="44.4589533" lon="9.245445"><ele>760.0</ele><time>2026-04-06T09:22:41.601Z</time></trkpt><trkpt lat="44.4589833" lon="9.2455417"><ele>760.0</ele><time>2026-04-06T09:22:42.598Z</time></trkpt><trkpt lat="44.459055" lon="9.245585"><ele>760.0</ele><time>2026-04-06T09:22:43.597Z</time></trkpt><trkpt lat="44.4591567" lon="9.2455667"><ele>760.0</ele><time>2026-04-06T09:22:44.598Z</time></trkpt><trkpt lat="44.4592833" lon="9.2455167"><ele>760.0</ele><time>2026-04-06T09:22:45.597Z</time></trkpt><trkpt lat="44.4594333" lon="9.2454533"><ele>760.0</ele><time>2026-04-06T09:22:46.598Z</time></trkpt><trkpt lat="44.4595867" lon="9.245415"><ele>760.0</ele><time>2026-04-06T09:22:47.598Z</time></trkpt><trkpt lat="44.45975" lon="9.24538"><ele>760.0</ele><time>2026-04-06T09:22:48.598Z</time></trkpt><trkpt lat="44.4599117" lon="9.24534"><ele>755.6666666666667</ele><time>2026-04-06T09:22:49.597Z</time></trkpt><trkpt lat="44.46008" lon="9.24528"><ele>751.3333333333334</ele><time>2026-04-06T09:22:50.598Z</time></trkpt><trkpt lat="44.4602417" lon="9.2452017"><ele>747.0</ele><time>2026-04-06T09:22:51.598Z</time></trkpt><trkpt lat="44.4603933" lon="9.24511"><ele>749.3333333333334</ele><time>2026-04-06T09:22:52.597Z</time></trkpt><trkpt lat="44.4605367" lon="9.2450067"><ele>751.6666666666667</ele><time>2026-04-06T09:22:53.598Z</time></trkpt><trkpt lat="44.46066" lon="9.2448867"><ele>754.0</ele><time>2026-04-06T09:22:54.599Z</time></trkpt><trkpt lat="44.4607683" lon="9.2447633"><ele>754.0</ele><time>2026-04-06T09:22:55.598Z</time></trkpt><trkpt lat="44.4608617" lon="9.24465"><ele>754.0</ele><time>2026-04-06T09:22:56.598Z</time></trkpt><trkpt lat="44.46093" lon="9.2445533"><ele>754.0</ele><time>2026-04-06T09:22:57.598Z</time></trkpt><trkpt lat="44.4609917" lon="9.244475"><ele>754.0</ele><time>2026-04-06T09:22:58.598Z</time></trkpt><trkpt lat="44.4610533" lon="9.2444433"><ele>754.0</ele><time>2026-04-06T09:22:59.598Z</time></trkpt><trkpt lat="44.46113" lon="9.24454"><ele>754.0</ele><time>2026-04-06T09:23:01.598Z</time></trkpt><trkpt lat="44.46111" lon="9.2446267"><ele>754.0</ele><time>2026-04-06T09:23:02.598Z</time></trkpt><trkpt lat="44.4610433" lon="9.2447283"><ele>754.0</ele><time>2026-04-06T09:23:03.598Z</time></trkpt><trkpt lat="44.4609683" lon="9.2448467"><ele>754.0</ele><time>2026-04-06T09:23:04.598Z</time></trkpt><trkpt lat="44.4608833" lon="9.24499"><ele>754.0</ele><time>2026-04-06T09:23:05.599Z</time></trkpt><trkpt lat="44.460775" lon="9.2451417"><ele>751.6666666666667</ele><time>2026-04-06T09:23:06.599Z</time></trkpt><trkpt lat="44.460645" lon="9.245295"><ele>749.3333333333334</ele><time>2026-04-06T09:23:07.598Z</time></trkpt><trkpt lat="44.4605017" lon="9.24545"><ele>747.0</ele><time>2026-04-06T09:23:08.598Z</time></trkpt><trkpt lat="44.4603567" lon="9.2456017"><ele>737.6666666666666</ele><time>2026-04-06T09:23:09.598Z</time></trkpt><trkpt lat="44.4602133" lon="9.2457417"><ele>728.3333333333333</ele><time>2026-04-06T09:23:10.598Z</time></trkpt><trkpt lat="44.4600783" lon="9.24588"><ele>719.0</ele><time>2026-04-06T09:23:11.598Z</time></trkpt><trkpt lat="44.4599583" lon="9.246015"><ele>719.0</ele><time>2026-04-06T09:23:12.598Z</time></trkpt><trkpt lat="44.4598583" lon="9.24616"><ele>719.0</ele><time>2026-04-06T09:23:13.599Z</time></trkpt><trkpt lat="44.459785" lon="9.2463117"><ele>719.0</ele><time>2026-04-06T09:23:14.601Z</time></trkpt><trkpt lat="44.4597333" lon="9.2464783"><ele>719.0</ele><time>2026-04-06T09:23:15.598Z</time></trkpt><trkpt lat="44.4596783" lon="9.246635"><ele>715.0</ele><time>2026-04-06T09:23:16.599Z</time></trkpt><trkpt lat="44.459605" lon="9.2467633"><ele>711.0</ele><time>2026-04-06T09:23:17.598Z</time></trkpt><trkpt lat="44.4595167" lon="9.2468467"><ele>707.0</ele><time>2026-04-06T09:23:18.598Z</time></trkpt><trkpt lat="44.4594133" lon="9.2469017"><ele>703.0</ele><time>2026-04-06T09:23:19.6Z</time></trkpt><trkpt lat="44.4592967" lon="9.2469017"><ele>703.0</ele><time>2026-04-06T09:23:20.601Z</time></trkpt><trkpt lat="44.4591583" lon="9.246855"><ele>703.0</ele><time>2026-04-06T09:23:21.6Z</time></trkpt><trkpt lat="44.4590167" lon="9.2467933"><ele>703.0</ele><time>2026-04-06T09:23:22.6Z</time></trkpt><trkpt lat="44.4588733" lon="9.2467267"><ele>703.0</ele><time>2026-04-06T09:23:23.601Z</time></trkpt><trkpt lat="44.4587267" lon="9.2466483"><ele>708.3333333333334</ele><time>2026-04-06T09:23:24.6Z</time></trkpt><trkpt lat="44.4585883" lon="9.246545"><ele>713.6666666666666</ele><time>2026-04-06T09:23:25.599Z</time></trkpt><trkpt lat="44.4584533" lon="9.246425"><ele>719.0</ele><time>2026-04-06T09:23:26.598Z</time></trkpt><trkpt lat="44.4583233" lon="9.246305"><ele>719.0</ele><time>2026-04-06T09:23:27.598Z</time></trkpt><trkpt lat="44.4581983" lon="9.246195"><ele>719.0</ele><time>2026-04-06T09:23:28.599Z</time></trkpt><trkpt lat="44.4580733" lon="9.2461017"><ele>719.0</ele><time>2026-04-06T09:23:29.598Z</time></trkpt><trkpt lat="44.4579367" lon="9.2460583"><ele>719.0</ele><time>2026-04-06T09:23:30.599Z</time></trkpt><trkpt lat="44.45778" lon="9.24606"><ele>711.6666666666666</ele><time>2026-04-06T09:23:31.598Z</time></trkpt><trkpt lat="44.4576083" lon="9.2460867"><ele>704.3333333333334</ele><time>2026-04-06T09:23:32.6Z</time></trkpt><trkpt lat="44.4574367" lon="9.2461233"><ele>697.0</ele><time>2026-04-06T09:23:33.598Z</time></trkpt><trkpt lat="44.4572683" lon="9.2461633"><ele>694.0</ele><time>2026-04-06T09:23:34.597Z</time></trkpt><trkpt lat="44.4571" lon="9.2462283"><ele>691.0</ele><time>2026-04-06T09:23:35.599Z</time></trkpt><trkpt lat="44.4569267" lon="9.246315"><ele>688.0</ele><time>2026-04-06T09:23:36.598Z</time></trkpt><trkpt lat="44.4567617" lon="9.246425"><ele>682.6666666666667</ele><time>2026-04-06T09:23:37.597Z</time></trkpt><trkpt lat="44.4566083" lon="9.2465383"><ele>677.3333333333334</ele><time>2026-04-06T09:23:38.598Z</time></trkpt><trkpt lat="44.4564683" lon="9.2466483"><ele>672.0</ele><time>2026-04-06T09:23:39.599Z</time></trkpt><trkpt lat="44.4563517" lon="9.2467533"><ele>668.6</ele><time>2026-04-06T09:23:40.598Z</time></trkpt><trkpt lat="44.456255" lon="9.2468467"><ele>665.2</ele><time>2026-04-06T09:23:41.598Z</time></trkpt><trkpt lat="44.456185" lon="9.2469233"><ele>661.8</ele><time>2026-04-06T09:23:42.598Z</time></trkpt><trkpt lat="44.4561317" lon="9.2470233"><ele>658.4</ele><time>2026-04-06T09:23:43.598Z</time></trkpt><trkpt lat="44.45613" lon="9.24714"><ele>655.0</ele><time>2026-04-06T09:23:44.599Z</time></trkpt><trkpt lat="44.4561717" lon="9.2472317"><ele>655.0</ele><time>2026-04-06T09:23:45.599Z</time></trkpt><trkpt lat="44.4562367" lon="9.2472683"><ele>655.0</ele><time>2026-04-06T09:23:46.597Z</time></trkpt><trkpt lat="44.456315" lon="9.2472833"><ele>655.0</ele><time>2026-04-06T09:23:47.598Z</time></trkpt><trkpt lat="44.4564233" lon="9.24728"><ele>655.0</ele><time>2026-04-06T09:23:48.598Z</time></trkpt><trkpt lat="44.456595" lon="9.2472517"><ele>655.0</ele><time>2026-04-06T09:23:49.598Z</time></trkpt><trkpt lat="44.456775" lon="9.2472583"><ele>656.3333333333334</ele><time>2026-04-06T09:23:50.598Z</time></trkpt><trkpt lat="44.456975" lon="9.24728"><ele>657.6666666666666</ele><time>2026-04-06T09:23:51.6Z</time></trkpt><trkpt lat="44.457185" lon="9.2472983"><ele>659.0</ele><time>2026-04-06T09:23:52.598Z</time></trkpt><trkpt lat="44.4574017" lon="9.2473117"><ele>659.0</ele><time>2026-04-06T09:23:53.598Z</time></trkpt><trkpt lat="44.4576033" lon="9.247315"><ele>659.0</ele><time>2026-04-06T09:23:54.597Z</time></trkpt><trkpt lat="44.4577967" lon="9.24733"><ele>659.0</ele><time>2026-04-06T09:23:55.599Z</time></trkpt><trkpt lat="44.457965" lon="9.2473583"><ele>659.0</ele><time>2026-04-06T09:23:56.599Z</time></trkpt><trkpt lat="44.4581083" lon="9.2473933"><ele>659.0</ele><time>2026-04-06T09:23:57.598Z</time></trkpt><trkpt lat="44.4582183" lon="9.24744"><ele>659.0</ele><time>2026-04-06T09:23:58.598Z</time></trkpt><trkpt lat="44.4583" lon="9.247495"><ele>659.0</ele><time>2026-04-06T09:23:59.598Z</time></trkpt><trkpt lat="44.45836" lon="9.2475583"><ele>659.0</ele><time>2026-04-06T09:24:00.598Z</time></trkpt><trkpt lat="44.4583333" lon="9.2477033"><ele>659.0</ele><time>2026-04-06T09:24:02.599Z</time></trkpt><trkpt lat="44.4581983" lon="9.2477117"><ele>659.0</ele><time>2026-04-06T09:24:03.599Z</time></trkpt><trkpt lat="44.4580417" lon="9.2477017"><ele>659.0</ele><time>2026-04-06T09:24:04.598Z</time></trkpt><trkpt lat="44.4578467" lon="9.2477033"><ele>659.0</ele><time>2026-04-06T09:24:05.598Z</time></trkpt><trkpt lat="44.4576533" lon="9.24774"><ele>659.0</ele><time>2026-04-06T09:24:06.598Z</time></trkpt><trkpt lat="44.4574467" lon="9.2478233"><ele>659.0</ele><time>2026-04-06T09:24:07.598Z</time></trkpt><trkpt lat="44.45724" lon="9.247935"><ele>657.6666666666666</ele><time>2026-04-06T09:24:08.601Z</time></trkpt><trkpt lat="44.4570467" lon="9.248055"><ele>656.3333333333334</ele><time>2026-04-06T09:24:09.598Z</time></trkpt><trkpt lat="44.4568517" lon="9.2481783"><ele>655.0</ele><time>2026-04-06T09:24:10.599Z</time></trkpt><trkpt lat="44.4566583" lon="9.2482967"><ele>649.6666666666667</ele><time>2026-04-06T09:24:11.598Z</time></trkpt><trkpt lat="44.4564733" lon="9.248425"><ele>644.3333333333334</ele><time>2026-04-06T09:24:12.597Z</time></trkpt><trkpt lat="44.4563" lon="9.2485667"><ele>639.0</ele><time>2026-04-06T09:24:13.599Z</time></trkpt><trkpt lat="44.456145" lon="9.248725"><ele>639.0</ele><time>2026-04-06T09:24:14.599Z</time></trkpt><trkpt lat="44.4560033" lon="9.2488933"><ele>639.0</ele><time>2026-04-06T09:24:15.598Z</time></trkpt><trkpt lat="44.455865" lon="9.2490517"><ele>639.0</ele><time>2026-04-06T09:24:16.597Z</time></trkpt><trkpt lat="44.4557233" lon="9.2492033"><ele>634.6666666666666</ele><time>2026-04-06T09:24:17.599Z</time></trkpt><trkpt lat="44.4555767" lon="9.2493467"><ele>630.3333333333333</ele><time>2026-04-06T09:24:18.599Z</time></trkpt><trkpt lat="44.455425" lon="9.249475"><ele>626.0</ele><time>2026-04-06T09:24:19.598Z</time></trkpt><trkpt lat="44.455275" lon="9.2495833"><ele>626.0</ele><time>2026-04-06T09:24:20.599Z</time></trkpt><trkpt lat="44.455125" lon="9.2497033"><ele>626.0</ele><time>2026-04-06T09:24:21.598Z</time></trkpt><trkpt lat="44.4549833" lon="9.2498233"><ele>626.0</ele><time>2026-04-06T09:24:22.598Z</time></trkpt><trkpt lat="44.4548433" lon="9.2499383"><ele>621.0</ele><time>2026-04-06T09:24:23.599Z</time></trkpt><trkpt lat="44.4547033" lon="9.2500533"><ele>616.0</ele><time>2026-04-06T09:24:24.599Z</time></trkpt><trkpt lat="44.45457" lon="9.25017"><ele>611.0</ele><time>2026-04-06T09:24:25.599Z</time></trkpt><trkpt lat="44.45444" lon="9.2502883"><ele>611.0</ele><time>2026-04-06T09:24:26.6Z</time></trkpt><trkpt lat="44.4543083" lon="9.2504067"><ele>611.0</ele><time>2026-04-06T09:24:27.597Z</time></trkpt><trkpt lat="44.454185" lon="9.2505267"><ele>611.0</ele><time>2026-04-06T09:24:28.599Z</time></trkpt><trkpt lat="44.4540757" lon="9.2506351"><ele>611.0</ele><time>2026-04-06T09:24:29.599Z</time></trkpt><trkpt lat="44.4539913" lon="9.2507234"><ele>608.6666666666666</ele><time>2026-04-06T09:24:30.597Z</time></trkpt><trkpt lat="44.4539287" lon="9.2508198"><ele>606.3333333333333</ele><time>2026-04-06T09:24:31.6Z</time></trkpt><trkpt lat="44.4539049" lon="9.2509327"><ele>604.0</ele><time>2026-04-06T09:24:32.606Z</time></trkpt><trkpt lat="44.4539304" lon="9.2510448"><ele>601.6666666666666</ele><time>2026-04-06T09:24:33.598Z</time></trkpt><trkpt lat="44.4540003" lon="9.2511181"><ele>599.3333333333334</ele><time>2026-04-06T09:24:34.597Z</time></trkpt><trkpt lat="44.4540966" lon="9.2511261"><ele>597.0</ele><time>2026-04-06T09:24:35.598Z</time></trkpt><trkpt lat="44.4542182" lon="9.2510538"><ele>597.0</ele><time>2026-04-06T09:24:36.598Z</time></trkpt><trkpt lat="44.4543641" lon="9.2509219"><ele>597.0</ele><time>2026-04-06T09:24:37.598Z</time></trkpt><trkpt lat="44.4545094" lon="9.2507796"><ele>597.0</ele><time>2026-04-06T09:24:38.598Z</time></trkpt><trkpt lat="44.4546509" lon="9.2506399"><ele>598.3333333333334</ele><time>2026-04-06T09:24:39.598Z</time></trkpt><trkpt lat="44.4547812" lon="9.2504949"><ele>599.6666666666667</ele><time>2026-04-06T09:24:40.597Z</time></trkpt><trkpt lat="44.4549012" lon="9.2503581"><ele>601.0</ele><time>2026-04-06T09:24:41.597Z</time></trkpt><trkpt lat="44.455023" lon="9.2502421"><ele>601.0</ele><time>2026-04-06T09:24:42.598Z</time></trkpt><trkpt lat="44.4551589" lon="9.2501608"><ele>601.0</ele><time>2026-04-06T09:24:43.599Z</time></trkpt><trkpt lat="44.4553161" lon="9.250113"><ele>601.0</ele><time>2026-04-06T09:24:44.598Z</time></trkpt><trkpt lat="44.4554829" lon="9.2500708"><ele>593.0</ele><time>2026-04-06T09:24:45.598Z</time></trkpt><trkpt lat="44.4556478" lon="9.2500261"><ele>585.0</ele><time>2026-04-06T09:24:46.597Z</time></trkpt><trkpt lat="44.4558024" lon="9.2499762"><ele>577.0</ele><time>2026-04-06T09:24:47.598Z</time></trkpt><trkpt lat="44.4559424" lon="9.249911"><ele>577.0</ele><time>2026-04-06T09:24:48.6Z</time></trkpt><trkpt lat="44.456075" lon="9.2498357"><ele>577.0</ele><time>2026-04-06T09:24:49.599Z</time></trkpt><trkpt lat="44.4562113" lon="9.2497722"><ele>577.0</ele><time>2026-04-06T09:24:50.6Z</time></trkpt><trkpt lat="44.4563525" lon="9.2497346"><ele>577.0</ele><time>2026-04-06T09:24:51.6Z</time></trkpt><trkpt lat="44.4564967" lon="9.2497283"><ele>583.6666666666667</ele><time>2026-04-06T09:24:52.6Z</time></trkpt><trkpt lat="44.4566517" lon="9.2497183"><ele>590.3333333333334</ele><time>2026-04-06T09:24:53.6Z</time></trkpt><trkpt lat="44.45681" lon="9.2497383"><ele>597.0</ele><time>2026-04-06T09:24:54.598Z</time></trkpt><trkpt lat="44.4569683" lon="9.2497817"><ele>586.0</ele><time>2026-04-06T09:24:55.598Z</time></trkpt><trkpt lat="44.4571333" lon="9.24986"><ele>575.0</ele><time>2026-04-06T09:24:56.598Z</time></trkpt><trkpt lat="44.4572933" lon="9.2499367"><ele>564.0</ele><time>2026-04-06T09:24:57.597Z</time></trkpt><trkpt lat="44.45745" lon="9.2499933"><ele>564.0</ele><time>2026-04-06T09:24:58.598Z</time></trkpt><trkpt lat="44.4576017" lon="9.250035"><ele>564.0</ele><time>2026-04-06T09:24:59.598Z</time></trkpt><trkpt lat="44.4577517" lon="9.2500783"><ele>564.0</ele><time>2026-04-06T09:25:00.599Z</time></trkpt><trkpt lat="44.4579017" lon="9.2501217"><ele>565.5</ele><time>2026-04-06T09:25:01.598Z</time></trkpt><trkpt lat="44.458045" lon="9.2501733"><ele>567.0</ele><time>2026-04-06T09:25:02.599Z</time></trkpt><trkpt lat="44.45818" lon="9.250235"><ele>568.5</ele><time>2026-04-06T09:25:03.598Z</time></trkpt><trkpt lat="44.4583083" lon="9.2502933"><ele>570.0</ele><time>2026-04-06T09:25:04.598Z</time></trkpt><trkpt lat="44.4584267" lon="9.2503467"><ele>570.0</ele><time>2026-04-06T09:25:05.598Z</time></trkpt><trkpt lat="44.4585283" lon="9.2504"><ele>570.0</ele><time>2026-04-06T09:25:06.599Z</time></trkpt><trkpt lat="44.4586233" lon="9.2504417"><ele>570.0</ele><time>2026-04-06T09:25:07.599Z</time></trkpt><trkpt lat="44.4587" lon="9.2504733"><ele>570.0</ele><time>2026-04-06T09:25:08.598Z</time></trkpt><trkpt lat="44.4587583" lon="9.250515"><ele>570.0</ele><time>2026-04-06T09:25:09.598Z</time></trkpt><trkpt lat="44.4588217" lon="9.25064"><ele>566.0</ele><time>2026-04-06T09:25:11.598Z</time></trkpt><trkpt lat="44.4587783" lon="9.250785"><ele>562.0</ele><time>2026-04-06T09:25:13.6Z</time></trkpt><trkpt lat="44.4587233" lon="9.2508333"><ele>558.0</ele><time>2026-04-06T09:25:14.598Z</time></trkpt><trkpt lat="44.4586383" lon="9.2508683"><ele>554.0</ele><time>2026-04-06T09:25:15.598Z</time></trkpt><trkpt lat="44.458525" lon="9.25087"><ele>550.0</ele><time>2026-04-06T09:25:16.598Z</time></trkpt><trkpt lat="44.4584133" lon="9.2508567"><ele>550.0</ele><time>2026-04-06T09:25:17.599Z</time></trkpt><trkpt lat="44.4583083" lon="9.2508317"><ele>550.0</ele><time>2026-04-06T09:25:18.599Z</time></trkpt><trkpt lat="44.458215" lon="9.2507983"><ele>550.0</ele><time>2026-04-06T09:25:19.6Z</time></trkpt><trkpt lat="44.45813" lon="9.2507433"><ele>550.0</ele><time>2026-04-06T09:25:20.598Z</time></trkpt><trkpt lat="44.45805" lon="9.2506883"><ele>550.0</ele><time>2026-04-06T09:25:21.598Z</time></trkpt><trkpt lat="44.4579717" lon="9.25063"><ele>548.5714285714286</ele><time>2026-04-06T09:25:22.599Z</time></trkpt><trkpt lat="44.45789" lon="9.250595"><ele>547.1428571428571</ele><time>2026-04-06T09:25:23.598Z</time></trkpt><trkpt lat="44.457815" lon="9.2505833"><ele>545.7142857142857</ele><time>2026-04-06T09:25:24.598Z</time></trkpt><trkpt lat="44.45775" lon="9.25063"><ele>544.2857142857142</ele><time>2026-04-06T09:25:25.599Z</time></trkpt><trkpt lat="44.457705" lon="9.2506933"><ele>542.8571428571428</ele><time>2026-04-06T09:25:26.599Z</time></trkpt><trkpt lat="44.4576833" lon="9.250785"><ele>541.4285714285714</ele><time>2026-04-06T09:25:27.599Z</time></trkpt><trkpt lat="44.457715" lon="9.250885"><ele>540.0</ele><time>2026-04-06T09:25:28.598Z</time></trkpt><trkpt lat="44.4577617" lon="9.250975"><ele>540.0</ele><time>2026-04-06T09:25:29.597Z</time></trkpt><trkpt lat="44.457845" lon="9.251055"><ele>540.0</ele><time>2026-04-06T09:25:30.599Z</time></trkpt><trkpt lat="44.4579933" lon="9.251125"><ele>540.0</ele><time>2026-04-06T09:25:31.599Z</time></trkpt><trkpt lat="44.4581333" lon="9.251225"><ele>540.0</ele><time>2026-04-06T09:25:32.599Z</time></trkpt><trkpt lat="44.45828" lon="9.2513233"><ele>537.3333333333334</ele><time>2026-04-06T09:25:33.598Z</time></trkpt><trkpt lat="44.4584333" lon="9.2514083"><ele>534.6666666666667</ele><time>2026-04-06T09:25:34.598Z</time></trkpt><trkpt lat="44.4585817" lon="9.2514733"><ele>532.0</ele><time>2026-04-06T09:25:35.598Z</time></trkpt><trkpt lat="44.45873" lon="9.25152"><ele>531.5</ele><time>2026-04-06T09:25:36.597Z</time></trkpt><trkpt lat="44.4588733" lon="9.25156"><ele>531.0</ele><time>2026-04-06T09:25:37.598Z</time></trkpt><trkpt lat="44.4590033" lon="9.251585"><ele>530.5</ele><time>2026-04-06T09:25:38.597Z</time></trkpt><trkpt lat="44.4591233" lon="9.2515683"><ele>530.0</ele><time>2026-04-06T09:25:39.6Z</time></trkpt><trkpt lat="44.4592417" lon="9.2515117"><ele>533.0</ele><time>2026-04-06T09:25:40.598Z</time></trkpt><trkpt lat="44.45935" lon="9.25143"><ele>536.0</ele><time>2026-04-06T09:25:41.598Z</time></trkpt><trkpt lat="44.459465" lon="9.25133"><ele>539.0</ele><time>2026-04-06T09:25:42.598Z</time></trkpt><trkpt lat="44.4595817" lon="9.2512383"><ele>542.0</ele><time>2026-04-06T09:25:43.598Z</time></trkpt><trkpt lat="44.4597117" lon="9.2511617"><ele>542.0</ele><time>2026-04-06T09:25:44.598Z</time></trkpt><trkpt lat="44.4598483" lon="9.2511067"><ele>542.0</ele><time>2026-04-06T09:25:45.598Z</time></trkpt><trkpt lat="44.4599933" lon="9.251055"><ele>542.0</ele><time>2026-04-06T09:25:46.598Z</time></trkpt><trkpt lat="44.4601317" lon="9.251"><ele>542.0</ele><time>2026-04-06T09:25:47.598Z</time></trkpt><trkpt lat="44.4602483" lon="9.2509317"><ele>542.0</ele><time>2026-04-06T09:25:48.598Z</time></trkpt><trkpt lat="44.4603533" lon="9.250835"><ele>542.0</ele><time>2026-04-06T09:25:49.599Z</time></trkpt><trkpt lat="44.4604367" lon="9.2507117"><ele>542.0</ele><time>2026-04-06T09:25:50.599Z</time></trkpt><trkpt lat="44.46049" lon="9.2505817"><ele>542.0</ele><time>2026-04-06T09:25:51.599Z</time></trkpt><trkpt lat="44.4605467" lon="9.250475"><ele>542.0</ele><time>2026-04-06T09:25:52.598Z</time></trkpt><trkpt lat="44.4606133" lon="9.2504183"><ele>541.2</ele><time>2026-04-06T09:25:53.598Z</time></trkpt><trkpt lat="44.460685" lon="9.2504417"><ele>540.4000000000001</ele><time>2026-04-06T09:25:54.598Z</time></trkpt><trkpt lat="44.46072" lon="9.25053"><ele>539.5999999999999</ele><time>2026-04-06T09:25:55.6Z</time></trkpt><trkpt lat="44.46073" lon="9.2506367"><ele>538.8</ele><time>2026-04-06T09:25:56.599Z</time></trkpt><trkpt lat="44.4606667" lon="9.250775"><ele>538.0</ele><time>2026-04-06T09:25:57.598Z</time></trkpt><trkpt lat="44.4605817" lon="9.2509133"><ele>539.3333333333334</ele><time>2026-04-06T09:25:58.598Z</time></trkpt><trkpt lat="44.4604617" lon="9.2510633"><ele>540.6666666666666</ele><time>2026-04-06T09:25:59.598Z</time></trkpt><trkpt lat="44.4603283" lon="9.251215"><ele>542.0</ele><time>2026-04-06T09:26:00.597Z</time></trkpt><trkpt lat="44.4601967" lon="9.2513817"><ele>533.3333333333333</ele><time>2026-04-06T09:26:01.599Z</time></trkpt><trkpt lat="44.4600683" lon="9.25156"><ele>524.6666666666666</ele><time>2026-04-06T09:26:02.6Z</time></trkpt><trkpt lat="44.45996" lon="9.251755"><ele>516.0</ele><time>2026-04-06T09:26:03.598Z</time></trkpt><trkpt lat="44.4598717" lon="9.2519633"><ele>516.0</ele><time>2026-04-06T09:26:04.601Z</time></trkpt><trkpt lat="44.4597967" lon="9.252165"><ele>516.0</ele><time>2026-04-06T09:26:05.601Z</time></trkpt><trkpt lat="44.4597267" lon="9.2523583"><ele>516.0</ele><time>2026-04-06T09:26:06.598Z</time></trkpt><trkpt lat="44.4596517" lon="9.2525367"><ele>514.75</ele><time>2026-04-06T09:26:07.598Z</time></trkpt><trkpt lat="44.4595717" lon="9.2527017"><ele>513.5</ele><time>2026-04-06T09:26:08.6Z</time></trkpt><trkpt lat="44.459475" lon="9.2528517"><ele>512.25</ele><time>2026-04-06T09:26:09.598Z</time></trkpt><trkpt lat="44.4593633" lon="9.2529617"><ele>511.0</ele><time>2026-04-06T09:26:10.6Z</time></trkpt><trkpt lat="44.459245" lon="9.2530183"><ele>511.0</ele><time>2026-04-06T09:26:11.598Z</time></trkpt><trkpt lat="44.4591033" lon="9.2530283"><ele>511.0</ele><time>2026-04-06T09:26:12.598Z</time></trkpt><trkpt lat="44.4589517" lon="9.253"><ele>511.0</ele><time>2026-04-06T09:26:13.598Z</time></trkpt><trkpt lat="44.4587917" lon="9.2529617"><ele>507.6666666666667</ele><time>2026-04-06T09:26:14.598Z</time></trkpt><trkpt lat="44.458635" lon="9.25292"><ele>504.33333333333337</ele><time>2026-04-06T09:26:15.599Z</time></trkpt><trkpt lat="44.4584817" lon="9.2528767"><ele>501.0</ele><time>2026-04-06T09:26:16.598Z</time></trkpt><trkpt lat="44.4583333" lon="9.2528483"><ele>501.0</ele><time>2026-04-06T09:26:17.597Z</time></trkpt><trkpt lat="44.458195" lon="9.2528133"><ele>501.0</ele><time>2026-04-06T09:26:18.598Z</time></trkpt><trkpt lat="44.4580667" lon="9.2527667"><ele>501.0</ele><time>2026-04-06T09:26:19.598Z</time></trkpt><trkpt lat="44.4579483" lon="9.2526983"><ele>501.0</ele><time>2026-04-06T09:26:20.599Z</time></trkpt><trkpt lat="44.4578533" lon="9.2526"><ele>499.0</ele><time>2026-04-06T09:26:21.602Z</time></trkpt><trkpt lat="44.4577767" lon="9.2525067"><ele>497.0</ele><time>2026-04-06T09:26:22.598Z</time></trkpt><trkpt lat="44.4576983" lon="9.25244"><ele>495.0</ele><time>2026-04-06T09:26:23.598Z</time></trkpt><trkpt lat="44.45762" lon="9.2523967"><ele>493.0</ele><time>2026-04-06T09:26:24.598Z</time></trkpt><trkpt lat="44.4575417" lon="9.2524267"><ele>491.0</ele><time>2026-04-06T09:26:25.599Z</time></trkpt><trkpt lat="44.4574633" lon="9.25251"><ele>491.0</ele><time>2026-04-06T09:26:26.599Z</time></trkpt><trkpt lat="44.4573933" lon="9.252615"><ele>491.0</ele><time>2026-04-06T09:26:27.597Z</time></trkpt><trkpt lat="44.45732" lon="9.2527083"><ele>491.0</ele><time>2026-04-06T09:26:28.598Z</time></trkpt><trkpt lat="44.4572417" lon="9.2527817"><ele>491.0</ele><time>2026-04-06T09:26:29.599Z</time></trkpt><trkpt lat="44.45715" lon="9.2528317"><ele>491.0</ele><time>2026-04-06T09:26:30.597Z</time></trkpt><trkpt lat="44.4570567" lon="9.25287"><ele>489.6</ele><time>2026-04-06T09:26:31.599Z</time></trkpt><trkpt lat="44.4569717" lon="9.25294"><ele>488.20000000000005</ele><time>2026-04-06T09:26:32.599Z</time></trkpt><trkpt lat="44.456915" lon="9.253045"><ele>486.79999999999995</ele><time>2026-04-06T09:26:33.598Z</time></trkpt><trkpt lat="44.456875" lon="9.25318"><ele>485.4</ele><time>2026-04-06T09:26:34.6Z</time></trkpt><trkpt lat="44.45684" lon="9.2533167"><ele>484.0</ele><time>2026-04-06T09:26:35.598Z</time></trkpt><trkpt lat="44.4567833" lon="9.2534567"><ele>484.0</ele><time>2026-04-06T09:26:36.598Z</time></trkpt><trkpt lat="44.456695" lon="9.2535883"><ele>484.0</ele><time>2026-04-06T09:26:37.599Z</time></trkpt><trkpt lat="44.45659" lon="9.2537283"><ele>484.0</ele><time>2026-04-06T09:26:38.599Z</time></trkpt><trkpt lat="44.456475" lon="9.2538667"><ele>484.0</ele><time>2026-04-06T09:26:39.599Z</time></trkpt><trkpt lat="44.456355" lon="9.253995"><ele>482.0</ele><time>2026-04-06T09:26:40.598Z</time></trkpt><trkpt lat="44.45623" lon="9.2540983"><ele>480.0</ele><time>2026-04-06T09:26:41.598Z</time></trkpt><trkpt lat="44.4561033" lon="9.2541833"><ele>478.0</ele><time>2026-04-06T09:26:42.599Z</time></trkpt><trkpt lat="44.4559767" lon="9.2542333"><ele>476.0</ele><time>2026-04-06T09:26:43.598Z</time></trkpt><trkpt lat="44.4558617" lon="9.254255"><ele>475.99999999999994</ele><time>2026-04-06T09:26:44.599Z</time></trkpt><trkpt lat="44.4557683" lon="9.25428"><ele>476.0</ele><time>2026-04-06T09:26:45.598Z</time></trkpt><trkpt lat="44.45569" lon="9.254325"><ele>476.0</ele><time>2026-04-06T09:26:46.599Z</time></trkpt><trkpt lat="44.4556533" lon="9.2544233"><ele>476.0</ele><time>2026-04-06T09:26:47.601Z</time></trkpt><trkpt lat="44.4556683" lon="9.2545317"><ele>475.99999999999994</ele><time>2026-04-06T09:26:48.598Z</time></trkpt><trkpt lat="44.4557233" lon="9.2546117"><ele>476.0</ele><time>2026-04-06T09:26:49.598Z</time></trkpt><trkpt lat="44.4558117" lon="9.25462"><ele>476.0</ele><time>2026-04-06T09:26:50.598Z</time></trkpt><trkpt lat="44.4559167" lon="9.254575"><ele>476.0</ele><time>2026-04-06T09:26:51.598Z</time></trkpt><trkpt lat="44.456055" lon="9.2544983"><ele>476.0</ele><time>2026-04-06T09:26:52.599Z</time></trkpt><trkpt lat="44.4561983" lon="9.2544483"><ele>476.0</ele><time>2026-04-06T09:26:53.599Z</time></trkpt><trkpt lat="44.4563417" lon="9.2544183"><ele>471.25</ele><time>2026-04-06T09:26:54.598Z</time></trkpt><trkpt lat="44.4564783" lon="9.254395"><ele>466.5</ele><time>2026-04-06T09:26:55.602Z</time></trkpt><trkpt lat="44.4566133" lon="9.2543483"><ele>461.75</ele><time>2026-04-06T09:26:56.599Z</time></trkpt><trkpt lat="44.4567533" lon="9.2542633"><ele>457.0</ele><time>2026-04-06T09:26:57.599Z</time></trkpt><trkpt lat="44.456885" lon="9.2541383"><ele>457.0</ele><time>2026-04-06T09:26:58.598Z</time></trkpt><trkpt lat="44.4569933" lon="9.2539883"><ele>457.0</ele><time>2026-04-06T09:26:59.599Z</time></trkpt><trkpt lat="44.4570833" lon="9.25383"><ele>457.0</ele><time>2026-04-06T09:27:00.598Z</time></trkpt><trkpt lat="44.457175" lon="9.2536883"><ele>457.0</ele><time>2026-04-06T09:27:01.598Z</time></trkpt><trkpt lat="44.457285" lon="9.25358"><ele>458.6</ele><time>2026-04-06T09:27:02.598Z</time></trkpt><trkpt lat="44.4573983" lon="9.25352"><ele>460.20000000000005</ele><time>2026-04-06T09:27:03.597Z</time></trkpt><trkpt lat="44.4575067" lon="9.2535"><ele>461.8</ele><time>2026-04-06T09:27:04.597Z</time></trkpt><trkpt lat="44.4576" lon="9.25353"><ele>463.4</ele><time>2026-04-06T09:27:05.598Z</time></trkpt><trkpt lat="44.457665" lon="9.25361"><ele>465.0</ele><time>2026-04-06T09:27:06.598Z</time></trkpt><trkpt lat="44.457695" lon="9.2537317"><ele>465.0</ele><time>2026-04-06T09:27:07.598Z</time></trkpt><trkpt lat="44.4577183" lon="9.2538667"><ele>465.0</ele><time>2026-04-06T09:27:08.599Z</time></trkpt><trkpt lat="44.4577567" lon="9.2539967"><ele>465.0</ele><time>2026-04-06T09:27:09.598Z</time></trkpt><trkpt lat="44.457825" lon="9.2540967"><ele>465.0</ele><time>2026-04-06T09:27:10.599Z</time></trkpt><trkpt lat="44.4579283" lon="9.2541533"><ele>465.0</ele><time>2026-04-06T09:27:11.598Z</time></trkpt><trkpt lat="44.45806" lon="9.25418"><ele>459.75</ele><time>2026-04-06T09:27:12.597Z</time></trkpt><trkpt lat="44.45819" lon="9.2542233"><ele>454.5</ele><time>2026-04-06T09:27:13.599Z</time></trkpt><trkpt lat="44.45831" lon="9.2542917"><ele>449.25</ele><time>2026-04-06T09:27:14.6Z</time></trkpt><trkpt lat="44.4584283" lon="9.25435"><ele>444.0</ele><time>2026-04-06T09:27:15.598Z</time></trkpt><trkpt lat="44.45855" lon="9.25438"><ele>444.0</ele><time>2026-04-06T09:27:16.598Z</time></trkpt><trkpt lat="44.458675" lon="9.254385"><ele>444.0</ele><time>2026-04-06T09:27:17.597Z</time></trkpt><trkpt lat="44.4588" lon="9.2543917"><ele>444.0</ele><time>2026-04-06T09:27:18.597Z</time></trkpt><trkpt lat="44.4589183" lon="9.2544017"><ele>444.0</ele><time>2026-04-06T09:27:19.597Z</time></trkpt><trkpt lat="44.459035" lon="9.2544267"><ele>444.0</ele><time>2026-04-06T09:27:20.602Z</time></trkpt><trkpt lat="44.459145" lon="9.2544633"><ele>444.0</ele><time>2026-04-06T09:27:21.599Z</time></trkpt><trkpt lat="44.4592433" lon="9.2545117"><ele>444.0</ele><time>2026-04-06T09:27:22.6Z</time></trkpt><trkpt lat="44.4593217" lon="9.2545767"><ele>444.0</ele><time>2026-04-06T09:27:23.599Z</time></trkpt><trkpt lat="44.459375" lon="9.2546667"><ele>444.0</ele><time>2026-04-06T09:27:24.599Z</time></trkpt><trkpt lat="44.45939" lon="9.25477"><ele>438.79999999999995</ele><time>2026-04-06T09:27:25.599Z</time></trkpt><trkpt lat="44.4593333" lon="9.2548383"><ele>433.59999999999997</ele><time>2026-04-06T09:27:26.599Z</time></trkpt><trkpt lat="44.4592433" lon="9.2548817"><ele>428.4</ele><time>2026-04-06T09:27:27.598Z</time></trkpt><trkpt lat="44.4591367" lon="9.254925"><ele>423.2</ele><time>2026-04-06T09:27:28.598Z</time></trkpt><trkpt lat="44.4590267" lon="9.25498"><ele>418.0</ele><time>2026-04-06T09:27:29.598Z</time></trkpt><trkpt lat="44.4589233" lon="9.255055"><ele>418.0</ele><time>2026-04-06T09:27:30.599Z</time></trkpt><trkpt lat="44.45883" lon="9.255135"><ele>418.0</ele><time>2026-04-06T09:27:31.599Z</time></trkpt><trkpt lat="44.4587333" lon="9.2552083"><ele>418.0</ele><time>2026-04-06T09:27:32.599Z</time></trkpt><trkpt lat="44.45862" lon="9.2552317"><ele>418.0</ele><time>2026-04-06T09:27:33.598Z</time></trkpt><trkpt lat="44.4584967" lon="9.2552117"><ele>417.25</ele><time>2026-04-06T09:27:34.6Z</time></trkpt><trkpt lat="44.4583617" lon="9.2551817"><ele>416.5</ele><time>2026-04-06T09:27:35.599Z</time></trkpt><trkpt lat="44.4582333" lon="9.255145"><ele>415.75</ele><time>2026-04-06T09:27:36.597Z</time></trkpt><trkpt lat="44.4581" lon="9.2551017"><ele>415.0</ele><time>2026-04-06T09:27:37.597Z</time></trkpt><trkpt lat="44.4579767" lon="9.2550367"><ele>414.4</ele><time>2026-04-06T09:27:38.598Z</time></trkpt><trkpt lat="44.457875" lon="9.2549383"><ele>413.8</ele><time>2026-04-06T09:27:39.598Z</time></trkpt><trkpt lat="44.4577917" lon="9.2548233"><ele>413.20000000000005</ele><time>2026-04-06T09:27:40.6Z</time></trkpt><trkpt lat="44.457715" lon="9.25473"><ele>412.6</ele><time>2026-04-06T09:27:41.597Z</time></trkpt><trkpt lat="44.4576367" lon="9.2546783"><ele>412.0</ele><time>2026-04-06T09:27:42.598Z</time></trkpt><trkpt lat="44.457555" lon="9.25469"><ele>412.0</ele><time>2026-04-06T09:27:43.599Z</time></trkpt><trkpt lat="44.4574783" lon="9.2547733"><ele>412.0</ele><time>2026-04-06T09:27:44.599Z</time></trkpt><trkpt lat="44.4574067" lon="9.2549183"><ele>412.0</ele><time>2026-04-06T09:27:45.597Z</time></trkpt><trkpt lat="44.4573433" lon="9.2550867"><ele>412.0</ele><time>2026-04-06T09:27:46.598Z</time></trkpt><trkpt lat="44.4572867" lon="9.25525"><ele>412.0</ele><time>2026-04-06T09:27:47.597Z</time></trkpt><trkpt lat="44.4572283" lon="9.2554017"><ele>412.0</ele><time>2026-04-06T09:27:48.599Z</time></trkpt><trkpt lat="44.45716" lon="9.2555433"><ele>412.0</ele><time>2026-04-06T09:27:49.6Z</time></trkpt><trkpt lat="44.457065" lon="9.25568"><ele>412.0</ele><time>2026-04-06T09:27:50.601Z</time></trkpt><trkpt lat="44.4569533" lon="9.255805"><ele>410.25</ele><time>2026-04-06T09:27:51.6Z</time></trkpt><trkpt lat="44.4568383" lon="9.25592"><ele>408.5</ele><time>2026-04-06T09:27:52.601Z</time></trkpt><trkpt lat="44.4567217" lon="9.2560217"><ele>406.75</ele><time>2026-04-06T09:27:53.599Z</time></trkpt><trkpt lat="44.4566117" lon="9.2561167"><ele>405.0</ele><time>2026-04-06T09:27:54.601Z</time></trkpt><trkpt lat="44.4565083" lon="9.2561983"><ele>405.0</ele><time>2026-04-06T09:27:55.601Z</time></trkpt><trkpt lat="44.4564083" lon="9.2562533"><ele>405.0</ele><time>2026-04-06T09:27:56.601Z</time></trkpt><trkpt lat="44.4563" lon="9.2562633"><ele>405.0</ele><time>2026-04-06T09:27:57.601Z</time></trkpt><trkpt lat="44.45619" lon="9.2562267"><ele>405.0</ele><time>2026-04-06T09:27:58.601Z</time></trkpt><trkpt lat="44.45607" lon="9.256165"><ele>405.75</ele><time>2026-04-06T09:27:59.598Z</time></trkpt><trkpt lat="44.4559417" lon="9.2561167"><ele>406.5</ele><time>2026-04-06T09:28:00.597Z</time></trkpt><trkpt lat="44.4558133" lon="9.25609"><ele>407.25</ele><time>2026-04-06T09:28:01.599Z</time></trkpt><trkpt lat="44.4556883" lon="9.2560767"><ele>408.0</ele><time>2026-04-06T09:28:02.6Z</time></trkpt><trkpt lat="44.4555767" lon="9.25607"><ele>408.0</ele><time>2026-04-06T09:28:03.598Z</time></trkpt><trkpt lat="44.4554933" lon="9.2560833"><ele>408.0</ele><time>2026-04-06T09:28:04.598Z</time></trkpt><trkpt lat="44.4554267" lon="9.256115"><ele>408.0</ele><time>2026-04-06T09:28:05.598Z</time></trkpt><trkpt lat="44.4553767" lon="9.2561783"><ele>408.0</ele><time>2026-04-06T09:28:06.599Z</time></trkpt><trkpt lat="44.4553717" lon="9.2562833"><ele>408.0</ele><time>2026-04-06T09:28:07.597Z</time></trkpt><trkpt lat="44.4553917" lon="9.2563767"><ele>408.0</ele><time>2026-04-06T09:28:08.599Z</time></trkpt><trkpt lat="44.455455" lon="9.256435"><ele>408.0</ele><time>2026-04-06T09:28:09.598Z</time></trkpt><trkpt lat="44.4555483" lon="9.256445"><ele>408.0</ele><time>2026-04-06T09:28:10.599Z</time></trkpt><trkpt lat="44.4556417" lon="9.2564167"><ele>408.0</ele><time>2026-04-06T09:28:11.598Z</time></trkpt><trkpt lat="44.45575" lon="9.2563833"><ele>408.0</ele><time>2026-04-06T09:28:12.598Z</time></trkpt><trkpt lat="44.4558567" lon="9.2563817"><ele>408.0</ele><time>2026-04-06T09:28:13.598Z</time></trkpt><trkpt lat="44.4559567" lon="9.2564383"><ele>408.0</ele><time>2026-04-06T09:28:14.599Z</time></trkpt><trkpt lat="44.4560317" lon="9.2565333"><ele>402.4</ele><time>2026-04-06T09:28:15.599Z</time></trkpt><trkpt lat="44.4560967" lon="9.2566267"><ele>396.79999999999995</ele><time>2026-04-06T09:28:16.598Z</time></trkpt><trkpt lat="44.4561667" lon="9.2567"><ele>391.2</ele><time>2026-04-06T09:28:17.597Z</time></trkpt><trkpt lat="44.4562517" lon="9.2567133"><ele>385.6</ele><time>2026-04-06T09:28:18.597Z</time></trkpt><trkpt lat="44.4563433" lon="9.2566817"><ele>380.0</ele><time>2026-04-06T09:28:19.599Z</time></trkpt><trkpt lat="44.4564517" lon="9.2566117"><ele>378.5</ele><time>2026-04-06T09:28:20.599Z</time></trkpt><trkpt lat="44.456575" lon="9.256545"><ele>377.0</ele><time>2026-04-06T09:28:21.597Z</time></trkpt><trkpt lat="44.4567117" lon="9.256495"><ele>375.5</ele><time>2026-04-06T09:28:22.598Z</time></trkpt><trkpt lat="44.4568533" lon="9.2564583"><ele>374.0</ele><time>2026-04-06T09:28:23.6Z</time></trkpt><trkpt lat="44.4569867" lon="9.2564217"><ele>377.75</ele><time>2026-04-06T09:28:24.598Z</time></trkpt><trkpt lat="44.4571067" lon="9.256375"><ele>381.5</ele><time>2026-04-06T09:28:25.6Z</time></trkpt><trkpt lat="44.457206" lon="9.2563112"><ele>385.25</ele><time>2026-04-06T09:28:26.604Z</time></trkpt><trkpt lat="44.4572837" lon="9.2562052"><ele>389.0</ele><time>2026-04-06T09:28:27.598Z</time></trkpt><trkpt lat="44.4573429" lon="9.256066"><ele>389.0</ele><time>2026-04-06T09:28:28.597Z</time></trkpt><trkpt lat="44.4573984" lon="9.2559198"><ele>389.0</ele><time>2026-04-06T09:28:29.598Z</time></trkpt><trkpt lat="44.4574632" lon="9.2558007"><ele>389.0</ele><time>2026-04-06T09:28:30.598Z</time></trkpt><trkpt lat="44.4575411" lon="9.2557144"><ele>389.0</ele><time>2026-04-06T09:28:31.598Z</time></trkpt><trkpt lat="44.4576292" lon="9.255675"><ele>389.0</ele><time>2026-04-06T09:28:32.599Z</time></trkpt><trkpt lat="44.4577104" lon="9.2556884"><ele>389.0</ele><time>2026-04-06T09:28:33.597Z</time></trkpt><trkpt lat="44.4577901" lon="9.2557494"><ele>389.0</ele><time>2026-04-06T09:28:34.603Z</time></trkpt><trkpt lat="44.4578635" lon="9.255848"><ele>389.0</ele><time>2026-04-06T09:28:35.597Z</time></trkpt><trkpt lat="44.4579332" lon="9.2559619"><ele>389.0</ele><time>2026-04-06T09:28:36.597Z</time></trkpt><trkpt lat="44.4580038" lon="9.2560597"><ele>389.0</ele><time>2026-04-06T09:28:37.599Z</time></trkpt><trkpt lat="44.4580867" lon="9.2561243"><ele>389.0</ele><time>2026-04-06T09:28:38.598Z</time></trkpt><trkpt lat="44.4581887" lon="9.2561567"><ele>389.0</ele><time>2026-04-06T09:28:39.598Z</time></trkpt><trkpt lat="44.4583131" lon="9.2561658"><ele>389.0</ele><time>2026-04-06T09:28:40.599Z</time></trkpt><trkpt lat="44.4584516" lon="9.2561676"><ele>389.0</ele><time>2026-04-06T09:28:41.598Z</time></trkpt><trkpt lat="44.4585925" lon="9.2561808"><ele>389.0</ele><time>2026-04-06T09:28:42.598Z</time></trkpt><trkpt lat="44.4587225" lon="9.256219"><ele>389.0</ele><time>2026-04-06T09:28:43.599Z</time></trkpt><trkpt lat="44.4588378" lon="9.2562792"><ele>389.0</ele><time>2026-04-06T09:28:44.598Z</time></trkpt><trkpt lat="44.4589502" lon="9.2563445"><ele>389.0</ele><time>2026-04-06T09:28:45.598Z</time></trkpt><trkpt lat="44.459067" lon="9.2563869"><ele>390.25</ele><time>2026-04-06T09:28:46.597Z</time></trkpt><trkpt lat="44.4591874" lon="9.2564006"><ele>391.5</ele><time>2026-04-06T09:28:47.604Z</time></trkpt><trkpt lat="44.4593112" lon="9.2563909"><ele>392.75</ele><time>2026-04-06T09:28:48.598Z</time></trkpt><trkpt lat="44.4594331" lon="9.2563809"><ele>394.0</ele><time>2026-04-06T09:28:49.601Z</time></trkpt><trkpt lat="44.4595362" lon="9.2564015"><ele>391.2</ele><time>2026-04-06T09:28:50.6Z</time></trkpt><trkpt lat="44.4596245" lon="9.2564546"><ele>388.4</ele><time>2026-04-06T09:28:51.6Z</time></trkpt><trkpt lat="44.4596895" lon="9.2565477"><ele>385.6</ele><time>2026-04-06T09:28:52.601Z</time></trkpt><trkpt lat="44.4597274" lon="9.2566918"><ele>382.8</ele><time>2026-04-06T09:28:53.601Z</time></trkpt><trkpt lat="44.4597669" lon="9.2568748"><ele>380.0</ele><time>2026-04-06T09:28:54.598Z</time></trkpt><trkpt lat="44.4598182" lon="9.2570623"><ele>380.0</ele><time>2026-04-06T09:28:55.598Z</time></trkpt><trkpt lat="44.4598757" lon="9.2572435"><ele>380.0</ele><time>2026-04-06T09:28:56.6Z</time></trkpt><trkpt lat="44.4599275" lon="9.2574071"><ele>380.0</ele><time>2026-04-06T09:28:57.602Z</time></trkpt><trkpt lat="44.4599671" lon="9.2575557"><ele>380.0</ele><time>2026-04-06T09:28:58.597Z</time></trkpt><trkpt lat="44.4599721" lon="9.257703"><ele>378.83333333333337</ele><time>2026-04-06T09:28:59.598Z</time></trkpt><trkpt lat="44.4599447" lon="9.2578296"><ele>377.6666666666667</ele><time>2026-04-06T09:29:00.598Z</time></trkpt><trkpt lat="44.4598877" lon="9.2579261"><ele>376.5</ele><time>2026-04-06T09:29:01.599Z</time></trkpt><trkpt lat="44.4598157" lon="9.2579944"><ele>375.3333333333333</ele><time>2026-04-06T09:29:02.599Z</time></trkpt><trkpt lat="44.4597323" lon="9.2580244"><ele>374.16666666666663</ele><time>2026-04-06T09:29:03.599Z</time></trkpt><trkpt lat="44.4596491" lon="9.2580352"><ele>373.0</ele><time>2026-04-06T09:29:04.599Z</time></trkpt><trkpt lat="44.45956" lon="9.2579146"><ele>369.75</ele><time>2026-04-06T09:29:05.599Z</time></trkpt><trkpt lat="44.4594617" lon="9.2577766"><ele>366.5</ele><time>2026-04-06T09:29:06.598Z</time></trkpt><trkpt lat="44.4593506" lon="9.2576687"><ele>363.25</ele><time>2026-04-06T09:29:07.598Z</time></trkpt><trkpt lat="44.4592219" lon="9.2575952"><ele>360.0</ele><time>2026-04-06T09:29:08.599Z</time></trkpt><trkpt lat="44.4590745" lon="9.2575649"><ele>360.0</ele><time>2026-04-06T09:29:09.598Z</time></trkpt><trkpt lat="44.458924" lon="9.2575673"><ele>360.0</ele><time>2026-04-06T09:29:10.598Z</time></trkpt><trkpt lat="44.4587721" lon="9.2576113"><ele>360.0</ele><time>2026-04-06T09:29:11.597Z</time></trkpt><trkpt lat="44.458629" lon="9.2577026"><ele>360.25</ele><time>2026-04-06T09:29:12.598Z</time></trkpt><trkpt lat="44.4585053" lon="9.2578281"><ele>360.5</ele><time>2026-04-06T09:29:13.598Z</time></trkpt><trkpt lat="44.4583968" lon="9.2579712"><ele>360.75</ele><time>2026-04-06T09:29:14.598Z</time></trkpt><trkpt lat="44.4582902" lon="9.2581106"><ele>361.0</ele><time>2026-04-06T09:29:15.598Z</time></trkpt><trkpt lat="44.458177" lon="9.2582335"><ele>361.0</ele><time>2026-04-06T09:29:16.598Z</time></trkpt><trkpt lat="44.4580604" lon="9.2583281"><ele>361.0</ele><time>2026-04-06T09:29:17.598Z</time></trkpt><trkpt lat="44.4579411" lon="9.2584013"><ele>361.0</ele><time>2026-04-06T09:29:18.598Z</time></trkpt><trkpt lat="44.4578098" lon="9.2584623"><ele>361.0</ele><time>2026-04-06T09:29:19.597Z</time></trkpt><trkpt lat="44.4576689" lon="9.2585121"><ele>355.3333333333333</ele><time>2026-04-06T09:29:20.6Z</time></trkpt><trkpt lat="44.4575226" lon="9.2585619"><ele>349.6666666666667</ele><time>2026-04-06T09:29:21.599Z</time></trkpt><trkpt lat="44.4573753" lon="9.2586286"><ele>344.0</ele><time>2026-04-06T09:29:22.598Z</time></trkpt><trkpt lat="44.4572317" lon="9.2587109"><ele>343.5</ele><time>2026-04-06T09:29:23.601Z</time></trkpt><trkpt lat="44.4570966" lon="9.2587902"><ele>343.0</ele><time>2026-04-06T09:29:24.598Z</time></trkpt><trkpt lat="44.4569619" lon="9.2588686"><ele>342.5</ele><time>2026-04-06T09:29:25.598Z</time></trkpt><trkpt lat="44.4568294" lon="9.2589635"><ele>342.0</ele><time>2026-04-06T09:29:26.598Z</time></trkpt><trkpt lat="44.4566966" lon="9.2590812"><ele>342.0</ele><time>2026-04-06T09:29:27.597Z</time></trkpt><trkpt lat="44.4565595" lon="9.2592243"><ele>342.0</ele><time>2026-04-06T09:29:28.598Z</time></trkpt><trkpt lat="44.4564228" lon="9.2593739"><ele>342.0</ele><time>2026-04-06T09:29:29.599Z</time></trkpt><trkpt lat="44.4562916" lon="9.2595064"><ele>335.6666666666667</ele><time>2026-04-06T09:29:30.598Z</time></trkpt><trkpt lat="44.4561612" lon="9.2596244"><ele>329.33333333333337</ele><time>2026-04-06T09:29:31.599Z</time></trkpt><trkpt lat="44.4560233" lon="9.2597193"><ele>323.0</ele><time>2026-04-06T09:29:32.598Z</time></trkpt><trkpt lat="44.455872" lon="9.2597785"><ele>323.25</ele><time>2026-04-06T09:29:33.598Z</time></trkpt><trkpt lat="44.4557197" lon="9.25983"><ele>323.5</ele><time>2026-04-06T09:29:34.598Z</time></trkpt><trkpt lat="44.4555781" lon="9.2598821"><ele>323.75</ele><time>2026-04-06T09:29:35.598Z</time></trkpt><trkpt lat="44.4554521" lon="9.2599357"><ele>324.0</ele><time>2026-04-06T09:29:36.597Z</time></trkpt><trkpt lat="44.4553486" lon="9.2599979"><ele>324.0</ele><time>2026-04-06T09:29:37.598Z</time></trkpt><trkpt lat="44.4552679" lon="9.2600708"><ele>324.0</ele><time>2026-04-06T09:29:38.598Z</time></trkpt><trkpt lat="44.4552194" lon="9.2601648"><ele>324.0</ele><time>2026-04-06T09:29:39.597Z</time></trkpt><trkpt lat="44.4552171" lon="9.260281"><ele>324.0</ele><time>2026-04-06T09:29:40.598Z</time></trkpt><trkpt lat="44.4552505" lon="9.2604165"><ele>324.0</ele><time>2026-04-06T09:29:41.598Z</time></trkpt><trkpt lat="44.4553077" lon="9.2605727"><ele>326.4</ele><time>2026-04-06T09:29:42.6Z</time></trkpt><trkpt lat="44.4553635" lon="9.2607274"><ele>328.79999999999995</ele><time>2026-04-06T09:29:43.598Z</time></trkpt><trkpt lat="44.4554053" lon="9.260867"><ele>331.20000000000005</ele><time>2026-04-06T09:29:44.598Z</time></trkpt><trkpt lat="44.4554194" lon="9.2609935"><ele>333.6</ele><time>2026-04-06T09:29:45.598Z</time></trkpt><trkpt lat="44.4553932" lon="9.2610945"><ele>336.0</ele><time>2026-04-06T09:29:46.599Z</time></trkpt><trkpt lat="44.4553353" lon="9.2611465"><ele>336.0</ele><time>2026-04-06T09:29:47.598Z</time></trkpt><trkpt lat="44.4552601" lon="9.261135"><ele>336.0</ele><time>2026-04-06T09:29:48.597Z</time></trkpt><trkpt lat="44.4551819" lon="9.2610655"><ele>336.0</ele><time>2026-04-06T09:29:49.598Z</time></trkpt><trkpt lat="44.4550985" lon="9.2609564"><ele>336.0</ele><time>2026-04-06T09:29:50.599Z</time></trkpt><trkpt lat="44.4550017" lon="9.2608124"><ele>336.0</ele><time>2026-04-06T09:29:51.598Z</time></trkpt><trkpt lat="44.4548966" lon="9.2606498"><ele>332.0</ele><time>2026-04-06T09:29:52.599Z</time></trkpt><trkpt lat="44.4547905" lon="9.2604904"><ele>328.0</ele><time>2026-04-06T09:29:53.599Z</time></trkpt><trkpt lat="44.4546876" lon="9.2603339"><ele>324.0</ele><time>2026-04-06T09:29:54.597Z</time></trkpt><trkpt lat="44.4545856" lon="9.2601836"><ele>322.75</ele><time>2026-04-06T09:29:55.6Z</time></trkpt><trkpt lat="44.4544896" lon="9.2600489"><ele>321.5</ele><time>2026-04-06T09:29:56.599Z</time></trkpt><trkpt lat="44.4544016" lon="9.2599352"><ele>320.25</ele><time>2026-04-06T09:29:57.599Z</time></trkpt><trkpt lat="44.4543177" lon="9.2598531"><ele>319.0</ele><time>2026-04-06T09:29:58.599Z</time></trkpt><trkpt lat="44.4542254" lon="9.259813"><ele>319.0</ele><time>2026-04-06T09:29:59.601Z</time></trkpt><trkpt lat="44.4541156" lon="9.2598229"><ele>319.0</ele><time>2026-04-06T09:30:00.601Z</time></trkpt><trkpt lat="44.4540001" lon="9.2598658"><ele>319.0</ele><time>2026-04-06T09:30:01.599Z</time></trkpt><trkpt lat="44.4538869" lon="9.25992"><ele>319.0</ele><time>2026-04-06T09:30:02.601Z</time></trkpt><trkpt lat="44.4537833" lon="9.2599783"><ele>315.2</ele><time>2026-04-06T09:30:03.6Z</time></trkpt><trkpt lat="44.4536967" lon="9.260045"><ele>311.4</ele><time>2026-04-06T09:30:04.601Z</time></trkpt><trkpt lat="44.4536317" lon="9.2601383"><ele>307.6</ele><time>2026-04-06T09:30:05.6Z</time></trkpt><trkpt lat="44.453605" lon="9.2602583"><ele>303.8</ele><time>2026-04-06T09:30:06.598Z</time></trkpt><trkpt lat="44.4535983" lon="9.2604017"><ele>300.0</ele><time>2026-04-06T09:30:07.599Z</time></trkpt><trkpt lat="44.4535983" lon="9.260565"><ele>300.0</ele><time>2026-04-06T09:30:08.599Z</time></trkpt><trkpt lat="44.4536017" lon="9.260735"><ele>300.0</ele><time>2026-04-06T09:30:09.597Z</time></trkpt><trkpt lat="44.4536033" lon="9.260905"><ele>300.0</ele><time>2026-04-06T09:30:10.598Z</time></trkpt><trkpt lat="44.453595" lon="9.2610683"><ele>300.0</ele><time>2026-04-06T09:30:11.6Z</time></trkpt><trkpt lat="44.4535683" lon="9.26122"><ele>300.0</ele><time>2026-04-06T09:30:12.597Z</time></trkpt><trkpt lat="44.45352" lon="9.2613517"><ele>300.0</ele><time>2026-04-06T09:30:13.597Z</time></trkpt><trkpt lat="44.4534467" lon="9.26145"><ele>300.0</ele><time>2026-04-06T09:30:14.6Z</time></trkpt><trkpt lat="44.4533633" lon="9.2615083"><ele>300.0</ele><time>2026-04-06T09:30:15.598Z</time></trkpt><trkpt lat="44.4532717" lon="9.2615317"><ele>300.0</ele><time>2026-04-06T09:30:16.598Z</time></trkpt><trkpt lat="44.45318" lon="9.2615167"><ele>300.0</ele><time>2026-04-06T09:30:17.598Z</time></trkpt><trkpt lat="44.4530967" lon="9.2614633"><ele>300.0</ele><time>2026-04-06T09:30:18.598Z</time></trkpt><trkpt lat="44.4530233" lon="9.261385"><ele>300.0</ele><time>2026-04-06T09:30:19.598Z</time></trkpt><trkpt lat="44.4529667" lon="9.26127"><ele>300.0</ele><time>2026-04-06T09:30:20.599Z</time></trkpt><trkpt lat="44.452925" lon="9.2611333"><ele>300.0</ele><time>2026-04-06T09:30:21.598Z</time></trkpt><trkpt lat="44.45289" lon="9.260985"><ele>301.25</ele><time>2026-04-06T09:30:22.598Z</time></trkpt><trkpt lat="44.45286" lon="9.2608283"><ele>302.5</ele><time>2026-04-06T09:30:23.598Z</time></trkpt><trkpt lat="44.4528267" lon="9.2606783"><ele>303.75</ele><time>2026-04-06T09:30:24.598Z</time></trkpt><trkpt lat="44.4527883" lon="9.2605267"><ele>305.0</ele><time>2026-04-06T09:30:25.598Z</time></trkpt><trkpt lat="44.452745" lon="9.26038"><ele>305.0</ele><time>2026-04-06T09:30:26.599Z</time></trkpt><trkpt lat="44.452695" lon="9.2602417"><ele>305.0</ele><time>2026-04-06T09:30:27.598Z</time></trkpt><trkpt lat="44.4526417" lon="9.2601167"><ele>305.0</ele><time>2026-04-06T09:30:28.598Z</time></trkpt><trkpt lat="44.45259" lon="9.2600033"><ele>305.0</ele><time>2026-04-06T09:30:29.6Z</time></trkpt><trkpt lat="44.4525567" lon="9.2598917"><ele>305.0</ele><time>2026-04-06T09:30:30.601Z</time></trkpt><trkpt lat="44.452545" lon="9.2597833"><ele>302.5</ele><time>2026-04-06T09:30:31.6Z</time></trkpt><trkpt lat="44.4525517" lon="9.2596833"><ele>300.0</ele><time>2026-04-06T09:30:32.601Z</time></trkpt><trkpt lat="44.4525817" lon="9.2595883"><ele>297.5</ele><time>2026-04-06T09:30:33.6Z</time></trkpt><trkpt lat="44.4526183" lon="9.2594883"><ele>295.0</ele><time>2026-04-06T09:30:34.601Z</time></trkpt><trkpt lat="44.4526517" lon="9.2593867"><ele>292.5</ele><time>2026-04-06T09:30:35.605Z</time></trkpt><trkpt lat="44.4526883" lon="9.25929"><ele>290.0</ele><time>2026-04-06T09:30:36.6Z</time></trkpt><trkpt lat="44.4527117" lon="9.2591983"><ele>290.0</ele><time>2026-04-06T09:30:37.601Z</time></trkpt><trkpt lat="44.4527317" lon="9.25911"><ele>290.0</ele><time>2026-04-06T09:30:38.598Z</time></trkpt><trkpt lat="44.4527283" lon="9.2589467"><ele>290.0</ele><time>2026-04-06T09:30:40.598Z</time></trkpt><trkpt lat="44.452685" lon="9.2588583"><ele>290.0</ele><time>2026-04-06T09:30:41.598Z</time></trkpt><trkpt lat="44.4526217" lon="9.25876"><ele>290.0</ele><time>2026-04-06T09:30:42.598Z</time></trkpt><trkpt lat="44.45255" lon="9.25865"><ele>290.8</ele><time>2026-04-06T09:30:43.6Z</time></trkpt><trkpt lat="44.45247" lon="9.258545"><ele>291.6</ele><time>2026-04-06T09:30:44.598Z</time></trkpt><trkpt lat="44.4523917" lon="9.2584367"><ele>292.4</ele><time>2026-04-06T09:30:45.6Z</time></trkpt><trkpt lat="44.45232" lon="9.2583217"><ele>293.2</ele><time>2026-04-06T09:30:46.6Z</time></trkpt><trkpt lat="44.45225" lon="9.2582083"><ele>294.0</ele><time>2026-04-06T09:30:47.598Z</time></trkpt><trkpt lat="44.4521767" lon="9.258095"><ele>296.4</ele><time>2026-04-06T09:30:48.599Z</time></trkpt><trkpt lat="44.4520983" lon="9.2579833"><ele>298.79999999999995</ele><time>2026-04-06T09:30:49.6Z</time></trkpt><trkpt lat="44.45201" lon="9.2578817"><ele>301.20000000000005</ele><time>2026-04-06T09:30:50.599Z</time></trkpt><trkpt lat="44.4519183" lon="9.2577833"><ele>303.6</ele><time>2026-04-06T09:30:51.598Z</time></trkpt><trkpt lat="44.4518317" lon="9.2576933"><ele>306.0</ele><time>2026-04-06T09:30:52.599Z</time></trkpt><trkpt lat="44.4517467" lon="9.2576117"><ele>306.0</ele><time>2026-04-06T09:30:53.599Z</time></trkpt><trkpt lat="44.451665" lon="9.2575467"><ele>306.0</ele><time>2026-04-06T09:30:54.598Z</time></trkpt><trkpt lat="44.4515783" lon="9.257495"><ele>306.0</ele><time>2026-04-06T09:30:55.599Z</time></trkpt><trkpt lat="44.4514733" lon="9.2574783"><ele>306.0</ele><time>2026-04-06T09:30:56.599Z</time></trkpt><trkpt lat="44.4513517" lon="9.2574867"><ele>306.0</ele><time>2026-04-06T09:30:57.598Z</time></trkpt><trkpt lat="44.4512183" lon="9.2575183"><ele>303.0</ele><time>2026-04-06T09:30:58.598Z</time></trkpt><trkpt lat="44.4510783" lon="9.2575633"><ele>300.0</ele><time>2026-04-06T09:30:59.599Z</time></trkpt><trkpt lat="44.4509383" lon="9.257595"><ele>297.0</ele><time>2026-04-06T09:31:00.598Z</time></trkpt><trkpt lat="44.4507867" lon="9.2576067"><ele>294.0</ele><time>2026-04-06T09:31:01.599Z</time></trkpt><trkpt lat="44.4506233" lon="9.257605"><ele>294.3333333333333</ele><time>2026-04-06T09:31:02.599Z</time></trkpt><trkpt lat="44.4504533" lon="9.2575967"><ele>294.66666666666663</ele><time>2026-04-06T09:31:03.599Z</time></trkpt><trkpt lat="44.4502733" lon="9.2575967"><ele>295.0</ele><time>2026-04-06T09:31:04.6Z</time></trkpt><trkpt lat="44.4500917" lon="9.2576"><ele>295.0</ele><time>2026-04-06T09:31:05.599Z</time></trkpt><trkpt lat="44.4499117" lon="9.2576067"><ele>295.0</ele><time>2026-04-06T09:31:06.599Z</time></trkpt><trkpt lat="44.4497383" lon="9.25761"><ele>295.0</ele><time>2026-04-06T09:31:07.6Z</time></trkpt><trkpt lat="44.4495717" lon="9.2576183"><ele>293.3333333333333</ele><time>2026-04-06T09:31:08.598Z</time></trkpt><trkpt lat="44.4494133" lon="9.2576267"><ele>291.6666666666667</ele><time>2026-04-06T09:31:09.6Z</time></trkpt><trkpt lat="44.4492583" lon="9.2576283"><ele>290.0</ele><time>2026-04-06T09:31:10.6Z</time></trkpt><trkpt lat="44.4491033" lon="9.2576183"><ele>290.0</ele><time>2026-04-06T09:31:11.598Z</time></trkpt><trkpt lat="44.4489483" lon="9.2575883"><ele>290.0</ele><time>2026-04-06T09:31:12.597Z</time></trkpt><trkpt lat="44.4487983" lon="9.2575433"><ele>290.0</ele><time>2026-04-06T09:31:13.599Z</time></trkpt><trkpt lat="44.4486583" lon="9.25749"><ele>288.5</ele><time>2026-04-06T09:31:14.599Z</time></trkpt><trkpt lat="44.44853" lon="9.2574167"><ele>287.0</ele><time>2026-04-06T09:31:15.599Z</time></trkpt><trkpt lat="44.4484133" lon="9.2573333"><ele>285.5</ele><time>2026-04-06T09:31:16.597Z</time></trkpt><trkpt lat="44.44831" lon="9.2572417"><ele>284.0</ele><time>2026-04-06T09:31:17.599Z</time></trkpt><trkpt lat="44.4482267" lon="9.2571283"><ele>284.0</ele><time>2026-04-06T09:31:18.598Z</time></trkpt><trkpt lat="44.4481583" lon="9.2569867"><ele>284.0</ele><time>2026-04-06T09:31:19.599Z</time></trkpt><trkpt lat="44.4480917" lon="9.2568383"><ele>284.0</ele><time>2026-04-06T09:31:20.598Z</time></trkpt><trkpt lat="44.4480117" lon="9.2566833"><ele>284.0</ele><time>2026-04-06T09:31:21.598Z</time></trkpt><trkpt lat="44.4479183" lon="9.2565317"><ele>280.25</ele><time>2026-04-06T09:31:22.598Z</time></trkpt><trkpt lat="44.4478167" lon="9.2563817"><ele>276.5</ele><time>2026-04-06T09:31:23.599Z</time></trkpt><trkpt lat="44.447715" lon="9.2562317"><ele>272.75</ele><time>2026-04-06T09:31:24.599Z</time></trkpt><trkpt lat="44.44762" lon="9.2560883"><ele>269.0</ele><time>2026-04-06T09:31:25.599Z</time></trkpt><trkpt lat="44.44753" lon="9.255955"><ele>269.0</ele><time>2026-04-06T09:31:26.598Z</time></trkpt><trkpt lat="44.4474383" lon="9.25583"><ele>269.0</ele><time>2026-04-06T09:31:27.598Z</time></trkpt><trkpt lat="44.4473317" lon="9.25573"><ele>269.0</ele><time>2026-04-06T09:31:28.598Z</time></trkpt><trkpt lat="44.447205" lon="9.2556617"><ele>269.0</ele><time>2026-04-06T09:31:29.599Z</time></trkpt><trkpt lat="44.4470583" lon="9.2556183"><ele>273.6666666666667</ele><time>2026-04-06T09:31:30.599Z</time></trkpt><trkpt lat="44.4468983" lon="9.2555933"><ele>278.3333333333333</ele><time>2026-04-06T09:31:31.599Z</time></trkpt><trkpt lat="44.4467417" lon="9.25558"><ele>283.0</ele><time>2026-04-06T09:31:32.6Z</time></trkpt><trkpt lat="44.4465917" lon="9.2555767"><ele>283.0</ele><time>2026-04-06T09:31:33.599Z</time></trkpt><trkpt lat="44.44645" lon="9.2555817"><ele>283.0</ele><time>2026-04-06T09:31:34.598Z</time></trkpt><trkpt lat="44.4463117" lon="9.2556017"><ele>283.0</ele><time>2026-04-06T09:31:35.599Z</time></trkpt><trkpt lat="44.4461717" lon="9.2556433"><ele>283.0</ele><time>2026-04-06T09:31:36.599Z</time></trkpt><trkpt lat="44.44603" lon="9.2557033"><ele>277.5</ele><time>2026-04-06T09:31:37.6Z</time></trkpt><trkpt lat="44.4458917" lon="9.2557683"><ele>272.0</ele><time>2026-04-06T09:31:38.599Z</time></trkpt><trkpt lat="44.4457617" lon="9.2558317"><ele>266.5</ele><time>2026-04-06T09:31:39.601Z</time></trkpt><trkpt lat="44.4456367" lon="9.2559033"><ele>261.0</ele><time>2026-04-06T09:31:40.603Z</time></trkpt><trkpt lat="44.4455217" lon="9.2559817"><ele>260.0</ele><time>2026-04-06T09:31:41.599Z</time></trkpt><trkpt lat="44.4454183" lon="9.2560767"><ele>259.0</ele><time>2026-04-06T09:31:42.599Z</time></trkpt><trkpt lat="44.44532" lon="9.2561667"><ele>258.0</ele><time>2026-04-06T09:31:43.598Z</time></trkpt><trkpt lat="44.44522" lon="9.2562317"><ele>257.0</ele><time>2026-04-06T09:31:44.599Z</time></trkpt><trkpt lat="44.4451167" lon="9.256245"><ele>257.0</ele><time>2026-04-06T09:31:45.597Z</time></trkpt><trkpt lat="44.4450067" lon="9.2562033"><ele>257.0</ele><time>2026-04-06T09:31:46.598Z</time></trkpt><trkpt lat="44.4448867" lon="9.2561217"><ele>257.0</ele><time>2026-04-06T09:31:47.597Z</time></trkpt><trkpt lat="44.4447583" lon="9.2560117"><ele>257.0</ele><time>2026-04-06T09:31:48.599Z</time></trkpt><trkpt lat="44.4446283" lon="9.2558883"><ele>254.33333333333334</ele><time>2026-04-06T09:31:49.598Z</time></trkpt><trkpt lat="44.4444883" lon="9.2557783"><ele>251.66666666666669</ele><time>2026-04-06T09:31:50.599Z</time></trkpt><trkpt lat="44.4443383" lon="9.2556783"><ele>249.0</ele><time>2026-04-06T09:31:51.598Z</time></trkpt><trkpt lat="44.44419" lon="9.2555867"><ele>255.75</ele><time>2026-04-06T09:31:52.597Z</time></trkpt><trkpt lat="44.4440467" lon="9.2555083"><ele>262.5</ele><time>2026-04-06T09:31:53.598Z</time></trkpt><trkpt lat="44.44391" lon="9.255445"><ele>269.25</ele><time>2026-04-06T09:31:54.598Z</time></trkpt><trkpt lat="44.4437833" lon="9.255405"><ele>276.0</ele><time>2026-04-06T09:31:55.599Z</time></trkpt><trkpt lat="44.4436667" lon="9.2554"><ele>278.5</ele><time>2026-04-06T09:31:56.598Z</time></trkpt><trkpt lat="44.4435583" lon="9.2554383"><ele>281.0</ele><time>2026-04-06T09:31:57.598Z</time></trkpt><trkpt lat="44.4434467" lon="9.25553"><ele>283.5</ele><time>2026-04-06T09:31:58.599Z</time></trkpt><trkpt lat="44.4433383" lon="9.2556467"><ele>286.0</ele><time>2026-04-06T09:31:59.599Z</time></trkpt><trkpt lat="44.4432317" lon="9.25577"><ele>278.5</ele><time>2026-04-06T09:32:00.599Z</time></trkpt><trkpt lat="44.4431317" lon="9.255885"><ele>271.0</ele><time>2026-04-06T09:32:01.6Z</time></trkpt><trkpt lat="44.4430333" lon="9.2559667"><ele>263.5</ele><time>2026-04-06T09:32:02.599Z</time></trkpt><trkpt lat="44.4429283" lon="9.2560283"><ele>256.0</ele><time>2026-04-06T09:32:03.598Z</time></trkpt><trkpt lat="44.4428133" lon="9.256025"><ele>256.0</ele><time>2026-04-06T09:32:04.598Z</time></trkpt><trkpt lat="44.4426817" lon="9.2559833"><ele>256.0</ele><time>2026-04-06T09:32:05.599Z</time></trkpt><trkpt lat="44.442555" lon="9.2559217"><ele>256.0</ele><time>2026-04-06T09:32:06.599Z</time></trkpt><trkpt lat="44.4424367" lon="9.2558617"><ele>256.0</ele><time>2026-04-06T09:32:07.599Z</time></trkpt><trkpt lat="44.4423233" lon="9.2558217"><ele>256.0</ele><time>2026-04-06T09:32:08.598Z</time></trkpt><trkpt lat="44.4422167" lon="9.2558167"><ele>256.0</ele><time>2026-04-06T09:32:09.598Z</time></trkpt><trkpt lat="44.4421217" lon="9.2558633"><ele>256.0</ele><time>2026-04-06T09:32:10.599Z</time></trkpt><trkpt lat="44.442045" lon="9.2559517"><ele>256.0</ele><time>2026-04-06T09:32:11.599Z</time></trkpt><trkpt lat="44.441985" lon="9.2560683"><ele>256.0</ele><time>2026-04-06T09:32:12.599Z</time></trkpt><trkpt lat="44.44195" lon="9.2561967"><ele>256.5</ele><time>2026-04-06T09:32:13.599Z</time></trkpt><trkpt lat="44.441945" lon="9.256325"><ele>257.0</ele><time>2026-04-06T09:32:14.598Z</time></trkpt><trkpt lat="44.4419667" lon="9.2564483"><ele>257.5</ele><time>2026-04-06T09:32:15.598Z</time></trkpt><trkpt lat="44.441975" lon="9.25657"><ele>258.0</ele><time>2026-04-06T09:32:16.598Z</time></trkpt><trkpt lat="44.44198" lon="9.2566883"><ele>258.5</ele><time>2026-04-06T09:32:17.598Z</time></trkpt><trkpt lat="44.4419433" lon="9.2567683"><ele>259.0</ele><time>2026-04-06T09:32:18.597Z</time></trkpt><trkpt lat="44.441825" lon="9.2567867"><ele>254.79999999999998</ele><time>2026-04-06T09:32:20.599Z</time></trkpt><trkpt lat="44.4417383" lon="9.25674"><ele>250.59999999999997</ele><time>2026-04-06T09:32:21.598Z</time></trkpt><trkpt lat="44.44164" lon="9.2566733"><ele>246.4</ele><time>2026-04-06T09:32:22.598Z</time></trkpt><trkpt lat="44.4415483" lon="9.256605"><ele>242.2</ele><time>2026-04-06T09:32:23.597Z</time></trkpt><trkpt lat="44.4414483" lon="9.25654"><ele>238.0</ele><time>2026-04-06T09:32:24.598Z</time></trkpt><trkpt lat="44.4413433" lon="9.2564767"><ele>237.0</ele><time>2026-04-06T09:32:25.599Z</time></trkpt><trkpt lat="44.441235" lon="9.2564233"><ele>236.0</ele><time>2026-04-06T09:32:26.598Z</time></trkpt><trkpt lat="44.44112" lon="9.256405"><ele>235.0</ele><time>2026-04-06T09:32:27.598Z</time></trkpt><trkpt lat="44.4410017" lon="9.25643"><ele>234.0</ele><time>2026-04-06T09:32:28.598Z</time></trkpt><trkpt lat="44.440885" lon="9.2564783"><ele>234.0</ele><time>2026-04-06T09:32:29.6Z</time></trkpt><trkpt lat="44.4407767" lon="9.2565517"><ele>234.0</ele><time>2026-04-06T09:32:30.6Z</time></trkpt><trkpt lat="44.4406867" lon="9.2566567"><ele>234.0</ele><time>2026-04-06T09:32:31.599Z</time></trkpt><trkpt lat="44.4406117" lon="9.2567883"><ele>234.0</ele><time>2026-04-06T09:32:32.598Z</time></trkpt><trkpt lat="44.4405483" lon="9.2569367"><ele>234.0</ele><time>2026-04-06T09:32:33.599Z</time></trkpt><trkpt lat="44.4404917" lon="9.257075"><ele>233.99999999999997</ele><time>2026-04-06T09:32:34.599Z</time></trkpt><trkpt lat="44.4404383" lon="9.257195"><ele>233.99999999999997</ele><time>2026-04-06T09:32:35.598Z</time></trkpt><trkpt lat="44.440375" lon="9.257275"><ele>234.0</ele><time>2026-04-06T09:32:36.599Z</time></trkpt><trkpt lat="44.4402967" lon="9.2573217"><ele>234.0</ele><time>2026-04-06T09:32:37.598Z</time></trkpt><trkpt lat="44.440215" lon="9.25734"><ele>232.2</ele><time>2026-04-06T09:32:38.599Z</time></trkpt><trkpt lat="44.4401283" lon="9.2572883"><ele>230.39999999999998</ele><time>2026-04-06T09:32:39.598Z</time></trkpt><trkpt lat="44.4400567" lon="9.25719"><ele>228.6</ele><time>2026-04-06T09:32:40.599Z</time></trkpt><trkpt lat="44.440015" lon="9.25706"><ele>226.8</ele><time>2026-04-06T09:32:41.598Z</time></trkpt><trkpt lat="44.4400033" lon="9.2569017"><ele>225.0</ele><time>2026-04-06T09:32:42.599Z</time></trkpt><trkpt lat="44.44" lon="9.2567383"><ele>225.0</ele><time>2026-04-06T09:32:43.6Z</time></trkpt><trkpt lat="44.4399833" lon="9.25658"><ele>225.0</ele><time>2026-04-06T09:32:44.6Z</time></trkpt><trkpt lat="44.4399367" lon="9.2564183"><ele>225.0</ele><time>2026-04-06T09:32:45.598Z</time></trkpt><trkpt lat="44.439855" lon="9.25627"><ele>225.0</ele><time>2026-04-06T09:32:46.6Z</time></trkpt><trkpt lat="44.4397433" lon="9.2561333"><ele>223.5</ele><time>2026-04-06T09:32:47.599Z</time></trkpt><trkpt lat="44.4396183" lon="9.2560033"><ele>222.0</ele><time>2026-04-06T09:32:48.6Z</time></trkpt><trkpt lat="44.4394983" lon="9.255885"><ele>220.5</ele><time>2026-04-06T09:32:49.599Z</time></trkpt><trkpt lat="44.4393783" lon="9.2557783"><ele>219.0</ele><time>2026-04-06T09:32:50.6Z</time></trkpt><trkpt lat="44.4392583" lon="9.255685"><ele>216.5</ele><time>2026-04-06T09:32:51.598Z</time></trkpt><trkpt lat="44.4391383" lon="9.255615"><ele>214.0</ele><time>2026-04-06T09:32:52.597Z</time></trkpt><trkpt lat="44.4390133" lon="9.2555783"><ele>211.5</ele><time>2026-04-06T09:32:53.598Z</time></trkpt><trkpt lat="44.4388833" lon="9.25558"><ele>209.0</ele><time>2026-04-06T09:32:54.599Z</time></trkpt><trkpt lat="44.4387467" lon="9.2556217"><ele>209.0</ele><time>2026-04-06T09:32:55.599Z</time></trkpt><trkpt lat="44.438605" lon="9.2556717"><ele>209.0</ele><time>2026-04-06T09:32:56.6Z</time></trkpt><trkpt lat="44.4384617" lon="9.2557017"><ele>209.0</ele><time>2026-04-06T09:32:57.599Z</time></trkpt><trkpt lat="44.43832" lon="9.2557067"><ele>209.0</ele><time>2026-04-06T09:32:58.599Z</time></trkpt><trkpt lat="44.4381783" lon="9.2557217"><ele>209.0</ele><time>2026-04-06T09:32:59.6Z</time></trkpt><trkpt lat="44.4380367" lon="9.255775"><ele>209.0</ele><time>2026-04-06T09:33:00.598Z</time></trkpt><trkpt lat="44.4378883" lon="9.255865"><ele>209.0</ele><time>2026-04-06T09:33:01.6Z</time></trkpt><trkpt lat="44.43774" lon="9.2559717"><ele>213.25</ele><time>2026-04-06T09:33:02.599Z</time></trkpt><trkpt lat="44.4376033" lon="9.2560733"><ele>217.5</ele><time>2026-04-06T09:33:03.599Z</time></trkpt><trkpt lat="44.4374833" lon="9.2561667"><ele>221.75</ele><time>2026-04-06T09:33:04.597Z</time></trkpt><trkpt lat="44.43738" lon="9.2562667"><ele>226.0</ele><time>2026-04-06T09:33:05.598Z</time></trkpt><trkpt lat="44.4372967" lon="9.25638"><ele>222.83333333333331</ele><time>2026-04-06T09:33:06.598Z</time></trkpt><trkpt lat="44.437235" lon="9.2564967"><ele>219.66666666666666</ele><time>2026-04-06T09:33:07.599Z</time></trkpt><trkpt lat="44.4371867" lon="9.2566167"><ele>216.5</ele><time>2026-04-06T09:33:08.6Z</time></trkpt><trkpt lat="44.4371517" lon="9.256725"><ele>213.33333333333331</ele><time>2026-04-06T09:33:09.599Z</time></trkpt><trkpt lat="44.43712" lon="9.2568183"><ele>210.16666666666666</ele><time>2026-04-06T09:33:10.598Z</time></trkpt><trkpt lat="44.4370783" lon="9.2568983"><ele>207.0</ele><time>2026-04-06T09:33:11.599Z</time></trkpt><trkpt lat="44.4370217" lon="9.25696"><ele>206.8</ele><time>2026-04-06T09:33:12.597Z</time></trkpt><trkpt lat="44.436955" lon="9.2569983"><ele>206.6</ele><time>2026-04-06T09:33:13.598Z</time></trkpt><trkpt lat="44.4368817" lon="9.2569983"><ele>206.4</ele><time>2026-04-06T09:33:14.598Z</time></trkpt><trkpt lat="44.4368017" lon="9.2569517"><ele>206.20000000000002</ele><time>2026-04-06T09:33:15.598Z</time></trkpt><trkpt lat="44.43671" lon="9.25688"><ele>206.0</ele><time>2026-04-06T09:33:16.598Z</time></trkpt><trkpt lat="44.4365983" lon="9.25679"><ele>206.0</ele><time>2026-04-06T09:33:17.597Z</time></trkpt><trkpt lat="44.4364783" lon="9.2566833"><ele>206.0</ele><time>2026-04-06T09:33:18.599Z</time></trkpt><trkpt lat="44.4363483" lon="9.2565667"><ele>206.0</ele><time>2026-04-06T09:33:19.598Z</time></trkpt><trkpt lat="44.43621" lon="9.2564467"><ele>208.25</ele><time>2026-04-06T09:33:20.599Z</time></trkpt><trkpt lat="44.4360783" lon="9.2563333"><ele>210.5</ele><time>2026-04-06T09:33:21.598Z</time></trkpt><trkpt lat="44.4359517" lon="9.2562317"><ele>212.75</ele><time>2026-04-06T09:33:22.599Z</time></trkpt><trkpt lat="44.4358283" lon="9.256135"><ele>215.0</ele><time>2026-04-06T09:33:23.598Z</time></trkpt><trkpt lat="44.4357117" lon="9.2560417"><ele>215.0</ele><time>2026-04-06T09:33:24.599Z</time></trkpt><trkpt lat="44.4356017" lon="9.2559467"><ele>215.0</ele><time>2026-04-06T09:33:25.599Z</time></trkpt><trkpt lat="44.4354967" lon="9.2558617"><ele>215.0</ele><time>2026-04-06T09:33:26.6Z</time></trkpt><trkpt lat="44.435385" lon="9.2557983"><ele>215.0</ele><time>2026-04-06T09:33:27.598Z</time></trkpt><trkpt lat="44.4352617" lon="9.2557767"><ele>214.5</ele><time>2026-04-06T09:33:28.598Z</time></trkpt><trkpt lat="44.4351167" lon="9.255795"><ele>214.0</ele><time>2026-04-06T09:33:29.599Z</time></trkpt><trkpt lat="44.4349667" lon="9.2558433"><ele>213.5</ele><time>2026-04-06T09:33:30.598Z</time></trkpt><trkpt lat="44.434825" lon="9.2559033"><ele>213.0</ele><time>2026-04-06T09:33:31.599Z</time></trkpt><trkpt lat="44.434695" lon="9.2559767"><ele>211.75</ele><time>2026-04-06T09:33:32.601Z</time></trkpt><trkpt lat="44.4345783" lon="9.2560683"><ele>210.5</ele><time>2026-04-06T09:33:33.599Z</time></trkpt><trkpt lat="44.4344783" lon="9.2561817"><ele>209.25</ele><time>2026-04-06T09:33:34.6Z</time></trkpt><trkpt lat="44.4344" lon="9.2562967"><ele>208.0</ele><time>2026-04-06T09:33:35.6Z</time></trkpt><trkpt lat="44.434325" lon="9.2563933"><ele>208.0</ele><time>2026-04-06T09:33:36.6Z</time></trkpt><trkpt lat="44.4342433" lon="9.2564583"><ele>208.0</ele><time>2026-04-06T09:33:37.598Z</time></trkpt><trkpt lat="44.434155" lon="9.2564817"><ele>208.0</ele><time>2026-04-06T09:33:38.599Z</time></trkpt><trkpt lat="44.43407" lon="9.256465"><ele>208.0</ele><time>2026-04-06T09:33:39.597Z</time></trkpt><trkpt lat="44.4339883" lon="9.2564083"><ele>208.0</ele><time>2026-04-06T09:33:40.598Z</time></trkpt><trkpt lat="44.4339283" lon="9.256285"><ele>208.0</ele><time>2026-04-06T09:33:41.598Z</time></trkpt><trkpt lat="44.4338717" lon="9.2561467"><ele>208.0</ele><time>2026-04-06T09:33:42.599Z</time></trkpt><trkpt lat="44.4338" lon="9.2559983"><ele>208.0</ele><time>2026-04-06T09:33:43.599Z</time></trkpt><trkpt lat="44.4337183" lon="9.2558517"><ele>208.0</ele><time>2026-04-06T09:33:44.599Z</time></trkpt><trkpt lat="44.4336333" lon="9.2557183"><ele>209.75</ele><time>2026-04-06T09:33:45.598Z</time></trkpt><trkpt lat="44.4335483" lon="9.255595"><ele>211.5</ele><time>2026-04-06T09:33:46.599Z</time></trkpt><trkpt lat="44.43346" lon="9.2554917"><ele>213.25</ele><time>2026-04-06T09:33:47.598Z</time></trkpt><trkpt lat="44.433355" lon="9.255435"><ele>215.0</ele><time>2026-04-06T09:33:48.599Z</time></trkpt><trkpt lat="44.4332383" lon="9.2554183"><ele>215.0</ele><time>2026-04-06T09:33:49.598Z</time></trkpt><trkpt lat="44.4331067" lon="9.2554533"><ele>215.0</ele><time>2026-04-06T09:33:50.599Z</time></trkpt><trkpt lat="44.4329717" lon="9.2554917"><ele>215.0</ele><time>2026-04-06T09:33:51.598Z</time></trkpt><trkpt lat="44.4328267" lon="9.2555133"><ele>215.0</ele><time>2026-04-06T09:33:52.598Z</time></trkpt><trkpt lat="44.43268" lon="9.25553"><ele>216.66666666666669</ele><time>2026-04-06T09:33:53.598Z</time></trkpt><trkpt lat="44.432535" lon="9.2555733"><ele>218.33333333333331</ele><time>2026-04-06T09:33:54.597Z</time></trkpt><trkpt lat="44.4323917" lon="9.2556433"><ele>220.0</ele><time>2026-04-06T09:33:55.598Z</time></trkpt><trkpt lat="44.4322533" lon="9.2557367"><ele>215.66666666666666</ele><time>2026-04-06T09:33:56.599Z</time></trkpt><trkpt lat="44.4321217" lon="9.2558567"><ele>211.33333333333331</ele><time>2026-04-06T09:33:57.598Z</time></trkpt><trkpt lat="44.43199" lon="9.2559833"><ele>207.0</ele><time>2026-04-06T09:33:58.597Z</time></trkpt><trkpt lat="44.4318567" lon="9.2560967"><ele>207.0</ele><time>2026-04-06T09:33:59.598Z</time></trkpt><trkpt lat="44.431725" lon="9.2561933"><ele>207.0</ele><time>2026-04-06T09:34:00.598Z</time></trkpt><trkpt lat="44.4315983" lon="9.2562817"><ele>207.0</ele><time>2026-04-06T09:34:01.597Z</time></trkpt><trkpt lat="44.4314833" lon="9.2563883"><ele>207.0</ele><time>2026-04-06T09:34:02.598Z</time></trkpt><trkpt lat="44.4313867" lon="9.2565133"><ele>209.8</ele><time>2026-04-06T09:34:03.599Z</time></trkpt><trkpt lat="44.4313067" lon="9.256645"><ele>212.6</ele><time>2026-04-06T09:34:04.599Z</time></trkpt><trkpt lat="44.4312483" lon="9.25677"><ele>215.40000000000003</ele><time>2026-04-06T09:34:05.599Z</time></trkpt><trkpt lat="44.4312083" lon="9.256895"><ele>218.20000000000002</ele><time>2026-04-06T09:34:06.598Z</time></trkpt><trkpt lat="44.4312117" lon="9.2570233"><ele>221.0</ele><time>2026-04-06T09:34:07.598Z</time></trkpt><trkpt lat="44.43124" lon="9.257155"><ele>221.0</ele><time>2026-04-06T09:34:08.599Z</time></trkpt><trkpt lat="44.4313017" lon="9.2572733"><ele>221.00000000000003</ele><time>2026-04-06T09:34:09.598Z</time></trkpt><trkpt lat="44.4313633" lon="9.2573817"><ele>221.00000000000003</ele><time>2026-04-06T09:34:10.598Z</time></trkpt><trkpt lat="44.43141" lon="9.257495"><ele>221.0</ele><time>2026-04-06T09:34:11.599Z</time></trkpt><trkpt lat="44.4314283" lon="9.25761"><ele>221.0</ele><time>2026-04-06T09:34:12.599Z</time></trkpt><trkpt lat="44.4314083" lon="9.2577183"><ele>214.60000000000002</ele><time>2026-04-06T09:34:13.598Z</time></trkpt><trkpt lat="44.4313517" lon="9.2577983"><ele>208.20000000000002</ele><time>2026-04-06T09:34:14.599Z</time></trkpt><trkpt lat="44.4312733" lon="9.2578233"><ele>201.8</ele><time>2026-04-06T09:34:15.597Z</time></trkpt><trkpt lat="44.43118" lon="9.2578033"><ele>195.39999999999998</ele><time>2026-04-06T09:34:16.599Z</time></trkpt><trkpt lat="44.4310683" lon="9.257745"><ele>189.0</ele><time>2026-04-06T09:34:17.599Z</time></trkpt><trkpt lat="44.4309467" lon="9.2576783"><ele>189.0</ele><time>2026-04-06T09:34:18.601Z</time></trkpt><trkpt lat="44.4308267" lon="9.2576133"><ele>189.0</ele><time>2026-04-06T09:34:19.601Z</time></trkpt><trkpt lat="44.4307117" lon="9.2575617"><ele>189.0</ele><time>2026-04-06T09:34:20.598Z</time></trkpt><trkpt lat="44.4305967" lon="9.25752"><ele>189.0</ele><time>2026-04-06T09:34:21.601Z</time></trkpt><trkpt lat="44.430485" lon="9.25749"><ele>188.5</ele><time>2026-04-06T09:34:22.599Z</time></trkpt><trkpt lat="44.43037" lon="9.2574767"><ele>188.0</ele><time>2026-04-06T09:34:23.598Z</time></trkpt><trkpt lat="44.4302517" lon="9.2574667"><ele>187.5</ele><time>2026-04-06T09:34:24.598Z</time></trkpt><trkpt lat="44.4301283" lon="9.25746"><ele>187.0</ele><time>2026-04-06T09:34:25.6Z</time></trkpt><trkpt lat="44.4300017" lon="9.2574617"><ele>187.0</ele><time>2026-04-06T09:34:26.598Z</time></trkpt><trkpt lat="44.42987" lon="9.25747"><ele>187.0</ele><time>2026-04-06T09:34:27.597Z</time></trkpt><trkpt lat="44.429745" lon="9.257475"><ele>187.0</ele><time>2026-04-06T09:34:28.597Z</time></trkpt><trkpt lat="44.4296167" lon="9.257495"><ele>187.0</ele><time>2026-04-06T09:34:29.601Z</time></trkpt><trkpt lat="44.4294867" lon="9.25754"><ele>193.0</ele><time>2026-04-06T09:34:30.599Z</time></trkpt><trkpt lat="44.4293667" lon="9.2576283"><ele>199.0</ele><time>2026-04-06T09:34:31.599Z</time></trkpt><trkpt lat="44.42926" lon="9.2577683"><ele>205.0</ele><time>2026-04-06T09:34:32.6Z</time></trkpt><trkpt lat="44.4291767" lon="9.2579383"><ele>211.0</ele><time>2026-04-06T09:34:33.6Z</time></trkpt><trkpt lat="44.42912" lon="9.258115"><ele>203.75</ele><time>2026-04-06T09:34:34.6Z</time></trkpt><trkpt lat="44.42908" lon="9.2582833"><ele>196.5</ele><time>2026-04-06T09:34:35.6Z</time></trkpt><trkpt lat="44.429055" lon="9.2584417"><ele>189.25</ele><time>2026-04-06T09:34:36.6Z</time></trkpt><trkpt lat="44.429015" lon="9.258585"><ele>182.0</ele><time>2026-04-06T09:34:37.599Z</time></trkpt><trkpt lat="44.4289733" lon="9.25871"><ele>182.0</ele><time>2026-04-06T09:34:38.598Z</time></trkpt><trkpt lat="44.4289167" lon="9.25881"><ele>182.0</ele><time>2026-04-06T09:34:39.598Z</time></trkpt><trkpt lat="44.4288483" lon="9.2588683"><ele>182.0</ele><time>2026-04-06T09:34:40.597Z</time></trkpt><trkpt lat="44.4287717" lon="9.258875"><ele>182.0</ele><time>2026-04-06T09:34:41.599Z</time></trkpt><trkpt lat="44.4286967" lon="9.25885"><ele>182.0</ele><time>2026-04-06T09:34:42.598Z</time></trkpt><trkpt lat="44.4286083" lon="9.2587783"><ele>182.0</ele><time>2026-04-06T09:34:43.598Z</time></trkpt><trkpt lat="44.42852" lon="9.2586767"><ele>183.75</ele><time>2026-04-06T09:34:44.598Z</time></trkpt><trkpt lat="44.4284333" lon="9.2585767"><ele>185.5</ele><time>2026-04-06T09:34:45.598Z</time></trkpt><trkpt lat="44.4283317" lon="9.2584783"><ele>187.25</ele><time>2026-04-06T09:34:46.599Z</time></trkpt><trkpt lat="44.4282133" lon="9.2584233"><ele>189.0</ele><time>2026-04-06T09:34:47.599Z</time></trkpt><trkpt lat="44.428085" lon="9.2584067"><ele>193.0</ele><time>2026-04-06T09:34:48.598Z</time></trkpt><trkpt lat="44.427945" lon="9.2584317"><ele>197.0</ele><time>2026-04-06T09:34:49.599Z</time></trkpt><trkpt lat="44.4277983" lon="9.2584783"><ele>201.0</ele><time>2026-04-06T09:34:50.598Z</time></trkpt><trkpt lat="44.42764" lon="9.25855"><ele>201.0</ele><time>2026-04-06T09:34:51.598Z</time></trkpt><trkpt lat="44.427485" lon="9.2586483"><ele>201.0</ele><time>2026-04-06T09:34:52.599Z</time></trkpt><trkpt lat="44.427345" lon="9.2587817"><ele>201.0</ele><time>2026-04-06T09:34:53.599Z</time></trkpt><trkpt lat="44.427225" lon="9.2589517"><ele>204.66666666666669</ele><time>2026-04-06T09:34:54.599Z</time></trkpt><trkpt lat="44.4271333" lon="9.2591367"><ele>208.33333333333334</ele><time>2026-04-06T09:34:55.599Z</time></trkpt><trkpt lat="44.4270733" lon="9.2593317"><ele>212.0</ele><time>2026-04-06T09:34:56.599Z</time></trkpt><trkpt lat="44.4270267" lon="9.2595217"><ele>212.0</ele><time>2026-04-06T09:34:57.598Z</time></trkpt><trkpt lat="44.42698" lon="9.259705"><ele>212.0</ele><time>2026-04-06T09:34:58.599Z</time></trkpt><trkpt lat="44.42693" lon="9.2598817"><ele>212.0</ele><time>2026-04-06T09:34:59.599Z</time></trkpt><trkpt lat="44.4268617" lon="9.2600383"><ele>212.0</ele><time>2026-04-06T09:35:00.599Z</time></trkpt><trkpt lat="44.42678" lon="9.2601667"><ele>206.0</ele><time>2026-04-06T09:35:01.598Z</time></trkpt><trkpt lat="44.4266833" lon="9.2602583"><ele>200.0</ele><time>2026-04-06T09:35:02.598Z</time></trkpt><trkpt lat="44.426565" lon="9.2603183"><ele>194.0</ele><time>2026-04-06T09:35:03.599Z</time></trkpt><trkpt lat="44.42643" lon="9.2603283"><ele>188.0</ele><time>2026-04-06T09:35:04.598Z</time></trkpt><trkpt lat="44.4262767" lon="9.260315"><ele>188.0</ele><time>2026-04-06T09:35:05.597Z</time></trkpt><trkpt lat="44.4260983" lon="9.2602983"><ele>188.0</ele><time>2026-04-06T09:35:06.598Z</time></trkpt><trkpt lat="44.4259233" lon="9.2603033"><ele>188.0</ele><time>2026-04-06T09:35:07.598Z</time></trkpt><trkpt lat="44.4257633" lon="9.2603183"><ele>188.0</ele><time>2026-04-06T09:35:08.598Z</time></trkpt><trkpt lat="44.4256067" lon="9.2603367"><ele>188.0</ele><time>2026-04-06T09:35:09.597Z</time></trkpt><trkpt lat="44.4254533" lon="9.2603567"><ele>188.0</ele><time>2026-04-06T09:35:10.598Z</time></trkpt><trkpt lat="44.4252967" lon="9.2603683"><ele>186.33333333333331</ele><time>2026-04-06T09:35:11.598Z</time></trkpt><trkpt lat="44.4251433" lon="9.2603667"><ele>184.66666666666666</ele><time>2026-04-06T09:35:12.597Z</time></trkpt><trkpt lat="44.42499" lon="9.2603567"><ele>183.0</ele><time>2026-04-06T09:35:13.598Z</time></trkpt><trkpt lat="44.4248367" lon="9.2603417"><ele>183.0</ele><time>2026-04-06T09:35:14.599Z</time></trkpt><trkpt lat="44.4246783" lon="9.26032"><ele>183.0</ele><time>2026-04-06T09:35:15.599Z</time></trkpt><trkpt lat="44.4245283" lon="9.2603"><ele>183.0</ele><time>2026-04-06T09:35:16.599Z</time></trkpt><trkpt lat="44.42438" lon="9.2602683"><ele>179.25</ele><time>2026-04-06T09:35:17.597Z</time></trkpt><trkpt lat="44.4242467" lon="9.26022"><ele>175.5</ele><time>2026-04-06T09:35:18.602Z</time></trkpt><trkpt lat="44.4241183" lon="9.26016"><ele>171.75</ele><time>2026-04-06T09:35:19.599Z</time></trkpt><trkpt lat="44.4239933" lon="9.2601"><ele>168.0</ele><time>2026-04-06T09:35:20.598Z</time></trkpt><trkpt lat="44.42388" lon="9.2600333"><ele>166.0</ele><time>2026-04-06T09:35:21.598Z</time></trkpt><trkpt lat="44.4237783" lon="9.2599583"><ele>164.0</ele><time>2026-04-06T09:35:22.599Z</time></trkpt><trkpt lat="44.4236883" lon="9.2598617"><ele>162.0</ele><time>2026-04-06T09:35:23.599Z</time></trkpt><trkpt lat="44.423605" lon="9.25974"><ele>160.0</ele><time>2026-04-06T09:35:24.598Z</time></trkpt><trkpt lat="44.4235333" lon="9.2596067"><ele>160.0</ele><time>2026-04-06T09:35:25.599Z</time></trkpt><trkpt lat="44.4234667" lon="9.2594633"><ele>160.0</ele><time>2026-04-06T09:35:26.6Z</time></trkpt><trkpt lat="44.4234133" lon="9.259315"><ele>160.0</ele><time>2026-04-06T09:35:27.597Z</time></trkpt><trkpt lat="44.4233767" lon="9.259165"><ele>160.0</ele><time>2026-04-06T09:35:28.602Z</time></trkpt><trkpt lat="44.4233383" lon="9.2590217"><ele>166.25</ele><time>2026-04-06T09:35:29.599Z</time></trkpt><trkpt lat="44.423285" lon="9.2588867"><ele>172.5</ele><time>2026-04-06T09:35:30.597Z</time></trkpt><trkpt lat="44.423205" lon="9.2587617"><ele>178.75</ele><time>2026-04-06T09:35:31.597Z</time></trkpt><trkpt lat="44.4231067" lon="9.258635"><ele>185.0</ele><time>2026-04-06T09:35:32.599Z</time></trkpt><trkpt lat="44.4230017" lon="9.2585133"><ele>180.25</ele><time>2026-04-06T09:35:33.598Z</time></trkpt><trkpt lat="44.4229" lon="9.2583933"><ele>175.5</ele><time>2026-04-06T09:35:34.599Z</time></trkpt><trkpt lat="44.4228083" lon="9.25827"><ele>170.75</ele><time>2026-04-06T09:35:35.6Z</time></trkpt><trkpt lat="44.4227317" lon="9.258135"><ele>166.0</ele><time>2026-04-06T09:35:36.599Z</time></trkpt><trkpt lat="44.4226733" lon="9.257985"><ele>166.0</ele><time>2026-04-06T09:35:37.599Z</time></trkpt><trkpt lat="44.4226167" lon="9.2578267"><ele>166.0</ele><time>2026-04-06T09:35:38.599Z</time></trkpt><trkpt lat="44.4225383" lon="9.257665"><ele>166.0</ele><time>2026-04-06T09:35:39.598Z</time></trkpt><trkpt lat="44.4224433" lon="9.2575067"><ele>166.0</ele><time>2026-04-06T09:35:40.597Z</time></trkpt><trkpt lat="44.4223317" lon="9.2573583"><ele>160.66666666666669</ele><time>2026-04-06T09:35:41.599Z</time></trkpt><trkpt lat="44.42221" lon="9.2572167"><ele>155.33333333333334</ele><time>2026-04-06T09:35:42.599Z</time></trkpt><trkpt lat="44.4220883" lon="9.257075"><ele>150.0</ele><time>2026-04-06T09:35:43.599Z</time></trkpt><trkpt lat="44.421975" lon="9.2569267"><ele>150.0</ele><time>2026-04-06T09:35:44.599Z</time></trkpt><trkpt lat="44.421875" lon="9.256775"><ele>150.0</ele><time>2026-04-06T09:35:45.599Z</time></trkpt><trkpt lat="44.42178" lon="9.2566283"><ele>150.0</ele><time>2026-04-06T09:35:46.598Z</time></trkpt><trkpt lat="44.4216967" lon="9.25648"><ele>150.0</ele><time>2026-04-06T09:35:47.599Z</time></trkpt><trkpt lat="44.4216233" lon="9.2563233"><ele>147.5</ele><time>2026-04-06T09:35:48.599Z</time></trkpt><trkpt lat="44.421555" lon="9.2561467"><ele>145.0</ele><time>2026-04-06T09:35:49.597Z</time></trkpt><trkpt lat="44.421485" lon="9.255965"><ele>142.5</ele><time>2026-04-06T09:35:50.598Z</time></trkpt><trkpt lat="44.4214033" lon="9.2557967"><ele>140.0</ele><time>2026-04-06T09:35:51.598Z</time></trkpt><trkpt lat="44.4213133" lon="9.255645"><ele>141.0</ele><time>2026-04-06T09:35:52.599Z</time></trkpt><trkpt lat="44.4212183" lon="9.2555117"><ele>142.0</ele><time>2026-04-06T09:35:53.599Z</time></trkpt><trkpt lat="44.4211283" lon="9.25538"><ele>143.0</ele><time>2026-04-06T09:35:54.599Z</time></trkpt><trkpt lat="44.42106" lon="9.2552333"><ele>144.0</ele><time>2026-04-06T09:35:55.598Z</time></trkpt><trkpt lat="44.420995" lon="9.255085"><ele>144.0</ele><time>2026-04-06T09:35:56.598Z</time></trkpt><trkpt lat="44.4209183" lon="9.2549567"><ele>144.0</ele><time>2026-04-06T09:35:57.6Z</time></trkpt><trkpt lat="44.42082" lon="9.2548667"><ele>144.0</ele><time>2026-04-06T09:35:58.599Z</time></trkpt><trkpt lat="44.42071" lon="9.254795"><ele>144.0</ele><time>2026-04-06T09:35:59.6Z</time></trkpt><trkpt lat="44.4206" lon="9.2547267"><ele>144.5</ele><time>2026-04-06T09:36:00.599Z</time></trkpt><trkpt lat="44.4204883" lon="9.2546533"><ele>145.0</ele><time>2026-04-06T09:36:01.598Z</time></trkpt><trkpt lat="44.4203683" lon="9.2545833"><ele>145.5</ele><time>2026-04-06T09:36:02.598Z</time></trkpt><trkpt lat="44.4202467" lon="9.25452"><ele>146.0</ele><time>2026-04-06T09:36:03.598Z</time></trkpt><trkpt lat="44.4201317" lon="9.2544667"><ele>146.0</ele><time>2026-04-06T09:36:04.598Z</time></trkpt><trkpt lat="44.4200267" lon="9.25441"><ele>146.0</ele><time>2026-04-06T09:36:05.598Z</time></trkpt><trkpt lat="44.4199367" lon="9.2543333"><ele>146.0</ele><time>2026-04-06T09:36:06.599Z</time></trkpt><trkpt lat="44.4198617" lon="9.2542333"><ele>146.0</ele><time>2026-04-06T09:36:07.6Z</time></trkpt><trkpt lat="44.4198017" lon="9.254095"><ele>146.0</ele><time>2026-04-06T09:36:08.6Z</time></trkpt><trkpt lat="44.419745" lon="9.2539317"><ele>144.25</ele><time>2026-04-06T09:36:09.601Z</time></trkpt><trkpt lat="44.4196867" lon="9.253745"><ele>142.5</ele><time>2026-04-06T09:36:10.601Z</time></trkpt><trkpt lat="44.4196183" lon="9.25356"><ele>140.75</ele><time>2026-04-06T09:36:11.601Z</time></trkpt><trkpt lat="44.41955" lon="9.25338"><ele>139.0</ele><time>2026-04-06T09:36:12.599Z</time></trkpt><trkpt lat="44.4194767" lon="9.25322"><ele>147.0</ele><time>2026-04-06T09:36:13.598Z</time></trkpt><trkpt lat="44.4193917" lon="9.2530683"><ele>155.0</ele><time>2026-04-06T09:36:14.599Z</time></trkpt><trkpt lat="44.4192933" lon="9.2529383"><ele>163.0</ele><time>2026-04-06T09:36:15.598Z</time></trkpt><trkpt lat="44.4191867" lon="9.2528467"><ele>171.0</ele><time>2026-04-06T09:36:16.597Z</time></trkpt><trkpt lat="44.4190617" lon="9.2528017"><ele>171.0</ele><time>2026-04-06T09:36:17.599Z</time></trkpt><trkpt lat="44.4189233" lon="9.25278"><ele>171.0</ele><time>2026-04-06T09:36:18.601Z</time></trkpt><trkpt lat="44.4187867" lon="9.25275"><ele>171.0</ele><time>2026-04-06T09:36:19.599Z</time></trkpt><trkpt lat="44.4186567" lon="9.252705"><ele>171.0</ele><time>2026-04-06T09:36:20.6Z</time></trkpt><trkpt lat="44.4185283" lon="9.2526583"><ele>169.25</ele><time>2026-04-06T09:36:21.597Z</time></trkpt><trkpt lat="44.4184033" lon="9.252655"><ele>167.5</ele><time>2026-04-06T09:36:22.599Z</time></trkpt><trkpt lat="44.4182733" lon="9.25269"><ele>165.75</ele><time>2026-04-06T09:36:23.598Z</time></trkpt><trkpt lat="44.4181467" lon="9.25275"><ele>164.0</ele><time>2026-04-06T09:36:24.599Z</time></trkpt><trkpt lat="44.41803" lon="9.2528367"><ele>163.5</ele><time>2026-04-06T09:36:25.597Z</time></trkpt><trkpt lat="44.417925" lon="9.2529533"><ele>163.0</ele><time>2026-04-06T09:36:26.6Z</time></trkpt><trkpt lat="44.4178383" lon="9.2530983"><ele>162.5</ele><time>2026-04-06T09:36:27.598Z</time></trkpt><trkpt lat="44.4177617" lon="9.2532567"><ele>162.0</ele><time>2026-04-06T09:36:28.599Z</time></trkpt><trkpt lat="44.4176917" lon="9.2534033"><ele>155.0</ele><time>2026-04-06T09:36:29.598Z</time></trkpt><trkpt lat="44.4176117" lon="9.25352"><ele>148.0</ele><time>2026-04-06T09:36:30.599Z</time></trkpt><trkpt lat="44.4175117" lon="9.2535917"><ele>141.0</ele><time>2026-04-06T09:36:31.598Z</time></trkpt><trkpt lat="44.4173933" lon="9.2536267"><ele>134.0</ele><time>2026-04-06T09:36:32.598Z</time></trkpt><trkpt lat="44.4172583" lon="9.253625"><ele>132.25</ele><time>2026-04-06T09:36:33.598Z</time></trkpt><trkpt lat="44.4171183" lon="9.2535983"><ele>130.5</ele><time>2026-04-06T09:36:34.599Z</time></trkpt><trkpt lat="44.4169883" lon="9.253555"><ele>128.75</ele><time>2026-04-06T09:36:35.599Z</time></trkpt><trkpt lat="44.416875" lon="9.2534867"><ele>127.0</ele><time>2026-04-06T09:36:36.599Z</time></trkpt><trkpt lat="44.4167817" lon="9.2533967"><ele>127.0</ele><time>2026-04-06T09:36:37.599Z</time></trkpt><trkpt lat="44.4166967" lon="9.253275"><ele>127.0</ele><time>2026-04-06T09:36:38.599Z</time></trkpt><trkpt lat="44.4166167" lon="9.25313"><ele>127.0</ele><time>2026-04-06T09:36:39.599Z</time></trkpt><trkpt lat="44.41655" lon="9.2529717"><ele>127.0</ele><time>2026-04-06T09:36:40.598Z</time></trkpt><trkpt lat="44.416485" lon="9.2528233"><ele>130.0</ele><time>2026-04-06T09:36:41.598Z</time></trkpt><trkpt lat="44.4163983" lon="9.252695"><ele>133.0</ele><time>2026-04-06T09:36:42.598Z</time></trkpt><trkpt lat="44.416285" lon="9.25259"><ele>136.0</ele><time>2026-04-06T09:36:43.599Z</time></trkpt><trkpt lat="44.416155" lon="9.252525"><ele>139.0</ele><time>2026-04-06T09:36:44.599Z</time></trkpt><trkpt lat="44.4160117" lon="9.25251"><ele>139.0</ele><time>2026-04-06T09:36:45.598Z</time></trkpt><trkpt lat="44.4158483" lon="9.2525483"><ele>139.0</ele><time>2026-04-06T09:36:46.598Z</time></trkpt><trkpt lat="44.4156817" lon="9.25261"><ele>139.0</ele><time>2026-04-06T09:36:47.601Z</time></trkpt><trkpt lat="44.4155283" lon="9.252675"><ele>137.75</ele><time>2026-04-06T09:36:48.599Z</time></trkpt><trkpt lat="44.415395" lon="9.25275"><ele>136.5</ele><time>2026-04-06T09:36:49.599Z</time></trkpt><trkpt lat="44.4152883" lon="9.252855"><ele>135.25</ele><time>2026-04-06T09:36:50.6Z</time></trkpt><trkpt lat="44.4151917" lon="9.2529683"><ele>134.0</ele><time>2026-04-06T09:36:51.599Z</time></trkpt><trkpt lat="44.4151017" lon="9.253065"><ele>130.75</ele><time>2026-04-06T09:36:52.598Z</time></trkpt><trkpt lat="44.4150033" lon="9.2531317"><ele>127.5</ele><time>2026-04-06T09:36:53.598Z</time></trkpt><trkpt lat="44.4148883" lon="9.2531533"><ele>124.25</ele><time>2026-04-06T09:36:54.599Z</time></trkpt><trkpt lat="44.4147483" lon="9.253135"><ele>121.0</ele><time>2026-04-06T09:36:55.599Z</time></trkpt><trkpt lat="44.41459" lon="9.2531083"><ele>121.0</ele><time>2026-04-06T09:36:56.598Z</time></trkpt><trkpt lat="44.4144267" lon="9.2530783"><ele>121.0</ele><time>2026-04-06T09:36:57.599Z</time></trkpt><trkpt lat="44.41426" lon="9.2530467"><ele>121.0</ele><time>2026-04-06T09:36:58.599Z</time></trkpt><trkpt lat="44.4140983" lon="9.2530217"><ele>121.0</ele><time>2026-04-06T09:36:59.6Z</time></trkpt><trkpt lat="44.4139417" lon="9.2529933"><ele>121.0</ele><time>2026-04-06T09:37:00.599Z</time></trkpt><trkpt lat="44.4137933" lon="9.2529717"><ele>121.0</ele><time>2026-04-06T09:37:01.599Z</time></trkpt><trkpt lat="44.4136517" lon="9.25295"><ele>118.5</ele><time>2026-04-06T09:37:02.599Z</time></trkpt><trkpt lat="44.4135183" lon="9.2529317"><ele>116.0</ele><time>2026-04-06T09:37:03.598Z</time></trkpt><trkpt lat="44.4133867" lon="9.2529117"><ele>113.5</ele><time>2026-04-06T09:37:04.598Z</time></trkpt><trkpt lat="44.413265" lon="9.2528867"><ele>111.0</ele><time>2026-04-06T09:37:05.599Z</time></trkpt><trkpt lat="44.413145" lon="9.2528517"><ele>111.0</ele><time>2026-04-06T09:37:06.598Z</time></trkpt><trkpt lat="44.4130233" lon="9.2528083"><ele>111.0</ele><time>2026-04-06T09:37:07.599Z</time></trkpt><trkpt lat="44.412905" lon="9.2527267"><ele>111.0</ele><time>2026-04-06T09:37:08.6Z</time></trkpt><trkpt lat="44.412795" lon="9.2526333"><ele>111.0</ele><time>2026-04-06T09:37:09.597Z</time></trkpt><trkpt lat="44.41269" lon="9.2525367"><ele>111.0</ele><time>2026-04-06T09:37:10.599Z</time></trkpt><trkpt lat="44.412575" lon="9.2524533"><ele>111.0</ele><time>2026-04-06T09:37:11.598Z</time></trkpt><trkpt lat="44.4124383" lon="9.2523883"><ele>111.0</ele><time>2026-04-06T09:37:12.598Z</time></trkpt><trkpt lat="44.41228" lon="9.252335"><ele>111.0</ele><time>2026-04-06T09:37:13.598Z</time></trkpt><trkpt lat="44.412105" lon="9.252275"><ele>111.0</ele><time>2026-04-06T09:37:14.6Z</time></trkpt><trkpt lat="44.4119117" lon="9.2522083"><ele>111.0</ele><time>2026-04-06T09:37:15.598Z</time></trkpt><trkpt lat="44.41171" lon="9.2521317"><ele>111.0</ele><time>2026-04-06T09:37:16.6Z</time></trkpt><trkpt lat="44.4115233" lon="9.2520633"><ele>111.0</ele><time>2026-04-06T09:37:17.599Z</time></trkpt><trkpt lat="44.41135" lon="9.252005"><ele>111.0</ele><time>2026-04-06T09:37:18.599Z</time></trkpt><trkpt lat="44.41119" lon="9.2519533"><ele>111.0</ele><time>2026-04-06T09:37:19.598Z</time></trkpt><trkpt lat="44.4110383" lon="9.251905"><ele>109.5</ele><time>2026-04-06T09:37:20.6Z</time></trkpt><trkpt lat="44.4108967" lon="9.2518583"><ele>108.0</ele><time>2026-04-06T09:37:21.599Z</time></trkpt><trkpt lat="44.4107683" lon="9.2518017"><ele>106.5</ele><time>2026-04-06T09:37:22.597Z</time></trkpt><trkpt lat="44.4106517" lon="9.25173"><ele>105.0</ele><time>2026-04-06T09:37:23.598Z</time></trkpt><trkpt lat="44.4105483" lon="9.2516333"><ele>103.5</ele><time>2026-04-06T09:37:24.599Z</time></trkpt><trkpt lat="44.4104667" lon="9.2515083"><ele>102.0</ele><time>2026-04-06T09:37:25.598Z</time></trkpt><trkpt lat="44.4104033" lon="9.2513567"><ele>100.5</ele><time>2026-04-06T09:37:26.602Z</time></trkpt><trkpt lat="44.4103483" lon="9.251185"><ele>99.0</ele><time>2026-04-06T09:37:27.599Z</time></trkpt><trkpt lat="44.410295" lon="9.2510017"><ele>99.0</ele><time>2026-04-06T09:37:28.599Z</time></trkpt><trkpt lat="44.410235" lon="9.2508117"><ele>99.0</ele><time>2026-04-06T09:37:29.603Z</time></trkpt><trkpt lat="44.4101733" lon="9.2506083"><ele>99.0</ele><time>2026-04-06T09:37:30.598Z</time></trkpt><trkpt lat="44.4101067" lon="9.2504067"><ele>102.0</ele><time>2026-04-06T09:37:31.602Z</time></trkpt><trkpt lat="44.4100267" lon="9.2502083"><ele>105.0</ele><time>2026-04-06T09:37:32.599Z</time></trkpt><trkpt lat="44.409925" lon="9.2500083"><ele>108.0</ele><time>2026-04-06T09:37:33.598Z</time></trkpt><trkpt lat="44.4098117" lon="9.249825"><ele>104.66666666666666</ele><time>2026-04-06T09:37:34.599Z</time></trkpt><trkpt lat="44.4096967" lon="9.2496567"><ele>101.33333333333333</ele><time>2026-04-06T09:37:35.598Z</time></trkpt><trkpt lat="44.4095867" lon="9.2495"><ele>98.0</ele><time>2026-04-06T09:37:36.598Z</time></trkpt><trkpt lat="44.40949" lon="9.2493417"><ele>98.0</ele><time>2026-04-06T09:37:37.599Z</time></trkpt><trkpt lat="44.409415" lon="9.249165"><ele>98.0</ele><time>2026-04-06T09:37:38.6Z</time></trkpt><trkpt lat="44.4093617" lon="9.248975"><ele>98.0</ele><time>2026-04-06T09:37:39.599Z</time></trkpt><trkpt lat="44.409325" lon="9.2487817"><ele>98.0</ele><time>2026-04-06T09:37:40.598Z</time></trkpt><trkpt lat="44.4092933" lon="9.2486"><ele>100.0</ele><time>2026-04-06T09:37:41.599Z</time></trkpt><trkpt lat="44.409255" lon="9.24843"><ele>102.0</ele><time>2026-04-06T09:37:42.6Z</time></trkpt><trkpt lat="44.409205" lon="9.2482767"><ele>104.0</ele><time>2026-04-06T09:37:43.597Z</time></trkpt><trkpt lat="44.4091367" lon="9.2481433"><ele>106.0</ele><time>2026-04-06T09:37:44.599Z</time></trkpt><trkpt lat="44.409035" lon="9.24803"><ele>108.66666666666667</ele><time>2026-04-06T09:37:45.598Z</time></trkpt><trkpt lat="44.4089033" lon="9.2479317"><ele>111.33333333333334</ele><time>2026-04-06T09:37:46.599Z</time></trkpt><trkpt lat="44.4087483" lon="9.2478283"><ele>114.0</ele><time>2026-04-06T09:37:47.599Z</time></trkpt><trkpt lat="44.4085867" lon="9.24771"><ele>107.0</ele><time>2026-04-06T09:37:48.599Z</time></trkpt><trkpt lat="44.4084283" lon="9.247585"><ele>100.0</ele><time>2026-04-06T09:37:49.599Z</time></trkpt><trkpt lat="44.408275" lon="9.2474667"><ele>93.0</ele><time>2026-04-06T09:37:50.599Z</time></trkpt><trkpt lat="44.40812" lon="9.247355"><ele>97.0</ele><time>2026-04-06T09:37:51.597Z</time></trkpt><trkpt lat="44.4079733" lon="9.2472533"><ele>101.0</ele><time>2026-04-06T09:37:52.599Z</time></trkpt><trkpt lat="44.4078317" lon="9.2471683"><ele>105.0</ele><time>2026-04-06T09:37:53.597Z</time></trkpt><trkpt lat="44.40769" lon="9.2471033"><ele>105.0</ele><time>2026-04-06T09:37:54.598Z</time></trkpt><trkpt lat="44.4075417" lon="9.2470667"><ele>105.0</ele><time>2026-04-06T09:37:55.598Z</time></trkpt><trkpt lat="44.4073883" lon="9.247065"><ele>105.0</ele><time>2026-04-06T09:37:56.599Z</time></trkpt><trkpt lat="44.4072233" lon="9.2471033"><ele>105.0</ele><time>2026-04-06T09:37:57.598Z</time></trkpt><trkpt lat="44.4070517" lon="9.2471733"><ele>105.0</ele><time>2026-04-06T09:37:58.598Z</time></trkpt><trkpt lat="44.4068833" lon="9.2472417"><ele>105.0</ele><time>2026-04-06T09:37:59.599Z</time></trkpt><trkpt lat="44.4067317" lon="9.2473067"><ele>106.0</ele><time>2026-04-06T09:38:00.599Z</time></trkpt><trkpt lat="44.406585" lon="9.247375"><ele>107.0</ele><time>2026-04-06T09:38:01.599Z</time></trkpt><trkpt lat="44.40644" lon="9.2474683"><ele>108.0</ele><time>2026-04-06T09:38:02.599Z</time></trkpt><trkpt lat="44.4063017" lon="9.2475883"><ele>108.0</ele><time>2026-04-06T09:38:03.6Z</time></trkpt><trkpt lat="44.4061767" lon="9.24774"><ele>108.0</ele><time>2026-04-06T09:38:04.598Z</time></trkpt><trkpt lat="44.4060617" lon="9.2479183"><ele>108.0</ele><time>2026-04-06T09:38:05.597Z</time></trkpt><trkpt lat="44.405965" lon="9.24812"><ele>104.0</ele><time>2026-04-06T09:38:06.598Z</time></trkpt><trkpt lat="44.4058767" lon="9.2483433"><ele>100.0</ele><time>2026-04-06T09:38:07.599Z</time></trkpt><trkpt lat="44.4057933" lon="9.2485817"><ele>96.0</ele><time>2026-04-06T09:38:08.599Z</time></trkpt><trkpt lat="44.4057167" lon="9.2488167"><ele>93.0</ele><time>2026-04-06T09:38:09.598Z</time></trkpt><trkpt lat="44.4056467" lon="9.2490317"><ele>90.0</ele><time>2026-04-06T09:38:10.598Z</time></trkpt><trkpt lat="44.40558" lon="9.2492333"><ele>87.0</ele><time>2026-04-06T09:38:11.598Z</time></trkpt><trkpt lat="44.4055117" lon="9.24942"><ele>86.5</ele><time>2026-04-06T09:38:12.599Z</time></trkpt><trkpt lat="44.405435" lon="9.2496"><ele>86.0</ele><time>2026-04-06T09:38:13.599Z</time></trkpt><trkpt lat="44.40536" lon="9.249765"><ele>85.5</ele><time>2026-04-06T09:38:14.599Z</time></trkpt><trkpt lat="44.4052783" lon="9.2499133"><ele>85.0</ele><time>2026-04-06T09:38:15.598Z</time></trkpt><trkpt lat="44.4051883" lon="9.2500367"><ele>85.0</ele><time>2026-04-06T09:38:16.598Z</time></trkpt><trkpt lat="44.4050867" lon="9.25012"><ele>85.0</ele><time>2026-04-06T09:38:17.598Z</time></trkpt><trkpt lat="44.4049683" lon="9.2501583"><ele>85.0</ele><time>2026-04-06T09:38:18.598Z</time></trkpt><trkpt lat="44.4048383" lon="9.25016"><ele>85.0</ele><time>2026-04-06T09:38:19.597Z</time></trkpt><trkpt lat="44.4046917" lon="9.25014"><ele>85.0</ele><time>2026-04-06T09:38:20.598Z</time></trkpt><trkpt lat="44.404535" lon="9.2501167"><ele>85.0</ele><time>2026-04-06T09:38:21.598Z</time></trkpt><trkpt lat="44.4043783" lon="9.25009"><ele>85.0</ele><time>2026-04-06T09:38:22.598Z</time></trkpt><trkpt lat="44.404225" lon="9.2500633"><ele>85.0</ele><time>2026-04-06T09:38:23.597Z</time></trkpt><trkpt lat="44.40407" lon="9.25004"><ele>85.0</ele><time>2026-04-06T09:38:24.597Z</time></trkpt><trkpt lat="44.4039083" lon="9.2500117"><ele>85.0</ele><time>2026-04-06T09:38:25.598Z</time></trkpt><trkpt lat="44.4037467" lon="9.2499783"><ele>83.75</ele><time>2026-04-06T09:38:26.598Z</time></trkpt><trkpt lat="44.4035933" lon="9.2499483"><ele>82.5</ele><time>2026-04-06T09:38:27.598Z</time></trkpt><trkpt lat="44.4034483" lon="9.2499217"><ele>81.25</ele><time>2026-04-06T09:38:28.598Z</time></trkpt><trkpt lat="44.40331" lon="9.2498967"><ele>80.0</ele><time>2026-04-06T09:38:29.598Z</time></trkpt><trkpt lat="44.4031817" lon="9.2498767"><ele>80.0</ele><time>2026-04-06T09:38:30.598Z</time></trkpt><trkpt lat="44.4030683" lon="9.2498517"><ele>80.0</ele><time>2026-04-06T09:38:31.598Z</time></trkpt><trkpt lat="44.4029783" lon="9.2498233"><ele>80.0</ele><time>2026-04-06T09:38:32.599Z</time></trkpt><trkpt lat="44.4029117" lon="9.2497983"><ele>80.0</ele><time>2026-04-06T09:38:33.598Z</time></trkpt><trkpt lat="44.4028267" lon="9.2497567"><ele>80.0</ele><time>2026-04-06T09:38:35.598Z</time></trkpt><trkpt lat="44.4027583" lon="9.2497383"><ele>80.0</ele><time>2026-04-06T09:38:40.598Z</time></trkpt><trkpt lat="44.4027" lon="9.24982"><ele>79.2</ele><time>2026-04-06T09:38:49.599Z</time></trkpt><trkpt lat="44.402655" lon="9.24991"><ele>78.4</ele><time>2026-04-06T09:38:50.599Z</time></trkpt><trkpt lat="44.4026167" lon="9.2500217"><ele>77.6</ele><time>2026-04-06T09:38:51.599Z</time></trkpt><trkpt lat="44.4025683" lon="9.2501517"><ele>76.8</ele><time>2026-04-06T09:38:52.601Z</time></trkpt><trkpt lat="44.40251" lon="9.250305"><ele>76.0</ele><time>2026-04-06T09:38:53.601Z</time></trkpt><trkpt lat="44.4024533" lon="9.25047"><ele>75.5</ele><time>2026-04-06T09:38:54.601Z</time></trkpt><trkpt lat="44.4024" lon="9.25064"><ele>75.0</ele><time>2026-04-06T09:38:55.6Z</time></trkpt><trkpt lat="44.4023383" lon="9.2508167"><ele>74.5</ele><time>2026-04-06T09:38:56.6Z</time></trkpt><trkpt lat="44.4022683" lon="9.251005"><ele>74.0</ele><time>2026-04-06T09:38:57.6Z</time></trkpt><trkpt lat="44.4022" lon="9.2512"><ele>74.66666666666667</ele><time>2026-04-06T09:38:58.597Z</time></trkpt><trkpt lat="44.4021283" lon="9.2513983"><ele>75.33333333333333</ele><time>2026-04-06T09:38:59.599Z</time></trkpt><trkpt lat="44.4020567" lon="9.2516017"><ele>76.0</ele><time>2026-04-06T09:39:00.599Z</time></trkpt><trkpt lat="44.401985" lon="9.25181"><ele>76.0</ele><time>2026-04-06T09:39:01.599Z</time></trkpt><trkpt lat="44.4019133" lon="9.2520233"><ele>76.0</ele><time>2026-04-06T09:39:02.598Z</time></trkpt><trkpt lat="44.4018433" lon="9.2522317"><ele>76.0</ele><time>2026-04-06T09:39:03.599Z</time></trkpt><trkpt lat="44.401775" lon="9.2524317"><ele>76.33333333333333</ele><time>2026-04-06T09:39:04.597Z</time></trkpt><trkpt lat="44.4017033" lon="9.2526333"><ele>76.66666666666667</ele><time>2026-04-06T09:39:05.599Z</time></trkpt><trkpt lat="44.40163" lon="9.2528383"><ele>77.0</ele><time>2026-04-06T09:39:06.599Z</time></trkpt><trkpt lat="44.4015533" lon="9.2530467"><ele>77.66666666666667</ele><time>2026-04-06T09:39:07.599Z</time></trkpt><trkpt lat="44.4014767" lon="9.2532533"><ele>78.33333333333333</ele><time>2026-04-06T09:39:08.599Z</time></trkpt><trkpt lat="44.4013983" lon="9.2534567"><ele>79.0</ele><time>2026-04-06T09:39:09.598Z</time></trkpt><trkpt lat="44.4013233" lon="9.2536583"><ele>77.66666666666666</ele><time>2026-04-06T09:39:10.6Z</time></trkpt><trkpt lat="44.4012483" lon="9.2538567"><ele>76.33333333333333</ele><time>2026-04-06T09:39:11.598Z</time></trkpt><trkpt lat="44.4011733" lon="9.2540517"><ele>75.0</ele><time>2026-04-06T09:39:12.598Z</time></trkpt><trkpt lat="44.4011" lon="9.25425"><ele>75.0</ele><time>2026-04-06T09:39:13.599Z</time></trkpt><trkpt lat="44.4010267" lon="9.2544517"><ele>75.0</ele><time>2026-04-06T09:39:14.598Z</time></trkpt><trkpt lat="44.40096" lon="9.25465"><ele>75.0</ele><time>2026-04-06T09:39:15.598Z</time></trkpt><trkpt lat="44.4008967" lon="9.2548383"><ele>75.0</ele><time>2026-04-06T09:39:16.597Z</time></trkpt><trkpt lat="44.400835" lon="9.2550133"><ele>75.0</ele><time>2026-04-06T09:39:17.598Z</time></trkpt><trkpt lat="44.4007833" lon="9.2551833"><ele>75.0</ele><time>2026-04-06T09:39:18.599Z</time></trkpt><trkpt lat="44.4007467" lon="9.25535"><ele>75.0</ele><time>2026-04-06T09:39:19.604Z</time></trkpt><trkpt lat="44.40073" lon="9.2555233"><ele>74.75</ele><time>2026-04-06T09:39:20.6Z</time></trkpt><trkpt lat="44.4007417" lon="9.25571"><ele>74.5</ele><time>2026-04-06T09:39:21.6Z</time></trkpt><trkpt lat="44.4007817" lon="9.255915"><ele>74.25</ele><time>2026-04-06T09:39:22.602Z</time></trkpt><trkpt lat="44.4008367" lon="9.2561217"><ele>74.0</ele><time>2026-04-06T09:39:23.601Z</time></trkpt><trkpt lat="44.4008933" lon="9.2563383"><ele>73.66666666666667</ele><time>2026-04-06T09:39:24.601Z</time></trkpt><trkpt lat="44.4009467" lon="9.256555"><ele>73.33333333333333</ele><time>2026-04-06T09:39:25.601Z</time></trkpt><trkpt lat="44.4009983" lon="9.2567583"><ele>73.0</ele><time>2026-04-06T09:39:26.602Z</time></trkpt><trkpt lat="44.4010467" lon="9.25695"><ele>73.0</ele><time>2026-04-06T09:39:27.599Z</time></trkpt><trkpt lat="44.4010883" lon="9.2571317"><ele>73.0</ele><time>2026-04-06T09:39:28.6Z</time></trkpt><trkpt lat="44.40112" lon="9.2573017"><ele>73.0</ele><time>2026-04-06T09:39:29.597Z</time></trkpt><trkpt lat="44.4011383" lon="9.257475"><ele>73.0</ele><time>2026-04-06T09:39:30.598Z</time></trkpt><trkpt lat="44.40113" lon="9.2576583"><ele>73.25</ele><time>2026-04-06T09:39:31.602Z</time></trkpt><trkpt lat="44.4010983" lon="9.2578383"><ele>73.5</ele><time>2026-04-06T09:39:32.598Z</time></trkpt><trkpt lat="44.4010417" lon="9.25802"><ele>73.75</ele><time>2026-04-06T09:39:33.599Z</time></trkpt><trkpt lat="44.4009617" lon="9.2581983"><ele>74.0</ele><time>2026-04-06T09:39:34.599Z</time></trkpt><trkpt lat="44.4008567" lon="9.2583783"><ele>75.33333333333334</ele><time>2026-04-06T09:39:35.597Z</time></trkpt><trkpt lat="44.4007417" lon="9.25856"><ele>76.66666666666667</ele><time>2026-04-06T09:39:36.598Z</time></trkpt><trkpt lat="44.4006367" lon="9.25874"><ele>78.0</ele><time>2026-04-06T09:39:37.599Z</time></trkpt><trkpt lat="44.4005383" lon="9.258915"><ele>77.5</ele><time>2026-04-06T09:39:38.599Z</time></trkpt><trkpt lat="44.4004367" lon="9.2590717"><ele>77.0</ele><time>2026-04-06T09:39:39.598Z</time></trkpt><trkpt lat="44.400325" lon="9.2592"><ele>76.5</ele><time>2026-04-06T09:39:40.599Z</time></trkpt><trkpt lat="44.4001933" lon="9.2592967"><ele>76.0</ele><time>2026-04-06T09:39:41.599Z</time></trkpt><trkpt lat="44.4000417" lon="9.259365"><ele>76.0</ele><time>2026-04-06T09:39:42.598Z</time></trkpt><trkpt lat="44.3998767" lon="9.2594233"><ele>76.0</ele><time>2026-04-06T09:39:43.598Z</time></trkpt><trkpt lat="44.399705" lon="9.2594817"><ele>76.0</ele><time>2026-04-06T09:39:44.601Z</time></trkpt><trkpt lat="44.399535" lon="9.259545"><ele>73.66666666666666</ele><time>2026-04-06T09:39:45.6Z</time></trkpt><trkpt lat="44.3993717" lon="9.2595983"><ele>71.33333333333333</ele><time>2026-04-06T09:39:46.597Z</time></trkpt><trkpt lat="44.39922" lon="9.25965"><ele>69.0</ele><time>2026-04-06T09:39:47.599Z</time></trkpt><trkpt lat="44.3990733" lon="9.2596933"><ele>69.0</ele><time>2026-04-06T09:39:48.599Z</time></trkpt><trkpt lat="44.3989367" lon="9.2597167"><ele>69.0</ele><time>2026-04-06T09:39:49.601Z</time></trkpt><trkpt lat="44.3987983" lon="9.259705"><ele>69.0</ele><time>2026-04-06T09:39:50.601Z</time></trkpt><trkpt lat="44.3986667" lon="9.259655"><ele>69.0</ele><time>2026-04-06T09:39:51.601Z</time></trkpt><trkpt lat="44.39853" lon="9.259575"><ele>69.0</ele><time>2026-04-06T09:39:52.601Z</time></trkpt><trkpt lat="44.3983833" lon="9.2594983"><ele>69.0</ele><time>2026-04-06T09:39:53.6Z</time></trkpt><trkpt lat="44.39823" lon="9.25944"><ele>69.0</ele><time>2026-04-06T09:39:54.6Z</time></trkpt><trkpt lat="44.3980767" lon="9.2594017"><ele>69.66666666666667</ele><time>2026-04-06T09:39:55.602Z</time></trkpt><trkpt lat="44.3979217" lon="9.2593733"><ele>70.33333333333334</ele><time>2026-04-06T09:39:56.601Z</time></trkpt><trkpt lat="44.39777" lon="9.259345"><ele>71.0</ele><time>2026-04-06T09:39:57.601Z</time></trkpt><trkpt lat="44.3976183" lon="9.2593167"><ele>71.0</ele><time>2026-04-06T09:39:58.601Z</time></trkpt><trkpt lat="44.39748" lon="9.2592917"><ele>71.0</ele><time>2026-04-06T09:39:59.601Z</time></trkpt><trkpt lat="44.39735" lon="9.25927"><ele>71.0</ele><time>2026-04-06T09:40:00.598Z</time></trkpt><trkpt lat="44.39722" lon="9.259255"><ele>71.0</ele><time>2026-04-06T09:40:01.599Z</time></trkpt><trkpt lat="44.397095" lon="9.259245"><ele>71.0</ele><time>2026-04-06T09:40:02.599Z</time></trkpt><trkpt lat="44.3969733" lon="9.2592383"><ele>71.0</ele><time>2026-04-06T09:40:03.599Z</time></trkpt><trkpt lat="44.3968467" lon="9.2592517"><ele>71.0</ele><time>2026-04-06T09:40:04.599Z</time></trkpt><trkpt lat="44.3967167" lon="9.2592733"><ele>71.0</ele><time>2026-04-06T09:40:05.6Z</time></trkpt><trkpt lat="44.3965817" lon="9.25931"><ele>71.0</ele><time>2026-04-06T09:40:06.599Z</time></trkpt><trkpt lat="44.39644" lon="9.25935"><ele>71.0</ele><time>2026-04-06T09:40:07.598Z</time></trkpt><trkpt lat="44.3963" lon="9.259405"><ele>71.0</ele><time>2026-04-06T09:40:08.599Z</time></trkpt><trkpt lat="44.3961633" lon="9.2594617"><ele>71.0</ele><time>2026-04-06T09:40:09.597Z</time></trkpt><trkpt lat="44.3960283" lon="9.2595183"><ele>70.25</ele><time>2026-04-06T09:40:10.6Z</time></trkpt><trkpt lat="44.3958933" lon="9.2595733"><ele>69.5</ele><time>2026-04-06T09:40:11.598Z</time></trkpt><trkpt lat="44.3957583" lon="9.2596333"><ele>68.75</ele><time>2026-04-06T09:40:12.599Z</time></trkpt><trkpt lat="44.395625" lon="9.259695"><ele>68.0</ele><time>2026-04-06T09:40:13.599Z</time></trkpt><trkpt lat="44.3955" lon="9.2597833"><ele>68.66666666666667</ele><time>2026-04-06T09:40:14.599Z</time></trkpt><trkpt lat="44.3953833" lon="9.2599117"><ele>69.33333333333333</ele><time>2026-04-06T09:40:15.598Z</time></trkpt><trkpt lat="44.3952783" lon="9.2600783"><ele>70.0</ele><time>2026-04-06T09:40:16.598Z</time></trkpt><trkpt lat="44.3951883" lon="9.2602717"><ele>70.0</ele><time>2026-04-06T09:40:17.599Z</time></trkpt><trkpt lat="44.395105" lon="9.26048"><ele>70.0</ele><time>2026-04-06T09:40:18.599Z</time></trkpt><trkpt lat="44.395025" lon="9.2606967"><ele>70.0</ele><time>2026-04-06T09:40:19.599Z</time></trkpt><trkpt lat="44.394945" lon="9.2609167"><ele>72.0</ele><time>2026-04-06T09:40:20.599Z</time></trkpt><trkpt lat="44.394865" lon="9.2611367"><ele>74.0</ele><time>2026-04-06T09:40:21.599Z</time></trkpt><trkpt lat="44.394785" lon="9.2613567"><ele>76.0</ele><time>2026-04-06T09:40:22.599Z</time></trkpt><trkpt lat="44.3947067" lon="9.26157"><ele>71.0</ele><time>2026-04-06T09:40:23.599Z</time></trkpt><trkpt lat="44.3946383" lon="9.2617833"><ele>66.0</ele><time>2026-04-06T09:40:24.598Z</time></trkpt><trkpt lat="44.3945817" lon="9.261995"><ele>61.0</ele><time>2026-04-06T09:40:25.599Z</time></trkpt><trkpt lat="44.3945433" lon="9.26221"><ele>62.0</ele><time>2026-04-06T09:40:26.599Z</time></trkpt><trkpt lat="44.3945283" lon="9.26243"><ele>63.0</ele><time>2026-04-06T09:40:27.599Z</time></trkpt><trkpt lat="44.3945383" lon="9.262655"><ele>64.0</ele><time>2026-04-06T09:40:28.599Z</time></trkpt><trkpt lat="44.39457" lon="9.2628767"><ele>64.0</ele><time>2026-04-06T09:40:29.599Z</time></trkpt><trkpt lat="44.3946283" lon="9.2631"><ele>64.0</ele><time>2026-04-06T09:40:30.598Z</time></trkpt><trkpt lat="44.3946967" lon="9.2633217"><ele>64.0</ele><time>2026-04-06T09:40:31.599Z</time></trkpt><trkpt lat="44.3947733" lon="9.263535"><ele>68.0</ele><time>2026-04-06T09:40:32.599Z</time></trkpt><trkpt lat="44.3948533" lon="9.263745"><ele>72.0</ele><time>2026-04-06T09:40:33.599Z</time></trkpt><trkpt lat="44.3949217" lon="9.2639533"><ele>76.0</ele><time>2026-04-06T09:40:34.598Z</time></trkpt><trkpt lat="44.3949733" lon="9.26417"><ele>76.0</ele><time>2026-04-06T09:40:35.598Z</time></trkpt><trkpt lat="44.395005" lon="9.26439"><ele>76.0</ele><time>2026-04-06T09:40:36.599Z</time></trkpt><trkpt lat="44.395015" lon="9.2646067"><ele>76.0</ele><time>2026-04-06T09:40:37.599Z</time></trkpt><trkpt lat="44.395" lon="9.2648317"><ele>75.66666666666666</ele><time>2026-04-06T09:40:38.599Z</time></trkpt><trkpt lat="44.3949717" lon="9.265065"><ele>75.33333333333333</ele><time>2026-04-06T09:40:39.599Z</time></trkpt><trkpt lat="44.3949367" lon="9.2653067"><ele>75.0</ele><time>2026-04-06T09:40:40.598Z</time></trkpt><trkpt lat="44.3949017" lon="9.2655467"><ele>74.33333333333333</ele><time>2026-04-06T09:40:41.6Z</time></trkpt><trkpt lat="44.394865" lon="9.2657833"><ele>73.66666666666666</ele><time>2026-04-06T09:40:42.598Z</time></trkpt><trkpt lat="44.39483" lon="9.2660167"><ele>73.0</ele><time>2026-04-06T09:40:43.599Z</time></trkpt><trkpt lat="44.3947933" lon="9.2662517"><ele>75.66666666666666</ele><time>2026-04-06T09:40:44.598Z</time></trkpt><trkpt lat="44.3947583" lon="9.2664883"><ele>78.33333333333333</ele><time>2026-04-06T09:40:45.599Z</time></trkpt><trkpt lat="44.39473" lon="9.2667283"><ele>81.0</ele><time>2026-04-06T09:40:46.599Z</time></trkpt><trkpt lat="44.3947033" lon="9.2669733"><ele>81.0</ele><time>2026-04-06T09:40:47.599Z</time></trkpt><trkpt lat="44.39468" lon="9.26722"><ele>81.0</ele><time>2026-04-06T09:40:48.599Z</time></trkpt><trkpt lat="44.3946567" lon="9.2674617"><ele>81.0</ele><time>2026-04-06T09:40:49.599Z</time></trkpt><trkpt lat="44.3946267" lon="9.2676983"><ele>76.33333333333333</ele><time>2026-04-06T09:40:50.6Z</time></trkpt><trkpt lat="44.394595" lon="9.2679233"><ele>71.66666666666666</ele><time>2026-04-06T09:40:51.599Z</time></trkpt><trkpt lat="44.3945633" lon="9.268145"><ele>67.0</ele><time>2026-04-06T09:40:52.598Z</time></trkpt><trkpt lat="44.3945317" lon="9.2683567"><ele>67.0</ele><time>2026-04-06T09:40:53.599Z</time></trkpt><trkpt lat="44.3945017" lon="9.268565"><ele>67.0</ele><time>2026-04-06T09:40:54.6Z</time></trkpt><trkpt lat="44.39447" lon="9.2687733"><ele>67.0</ele><time>2026-04-06T09:40:55.599Z</time></trkpt><trkpt lat="44.3944367" lon="9.268985"><ele>68.0</ele><time>2026-04-06T09:40:56.599Z</time></trkpt><trkpt lat="44.3944033" lon="9.26919"><ele>69.0</ele><time>2026-04-06T09:40:57.598Z</time></trkpt><trkpt lat="44.3943633" lon="9.2693917"><ele>70.0</ele><time>2026-04-06T09:40:58.599Z</time></trkpt><trkpt lat="44.3943167" lon="9.2695883"><ele>71.0</ele><time>2026-04-06T09:40:59.597Z</time></trkpt><trkpt lat="44.39426" lon="9.2697783"><ele>73.0</ele><time>2026-04-06T09:41:00.598Z</time></trkpt><trkpt lat="44.3941967" lon="9.26996"><ele>75.0</ele><time>2026-04-06T09:41:01.599Z</time></trkpt><trkpt lat="44.394135" lon="9.27013"><ele>77.0</ele><time>2026-04-06T09:41:02.599Z</time></trkpt><trkpt lat="44.394075" lon="9.27029"><ele>79.0</ele><time>2026-04-06T09:41:03.599Z</time></trkpt><trkpt lat="44.3940183" lon="9.2704467"><ele>79.0</ele><time>2026-04-06T09:41:04.598Z</time></trkpt><trkpt lat="44.3939617" lon="9.270605"><ele>79.0</ele><time>2026-04-06T09:41:05.598Z</time></trkpt><trkpt lat="44.393905" lon="9.2707583"><ele>79.0</ele><time>2026-04-06T09:41:06.598Z</time></trkpt><trkpt lat="44.3938533" lon="9.2709067"><ele>79.0</ele><time>2026-04-06T09:41:07.599Z</time></trkpt><trkpt lat="44.3938017" lon="9.2710583"><ele>77.0</ele><time>2026-04-06T09:41:08.599Z</time></trkpt><trkpt lat="44.3937483" lon="9.2712067"><ele>75.0</ele><time>2026-04-06T09:41:09.599Z</time></trkpt><trkpt lat="44.3936983" lon="9.2713517"><ele>73.0</ele><time>2026-04-06T09:41:10.599Z</time></trkpt><trkpt lat="44.3936467" lon="9.2714933"><ele>71.0</ele><time>2026-04-06T09:41:11.599Z</time></trkpt><trkpt lat="44.3935983" lon="9.2716283"><ele>71.0</ele><time>2026-04-06T09:41:12.598Z</time></trkpt><trkpt lat="44.3935483" lon="9.2717583"><ele>71.0</ele><time>2026-04-06T09:41:13.599Z</time></trkpt><trkpt lat="44.393485" lon="9.271875"><ele>71.0</ele><time>2026-04-06T09:41:14.599Z</time></trkpt><trkpt lat="44.3934033" lon="9.2719783"><ele>71.0</ele><time>2026-04-06T09:41:15.598Z</time></trkpt><trkpt lat="44.3933067" lon="9.2720517"><ele>71.0</ele><time>2026-04-06T09:41:16.599Z</time></trkpt><trkpt lat="44.3931933" lon="9.2721017"><ele>71.0</ele><time>2026-04-06T09:41:17.599Z</time></trkpt><trkpt lat="44.3930767" lon="9.27214"><ele>71.0</ele><time>2026-04-06T09:41:18.599Z</time></trkpt><trkpt lat="44.3929583" lon="9.2721717"><ele>71.0</ele><time>2026-04-06T09:41:19.599Z</time></trkpt><trkpt lat="44.3928433" lon="9.2722067"><ele>71.0</ele><time>2026-04-06T09:41:20.599Z</time></trkpt><trkpt lat="44.3927283" lon="9.2722417"><ele>71.25</ele><time>2026-04-06T09:41:21.599Z</time></trkpt><trkpt lat="44.392615" lon="9.2722767"><ele>71.5</ele><time>2026-04-06T09:41:22.6Z</time></trkpt><trkpt lat="44.392505" lon="9.2723133"><ele>71.75</ele><time>2026-04-06T09:41:23.599Z</time></trkpt><trkpt lat="44.3923967" lon="9.2723583"><ele>72.0</ele><time>2026-04-06T09:41:24.599Z</time></trkpt><trkpt lat="44.3922883" lon="9.2724133"><ele>72.0</ele><time>2026-04-06T09:41:25.598Z</time></trkpt><trkpt lat="44.3921833" lon="9.2724933"><ele>72.0</ele><time>2026-04-06T09:41:26.599Z</time></trkpt><trkpt lat="44.3920867" lon="9.2726"><ele>72.0</ele><time>2026-04-06T09:41:27.599Z</time></trkpt><trkpt lat="44.3919933" lon="9.272725"><ele>72.0</ele><time>2026-04-06T09:41:28.599Z</time></trkpt><trkpt lat="44.3919017" lon="9.272865"><ele>71.0</ele><time>2026-04-06T09:41:29.598Z</time></trkpt><trkpt lat="44.3918217" lon="9.2730133"><ele>70.0</ele><time>2026-04-06T09:41:30.598Z</time></trkpt><trkpt lat="44.3917433" lon="9.2731583"><ele>69.0</ele><time>2026-04-06T09:41:31.598Z</time></trkpt><trkpt lat="44.39167" lon="9.2733017"><ele>68.0</ele><time>2026-04-06T09:41:32.604Z</time></trkpt><trkpt lat="44.3915967" lon="9.2734417"><ele>68.0</ele><time>2026-04-06T09:41:33.599Z</time></trkpt><trkpt lat="44.3915233" lon="9.273585"><ele>68.0</ele><time>2026-04-06T09:41:34.598Z</time></trkpt><trkpt lat="44.391445" lon="9.2737317"><ele>68.0</ele><time>2026-04-06T09:41:35.599Z</time></trkpt><trkpt lat="44.391365" lon="9.2738867"><ele>68.0</ele><time>2026-04-06T09:41:36.598Z</time></trkpt><trkpt lat="44.391285" lon="9.2740417"><ele>65.25</ele><time>2026-04-06T09:41:37.598Z</time></trkpt><trkpt lat="44.3912067" lon="9.2741983"><ele>62.5</ele><time>2026-04-06T09:41:38.6Z</time></trkpt><trkpt lat="44.3911367" lon="9.274355"><ele>59.75</ele><time>2026-04-06T09:41:39.599Z</time></trkpt><trkpt lat="44.391075" lon="9.2745133"><ele>57.0</ele><time>2026-04-06T09:41:40.598Z</time></trkpt><trkpt lat="44.3910183" lon="9.2746733"><ele>58.0</ele><time>2026-04-06T09:41:41.599Z</time></trkpt><trkpt lat="44.3909633" lon="9.2748383"><ele>59.0</ele><time>2026-04-06T09:41:42.598Z</time></trkpt><trkpt lat="44.390915" lon="9.2750133"><ele>60.0</ele><time>2026-04-06T09:41:43.599Z</time></trkpt><trkpt lat="44.390865" lon="9.2751933"><ele>61.0</ele><time>2026-04-06T09:41:44.599Z</time></trkpt><trkpt lat="44.3908133" lon="9.2753733"><ele>61.0</ele><time>2026-04-06T09:41:45.598Z</time></trkpt><trkpt lat="44.39076" lon="9.2755467"><ele>61.0</ele><time>2026-04-06T09:41:46.599Z</time></trkpt><trkpt lat="44.39071" lon="9.2757133"><ele>61.0</ele><time>2026-04-06T09:41:47.598Z</time></trkpt><trkpt lat="44.3906583" lon="9.2758767"><ele>61.0</ele><time>2026-04-06T09:41:48.599Z</time></trkpt><trkpt lat="44.390605" lon="9.2760433"><ele>61.75</ele><time>2026-04-06T09:41:49.598Z</time></trkpt><trkpt lat="44.3905417" lon="9.2762083"><ele>62.5</ele><time>2026-04-06T09:41:50.598Z</time></trkpt><trkpt lat="44.390455" lon="9.27636"><ele>63.25</ele><time>2026-04-06T09:41:51.599Z</time></trkpt><trkpt lat="44.3903583" lon="9.276495"><ele>64.0</ele><time>2026-04-06T09:41:52.599Z</time></trkpt><trkpt lat="44.3902633" lon="9.27662"><ele>62.5</ele><time>2026-04-06T09:41:53.599Z</time></trkpt><trkpt lat="44.39017" lon="9.2767417"><ele>61.0</ele><time>2026-04-06T09:41:54.6Z</time></trkpt><trkpt lat="44.3900767" lon="9.2768667"><ele>59.5</ele><time>2026-04-06T09:41:55.597Z</time></trkpt><trkpt lat="44.389985" lon="9.277005"><ele>58.0</ele><time>2026-04-06T09:41:56.598Z</time></trkpt><trkpt lat="44.3899033" lon="9.27715"><ele>57.25</ele><time>2026-04-06T09:41:57.6Z</time></trkpt><trkpt lat="44.3898333" lon="9.2773"><ele>56.5</ele><time>2026-04-06T09:41:58.598Z</time></trkpt><trkpt lat="44.3897717" lon="9.2774574"><ele>55.75</ele><time>2026-04-06T09:41:59.598Z</time></trkpt><trkpt lat="44.389716" lon="9.2776148"><ele>55.0</ele><time>2026-04-06T09:42:00.598Z</time></trkpt><trkpt lat="44.38966" lon="9.2777696"><ele>55.0</ele><time>2026-04-06T09:42:01.598Z</time></trkpt><trkpt lat="44.3895978" lon="9.2779206"><ele>55.0</ele><time>2026-04-06T09:42:02.598Z</time></trkpt><trkpt lat="44.3895212" lon="9.2780548"><ele>55.0</ele><time>2026-04-06T09:42:03.598Z</time></trkpt><trkpt lat="44.3894384" lon="9.2781792"><ele>55.0</ele><time>2026-04-06T09:42:04.599Z</time></trkpt><trkpt lat="44.3893598" lon="9.2783098"><ele>55.0</ele><time>2026-04-06T09:42:05.598Z</time></trkpt><trkpt lat="44.3892874" lon="9.278453"><ele>55.0</ele><time>2026-04-06T09:42:06.597Z</time></trkpt><trkpt lat="44.3892235" lon="9.2786038"><ele>55.0</ele><time>2026-04-06T09:42:07.598Z</time></trkpt><trkpt lat="44.3891656" lon="9.2787546"><ele>55.0</ele><time>2026-04-06T09:42:08.598Z</time></trkpt><trkpt lat="44.3891056" lon="9.2789012"><ele>54.0</ele><time>2026-04-06T09:42:09.598Z</time></trkpt><trkpt lat="44.3890285" lon="9.2790378"><ele>53.0</ele><time>2026-04-06T09:42:10.599Z</time></trkpt><trkpt lat="44.3889346" lon="9.2791678"><ele>52.0</ele><time>2026-04-06T09:42:11.6Z</time></trkpt><trkpt lat="44.3888309" lon="9.2792886"><ele>51.0</ele><time>2026-04-06T09:42:12.598Z</time></trkpt><trkpt lat="44.388724" lon="9.2794007"><ele>51.0</ele><time>2026-04-06T09:42:13.599Z</time></trkpt><trkpt lat="44.38862" lon="9.2795071"><ele>51.0</ele><time>2026-04-06T09:42:14.599Z</time></trkpt><trkpt lat="44.3885167" lon="9.2796108"><ele>51.0</ele><time>2026-04-06T09:42:15.6Z</time></trkpt><trkpt lat="44.3884146" lon="9.2797141"><ele>51.0</ele><time>2026-04-06T09:42:16.6Z</time></trkpt><trkpt lat="44.3883118" lon="9.2798124"><ele>50.75</ele><time>2026-04-06T09:42:17.598Z</time></trkpt><trkpt lat="44.3882069" lon="9.2799056"><ele>50.5</ele><time>2026-04-06T09:42:18.598Z</time></trkpt><trkpt lat="44.3880987" lon="9.2799979"><ele>50.25</ele><time>2026-04-06T09:42:19.597Z</time></trkpt><trkpt lat="44.3879933" lon="9.2800962"><ele>50.0</ele><time>2026-04-06T09:42:20.599Z</time></trkpt><trkpt lat="44.3878919" lon="9.2802041"><ele>50.0</ele><time>2026-04-06T09:42:21.598Z</time></trkpt><trkpt lat="44.3877962" lon="9.2803167"><ele>50.0</ele><time>2026-04-06T09:42:22.599Z</time></trkpt><trkpt lat="44.3877023" lon="9.2804248"><ele>50.0</ele><time>2026-04-06T09:42:23.597Z</time></trkpt><trkpt lat="44.3876023" lon="9.2805256"><ele>50.0</ele><time>2026-04-06T09:42:24.598Z</time></trkpt><trkpt lat="44.3874929" lon="9.2806184"><ele>50.25</ele><time>2026-04-06T09:42:25.6Z</time></trkpt><trkpt lat="44.3873774" lon="9.2806931"><ele>50.5</ele><time>2026-04-06T09:42:26.599Z</time></trkpt><trkpt lat="44.3872557" lon="9.280745"><ele>50.75</ele><time>2026-04-06T09:42:27.598Z</time></trkpt><trkpt lat="44.3871274" lon="9.2807738"><ele>51.0</ele><time>2026-04-06T09:42:28.599Z</time></trkpt><trkpt lat="44.3869979" lon="9.2807887"><ele>51.0</ele><time>2026-04-06T09:42:29.599Z</time></trkpt><trkpt lat="44.3868703" lon="9.2807971"><ele>51.0</ele><time>2026-04-06T09:42:30.598Z</time></trkpt><trkpt lat="44.3867463" lon="9.2808078"><ele>51.0</ele><time>2026-04-06T09:42:31.599Z</time></trkpt><trkpt lat="44.386625" lon="9.2808289"><ele>51.0</ele><time>2026-04-06T09:42:32.599Z</time></trkpt><trkpt lat="44.3865084" lon="9.2808619"><ele>51.0</ele><time>2026-04-06T09:42:33.597Z</time></trkpt><trkpt lat="44.3863919" lon="9.2809119"><ele>51.0</ele><time>2026-04-06T09:42:34.598Z</time></trkpt><trkpt lat="44.3862808" lon="9.2809801"><ele>51.0</ele><time>2026-04-06T09:42:35.597Z</time></trkpt><trkpt lat="44.3861758" lon="9.2810638"><ele>51.0</ele><time>2026-04-06T09:42:36.599Z</time></trkpt><trkpt lat="44.3860735" lon="9.2811558"><ele>51.0</ele><time>2026-04-06T09:42:37.598Z</time></trkpt><trkpt lat="44.3859725" lon="9.2812505"><ele>51.0</ele><time>2026-04-06T09:42:38.599Z</time></trkpt><trkpt lat="44.3858695" lon="9.2813504"><ele>51.0</ele><time>2026-04-06T09:42:39.598Z</time></trkpt><trkpt lat="44.3857628" lon="9.2814519"><ele>51.0</ele><time>2026-04-06T09:42:40.597Z</time></trkpt><trkpt lat="44.3856531" lon="9.2815574"><ele>51.5</ele><time>2026-04-06T09:42:41.598Z</time></trkpt><trkpt lat="44.3855444" lon="9.2816606"><ele>52.0</ele><time>2026-04-06T09:42:42.598Z</time></trkpt><trkpt lat="44.3854368" lon="9.2817608"><ele>52.5</ele><time>2026-04-06T09:42:43.598Z</time></trkpt><trkpt lat="44.3853315" lon="9.2818625"><ele>53.0</ele><time>2026-04-06T09:42:44.6Z</time></trkpt><trkpt lat="44.3852323" lon="9.2819667"><ele>53.25</ele><time>2026-04-06T09:42:45.597Z</time></trkpt><trkpt lat="44.3851389" lon="9.2820749"><ele>53.5</ele><time>2026-04-06T09:42:46.597Z</time></trkpt><trkpt lat="44.3850517" lon="9.2821817"><ele>53.75</ele><time>2026-04-06T09:42:47.598Z</time></trkpt><trkpt lat="44.38497" lon="9.2822917"><ele>54.0</ele><time>2026-04-06T09:42:48.598Z</time></trkpt><trkpt lat="44.3848883" lon="9.2824"><ele>54.25</ele><time>2026-04-06T09:42:49.599Z</time></trkpt><trkpt lat="44.3848083" lon="9.28251"><ele>54.5</ele><time>2026-04-06T09:42:50.599Z</time></trkpt><trkpt lat="44.38473" lon="9.2826233"><ele>54.75</ele><time>2026-04-06T09:42:51.599Z</time></trkpt><trkpt lat="44.3846467" lon="9.2827417"><ele>55.0</ele><time>2026-04-06T09:42:52.602Z</time></trkpt><trkpt lat="44.3845617" lon="9.2828667"><ele>55.0</ele><time>2026-04-06T09:42:53.599Z</time></trkpt><trkpt lat="44.384475" lon="9.282995"><ele>55.0</ele><time>2026-04-06T09:42:54.6Z</time></trkpt><trkpt lat="44.3843867" lon="9.283125"><ele>55.0</ele><time>2026-04-06T09:42:55.598Z</time></trkpt><trkpt lat="44.3843" lon="9.2832583"><ele>55.0</ele><time>2026-04-06T09:42:56.599Z</time></trkpt><trkpt lat="44.384215" lon="9.28339"><ele>55.0</ele><time>2026-04-06T09:42:57.598Z</time></trkpt><trkpt lat="44.3841233" lon="9.28352"><ele>55.0</ele><time>2026-04-06T09:42:58.597Z</time></trkpt><trkpt lat="44.3840283" lon="9.28364"><ele>55.0</ele><time>2026-04-06T09:42:59.598Z</time></trkpt><trkpt lat="44.38393" lon="9.2837567"><ele>55.0</ele><time>2026-04-06T09:43:00.597Z</time></trkpt><trkpt lat="44.3838317" lon="9.2838633"><ele>54.25</ele><time>2026-04-06T09:43:01.598Z</time></trkpt><trkpt lat="44.3837333" lon="9.2839683"><ele>53.5</ele><time>2026-04-06T09:43:02.598Z</time></trkpt><trkpt lat="44.3836383" lon="9.284075"><ele>52.75</ele><time>2026-04-06T09:43:03.597Z</time></trkpt><trkpt lat="44.3835433" lon="9.28418"><ele>52.0</ele><time>2026-04-06T09:43:04.598Z</time></trkpt><trkpt lat="44.383445" lon="9.2842883"><ele>52.0</ele><time>2026-04-06T09:43:05.597Z</time></trkpt><trkpt lat="44.3833467" lon="9.2843917"><ele>52.0</ele><time>2026-04-06T09:43:06.599Z</time></trkpt><trkpt lat="44.3832483" lon="9.2844933"><ele>52.0</ele><time>2026-04-06T09:43:07.598Z</time></trkpt><trkpt lat="44.38315" lon="9.284595"><ele>52.0</ele><time>2026-04-06T09:43:08.599Z</time></trkpt><trkpt lat="44.3830517" lon="9.2846883"><ele>51.75</ele><time>2026-04-06T09:43:09.597Z</time></trkpt><trkpt lat="44.3829483" lon="9.2847767"><ele>51.5</ele><time>2026-04-06T09:43:10.599Z</time></trkpt><trkpt lat="44.3828467" lon="9.2848667"><ele>51.25</ele><time>2026-04-06T09:43:11.6Z</time></trkpt><trkpt lat="44.382745" lon="9.2849583"><ele>51.0</ele><time>2026-04-06T09:43:12.597Z</time></trkpt><trkpt lat="44.3826367" lon="9.2850517"><ele>51.0</ele><time>2026-04-06T09:43:13.598Z</time></trkpt><trkpt lat="44.382525" lon="9.285155"><ele>51.0</ele><time>2026-04-06T09:43:14.599Z</time></trkpt><trkpt lat="44.3824167" lon="9.2852767"><ele>51.0</ele><time>2026-04-06T09:43:15.598Z</time></trkpt><trkpt lat="44.3823117" lon="9.2854067"><ele>51.0</ele><time>2026-04-06T09:43:16.602Z</time></trkpt><trkpt lat="44.3822117" lon="9.28554"><ele>51.75</ele><time>2026-04-06T09:43:17.597Z</time></trkpt><trkpt lat="44.38212" lon="9.2856717"><ele>52.5</ele><time>2026-04-06T09:43:18.599Z</time></trkpt><trkpt lat="44.3820283" lon="9.2857983"><ele>53.25</ele><time>2026-04-06T09:43:19.598Z</time></trkpt><trkpt lat="44.381935" lon="9.28592"><ele>54.0</ele><time>2026-04-06T09:43:20.6Z</time></trkpt><trkpt lat="44.3818417" lon="9.2860383"><ele>54.0</ele><time>2026-04-06T09:43:21.599Z</time></trkpt><trkpt lat="44.3817417" lon="9.2861583"><ele>54.0</ele><time>2026-04-06T09:43:22.599Z</time></trkpt><trkpt lat="44.3816417" lon="9.2862683"><ele>54.0</ele><time>2026-04-06T09:43:23.599Z</time></trkpt><trkpt lat="44.3815367" lon="9.2863767"><ele>54.0</ele><time>2026-04-06T09:43:24.6Z</time></trkpt><trkpt lat="44.3814267" lon="9.2864817"><ele>54.0</ele><time>2026-04-06T09:43:25.6Z</time></trkpt><trkpt lat="44.381315" lon="9.2865817"><ele>54.0</ele><time>2026-04-06T09:43:26.6Z</time></trkpt><trkpt lat="44.3812033" lon="9.2866767"><ele>54.0</ele><time>2026-04-06T09:43:27.6Z</time></trkpt><trkpt lat="44.3810867" lon="9.2867667"><ele>54.0</ele><time>2026-04-06T09:43:28.598Z</time></trkpt><trkpt lat="44.3809717" lon="9.2868517"><ele>54.0</ele><time>2026-04-06T09:43:29.6Z</time></trkpt><trkpt lat="44.3808583" lon="9.2869333"><ele>54.0</ele><time>2026-04-06T09:43:30.598Z</time></trkpt><trkpt lat="44.380745" lon="9.2870133"><ele>54.0</ele><time>2026-04-06T09:43:31.599Z</time></trkpt><trkpt lat="44.38063" lon="9.2870917"><ele>54.0</ele><time>2026-04-06T09:43:32.599Z</time></trkpt><trkpt lat="44.3805133" lon="9.28717"><ele>53.5</ele><time>2026-04-06T09:43:33.598Z</time></trkpt><trkpt lat="44.3804" lon="9.28725"><ele>53.0</ele><time>2026-04-06T09:43:34.598Z</time></trkpt><trkpt lat="44.38029" lon="9.287335"><ele>52.5</ele><time>2026-04-06T09:43:35.598Z</time></trkpt><trkpt lat="44.3801833" lon="9.2874233"><ele>52.0</ele><time>2026-04-06T09:43:36.599Z</time></trkpt><trkpt lat="44.38008" lon="9.2875167"><ele>52.0</ele><time>2026-04-06T09:43:37.599Z</time></trkpt><trkpt lat="44.3799933" lon="9.287605"><ele>52.0</ele><time>2026-04-06T09:43:38.599Z</time></trkpt><trkpt lat="44.3799133" lon="9.2876867"><ele>52.0</ele><time>2026-04-06T09:43:39.597Z</time></trkpt><trkpt lat="44.3798367" lon="9.2877633"><ele>52.0</ele><time>2026-04-06T09:43:40.599Z</time></trkpt><trkpt lat="44.3797617" lon="9.287835"><ele>52.0</ele><time>2026-04-06T09:43:41.599Z</time></trkpt><trkpt lat="44.3796867" lon="9.2879117"><ele>51.666666666666664</ele><time>2026-04-06T09:43:42.597Z</time></trkpt><trkpt lat="44.379615" lon="9.287985"><ele>51.33333333333333</ele><time>2026-04-06T09:43:43.598Z</time></trkpt><trkpt lat="44.379555" lon="9.2880467"><ele>51.0</ele><time>2026-04-06T09:43:44.599Z</time></trkpt><trkpt lat="44.3794833" lon="9.2881217"><ele>50.66666666666667</ele><time>2026-04-06T09:44:16.598Z</time></trkpt><trkpt lat="44.3794283" lon="9.2881817"><ele>50.333333333333336</ele><time>2026-04-06T09:44:17.598Z</time></trkpt><trkpt lat="44.3793567" lon="9.2882567"><ele>50.0</ele><time>2026-04-06T09:44:18.597Z</time></trkpt><trkpt lat="44.37928" lon="9.288345"><ele>50.0</ele><time>2026-04-06T09:44:19.597Z</time></trkpt><trkpt lat="44.3791917" lon="9.28845"><ele>50.0</ele><time>2026-04-06T09:44:20.6Z</time></trkpt><trkpt lat="44.3791" lon="9.2885667"><ele>50.0</ele><time>2026-04-06T09:44:21.598Z</time></trkpt><trkpt lat="44.3790117" lon="9.28869"><ele>50.0</ele><time>2026-04-06T09:44:22.597Z</time></trkpt><trkpt lat="44.37892" lon="9.2888233"><ele>50.0</ele><time>2026-04-06T09:44:23.599Z</time></trkpt><trkpt lat="44.3788267" lon="9.2889617"><ele>50.0</ele><time>2026-04-06T09:44:24.599Z</time></trkpt><trkpt lat="44.378735" lon="9.2891067"><ele>50.0</ele><time>2026-04-06T09:44:25.6Z</time></trkpt><trkpt lat="44.3786367" lon="9.2892667"><ele>50.0</ele><time>2026-04-06T09:44:26.599Z</time></trkpt><trkpt lat="44.3785317" lon="9.289435"><ele>50.0</ele><time>2026-04-06T09:44:27.598Z</time></trkpt><trkpt lat="44.37843" lon="9.2896183"><ele>50.0</ele><time>2026-04-06T09:44:28.599Z</time></trkpt><trkpt lat="44.3783317" lon="9.2898167"><ele>50.0</ele><time>2026-04-06T09:44:29.598Z</time></trkpt><trkpt lat="44.3782417" lon="9.290025"><ele>49.0</ele><time>2026-04-06T09:44:30.599Z</time></trkpt><trkpt lat="44.378155" lon="9.2902417"><ele>48.0</ele><time>2026-04-06T09:44:31.599Z</time></trkpt><trkpt lat="44.3780683" lon="9.290455"><ele>47.0</ele><time>2026-04-06T09:44:32.6Z</time></trkpt><trkpt lat="44.3779817" lon="9.2906683"><ele>47.0</ele><time>2026-04-06T09:44:33.599Z</time></trkpt><trkpt lat="44.3778933" lon="9.290885"><ele>47.0</ele><time>2026-04-06T09:44:34.598Z</time></trkpt><trkpt lat="44.3778067" lon="9.291105"><ele>47.0</ele><time>2026-04-06T09:44:35.599Z</time></trkpt><trkpt lat="44.3777217" lon="9.2913267"><ele>50.666666666666664</ele><time>2026-04-06T09:44:36.598Z</time></trkpt><trkpt lat="44.3776383" lon="9.291545"><ele>54.33333333333333</ele><time>2026-04-06T09:44:37.599Z</time></trkpt><trkpt lat="44.377555" lon="9.2917617"><ele>58.0</ele><time>2026-04-06T09:44:38.599Z</time></trkpt><trkpt lat="44.3774717" lon="9.2919767"><ele>58.0</ele><time>2026-04-06T09:44:39.599Z</time></trkpt><trkpt lat="44.3773883" lon="9.2921933"><ele>58.0</ele><time>2026-04-06T09:44:40.6Z</time></trkpt><trkpt lat="44.377305" lon="9.2924133"><ele>58.0</ele><time>2026-04-06T09:44:41.599Z</time></trkpt><trkpt lat="44.3772233" lon="9.29263"><ele>56.666666666666664</ele><time>2026-04-06T09:44:42.598Z</time></trkpt><trkpt lat="44.3771383" lon="9.2928433"><ele>55.33333333333333</ele><time>2026-04-06T09:44:43.599Z</time></trkpt><trkpt lat="44.3770483" lon="9.293055"><ele>54.0</ele><time>2026-04-06T09:44:44.599Z</time></trkpt><trkpt lat="44.3769467" lon="9.29326"><ele>54.0</ele><time>2026-04-06T09:44:45.599Z</time></trkpt><trkpt lat="44.3768333" lon="9.2934583"><ele>54.0</ele><time>2026-04-06T09:44:46.599Z</time></trkpt><trkpt lat="44.3767167" lon="9.2936517"><ele>54.0</ele><time>2026-04-06T09:44:47.598Z</time></trkpt><trkpt lat="44.3766017" lon="9.2938467"><ele>57.0</ele><time>2026-04-06T09:44:48.598Z</time></trkpt><trkpt lat="44.376485" lon="9.2940383"><ele>60.0</ele><time>2026-04-06T09:44:49.597Z</time></trkpt><trkpt lat="44.3763733" lon="9.2942267"><ele>63.0</ele><time>2026-04-06T09:44:50.599Z</time></trkpt><trkpt lat="44.3762617" lon="9.2944167"><ele>57.666666666666664</ele><time>2026-04-06T09:44:51.598Z</time></trkpt><trkpt lat="44.3761467" lon="9.2946083"><ele>52.33333333333333</ele><time>2026-04-06T09:44:52.598Z</time></trkpt><trkpt lat="44.3760283" lon="9.2948033"><ele>47.0</ele><time>2026-04-06T09:44:53.599Z</time></trkpt><trkpt lat="44.3759033" lon="9.2950033"><ele>47.0</ele><time>2026-04-06T09:44:54.599Z</time></trkpt><trkpt lat="44.37578" lon="9.2952083"><ele>47.0</ele><time>2026-04-06T09:44:55.599Z</time></trkpt><trkpt lat="44.3756567" lon="9.2954183"><ele>47.0</ele><time>2026-04-06T09:44:56.599Z</time></trkpt><trkpt lat="44.37553" lon="9.295625"><ele>45.666666666666664</ele><time>2026-04-06T09:44:57.599Z</time></trkpt><trkpt lat="44.3754083" lon="9.2958267"><ele>44.333333333333336</ele><time>2026-04-06T09:44:58.598Z</time></trkpt><trkpt lat="44.3752883" lon="9.2960267"><ele>43.0</ele><time>2026-04-06T09:44:59.597Z</time></trkpt><trkpt lat="44.3751733" lon="9.2962233"><ele>44.66666666666667</ele><time>2026-04-06T09:45:00.597Z</time></trkpt><trkpt lat="44.3750617" lon="9.296425"><ele>46.333333333333336</ele><time>2026-04-06T09:45:01.6Z</time></trkpt><trkpt lat="44.374965" lon="9.29664"><ele>48.0</ele><time>2026-04-06T09:45:02.599Z</time></trkpt><trkpt lat="44.3748883" lon="9.296875"><ele>48.0</ele><time>2026-04-06T09:45:03.6Z</time></trkpt><trkpt lat="44.37482" lon="9.2971167"><ele>48.0</ele><time>2026-04-06T09:45:04.598Z</time></trkpt><trkpt lat="44.3747617" lon="9.2973683"><ele>48.0</ele><time>2026-04-06T09:45:05.599Z</time></trkpt><trkpt lat="44.3747033" lon="9.2976267"><ele>46.0</ele><time>2026-04-06T09:45:06.598Z</time></trkpt><trkpt lat="44.3746467" lon="9.2978933"><ele>44.0</ele><time>2026-04-06T09:45:07.598Z</time></trkpt><trkpt lat="44.3745883" lon="9.2981633"><ele>42.0</ele><time>2026-04-06T09:45:08.599Z</time></trkpt><trkpt lat="44.37453" lon="9.29843"><ele>42.0</ele><time>2026-04-06T09:45:09.598Z</time></trkpt><trkpt lat="44.374465" lon="9.2986883"><ele>42.0</ele><time>2026-04-06T09:45:10.598Z</time></trkpt><trkpt lat="44.3743983" lon="9.29894"><ele>42.0</ele><time>2026-04-06T09:45:11.598Z</time></trkpt><trkpt lat="44.3743283" lon="9.29918"><ele>43.0</ele><time>2026-04-06T09:45:12.599Z</time></trkpt><trkpt lat="44.3742617" lon="9.29941"><ele>44.0</ele><time>2026-04-06T09:45:13.598Z</time></trkpt><trkpt lat="44.3741967" lon="9.2996333"><ele>45.0</ele><time>2026-04-06T09:45:14.599Z</time></trkpt><trkpt lat="44.3741333" lon="9.2998617"><ele>46.0</ele><time>2026-04-06T09:45:15.599Z</time></trkpt><trkpt lat="44.3740667" lon="9.300095"><ele>47.0</ele><time>2026-04-06T09:45:16.599Z</time></trkpt><trkpt lat="44.3739967" lon="9.30033"><ele>48.0</ele><time>2026-04-06T09:45:17.598Z</time></trkpt><trkpt lat="44.37393" lon="9.3005733"><ele>46.0</ele><time>2026-04-06T09:45:18.598Z</time></trkpt><trkpt lat="44.373865" lon="9.3008167"><ele>44.0</ele><time>2026-04-06T09:45:19.599Z</time></trkpt><trkpt lat="44.3738" lon="9.30106"><ele>42.0</ele><time>2026-04-06T09:45:20.599Z</time></trkpt><trkpt lat="44.3737417" lon="9.3013067"><ele>42.333333333333336</ele><time>2026-04-06T09:45:21.598Z</time></trkpt><trkpt lat="44.3736867" lon="9.301555"><ele>42.66666666666667</ele><time>2026-04-06T09:45:22.599Z</time></trkpt><trkpt lat="44.3736383" lon="9.3018067"><ele>43.0</ele><time>2026-04-06T09:45:23.598Z</time></trkpt><trkpt lat="44.3735917" lon="9.30205"><ele>44.0</ele><time>2026-04-06T09:45:24.598Z</time></trkpt><trkpt lat="44.3735467" lon="9.3022833"><ele>45.0</ele><time>2026-04-06T09:45:25.597Z</time></trkpt><trkpt lat="44.3735033" lon="9.3024983"><ele>46.0</ele><time>2026-04-06T09:45:26.599Z</time></trkpt><trkpt lat="44.37346" lon="9.302705"><ele>46.0</ele><time>2026-04-06T09:45:27.598Z</time></trkpt><trkpt lat="44.3734033" lon="9.3029133"><ele>46.0</ele><time>2026-04-06T09:45:28.598Z</time></trkpt><trkpt lat="44.3733333" lon="9.30312"><ele>46.0</ele><time>2026-04-06T09:45:29.598Z</time></trkpt><trkpt lat="44.3732533" lon="9.3033133"><ele>44.333333333333336</ele><time>2026-04-06T09:45:30.598Z</time></trkpt><trkpt lat="44.3731567" lon="9.3034883"><ele>42.666666666666664</ele><time>2026-04-06T09:45:31.6Z</time></trkpt><trkpt lat="44.3730383" lon="9.3036483"><ele>41.0</ele><time>2026-04-06T09:45:32.598Z</time></trkpt><trkpt lat="44.3729" lon="9.3037917"><ele>44.0</ele><time>2026-04-06T09:45:33.598Z</time></trkpt><trkpt lat="44.3727483" lon="9.3039183"><ele>47.0</ele><time>2026-04-06T09:45:34.598Z</time></trkpt><trkpt lat="44.37259" lon="9.30403"><ele>50.0</ele><time>2026-04-06T09:45:35.599Z</time></trkpt><trkpt lat="44.3724283" lon="9.3041383"><ele>50.0</ele><time>2026-04-06T09:45:36.599Z</time></trkpt><trkpt lat="44.3722717" lon="9.3042483"><ele>50.0</ele><time>2026-04-06T09:45:37.599Z</time></trkpt><trkpt lat="44.3721217" lon="9.30435"><ele>50.0</ele><time>2026-04-06T09:45:38.598Z</time></trkpt><trkpt lat="44.3719783" lon="9.3044467"><ele>47.66666666666667</ele><time>2026-04-06T09:45:39.599Z</time></trkpt><trkpt lat="44.3718367" lon="9.3045417"><ele>45.333333333333336</ele><time>2026-04-06T09:45:40.598Z</time></trkpt><trkpt lat="44.3716933" lon="9.304645"><ele>43.0</ele><time>2026-04-06T09:45:41.597Z</time></trkpt><trkpt lat="44.3715517" lon="9.30477"><ele>41.66666666666667</ele><time>2026-04-06T09:45:42.599Z</time></trkpt><trkpt lat="44.3714133" lon="9.304915"><ele>40.333333333333336</ele><time>2026-04-06T09:45:43.599Z</time></trkpt><trkpt lat="44.37128" lon="9.3050817"><ele>39.0</ele><time>2026-04-06T09:45:44.598Z</time></trkpt><trkpt lat="44.3711467" lon="9.30526"><ele>39.0</ele><time>2026-04-06T09:45:45.599Z</time></trkpt><trkpt lat="44.37101" lon="9.3054483"><ele>39.0</ele><time>2026-04-06T09:45:46.598Z</time></trkpt><trkpt lat="44.3708767" lon="9.3056417"><ele>39.0</ele><time>2026-04-06T09:45:47.598Z</time></trkpt><trkpt lat="44.3707517" lon="9.3058433"><ele>39.0</ele><time>2026-04-06T09:45:48.6Z</time></trkpt><trkpt lat="44.3706467" lon="9.3060517"><ele>39.0</ele><time>2026-04-06T09:45:49.598Z</time></trkpt><trkpt lat="44.370565" lon="9.3062667"><ele>39.0</ele><time>2026-04-06T09:45:50.599Z</time></trkpt><trkpt lat="44.3705033" lon="9.3064933"><ele>39.0</ele><time>2026-04-06T09:45:51.598Z</time></trkpt><trkpt lat="44.37047" lon="9.30674"><ele>39.0</ele><time>2026-04-06T09:45:52.598Z</time></trkpt><trkpt lat="44.370465" lon="9.307"><ele>39.0</ele><time>2026-04-06T09:45:53.598Z</time></trkpt><trkpt lat="44.370485" lon="9.3072517"><ele>45.33333333333333</ele><time>2026-04-06T09:45:54.599Z</time></trkpt><trkpt lat="44.37053" lon="9.3074983"><ele>51.666666666666664</ele><time>2026-04-06T09:45:55.6Z</time></trkpt><trkpt lat="44.3706033" lon="9.3077417"><ele>58.0</ele><time>2026-04-06T09:45:56.598Z</time></trkpt><trkpt lat="44.3706967" lon="9.3079733"><ele>54.0</ele><time>2026-04-06T09:45:57.599Z</time></trkpt><trkpt lat="44.3707883" lon="9.3081917"><ele>50.0</ele><time>2026-04-06T09:45:58.598Z</time></trkpt><trkpt lat="44.3708783" lon="9.3084083"><ele>46.0</ele><time>2026-04-06T09:45:59.599Z</time></trkpt><trkpt lat="44.3709717" lon="9.30863"><ele>46.0</ele><time>2026-04-06T09:46:00.598Z</time></trkpt><trkpt lat="44.3710633" lon="9.3088433"><ele>46.0</ele><time>2026-04-06T09:46:01.597Z</time></trkpt><trkpt lat="44.37115" lon="9.309045"><ele>46.0</ele><time>2026-04-06T09:46:02.6Z</time></trkpt><trkpt lat="44.3712333" lon="9.309245"><ele>48.0</ele><time>2026-04-06T09:46:03.599Z</time></trkpt><trkpt lat="44.3713183" lon="9.3094417"><ele>50.0</ele><time>2026-04-06T09:46:04.599Z</time></trkpt><trkpt lat="44.3714033" lon="9.3096433"><ele>52.0</ele><time>2026-04-06T09:46:05.599Z</time></trkpt><trkpt lat="44.3714867" lon="9.309845"><ele>52.0</ele><time>2026-04-06T09:46:06.599Z</time></trkpt><trkpt lat="44.3715667" lon="9.31004"><ele>52.0</ele><time>2026-04-06T09:46:07.599Z</time></trkpt><trkpt lat="44.3716383" lon="9.3102267"><ele>52.0</ele><time>2026-04-06T09:46:08.599Z</time></trkpt><trkpt lat="44.3717017" lon="9.3104067"><ele>50.0</ele><time>2026-04-06T09:46:09.599Z</time></trkpt><trkpt lat="44.37175" lon="9.3105833"><ele>48.0</ele><time>2026-04-06T09:46:10.598Z</time></trkpt><trkpt lat="44.3717767" lon="9.3107583"><ele>46.0</ele><time>2026-04-06T09:46:11.599Z</time></trkpt><trkpt lat="44.3717833" lon="9.3109367"><ele>44.0</ele><time>2026-04-06T09:46:12.6Z</time></trkpt><trkpt lat="44.371775" lon="9.31112"><ele>44.0</ele><time>2026-04-06T09:46:13.599Z</time></trkpt><trkpt lat="44.3717633" lon="9.3113083"><ele>44.0</ele><time>2026-04-06T09:46:14.599Z</time></trkpt><trkpt lat="44.371745" lon="9.3114983"><ele>44.0</ele><time>2026-04-06T09:46:15.598Z</time></trkpt><trkpt lat="44.3717267" lon="9.3116767"><ele>44.0</ele><time>2026-04-06T09:46:16.599Z</time></trkpt><trkpt lat="44.371705" lon="9.3118433"><ele>44.0</ele><time>2026-04-06T09:46:17.6Z</time></trkpt><trkpt lat="44.3716883" lon="9.3119967"><ele>44.0</ele><time>2026-04-06T09:46:18.598Z</time></trkpt><trkpt lat="44.3716733" lon="9.3121483"><ele>44.0</ele><time>2026-04-06T09:46:19.599Z</time></trkpt><trkpt lat="44.3716583" lon="9.3123017"><ele>44.0</ele><time>2026-04-06T09:46:20.599Z</time></trkpt><trkpt lat="44.371645" lon="9.31245"><ele>44.0</ele><time>2026-04-06T09:46:21.598Z</time></trkpt><trkpt lat="44.3716317" lon="9.3126033"><ele>44.0</ele><time>2026-04-06T09:46:22.598Z</time></trkpt><trkpt lat="44.37162" lon="9.31276"><ele>44.0</ele><time>2026-04-06T09:46:23.598Z</time></trkpt><trkpt lat="44.3716067" lon="9.3129167"><ele>44.0</ele><time>2026-04-06T09:46:24.6Z</time></trkpt><trkpt lat="44.3715917" lon="9.3130733"><ele>44.0</ele><time>2026-04-06T09:46:25.598Z</time></trkpt><trkpt lat="44.3715767" lon="9.31323"><ele>44.5</ele><time>2026-04-06T09:46:26.599Z</time></trkpt><trkpt lat="44.3715617" lon="9.3133917"><ele>45.0</ele><time>2026-04-06T09:46:27.599Z</time></trkpt><trkpt lat="44.3715417" lon="9.3135617"><ele>45.5</ele><time>2026-04-06T09:46:28.597Z</time></trkpt><trkpt lat="44.3715167" lon="9.313735"><ele>46.0</ele><time>2026-04-06T09:46:29.598Z</time></trkpt><trkpt lat="44.371485" lon="9.31391"><ele>45.75</ele><time>2026-04-06T09:46:30.602Z</time></trkpt><trkpt lat="44.3714417" lon="9.3140867"><ele>45.5</ele><time>2026-04-06T09:46:31.598Z</time></trkpt><trkpt lat="44.3713817" lon="9.3142667"><ele>45.25</ele><time>2026-04-06T09:46:32.599Z</time></trkpt><trkpt lat="44.3713033" lon="9.3144533"><ele>45.0</ele><time>2026-04-06T09:46:33.598Z</time></trkpt><trkpt lat="44.3712017" lon="9.3146383"><ele>47.33333333333333</ele><time>2026-04-06T09:46:34.6Z</time></trkpt><trkpt lat="44.371085" lon="9.314815"><ele>49.666666666666664</ele><time>2026-04-06T09:46:35.598Z</time></trkpt><trkpt lat="44.3709483" lon="9.3149833"><ele>52.0</ele><time>2026-04-06T09:46:36.599Z</time></trkpt><trkpt lat="44.3708" lon="9.3151433"><ele>52.0</ele><time>2026-04-06T09:46:37.598Z</time></trkpt><trkpt lat="44.3706483" lon="9.3152967"><ele>52.0</ele><time>2026-04-06T09:46:38.599Z</time></trkpt><trkpt lat="44.3704983" lon="9.31545"><ele>52.0</ele><time>2026-04-06T09:46:39.597Z</time></trkpt><trkpt lat="44.370355" lon="9.315595"><ele>49.33333333333333</ele><time>2026-04-06T09:46:40.598Z</time></trkpt><trkpt lat="44.3702133" lon="9.3157383"><ele>46.666666666666664</ele><time>2026-04-06T09:46:41.597Z</time></trkpt><trkpt lat="44.370075" lon="9.3158717"><ele>44.0</ele><time>2026-04-06T09:46:42.598Z</time></trkpt><trkpt lat="44.36994" lon="9.3159933"><ele>44.0</ele><time>2026-04-06T09:46:43.6Z</time></trkpt><trkpt lat="44.3698033" lon="9.3160967"><ele>44.0</ele><time>2026-04-06T09:46:44.599Z</time></trkpt><trkpt lat="44.3696517" lon="9.3161783"><ele>44.0</ele><time>2026-04-06T09:46:45.599Z</time></trkpt><trkpt lat="44.3694983" lon="9.3162367"><ele>41.666666666666664</ele><time>2026-04-06T09:46:46.597Z</time></trkpt><trkpt lat="44.3693383" lon="9.31628"><ele>39.333333333333336</ele><time>2026-04-06T09:46:47.599Z</time></trkpt><trkpt lat="44.3691833" lon="9.316325"><ele>37.0</ele><time>2026-04-06T09:46:48.599Z</time></trkpt><trkpt lat="44.3690283" lon="9.3163817"><ele>37.66666666666667</ele><time>2026-04-06T09:46:49.6Z</time></trkpt><trkpt lat="44.3688767" lon="9.3164517"><ele>38.333333333333336</ele><time>2026-04-06T09:46:50.6Z</time></trkpt><trkpt lat="44.368735" lon="9.316545"><ele>39.0</ele><time>2026-04-06T09:46:51.6Z</time></trkpt><trkpt lat="44.3686033" lon="9.3166617"><ele>39.0</ele><time>2026-04-06T09:46:52.598Z</time></trkpt><trkpt lat="44.3684767" lon="9.3168067"><ele>39.0</ele><time>2026-04-06T09:46:53.6Z</time></trkpt><trkpt lat="44.3683517" lon="9.3169617"><ele>39.0</ele><time>2026-04-06T09:46:54.598Z</time></trkpt><trkpt lat="44.3682283" lon="9.3171217"><ele>38.333333333333336</ele><time>2026-04-06T09:46:55.598Z</time></trkpt><trkpt lat="44.3681067" lon="9.3172817"><ele>37.66666666666667</ele><time>2026-04-06T09:46:56.599Z</time></trkpt><trkpt lat="44.3679817" lon="9.3174417"><ele>37.0</ele><time>2026-04-06T09:46:57.602Z</time></trkpt><trkpt lat="44.36785" lon="9.3176"><ele>37.0</ele><time>2026-04-06T09:46:58.598Z</time></trkpt><trkpt lat="44.36771" lon="9.3177417"><ele>37.0</ele><time>2026-04-06T09:46:59.599Z</time></trkpt><trkpt lat="44.3675583" lon="9.3178633"><ele>37.0</ele><time>2026-04-06T09:47:00.598Z</time></trkpt><trkpt lat="44.367395" lon="9.3179683"><ele>37.0</ele><time>2026-04-06T09:47:01.599Z</time></trkpt><trkpt lat="44.3672167" lon="9.318065"><ele>37.0</ele><time>2026-04-06T09:47:02.599Z</time></trkpt><trkpt lat="44.3670333" lon="9.3181617"><ele>37.0</ele><time>2026-04-06T09:47:03.599Z</time></trkpt><trkpt lat="44.3668517" lon="9.3182633"><ele>36.333333333333336</ele><time>2026-04-06T09:47:04.599Z</time></trkpt><trkpt lat="44.366675" lon="9.3183767"><ele>35.666666666666664</ele><time>2026-04-06T09:47:05.597Z</time></trkpt><trkpt lat="44.3665" lon="9.3185033"><ele>35.0</ele><time>2026-04-06T09:47:06.597Z</time></trkpt><trkpt lat="44.3663267" lon="9.318645"><ele>35.0</ele><time>2026-04-06T09:47:07.599Z</time></trkpt><trkpt lat="44.3661567" lon="9.3187867"><ele>35.0</ele><time>2026-04-06T09:47:08.598Z</time></trkpt><trkpt lat="44.3659867" lon="9.3189333"><ele>35.0</ele><time>2026-04-06T09:47:09.598Z</time></trkpt><trkpt lat="44.3658183" lon="9.3190867"><ele>35.33333333333333</ele><time>2026-04-06T09:47:10.598Z</time></trkpt><trkpt lat="44.3656583" lon="9.3192467"><ele>35.666666666666664</ele><time>2026-04-06T09:47:11.598Z</time></trkpt><trkpt lat="44.3655133" lon="9.3194083"><ele>36.0</ele><time>2026-04-06T09:47:12.598Z</time></trkpt><trkpt lat="44.36538" lon="9.3195667"><ele>36.0</ele><time>2026-04-06T09:47:13.597Z</time></trkpt><trkpt lat="44.3652633" lon="9.31973"><ele>36.0</ele><time>2026-04-06T09:47:14.598Z</time></trkpt><trkpt lat="44.3651667" lon="9.3199083"><ele>36.0</ele><time>2026-04-06T09:47:15.598Z</time></trkpt><trkpt lat="44.3650883" lon="9.3201067"><ele>37.333333333333336</ele><time>2026-04-06T09:47:16.598Z</time></trkpt><trkpt lat="44.3650317" lon="9.3203267"><ele>38.66666666666667</ele><time>2026-04-06T09:47:17.599Z</time></trkpt><trkpt lat="44.3649967" lon="9.3205583"><ele>40.0</ele><time>2026-04-06T09:47:18.599Z</time></trkpt><trkpt lat="44.3649783" lon="9.3207917"><ele>41.0</ele><time>2026-04-06T09:47:19.6Z</time></trkpt><trkpt lat="44.3649683" lon="9.3210267"><ele>42.0</ele><time>2026-04-06T09:47:20.6Z</time></trkpt><trkpt lat="44.3649583" lon="9.3212533"><ele>43.0</ele><time>2026-04-06T09:47:21.598Z</time></trkpt><trkpt lat="44.3649483" lon="9.3214683"><ele>43.25</ele><time>2026-04-06T09:47:22.599Z</time></trkpt><trkpt lat="44.3649417" lon="9.3216717"><ele>43.5</ele><time>2026-04-06T09:47:23.598Z</time></trkpt><trkpt lat="44.364935" lon="9.3218633"><ele>43.75</ele><time>2026-04-06T09:47:24.599Z</time></trkpt><trkpt lat="44.3649267" lon="9.3220467"><ele>44.0</ele><time>2026-04-06T09:47:25.6Z</time></trkpt><trkpt lat="44.3649183" lon="9.322235"><ele>44.0</ele><time>2026-04-06T09:47:26.599Z</time></trkpt><trkpt lat="44.36491" lon="9.3224333"><ele>44.0</ele><time>2026-04-06T09:47:27.598Z</time></trkpt><trkpt lat="44.36491" lon="9.322635"><ele>44.0</ele><time>2026-04-06T09:47:28.599Z</time></trkpt><trkpt lat="44.3649233" lon="9.3228383"><ele>44.0</ele><time>2026-04-06T09:47:29.6Z</time></trkpt><trkpt lat="44.36495" lon="9.3230367"><ele>44.75</ele><time>2026-04-06T09:47:30.599Z</time></trkpt><trkpt lat="44.36498" lon="9.32323"><ele>45.5</ele><time>2026-04-06T09:47:31.6Z</time></trkpt><trkpt lat="44.3650133" lon="9.3234117"><ele>46.25</ele><time>2026-04-06T09:47:32.599Z</time></trkpt><trkpt lat="44.3650467" lon="9.3235833"><ele>47.0</ele><time>2026-04-06T09:47:33.601Z</time></trkpt><trkpt lat="44.36508" lon="9.3237517"><ele>45.25</ele><time>2026-04-06T09:47:34.598Z</time></trkpt><trkpt lat="44.3651167" lon="9.32392"><ele>43.5</ele><time>2026-04-06T09:47:35.599Z</time></trkpt><trkpt lat="44.36516" lon="9.32409"><ele>41.75</ele><time>2026-04-06T09:47:36.599Z</time></trkpt><trkpt lat="44.3652133" lon="9.324255"><ele>40.0</ele><time>2026-04-06T09:47:37.598Z</time></trkpt><trkpt lat="44.3652717" lon="9.3244117"><ele>40.0</ele><time>2026-04-06T09:47:38.599Z</time></trkpt><trkpt lat="44.3653267" lon="9.324565"><ele>40.0</ele><time>2026-04-06T09:47:39.598Z</time></trkpt><trkpt lat="44.3653712" lon="9.3247112"><ele>40.0</ele><time>2026-04-06T09:47:40.599Z</time></trkpt><trkpt lat="44.3653964" lon="9.3248622"><ele>40.0</ele><time>2026-04-06T09:47:41.599Z</time></trkpt><trkpt lat="44.3654068" lon="9.3250213"><ele>38.75</ele><time>2026-04-06T09:47:42.6Z</time></trkpt><trkpt lat="44.365402" lon="9.3251809"><ele>37.5</ele><time>2026-04-06T09:47:43.598Z</time></trkpt><trkpt lat="44.3653888" lon="9.3253387"><ele>36.25</ele><time>2026-04-06T09:47:44.598Z</time></trkpt><trkpt lat="44.3653759" lon="9.3254958"><ele>35.0</ele><time>2026-04-06T09:47:45.598Z</time></trkpt><trkpt lat="44.3653679" lon="9.3256575"><ele>35.0</ele><time>2026-04-06T09:47:46.599Z</time></trkpt><trkpt lat="44.3653753" lon="9.325821"><ele>35.0</ele><time>2026-04-06T09:47:47.599Z</time></trkpt><trkpt lat="44.3654062" lon="9.3259803"><ele>35.0</ele><time>2026-04-06T09:47:48.599Z</time></trkpt><trkpt lat="44.3654589" lon="9.3261352"><ele>35.0</ele><time>2026-04-06T09:47:49.599Z</time></trkpt><trkpt lat="44.3655209" lon="9.3262838"><ele>37.2</ele><time>2026-04-06T09:47:50.599Z</time></trkpt><trkpt lat="44.3655865" lon="9.3264232"><ele>39.4</ele><time>2026-04-06T09:47:51.599Z</time></trkpt><trkpt lat="44.3656461" lon="9.3265522"><ele>41.599999999999994</ele><time>2026-04-06T09:47:52.599Z</time></trkpt><trkpt lat="44.3656991" lon="9.326675"><ele>43.8</ele><time>2026-04-06T09:47:53.6Z</time></trkpt><trkpt lat="44.3657537" lon="9.3267925"><ele>46.0</ele><time>2026-04-06T09:47:54.6Z</time></trkpt><trkpt lat="44.3658142" lon="9.3269049"><ele>46.0</ele><time>2026-04-06T09:47:55.599Z</time></trkpt><trkpt lat="44.3658823" lon="9.3270056"><ele>46.0</ele><time>2026-04-06T09:47:56.6Z</time></trkpt><trkpt lat="44.3659589" lon="9.3270979"><ele>46.0</ele><time>2026-04-06T09:47:57.597Z</time></trkpt><trkpt lat="44.3660384" lon="9.3271834"><ele>46.0</ele><time>2026-04-06T09:47:58.598Z</time></trkpt><trkpt lat="44.3661124" lon="9.3272607"><ele>46.0</ele><time>2026-04-06T09:47:59.601Z</time></trkpt><trkpt lat="44.3661821" lon="9.3273329"><ele>46.599999999999994</ele><time>2026-04-06T09:48:00.599Z</time></trkpt><trkpt lat="44.3662435" lon="9.3274091"><ele>47.2</ele><time>2026-04-06T09:48:01.599Z</time></trkpt><trkpt lat="44.3662943" lon="9.3274981"><ele>47.8</ele><time>2026-04-06T09:48:02.599Z</time></trkpt><trkpt lat="44.3663341" lon="9.3276093"><ele>48.400000000000006</ele><time>2026-04-06T09:48:03.599Z</time></trkpt><trkpt lat="44.3663604" lon="9.3277428"><ele>49.0</ele><time>2026-04-06T09:48:04.597Z</time></trkpt><trkpt lat="44.3663847" lon="9.3278844"><ele>49.0</ele><time>2026-04-06T09:48:05.601Z</time></trkpt><trkpt lat="44.3664115" lon="9.3280229"><ele>49.0</ele><time>2026-04-06T09:48:06.597Z</time></trkpt><trkpt lat="44.366438" lon="9.3281542"><ele>49.0</ele><time>2026-04-06T09:48:07.597Z</time></trkpt><trkpt lat="44.3664644" lon="9.3282765"><ele>49.0</ele><time>2026-04-06T09:48:08.6Z</time></trkpt><trkpt lat="44.3664891" lon="9.3283982"><ele>49.0</ele><time>2026-04-06T09:48:09.598Z</time></trkpt><trkpt lat="44.3665126" lon="9.328523"><ele>47.400000000000006</ele><time>2026-04-06T09:48:10.599Z</time></trkpt><trkpt lat="44.3665344" lon="9.3286494"><ele>45.8</ele><time>2026-04-06T09:48:11.599Z</time></trkpt><trkpt lat="44.3665547" lon="9.328779"><ele>44.2</ele><time>2026-04-06T09:48:12.599Z</time></trkpt><trkpt lat="44.3665725" lon="9.3289109"><ele>42.599999999999994</ele><time>2026-04-06T09:48:13.597Z</time></trkpt><trkpt lat="44.3665872" lon="9.3290553"><ele>41.0</ele><time>2026-04-06T09:48:14.599Z</time></trkpt><trkpt lat="44.3665978" lon="9.329211"><ele>40.75</ele><time>2026-04-06T09:48:15.598Z</time></trkpt><trkpt lat="44.3666018" lon="9.3293739"><ele>40.5</ele><time>2026-04-06T09:48:16.6Z</time></trkpt><trkpt lat="44.3666013" lon="9.3295443"><ele>40.25</ele><time>2026-04-06T09:48:17.599Z</time></trkpt><trkpt lat="44.3665999" lon="9.3297179"><ele>40.0</ele><time>2026-04-06T09:48:18.599Z</time></trkpt><trkpt lat="44.3665986" lon="9.3298941"><ele>38.75</ele><time>2026-04-06T09:48:19.599Z</time></trkpt><trkpt lat="44.3665931" lon="9.3300657"><ele>37.5</ele><time>2026-04-06T09:48:20.599Z</time></trkpt><trkpt lat="44.3665815" lon="9.3302359"><ele>36.25</ele><time>2026-04-06T09:48:21.598Z</time></trkpt><trkpt lat="44.3665695" lon="9.3303985"><ele>35.0</ele><time>2026-04-06T09:48:22.599Z</time></trkpt><trkpt lat="44.3665604" lon="9.3305572"><ele>35.75</ele><time>2026-04-06T09:48:23.599Z</time></trkpt><trkpt lat="44.366548" lon="9.3307126"><ele>36.5</ele><time>2026-04-06T09:48:24.599Z</time></trkpt><trkpt lat="44.3665249" lon="9.3308657"><ele>37.25</ele><time>2026-04-06T09:48:25.599Z</time></trkpt><trkpt lat="44.3664879" lon="9.3310212"><ele>38.0</ele><time>2026-04-06T09:48:26.599Z</time></trkpt><trkpt lat="44.3664392" lon="9.3311852"><ele>38.0</ele><time>2026-04-06T09:48:27.598Z</time></trkpt><trkpt lat="44.3663834" lon="9.3313649"><ele>38.0</ele><time>2026-04-06T09:48:28.599Z</time></trkpt><trkpt lat="44.3663244" lon="9.3315558"><ele>38.0</ele><time>2026-04-06T09:48:29.598Z</time></trkpt><trkpt lat="44.3662644" lon="9.3317559"><ele>38.0</ele><time>2026-04-06T09:48:30.597Z</time></trkpt><trkpt lat="44.3661998" lon="9.3319607"><ele>36.666666666666664</ele><time>2026-04-06T09:48:31.599Z</time></trkpt><trkpt lat="44.3661344" lon="9.3321696"><ele>35.333333333333336</ele><time>2026-04-06T09:48:32.599Z</time></trkpt><trkpt lat="44.3660688" lon="9.3323858"><ele>34.0</ele><time>2026-04-06T09:48:33.599Z</time></trkpt><trkpt lat="44.3660093" lon="9.3326069"><ele>34.0</ele><time>2026-04-06T09:48:34.598Z</time></trkpt><trkpt lat="44.3659586" lon="9.3328178"><ele>34.0</ele><time>2026-04-06T09:48:35.599Z</time></trkpt><trkpt lat="44.3659134" lon="9.3330113"><ele>34.0</ele><time>2026-04-06T09:48:36.598Z</time></trkpt><trkpt lat="44.3658658" lon="9.3331885"><ele>34.0</ele><time>2026-04-06T09:48:37.599Z</time></trkpt><trkpt lat="44.3658079" lon="9.3333483"><ele>33.25</ele><time>2026-04-06T09:48:38.6Z</time></trkpt><trkpt lat="44.365733" lon="9.3334997"><ele>32.5</ele><time>2026-04-06T09:48:39.6Z</time></trkpt><trkpt lat="44.3656392" lon="9.3336351"><ele>31.75</ele><time>2026-04-06T09:48:40.598Z</time></trkpt><trkpt lat="44.3655292" lon="9.3337481"><ele>31.0</ele><time>2026-04-06T09:48:41.599Z</time></trkpt><trkpt lat="44.3654078" lon="9.3338474"><ele>35.0</ele><time>2026-04-06T09:48:42.599Z</time></trkpt><trkpt lat="44.3652825" lon="9.3339506"><ele>39.0</ele><time>2026-04-06T09:48:43.598Z</time></trkpt><trkpt lat="44.3651591" lon="9.3340601"><ele>43.0</ele><time>2026-04-06T09:48:44.599Z</time></trkpt><trkpt lat="44.3650398" lon="9.3341639"><ele>47.0</ele><time>2026-04-06T09:48:45.599Z</time></trkpt><trkpt lat="44.3649234" lon="9.3342544"><ele>47.0</ele><time>2026-04-06T09:48:46.598Z</time></trkpt><trkpt lat="44.3648055" lon="9.3343274"><ele>47.0</ele><time>2026-04-06T09:48:47.6Z</time></trkpt><trkpt lat="44.3646884" lon="9.3343832"><ele>47.0</ele><time>2026-04-06T09:48:48.599Z</time></trkpt><trkpt lat="44.3645727" lon="9.334427"><ele>47.0</ele><time>2026-04-06T09:48:49.599Z</time></trkpt><trkpt lat="44.3644595" lon="9.3344676"><ele>43.25</ele><time>2026-04-06T09:48:50.599Z</time></trkpt><trkpt lat="44.364352" lon="9.3345075"><ele>39.5</ele><time>2026-04-06T09:48:51.598Z</time></trkpt><trkpt lat="44.3642457" lon="9.3345493"><ele>35.75</ele><time>2026-04-06T09:48:52.601Z</time></trkpt><trkpt lat="44.3641333" lon="9.3345905"><ele>32.0</ele><time>2026-04-06T09:48:53.601Z</time></trkpt><trkpt lat="44.364017" lon="9.3346346"><ele>32.0</ele><time>2026-04-06T09:48:54.6Z</time></trkpt><trkpt lat="44.3638959" lon="9.3346811"><ele>32.0</ele><time>2026-04-06T09:48:55.599Z</time></trkpt><trkpt lat="44.3637681" lon="9.3347359"><ele>32.0</ele><time>2026-04-06T09:48:56.604Z</time></trkpt><trkpt lat="44.3636382" lon="9.3347932"><ele>32.0</ele><time>2026-04-06T09:48:57.598Z</time></trkpt><trkpt lat="44.3635028" lon="9.3348537"><ele>33.666666666666664</ele><time>2026-04-06T09:48:58.599Z</time></trkpt><trkpt lat="44.3633621" lon="9.3349169"><ele>35.333333333333336</ele><time>2026-04-06T09:48:59.599Z</time></trkpt><trkpt lat="44.3632162" lon="9.3349817"><ele>37.0</ele><time>2026-04-06T09:49:00.599Z</time></trkpt><trkpt lat="44.3630574" lon="9.3350528"><ele>36.0</ele><time>2026-04-06T09:49:01.598Z</time></trkpt><trkpt lat="44.362892" lon="9.3351277"><ele>35.0</ele><time>2026-04-06T09:49:02.599Z</time></trkpt><trkpt lat="44.3627203" lon="9.3352119"><ele>34.0</ele><time>2026-04-06T09:49:03.598Z</time></trkpt><trkpt lat="44.3625449" lon="9.3353092"><ele>34.0</ele><time>2026-04-06T09:49:04.598Z</time></trkpt><trkpt lat="44.3623706" lon="9.3354114"><ele>34.0</ele><time>2026-04-06T09:49:05.598Z</time></trkpt><trkpt lat="44.3622069" lon="9.3355102"><ele>34.0</ele><time>2026-04-06T09:49:06.597Z</time></trkpt><trkpt lat="44.3620524" lon="9.3356068"><ele>35.66666666666667</ele><time>2026-04-06T09:49:07.598Z</time></trkpt><trkpt lat="44.3619083" lon="9.3356986"><ele>37.333333333333336</ele><time>2026-04-06T09:49:08.598Z</time></trkpt><trkpt lat="44.3617731" lon="9.3357947"><ele>39.0</ele><time>2026-04-06T09:49:09.598Z</time></trkpt><trkpt lat="44.361652" lon="9.3359191"><ele>39.0</ele><time>2026-04-06T09:49:10.599Z</time></trkpt><trkpt lat="44.3615495" lon="9.3360856"><ele>39.0</ele><time>2026-04-06T09:49:11.598Z</time></trkpt><trkpt lat="44.3614659" lon="9.3362838"><ele>39.0</ele><time>2026-04-06T09:49:12.597Z</time></trkpt><trkpt lat="44.3613977" lon="9.3364843"><ele>40.75</ele><time>2026-04-06T09:49:13.598Z</time></trkpt><trkpt lat="44.3613503" lon="9.3366789"><ele>42.5</ele><time>2026-04-06T09:49:14.598Z</time></trkpt><trkpt lat="44.3613355" lon="9.3368738"><ele>44.25</ele><time>2026-04-06T09:49:15.597Z</time></trkpt><trkpt lat="44.3613579" lon="9.3370743"><ele>46.0</ele><time>2026-04-06T09:49:16.599Z</time></trkpt><trkpt lat="44.3614166" lon="9.3372689"><ele>46.0</ele><time>2026-04-06T09:49:17.599Z</time></trkpt><trkpt lat="44.3614853" lon="9.3374491"><ele>46.0</ele><time>2026-04-06T09:49:18.6Z</time></trkpt><trkpt lat="44.3615578" lon="9.3376097"><ele>46.0</ele><time>2026-04-06T09:49:19.601Z</time></trkpt><trkpt lat="44.3616252" lon="9.3377608"><ele>46.0</ele><time>2026-04-06T09:49:20.601Z</time></trkpt><trkpt lat="44.3616854" lon="9.3379008"><ele>46.0</ele><time>2026-04-06T09:49:21.599Z</time></trkpt><trkpt lat="44.3617423" lon="9.338034"><ele>46.0</ele><time>2026-04-06T09:49:22.601Z</time></trkpt><trkpt lat="44.3617985" lon="9.3381667"><ele>46.0</ele><time>2026-04-06T09:49:23.601Z</time></trkpt><trkpt lat="44.3618565" lon="9.3383025"><ele>46.0</ele><time>2026-04-06T09:49:24.601Z</time></trkpt><trkpt lat="44.3619176" lon="9.3384389"><ele>46.0</ele><time>2026-04-06T09:49:25.599Z</time></trkpt><trkpt lat="44.3619782" lon="9.3385716"><ele>46.199999999999996</ele><time>2026-04-06T09:49:26.599Z</time></trkpt><trkpt lat="44.3620338" lon="9.3386997"><ele>46.4</ele><time>2026-04-06T09:49:27.598Z</time></trkpt><trkpt lat="44.3620899" lon="9.3388276"><ele>46.6</ele><time>2026-04-06T09:49:28.599Z</time></trkpt><trkpt lat="44.3621466" lon="9.3389585"><ele>46.8</ele><time>2026-04-06T09:49:29.599Z</time></trkpt><trkpt lat="44.3622046" lon="9.3390889"><ele>47.0</ele><time>2026-04-06T09:49:30.598Z</time></trkpt><trkpt lat="44.36226" lon="9.3392174"><ele>47.0</ele><time>2026-04-06T09:49:31.598Z</time></trkpt><trkpt lat="44.362316" lon="9.3393456"><ele>47.0</ele><time>2026-04-06T09:49:32.599Z</time></trkpt><trkpt lat="44.3623715" lon="9.3394791"><ele>47.0</ele><time>2026-04-06T09:49:33.599Z</time></trkpt><trkpt lat="44.3624228" lon="9.3396145"><ele>47.0</ele><time>2026-04-06T09:49:34.599Z</time></trkpt><trkpt lat="44.3624686" lon="9.3397507"><ele>47.0</ele><time>2026-04-06T09:49:35.599Z</time></trkpt><trkpt lat="44.3625039" lon="9.3398905"><ele>46.400000000000006</ele><time>2026-04-06T09:49:36.598Z</time></trkpt><trkpt lat="44.362514" lon="9.3400366"><ele>45.800000000000004</ele><time>2026-04-06T09:49:37.597Z</time></trkpt><trkpt lat="44.3624978" lon="9.3401851"><ele>45.2</ele><time>2026-04-06T09:49:38.599Z</time></trkpt><trkpt lat="44.3624545" lon="9.3403311"><ele>44.6</ele><time>2026-04-06T09:49:39.598Z</time></trkpt><trkpt lat="44.3623857" lon="9.3404679"><ele>44.0</ele><time>2026-04-06T09:49:40.599Z</time></trkpt><trkpt lat="44.3622983" lon="9.3405944"><ele>44.0</ele><time>2026-04-06T09:49:41.597Z</time></trkpt><trkpt lat="44.3621997" lon="9.3407162"><ele>44.0</ele><time>2026-04-06T09:49:42.598Z</time></trkpt><trkpt lat="44.3621039" lon="9.3408371"><ele>44.0</ele><time>2026-04-06T09:49:43.599Z</time></trkpt><trkpt lat="44.3620163" lon="9.340961"><ele>44.0</ele><time>2026-04-06T09:49:44.599Z</time></trkpt><trkpt lat="44.3619449" lon="9.3410939"><ele>41.800000000000004</ele><time>2026-04-06T09:49:45.599Z</time></trkpt><trkpt lat="44.3619008" lon="9.341233"><ele>39.6</ele><time>2026-04-06T09:49:46.599Z</time></trkpt><trkpt lat="44.3618907" lon="9.3413801"><ele>37.4</ele><time>2026-04-06T09:49:47.598Z</time></trkpt><trkpt lat="44.3619136" lon="9.3415267"><ele>35.2</ele><time>2026-04-06T09:49:48.597Z</time></trkpt><trkpt lat="44.361947" lon="9.3416806"><ele>33.0</ele><time>2026-04-06T09:49:49.598Z</time></trkpt><trkpt lat="44.3619678" lon="9.3418507"><ele>33.0</ele><time>2026-04-06T09:49:50.598Z</time></trkpt><trkpt lat="44.3619655" lon="9.3420248"><ele>33.0</ele><time>2026-04-06T09:49:51.6Z</time></trkpt><trkpt lat="44.3619446" lon="9.3421903"><ele>33.0</ele><time>2026-04-06T09:49:52.598Z</time></trkpt><trkpt lat="44.3619203" lon="9.3423444"><ele>33.0</ele><time>2026-04-06T09:49:53.599Z</time></trkpt><trkpt lat="44.3618985" lon="9.3424959"><ele>33.4</ele><time>2026-04-06T09:49:54.599Z</time></trkpt><trkpt lat="44.3618743" lon="9.3426488"><ele>33.8</ele><time>2026-04-06T09:49:55.598Z</time></trkpt><trkpt lat="44.3618466" lon="9.3427953"><ele>34.2</ele><time>2026-04-06T09:49:56.598Z</time></trkpt><trkpt lat="44.361805" lon="9.3429283"><ele>34.6</ele><time>2026-04-06T09:49:57.599Z</time></trkpt><trkpt lat="44.361745" lon="9.3430567"><ele>35.0</ele><time>2026-04-06T09:49:58.598Z</time></trkpt><trkpt lat="44.3616767" lon="9.3431717"><ele>34.0</ele><time>2026-04-06T09:49:59.6Z</time></trkpt><trkpt lat="44.3616" lon="9.3432817"><ele>33.0</ele><time>2026-04-06T09:50:00.599Z</time></trkpt><trkpt lat="44.3615133" lon="9.3433867"><ele>32.0</ele><time>2026-04-06T09:50:01.599Z</time></trkpt><trkpt lat="44.3614167" lon="9.3434917"><ele>31.0</ele><time>2026-04-06T09:50:02.6Z</time></trkpt><trkpt lat="44.36132" lon="9.3435983"><ele>31.0</ele><time>2026-04-06T09:50:03.599Z</time></trkpt><trkpt lat="44.3612233" lon="9.3436983"><ele>31.0</ele><time>2026-04-06T09:50:04.599Z</time></trkpt><trkpt lat="44.3611233" lon="9.34378"><ele>31.0</ele><time>2026-04-06T09:50:05.598Z</time></trkpt><trkpt lat="44.3610133" lon="9.3438467"><ele>31.0</ele><time>2026-04-06T09:50:06.599Z</time></trkpt><trkpt lat="44.36089" lon="9.343905"><ele>35.25</ele><time>2026-04-06T09:50:07.599Z</time></trkpt><trkpt lat="44.360755" lon="9.3439583"><ele>39.5</ele><time>2026-04-06T09:50:08.598Z</time></trkpt><trkpt lat="44.3606067" lon="9.343995"><ele>43.75</ele><time>2026-04-06T09:50:09.599Z</time></trkpt><trkpt lat="44.36045" lon="9.3440117"><ele>48.0</ele><time>2026-04-06T09:50:10.599Z</time></trkpt><trkpt lat="44.3602917" lon="9.3440217"><ele>48.0</ele><time>2026-04-06T09:50:11.599Z</time></trkpt><trkpt lat="44.3601283" lon="9.3440283"><ele>48.0</ele><time>2026-04-06T09:50:12.599Z</time></trkpt><trkpt lat="44.35997" lon="9.34403"><ele>48.0</ele><time>2026-04-06T09:50:13.599Z</time></trkpt><trkpt lat="44.3598183" lon="9.3440267"><ele>52.33333333333333</ele><time>2026-04-06T09:50:14.601Z</time></trkpt><trkpt lat="44.359665" lon="9.344005"><ele>56.666666666666664</ele><time>2026-04-06T09:50:15.598Z</time></trkpt><trkpt lat="44.359515" lon="9.3439717"><ele>61.0</ele><time>2026-04-06T09:50:16.598Z</time></trkpt><trkpt lat="44.3593633" lon="9.3439233"><ele>50.666666666666664</ele><time>2026-04-06T09:50:17.597Z</time></trkpt><trkpt lat="44.3592067" lon="9.343865"><ele>40.33333333333333</ele><time>2026-04-06T09:50:18.601Z</time></trkpt><trkpt lat="44.35905" lon="9.34381"><ele>30.0</ele><time>2026-04-06T09:50:19.599Z</time></trkpt><trkpt lat="44.3588917" lon="9.343755"><ele>31.333333333333336</ele><time>2026-04-06T09:50:20.601Z</time></trkpt><trkpt lat="44.35874" lon="9.3437033"><ele>32.66666666666667</ele><time>2026-04-06T09:50:21.598Z</time></trkpt><trkpt lat="44.358585" lon="9.3436417"><ele>34.0</ele><time>2026-04-06T09:50:22.599Z</time></trkpt><trkpt lat="44.3584333" lon="9.34358"><ele>34.0</ele><time>2026-04-06T09:50:23.6Z</time></trkpt><trkpt lat="44.3582833" lon="9.3435233"><ele>34.0</ele><time>2026-04-06T09:50:24.598Z</time></trkpt><trkpt lat="44.3581317" lon="9.3434767"><ele>34.0</ele><time>2026-04-06T09:50:25.598Z</time></trkpt><trkpt lat="44.3579817" lon="9.3434333"><ele>36.66666666666667</ele><time>2026-04-06T09:50:26.599Z</time></trkpt><trkpt lat="44.3578333" lon="9.3433917"><ele>39.333333333333336</ele><time>2026-04-06T09:50:27.597Z</time></trkpt><trkpt lat="44.3576817" lon="9.3433583"><ele>42.0</ele><time>2026-04-06T09:50:28.599Z</time></trkpt><trkpt lat="44.3575317" lon="9.3433333"><ele>42.0</ele><time>2026-04-06T09:50:29.598Z</time></trkpt><trkpt lat="44.35738" lon="9.3433117"><ele>42.0</ele><time>2026-04-06T09:50:30.599Z</time></trkpt><trkpt lat="44.3572283" lon="9.3432933"><ele>42.0</ele><time>2026-04-06T09:50:31.599Z</time></trkpt><trkpt lat="44.3570783" lon="9.343275"><ele>40.0</ele><time>2026-04-06T09:50:32.598Z</time></trkpt><trkpt lat="44.3569317" lon="9.34326"><ele>38.0</ele><time>2026-04-06T09:50:33.598Z</time></trkpt><trkpt lat="44.3567883" lon="9.343245"><ele>36.0</ele><time>2026-04-06T09:50:34.599Z</time></trkpt><trkpt lat="44.35665" lon="9.3432283"><ele>34.0</ele><time>2026-04-06T09:50:35.6Z</time></trkpt><trkpt lat="44.3565083" lon="9.34321"><ele>34.25</ele><time>2026-04-06T09:50:36.599Z</time></trkpt><trkpt lat="44.3563667" lon="9.34319"><ele>34.5</ele><time>2026-04-06T09:50:37.599Z</time></trkpt><trkpt lat="44.3562233" lon="9.3431717"><ele>34.75</ele><time>2026-04-06T09:50:38.599Z</time></trkpt><trkpt lat="44.3560833" lon="9.3431533"><ele>35.0</ele><time>2026-04-06T09:50:39.598Z</time></trkpt><trkpt lat="44.35594" lon="9.3431417"><ele>35.0</ele><time>2026-04-06T09:50:40.6Z</time></trkpt><trkpt lat="44.3557983" lon="9.34313"><ele>35.0</ele><time>2026-04-06T09:50:41.599Z</time></trkpt><trkpt lat="44.3556617" lon="9.3431167"><ele>35.0</ele><time>2026-04-06T09:50:42.599Z</time></trkpt><trkpt lat="44.3555333" lon="9.3431033"><ele>35.0</ele><time>2026-04-06T09:50:43.598Z</time></trkpt><trkpt lat="44.35541" lon="9.343095"><ele>34.25</ele><time>2026-04-06T09:50:44.599Z</time></trkpt><trkpt lat="44.35529" lon="9.3430967"><ele>33.5</ele><time>2026-04-06T09:50:45.599Z</time></trkpt><trkpt lat="44.35516" lon="9.3430983"><ele>32.75</ele><time>2026-04-06T09:50:46.599Z</time></trkpt><trkpt lat="44.3550267" lon="9.3431083"><ele>32.0</ele><time>2026-04-06T09:50:47.597Z</time></trkpt><trkpt lat="44.3548967" lon="9.3431183"><ele>32.0</ele><time>2026-04-06T09:50:48.597Z</time></trkpt><trkpt lat="44.35476" lon="9.3431283"><ele>32.0</ele><time>2026-04-06T09:50:49.599Z</time></trkpt><trkpt lat="44.35462" lon="9.3431417"><ele>32.0</ele><time>2026-04-06T09:50:50.599Z</time></trkpt><trkpt lat="44.354475" lon="9.343155"><ele>32.0</ele><time>2026-04-06T09:50:51.599Z</time></trkpt><trkpt lat="44.354335" lon="9.3431667"><ele>30.75</ele><time>2026-04-06T09:50:52.599Z</time></trkpt><trkpt lat="44.3542" lon="9.343175"><ele>29.5</ele><time>2026-04-06T09:50:53.599Z</time></trkpt><trkpt lat="44.3540667" lon="9.343185"><ele>28.25</ele><time>2026-04-06T09:50:54.599Z</time></trkpt><trkpt lat="44.3539333" lon="9.343205"><ele>27.0</ele><time>2026-04-06T09:50:55.598Z</time></trkpt><trkpt lat="44.353805" lon="9.3432267"><ele>27.0</ele><time>2026-04-06T09:50:56.599Z</time></trkpt><trkpt lat="44.353675" lon="9.3432533"><ele>27.0</ele><time>2026-04-06T09:50:57.598Z</time></trkpt><trkpt lat="44.3535517" lon="9.3432783"><ele>27.0</ele><time>2026-04-06T09:50:58.598Z</time></trkpt><trkpt lat="44.3534283" lon="9.3433"><ele>27.0</ele><time>2026-04-06T09:50:59.598Z</time></trkpt><trkpt lat="44.3533067" lon="9.343325"><ele>27.0</ele><time>2026-04-06T09:51:00.599Z</time></trkpt><trkpt lat="44.35319" lon="9.3433517"><ele>27.000000000000004</ele><time>2026-04-06T09:51:01.599Z</time></trkpt><trkpt lat="44.35308" lon="9.3433783"><ele>27.000000000000004</ele><time>2026-04-06T09:51:02.6Z</time></trkpt><trkpt lat="44.352975" lon="9.3434017"><ele>27.0</ele><time>2026-04-06T09:51:03.598Z</time></trkpt><trkpt lat="44.3528733" lon="9.3434233"><ele>27.0</ele><time>2026-04-06T09:51:04.598Z</time></trkpt><trkpt lat="44.3527767" lon="9.3434433"><ele>26.833333333333332</ele><time>2026-04-06T09:51:05.598Z</time></trkpt><trkpt lat="44.3526833" lon="9.3434667"><ele>26.666666666666664</ele><time>2026-04-06T09:51:06.597Z</time></trkpt><trkpt lat="44.3525917" lon="9.3434867"><ele>26.5</ele><time>2026-04-06T09:51:07.599Z</time></trkpt><trkpt lat="44.3525083" lon="9.3435017"><ele>26.333333333333332</ele><time>2026-04-06T09:51:08.599Z</time></trkpt><trkpt lat="44.3524267" lon="9.343515"><ele>26.166666666666664</ele><time>2026-04-06T09:51:09.598Z</time></trkpt><trkpt lat="44.35235" lon="9.3435233"><ele>26.0</ele><time>2026-04-06T09:51:10.598Z</time></trkpt><trkpt lat="44.3522767" lon="9.3435267"><ele>26.0</ele><time>2026-04-06T09:51:11.599Z</time></trkpt><trkpt lat="44.3522067" lon="9.3435217"><ele>26.0</ele><time>2026-04-06T09:51:12.599Z</time></trkpt><trkpt lat="44.3521317" lon="9.3434983"><ele>26.0</ele><time>2026-04-06T09:51:13.598Z</time></trkpt><trkpt lat="44.3520433" lon="9.3434583"><ele>26.0</ele><time>2026-04-06T09:51:14.599Z</time></trkpt><trkpt lat="44.351945" lon="9.3434"><ele>26.0</ele><time>2026-04-06T09:51:15.599Z</time></trkpt><trkpt lat="44.351835" lon="9.3433283"><ele>26.0</ele><time>2026-04-06T09:51:16.6Z</time></trkpt><trkpt lat="44.3517183" lon="9.3432517"><ele>26.0</ele><time>2026-04-06T09:51:17.598Z</time></trkpt><trkpt lat="44.3516" lon="9.3431733"><ele>26.0</ele><time>2026-04-06T09:51:18.599Z</time></trkpt><trkpt lat="44.3514833" lon="9.3430967"><ele>26.0</ele><time>2026-04-06T09:51:19.599Z</time></trkpt><trkpt lat="44.35137" lon="9.3430267"><ele>26.0</ele><time>2026-04-06T09:51:20.599Z</time></trkpt><trkpt lat="44.3512567" lon="9.342955"><ele>26.0</ele><time>2026-04-06T09:51:21.599Z</time></trkpt><trkpt lat="44.3511433" lon="9.3428883"><ele>26.0</ele><time>2026-04-06T09:51:22.599Z</time></trkpt><trkpt lat="44.3510317" lon="9.342835"><ele>26.0</ele><time>2026-04-06T09:51:23.599Z</time></trkpt><trkpt lat="44.3509217" lon="9.3428067"><ele>26.0</ele><time>2026-04-06T09:51:24.598Z</time></trkpt><trkpt lat="44.3508083" lon="9.3427983"><ele>26.0</ele><time>2026-04-06T09:51:25.6Z</time></trkpt><trkpt lat="44.3506933" lon="9.342815"><ele>26.0</ele><time>2026-04-06T09:51:26.6Z</time></trkpt><trkpt lat="44.3505833" lon="9.3428567"><ele>26.0</ele><time>2026-04-06T09:51:27.598Z</time></trkpt><trkpt lat="44.3504867" lon="9.3429167"><ele>26.0</ele><time>2026-04-06T09:51:28.599Z</time></trkpt><trkpt lat="44.3504" lon="9.3429833"><ele>26.166666666666664</ele><time>2026-04-06T09:51:29.6Z</time></trkpt><trkpt lat="44.350325" lon="9.3430617"><ele>26.333333333333332</ele><time>2026-04-06T09:51:30.6Z</time></trkpt><trkpt lat="44.3502583" lon="9.3431433"><ele>26.5</ele><time>2026-04-06T09:51:31.598Z</time></trkpt><trkpt lat="44.3502017" lon="9.34323"><ele>26.666666666666664</ele><time>2026-04-06T09:51:32.599Z</time></trkpt><trkpt lat="44.3501633" lon="9.3433283"><ele>26.833333333333332</ele><time>2026-04-06T09:51:33.598Z</time></trkpt><trkpt lat="44.3501333" lon="9.3434383"><ele>27.0</ele><time>2026-04-06T09:51:34.599Z</time></trkpt><trkpt lat="44.3501117" lon="9.3435633"><ele>27.0</ele><time>2026-04-06T09:51:35.6Z</time></trkpt><trkpt lat="44.3500958" lon="9.3436903"><ele>27.0</ele><time>2026-04-06T09:51:36.599Z</time></trkpt><trkpt lat="44.3500861" lon="9.3438133"><ele>27.0</ele><time>2026-04-06T09:51:37.6Z</time></trkpt><trkpt lat="44.3500779" lon="9.3439338"><ele>27.0</ele><time>2026-04-06T09:51:38.598Z</time></trkpt><trkpt lat="44.3500699" lon="9.3440534"><ele>27.0</ele><time>2026-04-06T09:51:39.598Z</time></trkpt><trkpt lat="44.3500595" lon="9.3441733"><ele>27.0</ele><time>2026-04-06T09:51:40.599Z</time></trkpt><trkpt lat="44.3500495" lon="9.3442972"><ele>27.0</ele><time>2026-04-06T09:51:41.597Z</time></trkpt><trkpt lat="44.3500377" lon="9.3444267"><ele>27.000000000000004</ele><time>2026-04-06T09:51:42.599Z</time></trkpt><trkpt lat="44.3500279" lon="9.3445647"><ele>27.000000000000004</ele><time>2026-04-06T09:51:43.599Z</time></trkpt><trkpt lat="44.3500157" lon="9.3447069"><ele>27.0</ele><time>2026-04-06T09:51:44.6Z</time></trkpt><trkpt lat="44.3500023" lon="9.3448512"><ele>27.0</ele><time>2026-04-06T09:51:45.6Z</time></trkpt><trkpt lat="44.3499902" lon="9.3450037"><ele>27.0</ele><time>2026-04-06T09:51:46.598Z</time></trkpt><trkpt lat="44.349978" lon="9.3451512"><ele>27.000000000000004</ele><time>2026-04-06T09:51:47.603Z</time></trkpt><trkpt lat="44.3499669" lon="9.3452922"><ele>27.000000000000004</ele><time>2026-04-06T09:51:48.599Z</time></trkpt><trkpt lat="44.349957" lon="9.3454267"><ele>27.0</ele><time>2026-04-06T09:51:49.599Z</time></trkpt><trkpt lat="44.3499457" lon="9.3455546"><ele>27.0</ele><time>2026-04-06T09:51:50.599Z</time></trkpt><trkpt lat="44.3499337" lon="9.3456839"><ele>27.0</ele><time>2026-04-06T09:51:51.599Z</time></trkpt><trkpt lat="44.3499218" lon="9.3458188"><ele>27.000000000000004</ele><time>2026-04-06T09:51:52.598Z</time></trkpt><trkpt lat="44.3499099" lon="9.3459627"><ele>27.000000000000004</ele><time>2026-04-06T09:51:53.598Z</time></trkpt><trkpt lat="44.3498946" lon="9.3461075"><ele>27.0</ele><time>2026-04-06T09:51:54.599Z</time></trkpt><trkpt lat="44.3498805" lon="9.3462558"><ele>27.0</ele><time>2026-04-06T09:51:55.6Z</time></trkpt><trkpt lat="44.3498671" lon="9.3463974"><ele>27.0</ele><time>2026-04-06T09:51:56.6Z</time></trkpt><trkpt lat="44.3498539" lon="9.3465298"><ele>27.0</ele><time>2026-04-06T09:51:57.599Z</time></trkpt><trkpt lat="44.349842" lon="9.3466537"><ele>27.0</ele><time>2026-04-06T09:51:58.6Z</time></trkpt><trkpt lat="44.3498304" lon="9.3467738"><ele>27.0</ele><time>2026-04-06T09:51:59.599Z</time></trkpt><trkpt lat="44.3498136" lon="9.3468971"><ele>27.0</ele><time>2026-04-06T09:52:00.6Z</time></trkpt><trkpt lat="44.3497944" lon="9.347015"><ele>27.0</ele><time>2026-04-06T09:52:01.599Z</time></trkpt><trkpt lat="44.349778" lon="9.3471199"><ele>27.400000000000002</ele><time>2026-04-06T09:52:02.599Z</time></trkpt><trkpt lat="44.3497514" lon="9.347253"><ele>27.800000000000004</ele><time>2026-04-06T09:52:04.599Z</time></trkpt><trkpt lat="44.3497311" lon="9.3473373"><ele>28.2</ele><time>2026-04-06T09:52:19.599Z</time></trkpt><trkpt lat="44.349695" lon="9.34748"><ele>28.6</ele><time>2026-04-06T09:52:21.599Z</time></trkpt><trkpt lat="44.349685" lon="9.34764"><ele>29.0</ele><time>2026-04-06T09:52:23.6Z</time></trkpt><trkpt lat="44.3496833" lon="9.3477433"><ele>27.833333333333332</ele><time>2026-04-06T09:52:24.599Z</time></trkpt><trkpt lat="44.3496733" lon="9.347855"><ele>26.666666666666664</ele><time>2026-04-06T09:52:25.599Z</time></trkpt><trkpt lat="44.3496583" lon="9.3479733"><ele>25.5</ele><time>2026-04-06T09:52:26.599Z</time></trkpt><trkpt lat="44.3496383" lon="9.3480917"><ele>24.333333333333332</ele><time>2026-04-06T09:52:27.604Z</time></trkpt><trkpt lat="44.3496183" lon="9.3482083"><ele>23.166666666666664</ele><time>2026-04-06T09:52:28.599Z</time></trkpt><trkpt lat="44.3495967" lon="9.3483283"><ele>22.0</ele><time>2026-04-06T09:52:29.599Z</time></trkpt><trkpt lat="44.3495767" lon="9.3484483"><ele>21.6</ele><time>2026-04-06T09:52:30.599Z</time></trkpt><trkpt lat="44.3495533" lon="9.3485767"><ele>21.200000000000003</ele><time>2026-04-06T09:52:31.601Z</time></trkpt><trkpt lat="44.34953" lon="9.3487067"><ele>20.8</ele><time>2026-04-06T09:52:32.598Z</time></trkpt><trkpt lat="44.349505" lon="9.3488467"><ele>20.4</ele><time>2026-04-06T09:52:33.599Z</time></trkpt><trkpt lat="44.3494783" lon="9.3489933"><ele>20.0</ele><time>2026-04-06T09:52:34.599Z</time></trkpt><trkpt lat="44.3494517" lon="9.3491517"><ele>20.0</ele><time>2026-04-06T09:52:35.599Z</time></trkpt><trkpt lat="44.3494233" lon="9.349315"><ele>20.0</ele><time>2026-04-06T09:52:36.599Z</time></trkpt><trkpt lat="44.3493983" lon="9.3494767"><ele>20.0</ele><time>2026-04-06T09:52:37.599Z</time></trkpt><trkpt lat="44.3493717" lon="9.3496417"><ele>20.0</ele><time>2026-04-06T09:52:38.6Z</time></trkpt><trkpt lat="44.3493467" lon="9.3498083"><ele>20.5</ele><time>2026-04-06T09:52:39.598Z</time></trkpt><trkpt lat="44.34932" lon="9.34998"><ele>21.0</ele><time>2026-04-06T09:52:40.598Z</time></trkpt><trkpt lat="44.3492933" lon="9.3501533"><ele>21.5</ele><time>2026-04-06T09:52:41.598Z</time></trkpt><trkpt lat="44.3492683" lon="9.3503183"><ele>22.0</ele><time>2026-04-06T09:52:42.599Z</time></trkpt><trkpt lat="44.349245" lon="9.3504733"><ele>22.400000000000002</ele><time>2026-04-06T09:52:43.599Z</time></trkpt><trkpt lat="44.3492283" lon="9.3506217"><ele>22.8</ele><time>2026-04-06T09:52:44.598Z</time></trkpt><trkpt lat="44.34921" lon="9.350765"><ele>23.2</ele><time>2026-04-06T09:52:45.599Z</time></trkpt><trkpt lat="44.3492033" lon="9.3509017"><ele>23.6</ele><time>2026-04-06T09:52:46.598Z</time></trkpt><trkpt lat="44.34921" lon="9.3510367"><ele>24.0</ele><time>2026-04-06T09:52:47.599Z</time></trkpt><trkpt lat="44.349245" lon="9.3511667"><ele>24.0</ele><time>2026-04-06T09:52:48.599Z</time></trkpt><trkpt lat="44.34931" lon="9.351275"><ele>24.0</ele><time>2026-04-06T09:52:49.599Z</time></trkpt><trkpt lat="44.3494033" lon="9.351355"><ele>24.0</ele><time>2026-04-06T09:52:50.6Z</time></trkpt><trkpt lat="44.3495233" lon="9.3513967"><ele>24.0</ele><time>2026-04-06T09:52:51.599Z</time></trkpt><trkpt lat="44.3496517" lon="9.3514217"><ele>24.25</ele><time>2026-04-06T09:52:52.598Z</time></trkpt><trkpt lat="44.3497833" lon="9.3514333"><ele>24.5</ele><time>2026-04-06T09:52:53.598Z</time></trkpt><trkpt lat="44.349915" lon="9.351445"><ele>24.75</ele><time>2026-04-06T09:52:54.6Z</time></trkpt><trkpt lat="44.3500417" lon="9.3514617"><ele>25.0</ele><time>2026-04-06T09:52:55.599Z</time></trkpt><trkpt lat="44.3501683" lon="9.3514817"><ele>25.0</ele><time>2026-04-06T09:52:56.599Z</time></trkpt><trkpt lat="44.3502983" lon="9.3515067"><ele>25.0</ele><time>2026-04-06T09:52:57.599Z</time></trkpt><trkpt lat="44.35043" lon="9.3515433"><ele>25.0</ele><time>2026-04-06T09:52:58.598Z</time></trkpt><trkpt lat="44.3505533" lon="9.3515917"><ele>25.0</ele><time>2026-04-06T09:52:59.597Z</time></trkpt><trkpt lat="44.3506733" lon="9.3516483"><ele>27.5</ele><time>2026-04-06T09:53:00.597Z</time></trkpt><trkpt lat="44.35079" lon="9.3517083"><ele>30.0</ele><time>2026-04-06T09:53:01.598Z</time></trkpt><trkpt lat="44.3509033" lon="9.351765"><ele>32.5</ele><time>2026-04-06T09:53:02.599Z</time></trkpt><trkpt lat="44.35102" lon="9.3518133"><ele>35.0</ele><time>2026-04-06T09:53:03.598Z</time></trkpt><trkpt lat="44.3511433" lon="9.3518567"><ele>35.0</ele><time>2026-04-06T09:53:04.599Z</time></trkpt><trkpt lat="44.3512617" lon="9.3519"><ele>35.0</ele><time>2026-04-06T09:53:05.597Z</time></trkpt><trkpt lat="44.351375" lon="9.3519433"><ele>35.0</ele><time>2026-04-06T09:53:06.598Z</time></trkpt><trkpt lat="44.3514733" lon="9.3519967"><ele>35.0</ele><time>2026-04-06T09:53:07.599Z</time></trkpt><trkpt lat="44.35155" lon="9.3520833"><ele>35.0</ele><time>2026-04-06T09:53:08.599Z</time></trkpt><trkpt lat="44.351615" lon="9.3522067"><ele>34.0</ele><time>2026-04-06T09:53:09.6Z</time></trkpt><trkpt lat="44.3516783" lon="9.3523583"><ele>33.0</ele><time>2026-04-06T09:53:10.599Z</time></trkpt><trkpt lat="44.3517433" lon="9.352525"><ele>32.0</ele><time>2026-04-06T09:53:11.598Z</time></trkpt><trkpt lat="44.35181" lon="9.3526983"><ele>31.0</ele><time>2026-04-06T09:53:12.599Z</time></trkpt><trkpt lat="44.3518767" lon="9.3528717"><ele>28.0</ele><time>2026-04-06T09:53:13.598Z</time></trkpt><trkpt lat="44.3519367" lon="9.3530417"><ele>25.0</ele><time>2026-04-06T09:53:14.598Z</time></trkpt><trkpt lat="44.3519883" lon="9.3532133"><ele>22.0</ele><time>2026-04-06T09:53:15.598Z</time></trkpt><trkpt lat="44.3520417" lon="9.3533867"><ele>19.0</ele><time>2026-04-06T09:53:16.6Z</time></trkpt><trkpt lat="44.35209" lon="9.3535617"><ele>19.0</ele><time>2026-04-06T09:53:17.599Z</time></trkpt><trkpt lat="44.35214" lon="9.353745"><ele>19.0</ele><time>2026-04-06T09:53:18.599Z</time></trkpt><trkpt lat="44.3521867" lon="9.3539283"><ele>19.0</ele><time>2026-04-06T09:53:19.6Z</time></trkpt><trkpt lat="44.3522867" lon="9.3543183"><ele>22.0</ele><time>2026-04-06T09:53:21.599Z</time></trkpt><trkpt lat="44.3523417" lon="9.3545133"><ele>25.0</ele><time>2026-04-06T09:53:22.598Z</time></trkpt><trkpt lat="44.3523983" lon="9.354705"><ele>28.0</ele><time>2026-04-06T09:53:23.6Z</time></trkpt><trkpt lat="44.3524617" lon="9.3548867"><ele>31.0</ele><time>2026-04-06T09:53:24.598Z</time></trkpt><trkpt lat="44.3525283" lon="9.355065"><ele>31.0</ele><time>2026-04-06T09:53:25.598Z</time></trkpt><trkpt lat="44.3525967" lon="9.355235"><ele>31.0</ele><time>2026-04-06T09:53:26.6Z</time></trkpt><trkpt lat="44.35267" lon="9.355395"><ele>31.0</ele><time>2026-04-06T09:53:27.599Z</time></trkpt><trkpt lat="44.3527433" lon="9.3555517"><ele>31.0</ele><time>2026-04-06T09:53:28.599Z</time></trkpt><trkpt lat="44.35282" lon="9.3557183"><ele>28.666666666666668</ele><time>2026-04-06T09:53:29.599Z</time></trkpt><trkpt lat="44.3529033" lon="9.3558883"><ele>26.333333333333336</ele><time>2026-04-06T09:53:30.599Z</time></trkpt><trkpt lat="44.35299" lon="9.356065"><ele>24.0</ele><time>2026-04-06T09:53:31.599Z</time></trkpt><trkpt lat="44.353075" lon="9.3562483"><ele>26.333333333333336</ele><time>2026-04-06T09:53:32.599Z</time></trkpt><trkpt lat="44.3531583" lon="9.356435"><ele>28.666666666666668</ele><time>2026-04-06T09:53:33.599Z</time></trkpt><trkpt lat="44.353235" lon="9.35662"><ele>31.0</ele><time>2026-04-06T09:53:34.598Z</time></trkpt><trkpt lat="44.353305" lon="9.356805"><ele>31.0</ele><time>2026-04-06T09:53:35.599Z</time></trkpt><trkpt lat="44.3533667" lon="9.3569883"><ele>31.0</ele><time>2026-04-06T09:53:36.599Z</time></trkpt><trkpt lat="44.35342" lon="9.3571717"><ele>31.0</ele><time>2026-04-06T09:53:37.599Z</time></trkpt><trkpt lat="44.3534667" lon="9.3573483"><ele>31.0</ele><time>2026-04-06T09:53:38.599Z</time></trkpt><trkpt lat="44.3535367" lon="9.3576983"><ele>30.0</ele><time>2026-04-06T09:53:40.597Z</time></trkpt><trkpt lat="44.3535633" lon="9.3578667"><ele>29.0</ele><time>2026-04-06T09:53:41.599Z</time></trkpt><trkpt lat="44.3535783" lon="9.358035"><ele>28.0</ele><time>2026-04-06T09:53:42.599Z</time></trkpt><trkpt lat="44.353585" lon="9.3582017"><ele>27.0</ele><time>2026-04-06T09:53:43.597Z</time></trkpt><trkpt lat="44.353585" lon="9.3583617"><ele>25.75</ele><time>2026-04-06T09:53:44.6Z</time></trkpt><trkpt lat="44.35358" lon="9.3585267"><ele>24.5</ele><time>2026-04-06T09:53:45.598Z</time></trkpt><trkpt lat="44.3535783" lon="9.3587017"><ele>23.25</ele><time>2026-04-06T09:53:46.599Z</time></trkpt><trkpt lat="44.353575" lon="9.3588883"><ele>22.0</ele><time>2026-04-06T09:53:47.599Z</time></trkpt><trkpt lat="44.3535717" lon="9.3590867"><ele>22.0</ele><time>2026-04-06T09:53:48.598Z</time></trkpt><trkpt lat="44.3535667" lon="9.35929"><ele>22.0</ele><time>2026-04-06T09:53:49.598Z</time></trkpt><trkpt lat="44.35356" lon="9.3595"><ele>22.0</ele><time>2026-04-06T09:53:50.6Z</time></trkpt><trkpt lat="44.3535483" lon="9.3597083"><ele>22.0</ele><time>2026-04-06T09:53:51.598Z</time></trkpt><trkpt lat="44.3535283" lon="9.3599117"><ele>22.75</ele><time>2026-04-06T09:53:52.598Z</time></trkpt><trkpt lat="44.35349" lon="9.3601017"><ele>23.5</ele><time>2026-04-06T09:53:53.599Z</time></trkpt><trkpt lat="44.35343" lon="9.3602867"><ele>24.25</ele><time>2026-04-06T09:53:54.6Z</time></trkpt><trkpt lat="44.35335" lon="9.3604783"><ele>25.0</ele><time>2026-04-06T09:53:55.599Z</time></trkpt><trkpt lat="44.3532583" lon="9.36067"><ele>22.333333333333336</ele><time>2026-04-06T09:53:56.599Z</time></trkpt><trkpt lat="44.3531567" lon="9.3608567"><ele>19.666666666666668</ele><time>2026-04-06T09:53:57.598Z</time></trkpt><trkpt lat="44.35306" lon="9.3610383"><ele>17.0</ele><time>2026-04-06T09:53:58.598Z</time></trkpt><trkpt lat="44.3529633" lon="9.3612067"><ele>17.0</ele><time>2026-04-06T09:53:59.599Z</time></trkpt><trkpt lat="44.3528617" lon="9.3613517"><ele>17.0</ele><time>2026-04-06T09:54:00.598Z</time></trkpt><trkpt lat="44.3527417" lon="9.3614767"><ele>17.0</ele><time>2026-04-06T09:54:01.599Z</time></trkpt><trkpt lat="44.352605" lon="9.3615883"><ele>17.333333333333336</ele><time>2026-04-06T09:54:02.6Z</time></trkpt><trkpt lat="44.35245" lon="9.3616867"><ele>17.666666666666668</ele><time>2026-04-06T09:54:03.598Z</time></trkpt><trkpt lat="44.3522933" lon="9.36177"><ele>18.0</ele><time>2026-04-06T09:54:04.599Z</time></trkpt><trkpt lat="44.3521433" lon="9.3618433"><ele>18.0</ele><time>2026-04-06T09:54:05.598Z</time></trkpt><trkpt lat="44.3520033" lon="9.3619133"><ele>18.0</ele><time>2026-04-06T09:54:06.598Z</time></trkpt><trkpt lat="44.35187" lon="9.361985"><ele>18.0</ele><time>2026-04-06T09:54:07.599Z</time></trkpt><trkpt lat="44.3517383" lon="9.362055"><ele>18.0</ele><time>2026-04-06T09:54:08.599Z</time></trkpt><trkpt lat="44.3516033" lon="9.3621317"><ele>25.333333333333336</ele><time>2026-04-06T09:54:09.599Z</time></trkpt><trkpt lat="44.3514567" lon="9.3622067"><ele>32.66666666666667</ele><time>2026-04-06T09:54:10.599Z</time></trkpt><trkpt lat="44.3513017" lon="9.3622667"><ele>40.0</ele><time>2026-04-06T09:54:11.598Z</time></trkpt><trkpt lat="44.35114" lon="9.3623083"><ele>40.0</ele><time>2026-04-06T09:54:12.598Z</time></trkpt><trkpt lat="44.3509867" lon="9.3623317"><ele>40.0</ele><time>2026-04-06T09:54:13.598Z</time></trkpt><trkpt lat="44.3508433" lon="9.36235"><ele>40.0</ele><time>2026-04-06T09:54:14.599Z</time></trkpt><trkpt lat="44.350705" lon="9.362355"><ele>40.0</ele><time>2026-04-06T09:54:15.597Z</time></trkpt><trkpt lat="44.350565" lon="9.36234"><ele>39.5</ele><time>2026-04-06T09:54:16.599Z</time></trkpt><trkpt lat="44.3504267" lon="9.3623083"><ele>39.0</ele><time>2026-04-06T09:54:17.6Z</time></trkpt><trkpt lat="44.3502933" lon="9.362265"><ele>38.5</ele><time>2026-04-06T09:54:18.6Z</time></trkpt><trkpt lat="44.3501667" lon="9.36222"><ele>38.0</ele><time>2026-04-06T09:54:19.597Z</time></trkpt><trkpt lat="44.35004" lon="9.3621967"><ele>38.0</ele><time>2026-04-06T09:54:20.598Z</time></trkpt><trkpt lat="44.349905" lon="9.3622017"><ele>38.0</ele><time>2026-04-06T09:54:21.598Z</time></trkpt><trkpt lat="44.3497717" lon="9.362225"><ele>38.0</ele><time>2026-04-06T09:54:22.6Z</time></trkpt><trkpt lat="44.3496383" lon="9.3622683"><ele>38.0</ele><time>2026-04-06T09:54:23.598Z</time></trkpt><trkpt lat="44.34951" lon="9.3623133"><ele>37.25</ele><time>2026-04-06T09:54:24.599Z</time></trkpt><trkpt lat="44.3493817" lon="9.36235"><ele>36.5</ele><time>2026-04-06T09:54:25.599Z</time></trkpt><trkpt lat="44.3492567" lon="9.3623667"><ele>35.75</ele><time>2026-04-06T09:54:26.599Z</time></trkpt><trkpt lat="44.349135" lon="9.3623667"><ele>35.0</ele><time>2026-04-06T09:54:27.597Z</time></trkpt><trkpt lat="44.3490167" lon="9.3623533"><ele>35.0</ele><time>2026-04-06T09:54:28.598Z</time></trkpt><trkpt lat="44.348905" lon="9.3623333"><ele>35.0</ele><time>2026-04-06T09:54:29.599Z</time></trkpt><trkpt lat="44.3487983" lon="9.3623167"><ele>35.0</ele><time>2026-04-06T09:54:30.599Z</time></trkpt><trkpt lat="44.3486933" lon="9.3622983"><ele>35.0</ele><time>2026-04-06T09:54:31.599Z</time></trkpt><trkpt lat="44.3485933" lon="9.362285"><ele>35.0</ele><time>2026-04-06T09:54:32.599Z</time></trkpt><trkpt lat="44.3484933" lon="9.3622767"><ele>32.8</ele><time>2026-04-06T09:54:33.599Z</time></trkpt><trkpt lat="44.34839" lon="9.36227"><ele>30.6</ele><time>2026-04-06T09:54:34.599Z</time></trkpt><trkpt lat="44.3482883" lon="9.3622867"><ele>28.4</ele><time>2026-04-06T09:54:35.599Z</time></trkpt><trkpt lat="44.3481867" lon="9.3623483"><ele>26.2</ele><time>2026-04-06T09:54:36.599Z</time></trkpt><trkpt lat="44.3480917" lon="9.3624483"><ele>24.0</ele><time>2026-04-06T09:54:37.599Z</time></trkpt><trkpt lat="44.34801" lon="9.3625667"><ele>22.0</ele><time>2026-04-06T09:54:38.598Z</time></trkpt><trkpt lat="44.3479333" lon="9.3626883"><ele>20.0</ele><time>2026-04-06T09:54:39.598Z</time></trkpt><trkpt lat="44.3478467" lon="9.362805"><ele>18.0</ele><time>2026-04-06T09:54:40.598Z</time></trkpt><trkpt lat="44.347755" lon="9.362915"><ele>16.0</ele><time>2026-04-06T09:54:41.599Z</time></trkpt><trkpt lat="44.3476583" lon="9.363015"><ele>15.8</ele><time>2026-04-06T09:54:42.599Z</time></trkpt><trkpt lat="44.3475583" lon="9.3631033"><ele>15.600000000000001</ele><time>2026-04-06T09:54:43.599Z</time></trkpt><trkpt lat="44.34746" lon="9.363185"><ele>15.4</ele><time>2026-04-06T09:54:44.599Z</time></trkpt><trkpt lat="44.34737" lon="9.3632567"><ele>15.2</ele><time>2026-04-06T09:54:45.598Z</time></trkpt><trkpt lat="44.34728" lon="9.363315"><ele>15.0</ele><time>2026-04-06T09:54:46.599Z</time></trkpt><trkpt lat="44.3471883" lon="9.3633683"><ele>15.0</ele><time>2026-04-06T09:54:47.599Z</time></trkpt><trkpt lat="44.3470983" lon="9.3634183"><ele>15.0</ele><time>2026-04-06T09:54:48.599Z</time></trkpt><trkpt lat="44.3470033" lon="9.3634717"><ele>15.0</ele><time>2026-04-06T09:54:49.599Z</time></trkpt><trkpt lat="44.3469117" lon="9.3635283"><ele>15.0</ele><time>2026-04-06T09:54:50.599Z</time></trkpt><trkpt lat="44.3468217" lon="9.3635833"><ele>15.0</ele><time>2026-04-06T09:54:51.599Z</time></trkpt><trkpt lat="44.3467333" lon="9.363635"><ele>15.0</ele><time>2026-04-06T09:54:52.598Z</time></trkpt><trkpt lat="44.34665" lon="9.363685"><ele>15.0</ele><time>2026-04-06T09:54:53.599Z</time></trkpt><trkpt lat="44.34657" lon="9.3637267"><ele>15.0</ele><time>2026-04-06T09:54:54.598Z</time></trkpt><trkpt lat="44.346495" lon="9.3637483"><ele>15.0</ele><time>2026-04-06T09:54:55.599Z</time></trkpt><trkpt lat="44.3464267" lon="9.3637417"><ele>15.0</ele><time>2026-04-06T09:54:56.599Z</time></trkpt><trkpt lat="44.3463617" lon="9.3637167"><ele>15.0</ele><time>2026-04-06T09:54:57.597Z</time></trkpt><trkpt lat="44.3462917" lon="9.363675"><ele>17.2</ele><time>2026-04-06T09:54:58.6Z</time></trkpt><trkpt lat="44.3462183" lon="9.3636083"><ele>19.4</ele><time>2026-04-06T09:54:59.598Z</time></trkpt><trkpt lat="44.3461583" lon="9.3635067"><ele>21.6</ele><time>2026-04-06T09:55:00.599Z</time></trkpt><trkpt lat="44.3461083" lon="9.36338"><ele>23.8</ele><time>2026-04-06T09:55:01.597Z</time></trkpt><trkpt lat="44.3460667" lon="9.3632417"><ele>26.0</ele><time>2026-04-06T09:55:02.599Z</time></trkpt><trkpt lat="44.346025" lon="9.363095"><ele>23.5</ele><time>2026-04-06T09:55:03.598Z</time></trkpt><trkpt lat="44.345985" lon="9.3629333"><ele>21.0</ele><time>2026-04-06T09:55:04.598Z</time></trkpt><trkpt lat="44.3459367" lon="9.362765"><ele>18.5</ele><time>2026-04-06T09:55:05.6Z</time></trkpt><trkpt lat="44.3458883" lon="9.36259"><ele>16.0</ele><time>2026-04-06T09:55:06.599Z</time></trkpt><trkpt lat="44.3458367" lon="9.36241"><ele>16.0</ele><time>2026-04-06T09:55:07.599Z</time></trkpt><trkpt lat="44.345785" lon="9.3622283"><ele>16.0</ele><time>2026-04-06T09:55:08.599Z</time></trkpt><trkpt lat="44.3457317" lon="9.3620433"><ele>16.0</ele><time>2026-04-06T09:55:09.599Z</time></trkpt><trkpt lat="44.3456783" lon="9.3618533"><ele>16.0</ele><time>2026-04-06T09:55:10.599Z</time></trkpt><trkpt lat="44.3456233" lon="9.3616583"><ele>16.0</ele><time>2026-04-06T09:55:11.599Z</time></trkpt><trkpt lat="44.3455683" lon="9.3614617"><ele>16.0</ele><time>2026-04-06T09:55:12.598Z</time></trkpt><trkpt lat="44.34551" lon="9.3612667"><ele>16.0</ele><time>2026-04-06T09:55:13.599Z</time></trkpt><trkpt lat="44.3454467" lon="9.361075"><ele>16.0</ele><time>2026-04-06T09:55:14.599Z</time></trkpt><trkpt lat="44.3453733" lon="9.3608933"><ele>16.0</ele><time>2026-04-06T09:55:15.597Z</time></trkpt><trkpt lat="44.3452883" lon="9.3607217"><ele>16.0</ele><time>2026-04-06T09:55:16.597Z</time></trkpt><trkpt lat="44.3451933" lon="9.360555"><ele>15.5</ele><time>2026-04-06T09:55:17.598Z</time></trkpt><trkpt lat="44.3450917" lon="9.3603983"><ele>15.0</ele><time>2026-04-06T09:55:18.599Z</time></trkpt><trkpt lat="44.3449867" lon="9.360255"><ele>14.5</ele><time>2026-04-06T09:55:19.598Z</time></trkpt><trkpt lat="44.3448817" lon="9.3601267"><ele>14.0</ele><time>2026-04-06T09:55:20.598Z</time></trkpt><trkpt lat="44.3447833" lon="9.36001"><ele>14.5</ele><time>2026-04-06T09:55:21.598Z</time></trkpt><trkpt lat="44.3446883" lon="9.3599017"><ele>15.0</ele><time>2026-04-06T09:55:22.598Z</time></trkpt><trkpt lat="44.3445933" lon="9.3597883"><ele>15.5</ele><time>2026-04-06T09:55:23.599Z</time></trkpt><trkpt lat="44.3444967" lon="9.3596783"><ele>16.0</ele><time>2026-04-06T09:55:24.599Z</time></trkpt><trkpt lat="44.3443967" lon="9.3595683"><ele>16.0</ele><time>2026-04-06T09:55:25.598Z</time></trkpt><trkpt lat="44.3442983" lon="9.3594633"><ele>16.0</ele><time>2026-04-06T09:55:26.598Z</time></trkpt><trkpt lat="44.3442067" lon="9.3593617"><ele>16.0</ele><time>2026-04-06T09:55:27.598Z</time></trkpt><trkpt lat="44.3441217" lon="9.359265"><ele>16.0</ele><time>2026-04-06T09:55:28.598Z</time></trkpt><trkpt lat="44.3440417" lon="9.3591683"><ele>16.0</ele><time>2026-04-06T09:55:29.598Z</time></trkpt><trkpt lat="44.343965" lon="9.3590783"><ele>16.0</ele><time>2026-04-06T09:55:30.598Z</time></trkpt><trkpt lat="44.3438917" lon="9.3589917"><ele>16.0</ele><time>2026-04-06T09:55:31.599Z</time></trkpt><trkpt lat="44.343815" lon="9.3589017"><ele>16.0</ele><time>2026-04-06T09:55:32.6Z</time></trkpt><trkpt lat="44.343735" lon="9.3588067"><ele>16.0</ele><time>2026-04-06T09:55:33.598Z</time></trkpt><trkpt lat="44.343655" lon="9.358715"><ele>15.600000000000001</ele><time>2026-04-06T09:55:34.599Z</time></trkpt><trkpt lat="44.3435717" lon="9.3586217"><ele>15.200000000000001</ele><time>2026-04-06T09:55:35.599Z</time></trkpt><trkpt lat="44.3434883" lon="9.3585267"><ele>14.799999999999999</ele><time>2026-04-06T09:55:36.598Z</time></trkpt><trkpt lat="44.343405" lon="9.358435"><ele>14.399999999999999</ele><time>2026-04-06T09:55:37.599Z</time></trkpt><trkpt lat="44.34332" lon="9.35834"><ele>14.0</ele><time>2026-04-06T09:55:38.599Z</time></trkpt><trkpt lat="44.343235" lon="9.3582417"><ele>14.0</ele><time>2026-04-06T09:55:39.599Z</time></trkpt><trkpt lat="44.3431483" lon="9.3581433"><ele>13.999999999999998</ele><time>2026-04-06T09:55:40.599Z</time></trkpt><trkpt lat="44.3430633" lon="9.3580433"><ele>13.999999999999998</ele><time>2026-04-06T09:55:41.598Z</time></trkpt><trkpt lat="44.3429817" lon="9.3579467"><ele>14.0</ele><time>2026-04-06T09:55:42.599Z</time></trkpt><trkpt lat="44.3428983" lon="9.3578517"><ele>14.0</ele><time>2026-04-06T09:55:43.599Z</time></trkpt><trkpt lat="44.3428133" lon="9.357755"><ele>14.75</ele><time>2026-04-06T09:55:44.599Z</time></trkpt><trkpt lat="44.342725" lon="9.3576583"><ele>15.5</ele><time>2026-04-06T09:55:45.598Z</time></trkpt><trkpt lat="44.342635" lon="9.3575567"><ele>16.25</ele><time>2026-04-06T09:55:46.598Z</time></trkpt><trkpt lat="44.34254" lon="9.35745"><ele>17.0</ele><time>2026-04-06T09:55:47.599Z</time></trkpt><trkpt lat="44.34245" lon="9.357335"><ele>16.0</ele><time>2026-04-06T09:55:48.599Z</time></trkpt><trkpt lat="44.3423683" lon="9.3572017"><ele>15.0</ele><time>2026-04-06T09:55:49.597Z</time></trkpt><trkpt lat="44.34229" lon="9.3570633"><ele>14.0</ele><time>2026-04-06T09:55:50.599Z</time></trkpt><trkpt lat="44.3422133" lon="9.3569233"><ele>13.0</ele><time>2026-04-06T09:55:51.599Z</time></trkpt><trkpt lat="44.342135" lon="9.3567833"><ele>13.25</ele><time>2026-04-06T09:55:52.603Z</time></trkpt><trkpt lat="44.342055" lon="9.3566467"><ele>13.5</ele><time>2026-04-06T09:55:53.598Z</time></trkpt><trkpt lat="44.3419733" lon="9.3565117"><ele>13.75</ele><time>2026-04-06T09:55:54.599Z</time></trkpt><trkpt lat="44.3418917" lon="9.356385"><ele>14.0</ele><time>2026-04-06T09:55:55.599Z</time></trkpt><trkpt lat="44.34181" lon="9.35626"><ele>14.0</ele><time>2026-04-06T09:55:56.598Z</time></trkpt><trkpt lat="44.3417267" lon="9.3561367"><ele>14.0</ele><time>2026-04-06T09:55:57.598Z</time></trkpt><trkpt lat="44.3416383" lon="9.3560183"><ele>14.0</ele><time>2026-04-06T09:55:58.599Z</time></trkpt><trkpt lat="44.3415483" lon="9.3559"><ele>14.0</ele><time>2026-04-06T09:55:59.6Z</time></trkpt><trkpt lat="44.34146" lon="9.3557833"><ele>14.25</ele><time>2026-04-06T09:56:00.6Z</time></trkpt><trkpt lat="44.3413683" lon="9.3556717"><ele>14.5</ele><time>2026-04-06T09:56:01.598Z</time></trkpt><trkpt lat="44.3412767" lon="9.3555617"><ele>14.75</ele><time>2026-04-06T09:56:02.599Z</time></trkpt><trkpt lat="44.34118" lon="9.355455"><ele>15.0</ele><time>2026-04-06T09:56:03.6Z</time></trkpt><trkpt lat="44.3410817" lon="9.3553517"><ele>15.0</ele><time>2026-04-06T09:56:04.598Z</time></trkpt><trkpt lat="44.34098" lon="9.3552567"><ele>15.0</ele><time>2026-04-06T09:56:05.598Z</time></trkpt><trkpt lat="44.3408767" lon="9.3551667"><ele>15.0</ele><time>2026-04-06T09:56:06.599Z</time></trkpt><trkpt lat="44.340775" lon="9.3550867"><ele>15.0</ele><time>2026-04-06T09:56:07.598Z</time></trkpt><trkpt lat="44.3406783" lon="9.355015"><ele>15.0</ele><time>2026-04-06T09:56:08.599Z</time></trkpt><trkpt lat="44.3405767" lon="9.354945"><ele>15.0</ele><time>2026-04-06T09:56:09.599Z</time></trkpt><trkpt lat="44.3404767" lon="9.35488"><ele>15.0</ele><time>2026-04-06T09:56:10.597Z</time></trkpt><trkpt lat="44.340375" lon="9.354815"><ele>15.0</ele><time>2026-04-06T09:56:11.599Z</time></trkpt><trkpt lat="44.340275" lon="9.3547517"><ele>15.0</ele><time>2026-04-06T09:56:12.6Z</time></trkpt><trkpt lat="44.340175" lon="9.3546883"><ele>14.4</ele><time>2026-04-06T09:56:13.598Z</time></trkpt><trkpt lat="44.3400767" lon="9.354625"><ele>13.8</ele><time>2026-04-06T09:56:14.599Z</time></trkpt><trkpt lat="44.3399767" lon="9.3545633"><ele>13.2</ele><time>2026-04-06T09:56:15.599Z</time></trkpt><trkpt lat="44.3398717" lon="9.3545033"><ele>12.6</ele><time>2026-04-06T09:56:16.599Z</time></trkpt><trkpt lat="44.33977" lon="9.35444"><ele>12.0</ele><time>2026-04-06T09:56:17.598Z</time></trkpt><trkpt lat="44.3396683" lon="9.3543783"><ele>12.0</ele><time>2026-04-06T09:56:18.599Z</time></trkpt><trkpt lat="44.3395683" lon="9.3543183"><ele>12.0</ele><time>2026-04-06T09:56:19.6Z</time></trkpt><trkpt lat="44.3394767" lon="9.3542567"><ele>12.0</ele><time>2026-04-06T09:56:20.6Z</time></trkpt><trkpt lat="44.3393883" lon="9.3542"><ele>12.0</ele><time>2026-04-06T09:56:21.598Z</time></trkpt><trkpt lat="44.3392967" lon="9.354145"><ele>12.0</ele><time>2026-04-06T09:56:22.599Z</time></trkpt><trkpt lat="44.3392067" lon="9.3540883"><ele>12.0</ele><time>2026-04-06T09:56:23.598Z</time></trkpt><trkpt lat="44.339115" lon="9.3540267"><ele>12.0</ele><time>2026-04-06T09:56:24.598Z</time></trkpt><trkpt lat="44.3390217" lon="9.3539667"><ele>12.0</ele><time>2026-04-06T09:56:25.598Z</time></trkpt><trkpt lat="44.3389267" lon="9.3539083"><ele>12.0</ele><time>2026-04-06T09:56:26.6Z</time></trkpt><trkpt lat="44.33883" lon="9.35385"><ele>12.0</ele><time>2026-04-06T09:56:27.598Z</time></trkpt><trkpt lat="44.3387333" lon="9.3537933"><ele>12.2</ele><time>2026-04-06T09:56:28.599Z</time></trkpt><trkpt lat="44.3386333" lon="9.3537317"><ele>12.399999999999999</ele><time>2026-04-06T09:56:29.599Z</time></trkpt><trkpt lat="44.3385333" lon="9.3536717"><ele>12.600000000000001</ele><time>2026-04-06T09:56:30.599Z</time></trkpt><trkpt lat="44.3384367" lon="9.35361"><ele>12.8</ele><time>2026-04-06T09:56:31.599Z</time></trkpt><trkpt lat="44.33834" lon="9.353545"><ele>13.0</ele><time>2026-04-06T09:56:32.599Z</time></trkpt><trkpt lat="44.3382417" lon="9.35348"><ele>13.0</ele><time>2026-04-06T09:56:33.599Z</time></trkpt><trkpt lat="44.33814" lon="9.3534183"><ele>13.0</ele><time>2026-04-06T09:56:34.599Z</time></trkpt><trkpt lat="44.33804" lon="9.3533567"><ele>13.0</ele><time>2026-04-06T09:56:35.599Z</time></trkpt><trkpt lat="44.337945" lon="9.3532933"><ele>13.0</ele><time>2026-04-06T09:56:36.597Z</time></trkpt><trkpt lat="44.3378517" lon="9.3532333"><ele>13.0</ele><time>2026-04-06T09:56:37.599Z</time></trkpt><trkpt lat="44.3377617" lon="9.3531767"><ele>13.0</ele><time>2026-04-06T09:56:38.599Z</time></trkpt><trkpt lat="44.3376733" lon="9.3531217"><ele>13.0</ele><time>2026-04-06T09:56:39.599Z</time></trkpt><trkpt lat="44.3375817" lon="9.3530683"><ele>13.0</ele><time>2026-04-06T09:56:40.598Z</time></trkpt><trkpt lat="44.3374917" lon="9.3530117"><ele>13.0</ele><time>2026-04-06T09:56:41.599Z</time></trkpt><trkpt lat="44.3373967" lon="9.3529517"><ele>13.0</ele><time>2026-04-06T09:56:42.598Z</time></trkpt><trkpt lat="44.3373033" lon="9.3528917"><ele>13.0</ele><time>2026-04-06T09:56:43.599Z</time></trkpt><trkpt lat="44.337215" lon="9.3528333"><ele>13.0</ele><time>2026-04-06T09:56:44.6Z</time></trkpt><trkpt lat="44.3371267" lon="9.3527767"><ele>13.0</ele><time>2026-04-06T09:56:45.599Z</time></trkpt><trkpt lat="44.33704" lon="9.3527217"><ele>13.0</ele><time>2026-04-06T09:56:46.599Z</time></trkpt><trkpt lat="44.3369567" lon="9.35267"><ele>13.0</ele><time>2026-04-06T09:56:47.602Z</time></trkpt><trkpt lat="44.3368833" lon="9.3526217"><ele>12.999999999999998</ele><time>2026-04-06T09:56:48.598Z</time></trkpt><trkpt lat="44.3368133" lon="9.352575"><ele>13.0</ele><time>2026-04-06T09:56:49.598Z</time></trkpt><trkpt lat="44.3367417" lon="9.3525283"><ele>13.0</ele><time>2026-04-06T09:56:50.599Z</time></trkpt><trkpt lat="44.3366667" lon="9.35248"><ele>13.0</ele><time>2026-04-06T09:56:51.599Z</time></trkpt><trkpt lat="44.33659" lon="9.3524317"><ele>12.999999999999998</ele><time>2026-04-06T09:56:52.598Z</time></trkpt><trkpt lat="44.3365133" lon="9.352385"><ele>13.0</ele><time>2026-04-06T09:56:53.598Z</time></trkpt><trkpt lat="44.336435" lon="9.352335"><ele>12.999999999999998</ele><time>2026-04-06T09:56:54.6Z</time></trkpt><trkpt lat="44.33635" lon="9.352285"><ele>13.0</ele><time>2026-04-06T09:56:55.599Z</time></trkpt><trkpt lat="44.33627" lon="9.3522367"><ele>13.0</ele><time>2026-04-06T09:56:56.599Z</time></trkpt><trkpt lat="44.336195" lon="9.352185"><ele>13.0</ele><time>2026-04-06T09:56:57.599Z</time></trkpt><trkpt lat="44.3361183" lon="9.3521317"><ele>12.999999999999998</ele><time>2026-04-06T09:56:58.598Z</time></trkpt><trkpt lat="44.33604" lon="9.35208"><ele>13.0</ele><time>2026-04-06T09:56:59.599Z</time></trkpt><trkpt lat="44.33596" lon="9.3520283"><ele>13.0</ele><time>2026-04-06T09:57:00.598Z</time></trkpt><trkpt lat="44.3358783" lon="9.3519767"><ele>13.0</ele><time>2026-04-06T09:57:01.599Z</time></trkpt><trkpt lat="44.3357933" lon="9.3519233"><ele>13.0</ele><time>2026-04-06T09:57:02.6Z</time></trkpt><trkpt lat="44.335705" lon="9.35187"><ele>13.0</ele><time>2026-04-06T09:57:03.598Z</time></trkpt><trkpt lat="44.3356167" lon="9.3518167"><ele>13.0</ele><time>2026-04-06T09:57:04.6Z</time></trkpt><trkpt lat="44.3355283" lon="9.3517617"><ele>13.0</ele><time>2026-04-06T09:57:05.599Z</time></trkpt><trkpt lat="44.33544" lon="9.3517067"><ele>13.0</ele><time>2026-04-06T09:57:06.599Z</time></trkpt><trkpt lat="44.33535" lon="9.35165"><ele>13.0</ele><time>2026-04-06T09:57:07.599Z</time></trkpt><trkpt lat="44.3352617" lon="9.3515917"><ele>13.0</ele><time>2026-04-06T09:57:08.598Z</time></trkpt><trkpt lat="44.3351717" lon="9.3515333"><ele>13.0</ele><time>2026-04-06T09:57:09.599Z</time></trkpt><trkpt lat="44.3350767" lon="9.351475"><ele>13.0</ele><time>2026-04-06T09:57:10.598Z</time></trkpt><trkpt lat="44.3349817" lon="9.351415"><ele>13.0</ele><time>2026-04-06T09:57:11.6Z</time></trkpt><trkpt lat="44.33489" lon="9.3513583"><ele>13.0</ele><time>2026-04-06T09:57:12.599Z</time></trkpt><trkpt lat="44.3348033" lon="9.3513067"><ele>13.0</ele><time>2026-04-06T09:57:13.599Z</time></trkpt><trkpt lat="44.3347217" lon="9.35126"><ele>13.0</ele><time>2026-04-06T09:57:14.599Z</time></trkpt><trkpt lat="44.3346383" lon="9.3512183"><ele>12.8</ele><time>2026-04-06T09:57:15.599Z</time></trkpt><trkpt lat="44.3345567" lon="9.3511733"><ele>12.600000000000001</ele><time>2026-04-06T09:57:16.6Z</time></trkpt><trkpt lat="44.334475" lon="9.351135"><ele>12.399999999999999</ele><time>2026-04-06T09:57:17.598Z</time></trkpt><trkpt lat="44.3343867" lon="9.3511017"><ele>12.2</ele><time>2026-04-06T09:57:18.597Z</time></trkpt><trkpt lat="44.3342967" lon="9.351065"><ele>12.0</ele><time>2026-04-06T09:57:19.599Z</time></trkpt><trkpt lat="44.3342083" lon="9.3510283"><ele>12.0</ele><time>2026-04-06T09:57:20.601Z</time></trkpt><trkpt lat="44.33412" lon="9.351"><ele>12.0</ele><time>2026-04-06T09:57:21.598Z</time></trkpt><trkpt lat="44.3340317" lon="9.3509717"><ele>12.0</ele><time>2026-04-06T09:57:22.599Z</time></trkpt><trkpt lat="44.3339417" lon="9.3509467"><ele>12.0</ele><time>2026-04-06T09:57:23.599Z</time></trkpt><trkpt lat="44.3338567" lon="9.350925"><ele>12.0</ele><time>2026-04-06T09:57:24.598Z</time></trkpt><trkpt lat="44.333775" lon="9.3509067"><ele>12.0</ele><time>2026-04-06T09:57:25.599Z</time></trkpt><trkpt lat="44.3337" lon="9.35089"><ele>12.0</ele><time>2026-04-06T09:57:26.599Z</time></trkpt><trkpt lat="44.3336267" lon="9.3508783"><ele>12.0</ele><time>2026-04-06T09:57:27.599Z</time></trkpt><trkpt lat="44.3335583" lon="9.3508733"><ele>12.0</ele><time>2026-04-06T09:57:28.6Z</time></trkpt><trkpt lat="44.3334667" lon="9.3508667"><ele>12.0</ele><time>2026-04-06T09:57:30.599Z</time></trkpt><trkpt lat="44.3333967" lon="9.3508733"><ele>12.0</ele><time>2026-04-06T09:57:45.598Z</time></trkpt><trkpt lat="44.3333233" lon="9.3508783"><ele>12.0</ele><time>2026-04-06T09:57:51.599Z</time></trkpt><trkpt lat="44.33325" lon="9.3508567"><ele>12.0</ele><time>2026-04-06T09:57:59.599Z</time></trkpt><trkpt lat="44.333175" lon="9.3508033"><ele>12.0</ele><time>2026-04-06T09:58:01.597Z</time></trkpt><trkpt lat="44.33308" lon="9.3508067"><ele>12.0</ele><time>2026-04-06T09:58:03.6Z</time></trkpt><trkpt lat="44.3329967" lon="9.3509383"><ele>12.0</ele><time>2026-04-06T09:58:05.598Z</time></trkpt><trkpt lat="44.3329483" lon="9.3510083"><ele>12.0</ele><time>2026-04-06T09:58:06.597Z</time></trkpt><trkpt lat="44.332855" lon="9.3510883"><ele>12.0</ele><time>2026-04-06T09:58:08.6Z</time></trkpt><trkpt lat="44.3327648" lon="9.3511535"><ele>12.0</ele><time>2026-04-06T09:58:10.599Z</time></trkpt><trkpt lat="44.3326641" lon="9.3512193"><ele>12.0</ele><time>2026-04-06T09:58:12.599Z</time></trkpt><trkpt lat="44.3326073" lon="9.3512583"><ele>12.0</ele><time>2026-04-06T09:58:13.599Z</time></trkpt><trkpt lat="44.332543" lon="9.3513046"><ele>12.0</ele><time>2026-04-06T09:58:14.599Z</time></trkpt><trkpt lat="44.3324787" lon="9.3513488"><ele>12.0</ele><time>2026-04-06T09:58:15.599Z</time></trkpt><trkpt lat="44.3324168" lon="9.3513891"><ele>12.0</ele><time>2026-04-06T09:58:16.599Z</time></trkpt><trkpt lat="44.3323041" lon="9.3514554"><ele>12.0</ele><time>2026-04-06T09:58:18.599Z</time></trkpt><trkpt lat="44.3322413" lon="9.3514864"><ele>12.0</ele><time>2026-04-06T09:58:19.599Z</time></trkpt><trkpt lat="44.3321741" lon="9.3515149"><ele>12.0</ele><time>2026-04-06T09:58:20.598Z</time></trkpt><trkpt lat="44.3321075" lon="9.3515404"><ele>12.0</ele><time>2026-04-06T09:58:21.599Z</time></trkpt><trkpt lat="44.3320451" lon="9.3515662"><ele>12.0</ele><time>2026-04-06T09:58:22.599Z</time></trkpt><trkpt lat="44.331938" lon="9.3516075"><ele>11.4</ele><time>2026-04-06T09:58:24.599Z</time></trkpt><trkpt lat="44.3318473" lon="9.3516261"><ele>10.799999999999999</ele><time>2026-04-06T09:58:26.6Z</time></trkpt><trkpt lat="44.3317649" lon="9.3516434"><ele>10.2</ele><time>2026-04-06T09:58:28.599Z</time></trkpt><trkpt lat="44.3316648" lon="9.3516745"><ele>9.6</ele><time>2026-04-06T09:58:30.599Z</time></trkpt><trkpt lat="44.331556" lon="9.3517078"><ele>9.0</ele><time>2026-04-06T09:58:32.599Z</time></trkpt><trkpt lat="44.3314754" lon="9.3517288"><ele>9.0</ele><time>2026-04-06T09:58:34.599Z</time></trkpt><trkpt lat="44.3314061" lon="9.351748"><ele>9.0</ele><time>2026-04-06T09:58:36.599Z</time></trkpt><trkpt lat="44.3313132" lon="9.3517737"><ele>9.0</ele><time>2026-04-06T09:58:38.599Z</time></trkpt><trkpt lat="44.3311936" lon="9.3518039"><ele>9.0</ele><time>2026-04-06T09:58:40.599Z</time></trkpt><trkpt lat="44.3310734" lon="9.3518402"><ele>9.0</ele><time>2026-04-06T09:58:42.6Z</time></trkpt><trkpt lat="44.3310064" lon="9.3518602"><ele>9.000000000000002</ele><time>2026-04-06T09:58:43.6Z</time></trkpt><trkpt lat="44.3309403" lon="9.3518779"><ele>9.0</ele><time>2026-04-06T09:58:44.6Z</time></trkpt><trkpt lat="44.3308769" lon="9.3518963"><ele>9.0</ele><time>2026-04-06T09:58:45.599Z</time></trkpt><trkpt lat="44.330809" lon="9.3519124"><ele>9.0</ele><time>2026-04-06T09:58:46.599Z</time></trkpt><trkpt lat="44.330733" lon="9.3519308"><ele>9.0</ele><time>2026-04-06T09:58:47.599Z</time></trkpt><trkpt lat="44.3306502" lon="9.351948"><ele>9.000000000000002</ele><time>2026-04-06T09:58:48.599Z</time></trkpt><trkpt lat="44.3305692" lon="9.3519613"><ele>9.0</ele><time>2026-04-06T09:58:49.599Z</time></trkpt><trkpt lat="44.3304934" lon="9.3519699"><ele>9.166666666666666</ele><time>2026-04-06T09:58:50.599Z</time></trkpt><trkpt lat="44.33043" lon="9.3519746"><ele>9.333333333333334</ele><time>2026-04-06T09:58:51.599Z</time></trkpt><trkpt lat="44.3303403" lon="9.3519884"><ele>9.5</ele><time>2026-04-06T09:58:53.598Z</time></trkpt><trkpt lat="44.330276" lon="9.3520047"><ele>9.666666666666668</ele><time>2026-04-06T09:58:56.6Z</time></trkpt><trkpt lat="44.3301683" lon="9.3520367"><ele>9.833333333333334</ele><time>2026-04-06T09:59:33.6Z</time></trkpt><trkpt lat="44.3301" lon="9.352045"><ele>10.0</ele><time>2026-04-06T09:59:34.6Z</time></trkpt><trkpt lat="44.3300233" lon="9.352045"><ele>10.0</ele><time>2026-04-06T09:59:35.6Z</time></trkpt><trkpt lat="44.3299383" lon="9.3520317"><ele>10.0</ele><time>2026-04-06T09:59:36.599Z</time></trkpt><trkpt lat="44.3298483" lon="9.3520117"><ele>10.0</ele><time>2026-04-06T09:59:37.598Z</time></trkpt><trkpt lat="44.3297567" lon="9.3519833"><ele>10.0</ele><time>2026-04-06T09:59:38.599Z</time></trkpt><trkpt lat="44.329665" lon="9.3519533"><ele>10.0</ele><time>2026-04-06T09:59:39.599Z</time></trkpt><trkpt lat="44.32958" lon="9.35192"><ele>10.333333333333334</ele><time>2026-04-06T09:59:40.6Z</time></trkpt><trkpt lat="44.32949" lon="9.3518883"><ele>10.666666666666668</ele><time>2026-04-06T09:59:41.599Z</time></trkpt><trkpt lat="44.3294017" lon="9.3518583"><ele>11.0</ele><time>2026-04-06T09:59:42.599Z</time></trkpt><trkpt lat="44.32932" lon="9.35183"><ele>11.333333333333334</ele><time>2026-04-06T09:59:43.599Z</time></trkpt><trkpt lat="44.329245" lon="9.3518017"><ele>11.666666666666666</ele><time>2026-04-06T09:59:44.599Z</time></trkpt><trkpt lat="44.3291667" lon="9.35177"><ele>12.0</ele><time>2026-04-06T09:59:45.599Z</time></trkpt><trkpt lat="44.3290883" lon="9.3517383"><ele>12.0</ele><time>2026-04-06T09:59:46.599Z</time></trkpt><trkpt lat="44.329015" lon="9.3517133"><ele>12.0</ele><time>2026-04-06T09:59:47.599Z</time></trkpt><trkpt lat="44.3289467" lon="9.3516933"><ele>12.0</ele><time>2026-04-06T09:59:48.599Z</time></trkpt><trkpt lat="44.3288433" lon="9.35165"><ele>12.0</ele><time>2026-04-06T09:59:50.599Z</time></trkpt><trkpt lat="44.3287783" lon="9.3516283"><ele>12.0</ele><time>2026-04-06T09:59:51.6Z</time></trkpt><trkpt lat="44.3286983" lon="9.3515933"><ele>12.0</ele><time>2026-04-06T09:59:52.599Z</time></trkpt><trkpt lat="44.3285983" lon="9.3515567"><ele>12.0</ele><time>2026-04-06T09:59:53.601Z</time></trkpt><trkpt lat="44.3284917" lon="9.3515117"><ele>12.0</ele><time>2026-04-06T09:59:54.6Z</time></trkpt><trkpt lat="44.32838" lon="9.3514717"><ele>12.0</ele><time>2026-04-06T09:59:55.6Z</time></trkpt><trkpt lat="44.32826" lon="9.3514283"><ele>12.0</ele><time>2026-04-06T09:59:56.599Z</time></trkpt><trkpt lat="44.328135" lon="9.35138"><ele>11.25</ele><time>2026-04-06T09:59:57.599Z</time></trkpt><trkpt lat="44.3280133" lon="9.3513333"><ele>10.5</ele><time>2026-04-06T09:59:58.599Z</time></trkpt><trkpt lat="44.3279017" lon="9.351285"><ele>9.75</ele><time>2026-04-06T09:59:59.599Z</time></trkpt><trkpt lat="44.3277917" lon="9.351235"><ele>9.0</ele><time>2026-04-06T10:00:00.599Z</time></trkpt><trkpt lat="44.3276867" lon="9.3511917"><ele>9.0</ele><time>2026-04-06T10:00:01.599Z</time></trkpt><trkpt lat="44.3275833" lon="9.3511533"><ele>9.0</ele><time>2026-04-06T10:00:02.6Z</time></trkpt><trkpt lat="44.3274833" lon="9.3511183"><ele>9.0</ele><time>2026-04-06T10:00:03.599Z</time></trkpt><trkpt lat="44.3273867" lon="9.3510833"><ele>9.0</ele><time>2026-04-06T10:00:04.599Z</time></trkpt><trkpt lat="44.3272883" lon="9.3510467"><ele>9.0</ele><time>2026-04-06T10:00:05.599Z</time></trkpt><trkpt lat="44.3271883" lon="9.35101"><ele>8.8</ele><time>2026-04-06T10:00:06.599Z</time></trkpt><trkpt lat="44.327095" lon="9.3509717"><ele>8.600000000000001</ele><time>2026-04-06T10:00:07.599Z</time></trkpt><trkpt lat="44.3270017" lon="9.350935"><ele>8.4</ele><time>2026-04-06T10:00:08.6Z</time></trkpt><trkpt lat="44.3269067" lon="9.350895"><ele>8.200000000000001</ele><time>2026-04-06T10:00:09.599Z</time></trkpt><trkpt lat="44.326815" lon="9.3508583"><ele>8.0</ele><time>2026-04-06T10:00:10.6Z</time></trkpt><trkpt lat="44.32672" lon="9.3508217"><ele>8.0</ele><time>2026-04-06T10:00:11.599Z</time></trkpt><trkpt lat="44.3266283" lon="9.3507833"><ele>8.0</ele><time>2026-04-06T10:00:12.599Z</time></trkpt><trkpt lat="44.3265417" lon="9.3507467"><ele>8.0</ele><time>2026-04-06T10:00:13.599Z</time></trkpt><trkpt lat="44.3264533" lon="9.350715"><ele>8.0</ele><time>2026-04-06T10:00:14.599Z</time></trkpt><trkpt lat="44.326365" lon="9.3506817"><ele>8.0</ele><time>2026-04-06T10:00:15.599Z</time></trkpt><trkpt lat="44.326275" lon="9.350645"><ele>7.800000000000001</ele><time>2026-04-06T10:00:16.599Z</time></trkpt><trkpt lat="44.3261833" lon="9.3506117"><ele>7.6000000000000005</ele><time>2026-04-06T10:00:17.599Z</time></trkpt><trkpt lat="44.3260867" lon="9.3505767"><ele>7.3999999999999995</ele><time>2026-04-06T10:00:18.599Z</time></trkpt><trkpt lat="44.3259867" lon="9.35054"><ele>7.199999999999999</ele><time>2026-04-06T10:00:19.599Z</time></trkpt><trkpt lat="44.3258867" lon="9.3505017"><ele>7.0</ele><time>2026-04-06T10:00:20.6Z</time></trkpt><trkpt lat="44.3257917" lon="9.3504617"><ele>6.8</ele><time>2026-04-06T10:00:21.599Z</time></trkpt><trkpt lat="44.3257017" lon="9.3504233"><ele>6.6</ele><time>2026-04-06T10:00:22.598Z</time></trkpt><trkpt lat="44.3256083" lon="9.3503883"><ele>6.3999999999999995</ele><time>2026-04-06T10:00:23.6Z</time></trkpt><trkpt lat="44.32552" lon="9.3503533"><ele>6.199999999999999</ele><time>2026-04-06T10:00:24.598Z</time></trkpt><trkpt lat="44.3254333" lon="9.3503217"><ele>6.0</ele><time>2026-04-06T10:00:25.599Z</time></trkpt><trkpt lat="44.3253433" lon="9.3502867"><ele>6.4</ele><time>2026-04-06T10:00:26.6Z</time></trkpt><trkpt lat="44.3252483" lon="9.3502567"><ele>6.8</ele><time>2026-04-06T10:00:27.599Z</time></trkpt><trkpt lat="44.325155" lon="9.350235"><ele>7.200000000000001</ele><time>2026-04-06T10:00:28.6Z</time></trkpt><trkpt lat="44.3250617" lon="9.350215"><ele>7.6000000000000005</ele><time>2026-04-06T10:00:29.601Z</time></trkpt><trkpt lat="44.32496" lon="9.3501933"><ele>8.0</ele><time>2026-04-06T10:00:30.598Z</time></trkpt><trkpt lat="44.3248583" lon="9.350175"><ele>8.0</ele><time>2026-04-06T10:00:31.603Z</time></trkpt><trkpt lat="44.3247617" lon="9.3501567"><ele>8.0</ele><time>2026-04-06T10:00:32.599Z</time></trkpt><trkpt lat="44.3246633" lon="9.3501417"><ele>8.0</ele><time>2026-04-06T10:00:33.599Z</time></trkpt><trkpt lat="44.32456" lon="9.3501217"><ele>8.0</ele><time>2026-04-06T10:00:34.6Z</time></trkpt><trkpt lat="44.3244567" lon="9.3500933"><ele>8.0</ele><time>2026-04-06T10:00:35.599Z</time></trkpt><trkpt lat="44.32435" lon="9.3500583"><ele>8.25</ele><time>2026-04-06T10:00:36.599Z</time></trkpt><trkpt lat="44.3242433" lon="9.35002"><ele>8.5</ele><time>2026-04-06T10:00:37.598Z</time></trkpt><trkpt lat="44.324135" lon="9.3499683"><ele>8.75</ele><time>2026-04-06T10:00:38.598Z</time></trkpt><trkpt lat="44.3240283" lon="9.3499083"><ele>9.0</ele><time>2026-04-06T10:00:39.599Z</time></trkpt><trkpt lat="44.3239233" lon="9.3498417"><ele>8.75</ele><time>2026-04-06T10:00:40.599Z</time></trkpt><trkpt lat="44.3238183" lon="9.349775"><ele>8.5</ele><time>2026-04-06T10:00:41.6Z</time></trkpt><trkpt lat="44.3237117" lon="9.3497167"><ele>8.25</ele><time>2026-04-06T10:00:42.598Z</time></trkpt><trkpt lat="44.3236033" lon="9.34967"><ele>8.0</ele><time>2026-04-06T10:00:43.6Z</time></trkpt><trkpt lat="44.323495" lon="9.3496367"><ele>8.0</ele><time>2026-04-06T10:00:44.6Z</time></trkpt><trkpt lat="44.32339" lon="9.349615"><ele>8.0</ele><time>2026-04-06T10:00:45.599Z</time></trkpt><trkpt lat="44.3232867" lon="9.3495983"><ele>8.0</ele><time>2026-04-06T10:00:46.6Z</time></trkpt><trkpt lat="44.3231833" lon="9.3495867"><ele>8.0</ele><time>2026-04-06T10:00:47.6Z</time></trkpt><trkpt lat="44.323085" lon="9.3495717"><ele>8.0</ele><time>2026-04-06T10:00:48.599Z</time></trkpt><trkpt lat="44.3229833" lon="9.3495617"><ele>8.0</ele><time>2026-04-06T10:00:49.6Z</time></trkpt><trkpt lat="44.3228733" lon="9.3495467"><ele>8.0</ele><time>2026-04-06T10:00:50.6Z</time></trkpt><trkpt lat="44.3227517" lon="9.3495267"><ele>8.0</ele><time>2026-04-06T10:00:51.6Z</time></trkpt><trkpt lat="44.3226283" lon="9.3494983"><ele>8.0</ele><time>2026-04-06T10:00:52.598Z</time></trkpt><trkpt lat="44.3225" lon="9.3494683"><ele>8.0</ele><time>2026-04-06T10:00:53.6Z</time></trkpt><trkpt lat="44.32237" lon="9.3494283"><ele>8.0</ele><time>2026-04-06T10:00:54.598Z</time></trkpt><trkpt lat="44.322245" lon="9.3493783"><ele>8.0</ele><time>2026-04-06T10:00:55.599Z</time></trkpt><trkpt lat="44.322125" lon="9.34932"><ele>8.0</ele><time>2026-04-06T10:00:56.6Z</time></trkpt><trkpt lat="44.3220133" lon="9.3492517"><ele>8.75</ele><time>2026-04-06T10:00:57.598Z</time></trkpt><trkpt lat="44.321905" lon="9.3491817"><ele>9.5</ele><time>2026-04-06T10:00:58.599Z</time></trkpt><trkpt lat="44.3218033" lon="9.34911"><ele>10.25</ele><time>2026-04-06T10:00:59.598Z</time></trkpt><trkpt lat="44.321705" lon="9.3490383"><ele>11.0</ele><time>2026-04-06T10:01:00.599Z</time></trkpt><trkpt lat="44.3216083" lon="9.3489683"><ele>11.0</ele><time>2026-04-06T10:01:01.598Z</time></trkpt><trkpt lat="44.321515" lon="9.3489017"><ele>11.0</ele><time>2026-04-06T10:01:02.6Z</time></trkpt><trkpt lat="44.3214267" lon="9.3488367"><ele>11.0</ele><time>2026-04-06T10:01:03.6Z</time></trkpt><trkpt lat="44.3213433" lon="9.3487783"><ele>11.0</ele><time>2026-04-06T10:01:04.599Z</time></trkpt><trkpt lat="44.32127" lon="9.3487217"><ele>11.0</ele><time>2026-04-06T10:01:05.599Z</time></trkpt><trkpt lat="44.321205" lon="9.3486717"><ele>10.333333333333332</ele><time>2026-04-06T10:01:06.599Z</time></trkpt><trkpt lat="44.3211167" lon="9.3486017"><ele>9.666666666666666</ele><time>2026-04-06T10:01:08.6Z</time></trkpt><trkpt lat="44.3210467" lon="9.3485583"><ele>9.0</ele><time>2026-04-06T10:01:13.6Z</time></trkpt><trkpt lat="44.3209767" lon="9.3485117"><ele>8.333333333333334</ele><time>2026-04-06T10:01:17.599Z</time></trkpt><trkpt lat="44.3209033" lon="9.3484617"><ele>7.666666666666667</ele><time>2026-04-06T10:01:22.599Z</time></trkpt><trkpt lat="44.3208517" lon="9.3484067"><ele>7.0</ele><time>2026-04-06T10:01:24.599Z</time></trkpt><trkpt lat="44.3207867" lon="9.3483083"><ele>7.0</ele><time>2026-04-06T10:01:26.599Z</time></trkpt><trkpt lat="44.3207083" lon="9.3482233"><ele>6.999999999999999</ele><time>2026-04-06T10:01:28.598Z</time></trkpt><trkpt lat="44.3206117" lon="9.3482317"><ele>6.999999999999999</ele><time>2026-04-06T10:01:30.598Z</time></trkpt><trkpt lat="44.320545" lon="9.3483217"><ele>7.0</ele><time>2026-04-06T10:01:32.6Z</time></trkpt><trkpt lat="44.3205567" lon="9.3484617"><ele>7.0</ele><time>2026-04-06T10:01:34.598Z</time></trkpt><trkpt lat="44.320595" lon="9.34855"><ele>7.000000000000001</ele><time>2026-04-06T10:01:35.6Z</time></trkpt><trkpt lat="44.3206433" lon="9.3486483"><ele>7.0</ele><time>2026-04-06T10:01:36.6Z</time></trkpt><trkpt lat="44.320695" lon="9.3487483"><ele>7.0</ele><time>2026-04-06T10:01:37.6Z</time></trkpt><trkpt lat="44.3207417" lon="9.348845"><ele>7.0</ele><time>2026-04-06T10:01:38.599Z</time></trkpt><trkpt lat="44.3207817" lon="9.3489417"><ele>7.000000000000001</ele><time>2026-04-06T10:01:39.599Z</time></trkpt><trkpt lat="44.32081" lon="9.3490383"><ele>7.0</ele><time>2026-04-06T10:01:40.598Z</time></trkpt><trkpt lat="44.32082" lon="9.3491317"><ele>8.333333333333334</ele><time>2026-04-06T10:01:41.599Z</time></trkpt><trkpt lat="44.3207633" lon="9.3492767"><ele>9.666666666666668</ele><time>2026-04-06T10:01:43.598Z</time></trkpt><trkpt lat="44.3207017" lon="9.3493217"><ele>11.0</ele><time>2026-04-06T10:01:44.6Z</time></trkpt><trkpt lat="44.320635" lon="9.34934"><ele>12.333333333333334</ele><time>2026-04-06T10:01:45.598Z</time></trkpt><trkpt lat="44.3205683" lon="9.349315"><ele>13.666666666666666</ele><time>2026-04-06T10:01:46.599Z</time></trkpt><trkpt lat="44.3205067" lon="9.3492583"><ele>15.0</ele><time>2026-04-06T10:01:47.599Z</time></trkpt><trkpt lat="44.3204583" lon="9.3491717"><ele>16.0</ele><time>2026-04-06T10:01:48.599Z</time></trkpt><trkpt lat="44.3204283" lon="9.3490483"><ele>17.0</ele><time>2026-04-06T10:01:49.599Z</time></trkpt><trkpt lat="44.3204133" lon="9.3489"><ele>18.0</ele><time>2026-04-06T10:01:50.6Z</time></trkpt><trkpt lat="44.32039" lon="9.3487517"><ele>19.0</ele><time>2026-04-06T10:01:51.599Z</time></trkpt><trkpt lat="44.32036" lon="9.3486117"><ele>20.0</ele><time>2026-04-06T10:01:52.599Z</time></trkpt><trkpt lat="44.3203133" lon="9.3484883"><ele>20.0</ele><time>2026-04-06T10:01:53.599Z</time></trkpt><trkpt lat="44.3202483" lon="9.34838"><ele>20.0</ele><time>2026-04-06T10:01:54.6Z</time></trkpt><trkpt lat="44.32017" lon="9.3482983"><ele>20.0</ele><time>2026-04-06T10:01:55.6Z</time></trkpt><trkpt lat="44.320075" lon="9.3482383"><ele>20.0</ele><time>2026-04-06T10:01:56.599Z</time></trkpt><trkpt lat="44.3199717" lon="9.348205"><ele>20.0</ele><time>2026-04-06T10:01:57.598Z</time></trkpt><trkpt lat="44.319855" lon="9.3481867"><ele>20.0</ele><time>2026-04-06T10:01:58.598Z</time></trkpt><trkpt lat="44.319735" lon="9.3481667"><ele>20.0</ele><time>2026-04-06T10:01:59.599Z</time></trkpt><trkpt lat="44.319615" lon="9.3481317"><ele>20.0</ele><time>2026-04-06T10:02:00.598Z</time></trkpt><trkpt lat="44.3195033" lon="9.3480717"><ele>20.0</ele><time>2026-04-06T10:02:01.598Z</time></trkpt><trkpt lat="44.3193967" lon="9.3479983"><ele>19.0</ele><time>2026-04-06T10:02:02.599Z</time></trkpt><trkpt lat="44.3192967" lon="9.3479283"><ele>18.0</ele><time>2026-04-06T10:02:03.597Z</time></trkpt><trkpt lat="44.31919" lon="9.3478717"><ele>17.0</ele><time>2026-04-06T10:02:04.598Z</time></trkpt><trkpt lat="44.3190767" lon="9.3478383"><ele>16.0</ele><time>2026-04-06T10:02:05.597Z</time></trkpt><trkpt lat="44.3189633" lon="9.34784"><ele>18.200000000000003</ele><time>2026-04-06T10:02:06.598Z</time></trkpt><trkpt lat="44.3188583" lon="9.3478733"><ele>20.400000000000002</ele><time>2026-04-06T10:02:07.597Z</time></trkpt><trkpt lat="44.3187633" lon="9.34794"><ele>22.6</ele><time>2026-04-06T10:02:08.598Z</time></trkpt><trkpt lat="44.3186883" lon="9.3480333"><ele>24.8</ele><time>2026-04-06T10:02:09.598Z</time></trkpt><trkpt lat="44.31863" lon="9.34813"><ele>27.0</ele><time>2026-04-06T10:02:10.597Z</time></trkpt><trkpt lat="44.318585" lon="9.3482267"><ele>28.333333333333332</ele><time>2026-04-06T10:02:11.597Z</time></trkpt><trkpt lat="44.3185517" lon="9.3483167"><ele>29.666666666666664</ele><time>2026-04-06T10:02:12.598Z</time></trkpt><trkpt lat="44.3185267" lon="9.3483983"><ele>31.0</ele><time>2026-04-06T10:02:13.599Z</time></trkpt><trkpt lat="44.3185117" lon="9.3485417"><ele>32.33333333333333</ele><time>2026-04-06T10:02:15.597Z</time></trkpt><trkpt lat="44.31853" lon="9.3486467"><ele>33.666666666666664</ele><time>2026-04-06T10:02:17.597Z</time></trkpt><trkpt lat="44.3185467" lon="9.348735"><ele>35.0</ele><time>2026-04-06T10:02:21.598Z</time></trkpt><trkpt lat="44.3185633" lon="9.3488267"><ele>35.0</ele><time>2026-04-06T10:02:28.6Z</time></trkpt><trkpt lat="44.3185883" lon="9.3489483"><ele>35.0</ele><time>2026-04-06T10:03:15.598Z</time></trkpt><trkpt lat="44.3186083" lon="9.349035"><ele>35.0</ele><time>2026-04-06T10:03:19.599Z</time></trkpt><trkpt lat="44.318635" lon="9.3491217"><ele>35.0</ele><time>2026-04-06T10:03:21.597Z</time></trkpt><trkpt lat="44.3186833" lon="9.3492167"><ele>35.0</ele><time>2026-04-06T10:03:24.598Z</time></trkpt><trkpt lat="44.3187233" lon="9.3493417"><ele>35.0</ele><time>2026-04-06T10:03:45.598Z</time></trkpt><trkpt lat="44.318775" lon="9.34947"><ele>35.0</ele><time>2026-04-06T10:03:47.599Z</time></trkpt><trkpt lat="44.3188083" lon="9.34963"><ele>35.0</ele><time>2026-04-06T10:03:49.599Z</time></trkpt><trkpt lat="44.3188067" lon="9.3497217"><ele>35.0</ele><time>2026-04-06T10:03:50.598Z</time></trkpt><trkpt lat="44.3187833" lon="9.349815"><ele>35.0</ele><time>2026-04-06T10:03:51.597Z</time></trkpt><trkpt lat="44.3187433" lon="9.3499083"><ele>35.0</ele><time>2026-04-06T10:03:52.597Z</time></trkpt><trkpt lat="44.318685" lon="9.349995"><ele>35.0</ele><time>2026-04-06T10:03:53.598Z</time></trkpt><trkpt lat="44.318605" lon="9.350065"><ele>36.2</ele><time>2026-04-06T10:03:54.598Z</time></trkpt><trkpt lat="44.31851" lon="9.3501083"><ele>37.4</ele><time>2026-04-06T10:03:55.599Z</time></trkpt><trkpt lat="44.3184117" lon="9.3501183"><ele>38.599999999999994</ele><time>2026-04-06T10:03:56.599Z</time></trkpt><trkpt lat="44.3183083" lon="9.350085"><ele>39.8</ele><time>2026-04-06T10:03:57.597Z</time></trkpt><trkpt lat="44.3182133" lon="9.3500267"><ele>41.0</ele><time>2026-04-06T10:03:58.599Z</time></trkpt><trkpt lat="44.31812" lon="9.3499517"><ele>41.75</ele><time>2026-04-06T10:03:59.6Z</time></trkpt><trkpt lat="44.31802" lon="9.349865"><ele>42.5</ele><time>2026-04-06T10:04:00.598Z</time></trkpt><trkpt lat="44.3179167" lon="9.3497733"><ele>43.25</ele><time>2026-04-06T10:04:01.598Z</time></trkpt><trkpt lat="44.317805" lon="9.3496733"><ele>44.0</ele><time>2026-04-06T10:04:02.599Z</time></trkpt><trkpt lat="44.31769" lon="9.34957"><ele>44.0</ele><time>2026-04-06T10:04:03.598Z</time></trkpt><trkpt lat="44.3175767" lon="9.3494667"><ele>44.0</ele><time>2026-04-06T10:04:04.598Z</time></trkpt><trkpt lat="44.3174667" lon="9.3493717"><ele>44.0</ele><time>2026-04-06T10:04:05.599Z</time></trkpt><trkpt lat="44.3173583" lon="9.3492883"><ele>44.0</ele><time>2026-04-06T10:04:06.598Z</time></trkpt><trkpt lat="44.3172483" lon="9.3492317"><ele>41.75</ele><time>2026-04-06T10:04:07.598Z</time></trkpt><trkpt lat="44.3171383" lon="9.34921"><ele>39.5</ele><time>2026-04-06T10:04:08.599Z</time></trkpt><trkpt lat="44.3170283" lon="9.34923"><ele>37.25</ele><time>2026-04-06T10:04:09.599Z</time></trkpt><trkpt lat="44.3169217" lon="9.3492867"><ele>35.0</ele><time>2026-04-06T10:04:10.597Z</time></trkpt><trkpt lat="44.3168283" lon="9.3493833"><ele>35.0</ele><time>2026-04-06T10:04:11.598Z</time></trkpt><trkpt lat="44.3167617" lon="9.3495117"><ele>35.0</ele><time>2026-04-06T10:04:12.597Z</time></trkpt><trkpt lat="44.3167183" lon="9.3496583"><ele>35.0</ele><time>2026-04-06T10:04:13.598Z</time></trkpt><trkpt lat="44.316715" lon="9.3498317"><ele>35.0</ele><time>2026-04-06T10:04:14.599Z</time></trkpt><trkpt lat="44.3167417" lon="9.3500117"><ele>35.25</ele><time>2026-04-06T10:04:15.599Z</time></trkpt><trkpt lat="44.3167917" lon="9.3502"><ele>35.5</ele><time>2026-04-06T10:04:16.598Z</time></trkpt><trkpt lat="44.3168467" lon="9.3503883"><ele>35.75</ele><time>2026-04-06T10:04:17.599Z</time></trkpt><trkpt lat="44.3168967" lon="9.350575"><ele>36.0</ele><time>2026-04-06T10:04:18.597Z</time></trkpt><trkpt lat="44.316935" lon="9.3507533"><ele>35.0</ele><time>2026-04-06T10:04:19.597Z</time></trkpt><trkpt lat="44.3169533" lon="9.3509333"><ele>34.0</ele><time>2026-04-06T10:04:20.599Z</time></trkpt><trkpt lat="44.31695" lon="9.3511117"><ele>33.0</ele><time>2026-04-06T10:04:21.597Z</time></trkpt><trkpt lat="44.31692" lon="9.3512867"><ele>32.0</ele><time>2026-04-06T10:04:22.599Z</time></trkpt><trkpt lat="44.3168633" lon="9.3514583"><ele>32.0</ele><time>2026-04-06T10:04:23.599Z</time></trkpt><trkpt lat="44.31679" lon="9.35163"><ele>32.0</ele><time>2026-04-06T10:04:24.598Z</time></trkpt><trkpt lat="44.316712" lon="9.3518049"><ele>32.0</ele><time>2026-04-06T10:04:25.597Z</time></trkpt><trkpt lat="44.3166288" lon="9.351987"><ele>32.0</ele><time>2026-04-06T10:04:26.599Z</time></trkpt><trkpt lat="44.3165437" lon="9.3521773"><ele>33.33333333333333</ele><time>2026-04-06T10:04:27.598Z</time></trkpt><trkpt lat="44.3164562" lon="9.3523782"><ele>34.666666666666664</ele><time>2026-04-06T10:04:28.598Z</time></trkpt><trkpt lat="44.316365" lon="9.3525838"><ele>36.0</ele><time>2026-04-06T10:04:29.599Z</time></trkpt><trkpt lat="44.3162698" lon="9.3527921"><ele>34.333333333333336</ele><time>2026-04-06T10:04:30.599Z</time></trkpt><trkpt lat="44.3161673" lon="9.3529989"><ele>32.66666666666667</ele><time>2026-04-06T10:04:31.598Z</time></trkpt><trkpt lat="44.3160551" lon="9.3531968"><ele>31.0</ele><time>2026-04-06T10:04:32.598Z</time></trkpt><trkpt lat="44.315937" lon="9.3533902"><ele>31.0</ele><time>2026-04-06T10:04:33.597Z</time></trkpt><trkpt lat="44.3158153" lon="9.3535816"><ele>31.0</ele><time>2026-04-06T10:04:34.601Z</time></trkpt><trkpt lat="44.3156913" lon="9.3537654"><ele>31.0</ele><time>2026-04-06T10:04:35.599Z</time></trkpt><trkpt lat="44.3155658" lon="9.353948"><ele>33.0</ele><time>2026-04-06T10:04:36.599Z</time></trkpt><trkpt lat="44.3154377" lon="9.3541293"><ele>35.0</ele><time>2026-04-06T10:04:37.598Z</time></trkpt><trkpt lat="44.3153048" lon="9.3543168"><ele>37.0</ele><time>2026-04-06T10:04:38.599Z</time></trkpt><trkpt lat="44.3151698" lon="9.3545068"><ele>37.0</ele><time>2026-04-06T10:04:39.598Z</time></trkpt><trkpt lat="44.3150317" lon="9.3547"><ele>37.0</ele><time>2026-04-06T10:04:40.597Z</time></trkpt><trkpt lat="44.314895" lon="9.3548983"><ele>37.0</ele><time>2026-04-06T10:04:41.599Z</time></trkpt><trkpt lat="44.31476" lon="9.3550917"><ele>43.0</ele><time>2026-04-06T10:04:42.597Z</time></trkpt><trkpt lat="44.3146267" lon="9.355285"><ele>49.0</ele><time>2026-04-06T10:04:43.598Z</time></trkpt><trkpt lat="44.31449" lon="9.3554833"><ele>55.0</ele><time>2026-04-06T10:04:44.599Z</time></trkpt><trkpt lat="44.3143517" lon="9.3556833"><ele>35.0</ele><time>2026-04-06T10:04:45.599Z</time></trkpt><trkpt lat="44.3127533" lon="9.3580217"><ele>36.0</ele><time>2026-04-06T10:04:55.599Z</time></trkpt><trkpt lat="44.31258" lon="9.3582683"><ele>37.0</ele><time>2026-04-06T10:04:56.599Z</time></trkpt><trkpt lat="44.312405" lon="9.3585083"><ele>36.0</ele><time>2026-04-06T10:04:57.598Z</time></trkpt><trkpt lat="44.3122333" lon="9.3587467"><ele>35.0</ele><time>2026-04-06T10:04:58.598Z</time></trkpt><trkpt lat="44.3120683" lon="9.3589867"><ele>38.5</ele><time>2026-04-06T10:04:59.598Z</time></trkpt><trkpt lat="44.3119" lon="9.35923"><ele>42.0</ele><time>2026-04-06T10:05:00.597Z</time></trkpt><trkpt lat="44.311735" lon="9.35947"><ele>42.5</ele><time>2026-04-06T10:05:01.597Z</time></trkpt><trkpt lat="44.3115717" lon="9.359705"><ele>43.0</ele><time>2026-04-06T10:05:02.598Z</time></trkpt><trkpt lat="44.3114083" lon="9.3599333"><ele>56.0</ele><time>2026-04-06T10:05:03.598Z</time></trkpt><trkpt lat="44.3112467" lon="9.3601583"><ele>69.0</ele><time>2026-04-06T10:05:04.598Z</time></trkpt><trkpt lat="44.311085" lon="9.3603817"><ele>65.33333333333333</ele><time>2026-04-06T10:05:05.599Z</time></trkpt><trkpt lat="44.310925" lon="9.3606033"><ele>61.666666666666664</ele><time>2026-04-06T10:05:06.598Z</time></trkpt><trkpt lat="44.3107683" lon="9.360825"><ele>58.0</ele><time>2026-04-06T10:05:07.599Z</time></trkpt><trkpt lat="44.3106067" lon="9.3610483"><ele>56.666666666666664</ele><time>2026-04-06T10:05:08.598Z</time></trkpt><trkpt lat="44.3104483" lon="9.36127"><ele>55.33333333333333</ele><time>2026-04-06T10:05:09.599Z</time></trkpt><trkpt lat="44.3102917" lon="9.3614933"><ele>54.0</ele><time>2026-04-06T10:05:10.6Z</time></trkpt><trkpt lat="44.31014" lon="9.3617133"><ele>54.0</ele><time>2026-04-06T10:05:11.598Z</time></trkpt><trkpt lat="44.3099883" lon="9.361935"><ele>54.0</ele><time>2026-04-06T10:05:12.598Z</time></trkpt><trkpt lat="44.3098333" lon="9.3621533"><ele>54.0</ele><time>2026-04-06T10:05:13.598Z</time></trkpt><trkpt lat="44.3096783" lon="9.36237"><ele>53.33333333333333</ele><time>2026-04-06T10:05:14.598Z</time></trkpt><trkpt lat="44.3095267" lon="9.36258"><ele>52.666666666666664</ele><time>2026-04-06T10:05:15.599Z</time></trkpt><trkpt lat="44.3093783" lon="9.3627917"><ele>52.0</ele><time>2026-04-06T10:05:16.597Z</time></trkpt><trkpt lat="44.30923" lon="9.3629983"><ele>55.0</ele><time>2026-04-06T10:05:17.598Z</time></trkpt><trkpt lat="44.3090833" lon="9.363205"><ele>58.0</ele><time>2026-04-06T10:05:18.598Z</time></trkpt><trkpt lat="44.3089383" lon="9.36341"><ele>61.0</ele><time>2026-04-06T10:05:19.598Z</time></trkpt><trkpt lat="44.308795" lon="9.3636167"><ele>64.0</ele><time>2026-04-06T10:05:20.599Z</time></trkpt><trkpt lat="44.3086533" lon="9.3638267"><ele>67.0</ele><time>2026-04-06T10:05:21.597Z</time></trkpt><trkpt lat="44.3085117" lon="9.36404"><ele>70.0</ele><time>2026-04-06T10:05:22.598Z</time></trkpt><trkpt lat="44.3083683" lon="9.3642667"><ele>70.0</ele><time>2026-04-06T10:05:23.6Z</time></trkpt><trkpt lat="44.3082233" lon="9.3645017"><ele>70.0</ele><time>2026-04-06T10:05:24.598Z</time></trkpt><trkpt lat="44.3080833" lon="9.3647417"><ele>70.0</ele><time>2026-04-06T10:05:25.597Z</time></trkpt><trkpt lat="44.3079417" lon="9.3649867"><ele>81.5</ele><time>2026-04-06T10:05:26.599Z</time></trkpt><trkpt lat="44.3077967" lon="9.3652317"><ele>93.0</ele><time>2026-04-06T10:05:27.599Z</time></trkpt><trkpt lat="44.3076467" lon="9.3654833"><ele>88.0</ele><time>2026-04-06T10:05:28.597Z</time></trkpt><trkpt lat="44.307495" lon="9.3657367"><ele>83.0</ele><time>2026-04-06T10:05:29.599Z</time></trkpt><trkpt lat="44.30735" lon="9.36599"><ele>90.0</ele><time>2026-04-06T10:05:30.598Z</time></trkpt><trkpt lat="44.30721" lon="9.3662333"><ele>97.0</ele><time>2026-04-06T10:05:31.599Z</time></trkpt><trkpt lat="44.3070767" lon="9.3664767"><ele>104.0</ele><time>2026-04-06T10:05:32.598Z</time></trkpt><trkpt lat="44.3069417" lon="9.366715"><ele>104.0</ele><time>2026-04-06T10:05:33.599Z</time></trkpt><trkpt lat="44.3068067" lon="9.366955"><ele>104.0</ele><time>2026-04-06T10:05:34.598Z</time></trkpt><trkpt lat="44.3066733" lon="9.3671983"><ele>104.0</ele><time>2026-04-06T10:05:35.599Z</time></trkpt><trkpt lat="44.30654" lon="9.3674417"><ele>102.66666666666666</ele><time>2026-04-06T10:05:36.598Z</time></trkpt><trkpt lat="44.3064117" lon="9.36768"><ele>101.33333333333334</ele><time>2026-04-06T10:05:37.597Z</time></trkpt><trkpt lat="44.306285" lon="9.36792"><ele>100.0</ele><time>2026-04-06T10:05:38.599Z</time></trkpt><trkpt lat="44.3061633" lon="9.3681633"><ele>103.33333333333334</ele><time>2026-04-06T10:05:39.598Z</time></trkpt><trkpt lat="44.3060383" lon="9.3684067"><ele>106.66666666666666</ele><time>2026-04-06T10:05:40.599Z</time></trkpt><trkpt lat="44.305915" lon="9.3686483"><ele>110.0</ele><time>2026-04-06T10:05:41.598Z</time></trkpt><trkpt lat="44.3026383" lon="9.381615"><ele>110.0</ele><time>2026-04-06T10:06:26.6Z</time></trkpt><trkpt lat="44.3025167" lon="9.381895"><ele>110.0</ele><time>2026-04-06T10:06:27.598Z</time></trkpt><trkpt lat="44.30238" lon="9.3821567"><ele>103.5</ele><time>2026-04-06T10:06:28.6Z</time></trkpt><trkpt lat="44.3022317" lon="9.3824017"><ele>97.0</ele><time>2026-04-06T10:06:29.598Z</time></trkpt><trkpt lat="44.3020667" lon="9.38264"><ele>97.0</ele><time>2026-04-06T10:06:30.598Z</time></trkpt><trkpt lat="44.3018933" lon="9.3828617"><ele>97.0</ele><time>2026-04-06T10:06:31.598Z</time></trkpt><trkpt lat="44.3017117" lon="9.383065"><ele>101.5</ele><time>2026-04-06T10:06:32.598Z</time></trkpt><trkpt lat="44.3015217" lon="9.3832517"><ele>106.0</ele><time>2026-04-06T10:06:33.598Z</time></trkpt><trkpt lat="44.3013283" lon="9.38342"><ele>99.66666666666667</ele><time>2026-04-06T10:06:34.597Z</time></trkpt><trkpt lat="44.3011317" lon="9.383565"><ele>93.33333333333334</ele><time>2026-04-06T10:06:35.598Z</time></trkpt><trkpt lat="44.3009317" lon="9.38369"><ele>87.0</ele><time>2026-04-06T10:06:36.598Z</time></trkpt><trkpt lat="44.300725" lon="9.383795"><ele>95.5</ele><time>2026-04-06T10:06:37.597Z</time></trkpt><trkpt lat="44.3005067" lon="9.383885"><ele>104.0</ele><time>2026-04-06T10:06:38.597Z</time></trkpt><trkpt lat="44.3002817" lon="9.3839583"><ele>104.0</ele><time>2026-04-06T10:06:39.599Z</time></trkpt><trkpt lat="44.3000533" lon="9.3840083"><ele>104.0</ele><time>2026-04-06T10:06:40.598Z</time></trkpt><trkpt lat="44.2998267" lon="9.3840367"><ele>104.5</ele><time>2026-04-06T10:06:41.597Z</time></trkpt><trkpt lat="44.2995983" lon="9.3840483"><ele>105.0</ele><time>2026-04-06T10:06:42.598Z</time></trkpt><trkpt lat="44.2993733" lon="9.3840383"><ele>105.0</ele><time>2026-04-06T10:06:43.598Z</time></trkpt><trkpt lat="44.29915" lon="9.384015"><ele>105.0</ele><time>2026-04-06T10:06:44.599Z</time></trkpt><trkpt lat="44.2989283" lon="9.3839817"><ele>105.0</ele><time>2026-04-06T10:06:45.598Z</time></trkpt><trkpt lat="44.2987067" lon="9.3839467"><ele>106.66666666666666</ele><time>2026-04-06T10:06:46.598Z</time></trkpt><trkpt lat="44.2984883" lon="9.38391"><ele>108.33333333333333</ele><time>2026-04-06T10:06:47.597Z</time></trkpt><trkpt lat="44.29827" lon="9.3838767"><ele>110.0</ele><time>2026-04-06T10:06:48.599Z</time></trkpt><trkpt lat="44.2980483" lon="9.3838467"><ele>99.33333333333333</ele><time>2026-04-06T10:06:49.599Z</time></trkpt><trkpt lat="44.2978317" lon="9.3838183"><ele>88.66666666666666</ele><time>2026-04-06T10:06:50.598Z</time></trkpt><trkpt lat="44.2976217" lon="9.383785"><ele>78.0</ele><time>2026-04-06T10:06:51.597Z</time></trkpt><trkpt lat="44.2974133" lon="9.383755"><ele>74.33333333333333</ele><time>2026-04-06T10:06:52.598Z</time></trkpt><trkpt lat="44.2972067" lon="9.383725"><ele>70.66666666666666</ele><time>2026-04-06T10:06:53.598Z</time></trkpt><trkpt lat="44.2970017" lon="9.3836967"><ele>67.0</ele><time>2026-04-06T10:06:54.598Z</time></trkpt><trkpt lat="44.296795" lon="9.383675"><ele>67.0</ele><time>2026-04-06T10:06:55.599Z</time></trkpt><trkpt lat="44.296585" lon="9.3836633"><ele>67.0</ele><time>2026-04-06T10:06:56.597Z</time></trkpt><trkpt lat="44.2963683" lon="9.38366"><ele>67.0</ele><time>2026-04-06T10:06:57.6Z</time></trkpt><trkpt lat="44.296145" lon="9.383675"><ele>67.5</ele><time>2026-04-06T10:06:58.599Z</time></trkpt><trkpt lat="44.29592" lon="9.3837"><ele>68.0</ele><time>2026-04-06T10:06:59.599Z</time></trkpt><trkpt lat="44.2956967" lon="9.383735"><ele>72.33333333333334</ele><time>2026-04-06T10:07:00.597Z</time></trkpt><trkpt lat="44.2954767" lon="9.3837833"><ele>76.66666666666667</ele><time>2026-04-06T10:07:01.6Z</time></trkpt><trkpt lat="44.295265" lon="9.3838433"><ele>81.0</ele><time>2026-04-06T10:07:02.599Z</time></trkpt><trkpt lat="44.2950567" lon="9.383915"><ele>85.33333333333333</ele><time>2026-04-06T10:07:03.598Z</time></trkpt><trkpt lat="44.2948483" lon="9.3840017"><ele>89.66666666666666</ele><time>2026-04-06T10:07:04.598Z</time></trkpt><trkpt lat="44.2946417" lon="9.384095"><ele>94.0</ele><time>2026-04-06T10:07:05.598Z</time></trkpt><trkpt lat="44.294435" lon="9.3842"><ele>93.0</ele><time>2026-04-06T10:07:06.597Z</time></trkpt><trkpt lat="44.29423" lon="9.384315"><ele>92.0</ele><time>2026-04-06T10:07:07.598Z</time></trkpt><trkpt lat="44.29403" lon="9.3844417"><ele>91.0</ele><time>2026-04-06T10:07:08.599Z</time></trkpt><trkpt lat="44.2938333" lon="9.3845817"><ele>94.0</ele><time>2026-04-06T10:07:09.598Z</time></trkpt><trkpt lat="44.2936383" lon="9.3847367"><ele>97.0</ele><time>2026-04-06T10:07:10.599Z</time></trkpt><trkpt lat="44.29345" lon="9.3848983"><ele>100.0</ele><time>2026-04-06T10:07:11.599Z</time></trkpt><trkpt lat="44.2932717" lon="9.38507"><ele>100.0</ele><time>2026-04-06T10:07:12.598Z</time></trkpt><trkpt lat="44.2930983" lon="9.3852517"><ele>100.0</ele><time>2026-04-06T10:07:13.597Z</time></trkpt><trkpt lat="44.2929283" lon="9.3854433"><ele>100.0</ele><time>2026-04-06T10:07:14.599Z</time></trkpt><trkpt lat="44.2927633" lon="9.38564"><ele>97.66666666666667</ele><time>2026-04-06T10:07:15.599Z</time></trkpt><trkpt lat="44.2926" lon="9.3858367"><ele>95.33333333333334</ele><time>2026-04-06T10:07:16.598Z</time></trkpt><trkpt lat="44.2924383" lon="9.386035"><ele>93.0</ele><time>2026-04-06T10:07:17.598Z</time></trkpt><trkpt lat="44.292275" lon="9.38623"><ele>96.66666666666666</ele><time>2026-04-06T10:07:18.597Z</time></trkpt><trkpt lat="44.2921117" lon="9.3864233"><ele>100.33333333333333</ele><time>2026-04-06T10:07:19.597Z</time></trkpt><trkpt lat="44.2919467" lon="9.3866183"><ele>104.0</ele><time>2026-04-06T10:07:20.599Z</time></trkpt><trkpt lat="44.2917867" lon="9.38682"><ele>104.0</ele><time>2026-04-06T10:07:21.598Z</time></trkpt><trkpt lat="44.29163" lon="9.3870233"><ele>104.0</ele><time>2026-04-06T10:07:22.598Z</time></trkpt><trkpt lat="44.2914783" lon="9.3872317"><ele>104.0</ele><time>2026-04-06T10:07:23.597Z</time></trkpt><trkpt lat="44.2913333" lon="9.387445"><ele>102.0</ele><time>2026-04-06T10:07:24.598Z</time></trkpt><trkpt lat="44.2858633" lon="9.395335"><ele>105.5</ele><time>2026-04-06T10:08:00.598Z</time></trkpt><trkpt lat="44.2856883" lon="9.3955883"><ele>109.0</ele><time>2026-04-06T10:08:01.602Z</time></trkpt><trkpt lat="44.2855533" lon="9.395815"><ele>88.0</ele><time>2026-04-06T10:08:02.598Z</time></trkpt><trkpt lat="44.2847283" lon="9.399015"><ele>88.0</ele><time>2026-04-06T10:08:13.601Z</time></trkpt><trkpt lat="44.28469" lon="9.399285"><ele>88.0</ele><time>2026-04-06T10:08:14.602Z</time></trkpt><trkpt lat="44.2846867" lon="9.3996"><ele>88.0</ele><time>2026-04-06T10:08:15.598Z</time></trkpt><trkpt lat="44.2846667" lon="9.3998917"><ele>86.33333333333333</ele><time>2026-04-06T10:08:16.598Z</time></trkpt><trkpt lat="44.2846367" lon="9.4001867"><ele>84.66666666666667</ele><time>2026-04-06T10:08:17.598Z</time></trkpt><trkpt lat="44.284605" lon="9.400495"><ele>83.0</ele><time>2026-04-06T10:08:18.597Z</time></trkpt><trkpt lat="44.284575" lon="9.40081"><ele>79.5</ele><time>2026-04-06T10:08:19.599Z</time></trkpt><trkpt lat="44.2845433" lon="9.401125"><ele>76.0</ele><time>2026-04-06T10:08:20.602Z</time></trkpt><trkpt lat="44.2845133" lon="9.4014433"><ele>71.0</ele><time>2026-04-06T10:08:21.598Z</time></trkpt><trkpt lat="44.28448" lon="9.4017633"><ele>66.0</ele><time>2026-04-06T10:08:22.597Z</time></trkpt><trkpt lat="44.2844467" lon="9.4020833"><ele>69.5</ele><time>2026-04-06T10:08:23.598Z</time></trkpt><trkpt lat="44.284415" lon="9.4024"><ele>73.0</ele><time>2026-04-06T10:08:24.597Z</time></trkpt><trkpt lat="44.284385" lon="9.4027217"><ele>75.0</ele><time>2026-04-06T10:08:25.597Z</time></trkpt><trkpt lat="44.284355" lon="9.4030433"><ele>77.0</ele><time>2026-04-06T10:08:26.599Z</time></trkpt><trkpt lat="44.2843233" lon="9.403365"><ele>77.0</ele><time>2026-04-06T10:08:27.597Z</time></trkpt><trkpt lat="44.2842917" lon="9.4036883"><ele>77.0</ele><time>2026-04-06T10:08:28.599Z</time></trkpt><trkpt lat="44.2842583" lon="9.40401"><ele>70.5</ele><time>2026-04-06T10:08:29.599Z</time></trkpt><trkpt lat="44.2842233" lon="9.40433"><ele>64.0</ele><time>2026-04-06T10:08:30.598Z</time></trkpt><trkpt lat="44.28419" lon="9.4046467"><ele>64.0</ele><time>2026-04-06T10:08:31.599Z</time></trkpt><trkpt lat="44.2841567" lon="9.4049667"><ele>64.0</ele><time>2026-04-06T10:08:32.598Z</time></trkpt><trkpt lat="44.284125" lon="9.4052867"><ele>70.0</ele><time>2026-04-06T10:08:33.599Z</time></trkpt><trkpt lat="44.2840917" lon="9.405605"><ele>76.0</ele><time>2026-04-06T10:08:34.598Z</time></trkpt><trkpt lat="44.284055" lon="9.40592"><ele>76.0</ele><time>2026-04-06T10:08:35.598Z</time></trkpt><trkpt lat="44.284015" lon="9.4062267"><ele>76.0</ele><time>2026-04-06T10:08:36.597Z</time></trkpt><trkpt lat="44.2839717" lon="9.4065317"><ele>76.0</ele><time>2026-04-06T10:08:37.597Z</time></trkpt><trkpt lat="44.2839133" lon="9.406835"><ele>75.5</ele><time>2026-04-06T10:08:38.598Z</time></trkpt><trkpt lat="44.2838417" lon="9.4071367"><ele>75.0</ele><time>2026-04-06T10:08:39.598Z</time></trkpt><trkpt lat="44.28376" lon="9.4074383"><ele>67.0</ele><time>2026-04-06T10:08:40.598Z</time></trkpt><trkpt lat="44.2836617" lon="9.4077283"><ele>59.0</ele><time>2026-04-06T10:08:41.597Z</time></trkpt><trkpt lat="44.2835517" lon="9.4080017"><ele>59.0</ele><time>2026-04-06T10:08:42.597Z</time></trkpt><trkpt lat="44.2834267" lon="9.408265"><ele>59.0</ele><time>2026-04-06T10:08:43.597Z</time></trkpt><trkpt lat="44.28329" lon="9.4085167"><ele>59.0</ele><time>2026-04-06T10:08:44.597Z</time></trkpt><trkpt lat="44.2831417" lon="9.4087533"><ele>59.0</ele><time>2026-04-06T10:08:45.598Z</time></trkpt><trkpt lat="44.2829833" lon="9.40898"><ele>52.5</ele><time>2026-04-06T10:08:46.597Z</time></trkpt><trkpt lat="44.28281" lon="9.4091983"><ele>46.0</ele><time>2026-04-06T10:08:47.598Z</time></trkpt><trkpt lat="44.2826317" lon="9.409405"><ele>46.0</ele><time>2026-04-06T10:08:48.598Z</time></trkpt><trkpt lat="44.2824533" lon="9.4096083"><ele>46.0</ele><time>2026-04-06T10:08:49.598Z</time></trkpt><trkpt lat="44.2822767" lon="9.4098033"><ele>45.0</ele><time>2026-04-06T10:08:50.598Z</time></trkpt><trkpt lat="44.2821" lon="9.4099967"><ele>44.0</ele><time>2026-04-06T10:08:51.597Z</time></trkpt><trkpt lat="44.2819217" lon="9.4101917"><ele>44.0</ele><time>2026-04-06T10:08:52.599Z</time></trkpt><trkpt lat="44.281745" lon="9.4103867"><ele>44.0</ele><time>2026-04-06T10:08:53.599Z</time></trkpt><trkpt lat="44.28157" lon="9.4105867"><ele>38.5</ele><time>2026-04-06T10:08:54.598Z</time></trkpt><trkpt lat="44.2813967" lon="9.4107933"><ele>33.0</ele><time>2026-04-06T10:08:55.598Z</time></trkpt><trkpt lat="44.281235" lon="9.4110067"><ele>33.0</ele><time>2026-04-06T10:08:56.6Z</time></trkpt><trkpt lat="44.281085" lon="9.4112333"><ele>33.0</ele><time>2026-04-06T10:08:57.599Z</time></trkpt><trkpt lat="44.2809467" lon="9.41147"><ele>33.0</ele><time>2026-04-06T10:08:58.6Z</time></trkpt><trkpt lat="44.28082" lon="9.411715"><ele>35.333333333333336</ele><time>2026-04-06T10:08:59.602Z</time></trkpt><trkpt lat="44.2807" lon="9.41197"><ele>37.66666666666667</ele><time>2026-04-06T10:09:00.598Z</time></trkpt><trkpt lat="44.2805867" lon="9.4122333"><ele>40.0</ele><time>2026-04-06T10:09:01.599Z</time></trkpt><trkpt lat="44.280475" lon="9.4125"><ele>35.66666666666667</ele><time>2026-04-06T10:09:02.599Z</time></trkpt><trkpt lat="44.2803633" lon="9.4127683"><ele>31.333333333333336</ele><time>2026-04-06T10:09:03.598Z</time></trkpt><trkpt lat="44.28025" lon="9.4130317"><ele>27.0</ele><time>2026-04-06T10:09:04.598Z</time></trkpt><trkpt lat="44.2801383" lon="9.4132933"><ele>27.0</ele><time>2026-04-06T10:09:05.598Z</time></trkpt><trkpt lat="44.280025" lon="9.4135567"><ele>27.0</ele><time>2026-04-06T10:09:06.598Z</time></trkpt><trkpt lat="44.2799133" lon="9.4138167"><ele>27.0</ele><time>2026-04-06T10:09:07.598Z</time></trkpt><trkpt lat="44.2798" lon="9.4140783"><ele>36.33333333333333</ele><time>2026-04-06T10:09:08.597Z</time></trkpt><trkpt lat="44.2796883" lon="9.4143367"><ele>45.666666666666664</ele><time>2026-04-06T10:09:09.597Z</time></trkpt><trkpt lat="44.2795783" lon="9.4146"><ele>55.0</ele><time>2026-04-06T10:09:10.599Z</time></trkpt><trkpt lat="44.27947" lon="9.4148683"><ele>55.0</ele><time>2026-04-06T10:09:11.597Z</time></trkpt><trkpt lat="44.2793517" lon="9.415135"><ele>55.0</ele><time>2026-04-06T10:09:12.599Z</time></trkpt><trkpt lat="44.2792233" lon="9.4154"><ele>53.666666666666664</ele><time>2026-04-06T10:09:13.598Z</time></trkpt><trkpt lat="44.2791017" lon="9.41565"><ele>52.33333333333333</ele><time>2026-04-06T10:09:14.598Z</time></trkpt><trkpt lat="44.278965" lon="9.415885"><ele>51.0</ele><time>2026-04-06T10:09:15.598Z</time></trkpt><trkpt lat="44.2788233" lon="9.4161067"><ele>51.0</ele><time>2026-04-06T10:09:16.598Z</time></trkpt><trkpt lat="44.2786683" lon="9.416315"><ele>51.0</ele><time>2026-04-06T10:09:17.598Z</time></trkpt><trkpt lat="44.27851" lon="9.4165117"><ele>51.0</ele><time>2026-04-06T10:09:18.599Z</time></trkpt><trkpt lat="44.2783433" lon="9.4167017"><ele>44.333333333333336</ele><time>2026-04-06T10:09:19.599Z</time></trkpt><trkpt lat="44.2781767" lon="9.41689"><ele>37.66666666666667</ele><time>2026-04-06T10:09:20.599Z</time></trkpt><trkpt lat="44.2780083" lon="9.41708"><ele>31.0</ele><time>2026-04-06T10:09:21.598Z</time></trkpt><trkpt lat="44.2778367" lon="9.4172717"><ele>26.333333333333336</ele><time>2026-04-06T10:09:22.597Z</time></trkpt><trkpt lat="44.2776683" lon="9.4174667"><ele>21.666666666666668</ele><time>2026-04-06T10:09:23.598Z</time></trkpt><trkpt lat="44.2775033" lon="9.4176533"><ele>17.0</ele><time>2026-04-06T10:09:24.598Z</time></trkpt><trkpt lat="44.2773467" lon="9.417835"><ele>15.666666666666668</ele><time>2026-04-06T10:09:25.6Z</time></trkpt><trkpt lat="44.2771967" lon="9.41801"><ele>14.333333333333332</ele><time>2026-04-06T10:09:26.598Z</time></trkpt><trkpt lat="44.2770517" lon="9.4181767"><ele>13.0</ele><time>2026-04-06T10:09:27.598Z</time></trkpt><trkpt lat="44.2769167" lon="9.4183383"><ele>13.0</ele><time>2026-04-06T10:09:28.598Z</time></trkpt><trkpt lat="44.2767883" lon="9.4184883"><ele>13.0</ele><time>2026-04-06T10:09:29.598Z</time></trkpt><trkpt lat="44.2766633" lon="9.4186317"><ele>13.0</ele><time>2026-04-06T10:09:30.6Z</time></trkpt><trkpt lat="44.27654" lon="9.4187583"><ele>13.75</ele><time>2026-04-06T10:09:31.599Z</time></trkpt><trkpt lat="44.276415" lon="9.418865"><ele>14.5</ele><time>2026-04-06T10:09:32.599Z</time></trkpt><trkpt lat="44.276295" lon="9.41895"><ele>15.25</ele><time>2026-04-06T10:09:33.598Z</time></trkpt><trkpt lat="44.27618" lon="9.4190133"><ele>16.0</ele><time>2026-04-06T10:09:34.598Z</time></trkpt><trkpt lat="44.27607" lon="9.419055"><ele>16.0</ele><time>2026-04-06T10:09:35.598Z</time></trkpt><trkpt lat="44.2759617" lon="9.419065"><ele>16.0</ele><time>2026-04-06T10:09:36.598Z</time></trkpt><trkpt lat="44.2758467" lon="9.4190433"><ele>16.0</ele><time>2026-04-06T10:09:37.597Z</time></trkpt><trkpt lat="44.2757267" lon="9.41899"><ele>16.0</ele><time>2026-04-06T10:09:38.598Z</time></trkpt><trkpt lat="44.2756067" lon="9.4189217"><ele>15.75</ele><time>2026-04-06T10:09:39.598Z</time></trkpt><trkpt lat="44.2754867" lon="9.4188517"><ele>15.5</ele><time>2026-04-06T10:09:40.599Z</time></trkpt><trkpt lat="44.27536" lon="9.4187833"><ele>15.25</ele><time>2026-04-06T10:09:41.599Z</time></trkpt><trkpt lat="44.27522" lon="9.4187233"><ele>15.0</ele><time>2026-04-06T10:09:42.599Z</time></trkpt><trkpt lat="44.2750717" lon="9.4186767"><ele>14.5</ele><time>2026-04-06T10:09:43.597Z</time></trkpt><trkpt lat="44.2749217" lon="9.41865"><ele>14.0</ele><time>2026-04-06T10:09:44.598Z</time></trkpt><trkpt lat="44.2747733" lon="9.41864"><ele>13.5</ele><time>2026-04-06T10:09:45.599Z</time></trkpt><trkpt lat="44.27463" lon="9.418645"><ele>13.0</ele><time>2026-04-06T10:09:46.598Z</time></trkpt><trkpt lat="44.274495" lon="9.418665"><ele>13.0</ele><time>2026-04-06T10:09:47.598Z</time></trkpt><trkpt lat="44.2743633" lon="9.4187033"><ele>13.0</ele><time>2026-04-06T10:09:48.598Z</time></trkpt><trkpt lat="44.2742333" lon="9.418765"><ele>13.0</ele><time>2026-04-06T10:09:49.598Z</time></trkpt><trkpt lat="44.2741067" lon="9.4188367"><ele>13.0</ele><time>2026-04-06T10:09:50.597Z</time></trkpt><trkpt lat="44.273985" lon="9.4189183"><ele>13.0</ele><time>2026-04-06T10:09:51.598Z</time></trkpt><trkpt lat="44.2738683" lon="9.419005"><ele>13.0</ele><time>2026-04-06T10:09:52.598Z</time></trkpt><trkpt lat="44.2737633" lon="9.41908"><ele>13.0</ele><time>2026-04-06T10:09:53.598Z</time></trkpt><trkpt lat="44.273665" lon="9.41915"><ele>13.0</ele><time>2026-04-06T10:09:54.597Z</time></trkpt><trkpt lat="44.2735683" lon="9.4192183"><ele>12.999999999999998</ele><time>2026-04-06T10:09:55.598Z</time></trkpt><trkpt lat="44.2734767" lon="9.4192767"><ele>13.0</ele><time>2026-04-06T10:09:56.6Z</time></trkpt><trkpt lat="44.27339" lon="9.4193267"><ele>13.0</ele><time>2026-04-06T10:09:57.598Z</time></trkpt><trkpt lat="44.27331" lon="9.4193683"><ele>13.0</ele><time>2026-04-06T10:09:58.599Z</time></trkpt><trkpt lat="44.2732317" lon="9.4194"><ele>12.999999999999998</ele><time>2026-04-06T10:09:59.598Z</time></trkpt><trkpt lat="44.2731617" lon="9.419425"><ele>13.0</ele><time>2026-04-06T10:10:00.599Z</time></trkpt><trkpt lat="44.2730983" lon="9.419445"><ele>12.600000000000001</ele><time>2026-04-06T10:10:01.598Z</time></trkpt><trkpt lat="44.273005" lon="9.4194717"><ele>12.200000000000001</ele><time>2026-04-06T10:10:03.598Z</time></trkpt><trkpt lat="44.27293" lon="9.419495"><ele>11.8</ele><time>2026-04-06T10:10:06.598Z</time></trkpt><trkpt lat="44.2728317" lon="9.4195033"><ele>11.4</ele><time>2026-04-06T10:11:10.597Z</time></trkpt><trkpt lat="44.272725" lon="9.41956"><ele>11.0</ele><time>2026-04-06T10:11:38.598Z</time></trkpt><trkpt lat="44.2726283" lon="9.41958"><ele>11.0</ele><time>2026-04-06T10:11:40.598Z</time></trkpt><trkpt lat="44.2725" lon="9.4196133"><ele>11.0</ele><time>2026-04-06T10:11:42.598Z</time></trkpt><trkpt lat="44.272435" lon="9.4196317"><ele>11.0</ele><time>2026-04-06T10:11:43.598Z</time></trkpt><trkpt lat="44.2723717" lon="9.4196433"><ele>11.0</ele><time>2026-04-06T10:11:44.598Z</time></trkpt><trkpt lat="44.2722567" lon="9.4196467"><ele>11.0</ele><time>2026-04-06T10:11:46.599Z</time></trkpt><trkpt lat="44.2721817" lon="9.4196417"><ele>11.0</ele><time>2026-04-06T10:11:48.599Z</time></trkpt><trkpt lat="44.2720983" lon="9.419665"><ele>11.0</ele><time>2026-04-06T10:12:53.597Z</time></trkpt><trkpt lat="44.27203" lon="9.419685"><ele>11.0</ele><time>2026-04-06T10:12:55.599Z</time></trkpt><trkpt lat="44.27191" lon="9.4196833"><ele>11.0</ele><time>2026-04-06T10:13:13.597Z</time></trkpt><trkpt lat="44.271825" lon="9.4196417"><ele>11.0</ele><time>2026-04-06T10:13:15.597Z</time></trkpt><trkpt lat="44.2717317" lon="9.4195833"><ele>11.142857142857142</ele><time>2026-04-06T10:13:17.599Z</time></trkpt><trkpt lat="44.2716733" lon="9.41955"><ele>11.285714285714285</ele><time>2026-04-06T10:13:18.6Z</time></trkpt><trkpt lat="44.2716133" lon="9.4195133"><ele>11.428571428571427</ele><time>2026-04-06T10:13:19.599Z</time></trkpt><trkpt lat="44.27155" lon="9.4194767"><ele>11.571428571428571</ele><time>2026-04-06T10:13:20.6Z</time></trkpt><trkpt lat="44.2714783" lon="9.4194333"><ele>11.714285714285714</ele><time>2026-04-06T10:13:21.598Z</time></trkpt><trkpt lat="44.271405" lon="9.4193733"><ele>11.857142857142856</ele><time>2026-04-06T10:13:22.599Z</time></trkpt><trkpt lat="44.2713317" lon="9.4193067"><ele>12.0</ele><time>2026-04-06T10:13:23.599Z</time></trkpt><trkpt lat="44.271265" lon="9.41923"><ele>12.0</ele><time>2026-04-06T10:13:24.599Z</time></trkpt><trkpt lat="44.2711967" lon="9.4191483"><ele>12.0</ele><time>2026-04-06T10:13:25.598Z</time></trkpt><trkpt lat="44.271125" lon="9.419055"><ele>12.0</ele><time>2026-04-06T10:13:26.599Z</time></trkpt><trkpt lat="44.271055" lon="9.4189483"><ele>12.0</ele><time>2026-04-06T10:13:27.597Z</time></trkpt><trkpt lat="44.2709833" lon="9.4188417"><ele>12.0</ele><time>2026-04-06T10:13:28.599Z</time></trkpt><trkpt lat="44.27091" lon="9.4187333"><ele>11.8</ele><time>2026-04-06T10:13:29.6Z</time></trkpt><trkpt lat="44.2708383" lon="9.4186217"><ele>11.6</ele><time>2026-04-06T10:13:30.598Z</time></trkpt><trkpt lat="44.27077" lon="9.4185183"><ele>11.4</ele><time>2026-04-06T10:13:31.598Z</time></trkpt><trkpt lat="44.2707067" lon="9.4184217"><ele>11.200000000000001</ele><time>2026-04-06T10:13:32.599Z</time></trkpt><trkpt lat="44.2706433" lon="9.4183283"><ele>11.0</ele><time>2026-04-06T10:13:33.599Z</time></trkpt><trkpt lat="44.2705833" lon="9.41824"><ele>11.0</ele><time>2026-04-06T10:13:34.599Z</time></trkpt><trkpt lat="44.270525" lon="9.4181567"><ele>11.0</ele><time>2026-04-06T10:13:35.598Z</time></trkpt><trkpt lat="44.270465" lon="9.41808"><ele>11.0</ele><time>2026-04-06T10:13:36.598Z</time></trkpt><trkpt lat="44.2704067" lon="9.4180083"><ele>11.0</ele><time>2026-04-06T10:13:37.598Z</time></trkpt><trkpt lat="44.27035" lon="9.4179417"><ele>11.0</ele><time>2026-04-06T10:13:38.598Z</time></trkpt><trkpt lat="44.2702967" lon="9.4178867"><ele>11.0</ele><time>2026-04-06T10:13:39.597Z</time></trkpt><trkpt lat="44.2702117" lon="9.417795"><ele>10.600000000000001</ele><time>2026-04-06T10:13:41.6Z</time></trkpt><trkpt lat="44.270135" lon="9.4177033"><ele>10.200000000000001</ele><time>2026-04-06T10:13:43.599Z</time></trkpt><trkpt lat="44.2700633" lon="9.4176067"><ele>9.8</ele><time>2026-04-06T10:13:45.599Z</time></trkpt><trkpt lat="44.2699733" lon="9.4175917"><ele>9.4</ele><time>2026-04-06T10:13:47.599Z</time></trkpt><trkpt lat="44.2698917" lon="9.417725"><ele>9.0</ele><time>2026-04-06T10:13:49.598Z</time></trkpt><trkpt lat="44.2698583" lon="9.41783"><ele>9.0</ele><time>2026-04-06T10:13:50.598Z</time></trkpt><trkpt lat="44.2698233" lon="9.4179383"><ele>9.0</ele><time>2026-04-06T10:13:51.598Z</time></trkpt><trkpt lat="44.2697883" lon="9.4180367"><ele>9.0</ele><time>2026-04-06T10:13:52.598Z</time></trkpt><trkpt lat="44.269755" lon="9.41813"><ele>9.0</ele><time>2026-04-06T10:13:53.598Z</time></trkpt><trkpt lat="44.26972" lon="9.4182267"><ele>9.0</ele><time>2026-04-06T10:13:54.597Z</time></trkpt><trkpt lat="44.269685" lon="9.4183283"><ele>9.0</ele><time>2026-04-06T10:13:55.598Z</time></trkpt><trkpt lat="44.26965" lon="9.4184283"><ele>9.285714285714286</ele><time>2026-04-06T10:13:56.599Z</time></trkpt><trkpt lat="44.2696183" lon="9.41852"><ele>9.571428571428571</ele><time>2026-04-06T10:13:57.598Z</time></trkpt><trkpt lat="44.2695917" lon="9.4186067"><ele>9.857142857142858</ele><time>2026-04-06T10:13:58.597Z</time></trkpt><trkpt lat="44.2695633" lon="9.4186917"><ele>10.142857142857142</ele><time>2026-04-06T10:13:59.597Z</time></trkpt><trkpt lat="44.2695333" lon="9.418785"><ele>10.428571428571429</ele><time>2026-04-06T10:14:00.598Z</time></trkpt><trkpt lat="44.2695" lon="9.418885"><ele>10.714285714285715</ele><time>2026-04-06T10:14:01.599Z</time></trkpt><trkpt lat="44.2694633" lon="9.41899"><ele>11.0</ele><time>2026-04-06T10:14:02.599Z</time></trkpt><trkpt lat="44.2694217" lon="9.4191083"><ele>11.0</ele><time>2026-04-06T10:14:03.598Z</time></trkpt><trkpt lat="44.2693767" lon="9.419235"><ele>11.0</ele><time>2026-04-06T10:14:04.597Z</time></trkpt><trkpt lat="44.26933" lon="9.4193717"><ele>11.0</ele><time>2026-04-06T10:14:05.598Z</time></trkpt><trkpt lat="44.269285" lon="9.4195117"><ele>11.0</ele><time>2026-04-06T10:14:06.598Z</time></trkpt><trkpt lat="44.2692417" lon="9.419645"><ele>11.0</ele><time>2026-04-06T10:14:07.599Z</time></trkpt><trkpt lat="44.2691933" lon="9.4197717"><ele>11.0</ele><time>2026-04-06T10:14:08.599Z</time></trkpt><trkpt lat="44.26915" lon="9.4198917"><ele>11.0</ele><time>2026-04-06T10:14:09.598Z</time></trkpt><trkpt lat="44.269105" lon="9.4200167"><ele>11.0</ele><time>2026-04-06T10:14:10.598Z</time></trkpt><trkpt lat="44.2690583" lon="9.4201467"><ele>11.0</ele><time>2026-04-06T10:14:11.598Z</time></trkpt><trkpt lat="44.26901" lon="9.420275"><ele>11.0</ele><time>2026-04-06T10:14:12.597Z</time></trkpt><trkpt lat="44.268965" lon="9.4204067"><ele>11.0</ele><time>2026-04-06T10:14:13.597Z</time></trkpt><trkpt lat="44.2689183" lon="9.4205383"><ele>11.0</ele><time>2026-04-06T10:14:14.599Z</time></trkpt><trkpt lat="44.2688717" lon="9.4206667"><ele>11.0</ele><time>2026-04-06T10:14:15.598Z</time></trkpt><trkpt lat="44.268825" lon="9.4208067"><ele>11.0</ele><time>2026-04-06T10:14:16.599Z</time></trkpt><trkpt lat="44.2687767" lon="9.4209583"><ele>11.0</ele><time>2026-04-06T10:14:17.598Z</time></trkpt><trkpt lat="44.2687233" lon="9.4211133"><ele>11.0</ele><time>2026-04-06T10:14:18.597Z</time></trkpt><trkpt lat="44.26867" lon="9.4212717"><ele>11.0</ele><time>2026-04-06T10:14:19.6Z</time></trkpt><trkpt lat="44.2686183" lon="9.421425"><ele>11.0</ele><time>2026-04-06T10:14:20.6Z</time></trkpt><trkpt lat="44.268575" lon="9.4215667"><ele>11.0</ele><time>2026-04-06T10:14:21.598Z</time></trkpt><trkpt lat="44.2685267" lon="9.4217117"><ele>11.0</ele><time>2026-04-06T10:14:22.597Z</time></trkpt><trkpt lat="44.2684767" lon="9.421855"><ele>11.0</ele><time>2026-04-06T10:14:23.598Z</time></trkpt><trkpt lat="44.268425" lon="9.4219967"><ele>11.0</ele><time>2026-04-06T10:14:24.598Z</time></trkpt><trkpt lat="44.2683683" lon="9.4221433"><ele>11.0</ele><time>2026-04-06T10:14:25.597Z</time></trkpt><trkpt lat="44.2683" lon="9.4223067"><ele>11.0</ele><time>2026-04-06T10:14:26.598Z</time></trkpt><trkpt lat="44.2682233" lon="9.4224767"><ele>11.0</ele><time>2026-04-06T10:14:27.598Z</time></trkpt><trkpt lat="44.2681467" lon="9.4226467"><ele>11.0</ele><time>2026-04-06T10:14:28.598Z</time></trkpt><trkpt lat="44.2680683" lon="9.422815"><ele>11.0</ele><time>2026-04-06T10:14:29.598Z</time></trkpt><trkpt lat="44.2679883" lon="9.4229833"><ele>11.25</ele><time>2026-04-06T10:14:30.598Z</time></trkpt><trkpt lat="44.26791" lon="9.4231517"><ele>11.5</ele><time>2026-04-06T10:14:31.598Z</time></trkpt><trkpt lat="44.26783" lon="9.423315"><ele>11.75</ele><time>2026-04-06T10:14:32.598Z</time></trkpt><trkpt lat="44.26775" lon="9.42348"><ele>12.0</ele><time>2026-04-06T10:14:33.598Z</time></trkpt><trkpt lat="44.2676683" lon="9.4236417"><ele>12.0</ele><time>2026-04-06T10:14:34.598Z</time></trkpt><trkpt lat="44.2675883" lon="9.4238033"><ele>12.0</ele><time>2026-04-06T10:14:35.598Z</time></trkpt><trkpt lat="44.2675117" lon="9.4239683"><ele>12.0</ele><time>2026-04-06T10:14:36.598Z</time></trkpt><trkpt lat="44.2674417" lon="9.4241267"><ele>12.0</ele><time>2026-04-06T10:14:37.598Z</time></trkpt><trkpt lat="44.267375" lon="9.4242733"><ele>12.0</ele><time>2026-04-06T10:14:38.598Z</time></trkpt><trkpt lat="44.26731" lon="9.4244133"><ele>12.0</ele><time>2026-04-06T10:14:39.597Z</time></trkpt><trkpt lat="44.2672467" lon="9.4245517"><ele>12.0</ele><time>2026-04-06T10:14:40.599Z</time></trkpt><trkpt lat="44.267185" lon="9.424685"><ele>12.0</ele><time>2026-04-06T10:14:41.598Z</time></trkpt><trkpt lat="44.2671267" lon="9.42481"><ele>12.0</ele><time>2026-04-06T10:14:42.597Z</time></trkpt><trkpt lat="44.2670733" lon="9.42492"><ele>12.0</ele><time>2026-04-06T10:14:43.598Z</time></trkpt><trkpt lat="44.267025" lon="9.4250183"><ele>12.0</ele><time>2026-04-06T10:14:44.598Z</time></trkpt><trkpt lat="44.2669783" lon="9.4250917"><ele>12.0</ele><time>2026-04-06T10:14:45.598Z</time></trkpt><trkpt lat="44.2668833" lon="9.4251667"><ele>12.0</ele><time>2026-04-06T10:14:47.597Z</time></trkpt><trkpt lat="44.2667967" lon="9.425185"><ele>12.0</ele><time>2026-04-06T10:14:49.599Z</time></trkpt><trkpt lat="44.2667317" lon="9.425165"><ele>12.0</ele><time>2026-04-06T10:14:51.598Z</time></trkpt><trkpt lat="44.266655" lon="9.4251483"><ele>12.0</ele><time>2026-04-06T10:15:02.599Z</time></trkpt><trkpt lat="44.2665567" lon="9.425165"><ele>12.0</ele><time>2026-04-06T10:15:04.598Z</time></trkpt><trkpt lat="44.26644" lon="9.4251983"><ele>12.0</ele><time>2026-04-06T10:15:06.598Z</time></trkpt><trkpt lat="44.2663767" lon="9.4252167"><ele>12.0</ele><time>2026-04-06T10:15:07.598Z</time></trkpt><trkpt lat="44.2663067" lon="9.4252383"><ele>12.0</ele><time>2026-04-06T10:15:08.602Z</time></trkpt><trkpt lat="44.2662333" lon="9.42526"><ele>12.0</ele><time>2026-04-06T10:15:09.599Z</time></trkpt><trkpt lat="44.2661583" lon="9.4252833"><ele>12.0</ele><time>2026-04-06T10:15:10.599Z</time></trkpt><trkpt lat="44.2660867" lon="9.425305"><ele>12.0</ele><time>2026-04-06T10:15:11.598Z</time></trkpt><trkpt lat="44.266015" lon="9.4253283"><ele>12.0</ele><time>2026-04-06T10:15:12.599Z</time></trkpt><trkpt lat="44.2659367" lon="9.42536"><ele>12.0</ele><time>2026-04-06T10:15:13.599Z</time></trkpt><trkpt lat="44.2658517" lon="9.42539"><ele>12.0</ele><time>2026-04-06T10:15:14.599Z</time></trkpt><trkpt lat="44.2657683" lon="9.425425"><ele>12.0</ele><time>2026-04-06T10:15:15.598Z</time></trkpt><trkpt lat="44.2656867" lon="9.425455"><ele>12.0</ele><time>2026-04-06T10:15:16.599Z</time></trkpt><trkpt lat="44.2655967" lon="9.42548"><ele>12.0</ele><time>2026-04-06T10:15:17.597Z</time></trkpt><trkpt lat="44.2655067" lon="9.4255"><ele>12.0</ele><time>2026-04-06T10:15:18.599Z</time></trkpt><trkpt lat="44.2654133" lon="9.4255133"><ele>12.0</ele><time>2026-04-06T10:15:19.599Z</time></trkpt><trkpt lat="44.2653233" lon="9.4255217"><ele>11.666666666666666</ele><time>2026-04-06T10:15:20.599Z</time></trkpt><trkpt lat="44.265235" lon="9.425525"><ele>11.333333333333334</ele><time>2026-04-06T10:15:21.598Z</time></trkpt><trkpt lat="44.2651517" lon="9.4255267"><ele>11.0</ele><time>2026-04-06T10:15:22.599Z</time></trkpt><trkpt lat="44.26507" lon="9.4255333"><ele>10.666666666666668</ele><time>2026-04-06T10:15:23.599Z</time></trkpt><trkpt lat="44.2649833" lon="9.42554"><ele>10.333333333333334</ele><time>2026-04-06T10:15:24.598Z</time></trkpt><trkpt lat="44.264895" lon="9.4255417"><ele>10.0</ele><time>2026-04-06T10:15:25.598Z</time></trkpt><trkpt lat="44.264805" lon="9.4255433"><ele>9.666666666666668</ele><time>2026-04-06T10:15:26.6Z</time></trkpt><trkpt lat="44.2647167" lon="9.42554"><ele>9.333333333333334</ele><time>2026-04-06T10:15:27.599Z</time></trkpt><trkpt lat="44.26463" lon="9.42553"><ele>9.0</ele><time>2026-04-06T10:15:28.599Z</time></trkpt><trkpt lat="44.2645433" lon="9.4255133"><ele>8.666666666666666</ele><time>2026-04-06T10:15:29.598Z</time></trkpt><trkpt lat="44.2644533" lon="9.4254933"><ele>8.333333333333332</ele><time>2026-04-06T10:15:30.598Z</time></trkpt><trkpt lat="44.2643633" lon="9.42547"><ele>8.0</ele><time>2026-04-06T10:15:31.597Z</time></trkpt><trkpt lat="44.264275" lon="9.4254433"><ele>8.166666666666666</ele><time>2026-04-06T10:15:32.598Z</time></trkpt><trkpt lat="44.2641917" lon="9.425415"><ele>8.333333333333332</ele><time>2026-04-06T10:15:33.598Z</time></trkpt><trkpt lat="44.2641117" lon="9.425385"><ele>8.5</ele><time>2026-04-06T10:15:34.598Z</time></trkpt><trkpt lat="44.2640367" lon="9.4253533"><ele>8.666666666666666</ele><time>2026-04-06T10:15:35.597Z</time></trkpt><trkpt lat="44.263955" lon="9.4253167"><ele>8.833333333333334</ele><time>2026-04-06T10:15:36.597Z</time></trkpt><trkpt lat="44.2638683" lon="9.42527"><ele>9.0</ele><time>2026-04-06T10:15:37.598Z</time></trkpt><trkpt lat="44.2637817" lon="9.42521"><ele>9.0</ele><time>2026-04-06T10:15:38.599Z</time></trkpt><trkpt lat="44.2637" lon="9.4251383"><ele>9.0</ele><time>2026-04-06T10:15:39.599Z</time></trkpt><trkpt lat="44.2636267" lon="9.4250583"><ele>9.0</ele><time>2026-04-06T10:15:40.599Z</time></trkpt><trkpt lat="44.2635617" lon="9.4249733"><ele>9.0</ele><time>2026-04-06T10:15:41.598Z</time></trkpt><trkpt lat="44.2635" lon="9.4248917"><ele>9.0</ele><time>2026-04-06T10:15:42.598Z</time></trkpt><trkpt lat="44.2634433" lon="9.424815"><ele>9.0</ele><time>2026-04-06T10:15:43.599Z</time></trkpt><trkpt lat="44.2633917" lon="9.42475"><ele>9.0</ele><time>2026-04-06T10:15:44.598Z</time></trkpt><trkpt lat="44.2633383" lon="9.4246917"><ele>9.0</ele><time>2026-04-06T10:15:45.597Z</time></trkpt><trkpt lat="44.2632317" lon="9.424595"><ele>9.0</ele><time>2026-04-06T10:15:47.598Z</time></trkpt><trkpt lat="44.2631683" lon="9.4245633"><ele>9.0</ele><time>2026-04-06T10:15:48.598Z</time></trkpt><trkpt lat="44.263095" lon="9.4245533"><ele>9.0</ele><time>2026-04-06T10:15:49.599Z</time></trkpt><trkpt lat="44.2630117" lon="9.424555"><ele>9.0</ele><time>2026-04-06T10:15:50.599Z</time></trkpt><trkpt lat="44.2629217" lon="9.4245617"><ele>9.5</ele><time>2026-04-06T10:15:51.598Z</time></trkpt><trkpt lat="44.2628367" lon="9.4245683"><ele>10.0</ele><time>2026-04-06T10:15:52.6Z</time></trkpt><trkpt lat="44.262755" lon="9.42457"><ele>10.5</ele><time>2026-04-06T10:15:53.599Z</time></trkpt><trkpt lat="44.2626783" lon="9.4245717"><ele>11.0</ele><time>2026-04-06T10:15:54.597Z</time></trkpt><trkpt lat="44.262605" lon="9.4245767"><ele>11.5</ele><time>2026-04-06T10:15:55.599Z</time></trkpt><trkpt lat="44.262535" lon="9.424585"><ele>12.0</ele><time>2026-04-06T10:15:56.598Z</time></trkpt><trkpt lat="44.2624683" lon="9.4245983"><ele>12.0</ele><time>2026-04-06T10:15:57.597Z</time></trkpt><trkpt lat="44.262395" lon="9.4246033"><ele>12.0</ele><time>2026-04-06T10:15:58.599Z</time></trkpt><trkpt lat="44.262315" lon="9.4245917"><ele>12.0</ele><time>2026-04-06T10:15:59.598Z</time></trkpt><trkpt lat="44.26223" lon="9.42456"><ele>12.0</ele><time>2026-04-06T10:16:00.597Z</time></trkpt><trkpt lat="44.262145" lon="9.4245067"><ele>12.0</ele><time>2026-04-06T10:16:01.599Z</time></trkpt><trkpt lat="44.2620633" lon="9.4244417"><ele>12.0</ele><time>2026-04-06T10:16:02.599Z</time></trkpt><trkpt lat="44.2619883" lon="9.424375"><ele>10.799999999999999</ele><time>2026-04-06T10:16:03.599Z</time></trkpt><trkpt lat="44.2619133" lon="9.4243067"><ele>9.6</ele><time>2026-04-06T10:16:04.598Z</time></trkpt><trkpt lat="44.2618367" lon="9.424235"><ele>8.399999999999999</ele><time>2026-04-06T10:16:05.599Z</time></trkpt><trkpt lat="44.261755" lon="9.4241617"><ele>7.199999999999999</ele><time>2026-04-06T10:16:06.598Z</time></trkpt><trkpt lat="44.26167" lon="9.4240867"><ele>6.0</ele><time>2026-04-06T10:16:07.598Z</time></trkpt><trkpt lat="44.261585" lon="9.4240117"><ele>6.0</ele><time>2026-04-06T10:16:08.598Z</time></trkpt><trkpt lat="44.2614967" lon="9.4239367"><ele>6.0</ele><time>2026-04-06T10:16:09.598Z</time></trkpt><trkpt lat="44.26141" lon="9.423865"><ele>6.0</ele><time>2026-04-06T10:16:10.597Z</time></trkpt><trkpt lat="44.2613283" lon="9.423795"><ele>6.0</ele><time>2026-04-06T10:16:11.599Z</time></trkpt><trkpt lat="44.2612483" lon="9.4237233"><ele>6.0</ele><time>2026-04-06T10:16:12.599Z</time></trkpt><trkpt lat="44.2611667" lon="9.42366"><ele>5.6</ele><time>2026-04-06T10:16:13.598Z</time></trkpt><trkpt lat="44.261085" lon="9.4235917"><ele>5.199999999999999</ele><time>2026-04-06T10:16:14.6Z</time></trkpt><trkpt lat="44.261" lon="9.4235267"><ele>4.800000000000001</ele><time>2026-04-06T10:16:15.598Z</time></trkpt><trkpt lat="44.2609167" lon="9.423465"><ele>4.4</ele><time>2026-04-06T10:16:16.598Z</time></trkpt><trkpt lat="44.260835" lon="9.423405"><ele>4.0</ele><time>2026-04-06T10:16:17.598Z</time></trkpt><trkpt lat="44.260755" lon="9.4233433"><ele>3.9999999999999996</ele><time>2026-04-06T10:16:18.599Z</time></trkpt><trkpt lat="44.2606733" lon="9.4232833"><ele>4.0</ele><time>2026-04-06T10:16:19.599Z</time></trkpt><trkpt lat="44.260595" lon="9.4232183"><ele>4.0</ele><time>2026-04-06T10:16:20.598Z</time></trkpt><trkpt lat="44.2605183" lon="9.4231583"><ele>4.0</ele><time>2026-04-06T10:16:21.598Z</time></trkpt><trkpt lat="44.26044" lon="9.4231033"><ele>3.9999999999999996</ele><time>2026-04-06T10:16:22.599Z</time></trkpt><trkpt lat="44.260365" lon="9.4230517"><ele>4.0</ele><time>2026-04-06T10:16:23.599Z</time></trkpt><trkpt lat="44.2602933" lon="9.422995"><ele>4.166666666666666</ele><time>2026-04-06T10:16:24.598Z</time></trkpt><trkpt lat="44.2602267" lon="9.4229383"><ele>4.333333333333333</ele><time>2026-04-06T10:16:25.599Z</time></trkpt><trkpt lat="44.2601667" lon="9.4228833"><ele>4.5</ele><time>2026-04-06T10:16:26.599Z</time></trkpt><trkpt lat="44.26011" lon="9.4228333"><ele>4.666666666666667</ele><time>2026-04-06T10:16:27.599Z</time></trkpt><trkpt lat="44.2600233" lon="9.42274"><ele>4.833333333333334</ele><time>2026-04-06T10:16:29.598Z</time></trkpt><trkpt lat="44.25994" lon="9.4226483"><ele>5.0</ele><time>2026-04-06T10:16:31.597Z</time></trkpt><trkpt lat="44.259875" lon="9.4225417"><ele>5.0</ele><time>2026-04-06T10:16:33.598Z</time></trkpt><trkpt lat="44.2598567" lon="9.4224067"><ele>5.0</ele><time>2026-04-06T10:16:35.598Z</time></trkpt><trkpt lat="44.2598683" lon="9.4223183"><ele>5.0</ele><time>2026-04-06T10:16:36.598Z</time></trkpt><trkpt lat="44.2598917" lon="9.422215"><ele>5.0</ele><time>2026-04-06T10:16:37.598Z</time></trkpt><trkpt lat="44.2599183" lon="9.4220967"><ele>5.0</ele><time>2026-04-06T10:16:38.599Z</time></trkpt><trkpt lat="44.25994" lon="9.421975"><ele>5.0</ele><time>2026-04-06T10:16:39.598Z</time></trkpt><trkpt lat="44.25996" lon="9.4218533"><ele>5.2</ele><time>2026-04-06T10:16:40.598Z</time></trkpt><trkpt lat="44.2599833" lon="9.4217317"><ele>5.4</ele><time>2026-04-06T10:16:41.598Z</time></trkpt><trkpt lat="44.260005" lon="9.4216167"><ele>5.6</ele><time>2026-04-06T10:16:42.597Z</time></trkpt><trkpt lat="44.260025" lon="9.4214967"><ele>5.8</ele><time>2026-04-06T10:16:43.599Z</time></trkpt><trkpt lat="44.2600533" lon="9.4213683"><ele>6.0</ele><time>2026-04-06T10:16:44.599Z</time></trkpt><trkpt lat="44.2600817" lon="9.4212467"><ele>6.0</ele><time>2026-04-06T10:16:45.598Z</time></trkpt><trkpt lat="44.2601033" lon="9.4211317"><ele>6.0</ele><time>2026-04-06T10:16:46.599Z</time></trkpt><trkpt lat="44.2601283" lon="9.4210233"><ele>6.0</ele><time>2026-04-06T10:16:47.598Z</time></trkpt><trkpt lat="44.26015" lon="9.4209233"><ele>6.0</ele><time>2026-04-06T10:16:48.598Z</time></trkpt><trkpt lat="44.2601683" lon="9.4208317"><ele>6.0</ele><time>2026-04-06T10:16:49.598Z</time></trkpt><trkpt lat="44.2601967" lon="9.420695"><ele>6.0</ele><time>2026-04-06T10:16:51.599Z</time></trkpt><trkpt lat="44.2602283" lon="9.420595"><ele>6.0</ele><time>2026-04-06T10:16:53.598Z</time></trkpt><trkpt lat="44.2603233" lon="9.4205183"><ele>6.0</ele><time>2026-04-06T10:16:55.599Z</time></trkpt><trkpt lat="44.2603867" lon="9.42049"><ele>6.0</ele><time>2026-04-06T10:16:56.598Z</time></trkpt><trkpt lat="44.2604567" lon="9.4204667"><ele>6.0</ele><time>2026-04-06T10:16:57.599Z</time></trkpt><trkpt lat="44.2605333" lon="9.4204417"><ele>6.0</ele><time>2026-04-06T10:16:58.599Z</time></trkpt><trkpt lat="44.2606167" lon="9.4204233"><ele>6.0</ele><time>2026-04-06T10:16:59.598Z</time></trkpt><trkpt lat="44.2607" lon="9.4204017"><ele>6.0</ele><time>2026-04-06T10:17:00.599Z</time></trkpt><trkpt lat="44.2607933" lon="9.4203783"><ele>6.0</ele><time>2026-04-06T10:17:01.599Z</time></trkpt><trkpt lat="44.2608883" lon="9.4203617"><ele>6.0</ele><time>2026-04-06T10:17:02.598Z</time></trkpt><trkpt lat="44.26097" lon="9.4203483"><ele>6.0</ele><time>2026-04-06T10:17:03.598Z</time></trkpt><trkpt lat="44.2610433" lon="9.4203283"><ele>6.0</ele><time>2026-04-06T10:17:04.598Z</time></trkpt><trkpt lat="44.261125" lon="9.4203133"><ele>6.0</ele><time>2026-04-06T10:17:05.598Z</time></trkpt><trkpt lat="44.2612017" lon="9.4202967"><ele>6.0</ele><time>2026-04-06T10:17:06.598Z</time></trkpt><trkpt lat="44.261275" lon="9.4202867"><ele>6.0</ele><time>2026-04-06T10:17:07.598Z</time></trkpt><trkpt lat="44.2613433" lon="9.4202767"><ele>6.0</ele><time>2026-04-06T10:17:08.598Z</time></trkpt><trkpt lat="44.2614117" lon="9.42027"><ele>6.0</ele><time>2026-04-06T10:17:09.599Z</time></trkpt><trkpt lat="44.2614767" lon="9.4202617"><ele>6.0</ele><time>2026-04-06T10:17:10.599Z</time></trkpt><trkpt lat="44.2615767" lon="9.4202267"><ele>6.0</ele><time>2026-04-06T10:17:12.598Z</time></trkpt><trkpt lat="44.2616133" lon="9.4201217"><ele>6.333333333333333</ele><time>2026-04-06T10:17:14.597Z</time></trkpt><trkpt lat="44.2616117" lon="9.419935"><ele>6.666666666666666</ele><time>2026-04-06T10:17:16.599Z</time></trkpt><trkpt lat="44.2615967" lon="9.41983"><ele>7.0</ele><time>2026-04-06T10:17:17.599Z</time></trkpt><trkpt lat="44.2615817" lon="9.4197267"><ele>7.333333333333333</ele><time>2026-04-06T10:17:18.6Z</time></trkpt><trkpt lat="44.26156" lon="9.4196267"><ele>7.666666666666666</ele><time>2026-04-06T10:17:19.598Z</time></trkpt><trkpt lat="44.261545" lon="9.419515"><ele>8.0</ele><time>2026-04-06T10:17:20.598Z</time></trkpt><trkpt lat="44.2615267" lon="9.419405"><ele>8.600000000000001</ele><time>2026-04-06T10:17:21.598Z</time></trkpt><trkpt lat="44.2615033" lon="9.4192917"><ele>9.200000000000001</ele><time>2026-04-06T10:17:22.598Z</time></trkpt><trkpt lat="44.2614917" lon="9.419175"><ele>9.8</ele><time>2026-04-06T10:17:23.599Z</time></trkpt><trkpt lat="44.2614883" lon="9.4190483"><ele>10.4</ele><time>2026-04-06T10:17:24.598Z</time></trkpt><trkpt lat="44.2614867" lon="9.4189117"><ele>11.0</ele><time>2026-04-06T10:17:25.599Z</time></trkpt><trkpt lat="44.2614817" lon="9.41878"><ele>10.0</ele><time>2026-04-06T10:17:26.599Z</time></trkpt><trkpt lat="44.2614833" lon="9.4186433"><ele>9.0</ele><time>2026-04-06T10:17:27.598Z</time></trkpt><trkpt lat="44.26148" lon="9.4185267"><ele>8.0</ele><time>2026-04-06T10:17:28.598Z</time></trkpt><trkpt lat="44.2614767" lon="9.418425"><ele>7.0</ele><time>2026-04-06T10:17:29.599Z</time></trkpt><trkpt lat="44.2614233" lon="9.4182967"><ele>6.0</ele><time>2026-04-06T10:17:31.599Z</time></trkpt><trkpt lat="44.26136" lon="9.4182567"><ele>5.0</ele><time>2026-04-06T10:17:33.598Z</time></trkpt><trkpt lat="44.2613" lon="9.4182217"><ele>5.0</ele><time>2026-04-06T10:17:35.599Z</time></trkpt><trkpt lat="44.2611933" lon="9.4182283"><ele>5.0</ele><time>2026-04-06T10:17:37.599Z</time></trkpt><trkpt lat="44.2610983" lon="9.418245"><ele>5.0</ele><time>2026-04-06T10:17:39.598Z</time></trkpt><trkpt lat="44.2610217" lon="9.4182517"><ele>5.0</ele><time>2026-04-06T10:17:41.599Z</time></trkpt><trkpt lat="44.2609417" lon="9.41827"><ele>5.0</ele><time>2026-04-06T10:17:43.598Z</time></trkpt><trkpt lat="44.2608783" lon="9.41828"><ele>5.0</ele><time>2026-04-06T10:17:45.597Z</time></trkpt><trkpt lat="44.26081" lon="9.4182883"><ele>5.0</ele><time>2026-04-06T10:17:47.599Z</time></trkpt><trkpt lat="44.2607467" lon="9.4183033"><ele>5.0</ele><time>2026-04-06T10:17:49.599Z</time></trkpt><trkpt lat="44.26068" lon="9.41835"><ele>5.0</ele><time>2026-04-06T10:17:51.598Z</time></trkpt><trkpt lat="44.26062" lon="9.4183917"><ele>5.0</ele><time>2026-04-06T10:17:53.599Z</time></trkpt><trkpt lat="44.2605383" lon="9.41841"><ele>5.0</ele><time>2026-04-06T10:17:56.599Z</time></trkpt><trkpt lat="44.2604667" lon="9.41841"><ele>5.0</ele><time>2026-04-06T10:18:00.598Z</time></trkpt><trkpt lat="44.2604117" lon="9.4184933"><ele>5.0</ele><time>2026-04-06T10:18:06.598Z</time></trkpt><trkpt lat="44.2604083" lon="9.4186183"><ele>3.0</ele><time>2026-04-06T10:18:09.598Z</time></trkpt><trkpt lat="44.2604083" lon="9.4187117"><ele>3.0</ele><time>2026-04-06T10:18:13.598Z</time></trkpt><trkpt lat="44.26034" lon="9.4187517"><ele>3.0</ele><time>2026-04-06T10:18:25.599Z</time></trkpt><trkpt lat="44.2602717" lon="9.4187433"><ele>3.0</ele><time>2026-04-06T10:18:29.598Z</time></trkpt></trkseg><trkseg><trkpt lat="44.2599983" lon="9.4175883"><ele>5.0</ele><time>2026-04-06T11:55:45.599Z</time></trkpt><trkpt lat="44.26" lon="9.4174533"><ele>5.0</ele><time>2026-04-06T11:56:22.598Z</time></trkpt><trkpt lat="44.2599983" lon="9.4175983"><ele>5.0</ele><time>2026-04-06T11:56:36.6Z</time></trkpt><trkpt lat="44.2600667" lon="9.4177067"><ele>5.0</ele><time>2026-04-06T11:58:12.602Z</time></trkpt><trkpt lat="44.2601283" lon="9.417735"><ele>5.0</ele><time>2026-04-06T11:58:17.602Z</time></trkpt><trkpt lat="44.2602" lon="9.4177552"><ele>5.0</ele><time>2026-04-06T11:58:25.669Z</time></trkpt><trkpt lat="44.2602648" lon="9.4178"><ele>5.0</ele><time>2026-04-06T11:58:31.597Z</time></trkpt><trkpt lat="44.2602697" lon="9.4179025"><ele>5.0</ele><time>2026-04-06T11:58:38.669Z</time></trkpt><trkpt lat="44.2602746" lon="9.4179953"><ele>3.0</ele><time>2026-04-06T11:58:46.677Z</time></trkpt></trkseg><trkseg><trkpt lat="44.2602245" lon="9.4188801"><ele>3.0</ele><time>2026-04-06T13:11:59.607Z</time></trkpt><trkpt lat="44.2602914" lon="9.4187891"><ele>3.0</ele><time>2026-04-06T13:12:32.679Z</time></trkpt><trkpt lat="44.2603533" lon="9.4187683"><ele>3.0</ele><time>2026-04-06T13:12:39.597Z</time></trkpt><trkpt lat="44.2603733" lon="9.4188617"><ele>3.0</ele><time>2026-04-06T13:12:43.599Z</time></trkpt><trkpt lat="44.2603683" lon="9.41896"><ele>3.0</ele><time>2026-04-06T13:12:45.597Z</time></trkpt><trkpt lat="44.260365" lon="9.419065"><ele>3.0</ele><time>2026-04-06T13:12:47.597Z</time></trkpt><trkpt lat="44.2603667" lon="9.41918"><ele>3.0</ele><time>2026-04-06T13:12:49.598Z</time></trkpt><trkpt lat="44.26036" lon="9.419315"><ele>3.0</ele><time>2026-04-06T13:12:51.598Z</time></trkpt><trkpt lat="44.2603567" lon="9.4194883"><ele>3.0</ele><time>2026-04-06T13:12:53.601Z</time></trkpt><trkpt lat="44.260355" lon="9.4196517"><ele>3.0</ele><time>2026-04-06T13:12:55.598Z</time></trkpt><trkpt lat="44.26036" lon="9.419785"><ele>3.0</ele><time>2026-04-06T13:12:57.598Z</time></trkpt><trkpt lat="44.2603567" lon="9.4199033"><ele>3.0</ele><time>2026-04-06T13:12:59.598Z</time></trkpt><trkpt lat="44.2603517" lon="9.4200133"><ele>3.0</ele><time>2026-04-06T13:13:01.598Z</time></trkpt><trkpt lat="44.2603417" lon="9.42012"><ele>3.0</ele><time>2026-04-06T13:13:04.598Z</time></trkpt><trkpt lat="44.2603267" lon="9.420225"><ele>3.0</ele><time>2026-04-06T13:13:07.599Z</time></trkpt><trkpt lat="44.2603183" lon="9.42032"><ele>3.0</ele><time>2026-04-06T13:13:09.598Z</time></trkpt><trkpt lat="44.2602917" lon="9.42043"><ele>3.0</ele><time>2026-04-06T13:13:12.6Z</time></trkpt><trkpt lat="44.2602383" lon="9.4204983"><ele>3.5999999999999996</ele><time>2026-04-06T13:13:14.598Z</time></trkpt><trkpt lat="44.2601667" lon="9.4206267"><ele>4.199999999999999</ele><time>2026-04-06T13:13:16.598Z</time></trkpt><trkpt lat="44.260145" lon="9.4207417"><ele>4.8</ele><time>2026-04-06T13:13:17.598Z</time></trkpt><trkpt lat="44.2601267" lon="9.4208617"><ele>5.3999999999999995</ele><time>2026-04-06T13:13:18.598Z</time></trkpt><trkpt lat="44.2601033" lon="9.420985"><ele>6.0</ele><time>2026-04-06T13:13:19.597Z</time></trkpt><trkpt lat="44.2600783" lon="9.4211067"><ele>6.0</ele><time>2026-04-06T13:13:20.597Z</time></trkpt><trkpt lat="44.2600567" lon="9.4212217"><ele>6.0</ele><time>2026-04-06T13:13:21.597Z</time></trkpt><trkpt lat="44.26003" lon="9.4213283"><ele>6.0</ele><time>2026-04-06T13:13:22.597Z</time></trkpt><trkpt lat="44.2600067" lon="9.42143"><ele>6.0</ele><time>2026-04-06T13:13:23.598Z</time></trkpt><trkpt lat="44.2599867" lon="9.42153"><ele>6.0</ele><time>2026-04-06T13:13:24.598Z</time></trkpt><trkpt lat="44.2599633" lon="9.4216267"><ele>6.0</ele><time>2026-04-06T13:13:25.599Z</time></trkpt><trkpt lat="44.2599433" lon="9.42173"><ele>5.833333333333333</ele><time>2026-04-06T13:13:26.599Z</time></trkpt><trkpt lat="44.2599367" lon="9.4218433"><ele>5.666666666666667</ele><time>2026-04-06T13:13:27.598Z</time></trkpt><trkpt lat="44.2599183" lon="9.42196"><ele>5.5</ele><time>2026-04-06T13:13:28.599Z</time></trkpt><trkpt lat="44.259895" lon="9.4220767"><ele>5.333333333333334</ele><time>2026-04-06T13:13:29.598Z</time></trkpt><trkpt lat="44.2598717" lon="9.42219"><ele>5.166666666666667</ele><time>2026-04-06T13:13:30.598Z</time></trkpt><trkpt lat="44.25985" lon="9.4223033"><ele>5.0</ele><time>2026-04-06T13:13:31.599Z</time></trkpt><trkpt lat="44.2598233" lon="9.422405"><ele>5.0</ele><time>2026-04-06T13:13:32.598Z</time></trkpt><trkpt lat="44.2597967" lon="9.4225083"><ele>5.0</ele><time>2026-04-06T13:13:33.6Z</time></trkpt><trkpt lat="44.2597733" lon="9.4226117"><ele>5.0</ele><time>2026-04-06T13:13:34.598Z</time></trkpt><trkpt lat="44.2597483" lon="9.422715"><ele>5.0</ele><time>2026-04-06T13:13:35.598Z</time></trkpt><trkpt lat="44.2597233" lon="9.42282"><ele>5.0</ele><time>2026-04-06T13:13:36.597Z</time></trkpt><trkpt lat="44.2597" lon="9.422925"><ele>5.0</ele><time>2026-04-06T13:13:37.598Z</time></trkpt><trkpt lat="44.2596783" lon="9.42303"><ele>4.5</ele><time>2026-04-06T13:13:38.598Z</time></trkpt><trkpt lat="44.259655" lon="9.423135"><ele>4.0</ele><time>2026-04-06T13:13:39.598Z</time></trkpt><trkpt lat="44.2596317" lon="9.423245"><ele>3.5</ele><time>2026-04-06T13:13:40.598Z</time></trkpt><trkpt lat="44.25961" lon="9.4233567"><ele>3.0</ele><time>2026-04-06T13:13:41.6Z</time></trkpt><trkpt lat="44.2595883" lon="9.42347"><ele>2.5</ele><time>2026-04-06T13:13:42.598Z</time></trkpt><trkpt lat="44.2595683" lon="9.4235833"><ele>2.0</ele><time>2026-04-06T13:13:43.598Z</time></trkpt><trkpt lat="44.2595467" lon="9.4236933"><ele>2.0</ele><time>2026-04-06T13:13:44.598Z</time></trkpt><trkpt lat="44.2595217" lon="9.4237983"><ele>1.9999999999999998</ele><time>2026-04-06T13:13:45.597Z</time></trkpt><trkpt lat="44.2594917" lon="9.4239"><ele>2.0</ele><time>2026-04-06T13:13:46.598Z</time></trkpt><trkpt lat="44.2594583" lon="9.4239933"><ele>2.0</ele><time>2026-04-06T13:13:47.598Z</time></trkpt><trkpt lat="44.2594233" lon="9.4240817"><ele>1.9999999999999998</ele><time>2026-04-06T13:13:48.598Z</time></trkpt><trkpt lat="44.2593883" lon="9.4241683"><ele>2.0</ele><time>2026-04-06T13:13:49.598Z</time></trkpt><trkpt lat="44.2593533" lon="9.424245"><ele>2.0</ele><time>2026-04-06T13:13:50.598Z</time></trkpt><trkpt lat="44.2592883" lon="9.424385"><ele>2.333333333333333</ele><time>2026-04-06T13:13:52.598Z</time></trkpt><trkpt lat="44.259225" lon="9.4244917"><ele>2.6666666666666665</ele><time>2026-04-06T13:13:54.598Z</time></trkpt><trkpt lat="44.259175" lon="9.4245783"><ele>3.0</ele><time>2026-04-06T13:13:56.598Z</time></trkpt><trkpt lat="44.2591333" lon="9.4246567"><ele>3.333333333333333</ele><time>2026-04-06T13:13:59.598Z</time></trkpt><trkpt lat="44.2590817" lon="9.42475"><ele>3.6666666666666665</ele><time>2026-04-06T13:14:02.599Z</time></trkpt><trkpt lat="44.2590217" lon="9.424875"><ele>4.0</ele><time>2026-04-06T13:14:04.597Z</time></trkpt><trkpt lat="44.2589617" lon="9.42499"><ele>3.9999999999999996</ele><time>2026-04-06T13:14:06.599Z</time></trkpt><trkpt lat="44.2589083" lon="9.4250967"><ele>4.0</ele><time>2026-04-06T13:14:08.599Z</time></trkpt><trkpt lat="44.2588617" lon="9.425185"><ele>4.0</ele><time>2026-04-06T13:14:10.597Z</time></trkpt><trkpt lat="44.2588383" lon="9.4252683"><ele>4.0</ele><time>2026-04-06T13:14:12.598Z</time></trkpt><trkpt lat="44.2588667" lon="9.4253583"><ele>3.9999999999999996</ele><time>2026-04-06T13:14:15.597Z</time></trkpt><trkpt lat="44.2589117" lon="9.42546"><ele>4.0</ele><time>2026-04-06T13:14:18.598Z</time></trkpt><trkpt lat="44.2589583" lon="9.42555"><ele>5.0</ele><time>2026-04-06T13:14:20.598Z</time></trkpt><trkpt lat="44.25903" lon="9.4256633"><ele>6.0</ele><time>2026-04-06T13:14:22.597Z</time></trkpt><trkpt lat="44.2591233" lon="9.42577"><ele>7.0</ele><time>2026-04-06T13:14:24.598Z</time></trkpt><trkpt lat="44.2591933" lon="9.42589"><ele>8.0</ele><time>2026-04-06T13:14:26.604Z</time></trkpt><trkpt lat="44.2591933" lon="9.4260033"><ele>9.0</ele><time>2026-04-06T13:14:27.599Z</time></trkpt><trkpt lat="44.25919" lon="9.426125"><ele>9.0</ele><time>2026-04-06T13:14:28.6Z</time></trkpt><trkpt lat="44.259195" lon="9.426255"><ele>9.0</ele><time>2026-04-06T13:14:29.598Z</time></trkpt><trkpt lat="44.2592117" lon="9.4263917"><ele>9.0</ele><time>2026-04-06T13:14:30.598Z</time></trkpt><trkpt lat="44.2592367" lon="9.4265133"><ele>9.0</ele><time>2026-04-06T13:14:31.599Z</time></trkpt><trkpt lat="44.259275" lon="9.426625"><ele>9.0</ele><time>2026-04-06T13:14:32.599Z</time></trkpt><trkpt lat="44.2593283" lon="9.4267267"><ele>8.833333333333334</ele><time>2026-04-06T13:14:33.598Z</time></trkpt><trkpt lat="44.259395" lon="9.42682"><ele>8.666666666666666</ele><time>2026-04-06T13:14:34.597Z</time></trkpt><trkpt lat="44.2594583" lon="9.42691"><ele>8.5</ele><time>2026-04-06T13:14:35.597Z</time></trkpt><trkpt lat="44.2595233" lon="9.4269917"><ele>8.333333333333332</ele><time>2026-04-06T13:14:36.599Z</time></trkpt><trkpt lat="44.2595817" lon="9.427075"><ele>8.166666666666666</ele><time>2026-04-06T13:14:37.598Z</time></trkpt><trkpt lat="44.2596283" lon="9.4271717"><ele>8.0</ele><time>2026-04-06T13:14:38.599Z</time></trkpt><trkpt lat="44.2596617" lon="9.427275"><ele>8.0</ele><time>2026-04-06T13:14:39.599Z</time></trkpt><trkpt lat="44.259685" lon="9.4273867"><ele>8.0</ele><time>2026-04-06T13:14:40.598Z</time></trkpt><trkpt lat="44.25969" lon="9.4275067"><ele>8.0</ele><time>2026-04-06T13:14:41.597Z</time></trkpt><trkpt lat="44.259685" lon="9.42763"><ele>8.0</ele><time>2026-04-06T13:14:42.597Z</time></trkpt><trkpt lat="44.2596683" lon="9.4277717"><ele>8.0</ele><time>2026-04-06T13:14:43.597Z</time></trkpt><trkpt lat="44.2596517" lon="9.4279233"><ele>8.75</ele><time>2026-04-06T13:14:44.599Z</time></trkpt><trkpt lat="44.25963" lon="9.42808"><ele>9.5</ele><time>2026-04-06T13:14:45.598Z</time></trkpt><trkpt lat="44.2596133" lon="9.4282433"><ele>10.25</ele><time>2026-04-06T13:14:46.598Z</time></trkpt><trkpt lat="44.2595967" lon="9.4284183"><ele>11.0</ele><time>2026-04-06T13:14:47.599Z</time></trkpt><trkpt lat="44.2595833" lon="9.428595"><ele>11.0</ele><time>2026-04-06T13:14:48.599Z</time></trkpt><trkpt lat="44.2595717" lon="9.4287733"><ele>11.0</ele><time>2026-04-06T13:14:49.599Z</time></trkpt><trkpt lat="44.2595633" lon="9.4289483"><ele>11.0</ele><time>2026-04-06T13:14:50.599Z</time></trkpt><trkpt lat="44.2595533" lon="9.4291167"><ele>11.0</ele><time>2026-04-06T13:14:51.597Z</time></trkpt><trkpt lat="44.2595417" lon="9.4292833"><ele>11.0</ele><time>2026-04-06T13:14:52.598Z</time></trkpt><trkpt lat="44.25953" lon="9.42945"><ele>11.0</ele><time>2026-04-06T13:14:53.598Z</time></trkpt><trkpt lat="44.259515" lon="9.4296233"><ele>11.0</ele><time>2026-04-06T13:14:54.598Z</time></trkpt><trkpt lat="44.2595" lon="9.42979"><ele>11.0</ele><time>2026-04-06T13:14:55.599Z</time></trkpt><trkpt lat="44.2594867" lon="9.4299567"><ele>10.5</ele><time>2026-04-06T13:14:56.598Z</time></trkpt><trkpt lat="44.2594767" lon="9.4301217"><ele>10.0</ele><time>2026-04-06T13:14:57.597Z</time></trkpt><trkpt lat="44.2594783" lon="9.43028"><ele>9.5</ele><time>2026-04-06T13:14:58.6Z</time></trkpt><trkpt lat="44.2594883" lon="9.4304367"><ele>9.0</ele><time>2026-04-06T13:14:59.599Z</time></trkpt><trkpt lat="44.2595067" lon="9.4305883"><ele>9.0</ele><time>2026-04-06T13:15:00.598Z</time></trkpt><trkpt lat="44.2595217" lon="9.430735"><ele>9.0</ele><time>2026-04-06T13:15:01.599Z</time></trkpt><trkpt lat="44.25953" lon="9.4308683"><ele>9.0</ele><time>2026-04-06T13:15:02.6Z</time></trkpt><trkpt lat="44.259535" lon="9.4309967"><ele>9.0</ele><time>2026-04-06T13:15:03.599Z</time></trkpt><trkpt lat="44.2595483" lon="9.4311167"><ele>9.0</ele><time>2026-04-06T13:15:04.599Z</time></trkpt><trkpt lat="44.25957" lon="9.4312267"><ele>9.666666666666666</ele><time>2026-04-06T13:15:05.598Z</time></trkpt><trkpt lat="44.2596" lon="9.43132"><ele>10.333333333333332</ele><time>2026-04-06T13:15:06.597Z</time></trkpt><trkpt lat="44.2596267" lon="9.4314017"><ele>11.0</ele><time>2026-04-06T13:15:07.598Z</time></trkpt><trkpt lat="44.2596667" lon="9.4315167"><ele>11.666666666666666</ele><time>2026-04-06T13:15:09.598Z</time></trkpt><trkpt lat="44.2597133" lon="9.43158"><ele>12.333333333333332</ele><time>2026-04-06T13:15:11.598Z</time></trkpt><trkpt lat="44.2598267" lon="9.43162"><ele>13.0</ele><time>2026-04-06T13:15:13.599Z</time></trkpt><trkpt lat="44.2599017" lon="9.4316417"><ele>14.0</ele><time>2026-04-06T13:15:14.599Z</time></trkpt><trkpt lat="44.2599833" lon="9.4316633"><ele>15.0</ele><time>2026-04-06T13:15:15.599Z</time></trkpt><trkpt lat="44.2600717" lon="9.4316817"><ele>16.0</ele><time>2026-04-06T13:15:16.598Z</time></trkpt><trkpt lat="44.260165" lon="9.43169"><ele>17.0</ele><time>2026-04-06T13:15:17.597Z</time></trkpt><trkpt lat="44.2602667" lon="9.4317"><ele>18.0</ele><time>2026-04-06T13:15:18.598Z</time></trkpt><trkpt lat="44.2603683" lon="9.4317083"><ele>18.0</ele><time>2026-04-06T13:15:19.599Z</time></trkpt><trkpt lat="44.260465" lon="9.4317167"><ele>18.0</ele><time>2026-04-06T13:15:20.598Z</time></trkpt><trkpt lat="44.2605567" lon="9.4317233"><ele>18.0</ele><time>2026-04-06T13:15:21.597Z</time></trkpt><trkpt lat="44.2606467" lon="9.4317317"><ele>18.0</ele><time>2026-04-06T13:15:22.598Z</time></trkpt><trkpt lat="44.2607317" lon="9.43174"><ele>18.0</ele><time>2026-04-06T13:15:23.598Z</time></trkpt><trkpt lat="44.2608133" lon="9.43175"><ele>18.0</ele><time>2026-04-06T13:15:24.598Z</time></trkpt><trkpt lat="44.2608867" lon="9.4317583"><ele>18.6</ele><time>2026-04-06T13:15:25.599Z</time></trkpt><trkpt lat="44.2609967" lon="9.43178"><ele>19.200000000000003</ele><time>2026-04-06T13:15:27.599Z</time></trkpt><trkpt lat="44.2610717" lon="9.4318017"><ele>19.8</ele><time>2026-04-06T13:15:29.598Z</time></trkpt><trkpt lat="44.261155" lon="9.431835"><ele>20.400000000000002</ele><time>2026-04-06T13:15:33.598Z</time></trkpt><trkpt lat="44.261235" lon="9.4318517"><ele>21.0</ele><time>2026-04-06T13:15:35.598Z</time></trkpt><trkpt lat="44.26134" lon="9.43188"><ele>21.0</ele><time>2026-04-06T13:15:37.599Z</time></trkpt><trkpt lat="44.261455" lon="9.4319"><ele>21.0</ele><time>2026-04-06T13:15:39.598Z</time></trkpt><trkpt lat="44.26162" lon="9.431935"><ele>21.0</ele><time>2026-04-06T13:15:42.599Z</time></trkpt><trkpt lat="44.2616917" lon="9.4319233"><ele>21.0</ele><time>2026-04-06T13:15:43.597Z</time></trkpt><trkpt lat="44.2617633" lon="9.4318283"><ele>21.0</ele><time>2026-04-06T13:15:45.598Z</time></trkpt><trkpt lat="44.2618183" lon="9.4317633"><ele>21.0</ele><time>2026-04-06T13:15:46.599Z</time></trkpt><trkpt lat="44.2618867" lon="9.43168"><ele>21.0</ele><time>2026-04-06T13:15:47.598Z</time></trkpt><trkpt lat="44.2619633" lon="9.4316033"><ele>21.0</ele><time>2026-04-06T13:15:48.599Z</time></trkpt><trkpt lat="44.2620433" lon="9.431535"><ele>21.0</ele><time>2026-04-06T13:15:49.599Z</time></trkpt><trkpt lat="44.262125" lon="9.4314733"><ele>21.0</ele><time>2026-04-06T13:15:50.599Z</time></trkpt><trkpt lat="44.2622" lon="9.431415"><ele>21.0</ele><time>2026-04-06T13:15:51.598Z</time></trkpt><trkpt lat="44.262275" lon="9.4313633"><ele>21.0</ele><time>2026-04-06T13:15:52.597Z</time></trkpt><trkpt lat="44.26235" lon="9.4313167"><ele>21.0</ele><time>2026-04-06T13:15:53.599Z</time></trkpt><trkpt lat="44.2624233" lon="9.4312683"><ele>21.0</ele><time>2026-04-06T13:15:54.598Z</time></trkpt><trkpt lat="44.2624967" lon="9.4312167"><ele>21.0</ele><time>2026-04-06T13:15:55.598Z</time></trkpt><trkpt lat="44.2625633" lon="9.4311617"><ele>21.0</ele><time>2026-04-06T13:15:56.599Z</time></trkpt><trkpt lat="44.262625" lon="9.4311017"><ele>20.833333333333332</ele><time>2026-04-06T13:15:57.598Z</time></trkpt><trkpt lat="44.2626867" lon="9.43104"><ele>20.666666666666668</ele><time>2026-04-06T13:15:58.599Z</time></trkpt><trkpt lat="44.2627517" lon="9.4309767"><ele>20.5</ele><time>2026-04-06T13:15:59.599Z</time></trkpt><trkpt lat="44.2628183" lon="9.4309217"><ele>20.333333333333336</ele><time>2026-04-06T13:16:00.597Z</time></trkpt><trkpt lat="44.2628883" lon="9.43086"><ele>20.166666666666668</ele><time>2026-04-06T13:16:01.599Z</time></trkpt><trkpt lat="44.2629617" lon="9.4308067"><ele>20.0</ele><time>2026-04-06T13:16:02.599Z</time></trkpt><trkpt lat="44.2630367" lon="9.4307483"><ele>20.0</ele><time>2026-04-06T13:16:03.6Z</time></trkpt><trkpt lat="44.2631133" lon="9.4306817"><ele>20.0</ele><time>2026-04-06T13:16:04.597Z</time></trkpt><trkpt lat="44.2631933" lon="9.4306117"><ele>20.0</ele><time>2026-04-06T13:16:05.599Z</time></trkpt><trkpt lat="44.2632733" lon="9.43054"><ele>20.0</ele><time>2026-04-06T13:16:06.598Z</time></trkpt><trkpt lat="44.2633583" lon="9.4304633"><ele>20.0</ele><time>2026-04-06T13:16:07.6Z</time></trkpt><trkpt lat="44.26344" lon="9.4303917"><ele>19.4</ele><time>2026-04-06T13:16:08.599Z</time></trkpt><trkpt lat="44.2635217" lon="9.4303183"><ele>18.8</ele><time>2026-04-06T13:16:09.599Z</time></trkpt><trkpt lat="44.2636033" lon="9.4302383"><ele>18.2</ele><time>2026-04-06T13:16:10.599Z</time></trkpt><trkpt lat="44.2636883" lon="9.4301583"><ele>17.6</ele><time>2026-04-06T13:16:11.599Z</time></trkpt><trkpt lat="44.2637733" lon="9.4300683"><ele>17.0</ele><time>2026-04-06T13:16:12.598Z</time></trkpt><trkpt lat="44.2638583" lon="9.4299817"><ele>17.0</ele><time>2026-04-06T13:16:13.598Z</time></trkpt><trkpt lat="44.26394" lon="9.4298967"><ele>17.0</ele><time>2026-04-06T13:16:14.598Z</time></trkpt><trkpt lat="44.26402" lon="9.4298083"><ele>17.0</ele><time>2026-04-06T13:16:15.599Z</time></trkpt><trkpt lat="44.264095" lon="9.4297217"><ele>17.0</ele><time>2026-04-06T13:16:16.597Z</time></trkpt><trkpt lat="44.2641683" lon="9.429635"><ele>17.0</ele><time>2026-04-06T13:16:17.6Z</time></trkpt><trkpt lat="44.2642467" lon="9.4295417"><ele>17.6</ele><time>2026-04-06T13:16:18.598Z</time></trkpt><trkpt lat="44.2643283" lon="9.42945"><ele>18.2</ele><time>2026-04-06T13:16:19.599Z</time></trkpt><trkpt lat="44.2644117" lon="9.42936"><ele>18.8</ele><time>2026-04-06T13:16:20.598Z</time></trkpt><trkpt lat="44.264495" lon="9.4292717"><ele>19.4</ele><time>2026-04-06T13:16:21.598Z</time></trkpt><trkpt lat="44.2645817" lon="9.4291867"><ele>20.0</ele><time>2026-04-06T13:16:22.605Z</time></trkpt><trkpt lat="44.2646683" lon="9.4291017"><ele>20.0</ele><time>2026-04-06T13:16:23.599Z</time></trkpt><trkpt lat="44.264755" lon="9.42901"><ele>20.0</ele><time>2026-04-06T13:16:24.599Z</time></trkpt><trkpt lat="44.26484" lon="9.4289067"><ele>20.0</ele><time>2026-04-06T13:16:25.598Z</time></trkpt><trkpt lat="44.2649317" lon="9.4287983"><ele>20.0</ele><time>2026-04-06T13:16:26.599Z</time></trkpt><trkpt lat="44.2650167" lon="9.428685"><ele>20.0</ele><time>2026-04-06T13:16:27.598Z</time></trkpt><trkpt lat="44.265105" lon="9.4285667"><ele>20.0</ele><time>2026-04-06T13:16:28.599Z</time></trkpt><trkpt lat="44.2651883" lon="9.4284467"><ele>20.0</ele><time>2026-04-06T13:16:29.597Z</time></trkpt><trkpt lat="44.26527" lon="9.4283233"><ele>20.0</ele><time>2026-04-06T13:16:30.598Z</time></trkpt><trkpt lat="44.26535" lon="9.4282017"><ele>20.0</ele><time>2026-04-06T13:16:31.599Z</time></trkpt><trkpt lat="44.2654283" lon="9.428085"><ele>20.0</ele><time>2026-04-06T13:16:32.599Z</time></trkpt><trkpt lat="44.2655017" lon="9.427975"><ele>20.0</ele><time>2026-04-06T13:16:33.599Z</time></trkpt><trkpt lat="44.2655733" lon="9.427875"><ele>20.0</ele><time>2026-04-06T13:16:34.599Z</time></trkpt><trkpt lat="44.265635" lon="9.4277817"><ele>20.0</ele><time>2026-04-06T13:16:35.598Z</time></trkpt><trkpt lat="44.2656867" lon="9.4276933"><ele>19.833333333333336</ele><time>2026-04-06T13:16:36.599Z</time></trkpt><trkpt lat="44.2657267" lon="9.4276117"><ele>19.666666666666668</ele><time>2026-04-06T13:16:37.598Z</time></trkpt><trkpt lat="44.2657717" lon="9.427505"><ele>19.5</ele><time>2026-04-06T13:16:39.599Z</time></trkpt><trkpt lat="44.2658533" lon="9.42746"><ele>19.333333333333332</ele><time>2026-04-06T13:16:54.599Z</time></trkpt><trkpt lat="44.265935" lon="9.4273667"><ele>19.166666666666664</ele><time>2026-04-06T13:16:56.598Z</time></trkpt><trkpt lat="44.2659883" lon="9.4272833"><ele>19.0</ele><time>2026-04-06T13:16:57.597Z</time></trkpt><trkpt lat="44.2660467" lon="9.42717"><ele>18.0</ele><time>2026-04-06T13:16:58.597Z</time></trkpt><trkpt lat="44.2661133" lon="9.42703"><ele>17.0</ele><time>2026-04-06T13:16:59.599Z</time></trkpt><trkpt lat="44.2661833" lon="9.42688"><ele>16.0</ele><time>2026-04-06T13:17:00.599Z</time></trkpt><trkpt lat="44.2662583" lon="9.4267167"><ele>15.0</ele><time>2026-04-06T13:17:01.599Z</time></trkpt><trkpt lat="44.266335" lon="9.42655"><ele>15.0</ele><time>2026-04-06T13:17:02.599Z</time></trkpt><trkpt lat="44.2664117" lon="9.4263867"><ele>15.0</ele><time>2026-04-06T13:17:03.599Z</time></trkpt><trkpt lat="44.2664867" lon="9.4262283"><ele>15.0</ele><time>2026-04-06T13:17:04.599Z</time></trkpt><trkpt lat="44.266565" lon="9.4260717"><ele>15.0</ele><time>2026-04-06T13:17:05.599Z</time></trkpt><trkpt lat="44.2666417" lon="9.4259167"><ele>14.25</ele><time>2026-04-06T13:17:06.598Z</time></trkpt><trkpt lat="44.266715" lon="9.4257733"><ele>13.5</ele><time>2026-04-06T13:17:07.599Z</time></trkpt><trkpt lat="44.2667833" lon="9.4256367"><ele>12.75</ele><time>2026-04-06T13:17:08.599Z</time></trkpt><trkpt lat="44.2668467" lon="9.4255117"><ele>12.0</ele><time>2026-04-06T13:17:09.599Z</time></trkpt><trkpt lat="44.2669067" lon="9.4253967"><ele>12.0</ele><time>2026-04-06T13:17:10.599Z</time></trkpt><trkpt lat="44.2669667" lon="9.4252967"><ele>12.0</ele><time>2026-04-06T13:17:11.599Z</time></trkpt><trkpt lat="44.2670367" lon="9.4252283"><ele>12.0</ele><time>2026-04-06T13:17:12.599Z</time></trkpt><trkpt lat="44.2671117" lon="9.4251867"><ele>12.0</ele><time>2026-04-06T13:17:13.599Z</time></trkpt><trkpt lat="44.2672017" lon="9.4251733"><ele>12.0</ele><time>2026-04-06T13:17:14.598Z</time></trkpt><trkpt lat="44.267315" lon="9.4251733"><ele>12.25</ele><time>2026-04-06T13:17:15.598Z</time></trkpt><trkpt lat="44.2674333" lon="9.4251767"><ele>12.5</ele><time>2026-04-06T13:17:16.598Z</time></trkpt><trkpt lat="44.267555" lon="9.42518"><ele>12.75</ele><time>2026-04-06T13:17:17.599Z</time></trkpt><trkpt lat="44.2676733" lon="9.4251817"><ele>13.0</ele><time>2026-04-06T13:17:18.598Z</time></trkpt><trkpt lat="44.2677883" lon="9.4251833"><ele>13.0</ele><time>2026-04-06T13:17:19.599Z</time></trkpt><trkpt lat="44.267895" lon="9.42519"><ele>13.0</ele><time>2026-04-06T13:17:20.599Z</time></trkpt><trkpt lat="44.267995" lon="9.4252083"><ele>13.0</ele><time>2026-04-06T13:17:21.599Z</time></trkpt><trkpt lat="44.268095" lon="9.4252383"><ele>13.0</ele><time>2026-04-06T13:17:22.599Z</time></trkpt><trkpt lat="44.2681933" lon="9.4252767"><ele>13.0</ele><time>2026-04-06T13:17:23.598Z</time></trkpt><trkpt lat="44.2682933" lon="9.4253217"><ele>12.8</ele><time>2026-04-06T13:17:24.598Z</time></trkpt><trkpt lat="44.2683983" lon="9.4253633"><ele>12.600000000000001</ele><time>2026-04-06T13:17:25.598Z</time></trkpt><trkpt lat="44.2685033" lon="9.4254017"><ele>12.399999999999999</ele><time>2026-04-06T13:17:26.6Z</time></trkpt><trkpt lat="44.26861" lon="9.4254417"><ele>12.2</ele><time>2026-04-06T13:17:27.599Z</time></trkpt><trkpt lat="44.2687117" lon="9.42548"><ele>12.0</ele><time>2026-04-06T13:17:28.599Z</time></trkpt><trkpt lat="44.268805" lon="9.42552"><ele>12.0</ele><time>2026-04-06T13:17:29.598Z</time></trkpt><trkpt lat="44.26889" lon="9.4255617"><ele>12.0</ele><time>2026-04-06T13:17:30.599Z</time></trkpt><trkpt lat="44.2689717" lon="9.4255983"><ele>12.0</ele><time>2026-04-06T13:17:31.599Z</time></trkpt><trkpt lat="44.269055" lon="9.4256333"><ele>12.0</ele><time>2026-04-06T13:17:32.599Z</time></trkpt><trkpt lat="44.269125" lon="9.4256617"><ele>12.0</ele><time>2026-04-06T13:17:33.598Z</time></trkpt><trkpt lat="44.2692217" lon="9.4257317"><ele>12.0</ele><time>2026-04-06T13:17:35.598Z</time></trkpt><trkpt lat="44.26929" lon="9.425785"><ele>12.0</ele><time>2026-04-06T13:17:38.599Z</time></trkpt><trkpt lat="44.26938" lon="9.4258067"><ele>12.0</ele><time>2026-04-06T13:17:40.597Z</time></trkpt><trkpt lat="44.269465" lon="9.42577"><ele>12.0</ele><time>2026-04-06T13:17:42.599Z</time></trkpt><trkpt lat="44.2695183" lon="9.4256017"><ele>12.0</ele><time>2026-04-06T13:17:44.598Z</time></trkpt><trkpt lat="44.2695517" lon="9.4254667"><ele>12.0</ele><time>2026-04-06T13:17:45.597Z</time></trkpt><trkpt lat="44.2695983" lon="9.4253117"><ele>12.0</ele><time>2026-04-06T13:17:46.599Z</time></trkpt><trkpt lat="44.2696467" lon="9.4251583"><ele>12.0</ele><time>2026-04-06T13:17:47.599Z</time></trkpt><trkpt lat="44.2697" lon="9.4250033"><ele>12.0</ele><time>2026-04-06T13:17:48.598Z</time></trkpt><trkpt lat="44.2697517" lon="9.4248517"><ele>12.0</ele><time>2026-04-06T13:17:49.599Z</time></trkpt><trkpt lat="44.2698017" lon="9.4247167"><ele>12.0</ele><time>2026-04-06T13:17:50.599Z</time></trkpt><trkpt lat="44.2698517" lon="9.424585"><ele>12.0</ele><time>2026-04-06T13:17:51.598Z</time></trkpt><trkpt lat="44.2699" lon="9.42446"><ele>12.0</ele><time>2026-04-06T13:17:52.597Z</time></trkpt><trkpt lat="44.2699467" lon="9.4243367"><ele>12.0</ele><time>2026-04-06T13:17:53.598Z</time></trkpt><trkpt lat="44.2699933" lon="9.4242117"><ele>12.0</ele><time>2026-04-06T13:17:54.598Z</time></trkpt><trkpt lat="44.2700383" lon="9.4240933"><ele>12.0</ele><time>2026-04-06T13:17:55.599Z</time></trkpt><trkpt lat="44.2700867" lon="9.4239933"><ele>12.0</ele><time>2026-04-06T13:17:56.598Z</time></trkpt><trkpt lat="44.2701283" lon="9.4239117"><ele>12.0</ele><time>2026-04-06T13:17:57.598Z</time></trkpt><trkpt lat="44.2701717" lon="9.423845"><ele>12.0</ele><time>2026-04-06T13:17:58.599Z</time></trkpt><trkpt lat="44.2702283" lon="9.4237817"><ele>12.0</ele><time>2026-04-06T13:17:59.598Z</time></trkpt><trkpt lat="44.270285" lon="9.4236983"><ele>12.0</ele><time>2026-04-06T13:18:00.598Z</time></trkpt><trkpt lat="44.270325" lon="9.4235983"><ele>12.0</ele><time>2026-04-06T13:18:01.599Z</time></trkpt><trkpt lat="44.2703517" lon="9.4234633"><ele>12.0</ele><time>2026-04-06T13:18:02.598Z</time></trkpt><trkpt lat="44.2703733" lon="9.4233133"><ele>12.0</ele><time>2026-04-06T13:18:03.597Z</time></trkpt><trkpt lat="44.2704017" lon="9.4231667"><ele>12.0</ele><time>2026-04-06T13:18:04.599Z</time></trkpt><trkpt lat="44.2704383" lon="9.4230367"><ele>12.0</ele><time>2026-04-06T13:18:05.599Z</time></trkpt><trkpt lat="44.27048" lon="9.42292"><ele>12.0</ele><time>2026-04-06T13:18:06.599Z</time></trkpt><trkpt lat="44.2705183" lon="9.4228083"><ele>12.0</ele><time>2026-04-06T13:18:07.598Z</time></trkpt><trkpt lat="44.27056" lon="9.4227017"><ele>12.0</ele><time>2026-04-06T13:18:08.599Z</time></trkpt><trkpt lat="44.2706017" lon="9.4225917"><ele>12.0</ele><time>2026-04-06T13:18:09.6Z</time></trkpt><trkpt lat="44.270645" lon="9.4224833"><ele>12.0</ele><time>2026-04-06T13:18:10.599Z</time></trkpt><trkpt lat="44.2706833" lon="9.42238"><ele>12.0</ele><time>2026-04-06T13:18:11.599Z</time></trkpt><trkpt lat="44.2707183" lon="9.4222867"><ele>11.8</ele><time>2026-04-06T13:18:12.599Z</time></trkpt><trkpt lat="44.2707533" lon="9.4222017"><ele>11.6</ele><time>2026-04-06T13:18:13.599Z</time></trkpt><trkpt lat="44.270785" lon="9.4221233"><ele>11.4</ele><time>2026-04-06T13:18:14.599Z</time></trkpt><trkpt lat="44.2708433" lon="9.42198"><ele>11.200000000000001</ele><time>2026-04-06T13:18:16.599Z</time></trkpt><trkpt lat="44.2709067" lon="9.4218617"><ele>11.0</ele><time>2026-04-06T13:18:18.598Z</time></trkpt><trkpt lat="44.2709983" lon="9.421815"><ele>11.0</ele><time>2026-04-06T13:18:20.598Z</time></trkpt><trkpt lat="44.2711067" lon="9.4218483"><ele>11.0</ele><time>2026-04-06T13:18:22.598Z</time></trkpt><trkpt lat="44.2711783" lon="9.421865"><ele>11.0</ele><time>2026-04-06T13:18:23.598Z</time></trkpt><trkpt lat="44.27126" lon="9.42186"><ele>11.0</ele><time>2026-04-06T13:18:24.599Z</time></trkpt><trkpt lat="44.27134" lon="9.4218267"><ele>11.0</ele><time>2026-04-06T13:18:25.601Z</time></trkpt><trkpt lat="44.27141" lon="9.4217717"><ele>11.0</ele><time>2026-04-06T13:18:26.601Z</time></trkpt><trkpt lat="44.2714767" lon="9.4217083"><ele>11.200000000000001</ele><time>2026-04-06T13:18:27.601Z</time></trkpt><trkpt lat="44.2715417" lon="9.4216283"><ele>11.4</ele><time>2026-04-06T13:18:28.601Z</time></trkpt><trkpt lat="44.2716" lon="9.42153"><ele>11.6</ele><time>2026-04-06T13:18:29.6Z</time></trkpt><trkpt lat="44.2716483" lon="9.42141"><ele>11.8</ele><time>2026-04-06T13:18:30.599Z</time></trkpt><trkpt lat="44.271695" lon="9.421265"><ele>12.0</ele><time>2026-04-06T13:18:31.601Z</time></trkpt><trkpt lat="44.2717417" lon="9.4211017"><ele>12.0</ele><time>2026-04-06T13:18:32.601Z</time></trkpt><trkpt lat="44.2717933" lon="9.42092"><ele>12.0</ele><time>2026-04-06T13:18:33.6Z</time></trkpt><trkpt lat="44.271845" lon="9.420735"><ele>12.0</ele><time>2026-04-06T13:18:34.599Z</time></trkpt><trkpt lat="44.2718967" lon="9.4205583"><ele>12.0</ele><time>2026-04-06T13:18:35.6Z</time></trkpt><trkpt lat="44.2719483" lon="9.4204033"><ele>11.8</ele><time>2026-04-06T13:18:36.6Z</time></trkpt><trkpt lat="44.272005" lon="9.4202783"><ele>11.6</ele><time>2026-04-06T13:18:37.601Z</time></trkpt><trkpt lat="44.2720683" lon="9.42018"><ele>11.4</ele><time>2026-04-06T13:18:38.601Z</time></trkpt><trkpt lat="44.2721417" lon="9.4201"><ele>11.200000000000001</ele><time>2026-04-06T13:18:39.599Z</time></trkpt><trkpt lat="44.272225" lon="9.4200517"><ele>11.0</ele><time>2026-04-06T13:18:40.6Z</time></trkpt><trkpt lat="44.2723217" lon="9.420015"><ele>11.5</ele><time>2026-04-06T13:18:41.6Z</time></trkpt><trkpt lat="44.2724267" lon="9.419975"><ele>12.0</ele><time>2026-04-06T13:18:42.601Z</time></trkpt><trkpt lat="44.27255" lon="9.41994"><ele>12.5</ele><time>2026-04-06T13:18:43.6Z</time></trkpt><trkpt lat="44.27268" lon="9.4199083"><ele>13.0</ele><time>2026-04-06T13:18:44.601Z</time></trkpt><trkpt lat="44.2728083" lon="9.4198717"><ele>13.0</ele><time>2026-04-06T13:18:45.599Z</time></trkpt><trkpt lat="44.2729233" lon="9.4198433"><ele>13.0</ele><time>2026-04-06T13:18:46.598Z</time></trkpt><trkpt lat="44.2730267" lon="9.4198167"><ele>13.0</ele><time>2026-04-06T13:18:47.598Z</time></trkpt><trkpt lat="44.273125" lon="9.4197933"><ele>13.0</ele><time>2026-04-06T13:18:48.598Z</time></trkpt><trkpt lat="44.2732217" lon="9.41978"><ele>13.0</ele><time>2026-04-06T13:18:49.599Z</time></trkpt><trkpt lat="44.27332" lon="9.419785"><ele>13.4</ele><time>2026-04-06T13:18:50.599Z</time></trkpt><trkpt lat="44.2734183" lon="9.4198217"><ele>13.8</ele><time>2026-04-06T13:18:51.597Z</time></trkpt><trkpt lat="44.2735083" lon="9.4198917"><ele>14.2</ele><time>2026-04-06T13:18:52.599Z</time></trkpt><trkpt lat="44.2735883" lon="9.4199833"><ele>14.6</ele><time>2026-04-06T13:18:53.599Z</time></trkpt><trkpt lat="44.2736617" lon="9.4200933"><ele>15.0</ele><time>2026-04-06T13:18:54.599Z</time></trkpt><trkpt lat="44.2737233" lon="9.4202183"><ele>15.0</ele><time>2026-04-06T13:18:55.599Z</time></trkpt><trkpt lat="44.2737833" lon="9.4203533"><ele>15.0</ele><time>2026-04-06T13:18:56.599Z</time></trkpt><trkpt lat="44.2738483" lon="9.4204983"><ele>15.0</ele><time>2026-04-06T13:18:57.599Z</time></trkpt><trkpt lat="44.27391" lon="9.4206367"><ele>15.0</ele><time>2026-04-06T13:18:58.597Z</time></trkpt><trkpt lat="44.273975" lon="9.420765"><ele>15.2</ele><time>2026-04-06T13:18:59.599Z</time></trkpt><trkpt lat="44.2740367" lon="9.4208767"><ele>15.4</ele><time>2026-04-06T13:19:00.599Z</time></trkpt><trkpt lat="44.274105" lon="9.4209567"><ele>15.600000000000001</ele><time>2026-04-06T13:19:01.602Z</time></trkpt><trkpt lat="44.2741817" lon="9.4210233"><ele>15.8</ele><time>2026-04-06T13:19:02.6Z</time></trkpt><trkpt lat="44.274265" lon="9.42106"><ele>16.0</ele><time>2026-04-06T13:19:03.599Z</time></trkpt><trkpt lat="44.27436" lon="9.42106"><ele>16.0</ele><time>2026-04-06T13:19:04.601Z</time></trkpt><trkpt lat="44.2744867" lon="9.4210183"><ele>16.0</ele><time>2026-04-06T13:19:05.601Z</time></trkpt><trkpt lat="44.2746233" lon="9.4209817"><ele>16.0</ele><time>2026-04-06T13:19:06.598Z</time></trkpt><trkpt lat="44.2747533" lon="9.420975"><ele>16.0</ele><time>2026-04-06T13:19:07.6Z</time></trkpt><trkpt lat="44.2748833" lon="9.420975"><ele>16.333333333333332</ele><time>2026-04-06T13:19:08.6Z</time></trkpt><trkpt lat="44.275025" lon="9.421015"><ele>16.666666666666668</ele><time>2026-04-06T13:19:09.6Z</time></trkpt><trkpt lat="44.2751817" lon="9.421055"><ele>17.0</ele><time>2026-04-06T13:19:10.6Z</time></trkpt><trkpt lat="44.275335" lon="9.4210467"><ele>17.0</ele><time>2026-04-06T13:19:11.598Z</time></trkpt><trkpt lat="44.275485" lon="9.42103"><ele>17.0</ele><time>2026-04-06T13:19:12.599Z</time></trkpt><trkpt lat="44.27564" lon="9.4210017"><ele>17.0</ele><time>2026-04-06T13:19:13.599Z</time></trkpt><trkpt lat="44.2757967" lon="9.42097"><ele>17.0</ele><time>2026-04-06T13:19:14.6Z</time></trkpt><trkpt lat="44.2759567" lon="9.4209483"><ele>17.0</ele><time>2026-04-06T13:19:15.599Z</time></trkpt><trkpt lat="44.276115" lon="9.4209383"><ele>17.0</ele><time>2026-04-06T13:19:16.6Z</time></trkpt><trkpt lat="44.2762683" lon="9.420935"><ele>17.0</ele><time>2026-04-06T13:19:17.598Z</time></trkpt><trkpt lat="44.2764117" lon="9.4209433"><ele>17.0</ele><time>2026-04-06T13:19:18.599Z</time></trkpt><trkpt lat="44.2765383" lon="9.4209617"><ele>17.0</ele><time>2026-04-06T13:19:19.599Z</time></trkpt><trkpt lat="44.27665" lon="9.4209867"><ele>17.0</ele><time>2026-04-06T13:19:20.599Z</time></trkpt><trkpt lat="44.2767533" lon="9.4210167"><ele>16.75</ele><time>2026-04-06T13:19:21.598Z</time></trkpt><trkpt lat="44.2768483" lon="9.4210617"><ele>16.5</ele><time>2026-04-06T13:19:22.599Z</time></trkpt><trkpt lat="44.2769417" lon="9.4211283"><ele>16.25</ele><time>2026-04-06T13:19:23.599Z</time></trkpt><trkpt lat="44.27704" lon="9.4212167"><ele>16.0</ele><time>2026-04-06T13:19:24.598Z</time></trkpt><trkpt lat="44.2771483" lon="9.4213183"><ele>16.5</ele><time>2026-04-06T13:19:25.599Z</time></trkpt><trkpt lat="44.2772667" lon="9.421425"><ele>17.0</ele><time>2026-04-06T13:19:26.598Z</time></trkpt><trkpt lat="44.2773883" lon="9.4215133"><ele>17.5</ele><time>2026-04-06T13:19:27.599Z</time></trkpt><trkpt lat="44.27751" lon="9.4215817"><ele>18.0</ele><time>2026-04-06T13:19:28.599Z</time></trkpt><trkpt lat="44.27763" lon="9.4216233"><ele>18.0</ele><time>2026-04-06T13:19:29.599Z</time></trkpt><trkpt lat="44.27775" lon="9.4216417"><ele>18.0</ele><time>2026-04-06T13:19:30.6Z</time></trkpt><trkpt lat="44.277865" lon="9.421645"><ele>18.0</ele><time>2026-04-06T13:19:31.599Z</time></trkpt><trkpt lat="44.277985" lon="9.4216467"><ele>18.0</ele><time>2026-04-06T13:19:32.6Z</time></trkpt><trkpt lat="44.2781083" lon="9.421655"><ele>18.0</ele><time>2026-04-06T13:19:33.599Z</time></trkpt><trkpt lat="44.2782283" lon="9.4216733"><ele>18.0</ele><time>2026-04-06T13:19:34.6Z</time></trkpt><trkpt lat="44.278335" lon="9.4217033"><ele>18.0</ele><time>2026-04-06T13:19:35.6Z</time></trkpt><trkpt lat="44.2784367" lon="9.4217417"><ele>18.0</ele><time>2026-04-06T13:19:36.598Z</time></trkpt><trkpt lat="44.27854" lon="9.42178"><ele>18.0</ele><time>2026-04-06T13:19:37.599Z</time></trkpt><trkpt lat="44.27865" lon="9.4218183"><ele>18.0</ele><time>2026-04-06T13:19:38.599Z</time></trkpt><trkpt lat="44.278765" lon="9.42186"><ele>18.0</ele><time>2026-04-06T13:19:39.6Z</time></trkpt><trkpt lat="44.2788833" lon="9.4219067"><ele>18.0</ele><time>2026-04-06T13:19:40.598Z</time></trkpt><trkpt lat="44.27901" lon="9.4219533"><ele>18.0</ele><time>2026-04-06T13:19:41.6Z</time></trkpt><trkpt lat="44.2791433" lon="9.4219983"><ele>17.5</ele><time>2026-04-06T13:19:42.598Z</time></trkpt><trkpt lat="44.279285" lon="9.4220483"><ele>17.0</ele><time>2026-04-06T13:19:43.599Z</time></trkpt><trkpt lat="44.2794317" lon="9.4220983"><ele>16.5</ele><time>2026-04-06T13:19:44.599Z</time></trkpt><trkpt lat="44.2795783" lon="9.4221433"><ele>16.0</ele><time>2026-04-06T13:19:45.598Z</time></trkpt><trkpt lat="44.2797267" lon="9.4221917"><ele>16.5</ele><time>2026-04-06T13:19:46.599Z</time></trkpt><trkpt lat="44.27987" lon="9.4222383"><ele>17.0</ele><time>2026-04-06T13:19:47.599Z</time></trkpt><trkpt lat="44.28001" lon="9.422285"><ele>17.5</ele><time>2026-04-06T13:19:48.598Z</time></trkpt><trkpt lat="44.2801533" lon="9.4223283"><ele>18.0</ele><time>2026-04-06T13:19:49.599Z</time></trkpt><trkpt lat="44.280295" lon="9.4223717"><ele>18.0</ele><time>2026-04-06T13:19:50.6Z</time></trkpt><trkpt lat="44.2804367" lon="9.4224167"><ele>18.0</ele><time>2026-04-06T13:19:51.598Z</time></trkpt><trkpt lat="44.280575" lon="9.4224617"><ele>18.0</ele><time>2026-04-06T13:19:52.598Z</time></trkpt><trkpt lat="44.2807083" lon="9.4225167"><ele>18.0</ele><time>2026-04-06T13:19:53.598Z</time></trkpt><trkpt lat="44.2808433" lon="9.4225867"><ele>18.0</ele><time>2026-04-06T13:19:54.598Z</time></trkpt><trkpt lat="44.2809783" lon="9.4226667"><ele>18.0</ele><time>2026-04-06T13:19:55.599Z</time></trkpt><trkpt lat="44.2811167" lon="9.4227417"><ele>18.0</ele><time>2026-04-06T13:19:56.599Z</time></trkpt><trkpt lat="44.281255" lon="9.4228117"><ele>18.0</ele><time>2026-04-06T13:19:57.599Z</time></trkpt><trkpt lat="44.2813983" lon="9.422875"><ele>17.666666666666668</ele><time>2026-04-06T13:19:58.6Z</time></trkpt><trkpt lat="44.2815483" lon="9.4229333"><ele>17.333333333333336</ele><time>2026-04-06T13:19:59.6Z</time></trkpt><trkpt lat="44.2816983" lon="9.4229867"><ele>17.0</ele><time>2026-04-06T13:20:00.598Z</time></trkpt><trkpt lat="44.2818533" lon="9.423035"><ele>17.666666666666668</ele><time>2026-04-06T13:20:01.599Z</time></trkpt><trkpt lat="44.282015" lon="9.4230817"><ele>18.333333333333332</ele><time>2026-04-06T13:20:02.599Z</time></trkpt><trkpt lat="44.2821767" lon="9.4231333"><ele>19.0</ele><time>2026-04-06T13:20:03.599Z</time></trkpt><trkpt lat="44.2823367" lon="9.4231933"><ele>19.0</ele><time>2026-04-06T13:20:04.599Z</time></trkpt><trkpt lat="44.282495" lon="9.4232633"><ele>19.0</ele><time>2026-04-06T13:20:05.598Z</time></trkpt><trkpt lat="44.2826517" lon="9.4233417"><ele>19.0</ele><time>2026-04-06T13:20:06.602Z</time></trkpt><trkpt lat="44.2828117" lon="9.4234183"><ele>19.0</ele><time>2026-04-06T13:20:07.598Z</time></trkpt><trkpt lat="44.2829717" lon="9.4235"><ele>19.0</ele><time>2026-04-06T13:20:08.598Z</time></trkpt><trkpt lat="44.2831333" lon="9.42358"><ele>19.0</ele><time>2026-04-06T13:20:09.598Z</time></trkpt><trkpt lat="44.2832917" lon="9.4236617"><ele>19.0</ele><time>2026-04-06T13:20:10.598Z</time></trkpt><trkpt lat="44.283445" lon="9.4237383"><ele>19.0</ele><time>2026-04-06T13:20:11.598Z</time></trkpt><trkpt lat="44.28359" lon="9.4238083"><ele>19.0</ele><time>2026-04-06T13:20:12.598Z</time></trkpt><trkpt lat="44.2837233" lon="9.4238733"><ele>19.0</ele><time>2026-04-06T13:20:13.599Z</time></trkpt><trkpt lat="44.2838517" lon="9.423935"><ele>19.0</ele><time>2026-04-06T13:20:14.599Z</time></trkpt><trkpt lat="44.28397" lon="9.4240017"><ele>19.0</ele><time>2026-04-06T13:20:15.599Z</time></trkpt><trkpt lat="44.2840883" lon="9.4240733"><ele>19.0</ele><time>2026-04-06T13:20:16.599Z</time></trkpt><trkpt lat="44.2842017" lon="9.4241567"><ele>19.25</ele><time>2026-04-06T13:20:17.598Z</time></trkpt><trkpt lat="44.2843117" lon="9.42425"><ele>19.5</ele><time>2026-04-06T13:20:18.599Z</time></trkpt><trkpt lat="44.28442" lon="9.424345"><ele>19.75</ele><time>2026-04-06T13:20:19.598Z</time></trkpt><trkpt lat="44.2845283" lon="9.4244333"><ele>20.0</ele><time>2026-04-06T13:20:20.598Z</time></trkpt><trkpt lat="44.2846367" lon="9.4245217"><ele>20.0</ele><time>2026-04-06T13:20:21.599Z</time></trkpt><trkpt lat="44.2847433" lon="9.4246117"><ele>20.0</ele><time>2026-04-06T13:20:22.599Z</time></trkpt><trkpt lat="44.2848483" lon="9.4247133"><ele>20.0</ele><time>2026-04-06T13:20:23.599Z</time></trkpt><trkpt lat="44.2849483" lon="9.4248183"><ele>20.0</ele><time>2026-04-06T13:20:24.6Z</time></trkpt><trkpt lat="44.28504" lon="9.4249283"><ele>21.0</ele><time>2026-04-06T13:20:25.599Z</time></trkpt><trkpt lat="44.2851333" lon="9.4250433"><ele>22.0</ele><time>2026-04-06T13:20:26.598Z</time></trkpt><trkpt lat="44.2852317" lon="9.4251617"><ele>23.0</ele><time>2026-04-06T13:20:27.598Z</time></trkpt><trkpt lat="44.285335" lon="9.4252833"><ele>24.0</ele><time>2026-04-06T13:20:28.599Z</time></trkpt><trkpt lat="44.2854467" lon="9.425415"><ele>26.333333333333336</ele><time>2026-04-06T13:20:29.599Z</time></trkpt><trkpt lat="44.2855617" lon="9.4255567"><ele>28.666666666666668</ele><time>2026-04-06T13:20:30.599Z</time></trkpt><trkpt lat="44.28568" lon="9.4257067"><ele>31.0</ele><time>2026-04-06T13:20:31.599Z</time></trkpt><trkpt lat="44.2857967" lon="9.4258667"><ele>31.0</ele><time>2026-04-06T13:20:32.598Z</time></trkpt><trkpt lat="44.2859167" lon="9.426035"><ele>31.0</ele><time>2026-04-06T13:20:33.598Z</time></trkpt><trkpt lat="44.286035" lon="9.42621"><ele>31.0</ele><time>2026-04-06T13:20:34.598Z</time></trkpt><trkpt lat="44.2861517" lon="9.42638"><ele>30.333333333333336</ele><time>2026-04-06T13:20:35.599Z</time></trkpt><trkpt lat="44.2862717" lon="9.4265367"><ele>29.666666666666664</ele><time>2026-04-06T13:20:36.599Z</time></trkpt><trkpt lat="44.2864033" lon="9.4266733"><ele>29.0</ele><time>2026-04-06T13:20:37.599Z</time></trkpt><trkpt lat="44.28654" lon="9.4267933"><ele>29.0</ele><time>2026-04-06T13:20:38.599Z</time></trkpt><trkpt lat="44.28668" lon="9.426895"><ele>29.0</ele><time>2026-04-06T13:20:39.599Z</time></trkpt><trkpt lat="44.2868067" lon="9.4269967"><ele>29.0</ele><time>2026-04-06T13:20:40.598Z</time></trkpt><trkpt lat="44.2869217" lon="9.4271067"><ele>29.0</ele><time>2026-04-06T13:20:41.6Z</time></trkpt><trkpt lat="44.2870283" lon="9.4272317"><ele>28.5</ele><time>2026-04-06T13:20:42.601Z</time></trkpt><trkpt lat="44.2871217" lon="9.4273683"><ele>28.0</ele><time>2026-04-06T13:20:43.601Z</time></trkpt><trkpt lat="44.2871967" lon="9.4275317"><ele>27.5</ele><time>2026-04-06T13:20:44.601Z</time></trkpt><trkpt lat="44.2872633" lon="9.42771"><ele>27.0</ele><time>2026-04-06T13:20:45.601Z</time></trkpt><trkpt lat="44.287325" lon="9.4278817"><ele>29.5</ele><time>2026-04-06T13:20:46.599Z</time></trkpt><trkpt lat="44.28739" lon="9.42804"><ele>32.0</ele><time>2026-04-06T13:20:47.598Z</time></trkpt><trkpt lat="44.2874683" lon="9.42818"><ele>34.5</ele><time>2026-04-06T13:20:48.599Z</time></trkpt><trkpt lat="44.28757" lon="9.4282967"><ele>37.0</ele><time>2026-04-06T13:20:49.599Z</time></trkpt><trkpt lat="44.2876867" lon="9.4283917"><ele>37.0</ele><time>2026-04-06T13:20:50.598Z</time></trkpt><trkpt lat="44.2878217" lon="9.428475"><ele>37.0</ele><time>2026-04-06T13:20:51.599Z</time></trkpt><trkpt lat="44.28797" lon="9.4285483"><ele>37.0</ele><time>2026-04-06T13:20:52.599Z</time></trkpt><trkpt lat="44.288125" lon="9.4286067"><ele>34.333333333333336</ele><time>2026-04-06T13:20:53.599Z</time></trkpt><trkpt lat="44.2882833" lon="9.4286567"><ele>31.666666666666664</ele><time>2026-04-06T13:20:54.599Z</time></trkpt><trkpt lat="44.2884367" lon="9.4286983"><ele>29.0</ele><time>2026-04-06T13:20:55.598Z</time></trkpt><trkpt lat="44.2885767" lon="9.4287383"><ele>29.0</ele><time>2026-04-06T13:20:56.6Z</time></trkpt><trkpt lat="44.2887033" lon="9.4287817"><ele>29.0</ele><time>2026-04-06T13:20:57.599Z</time></trkpt><trkpt lat="44.28882" lon="9.42883"><ele>29.0</ele><time>2026-04-06T13:20:58.598Z</time></trkpt><trkpt lat="44.2889317" lon="9.4289033"><ele>29.0</ele><time>2026-04-06T13:20:59.598Z</time></trkpt><trkpt lat="44.289045" lon="9.4289983"><ele>31.0</ele><time>2026-04-06T13:21:00.598Z</time></trkpt><trkpt lat="44.2891633" lon="9.4291033"><ele>33.0</ele><time>2026-04-06T13:21:01.599Z</time></trkpt><trkpt lat="44.2892883" lon="9.4292167"><ele>35.0</ele><time>2026-04-06T13:21:02.599Z</time></trkpt><trkpt lat="44.2894167" lon="9.4293367"><ele>37.0</ele><time>2026-04-06T13:21:03.598Z</time></trkpt><trkpt lat="44.2895433" lon="9.429455"><ele>37.0</ele><time>2026-04-06T13:21:04.599Z</time></trkpt><trkpt lat="44.2896633" lon="9.4295683"><ele>37.0</ele><time>2026-04-06T13:21:05.6Z</time></trkpt><trkpt lat="44.289785" lon="9.4296683"><ele>37.0</ele><time>2026-04-06T13:21:06.599Z</time></trkpt><trkpt lat="44.289905" lon="9.4297567"><ele>37.0</ele><time>2026-04-06T13:21:07.6Z</time></trkpt><trkpt lat="44.29003" lon="9.4298317"><ele>38.0</ele><time>2026-04-06T13:21:08.598Z</time></trkpt><trkpt lat="44.2901467" lon="9.4299117"><ele>39.0</ele><time>2026-04-06T13:21:09.599Z</time></trkpt><trkpt lat="44.29026" lon="9.4300083"><ele>40.0</ele><time>2026-04-06T13:21:10.599Z</time></trkpt><trkpt lat="44.290375" lon="9.4301167"><ele>41.0</ele><time>2026-04-06T13:21:11.599Z</time></trkpt><trkpt lat="44.29049" lon="9.4302333"><ele>41.0</ele><time>2026-04-06T13:21:12.599Z</time></trkpt><trkpt lat="44.2906033" lon="9.430355"><ele>41.0</ele><time>2026-04-06T13:21:13.599Z</time></trkpt><trkpt lat="44.2907067" lon="9.4304833"><ele>41.0</ele><time>2026-04-06T13:21:14.599Z</time></trkpt><trkpt lat="44.2907967" lon="9.4306117"><ele>41.0</ele><time>2026-04-06T13:21:15.601Z</time></trkpt><trkpt lat="44.2908833" lon="9.4307267"><ele>41.0</ele><time>2026-04-06T13:21:16.599Z</time></trkpt><trkpt lat="44.29097" lon="9.4308267"><ele>41.0</ele><time>2026-04-06T13:21:17.6Z</time></trkpt><trkpt lat="44.2910617" lon="9.430905"><ele>41.0</ele><time>2026-04-06T13:21:18.599Z</time></trkpt><trkpt lat="44.2911633" lon="9.4309617"><ele>41.0</ele><time>2026-04-06T13:21:19.598Z</time></trkpt><trkpt lat="44.2912683" lon="9.4310067"><ele>41.0</ele><time>2026-04-06T13:21:20.6Z</time></trkpt><trkpt lat="44.2913833" lon="9.431045"><ele>39.0</ele><time>2026-04-06T13:21:21.599Z</time></trkpt><trkpt lat="44.29151" lon="9.4310867"><ele>37.0</ele><time>2026-04-06T13:21:22.599Z</time></trkpt><trkpt lat="44.291645" lon="9.4311417"><ele>35.0</ele><time>2026-04-06T13:21:23.598Z</time></trkpt><trkpt lat="44.291785" lon="9.4311967"><ele>33.0</ele><time>2026-04-06T13:21:24.6Z</time></trkpt><trkpt lat="44.2919167" lon="9.4312517"><ele>33.0</ele><time>2026-04-06T13:21:25.599Z</time></trkpt><trkpt lat="44.29204" lon="9.4313017"><ele>33.0</ele><time>2026-04-06T13:21:26.598Z</time></trkpt><trkpt lat="44.2921533" lon="9.4313533"><ele>33.0</ele><time>2026-04-06T13:21:27.599Z</time></trkpt><trkpt lat="44.29226" lon="9.4314117"><ele>33.0</ele><time>2026-04-06T13:21:28.598Z</time></trkpt><trkpt lat="44.2923617" lon="9.4314867"><ele>34.25</ele><time>2026-04-06T13:21:29.599Z</time></trkpt><trkpt lat="44.2924617" lon="9.4315733"><ele>35.5</ele><time>2026-04-06T13:21:30.599Z</time></trkpt><trkpt lat="44.2925567" lon="9.431675"><ele>36.75</ele><time>2026-04-06T13:21:31.599Z</time></trkpt><trkpt lat="44.2926467" lon="9.4317867"><ele>38.0</ele><time>2026-04-06T13:21:32.599Z</time></trkpt><trkpt lat="44.292735" lon="9.4318933"><ele>38.0</ele><time>2026-04-06T13:21:33.599Z</time></trkpt><trkpt lat="44.292825" lon="9.43199"><ele>38.0</ele><time>2026-04-06T13:21:34.598Z</time></trkpt><trkpt lat="44.292925" lon="9.4320717"><ele>38.0</ele><time>2026-04-06T13:21:35.598Z</time></trkpt><trkpt lat="44.29304" lon="9.4321283"><ele>38.0</ele><time>2026-04-06T13:21:36.598Z</time></trkpt><trkpt lat="44.2931683" lon="9.432165"><ele>40.0</ele><time>2026-04-06T13:21:37.599Z</time></trkpt><trkpt lat="44.2933017" lon="9.4321967"><ele>42.0</ele><time>2026-04-06T13:21:38.598Z</time></trkpt><trkpt lat="44.29344" lon="9.4322233"><ele>44.0</ele><time>2026-04-06T13:21:39.599Z</time></trkpt><trkpt lat="44.2935767" lon="9.432245"><ele>46.0</ele><time>2026-04-06T13:21:40.599Z</time></trkpt><trkpt lat="44.2937083" lon="9.4322633"><ele>46.0</ele><time>2026-04-06T13:21:41.597Z</time></trkpt><trkpt lat="44.2938333" lon="9.4322767"><ele>46.0</ele><time>2026-04-06T13:21:42.599Z</time></trkpt><trkpt lat="44.2939483" lon="9.4322883"><ele>46.0</ele><time>2026-04-06T13:21:43.598Z</time></trkpt><trkpt lat="44.29405" lon="9.4323017"><ele>46.0</ele><time>2026-04-06T13:21:44.599Z</time></trkpt><trkpt lat="44.29414" lon="9.4323233"><ele>46.0</ele><time>2026-04-06T13:21:45.599Z</time></trkpt><trkpt lat="44.2942167" lon="9.4323533"><ele>45.5</ele><time>2026-04-06T13:21:46.599Z</time></trkpt><trkpt lat="44.2942733" lon="9.432405"><ele>45.0</ele><time>2026-04-06T13:21:47.598Z</time></trkpt><trkpt lat="44.2943117" lon="9.4324767"><ele>44.5</ele><time>2026-04-06T13:21:48.598Z</time></trkpt><trkpt lat="44.2943683" lon="9.432545"><ele>44.0</ele><time>2026-04-06T13:21:49.599Z</time></trkpt><trkpt lat="44.294435" lon="9.4326067"><ele>43.5</ele><time>2026-04-06T13:21:50.6Z</time></trkpt><trkpt lat="44.294515" lon="9.4326417"><ele>43.0</ele><time>2026-04-06T13:21:51.599Z</time></trkpt><trkpt lat="44.294595" lon="9.4326633"><ele>43.0</ele><time>2026-04-06T13:21:52.599Z</time></trkpt><trkpt lat="44.29467" lon="9.4326783"><ele>43.0</ele><time>2026-04-06T13:21:53.599Z</time></trkpt><trkpt lat="44.2947467" lon="9.4326867"><ele>43.0</ele><time>2026-04-06T13:21:54.599Z</time></trkpt><trkpt lat="44.2948233" lon="9.43269"><ele>43.0</ele><time>2026-04-06T13:21:55.6Z</time></trkpt><trkpt lat="44.2949" lon="9.4326933"><ele>43.0</ele><time>2026-04-06T13:21:56.599Z</time></trkpt><trkpt lat="44.2949717" lon="9.4326983"><ele>43.0</ele><time>2026-04-06T13:21:57.599Z</time></trkpt><trkpt lat="44.2950433" lon="9.432715"><ele>42.4</ele><time>2026-04-06T13:21:58.599Z</time></trkpt><trkpt lat="44.295115" lon="9.4327517"><ele>41.8</ele><time>2026-04-06T13:21:59.598Z</time></trkpt><trkpt lat="44.2951917" lon="9.4328033"><ele>41.2</ele><time>2026-04-06T13:22:00.599Z</time></trkpt><trkpt lat="44.29527" lon="9.4328733"><ele>40.6</ele><time>2026-04-06T13:22:01.599Z</time></trkpt><trkpt lat="44.2953517" lon="9.4329433"><ele>40.0</ele><time>2026-04-06T13:22:02.598Z</time></trkpt><trkpt lat="44.29544" lon="9.4330067"><ele>42.0</ele><time>2026-04-06T13:22:03.598Z</time></trkpt><trkpt lat="44.295535" lon="9.4330567"><ele>44.0</ele><time>2026-04-06T13:22:04.599Z</time></trkpt><trkpt lat="44.295635" lon="9.4331033"><ele>46.0</ele><time>2026-04-06T13:22:05.599Z</time></trkpt><trkpt lat="44.2957417" lon="9.4331317"><ele>48.0</ele><time>2026-04-06T13:22:06.599Z</time></trkpt><trkpt lat="44.29585" lon="9.4331483"><ele>50.0</ele><time>2026-04-06T13:22:07.599Z</time></trkpt><trkpt lat="44.2959583" lon="9.4331617"><ele>50.6</ele><time>2026-04-06T13:22:08.599Z</time></trkpt><trkpt lat="44.296065" lon="9.4331817"><ele>51.2</ele><time>2026-04-06T13:22:09.598Z</time></trkpt><trkpt lat="44.2961733" lon="9.433215"><ele>51.8</ele><time>2026-04-06T13:22:10.599Z</time></trkpt><trkpt lat="44.2962783" lon="9.4332633"><ele>52.4</ele><time>2026-04-06T13:22:11.599Z</time></trkpt><trkpt lat="44.2963783" lon="9.43332"><ele>53.0</ele><time>2026-04-06T13:22:12.599Z</time></trkpt><trkpt lat="44.29648" lon="9.43339"><ele>51.8</ele><time>2026-04-06T13:22:13.599Z</time></trkpt><trkpt lat="44.2965817" lon="9.433455"><ele>50.599999999999994</ele><time>2026-04-06T13:22:14.6Z</time></trkpt><trkpt lat="44.2966833" lon="9.4335017"><ele>49.400000000000006</ele><time>2026-04-06T13:22:15.598Z</time></trkpt><trkpt lat="44.29679" lon="9.43353"><ele>48.2</ele><time>2026-04-06T13:22:16.599Z</time></trkpt><trkpt lat="44.296895" lon="9.4335367"><ele>47.0</ele><time>2026-04-06T13:22:17.599Z</time></trkpt><trkpt lat="44.297" lon="9.433525"><ele>47.0</ele><time>2026-04-06T13:22:18.599Z</time></trkpt><trkpt lat="44.2971017" lon="9.4335133"><ele>47.0</ele><time>2026-04-06T13:22:19.6Z</time></trkpt><trkpt lat="44.2972067" lon="9.43352"><ele>47.0</ele><time>2026-04-06T13:22:20.601Z</time></trkpt><trkpt lat="44.2973117" lon="9.4335467"><ele>47.0</ele><time>2026-04-06T13:22:21.598Z</time></trkpt><trkpt lat="44.29742" lon="9.4335817"><ele>47.0</ele><time>2026-04-06T13:22:22.598Z</time></trkpt><trkpt lat="44.29753" lon="9.4336133"><ele>46.25</ele><time>2026-04-06T13:22:23.599Z</time></trkpt><trkpt lat="44.2976467" lon="9.4336317"><ele>45.5</ele><time>2026-04-06T13:22:24.599Z</time></trkpt><trkpt lat="44.2977733" lon="9.4336283"><ele>44.75</ele><time>2026-04-06T13:22:25.599Z</time></trkpt><trkpt lat="44.2979067" lon="9.4336117"><ele>44.0</ele><time>2026-04-06T13:22:26.599Z</time></trkpt><trkpt lat="44.2980467" lon="9.4335883"><ele>44.75</ele><time>2026-04-06T13:22:27.599Z</time></trkpt><trkpt lat="44.29818" lon="9.4335567"><ele>45.5</ele><time>2026-04-06T13:22:28.599Z</time></trkpt><trkpt lat="44.2983083" lon="9.4335217"><ele>46.25</ele><time>2026-04-06T13:22:29.599Z</time></trkpt><trkpt lat="44.298435" lon="9.4335067"><ele>47.0</ele><time>2026-04-06T13:22:30.6Z</time></trkpt><trkpt lat="44.2985533" lon="9.4335017"><ele>47.0</ele><time>2026-04-06T13:22:31.599Z</time></trkpt><trkpt lat="44.2986633" lon="9.433505"><ele>47.0</ele><time>2026-04-06T13:22:32.599Z</time></trkpt><trkpt lat="44.2987583" lon="9.4335217"><ele>47.0</ele><time>2026-04-06T13:22:33.599Z</time></trkpt><trkpt lat="44.29884" lon="9.4335583"><ele>47.0</ele><time>2026-04-06T13:22:34.598Z</time></trkpt><trkpt lat="44.2989067" lon="9.433615"><ele>47.0</ele><time>2026-04-06T13:22:35.598Z</time></trkpt><trkpt lat="44.2989583" lon="9.43369"><ele>47.0</ele><time>2026-04-06T13:22:36.599Z</time></trkpt><trkpt lat="44.29899" lon="9.43379"><ele>49.0</ele><time>2026-04-06T13:22:37.599Z</time></trkpt><trkpt lat="44.2990017" lon="9.4339383"><ele>51.0</ele><time>2026-04-06T13:22:38.6Z</time></trkpt><trkpt lat="44.2990233" lon="9.4341033"><ele>53.0</ele><time>2026-04-06T13:22:39.599Z</time></trkpt><trkpt lat="44.29906" lon="9.4342767"><ele>55.0</ele><time>2026-04-06T13:22:40.599Z</time></trkpt><trkpt lat="44.299115" lon="9.43444"><ele>55.0</ele><time>2026-04-06T13:22:41.6Z</time></trkpt><trkpt lat="44.2991733" lon="9.43458"><ele>55.0</ele><time>2026-04-06T13:22:42.599Z</time></trkpt><trkpt lat="44.2992517" lon="9.4346833"><ele>55.0</ele><time>2026-04-06T13:22:43.599Z</time></trkpt><trkpt lat="44.2993467" lon="9.4347467"><ele>55.0</ele><time>2026-04-06T13:22:44.601Z</time></trkpt><trkpt lat="44.299455" lon="9.4347733"><ele>55.0</ele><time>2026-04-06T13:22:45.599Z</time></trkpt><trkpt lat="44.2995783" lon="9.434765"><ele>54.0</ele><time>2026-04-06T13:22:46.599Z</time></trkpt><trkpt lat="44.2997" lon="9.4347383"><ele>53.0</ele><time>2026-04-06T13:22:47.599Z</time></trkpt><trkpt lat="44.2998183" lon="9.434695"><ele>52.0</ele><time>2026-04-06T13:22:48.599Z</time></trkpt><trkpt lat="44.2999317" lon="9.434635"><ele>51.0</ele><time>2026-04-06T13:22:49.599Z</time></trkpt><trkpt lat="44.3000317" lon="9.43455"><ele>50.75</ele><time>2026-04-06T13:22:50.6Z</time></trkpt><trkpt lat="44.3001233" lon="9.4344317"><ele>50.5</ele><time>2026-04-06T13:22:51.599Z</time></trkpt><trkpt lat="44.3002033" lon="9.4342983"><ele>50.25</ele><time>2026-04-06T13:22:52.599Z</time></trkpt><trkpt lat="44.3002717" lon="9.43417"><ele>50.0</ele><time>2026-04-06T13:22:53.6Z</time></trkpt><trkpt lat="44.3003433" lon="9.4340533"><ele>50.0</ele><time>2026-04-06T13:22:54.599Z</time></trkpt><trkpt lat="44.3004283" lon="9.43396"><ele>50.0</ele><time>2026-04-06T13:22:55.6Z</time></trkpt><trkpt lat="44.300535" lon="9.4339067"><ele>50.0</ele><time>2026-04-06T13:22:56.598Z</time></trkpt><trkpt lat="44.3006617" lon="9.433885"><ele>50.0</ele><time>2026-04-06T13:22:57.599Z</time></trkpt><trkpt lat="44.3007933" lon="9.43392"><ele>50.66666666666667</ele><time>2026-04-06T13:22:58.599Z</time></trkpt><trkpt lat="44.30093" lon="9.433995"><ele>51.33333333333333</ele><time>2026-04-06T13:22:59.598Z</time></trkpt><trkpt lat="44.3010783" lon="9.4340933"><ele>52.0</ele><time>2026-04-06T13:23:00.598Z</time></trkpt><trkpt lat="44.3012217" lon="9.434195"><ele>52.0</ele><time>2026-04-06T13:23:01.599Z</time></trkpt><trkpt lat="44.3013533" lon="9.4342867"><ele>52.0</ele><time>2026-04-06T13:23:02.6Z</time></trkpt><trkpt lat="44.3014717" lon="9.4343633"><ele>52.0</ele><time>2026-04-06T13:23:03.599Z</time></trkpt><trkpt lat="44.3015867" lon="9.43441"><ele>52.0</ele><time>2026-04-06T13:23:04.598Z</time></trkpt><trkpt lat="44.3017067" lon="9.4344167"><ele>52.75</ele><time>2026-04-06T13:23:05.599Z</time></trkpt><trkpt lat="44.30183" lon="9.4344"><ele>53.5</ele><time>2026-04-06T13:23:06.599Z</time></trkpt><trkpt lat="44.3019483" lon="9.434375"><ele>54.25</ele><time>2026-04-06T13:23:07.599Z</time></trkpt><trkpt lat="44.3020583" lon="9.4343617"><ele>55.0</ele><time>2026-04-06T13:23:08.6Z</time></trkpt><trkpt lat="44.3021667" lon="9.4343583"><ele>55.49999999999999</ele><time>2026-04-06T13:23:09.599Z</time></trkpt><trkpt lat="44.3022667" lon="9.434365"><ele>56.0</ele><time>2026-04-06T13:23:10.599Z</time></trkpt><trkpt lat="44.3023583" lon="9.4343783"><ele>56.5</ele><time>2026-04-06T13:23:11.598Z</time></trkpt><trkpt lat="44.3024383" lon="9.4343983"><ele>57.0</ele><time>2026-04-06T13:23:12.598Z</time></trkpt><trkpt lat="44.3025033" lon="9.43443"><ele>57.49999999999999</ele><time>2026-04-06T13:23:13.599Z</time></trkpt><trkpt lat="44.3025733" lon="9.4345367"><ele>58.0</ele><time>2026-04-06T13:23:15.599Z</time></trkpt><trkpt lat="44.30258" lon="9.43475"><ele>60.0</ele><time>2026-04-06T13:23:17.599Z</time></trkpt><trkpt lat="44.3025983" lon="9.43489"><ele>62.0</ele><time>2026-04-06T13:23:18.6Z</time></trkpt><trkpt lat="44.30263" lon="9.435015"><ele>64.0</ele><time>2026-04-06T13:23:19.6Z</time></trkpt><trkpt lat="44.302695" lon="9.4351133"><ele>66.0</ele><time>2026-04-06T13:23:20.599Z</time></trkpt><trkpt lat="44.3027883" lon="9.435185"><ele>68.0</ele><time>2026-04-06T13:23:21.598Z</time></trkpt><trkpt lat="44.3029067" lon="9.4352267"><ele>68.0</ele><time>2026-04-06T13:23:22.599Z</time></trkpt><trkpt lat="44.3030283" lon="9.435245"><ele>68.0</ele><time>2026-04-06T13:23:23.6Z</time></trkpt><trkpt lat="44.3031433" lon="9.4352333"><ele>68.0</ele><time>2026-04-06T13:23:24.599Z</time></trkpt><trkpt lat="44.3032617" lon="9.4351717"><ele>68.0</ele><time>2026-04-06T13:23:25.599Z</time></trkpt><trkpt lat="44.3033833" lon="9.4350617"><ele>66.66666666666667</ele><time>2026-04-06T13:23:26.599Z</time></trkpt><trkpt lat="44.3035117" lon="9.4349133"><ele>65.33333333333333</ele><time>2026-04-06T13:23:27.598Z</time></trkpt><trkpt lat="44.3036467" lon="9.4347367"><ele>64.0</ele><time>2026-04-06T13:23:28.601Z</time></trkpt><trkpt lat="44.3037817" lon="9.4345567"><ele>64.0</ele><time>2026-04-06T13:23:29.598Z</time></trkpt><trkpt lat="44.3039033" lon="9.4343917"><ele>64.0</ele><time>2026-04-06T13:23:30.599Z</time></trkpt><trkpt lat="44.30401" lon="9.4342367"><ele>64.0</ele><time>2026-04-06T13:23:31.599Z</time></trkpt><trkpt lat="44.304105" lon="9.43409"><ele>64.5</ele><time>2026-04-06T13:23:32.599Z</time></trkpt><trkpt lat="44.3041833" lon="9.4339433"><ele>65.0</ele><time>2026-04-06T13:23:33.599Z</time></trkpt><trkpt lat="44.304245" lon="9.4337933"><ele>65.5</ele><time>2026-04-06T13:23:34.599Z</time></trkpt><trkpt lat="44.304305" lon="9.4336333"><ele>66.0</ele><time>2026-04-06T13:23:35.598Z</time></trkpt><trkpt lat="44.3043667" lon="9.43347"><ele>66.0</ele><time>2026-04-06T13:23:36.598Z</time></trkpt><trkpt lat="44.30443" lon="9.4333183"><ele>66.0</ele><time>2026-04-06T13:23:37.598Z</time></trkpt><trkpt lat="44.304495" lon="9.4331917"><ele>66.0</ele><time>2026-04-06T13:23:38.599Z</time></trkpt><trkpt lat="44.3045517" lon="9.4330883"><ele>66.0</ele><time>2026-04-06T13:23:39.598Z</time></trkpt><trkpt lat="44.3046" lon="9.43301"><ele>66.0</ele><time>2026-04-06T13:23:40.598Z</time></trkpt><trkpt lat="44.3046767" lon="9.4329167"><ele>66.66666666666667</ele><time>2026-04-06T13:23:42.598Z</time></trkpt><trkpt lat="44.3047867" lon="9.4328383"><ele>67.33333333333333</ele><time>2026-04-06T13:23:44.599Z</time></trkpt><trkpt lat="44.3048533" lon="9.4328133"><ele>68.0</ele><time>2026-04-06T13:23:45.598Z</time></trkpt><trkpt lat="44.3049233" lon="9.4328"><ele>68.66666666666666</ele><time>2026-04-06T13:23:46.597Z</time></trkpt><trkpt lat="44.304995" lon="9.432805"><ele>69.33333333333333</ele><time>2026-04-06T13:23:47.598Z</time></trkpt><trkpt lat="44.3050633" lon="9.4328417"><ele>70.0</ele><time>2026-04-06T13:23:48.598Z</time></trkpt><trkpt lat="44.305125" lon="9.4329083"><ele>69.4</ele><time>2026-04-06T13:23:49.598Z</time></trkpt><trkpt lat="44.3051683" lon="9.4330017"><ele>68.8</ele><time>2026-04-06T13:23:50.598Z</time></trkpt><trkpt lat="44.30521" lon="9.433105"><ele>68.2</ele><time>2026-04-06T13:23:51.598Z</time></trkpt><trkpt lat="44.3052536" lon="9.4332147"><ele>67.6</ele><time>2026-04-06T13:23:52.599Z</time></trkpt><trkpt lat="44.3053002" lon="9.4333363"><ele>67.0</ele><time>2026-04-06T13:23:53.598Z</time></trkpt><trkpt lat="44.3053484" lon="9.4334626"><ele>67.0</ele><time>2026-04-06T13:23:54.599Z</time></trkpt><trkpt lat="44.3053973" lon="9.4335869"><ele>67.0</ele><time>2026-04-06T13:23:55.598Z</time></trkpt><trkpt lat="44.3054512" lon="9.4337121"><ele>67.0</ele><time>2026-04-06T13:23:56.599Z</time></trkpt><trkpt lat="44.3055086" lon="9.4338295"><ele>67.0</ele><time>2026-04-06T13:23:57.597Z</time></trkpt><trkpt lat="44.3055668" lon="9.4339335"><ele>67.0</ele><time>2026-04-06T13:23:58.596Z</time></trkpt><trkpt lat="44.3056281" lon="9.4340322"><ele>69.0</ele><time>2026-04-06T13:23:59.599Z</time></trkpt><trkpt lat="44.3056904" lon="9.4341359"><ele>71.0</ele><time>2026-04-06T13:24:00.598Z</time></trkpt><trkpt lat="44.3057522" lon="9.4342413"><ele>73.0</ele><time>2026-04-06T13:24:01.597Z</time></trkpt><trkpt lat="44.3058111" lon="9.4343488"><ele>75.0</ele><time>2026-04-06T13:24:02.599Z</time></trkpt><trkpt lat="44.3058709" lon="9.4344542"><ele>77.0</ele><time>2026-04-06T13:24:03.598Z</time></trkpt><trkpt lat="44.3059302" lon="9.4345529"><ele>77.0</ele><time>2026-04-06T13:24:04.598Z</time></trkpt><trkpt lat="44.3059973" lon="9.4346339"><ele>77.0</ele><time>2026-04-06T13:24:05.599Z</time></trkpt><trkpt lat="44.3060786" lon="9.4346921"><ele>77.0</ele><time>2026-04-06T13:24:06.598Z</time></trkpt><trkpt lat="44.3061743" lon="9.4347132"><ele>77.0</ele><time>2026-04-06T13:24:07.598Z</time></trkpt><trkpt lat="44.3062797" lon="9.4346891"><ele>77.0</ele><time>2026-04-06T13:24:08.598Z</time></trkpt><trkpt lat="44.3063904" lon="9.4346298"><ele>80.0</ele><time>2026-04-06T13:24:09.598Z</time></trkpt><trkpt lat="44.3065005" lon="9.4345596"><ele>83.0</ele><time>2026-04-06T13:24:10.597Z</time></trkpt><trkpt lat="44.3066047" lon="9.4344924"><ele>86.0</ele><time>2026-04-06T13:24:11.598Z</time></trkpt><trkpt lat="44.3066996" lon="9.4344281"><ele>89.0</ele><time>2026-04-06T13:24:12.598Z</time></trkpt><trkpt lat="44.3067895" lon="9.4343701"><ele>92.0</ele><time>2026-04-06T13:24:13.598Z</time></trkpt><trkpt lat="44.3068798" lon="9.4343172"><ele>92.0</ele><time>2026-04-06T13:24:14.597Z</time></trkpt><trkpt lat="44.3069723" lon="9.4342527"><ele>92.0</ele><time>2026-04-06T13:24:15.598Z</time></trkpt><trkpt lat="44.3070663" lon="9.4341807"><ele>92.0</ele><time>2026-04-06T13:24:16.598Z</time></trkpt><trkpt lat="44.30716" lon="9.4340886"><ele>92.0</ele><time>2026-04-06T13:24:17.598Z</time></trkpt><trkpt lat="44.307247" lon="9.4339931"><ele>92.0</ele><time>2026-04-06T13:24:18.598Z</time></trkpt><trkpt lat="44.30733" lon="9.4339008"><ele>92.0</ele><time>2026-04-06T13:24:19.598Z</time></trkpt><trkpt lat="44.3074128" lon="9.4338062"><ele>92.0</ele><time>2026-04-06T13:24:20.598Z</time></trkpt><trkpt lat="44.3074919" lon="9.4337098"><ele>92.0</ele><time>2026-04-06T13:24:21.597Z</time></trkpt><trkpt lat="44.3075689" lon="9.4336165"><ele>92.0</ele><time>2026-04-06T13:24:22.598Z</time></trkpt><trkpt lat="44.3076466" lon="9.4335289"><ele>92.0</ele><time>2026-04-06T13:24:23.598Z</time></trkpt><trkpt lat="44.3077206" lon="9.4334482"><ele>93.5</ele><time>2026-04-06T13:24:24.598Z</time></trkpt><trkpt lat="44.307793" lon="9.4333731"><ele>95.0</ele><time>2026-04-06T13:24:25.598Z</time></trkpt><trkpt lat="44.3078628" lon="9.4333101"><ele>96.5</ele><time>2026-04-06T13:24:26.599Z</time></trkpt><trkpt lat="44.307936" lon="9.4332587"><ele>98.0</ele><time>2026-04-06T13:24:27.598Z</time></trkpt><trkpt lat="44.3080063" lon="9.4332157"><ele>99.49999999999999</ele><time>2026-04-06T13:24:28.597Z</time></trkpt><trkpt lat="44.3080758" lon="9.4331742"><ele>101.0</ele><time>2026-04-06T13:24:29.599Z</time></trkpt><trkpt lat="44.3081357" lon="9.4331406"><ele>101.0</ele><time>2026-04-06T13:24:30.598Z</time></trkpt><trkpt lat="44.3082371" lon="9.4331133"><ele>101.0</ele><time>2026-04-06T13:24:32.598Z</time></trkpt><trkpt lat="44.3083003" lon="9.4331944"><ele>101.0</ele><time>2026-04-06T13:24:34.598Z</time></trkpt><trkpt lat="44.3083087" lon="9.4333706"><ele>101.0</ele><time>2026-04-06T13:24:36.598Z</time></trkpt><trkpt lat="44.3082804" lon="9.4334586"><ele>101.0</ele><time>2026-04-06T13:24:37.598Z</time></trkpt><trkpt lat="44.3082193" lon="9.4335494"><ele>101.0</ele><time>2026-04-06T13:24:38.599Z</time></trkpt><trkpt lat="44.3081415" lon="9.4336401"><ele>101.0</ele><time>2026-04-06T13:24:39.597Z</time></trkpt><trkpt lat="44.3080677" lon="9.4337258"><ele>101.0</ele><time>2026-04-06T13:24:40.597Z</time></trkpt><trkpt lat="44.3080066" lon="9.4338192"><ele>101.0</ele><time>2026-04-06T13:24:41.598Z</time></trkpt><trkpt lat="44.3079545" lon="9.4339258"><ele>101.0</ele><time>2026-04-06T13:24:42.599Z</time></trkpt><trkpt lat="44.3079068" lon="9.4340384"><ele>101.66666666666666</ele><time>2026-04-06T13:24:43.599Z</time></trkpt><trkpt lat="44.3078585" lon="9.4341505"><ele>102.33333333333333</ele><time>2026-04-06T13:24:44.599Z</time></trkpt><trkpt lat="44.3078103" lon="9.434259"><ele>103.0</ele><time>2026-04-06T13:24:45.598Z</time></trkpt><trkpt lat="44.3077633" lon="9.4343593"><ele>103.66666666666666</ele><time>2026-04-06T13:24:46.598Z</time></trkpt><trkpt lat="44.3077156" lon="9.4344551"><ele>104.33333333333333</ele><time>2026-04-06T13:24:47.598Z</time></trkpt><trkpt lat="44.3076653" lon="9.4345531"><ele>105.0</ele><time>2026-04-06T13:24:48.598Z</time></trkpt><trkpt lat="44.3076153" lon="9.4346533"><ele>105.0</ele><time>2026-04-06T13:24:49.599Z</time></trkpt><trkpt lat="44.3075667" lon="9.4347548"><ele>105.0</ele><time>2026-04-06T13:24:50.599Z</time></trkpt><trkpt lat="44.3075194" lon="9.4348531"><ele>105.0</ele><time>2026-04-06T13:24:51.598Z</time></trkpt><trkpt lat="44.3074741" lon="9.4349569"><ele>105.0</ele><time>2026-04-06T13:24:52.598Z</time></trkpt><trkpt lat="44.3074358" lon="9.435075"><ele>105.0</ele><time>2026-04-06T13:24:53.599Z</time></trkpt><trkpt lat="44.3073952" lon="9.435189"><ele>105.0</ele><time>2026-04-06T13:24:54.597Z</time></trkpt><trkpt lat="44.3073398" lon="9.4352783"><ele>105.0</ele><time>2026-04-06T13:24:55.599Z</time></trkpt><trkpt lat="44.3072778" lon="9.4353479"><ele>105.0</ele><time>2026-04-06T13:24:56.599Z</time></trkpt><trkpt lat="44.3072154" lon="9.4354103"><ele>105.0</ele><time>2026-04-06T13:24:57.597Z</time></trkpt><trkpt lat="44.3071626" lon="9.4354841"><ele>105.0</ele><time>2026-04-06T13:24:58.599Z</time></trkpt><trkpt lat="44.3071221" lon="9.4355753"><ele>105.0</ele><time>2026-04-06T13:24:59.599Z</time></trkpt><trkpt lat="44.3070997" lon="9.4356821"><ele>105.0</ele><time>2026-04-06T13:25:00.598Z</time></trkpt><trkpt lat="44.3071008" lon="9.435799"><ele>107.33333333333333</ele><time>2026-04-06T13:25:01.598Z</time></trkpt><trkpt lat="44.3071245" lon="9.435909"><ele>109.66666666666666</ele><time>2026-04-06T13:25:02.598Z</time></trkpt><trkpt lat="44.3071679" lon="9.4360014"><ele>112.0</ele><time>2026-04-06T13:25:03.599Z</time></trkpt><trkpt lat="44.3072295" lon="9.4360845"><ele>114.33333333333333</ele><time>2026-04-06T13:25:04.598Z</time></trkpt><trkpt lat="44.3073" lon="9.436155"><ele>116.66666666666666</ele><time>2026-04-06T13:25:05.599Z</time></trkpt><trkpt lat="44.3073617" lon="9.4362217"><ele>119.0</ele><time>2026-04-06T13:25:06.599Z</time></trkpt><trkpt lat="44.30741" lon="9.4362867"><ele>118.80000000000001</ele><time>2026-04-06T13:25:07.6Z</time></trkpt><trkpt lat="44.3074667" lon="9.4364317"><ele>118.60000000000001</ele><time>2026-04-06T13:25:09.598Z</time></trkpt><trkpt lat="44.3074433" lon="9.4366083"><ele>118.4</ele><time>2026-04-06T13:25:11.598Z</time></trkpt><trkpt lat="44.3074117" lon="9.4367217"><ele>118.2</ele><time>2026-04-06T13:25:12.599Z</time></trkpt><trkpt lat="44.3073933" lon="9.4368483"><ele>118.0</ele><time>2026-04-06T13:25:13.598Z</time></trkpt><trkpt lat="44.3073967" lon="9.436985"><ele>118.0</ele><time>2026-04-06T13:25:14.599Z</time></trkpt><trkpt lat="44.3074067" lon="9.4371217"><ele>118.00000000000001</ele><time>2026-04-06T13:25:15.598Z</time></trkpt><trkpt lat="44.307425" lon="9.4372483"><ele>118.00000000000001</ele><time>2026-04-06T13:25:16.599Z</time></trkpt><trkpt lat="44.30746" lon="9.4373683"><ele>118.0</ele><time>2026-04-06T13:25:17.599Z</time></trkpt><trkpt lat="44.3075133" lon="9.4374833"><ele>118.0</ele><time>2026-04-06T13:25:18.598Z</time></trkpt><trkpt lat="44.307575" lon="9.4375917"><ele>117.60000000000001</ele><time>2026-04-06T13:25:19.599Z</time></trkpt><trkpt lat="44.3076467" lon="9.4376933"><ele>117.20000000000002</ele><time>2026-04-06T13:25:20.599Z</time></trkpt><trkpt lat="44.3077317" lon="9.4377783"><ele>116.8</ele><time>2026-04-06T13:25:21.601Z</time></trkpt><trkpt lat="44.3078233" lon="9.4378483"><ele>116.4</ele><time>2026-04-06T13:25:22.598Z</time></trkpt><trkpt lat="44.30792" lon="9.437895"><ele>116.0</ele><time>2026-04-06T13:25:23.599Z</time></trkpt><trkpt lat="44.3080217" lon="9.43792"><ele>119.4</ele><time>2026-04-06T13:25:24.598Z</time></trkpt><trkpt lat="44.3081183" lon="9.4379333"><ele>122.8</ele><time>2026-04-06T13:25:25.599Z</time></trkpt><trkpt lat="44.3082083" lon="9.4379433"><ele>126.20000000000002</ele><time>2026-04-06T13:25:26.599Z</time></trkpt><trkpt lat="44.3083017" lon="9.4379433"><ele>129.6</ele><time>2026-04-06T13:25:27.597Z</time></trkpt><trkpt lat="44.3083983" lon="9.43795"><ele>133.0</ele><time>2026-04-06T13:25:28.598Z</time></trkpt><trkpt lat="44.3084867" lon="9.4379733"><ele>133.0</ele><time>2026-04-06T13:25:29.599Z</time></trkpt><trkpt lat="44.30856" lon="9.43801"><ele>133.0</ele><time>2026-04-06T13:25:30.598Z</time></trkpt><trkpt lat="44.3086217" lon="9.43805"><ele>133.0</ele><time>2026-04-06T13:25:31.598Z</time></trkpt><trkpt lat="44.30871" lon="9.4381367"><ele>133.0</ele><time>2026-04-06T13:25:33.598Z</time></trkpt><trkpt lat="44.3087467" lon="9.43827"><ele>133.0</ele><time>2026-04-06T13:25:35.598Z</time></trkpt><trkpt lat="44.3086717" lon="9.4383867"><ele>133.0</ele><time>2026-04-06T13:25:37.601Z</time></trkpt><trkpt lat="44.3085983" lon="9.438405"><ele>133.0</ele><time>2026-04-06T13:25:38.599Z</time></trkpt><trkpt lat="44.30852" lon="9.4384083"><ele>133.0</ele><time>2026-04-06T13:25:39.598Z</time></trkpt><trkpt lat="44.3084417" lon="9.4384083"><ele>133.0</ele><time>2026-04-06T13:25:40.599Z</time></trkpt><trkpt lat="44.3083683" lon="9.4384117"><ele>133.0</ele><time>2026-04-06T13:25:41.6Z</time></trkpt><trkpt lat="44.3082633" lon="9.4384733"><ele>133.0</ele><time>2026-04-06T13:25:43.598Z</time></trkpt><trkpt lat="44.3082533" lon="9.4386383"><ele>133.0</ele><time>2026-04-06T13:25:45.598Z</time></trkpt><trkpt lat="44.3082917" lon="9.43871"><ele>133.0</ele><time>2026-04-06T13:25:46.597Z</time></trkpt><trkpt lat="44.308355" lon="9.43876"><ele>133.0</ele><time>2026-04-06T13:25:47.597Z</time></trkpt><trkpt lat="44.3084467" lon="9.43878"><ele>133.0</ele><time>2026-04-06T13:25:48.598Z</time></trkpt><trkpt lat="44.3085367" lon="9.4387967"><ele>133.0</ele><time>2026-04-06T13:25:49.598Z</time></trkpt><trkpt lat="44.30863" lon="9.4388067"><ele>133.0</ele><time>2026-04-06T13:25:50.598Z</time></trkpt><trkpt lat="44.3087183" lon="9.43882"><ele>134.5</ele><time>2026-04-06T13:25:51.598Z</time></trkpt><trkpt lat="44.3088067" lon="9.4388367"><ele>136.0</ele><time>2026-04-06T13:25:52.599Z</time></trkpt><trkpt lat="44.308895" lon="9.4388517"><ele>137.5</ele><time>2026-04-06T13:25:53.598Z</time></trkpt><trkpt lat="44.3089817" lon="9.4388667"><ele>139.0</ele><time>2026-04-06T13:25:54.598Z</time></trkpt><trkpt lat="44.30907" lon="9.4388883"><ele>140.5</ele><time>2026-04-06T13:25:55.597Z</time></trkpt><trkpt lat="44.3091567" lon="9.4389083"><ele>142.0</ele><time>2026-04-06T13:25:56.599Z</time></trkpt><trkpt lat="44.30924" lon="9.4389283"><ele>142.0</ele><time>2026-04-06T13:25:57.598Z</time></trkpt><trkpt lat="44.3093117" lon="9.43894"><ele>142.0</ele><time>2026-04-06T13:25:58.599Z</time></trkpt><trkpt lat="44.3094233" lon="9.438925"><ele>142.0</ele><time>2026-04-06T13:26:00.598Z</time></trkpt><trkpt lat="44.3094883" lon="9.43881"><ele>142.0</ele><time>2026-04-06T13:26:02.599Z</time></trkpt><trkpt lat="44.3094883" lon="9.4387167"><ele>142.0</ele><time>2026-04-06T13:26:03.6Z</time></trkpt><trkpt lat="44.3094683" lon="9.4386067"><ele>142.0</ele><time>2026-04-06T13:26:04.599Z</time></trkpt><trkpt lat="44.3094383" lon="9.4384783"><ele>141.75</ele><time>2026-04-06T13:26:05.599Z</time></trkpt><trkpt lat="44.309405" lon="9.4383333"><ele>141.5</ele><time>2026-04-06T13:26:06.599Z</time></trkpt><trkpt lat="44.309365" lon="9.4381733"><ele>141.25</ele><time>2026-04-06T13:26:07.598Z</time></trkpt><trkpt lat="44.3093167" lon="9.438025"><ele>141.0</ele><time>2026-04-06T13:26:08.598Z</time></trkpt><trkpt lat="44.30925" lon="9.437905"><ele>140.8</ele><time>2026-04-06T13:26:09.597Z</time></trkpt><trkpt lat="44.3091683" lon="9.4378133"><ele>140.6</ele><time>2026-04-06T13:26:10.597Z</time></trkpt><trkpt lat="44.3090833" lon="9.4377383"><ele>140.4</ele><time>2026-04-06T13:26:11.599Z</time></trkpt><trkpt lat="44.308995" lon="9.43767"><ele>140.2</ele><time>2026-04-06T13:26:12.598Z</time></trkpt><trkpt lat="44.3089117" lon="9.4375983"><ele>140.0</ele><time>2026-04-06T13:26:13.599Z</time></trkpt><trkpt lat="44.308825" lon="9.4375267"><ele>140.0</ele><time>2026-04-06T13:26:14.598Z</time></trkpt><trkpt lat="44.3087417" lon="9.43746"><ele>140.0</ele><time>2026-04-06T13:26:15.598Z</time></trkpt><trkpt lat="44.3086667" lon="9.437405"><ele>140.0</ele><time>2026-04-06T13:26:16.601Z</time></trkpt><trkpt lat="44.3085933" lon="9.4373517"><ele>140.0</ele><time>2026-04-06T13:26:17.598Z</time></trkpt><trkpt lat="44.3085167" lon="9.4373"><ele>140.0</ele><time>2026-04-06T13:26:18.598Z</time></trkpt><trkpt lat="44.3084467" lon="9.437245"><ele>140.0</ele><time>2026-04-06T13:26:19.598Z</time></trkpt><trkpt lat="44.3083917" lon="9.4371833"><ele>141.42857142857142</ele><time>2026-04-06T13:26:20.597Z</time></trkpt><trkpt lat="44.3083533" lon="9.4371117"><ele>142.85714285714286</ele><time>2026-04-06T13:26:21.598Z</time></trkpt><trkpt lat="44.30833" lon="9.4370267"><ele>144.28571428571428</ele><time>2026-04-06T13:26:22.598Z</time></trkpt><trkpt lat="44.3083283" lon="9.436935"><ele>145.71428571428572</ele><time>2026-04-06T13:26:23.599Z</time></trkpt><trkpt lat="44.3083467" lon="9.4368433"><ele>147.14285714285714</ele><time>2026-04-06T13:26:24.598Z</time></trkpt><trkpt lat="44.308385" lon="9.436755"><ele>148.57142857142856</ele><time>2026-04-06T13:26:25.599Z</time></trkpt><trkpt lat="44.30845" lon="9.4366683"><ele>150.0</ele><time>2026-04-06T13:26:26.599Z</time></trkpt><trkpt lat="44.3085167" lon="9.4365767"><ele>150.0</ele><time>2026-04-06T13:26:27.599Z</time></trkpt><trkpt lat="44.3085783" lon="9.4364717"><ele>150.0</ele><time>2026-04-06T13:26:28.598Z</time></trkpt><trkpt lat="44.3086267" lon="9.4363717"><ele>150.0</ele><time>2026-04-06T13:26:29.599Z</time></trkpt><trkpt lat="44.30866" lon="9.4362717"><ele>150.0</ele><time>2026-04-06T13:26:30.598Z</time></trkpt><trkpt lat="44.3086767" lon="9.4361617"><ele>150.0</ele><time>2026-04-06T13:26:31.599Z</time></trkpt><trkpt lat="44.3086717" lon="9.4360533"><ele>150.0</ele><time>2026-04-06T13:26:32.599Z</time></trkpt><trkpt lat="44.3086383" lon="9.4359567"><ele>150.4</ele><time>2026-04-06T13:26:33.598Z</time></trkpt><trkpt lat="44.30859" lon="9.4358717"><ele>150.8</ele><time>2026-04-06T13:26:34.598Z</time></trkpt><trkpt lat="44.30854" lon="9.4358017"><ele>151.2</ele><time>2026-04-06T13:26:35.599Z</time></trkpt><trkpt lat="44.30848" lon="9.435675"><ele>151.6</ele><time>2026-04-06T13:26:37.599Z</time></trkpt><trkpt lat="44.3084983" lon="9.4355317"><ele>152.0</ele><time>2026-04-06T13:26:39.598Z</time></trkpt><trkpt lat="44.30861" lon="9.4354333"><ele>150.0</ele><time>2026-04-06T13:26:41.599Z</time></trkpt><trkpt lat="44.3086933" lon="9.43541"><ele>148.0</ele><time>2026-04-06T13:26:42.598Z</time></trkpt><trkpt lat="44.308785" lon="9.4353883"><ele>146.0</ele><time>2026-04-06T13:26:43.599Z</time></trkpt><trkpt lat="44.3088817" lon="9.4353617"><ele>144.0</ele><time>2026-04-06T13:26:44.599Z</time></trkpt><trkpt lat="44.3089783" lon="9.4353233"><ele>142.0</ele><time>2026-04-06T13:26:45.598Z</time></trkpt><trkpt lat="44.309075" lon="9.43528"><ele>145.5</ele><time>2026-04-06T13:26:46.599Z</time></trkpt><trkpt lat="44.3091667" lon="9.435235"><ele>149.0</ele><time>2026-04-06T13:26:47.598Z</time></trkpt><trkpt lat="44.3092467" lon="9.4351917"><ele>152.5</ele><time>2026-04-06T13:26:48.599Z</time></trkpt><trkpt lat="44.30932" lon="9.4351583"><ele>156.0</ele><time>2026-04-06T13:26:49.597Z</time></trkpt><trkpt lat="44.3093917" lon="9.4351367"><ele>159.5</ele><time>2026-04-06T13:26:50.597Z</time></trkpt><trkpt lat="44.3094733" lon="9.4351367"><ele>163.0</ele><time>2026-04-06T13:26:51.598Z</time></trkpt><trkpt lat="44.3095583" lon="9.4351433"><ele>163.0</ele><time>2026-04-06T13:26:52.599Z</time></trkpt><trkpt lat="44.3096367" lon="9.4351317"><ele>163.0</ele><time>2026-04-06T13:26:53.599Z</time></trkpt><trkpt lat="44.3097017" lon="9.435095"><ele>163.0</ele><time>2026-04-06T13:26:54.598Z</time></trkpt><trkpt lat="44.3097583" lon="9.435015"><ele>163.0</ele><time>2026-04-06T13:26:55.598Z</time></trkpt><trkpt lat="44.3098" lon="9.4349033"><ele>163.0</ele><time>2026-04-06T13:26:56.599Z</time></trkpt><trkpt lat="44.3098367" lon="9.43479"><ele>163.0</ele><time>2026-04-06T13:26:57.597Z</time></trkpt><trkpt lat="44.3098833" lon="9.434675"><ele>165.2</ele><time>2026-04-06T13:26:58.599Z</time></trkpt><trkpt lat="44.309935" lon="9.43456"><ele>167.4</ele><time>2026-04-06T13:26:59.598Z</time></trkpt><trkpt lat="44.309985" lon="9.4344467"><ele>169.6</ele><time>2026-04-06T13:27:00.599Z</time></trkpt><trkpt lat="44.31002" lon="9.4343267"><ele>171.79999999999998</ele><time>2026-04-06T13:27:01.598Z</time></trkpt><trkpt lat="44.3100367" lon="9.4341917"><ele>174.0</ele><time>2026-04-06T13:27:02.598Z</time></trkpt><trkpt lat="44.3100467" lon="9.4340667"><ele>174.0</ele><time>2026-04-06T13:27:03.598Z</time></trkpt><trkpt lat="44.31005" lon="9.43395"><ele>174.0</ele><time>2026-04-06T13:27:04.597Z</time></trkpt><trkpt lat="44.3100617" lon="9.43385"><ele>174.0</ele><time>2026-04-06T13:27:05.599Z</time></trkpt><trkpt lat="44.3100883" lon="9.4337683"><ele>174.0</ele><time>2026-04-06T13:27:06.598Z</time></trkpt><trkpt lat="44.3101267" lon="9.4336983"><ele>174.0</ele><time>2026-04-06T13:27:07.598Z</time></trkpt><trkpt lat="44.3101883" lon="9.433655"><ele>174.0</ele><time>2026-04-06T13:27:08.598Z</time></trkpt><trkpt lat="44.3103133" lon="9.4336367"><ele>174.0</ele><time>2026-04-06T13:27:10.597Z</time></trkpt><trkpt lat="44.3103783" lon="9.4337017"><ele>174.0</ele><time>2026-04-06T13:27:11.599Z</time></trkpt><trkpt lat="44.3104383" lon="9.4337933"><ele>174.0</ele><time>2026-04-06T13:27:12.598Z</time></trkpt><trkpt lat="44.310505" lon="9.4338883"><ele>174.0</ele><time>2026-04-06T13:27:13.599Z</time></trkpt><trkpt lat="44.31058" lon="9.4339633"><ele>174.0</ele><time>2026-04-06T13:27:14.599Z</time></trkpt><trkpt lat="44.3106517" lon="9.4340083"><ele>174.0</ele><time>2026-04-06T13:27:15.599Z</time></trkpt><trkpt lat="44.31072" lon="9.4340383"><ele>177.2</ele><time>2026-04-06T13:27:16.598Z</time></trkpt><trkpt lat="44.3108183" lon="9.43414"><ele>180.39999999999998</ele><time>2026-04-06T13:27:18.598Z</time></trkpt><trkpt lat="44.3108217" lon="9.434285"><ele>183.6</ele><time>2026-04-06T13:27:20.599Z</time></trkpt><trkpt lat="44.3107183" lon="9.4343267"><ele>186.8</ele><time>2026-04-06T13:27:22.597Z</time></trkpt><trkpt lat="44.3106583" lon="9.43429"><ele>190.0</ele><time>2026-04-06T13:27:23.598Z</time></trkpt><trkpt lat="44.31059" lon="9.4342167"><ele>187.33333333333334</ele><time>2026-04-06T13:27:24.598Z</time></trkpt><trkpt lat="44.3105183" lon="9.4341333"><ele>184.66666666666669</ele><time>2026-04-06T13:27:25.599Z</time></trkpt><trkpt lat="44.310455" lon="9.43406"><ele>182.0</ele><time>2026-04-06T13:27:26.599Z</time></trkpt><trkpt lat="44.3103933" lon="9.4340117"><ele>179.33333333333334</ele><time>2026-04-06T13:27:27.599Z</time></trkpt><trkpt lat="44.31033" lon="9.4339967"><ele>176.66666666666666</ele><time>2026-04-06T13:27:28.599Z</time></trkpt><trkpt lat="44.310235" lon="9.434075"><ele>174.0</ele><time>2026-04-06T13:27:30.599Z</time></trkpt><trkpt lat="44.3102133" lon="9.4341783"><ele>174.0</ele><time>2026-04-06T13:27:31.599Z</time></trkpt><trkpt lat="44.3101933" lon="9.4343"><ele>174.0</ele><time>2026-04-06T13:27:32.599Z</time></trkpt><trkpt lat="44.3101733" lon="9.43443"><ele>174.0</ele><time>2026-04-06T13:27:33.597Z</time></trkpt><trkpt lat="44.31014" lon="9.4345467"><ele>174.0</ele><time>2026-04-06T13:27:34.598Z</time></trkpt><trkpt lat="44.310105" lon="9.4346633"><ele>174.0</ele><time>2026-04-06T13:27:35.599Z</time></trkpt><trkpt lat="44.310075" lon="9.434785"><ele>176.0</ele><time>2026-04-06T13:27:36.599Z</time></trkpt><trkpt lat="44.3100567" lon="9.4349083"><ele>178.0</ele><time>2026-04-06T13:27:37.599Z</time></trkpt><trkpt lat="44.3100433" lon="9.4350233"><ele>180.0</ele><time>2026-04-06T13:27:38.599Z</time></trkpt><trkpt lat="44.3100317" lon="9.4351233"><ele>182.0</ele><time>2026-04-06T13:27:39.598Z</time></trkpt><trkpt lat="44.31002" lon="9.43522"><ele>184.0</ele><time>2026-04-06T13:27:40.598Z</time></trkpt><trkpt lat="44.3100017" lon="9.4353067"><ele>186.0</ele><time>2026-04-06T13:27:41.6Z</time></trkpt><trkpt lat="44.3099733" lon="9.4353883"><ele>188.0</ele><time>2026-04-06T13:27:42.598Z</time></trkpt><trkpt lat="44.3099067" lon="9.43552"><ele>189.28571428571428</ele><time>2026-04-06T13:27:44.599Z</time></trkpt><trkpt lat="44.3098533" lon="9.4356167"><ele>190.57142857142856</ele><time>2026-04-06T13:27:46.597Z</time></trkpt><trkpt lat="44.3098517" lon="9.4357167"><ele>191.85714285714286</ele><time>2026-04-06T13:27:48.599Z</time></trkpt><trkpt lat="44.30992" lon="9.4357533"><ele>193.14285714285714</ele><time>2026-04-06T13:27:50.599Z</time></trkpt><trkpt lat="44.3099883" lon="9.43576"><ele>194.42857142857144</ele><time>2026-04-06T13:27:51.599Z</time></trkpt><trkpt lat="44.3100633" lon="9.4357733"><ele>195.71428571428572</ele><time>2026-04-06T13:27:52.6Z</time></trkpt><trkpt lat="44.310135" lon="9.4357833"><ele>197.0</ele><time>2026-04-06T13:27:53.6Z</time></trkpt><trkpt lat="44.3102083" lon="9.435795"><ele>197.00000000000003</ele><time>2026-04-06T13:27:54.599Z</time></trkpt><trkpt lat="44.310295" lon="9.4358017"><ele>197.0</ele><time>2026-04-06T13:27:55.601Z</time></trkpt><trkpt lat="44.310375" lon="9.4358283"><ele>197.0</ele><time>2026-04-06T13:27:56.599Z</time></trkpt><trkpt lat="44.31046" lon="9.43587"><ele>197.0</ele><time>2026-04-06T13:27:57.599Z</time></trkpt><trkpt lat="44.3105417" lon="9.4359217"><ele>197.00000000000003</ele><time>2026-04-06T13:27:58.597Z</time></trkpt><trkpt lat="44.3106283" lon="9.4359783"><ele>197.0</ele><time>2026-04-06T13:27:59.597Z</time></trkpt><trkpt lat="44.3107083" lon="9.4360317"><ele>197.57142857142858</ele><time>2026-04-06T13:28:00.599Z</time></trkpt><trkpt lat="44.3107833" lon="9.4360833"><ele>198.14285714285717</ele><time>2026-04-06T13:28:01.6Z</time></trkpt><trkpt lat="44.3108517" lon="9.436135"><ele>198.71428571428572</ele><time>2026-04-06T13:28:02.599Z</time></trkpt><trkpt lat="44.310915" lon="9.4361867"><ele>199.28571428571428</ele><time>2026-04-06T13:28:03.598Z</time></trkpt><trkpt lat="44.3109717" lon="9.4362417"><ele>199.85714285714286</ele><time>2026-04-06T13:28:04.599Z</time></trkpt><trkpt lat="44.3110183" lon="9.43631"><ele>200.42857142857142</ele><time>2026-04-06T13:28:05.598Z</time></trkpt><trkpt lat="44.3110533" lon="9.4363933"><ele>201.0</ele><time>2026-04-06T13:28:06.599Z</time></trkpt><trkpt lat="44.31107" lon="9.4364917"><ele>201.0</ele><time>2026-04-06T13:28:07.599Z</time></trkpt><trkpt lat="44.3110667" lon="9.4365833"><ele>201.0</ele><time>2026-04-06T13:28:08.599Z</time></trkpt><trkpt lat="44.311065" lon="9.4367417"><ele>201.0</ele><time>2026-04-06T13:28:10.598Z</time></trkpt><trkpt lat="44.311115" lon="9.436895"><ele>201.0</ele><time>2026-04-06T13:28:12.597Z</time></trkpt><trkpt lat="44.3112133" lon="9.436965"><ele>201.0</ele><time>2026-04-06T13:28:14.598Z</time></trkpt><trkpt lat="44.3112783" lon="9.4369967"><ele>201.0</ele><time>2026-04-06T13:28:16.597Z</time></trkpt><trkpt lat="44.3113617" lon="9.4370283"><ele>201.0</ele><time>2026-04-06T13:28:19.599Z</time></trkpt><trkpt lat="44.3114767" lon="9.4370433"><ele>201.0</ele><time>2026-04-06T13:28:21.598Z</time></trkpt><trkpt lat="44.3115467" lon="9.4370467"><ele>201.0</ele><time>2026-04-06T13:28:22.598Z</time></trkpt><trkpt lat="44.3116217" lon="9.4370433"><ele>201.0</ele><time>2026-04-06T13:28:23.599Z</time></trkpt><trkpt lat="44.3117033" lon="9.4370333"><ele>201.0</ele><time>2026-04-06T13:28:24.599Z</time></trkpt><trkpt lat="44.311785" lon="9.4370183"><ele>201.14285714285714</ele><time>2026-04-06T13:28:25.599Z</time></trkpt><trkpt lat="44.3118667" lon="9.4370033"><ele>201.2857142857143</ele><time>2026-04-06T13:28:26.599Z</time></trkpt><trkpt lat="44.3119467" lon="9.4369933"><ele>201.42857142857144</ele><time>2026-04-06T13:28:27.598Z</time></trkpt><trkpt lat="44.3120183" lon="9.4370033"><ele>201.57142857142856</ele><time>2026-04-06T13:28:28.599Z</time></trkpt><trkpt lat="44.31208" lon="9.43703"><ele>201.71428571428572</ele><time>2026-04-06T13:28:29.6Z</time></trkpt><trkpt lat="44.3121333" lon="9.4370883"><ele>201.85714285714286</ele><time>2026-04-06T13:28:30.598Z</time></trkpt><trkpt lat="44.31218" lon="9.437155"><ele>202.0</ele><time>2026-04-06T13:28:31.599Z</time></trkpt><trkpt lat="44.3122867" lon="9.4372417"><ele>204.28571428571428</ele><time>2026-04-06T13:28:33.598Z</time></trkpt><trkpt lat="44.3123517" lon="9.437265"><ele>206.57142857142856</ele><time>2026-04-06T13:28:34.599Z</time></trkpt><trkpt lat="44.3124167" lon="9.43728"><ele>208.85714285714286</ele><time>2026-04-06T13:28:35.598Z</time></trkpt><trkpt lat="44.3124867" lon="9.4372883"><ele>211.14285714285714</ele><time>2026-04-06T13:28:36.599Z</time></trkpt><trkpt lat="44.31256" lon="9.4372917"><ele>213.42857142857144</ele><time>2026-04-06T13:28:37.599Z</time></trkpt><trkpt lat="44.3126367" lon="9.437285"><ele>215.71428571428572</ele><time>2026-04-06T13:28:38.599Z</time></trkpt><trkpt lat="44.3127167" lon="9.4372733"><ele>218.0</ele><time>2026-04-06T13:28:39.6Z</time></trkpt><trkpt lat="44.3127917" lon="9.437255"><ele>218.0</ele><time>2026-04-06T13:28:40.598Z</time></trkpt><trkpt lat="44.31286" lon="9.4372417"><ele>218.0</ele><time>2026-04-06T13:28:41.599Z</time></trkpt><trkpt lat="44.3129767" lon="9.43727"><ele>218.0</ele><time>2026-04-06T13:28:43.599Z</time></trkpt><trkpt lat="44.3130567" lon="9.4374133"><ele>218.0</ele><time>2026-04-06T13:28:45.598Z</time></trkpt><trkpt lat="44.31308" lon="9.4375167"><ele>218.0</ele><time>2026-04-06T13:28:46.598Z</time></trkpt><trkpt lat="44.3131033" lon="9.43762"><ele>221.16666666666669</ele><time>2026-04-06T13:28:47.599Z</time></trkpt><trkpt lat="44.3131233" lon="9.4377317"><ele>224.33333333333334</ele><time>2026-04-06T13:28:48.601Z</time></trkpt><trkpt lat="44.3131433" lon="9.4378383"><ele>227.5</ele><time>2026-04-06T13:28:49.599Z</time></trkpt><trkpt lat="44.3131667" lon="9.43795"><ele>230.66666666666669</ele><time>2026-04-06T13:28:50.599Z</time></trkpt><trkpt lat="44.3131933" lon="9.4380617"><ele>233.83333333333334</ele><time>2026-04-06T13:28:51.599Z</time></trkpt><trkpt lat="44.3132267" lon="9.4381667"><ele>237.0</ele><time>2026-04-06T13:28:52.599Z</time></trkpt><trkpt lat="44.3132633" lon="9.4382617"><ele>236.99999999999997</ele><time>2026-04-06T13:28:53.598Z</time></trkpt><trkpt lat="44.3133083" lon="9.4383417"><ele>237.0</ele><time>2026-04-06T13:28:54.598Z</time></trkpt><trkpt lat="44.313365" lon="9.438405"><ele>236.99999999999997</ele><time>2026-04-06T13:28:55.599Z</time></trkpt><trkpt lat="44.31343" lon="9.4384433"><ele>236.99999999999997</ele><time>2026-04-06T13:28:56.599Z</time></trkpt><trkpt lat="44.3134983" lon="9.4384667"><ele>237.0</ele><time>2026-04-06T13:28:57.599Z</time></trkpt><trkpt lat="44.313565" lon="9.4384717"><ele>236.99999999999997</ele><time>2026-04-06T13:28:58.598Z</time></trkpt><trkpt lat="44.3136333" lon="9.43845"><ele>236.99999999999997</ele><time>2026-04-06T13:28:59.599Z</time></trkpt><trkpt lat="44.31371" lon="9.43841"><ele>237.0</ele><time>2026-04-06T13:29:00.599Z</time></trkpt><trkpt lat="44.3137933" lon="9.4383817"><ele>237.0</ele><time>2026-04-06T13:29:01.599Z</time></trkpt><trkpt lat="44.3139033" lon="9.438345"><ele>237.0</ele><time>2026-04-06T13:29:02.599Z</time></trkpt><trkpt lat="44.3140283" lon="9.4383167"><ele>237.0</ele><time>2026-04-06T13:29:03.599Z</time></trkpt><trkpt lat="44.31414" lon="9.4383217"><ele>237.0</ele><time>2026-04-06T13:29:04.598Z</time></trkpt><trkpt lat="44.3142433" lon="9.4383567"><ele>239.66666666666666</ele><time>2026-04-06T13:29:05.598Z</time></trkpt><trkpt lat="44.31433" lon="9.4384217"><ele>242.33333333333331</ele><time>2026-04-06T13:29:06.599Z</time></trkpt><trkpt lat="44.31441" lon="9.438485"><ele>245.0</ele><time>2026-04-06T13:29:07.599Z</time></trkpt><trkpt lat="44.3144867" lon="9.4385283"><ele>247.66666666666666</ele><time>2026-04-06T13:29:08.599Z</time></trkpt><trkpt lat="44.31456" lon="9.438535"><ele>250.33333333333331</ele><time>2026-04-06T13:29:09.598Z</time></trkpt><trkpt lat="44.3146417" lon="9.438465"><ele>253.0</ele><time>2026-04-06T13:29:10.599Z</time></trkpt><trkpt lat="44.3147233" lon="9.4383533"><ele>254.60000000000002</ele><time>2026-04-06T13:29:11.599Z</time></trkpt><trkpt lat="44.3147967" lon="9.4382467"><ele>256.20000000000005</ele><time>2026-04-06T13:29:12.598Z</time></trkpt><trkpt lat="44.3148767" lon="9.438145"><ele>257.8</ele><time>2026-04-06T13:29:13.6Z</time></trkpt><trkpt lat="44.3149683" lon="9.4381033"><ele>259.40000000000003</ele><time>2026-04-06T13:29:14.598Z</time></trkpt><trkpt lat="44.3150733" lon="9.4381017"><ele>261.0</ele><time>2026-04-06T13:29:15.599Z</time></trkpt><trkpt lat="44.315185" lon="9.4380967"><ele>261.0</ele><time>2026-04-06T13:29:16.599Z</time></trkpt><trkpt lat="44.3153" lon="9.43806"><ele>261.0</ele><time>2026-04-06T13:29:17.599Z</time></trkpt><trkpt lat="44.3154033" lon="9.4380267"><ele>261.0</ele><time>2026-04-06T13:29:18.598Z</time></trkpt><trkpt lat="44.3154967" lon="9.4380083"><ele>261.0</ele><time>2026-04-06T13:29:19.599Z</time></trkpt><trkpt lat="44.3155817" lon="9.43802"><ele>261.0</ele><time>2026-04-06T13:29:20.599Z</time></trkpt><trkpt lat="44.3156633" lon="9.4380667"><ele>262.6</ele><time>2026-04-06T13:29:21.598Z</time></trkpt><trkpt lat="44.3157367" lon="9.4381483"><ele>264.20000000000005</ele><time>2026-04-06T13:29:22.599Z</time></trkpt><trkpt lat="44.3158167" lon="9.438215"><ele>265.79999999999995</ele><time>2026-04-06T13:29:23.599Z</time></trkpt><trkpt lat="44.315925" lon="9.4382383"><ele>267.4</ele><time>2026-04-06T13:29:24.599Z</time></trkpt><trkpt lat="44.3160483" lon="9.4382367"><ele>269.0</ele><time>2026-04-06T13:29:25.598Z</time></trkpt><trkpt lat="44.3161817" lon="9.4382217"><ele>269.0</ele><time>2026-04-06T13:29:26.598Z</time></trkpt><trkpt lat="44.3163033" lon="9.438195"><ele>269.0</ele><time>2026-04-06T13:29:27.599Z</time></trkpt><trkpt lat="44.31642" lon="9.4381467"><ele>269.0</ele><time>2026-04-06T13:29:28.599Z</time></trkpt><trkpt lat="44.3165317" lon="9.4380533"><ele>269.0</ele><time>2026-04-06T13:29:29.599Z</time></trkpt><trkpt lat="44.3166267" lon="9.4379417"><ele>270.6666666666667</ele><time>2026-04-06T13:29:30.599Z</time></trkpt><trkpt lat="44.31671" lon="9.4378483"><ele>272.33333333333337</ele><time>2026-04-06T13:29:31.599Z</time></trkpt><trkpt lat="44.31679" lon="9.4377867"><ele>274.0</ele><time>2026-04-06T13:29:32.598Z</time></trkpt><trkpt lat="44.3168617" lon="9.4377667"><ele>275.6666666666667</ele><time>2026-04-06T13:29:33.599Z</time></trkpt><trkpt lat="44.316915" lon="9.4378317"><ele>277.3333333333333</ele><time>2026-04-06T13:29:34.598Z</time></trkpt><trkpt lat="44.31697" lon="9.43791"><ele>279.0</ele><time>2026-04-06T13:29:35.598Z</time></trkpt><trkpt lat="44.3170283" lon="9.4380283"><ele>279.0</ele><time>2026-04-06T13:29:36.599Z</time></trkpt><trkpt lat="44.3171017" lon="9.4381317"><ele>279.0</ele><time>2026-04-06T13:29:37.599Z</time></trkpt><trkpt lat="44.31718" lon="9.4382233"><ele>279.0</ele><time>2026-04-06T13:29:38.599Z</time></trkpt><trkpt lat="44.3172717" lon="9.4382883"><ele>279.0</ele><time>2026-04-06T13:29:39.599Z</time></trkpt><trkpt lat="44.3173733" lon="9.43833"><ele>279.0</ele><time>2026-04-06T13:29:40.599Z</time></trkpt><trkpt lat="44.3174817" lon="9.438335"><ele>282.2</ele><time>2026-04-06T13:29:41.598Z</time></trkpt><trkpt lat="44.3175817" lon="9.4382967"><ele>285.4</ele><time>2026-04-06T13:29:42.598Z</time></trkpt><trkpt lat="44.3176683" lon="9.4382583"><ele>288.6</ele><time>2026-04-06T13:29:43.6Z</time></trkpt><trkpt lat="44.317755" lon="9.4382433"><ele>291.8</ele><time>2026-04-06T13:29:44.598Z</time></trkpt><trkpt lat="44.3178317" lon="9.438295"><ele>295.0</ele><time>2026-04-06T13:29:45.599Z</time></trkpt><trkpt lat="44.3179133" lon="9.438375"><ele>295.0</ele><time>2026-04-06T13:29:46.599Z</time></trkpt><trkpt lat="44.318015" lon="9.4384433"><ele>295.0</ele><time>2026-04-06T13:29:47.599Z</time></trkpt><trkpt lat="44.31813" lon="9.4384967"><ele>295.0</ele><time>2026-04-06T13:29:48.599Z</time></trkpt><trkpt lat="44.31824" lon="9.4385333"><ele>295.0</ele><time>2026-04-06T13:29:49.6Z</time></trkpt><trkpt lat="44.31835" lon="9.4385417"><ele>300.25</ele><time>2026-04-06T13:29:50.6Z</time></trkpt><trkpt lat="44.3184667" lon="9.4385367"><ele>305.5</ele><time>2026-04-06T13:29:51.598Z</time></trkpt><trkpt lat="44.3185867" lon="9.4385"><ele>310.75</ele><time>2026-04-06T13:29:52.598Z</time></trkpt><trkpt lat="44.3187017" lon="9.4384383"><ele>316.0</ele><time>2026-04-06T13:29:53.598Z</time></trkpt><trkpt lat="44.3188017" lon="9.4383317"><ele>316.0</ele><time>2026-04-06T13:29:54.598Z</time></trkpt><trkpt lat="44.31888" lon="9.4382183"><ele>316.0</ele><time>2026-04-06T13:29:55.599Z</time></trkpt><trkpt lat="44.318955" lon="9.4381283"><ele>316.0</ele><time>2026-04-06T13:29:56.599Z</time></trkpt><trkpt lat="44.31903" lon="9.4380683"><ele>316.0</ele><time>2026-04-06T13:29:57.599Z</time></trkpt><trkpt lat="44.3191067" lon="9.4380333"><ele>316.0</ele><time>2026-04-06T13:29:58.598Z</time></trkpt><trkpt lat="44.319175" lon="9.4380483"><ele>316.0</ele><time>2026-04-06T13:29:59.598Z</time></trkpt><trkpt lat="44.3192233" lon="9.4381233"><ele>317.20000000000005</ele><time>2026-04-06T13:30:00.598Z</time></trkpt><trkpt lat="44.3192633" lon="9.4382383"><ele>318.40000000000003</ele><time>2026-04-06T13:30:01.598Z</time></trkpt><trkpt lat="44.3192983" lon="9.43838"><ele>319.6</ele><time>2026-04-06T13:30:02.598Z</time></trkpt><trkpt lat="44.3193467" lon="9.4385133"><ele>320.8</ele><time>2026-04-06T13:30:03.599Z</time></trkpt><trkpt lat="44.319425" lon="9.438645"><ele>322.0</ele><time>2026-04-06T13:30:04.598Z</time></trkpt><trkpt lat="44.3195133" lon="9.4387617"><ele>319.5</ele><time>2026-04-06T13:30:05.599Z</time></trkpt><trkpt lat="44.3196" lon="9.4388367"><ele>317.0</ele><time>2026-04-06T13:30:06.599Z</time></trkpt><trkpt lat="44.319685" lon="9.4388633"><ele>314.5</ele><time>2026-04-06T13:30:07.599Z</time></trkpt><trkpt lat="44.3197617" lon="9.4388733"><ele>312.0</ele><time>2026-04-06T13:30:08.599Z</time></trkpt><trkpt lat="44.3198317" lon="9.4388967"><ele>309.5</ele><time>2026-04-06T13:30:09.598Z</time></trkpt><trkpt lat="44.3198867" lon="9.4389483"><ele>307.0</ele><time>2026-04-06T13:30:10.599Z</time></trkpt><trkpt lat="44.31989" lon="9.4390567"><ele>307.0</ele><time>2026-04-06T13:30:11.599Z</time></trkpt><trkpt lat="44.3198733" lon="9.4391717"><ele>307.0</ele><time>2026-04-06T13:30:12.598Z</time></trkpt><trkpt lat="44.3198183" lon="9.4392867"><ele>307.0</ele><time>2026-04-06T13:30:13.599Z</time></trkpt><trkpt lat="44.31976" lon="9.4393883"><ele>307.0</ele><time>2026-04-06T13:30:14.598Z</time></trkpt><trkpt lat="44.3197033" lon="9.43948"><ele>307.0</ele><time>2026-04-06T13:30:15.598Z</time></trkpt><trkpt lat="44.31967" lon="9.4395783"><ele>307.0</ele><time>2026-04-06T13:30:16.599Z</time></trkpt><trkpt lat="44.319665" lon="9.43968"><ele>306.0</ele><time>2026-04-06T13:30:17.599Z</time></trkpt><trkpt lat="44.3197283" lon="9.4397783"><ele>305.0</ele><time>2026-04-06T13:30:18.599Z</time></trkpt><trkpt lat="44.3198217" lon="9.4398583"><ele>304.0</ele><time>2026-04-06T13:30:19.599Z</time></trkpt><trkpt lat="44.31995" lon="9.4398933"><ele>303.0</ele><time>2026-04-06T13:30:20.599Z</time></trkpt><trkpt lat="44.32009" lon="9.439915"><ele>310.5</ele><time>2026-04-06T13:30:21.599Z</time></trkpt><trkpt lat="44.3202367" lon="9.4399467"><ele>318.0</ele><time>2026-04-06T13:30:22.599Z</time></trkpt><trkpt lat="44.3203783" lon="9.4399967"><ele>325.5</ele><time>2026-04-06T13:30:23.598Z</time></trkpt><trkpt lat="44.320525" lon="9.4400583"><ele>333.0</ele><time>2026-04-06T13:30:24.599Z</time></trkpt><trkpt lat="44.320675" lon="9.4401217"><ele>339.25</ele><time>2026-04-06T13:30:25.599Z</time></trkpt><trkpt lat="44.3208133" lon="9.4401783"><ele>345.5</ele><time>2026-04-06T13:30:26.599Z</time></trkpt><trkpt lat="44.3209317" lon="9.4402283"><ele>351.75</ele><time>2026-04-06T13:30:27.599Z</time></trkpt><trkpt lat="44.3210217" lon="9.4402917"><ele>358.0</ele><time>2026-04-06T13:30:28.598Z</time></trkpt><trkpt lat="44.32109" lon="9.4403783"><ele>354.66666666666663</ele><time>2026-04-06T13:30:29.599Z</time></trkpt><trkpt lat="44.321135" lon="9.4404717"><ele>351.3333333333333</ele><time>2026-04-06T13:30:30.598Z</time></trkpt><trkpt lat="44.32116" lon="9.4405767"><ele>348.0</ele><time>2026-04-06T13:30:31.599Z</time></trkpt><trkpt lat="44.32119" lon="9.440685"><ele>344.6666666666667</ele><time>2026-04-06T13:30:32.599Z</time></trkpt><trkpt lat="44.3212417" lon="9.4407733"><ele>341.33333333333337</ele><time>2026-04-06T13:30:33.599Z</time></trkpt><trkpt lat="44.3213117" lon="9.4408517"><ele>338.0</ele><time>2026-04-06T13:30:34.599Z</time></trkpt><trkpt lat="44.32138" lon="9.4409367"><ele>342.59999999999997</ele><time>2026-04-06T13:30:35.599Z</time></trkpt><trkpt lat="44.3214267" lon="9.441055"><ele>347.2</ele><time>2026-04-06T13:30:36.599Z</time></trkpt><trkpt lat="44.3214417" lon="9.4411933"><ele>351.8</ele><time>2026-04-06T13:30:37.599Z</time></trkpt><trkpt lat="44.3214383" lon="9.441345"><ele>356.4</ele><time>2026-04-06T13:30:38.598Z</time></trkpt><trkpt lat="44.3214383" lon="9.4414933"><ele>361.0</ele><time>2026-04-06T13:30:39.599Z</time></trkpt><trkpt lat="44.3214617" lon="9.4416267"><ele>361.0</ele><time>2026-04-06T13:30:40.598Z</time></trkpt><trkpt lat="44.3215167" lon="9.44173"><ele>361.0</ele><time>2026-04-06T13:30:41.599Z</time></trkpt><trkpt lat="44.3216017" lon="9.4417933"><ele>361.0</ele><time>2026-04-06T13:30:42.599Z</time></trkpt><trkpt lat="44.32171" lon="9.4418117"><ele>361.0</ele><time>2026-04-06T13:30:43.599Z</time></trkpt><trkpt lat="44.3218433" lon="9.4418133"><ele>361.0</ele><time>2026-04-06T13:30:44.599Z</time></trkpt><trkpt lat="44.32198" lon="9.441815"><ele>361.0</ele><time>2026-04-06T13:30:45.599Z</time></trkpt><trkpt lat="44.3221017" lon="9.4418283"><ele>361.0</ele><time>2026-04-06T13:30:46.599Z</time></trkpt><trkpt lat="44.3222" lon="9.44187"><ele>361.0</ele><time>2026-04-06T13:30:47.598Z</time></trkpt><trkpt lat="44.32228" lon="9.4419483"><ele>361.0</ele><time>2026-04-06T13:30:48.599Z</time></trkpt><trkpt lat="44.32233" lon="9.4420567"><ele>361.0</ele><time>2026-04-06T13:30:49.598Z</time></trkpt><trkpt lat="44.3223467" lon="9.4421717"><ele>361.8</ele><time>2026-04-06T13:30:50.599Z</time></trkpt><trkpt lat="44.32229" lon="9.4422617"><ele>362.6</ele><time>2026-04-06T13:30:51.598Z</time></trkpt><trkpt lat="44.3222117" lon="9.4423417"><ele>363.4</ele><time>2026-04-06T13:30:52.599Z</time></trkpt><trkpt lat="44.32211" lon="9.44242"><ele>364.2</ele><time>2026-04-06T13:30:53.598Z</time></trkpt><trkpt lat="44.3220133" lon="9.44249"><ele>365.0</ele><time>2026-04-06T13:30:54.598Z</time></trkpt><trkpt lat="44.3219167" lon="9.4425417"><ele>365.0</ele><time>2026-04-06T13:30:55.599Z</time></trkpt><trkpt lat="44.32182" lon="9.44257"><ele>365.0</ele><time>2026-04-06T13:30:56.599Z</time></trkpt><trkpt lat="44.32173" lon="9.44257"><ele>365.0</ele><time>2026-04-06T13:30:57.599Z</time></trkpt><trkpt lat="44.3216533" lon="9.4425683"><ele>365.0</ele><time>2026-04-06T13:30:58.599Z</time></trkpt><trkpt lat="44.3215867" lon="9.4425917"><ele>365.0</ele><time>2026-04-06T13:30:59.599Z</time></trkpt><trkpt lat="44.3215317" lon="9.44272"><ele>365.0</ele><time>2026-04-06T13:31:01.6Z</time></trkpt><trkpt lat="44.3215733" lon="9.4427917"><ele>365.0</ele><time>2026-04-06T13:31:02.599Z</time></trkpt><trkpt lat="44.32164" lon="9.442865"><ele>365.0</ele><time>2026-04-06T13:31:03.599Z</time></trkpt><trkpt lat="44.3217217" lon="9.442955"><ele>365.0</ele><time>2026-04-06T13:31:04.599Z</time></trkpt><trkpt lat="44.321805" lon="9.4430533"><ele>365.0</ele><time>2026-04-06T13:31:05.599Z</time></trkpt><trkpt lat="44.3218883" lon="9.4431283"><ele>365.0</ele><time>2026-04-06T13:31:06.599Z</time></trkpt><trkpt lat="44.3219633" lon="9.4431717"><ele>364.8</ele><time>2026-04-06T13:31:07.599Z</time></trkpt><trkpt lat="44.3220433" lon="9.44316"><ele>364.6</ele><time>2026-04-06T13:31:08.599Z</time></trkpt><trkpt lat="44.322125" lon="9.4430833"><ele>364.4</ele><time>2026-04-06T13:31:09.599Z</time></trkpt><trkpt lat="44.322215" lon="9.4429833"><ele>364.2</ele><time>2026-04-06T13:31:10.599Z</time></trkpt><trkpt lat="44.32232" lon="9.4428733"><ele>364.0</ele><time>2026-04-06T13:31:11.597Z</time></trkpt><trkpt lat="44.3224417" lon="9.4427683"><ele>371.0</ele><time>2026-04-06T13:31:12.598Z</time></trkpt><trkpt lat="44.322575" lon="9.44268"><ele>378.0</ele><time>2026-04-06T13:31:13.6Z</time></trkpt><trkpt lat="44.3227267" lon="9.44261"><ele>385.0</ele><time>2026-04-06T13:31:14.599Z</time></trkpt><trkpt lat="44.3228967" lon="9.4425483"><ele>390.33333333333337</ele><time>2026-04-06T13:31:15.598Z</time></trkpt><trkpt lat="44.3230733" lon="9.4424867"><ele>395.66666666666663</ele><time>2026-04-06T13:31:16.6Z</time></trkpt><trkpt lat="44.323245" lon="9.44243"><ele>401.0</ele><time>2026-04-06T13:31:17.599Z</time></trkpt><trkpt lat="44.3234067" lon="9.44238"><ele>401.0</ele><time>2026-04-06T13:31:18.598Z</time></trkpt><trkpt lat="44.32355" lon="9.4423317"><ele>401.0</ele><time>2026-04-06T13:31:19.599Z</time></trkpt><trkpt lat="44.3236733" lon="9.442285"><ele>401.0</ele><time>2026-04-06T13:31:20.599Z</time></trkpt><trkpt lat="44.3237917" lon="9.4422383"><ele>401.0</ele><time>2026-04-06T13:31:21.599Z</time></trkpt><trkpt lat="44.3238917" lon="9.442225"><ele>402.99999999999994</ele><time>2026-04-06T13:31:22.6Z</time></trkpt><trkpt lat="44.32399" lon="9.4422267"><ele>405.0</ele><time>2026-04-06T13:31:23.598Z</time></trkpt><trkpt lat="44.32408" lon="9.4422267"><ele>407.0</ele><time>2026-04-06T13:31:24.598Z</time></trkpt><trkpt lat="44.32416" lon="9.4422233"><ele>409.0</ele><time>2026-04-06T13:31:25.599Z</time></trkpt><trkpt lat="44.3242333" lon="9.4422183"><ele>410.99999999999994</ele><time>2026-04-06T13:31:26.6Z</time></trkpt><trkpt lat="44.3243083" lon="9.4422167"><ele>413.0</ele><time>2026-04-06T13:31:27.598Z</time></trkpt><trkpt lat="44.32439" lon="9.44223"><ele>413.0</ele><time>2026-04-06T13:31:28.599Z</time></trkpt><trkpt lat="44.3244733" lon="9.44226"><ele>413.0</ele><time>2026-04-06T13:31:29.6Z</time></trkpt><trkpt lat="44.3245533" lon="9.4422967"><ele>413.0</ele><time>2026-04-06T13:31:30.598Z</time></trkpt><trkpt lat="44.32463" lon="9.44232"><ele>413.0</ele><time>2026-04-06T13:31:31.599Z</time></trkpt><trkpt lat="44.3246967" lon="9.4423133"><ele>413.0</ele><time>2026-04-06T13:31:32.599Z</time></trkpt><trkpt lat="44.3247996" lon="9.442173"><ele>412.0</ele><time>2026-04-06T13:31:34.599Z</time></trkpt><trkpt lat="44.3248497" lon="9.4420476"><ele>411.0</ele><time>2026-04-06T13:31:35.598Z</time></trkpt><trkpt lat="44.3249173" lon="9.4419287"><ele>410.0</ele><time>2026-04-06T13:31:36.6Z</time></trkpt><trkpt lat="44.3249983" lon="9.4418349"><ele>409.0</ele><time>2026-04-06T13:31:37.599Z</time></trkpt><trkpt lat="44.325088" lon="9.4417747"><ele>408.0</ele><time>2026-04-06T13:31:38.6Z</time></trkpt><trkpt lat="44.3251867" lon="9.4417446"><ele>408.0</ele><time>2026-04-06T13:31:39.598Z</time></trkpt><trkpt lat="44.3252948" lon="9.4417275"><ele>408.0</ele><time>2026-04-06T13:31:40.598Z</time></trkpt><trkpt lat="44.3253996" lon="9.4417216"><ele>408.0</ele><time>2026-04-06T13:31:41.6Z</time></trkpt><trkpt lat="44.3254905" lon="9.4417325"><ele>408.0</ele><time>2026-04-06T13:31:42.599Z</time></trkpt><trkpt lat="44.3255708" lon="9.4417652"><ele>408.0</ele><time>2026-04-06T13:31:43.599Z</time></trkpt><trkpt lat="44.3256431" lon="9.4418451"><ele>405.4</ele><time>2026-04-06T13:31:44.601Z</time></trkpt><trkpt lat="44.3257056" lon="9.441963"><ele>402.79999999999995</ele><time>2026-04-06T13:31:45.599Z</time></trkpt><trkpt lat="44.325764" lon="9.442093"><ele>400.2</ele><time>2026-04-06T13:31:46.599Z</time></trkpt><trkpt lat="44.3258298" lon="9.4422165"><ele>397.6</ele><time>2026-04-06T13:31:47.598Z</time></trkpt><trkpt lat="44.3259124" lon="9.4423069"><ele>395.0</ele><time>2026-04-06T13:31:48.599Z</time></trkpt><trkpt lat="44.3260033" lon="9.4423517"><ele>395.0</ele><time>2026-04-06T13:31:49.598Z</time></trkpt><trkpt lat="44.3260855" lon="9.4423489"><ele>395.0</ele><time>2026-04-06T13:31:50.599Z</time></trkpt><trkpt lat="44.3261539" lon="9.4422989"><ele>395.0</ele><time>2026-04-06T13:31:51.598Z</time></trkpt><trkpt lat="44.3262108" lon="9.4422093"><ele>395.0</ele><time>2026-04-06T13:31:52.599Z</time></trkpt><trkpt lat="44.3262471" lon="9.4420594"><ele>395.0</ele><time>2026-04-06T13:31:53.599Z</time></trkpt><trkpt lat="44.3262602" lon="9.4418604"><ele>395.0</ele><time>2026-04-06T13:31:54.598Z</time></trkpt><trkpt lat="44.3262627" lon="9.4416465"><ele>395.0</ele><time>2026-04-06T13:31:55.6Z</time></trkpt><trkpt lat="44.3262586" lon="9.441449"><ele>395.0</ele><time>2026-04-06T13:31:56.599Z</time></trkpt><trkpt lat="44.32626" lon="9.4412856"><ele>395.0</ele><time>2026-04-06T13:31:57.599Z</time></trkpt><trkpt lat="44.3262733" lon="9.4411538"><ele>394.8333333333333</ele><time>2026-04-06T13:31:58.601Z</time></trkpt><trkpt lat="44.3263054" lon="9.4410458"><ele>394.66666666666663</ele><time>2026-04-06T13:31:59.598Z</time></trkpt><trkpt lat="44.3263631" lon="9.4409822"><ele>394.5</ele><time>2026-04-06T13:32:00.599Z</time></trkpt><trkpt lat="44.3264383" lon="9.4409767"><ele>394.33333333333337</ele><time>2026-04-06T13:32:01.601Z</time></trkpt><trkpt lat="44.3265267" lon="9.4410147"><ele>394.1666666666667</ele><time>2026-04-06T13:32:02.599Z</time></trkpt><trkpt lat="44.3266207" lon="9.4410879"><ele>394.0</ele><time>2026-04-06T13:32:03.598Z</time></trkpt><trkpt lat="44.3267197" lon="9.4411683"><ele>390.75</ele><time>2026-04-06T13:32:04.599Z</time></trkpt><trkpt lat="44.3268228" lon="9.4412281"><ele>387.5</ele><time>2026-04-06T13:32:05.599Z</time></trkpt><trkpt lat="44.3269312" lon="9.441254"><ele>384.25</ele><time>2026-04-06T13:32:06.599Z</time></trkpt><trkpt lat="44.327043" lon="9.4412373"><ele>381.0</ele><time>2026-04-06T13:32:07.599Z</time></trkpt><trkpt lat="44.3271532" lon="9.4411814"><ele>376.6</ele><time>2026-04-06T13:32:08.599Z</time></trkpt><trkpt lat="44.3272488" lon="9.4411026"><ele>372.20000000000005</ele><time>2026-04-06T13:32:09.598Z</time></trkpt><trkpt lat="44.3273303" lon="9.4410315"><ele>367.79999999999995</ele><time>2026-04-06T13:32:10.599Z</time></trkpt><trkpt lat="44.3274087" lon="9.4409902"><ele>363.4</ele><time>2026-04-06T13:32:11.599Z</time></trkpt><trkpt lat="44.3274935" lon="9.4409877"><ele>359.0</ele><time>2026-04-06T13:32:12.599Z</time></trkpt><trkpt lat="44.3275803" lon="9.441019"><ele>359.0</ele><time>2026-04-06T13:32:13.599Z</time></trkpt><trkpt lat="44.3276589" lon="9.4410672"><ele>359.0</ele><time>2026-04-06T13:32:14.599Z</time></trkpt><trkpt lat="44.3277197" lon="9.4411145"><ele>359.0</ele><time>2026-04-06T13:32:15.599Z</time></trkpt><trkpt lat="44.3277693" lon="9.4412502"><ele>359.0</ele><time>2026-04-06T13:32:17.598Z</time></trkpt><trkpt lat="44.3277329" lon="9.4413432"><ele>359.0</ele><time>2026-04-06T13:32:18.598Z</time></trkpt><trkpt lat="44.3276692" lon="9.4414487"><ele>359.0</ele><time>2026-04-06T13:32:19.598Z</time></trkpt><trkpt lat="44.3275945" lon="9.4415593"><ele>357.4</ele><time>2026-04-06T13:32:20.599Z</time></trkpt><trkpt lat="44.3275117" lon="9.441655"><ele>355.79999999999995</ele><time>2026-04-06T13:32:21.599Z</time></trkpt><trkpt lat="44.3274283" lon="9.4417283"><ele>354.20000000000005</ele><time>2026-04-06T13:32:22.599Z</time></trkpt><trkpt lat="44.3273417" lon="9.4417867"><ele>352.6</ele><time>2026-04-06T13:32:23.597Z</time></trkpt><trkpt lat="44.3272667" lon="9.4418367"><ele>351.0</ele><time>2026-04-06T13:32:24.599Z</time></trkpt><trkpt lat="44.3272117" lon="9.441895"><ele>351.0</ele><time>2026-04-06T13:32:25.599Z</time></trkpt><trkpt lat="44.3271883" lon="9.442015"><ele>351.0</ele><time>2026-04-06T13:32:27.599Z</time></trkpt><trkpt lat="44.32726" lon="9.4420167"><ele>351.0</ele><time>2026-04-06T13:32:29.599Z</time></trkpt><trkpt lat="44.327365" lon="9.4419417"><ele>351.0</ele><time>2026-04-06T13:32:31.599Z</time></trkpt><trkpt lat="44.3274317" lon="9.4418883"><ele>351.0</ele><time>2026-04-06T13:32:32.6Z</time></trkpt><trkpt lat="44.3274983" lon="9.4418367"><ele>351.0</ele><time>2026-04-06T13:32:33.6Z</time></trkpt><trkpt lat="44.32756" lon="9.441785"><ele>351.00000000000006</ele><time>2026-04-06T13:32:34.599Z</time></trkpt><trkpt lat="44.3276167" lon="9.4417267"><ele>351.0</ele><time>2026-04-06T13:32:35.6Z</time></trkpt><trkpt lat="44.3276767" lon="9.441665"><ele>351.0</ele><time>2026-04-06T13:32:36.6Z</time></trkpt><trkpt lat="44.3277333" lon="9.4416033"><ele>351.0</ele><time>2026-04-06T13:32:37.599Z</time></trkpt><trkpt lat="44.327795" lon="9.44155"><ele>351.0</ele><time>2026-04-06T13:32:38.599Z</time></trkpt><trkpt lat="44.3278583" lon="9.4415017"><ele>351.00000000000006</ele><time>2026-04-06T13:32:39.599Z</time></trkpt><trkpt lat="44.32793" lon="9.4414567"><ele>351.0</ele><time>2026-04-06T13:32:40.598Z</time></trkpt><trkpt lat="44.3280083" lon="9.4414067"><ele>349.8</ele><time>2026-04-06T13:32:41.6Z</time></trkpt><trkpt lat="44.3280883" lon="9.441345"><ele>348.6</ele><time>2026-04-06T13:32:42.598Z</time></trkpt><trkpt lat="44.32817" lon="9.441285"><ele>347.4</ele><time>2026-04-06T13:32:43.599Z</time></trkpt><trkpt lat="44.3282517" lon="9.4412167"><ele>346.2</ele><time>2026-04-06T13:32:44.599Z</time></trkpt><trkpt lat="44.32834" lon="9.4411483"><ele>345.0</ele><time>2026-04-06T13:32:45.599Z</time></trkpt><trkpt lat="44.3284333" lon="9.4410817"><ele>344.5</ele><time>2026-04-06T13:32:46.601Z</time></trkpt><trkpt lat="44.3285283" lon="9.441025"><ele>344.0</ele><time>2026-04-06T13:32:47.599Z</time></trkpt><trkpt lat="44.3286333" lon="9.440965"><ele>343.5</ele><time>2026-04-06T13:32:48.599Z</time></trkpt><trkpt lat="44.328735" lon="9.4408833"><ele>343.0</ele><time>2026-04-06T13:32:49.604Z</time></trkpt><trkpt lat="44.3288367" lon="9.4407983"><ele>340.16666666666663</ele><time>2026-04-06T13:32:50.599Z</time></trkpt><trkpt lat="44.3289267" lon="9.4407117"><ele>337.3333333333333</ele><time>2026-04-06T13:32:51.598Z</time></trkpt><trkpt lat="44.3290017" lon="9.440635"><ele>334.5</ele><time>2026-04-06T13:32:52.598Z</time></trkpt><trkpt lat="44.3290583" lon="9.4405583"><ele>331.6666666666667</ele><time>2026-04-06T13:32:53.599Z</time></trkpt><trkpt lat="44.3290917" lon="9.4404683"><ele>328.83333333333337</ele><time>2026-04-06T13:32:54.599Z</time></trkpt><trkpt lat="44.3290883" lon="9.4403683"><ele>326.0</ele><time>2026-04-06T13:32:55.599Z</time></trkpt><trkpt lat="44.329055" lon="9.440275"><ele>324.40000000000003</ele><time>2026-04-06T13:32:56.599Z</time></trkpt><trkpt lat="44.32899" lon="9.44019"><ele>322.8</ele><time>2026-04-06T13:32:57.599Z</time></trkpt><trkpt lat="44.32891" lon="9.44011"><ele>321.20000000000005</ele><time>2026-04-06T13:32:58.599Z</time></trkpt><trkpt lat="44.3288217" lon="9.44002"><ele>319.6</ele><time>2026-04-06T13:32:59.599Z</time></trkpt><trkpt lat="44.3287383" lon="9.4399283"><ele>318.0</ele><time>2026-04-06T13:33:00.599Z</time></trkpt><trkpt lat="44.328665" lon="9.439835"><ele>322.0</ele><time>2026-04-06T13:33:01.598Z</time></trkpt><trkpt lat="44.3286117" lon="9.43975"><ele>326.0</ele><time>2026-04-06T13:33:02.6Z</time></trkpt><trkpt lat="44.3285717" lon="9.439665"><ele>330.0</ele><time>2026-04-06T13:33:03.599Z</time></trkpt><trkpt lat="44.3285483" lon="9.43957"><ele>334.0</ele><time>2026-04-06T13:33:04.599Z</time></trkpt><trkpt lat="44.3286483" lon="9.439435"><ele>338.0</ele><time>2026-04-06T13:33:06.6Z</time></trkpt><trkpt lat="44.3287217" lon="9.4393517"><ele>338.0</ele><time>2026-04-06T13:33:07.6Z</time></trkpt><trkpt lat="44.32883" lon="9.4392533"><ele>338.0</ele><time>2026-04-06T13:33:08.6Z</time></trkpt><trkpt lat="44.3289283" lon="9.4391467"><ele>338.0</ele><time>2026-04-06T13:33:09.599Z</time></trkpt><trkpt lat="44.3290183" lon="9.4390367"><ele>338.0</ele><time>2026-04-06T13:33:10.6Z</time></trkpt><trkpt lat="44.32909" lon="9.43892"><ele>331.79999999999995</ele><time>2026-04-06T13:33:11.598Z</time></trkpt><trkpt lat="44.3291433" lon="9.4387933"><ele>325.59999999999997</ele><time>2026-04-06T13:33:12.599Z</time></trkpt><trkpt lat="44.32917" lon="9.43866"><ele>319.4</ele><time>2026-04-06T13:33:13.599Z</time></trkpt><trkpt lat="44.32917" lon="9.4385267"><ele>313.2</ele><time>2026-04-06T13:33:14.598Z</time></trkpt><trkpt lat="44.3291433" lon="9.4384017"><ele>307.0</ele><time>2026-04-06T13:33:15.599Z</time></trkpt><trkpt lat="44.3291067" lon="9.438305"><ele>306.99999999999994</ele><time>2026-04-06T13:33:16.599Z</time></trkpt><trkpt lat="44.3290567" lon="9.4382383"><ele>307.0</ele><time>2026-04-06T13:33:17.599Z</time></trkpt><trkpt lat="44.3289883" lon="9.4382"><ele>307.0</ele><time>2026-04-06T13:33:18.599Z</time></trkpt><trkpt lat="44.3289217" lon="9.4381817"><ele>307.0</ele><time>2026-04-06T13:33:19.599Z</time></trkpt><trkpt lat="44.328855" lon="9.4381717"><ele>307.0</ele><time>2026-04-06T13:33:20.599Z</time></trkpt><trkpt lat="44.3287867" lon="9.4381683"><ele>306.99999999999994</ele><time>2026-04-06T13:33:21.598Z</time></trkpt><trkpt lat="44.3287183" lon="9.4381567"><ele>307.0</ele><time>2026-04-06T13:33:22.599Z</time></trkpt><trkpt lat="44.328655" lon="9.4381417"><ele>311.6</ele><time>2026-04-06T13:33:23.598Z</time></trkpt><trkpt lat="44.3285567" lon="9.438085"><ele>316.2</ele><time>2026-04-06T13:33:25.599Z</time></trkpt><trkpt lat="44.3285117" lon="9.4379717"><ele>320.8</ele><time>2026-04-06T13:33:27.599Z</time></trkpt><trkpt lat="44.3285333" lon="9.43784"><ele>325.4</ele><time>2026-04-06T13:33:29.599Z</time></trkpt><trkpt lat="44.328615" lon="9.4377017"><ele>330.0</ele><time>2026-04-06T13:33:31.599Z</time></trkpt><trkpt lat="44.328665" lon="9.4376267"><ele>330.0</ele><time>2026-04-06T13:33:32.599Z</time></trkpt><trkpt lat="44.3287267" lon="9.437555"><ele>330.0</ele><time>2026-04-06T13:33:33.599Z</time></trkpt><trkpt lat="44.328795" lon="9.43749"><ele>330.0</ele><time>2026-04-06T13:33:34.599Z</time></trkpt><trkpt lat="44.32886" lon="9.437435"><ele>330.0</ele><time>2026-04-06T13:33:35.6Z</time></trkpt><trkpt lat="44.32893" lon="9.4373933"><ele>330.0</ele><time>2026-04-06T13:33:36.599Z</time></trkpt><trkpt lat="44.3290033" lon="9.4373533"><ele>330.0</ele><time>2026-04-06T13:33:37.599Z</time></trkpt><trkpt lat="44.3290733" lon="9.4372983"><ele>325.0</ele><time>2026-04-06T13:33:38.598Z</time></trkpt><trkpt lat="44.3291333" lon="9.437225"><ele>320.0</ele><time>2026-04-06T13:33:39.599Z</time></trkpt><trkpt lat="44.3291667" lon="9.4371317"><ele>315.0</ele><time>2026-04-06T13:33:40.6Z</time></trkpt><trkpt lat="44.329175" lon="9.43702"><ele>310.0</ele><time>2026-04-06T13:33:41.598Z</time></trkpt><trkpt lat="44.3291867" lon="9.4369033"><ele>305.0</ele><time>2026-04-06T13:33:42.598Z</time></trkpt><trkpt lat="44.3292067" lon="9.436785"><ele>300.0</ele><time>2026-04-06T13:33:43.601Z</time></trkpt><trkpt lat="44.3292333" lon="9.4366733"><ele>299.6666666666667</ele><time>2026-04-06T13:33:44.6Z</time></trkpt><trkpt lat="44.3292667" lon="9.4365717"><ele>299.3333333333333</ele><time>2026-04-06T13:33:45.599Z</time></trkpt><trkpt lat="44.3292883" lon="9.43648"><ele>299.0</ele><time>2026-04-06T13:33:46.599Z</time></trkpt><trkpt lat="44.329225" lon="9.436355"><ele>298.66666666666663</ele><time>2026-04-06T13:33:48.6Z</time></trkpt><trkpt lat="44.3291417" lon="9.4363317"><ele>298.3333333333333</ele><time>2026-04-06T13:33:49.599Z</time></trkpt><trkpt lat="44.3290483" lon="9.4362983"><ele>298.0</ele><time>2026-04-06T13:33:50.599Z</time></trkpt><trkpt lat="44.3289583" lon="9.4362567"><ele>299.57142857142856</ele><time>2026-04-06T13:33:51.6Z</time></trkpt><trkpt lat="44.328875" lon="9.436205"><ele>301.1428571428571</ele><time>2026-04-06T13:33:52.601Z</time></trkpt><trkpt lat="44.328795" lon="9.4361583"><ele>302.7142857142857</ele><time>2026-04-06T13:33:53.601Z</time></trkpt><trkpt lat="44.3287367" lon="9.436105"><ele>304.2857142857143</ele><time>2026-04-06T13:33:54.601Z</time></trkpt><trkpt lat="44.3286933" lon="9.43604"><ele>305.8571428571429</ele><time>2026-04-06T13:33:55.602Z</time></trkpt><trkpt lat="44.3286817" lon="9.4359517"><ele>307.42857142857144</ele><time>2026-04-06T13:33:56.601Z</time></trkpt><trkpt lat="44.3286883" lon="9.4358617"><ele>309.0</ele><time>2026-04-06T13:33:57.602Z</time></trkpt><trkpt lat="44.3287283" lon="9.435775"><ele>309.0</ele><time>2026-04-06T13:33:58.601Z</time></trkpt><trkpt lat="44.328795" lon="9.4356983"><ele>309.0</ele><time>2026-04-06T13:33:59.601Z</time></trkpt><trkpt lat="44.3288783" lon="9.43563"><ele>309.0</ele><time>2026-04-06T13:34:00.601Z</time></trkpt><trkpt lat="44.3289683" lon="9.4355617"><ele>309.0</ele><time>2026-04-06T13:34:01.601Z</time></trkpt><trkpt lat="44.3290583" lon="9.4354733"><ele>309.0</ele><time>2026-04-06T13:34:02.601Z</time></trkpt><trkpt lat="44.3291533" lon="9.435355"><ele>304.75</ele><time>2026-04-06T13:34:03.6Z</time></trkpt><trkpt lat="44.3292517" lon="9.43522"><ele>300.5</ele><time>2026-04-06T13:34:04.6Z</time></trkpt><trkpt lat="44.329355" lon="9.43509"><ele>296.25</ele><time>2026-04-06T13:34:05.601Z</time></trkpt><trkpt lat="44.3294467" lon="9.43496"><ele>292.0</ele><time>2026-04-06T13:34:06.601Z</time></trkpt><trkpt lat="44.3295417" lon="9.434835"><ele>292.0</ele><time>2026-04-06T13:34:07.602Z</time></trkpt><trkpt lat="44.3296367" lon="9.43471"><ele>292.0</ele><time>2026-04-06T13:34:08.599Z</time></trkpt><trkpt lat="44.3297367" lon="9.4345933"><ele>292.0</ele><time>2026-04-06T13:34:09.599Z</time></trkpt><trkpt lat="44.3298333" lon="9.4344817"><ele>292.0</ele><time>2026-04-06T13:34:10.598Z</time></trkpt><trkpt lat="44.3299267" lon="9.4343783"><ele>288.5</ele><time>2026-04-06T13:34:11.599Z</time></trkpt><trkpt lat="44.3300033" lon="9.43429"><ele>285.0</ele><time>2026-04-06T13:34:12.599Z</time></trkpt><trkpt lat="44.3300633" lon="9.43421"><ele>281.5</ele><time>2026-04-06T13:34:13.599Z</time></trkpt><trkpt lat="44.3300933" lon="9.43413"><ele>278.0</ele><time>2026-04-06T13:34:14.6Z</time></trkpt><trkpt lat="44.3300833" lon="9.4340333"><ele>274.5</ele><time>2026-04-06T13:34:15.598Z</time></trkpt><trkpt lat="44.3300483" lon="9.4339233"><ele>271.0</ele><time>2026-04-06T13:34:16.598Z</time></trkpt><trkpt lat="44.3300267" lon="9.4338217"><ele>273.16666666666663</ele><time>2026-04-06T13:34:17.599Z</time></trkpt><trkpt lat="44.33002" lon="9.4337233"><ele>275.3333333333333</ele><time>2026-04-06T13:34:18.597Z</time></trkpt><trkpt lat="44.3300367" lon="9.4336217"><ele>277.5</ele><time>2026-04-06T13:34:19.598Z</time></trkpt><trkpt lat="44.3300867" lon="9.433545"><ele>279.6666666666667</ele><time>2026-04-06T13:34:20.598Z</time></trkpt><trkpt lat="44.3301533" lon="9.4334867"><ele>281.83333333333337</ele><time>2026-04-06T13:34:21.598Z</time></trkpt><trkpt lat="44.3302433" lon="9.4334633"><ele>284.0</ele><time>2026-04-06T13:34:22.598Z</time></trkpt><trkpt lat="44.3303417" lon="9.4334583"><ele>284.0</ele><time>2026-04-06T13:34:23.598Z</time></trkpt><trkpt lat="44.3304367" lon="9.43346"><ele>284.0</ele><time>2026-04-06T13:34:24.598Z</time></trkpt><trkpt lat="44.3305283" lon="9.4334833"><ele>284.0</ele><time>2026-04-06T13:34:25.599Z</time></trkpt><trkpt lat="44.3306117" lon="9.4335117"><ele>284.0</ele><time>2026-04-06T13:34:26.599Z</time></trkpt><trkpt lat="44.3306933" lon="9.4335267"><ele>284.0</ele><time>2026-04-06T13:34:27.598Z</time></trkpt><trkpt lat="44.3307717" lon="9.433515"><ele>284.0</ele><time>2026-04-06T13:34:28.599Z</time></trkpt><trkpt lat="44.3308417" lon="9.433475"><ele>279.5</ele><time>2026-04-06T13:34:29.598Z</time></trkpt><trkpt lat="44.3309067" lon="9.4334117"><ele>275.0</ele><time>2026-04-06T13:34:30.599Z</time></trkpt><trkpt lat="44.330965" lon="9.4333333"><ele>270.5</ele><time>2026-04-06T13:34:31.598Z</time></trkpt><trkpt lat="44.33102" lon="9.4332517"><ele>266.0</ele><time>2026-04-06T13:34:32.599Z</time></trkpt><trkpt lat="44.33108" lon="9.4331667"><ele>261.5</ele><time>2026-04-06T13:34:33.598Z</time></trkpt><trkpt lat="44.3311417" lon="9.4330883"><ele>257.0</ele><time>2026-04-06T13:34:34.597Z</time></trkpt><trkpt lat="44.3312133" lon="9.43302"><ele>253.8</ele><time>2026-04-06T13:34:35.598Z</time></trkpt><trkpt lat="44.331295" lon="9.4329717"><ele>250.6</ele><time>2026-04-06T13:34:36.598Z</time></trkpt><trkpt lat="44.3313783" lon="9.4329233"><ele>247.40000000000003</ele><time>2026-04-06T13:34:37.597Z</time></trkpt><trkpt lat="44.3314617" lon="9.43287"><ele>244.20000000000002</ele><time>2026-04-06T13:34:38.598Z</time></trkpt><trkpt lat="44.3315417" lon="9.4328167"><ele>241.0</ele><time>2026-04-06T13:34:39.598Z</time></trkpt><trkpt lat="44.3316233" lon="9.43276"><ele>241.0</ele><time>2026-04-06T13:34:40.599Z</time></trkpt><trkpt lat="44.331705" lon="9.4327033"><ele>241.00000000000003</ele><time>2026-04-06T13:34:41.599Z</time></trkpt><trkpt lat="44.3317833" lon="9.43264"><ele>241.00000000000003</ele><time>2026-04-06T13:34:42.599Z</time></trkpt><trkpt lat="44.3318633" lon="9.432585"><ele>241.0</ele><time>2026-04-06T13:34:43.599Z</time></trkpt><trkpt lat="44.3319467" lon="9.432525"><ele>241.0</ele><time>2026-04-06T13:34:44.6Z</time></trkpt><trkpt lat="44.33203" lon="9.432475"><ele>240.99999999999997</ele><time>2026-04-06T13:34:45.598Z</time></trkpt><trkpt lat="44.3321133" lon="9.432415"><ele>241.0</ele><time>2026-04-06T13:34:46.598Z</time></trkpt><trkpt lat="44.3321933" lon="9.4323467"><ele>241.0</ele><time>2026-04-06T13:34:47.599Z</time></trkpt><trkpt lat="44.3322667" lon="9.4322717"><ele>241.0</ele><time>2026-04-06T13:34:48.598Z</time></trkpt><trkpt lat="44.3323217" lon="9.4322017"><ele>240.99999999999997</ele><time>2026-04-06T13:34:49.597Z</time></trkpt><trkpt lat="44.332365" lon="9.4321333"><ele>241.0</ele><time>2026-04-06T13:34:50.598Z</time></trkpt><trkpt lat="44.33237" lon="9.4320117"><ele>239.99999999999997</ele><time>2026-04-06T13:34:52.598Z</time></trkpt><trkpt lat="44.332285" lon="9.4319467"><ele>239.0</ele><time>2026-04-06T13:34:54.598Z</time></trkpt><trkpt lat="44.3321733" lon="9.4319183"><ele>238.0</ele><time>2026-04-06T13:34:56.599Z</time></trkpt><trkpt lat="44.332105" lon="9.4318983"><ele>237.0</ele><time>2026-04-06T13:34:57.599Z</time></trkpt><trkpt lat="44.3320333" lon="9.4318717"><ele>235.99999999999997</ele><time>2026-04-06T13:34:58.598Z</time></trkpt><trkpt lat="44.3319617" lon="9.431835"><ele>235.0</ele><time>2026-04-06T13:34:59.598Z</time></trkpt><trkpt lat="44.331895" lon="9.4317917"><ele>235.0</ele><time>2026-04-06T13:35:00.598Z</time></trkpt><trkpt lat="44.3318317" lon="9.431745"><ele>234.99999999999997</ele><time>2026-04-06T13:35:01.598Z</time></trkpt><trkpt lat="44.3317767" lon="9.4316883"><ele>235.0</ele><time>2026-04-06T13:35:02.599Z</time></trkpt><trkpt lat="44.3317383" lon="9.4316183"><ele>235.0</ele><time>2026-04-06T13:35:03.598Z</time></trkpt><trkpt lat="44.3317317" lon="9.4315283"><ele>234.99999999999997</ele><time>2026-04-06T13:35:04.603Z</time></trkpt><trkpt lat="44.331755" lon="9.43143"><ele>235.0</ele><time>2026-04-06T13:35:05.598Z</time></trkpt><trkpt lat="44.3318017" lon="9.43133"><ele>235.0</ele><time>2026-04-06T13:35:06.598Z</time></trkpt><trkpt lat="44.3318183" lon="9.431235"><ele>232.99999999999997</ele><time>2026-04-06T13:35:07.598Z</time></trkpt><trkpt lat="44.331805" lon="9.4311333"><ele>231.0</ele><time>2026-04-06T13:35:08.599Z</time></trkpt><trkpt lat="44.331775" lon="9.4310267"><ele>229.0</ele><time>2026-04-06T13:35:09.598Z</time></trkpt><trkpt lat="44.3317467" lon="9.43091"><ele>227.0</ele><time>2026-04-06T13:35:10.598Z</time></trkpt><trkpt lat="44.331725" lon="9.4307833"><ele>224.99999999999997</ele><time>2026-04-06T13:35:11.598Z</time></trkpt><trkpt lat="44.331725" lon="9.4306567"><ele>223.0</ele><time>2026-04-06T13:35:12.599Z</time></trkpt><trkpt lat="44.33174" lon="9.4305417"><ele>222.99999999999997</ele><time>2026-04-06T13:35:13.598Z</time></trkpt><trkpt lat="44.3317567" lon="9.430445"><ele>223.0</ele><time>2026-04-06T13:35:14.599Z</time></trkpt><trkpt lat="44.3318117" lon="9.4303467"><ele>223.0</ele><time>2026-04-06T13:35:16.598Z</time></trkpt><trkpt lat="44.3318767" lon="9.4303783"><ele>223.0</ele><time>2026-04-06T13:35:18.599Z</time></trkpt><trkpt lat="44.3318717" lon="9.4304783"><ele>222.99999999999997</ele><time>2026-04-06T13:35:19.597Z</time></trkpt><trkpt lat="44.3318817" lon="9.430575"><ele>223.0</ele><time>2026-04-06T13:35:20.599Z</time></trkpt><trkpt lat="44.331905" lon="9.4306833"><ele>223.0</ele><time>2026-04-06T13:35:21.598Z</time></trkpt><trkpt lat="44.3319367" lon="9.430775"><ele>223.0</ele><time>2026-04-06T13:35:22.598Z</time></trkpt><trkpt lat="44.3319717" lon="9.4308617"><ele>223.0</ele><time>2026-04-06T13:35:23.597Z</time></trkpt><trkpt lat="44.3320033" lon="9.4309467"><ele>223.0</ele><time>2026-04-06T13:35:24.599Z</time></trkpt><trkpt lat="44.3320267" lon="9.4310367"><ele>223.0</ele><time>2026-04-06T13:35:25.598Z</time></trkpt><trkpt lat="44.3320583" lon="9.4311217"><ele>223.0</ele><time>2026-04-06T13:35:26.598Z</time></trkpt><trkpt lat="44.332105" lon="9.431205"><ele>223.0</ele><time>2026-04-06T13:35:27.598Z</time></trkpt><trkpt lat="44.3321683" lon="9.431265"><ele>217.99999999999997</ele><time>2026-04-06T13:35:28.598Z</time></trkpt><trkpt lat="44.33225" lon="9.4312783"><ele>213.0</ele><time>2026-04-06T13:35:29.599Z</time></trkpt><trkpt lat="44.3323317" lon="9.431275"><ele>208.0</ele><time>2026-04-06T13:35:30.599Z</time></trkpt><trkpt lat="44.33242" lon="9.4312717"><ele>203.0</ele><time>2026-04-06T13:35:31.599Z</time></trkpt><trkpt lat="44.3325083" lon="9.431255"><ele>197.99999999999997</ele><time>2026-04-06T13:35:32.598Z</time></trkpt><trkpt lat="44.3326" lon="9.4312367"><ele>193.0</ele><time>2026-04-06T13:35:33.597Z</time></trkpt><trkpt lat="44.3326867" lon="9.431225"><ele>192.99999999999997</ele><time>2026-04-06T13:35:34.598Z</time></trkpt><trkpt lat="44.332785" lon="9.43123"><ele>193.0</ele><time>2026-04-06T13:35:35.597Z</time></trkpt><trkpt lat="44.3328733" lon="9.4312433"><ele>193.0</ele><time>2026-04-06T13:35:36.598Z</time></trkpt><trkpt lat="44.332953" lon="9.43125"><ele>193.0</ele><time>2026-04-06T13:35:37.598Z</time></trkpt><trkpt lat="44.3330204" lon="9.4312273"><ele>192.99999999999997</ele><time>2026-04-06T13:35:38.598Z</time></trkpt><trkpt lat="44.3330472" lon="9.4311021"><ele>193.0</ele><time>2026-04-06T13:35:40.599Z</time></trkpt><trkpt lat="44.3329963" lon="9.4310271"><ele>193.0</ele><time>2026-04-06T13:35:41.598Z</time></trkpt><trkpt lat="44.3328964" lon="9.4309711"><ele>193.0</ele><time>2026-04-06T13:35:42.599Z</time></trkpt><trkpt lat="44.3327726" lon="9.4309158"><ele>193.0</ele><time>2026-04-06T13:35:43.599Z</time></trkpt><trkpt lat="44.3326526" lon="9.4308566"><ele>193.0</ele><time>2026-04-06T13:35:44.599Z</time></trkpt><trkpt lat="44.3325469" lon="9.4307961"><ele>193.0</ele><time>2026-04-06T13:35:45.598Z</time></trkpt><trkpt lat="44.3324602" lon="9.4307385"><ele>193.0</ele><time>2026-04-06T13:35:46.599Z</time></trkpt><trkpt lat="44.3323911" lon="9.430679"><ele>193.0</ele><time>2026-04-06T13:35:47.598Z</time></trkpt><trkpt lat="44.3323623" lon="9.4305172"><ele>193.0</ele><time>2026-04-06T13:35:49.599Z</time></trkpt><trkpt lat="44.332387" lon="9.4304148"><ele>193.0</ele><time>2026-04-06T13:35:50.598Z</time></trkpt><trkpt lat="44.3324557" lon="9.4302842"><ele>189.5</ele><time>2026-04-06T13:35:51.598Z</time></trkpt><trkpt lat="44.3325435" lon="9.4301604"><ele>186.0</ele><time>2026-04-06T13:35:52.599Z</time></trkpt><trkpt lat="44.3326351" lon="9.4300504"><ele>182.5</ele><time>2026-04-06T13:35:53.599Z</time></trkpt><trkpt lat="44.332703" lon="9.4299384"><ele>179.0</ele><time>2026-04-06T13:35:54.599Z</time></trkpt><trkpt lat="44.3327432" lon="9.4298032"><ele>178.0</ele><time>2026-04-06T13:35:55.599Z</time></trkpt><trkpt lat="44.3327588" lon="9.4296343"><ele>177.0</ele><time>2026-04-06T13:35:56.599Z</time></trkpt><trkpt lat="44.3327589" lon="9.429448"><ele>176.0</ele><time>2026-04-06T13:35:57.597Z</time></trkpt><trkpt lat="44.3327607" lon="9.4292767"><ele>175.0</ele><time>2026-04-06T13:35:58.599Z</time></trkpt><trkpt lat="44.3327646" lon="9.4291298"><ele>175.0</ele><time>2026-04-06T13:35:59.598Z</time></trkpt><trkpt lat="44.3327514" lon="9.4290058"><ele>175.0</ele><time>2026-04-06T13:36:00.598Z</time></trkpt><trkpt lat="44.3327112" lon="9.4289078"><ele>175.0</ele><time>2026-04-06T13:36:01.598Z</time></trkpt><trkpt lat="44.3326596" lon="9.42883"><ele>175.0</ele><time>2026-04-06T13:36:02.598Z</time></trkpt><trkpt lat="44.3326167" lon="9.4287511"><ele>175.0</ele><time>2026-04-06T13:36:03.598Z</time></trkpt><trkpt lat="44.3326296" lon="9.4286574"><ele>175.0</ele><time>2026-04-06T13:36:05.597Z</time></trkpt><trkpt lat="44.3327377" lon="9.428752"><ele>175.0</ele><time>2026-04-06T13:36:07.598Z</time></trkpt><trkpt lat="44.3328072" lon="9.4288414"><ele>175.0</ele><time>2026-04-06T13:36:08.599Z</time></trkpt><trkpt lat="44.33288" lon="9.4289429"><ele>175.0</ele><time>2026-04-06T13:36:09.6Z</time></trkpt><trkpt lat="44.332944" lon="9.4290648"><ele>175.0</ele><time>2026-04-06T13:36:10.598Z</time></trkpt><trkpt lat="44.3329979" lon="9.4291949"><ele>175.0</ele><time>2026-04-06T13:36:11.597Z</time></trkpt><trkpt lat="44.3330602" lon="9.4293103"><ele>171.16666666666669</ele><time>2026-04-06T13:36:12.598Z</time></trkpt><trkpt lat="44.3331256" lon="9.4294104"><ele>167.33333333333334</ele><time>2026-04-06T13:36:13.598Z</time></trkpt><trkpt lat="44.3331805" lon="9.429515"><ele>163.5</ele><time>2026-04-06T13:36:14.599Z</time></trkpt><trkpt lat="44.3332125" lon="9.429634"><ele>159.66666666666666</ele><time>2026-04-06T13:36:15.597Z</time></trkpt><trkpt lat="44.333237" lon="9.4297495"><ele>155.83333333333331</ele><time>2026-04-06T13:36:16.598Z</time></trkpt><trkpt lat="44.3332629" lon="9.4298418"><ele>152.0</ele><time>2026-04-06T13:36:17.599Z</time></trkpt><trkpt lat="44.3333157" lon="9.4299462"><ele>152.0</ele><time>2026-04-06T13:36:19.598Z</time></trkpt><trkpt lat="44.33335" lon="9.4298269"><ele>152.0</ele><time>2026-04-06T13:36:27.598Z</time></trkpt><trkpt lat="44.3333308" lon="9.4295973"><ele>152.0</ele><time>2026-04-06T13:36:29.598Z</time></trkpt><trkpt lat="44.3333045" lon="9.4294331"><ele>152.0</ele><time>2026-04-06T13:36:30.598Z</time></trkpt><trkpt lat="44.3332638" lon="9.4292571"><ele>150.33333333333331</ele><time>2026-04-06T13:36:31.597Z</time></trkpt><trkpt lat="44.3332019" lon="9.4290634"><ele>148.66666666666666</ele><time>2026-04-06T13:36:32.599Z</time></trkpt><trkpt lat="44.3331281" lon="9.4288544"><ele>147.0</ele><time>2026-04-06T13:36:33.598Z</time></trkpt><trkpt lat="44.3330474" lon="9.4286406"><ele>153.0</ele><time>2026-04-06T13:36:34.598Z</time></trkpt><trkpt lat="44.3329673" lon="9.4284353"><ele>159.0</ele><time>2026-04-06T13:36:35.598Z</time></trkpt><trkpt lat="44.3328937" lon="9.4282422"><ele>165.0</ele><time>2026-04-06T13:36:36.597Z</time></trkpt><trkpt lat="44.3328248" lon="9.4280591"><ele>161.5</ele><time>2026-04-06T13:36:37.597Z</time></trkpt><trkpt lat="44.3327558" lon="9.4278882"><ele>158.0</ele><time>2026-04-06T13:36:38.599Z</time></trkpt><trkpt lat="44.3326917" lon="9.42773"><ele>154.5</ele><time>2026-04-06T13:36:39.598Z</time></trkpt><trkpt lat="44.33263" lon="9.427575"><ele>151.0</ele><time>2026-04-06T13:36:40.599Z</time></trkpt><trkpt lat="44.3325733" lon="9.4274267"><ele>151.0</ele><time>2026-04-06T13:36:41.599Z</time></trkpt><trkpt lat="44.3325167" lon="9.42729"><ele>151.0</ele><time>2026-04-06T13:36:42.598Z</time></trkpt><trkpt lat="44.3324533" lon="9.4271667"><ele>151.0</ele><time>2026-04-06T13:36:43.599Z</time></trkpt><trkpt lat="44.33237" lon="9.4270617"><ele>151.0</ele><time>2026-04-06T13:36:44.598Z</time></trkpt><trkpt lat="44.3322683" lon="9.4269667"><ele>151.5</ele><time>2026-04-06T13:36:45.599Z</time></trkpt><trkpt lat="44.33216" lon="9.4268783"><ele>152.0</ele><time>2026-04-06T13:36:46.599Z</time></trkpt><trkpt lat="44.3320617" lon="9.42679"><ele>152.5</ele><time>2026-04-06T13:36:47.599Z</time></trkpt><trkpt lat="44.3319667" lon="9.4266983"><ele>153.0</ele><time>2026-04-06T13:36:48.598Z</time></trkpt><trkpt lat="44.3318917" lon="9.4265933"><ele>153.0</ele><time>2026-04-06T13:36:49.598Z</time></trkpt><trkpt lat="44.33183" lon="9.42648"><ele>153.0</ele><time>2026-04-06T13:36:50.6Z</time></trkpt><trkpt lat="44.3317633" lon="9.4263617"><ele>153.0</ele><time>2026-04-06T13:36:51.598Z</time></trkpt><trkpt lat="44.33169" lon="9.42625"><ele>153.0</ele><time>2026-04-06T13:36:52.599Z</time></trkpt><trkpt lat="44.331605" lon="9.4261633"><ele>153.0</ele><time>2026-04-06T13:36:53.599Z</time></trkpt><trkpt lat="44.331515" lon="9.4260933"><ele>150.20000000000002</ele><time>2026-04-06T13:36:54.597Z</time></trkpt><trkpt lat="44.3314217" lon="9.4260367"><ele>147.4</ele><time>2026-04-06T13:36:55.599Z</time></trkpt><trkpt lat="44.3313317" lon="9.4259767"><ele>144.60000000000002</ele><time>2026-04-06T13:36:56.599Z</time></trkpt><trkpt lat="44.3312483" lon="9.4258983"><ele>141.8</ele><time>2026-04-06T13:36:57.598Z</time></trkpt><trkpt lat="44.331175" lon="9.4258"><ele>139.0</ele><time>2026-04-06T13:36:58.599Z</time></trkpt><trkpt lat="44.331115" lon="9.4256833"><ele>139.0</ele><time>2026-04-06T13:36:59.599Z</time></trkpt><trkpt lat="44.331065" lon="9.4255567"><ele>139.0</ele><time>2026-04-06T13:37:00.597Z</time></trkpt><trkpt lat="44.3310133" lon="9.4254333"><ele>139.0</ele><time>2026-04-06T13:37:01.597Z</time></trkpt><trkpt lat="44.3309667" lon="9.42532"><ele>139.0</ele><time>2026-04-06T13:37:02.598Z</time></trkpt><trkpt lat="44.3309217" lon="9.4252117"><ele>139.0</ele><time>2026-04-06T13:37:03.597Z</time></trkpt><trkpt lat="44.3308817" lon="9.4251033"><ele>136.6</ele><time>2026-04-06T13:37:04.598Z</time></trkpt><trkpt lat="44.3308517" lon="9.4249917"><ele>134.2</ele><time>2026-04-06T13:37:05.599Z</time></trkpt><trkpt lat="44.3308467" lon="9.4248733"><ele>131.79999999999998</ele><time>2026-04-06T13:37:06.599Z</time></trkpt><trkpt lat="44.33087" lon="9.4247517"><ele>129.4</ele><time>2026-04-06T13:37:07.597Z</time></trkpt><trkpt lat="44.330915" lon="9.4246283"><ele>127.0</ele><time>2026-04-06T13:37:08.598Z</time></trkpt><trkpt lat="44.3309683" lon="9.4245067"><ele>126.5</ele><time>2026-04-06T13:37:09.598Z</time></trkpt><trkpt lat="44.3310217" lon="9.4243733"><ele>126.0</ele><time>2026-04-06T13:37:10.598Z</time></trkpt><trkpt lat="44.331075" lon="9.4242367"><ele>125.5</ele><time>2026-04-06T13:37:11.599Z</time></trkpt><trkpt lat="44.3311233" lon="9.424095"><ele>125.0</ele><time>2026-04-06T13:37:12.6Z</time></trkpt><trkpt lat="44.331185" lon="9.4239533"><ele>124.75</ele><time>2026-04-06T13:37:13.599Z</time></trkpt><trkpt lat="44.331245" lon="9.4238083"><ele>124.5</ele><time>2026-04-06T13:37:14.598Z</time></trkpt><trkpt lat="44.3313017" lon="9.4236667"><ele>124.25</ele><time>2026-04-06T13:37:15.598Z</time></trkpt><trkpt lat="44.331355" lon="9.42352"><ele>124.0</ele><time>2026-04-06T13:37:16.598Z</time></trkpt><trkpt lat="44.3314083" lon="9.4233717"><ele>125.5</ele><time>2026-04-06T13:37:17.599Z</time></trkpt><trkpt lat="44.331465" lon="9.4232217"><ele>127.0</ele><time>2026-04-06T13:37:18.598Z</time></trkpt><trkpt lat="44.3315183" lon="9.42307"><ele>128.5</ele><time>2026-04-06T13:37:19.6Z</time></trkpt><trkpt lat="44.3315717" lon="9.422925"><ele>130.0</ele><time>2026-04-06T13:37:20.597Z</time></trkpt><trkpt lat="44.33162" lon="9.4227833"><ele>130.0</ele><time>2026-04-06T13:37:21.599Z</time></trkpt><trkpt lat="44.3316733" lon="9.4226417"><ele>130.0</ele><time>2026-04-06T13:37:22.599Z</time></trkpt><trkpt lat="44.3317283" lon="9.4224883"><ele>130.0</ele><time>2026-04-06T13:37:23.598Z</time></trkpt><trkpt lat="44.33179" lon="9.4223233"><ele>130.0</ele><time>2026-04-06T13:37:24.599Z</time></trkpt><trkpt lat="44.331855" lon="9.4221583"><ele>128.0</ele><time>2026-04-06T13:37:25.597Z</time></trkpt><trkpt lat="44.3319167" lon="9.4219967"><ele>126.0</ele><time>2026-04-06T13:37:26.598Z</time></trkpt><trkpt lat="44.331975" lon="9.4218433"><ele>124.0</ele><time>2026-04-06T13:37:27.598Z</time></trkpt><trkpt lat="44.332025" lon="9.4216933"><ele>122.0</ele><time>2026-04-06T13:37:28.598Z</time></trkpt><trkpt lat="44.332055" lon="9.4215417"><ele>122.0</ele><time>2026-04-06T13:37:29.6Z</time></trkpt><trkpt lat="44.3320617" lon="9.42138"><ele>121.99999999999999</ele><time>2026-04-06T13:37:30.598Z</time></trkpt><trkpt lat="44.3320467" lon="9.4212217"><ele>121.99999999999999</ele><time>2026-04-06T13:37:31.599Z</time></trkpt><trkpt lat="44.33201" lon="9.4210817"><ele>122.0</ele><time>2026-04-06T13:37:32.602Z</time></trkpt><trkpt lat="44.331955" lon="9.4209567"><ele>122.0</ele><time>2026-04-06T13:37:33.598Z</time></trkpt><trkpt lat="44.3318867" lon="9.4208433"><ele>122.19999999999999</ele><time>2026-04-06T13:37:34.597Z</time></trkpt><trkpt lat="44.331815" lon="9.4207383"><ele>122.39999999999999</ele><time>2026-04-06T13:37:35.598Z</time></trkpt><trkpt lat="44.3317517" lon="9.420635"><ele>122.60000000000001</ele><time>2026-04-06T13:37:36.597Z</time></trkpt><trkpt lat="44.3316983" lon="9.4205283"><ele>122.80000000000001</ele><time>2026-04-06T13:37:37.598Z</time></trkpt><trkpt lat="44.3316633" lon="9.420405"><ele>123.0</ele><time>2026-04-06T13:37:38.598Z</time></trkpt><trkpt lat="44.3316583" lon="9.4202733"><ele>123.25</ele><time>2026-04-06T13:37:39.599Z</time></trkpt><trkpt lat="44.33169" lon="9.4201417"><ele>123.5</ele><time>2026-04-06T13:37:40.598Z</time></trkpt><trkpt lat="44.33176" lon="9.4200033"><ele>123.75</ele><time>2026-04-06T13:37:41.598Z</time></trkpt><trkpt lat="44.3318533" lon="9.41985"><ele>124.0</ele><time>2026-04-06T13:37:42.598Z</time></trkpt><trkpt lat="44.3319517" lon="9.4196867"><ele>123.0</ele><time>2026-04-06T13:37:43.598Z</time></trkpt><trkpt lat="44.3320483" lon="9.41952"><ele>122.0</ele><time>2026-04-06T13:37:44.599Z</time></trkpt><trkpt lat="44.3321317" lon="9.4193567"><ele>121.0</ele><time>2026-04-06T13:37:45.598Z</time></trkpt><trkpt lat="44.3321967" lon="9.4191883"><ele>120.0</ele><time>2026-04-06T13:37:46.598Z</time></trkpt><trkpt lat="44.3322417" lon="9.4190133"><ele>122.5</ele><time>2026-04-06T13:37:47.599Z</time></trkpt><trkpt lat="44.332275" lon="9.418835"><ele>125.0</ele><time>2026-04-06T13:37:48.598Z</time></trkpt><trkpt lat="44.3323067" lon="9.4186567"><ele>127.5</ele><time>2026-04-06T13:37:49.598Z</time></trkpt><trkpt lat="44.332345" lon="9.4184867"><ele>130.0</ele><time>2026-04-06T13:37:50.6Z</time></trkpt><trkpt lat="44.3324017" lon="9.4183267"><ele>130.0</ele><time>2026-04-06T13:37:51.598Z</time></trkpt><trkpt lat="44.3324717" lon="9.418175"><ele>130.0</ele><time>2026-04-06T13:37:52.598Z</time></trkpt><trkpt lat="44.33255" lon="9.4180333"><ele>130.0</ele><time>2026-04-06T13:37:53.597Z</time></trkpt><trkpt lat="44.3326433" lon="9.4179117"><ele>130.0</ele><time>2026-04-06T13:37:54.598Z</time></trkpt><trkpt lat="44.332735" lon="9.4177967"><ele>127.0</ele><time>2026-04-06T13:37:55.599Z</time></trkpt><trkpt lat="44.332835" lon="9.417685"><ele>124.0</ele><time>2026-04-06T13:37:56.599Z</time></trkpt><trkpt lat="44.3329333" lon="9.41756"><ele>121.0</ele><time>2026-04-06T13:37:57.6Z</time></trkpt><trkpt lat="44.33302" lon="9.4174217"><ele>118.0</ele><time>2026-04-06T13:37:58.599Z</time></trkpt><trkpt lat="44.3330917" lon="9.41728"><ele>120.0</ele><time>2026-04-06T13:37:59.598Z</time></trkpt><trkpt lat="44.333155" lon="9.4171267"><ele>122.0</ele><time>2026-04-06T13:38:00.597Z</time></trkpt><trkpt lat="44.333205" lon="9.4169517"><ele>124.0</ele><time>2026-04-06T13:38:01.599Z</time></trkpt><trkpt lat="44.33324" lon="9.4167717"><ele>126.0</ele><time>2026-04-06T13:38:02.599Z</time></trkpt><trkpt lat="44.3332617" lon="9.4165983"><ele>126.0</ele><time>2026-04-06T13:38:03.599Z</time></trkpt><trkpt lat="44.3332683" lon="9.416435"><ele>126.0</ele><time>2026-04-06T13:38:04.597Z</time></trkpt><trkpt lat="44.33327" lon="9.4162933"><ele>126.0</ele><time>2026-04-06T13:38:05.599Z</time></trkpt><trkpt lat="44.333275" lon="9.4161633"><ele>126.0</ele><time>2026-04-06T13:38:06.597Z</time></trkpt><trkpt lat="44.3333" lon="9.4160467"><ele>126.0</ele><time>2026-04-06T13:38:07.599Z</time></trkpt><trkpt lat="44.3333433" lon="9.41595"><ele>124.0</ele><time>2026-04-06T13:38:08.6Z</time></trkpt><trkpt lat="44.333415" lon="9.4159033"><ele>122.0</ele><time>2026-04-06T13:38:09.598Z</time></trkpt><trkpt lat="44.3335067" lon="9.4159067"><ele>120.0</ele><time>2026-04-06T13:38:10.6Z</time></trkpt><trkpt lat="44.333625" lon="9.4159467"><ele>118.0</ele><time>2026-04-06T13:38:11.598Z</time></trkpt><trkpt lat="44.3337683" lon="9.4160033"><ele>116.0</ele><time>2026-04-06T13:38:12.598Z</time></trkpt><trkpt lat="44.3339367" lon="9.41607"><ele>115.0</ele><time>2026-04-06T13:38:13.599Z</time></trkpt><trkpt lat="44.3341133" lon="9.4161233"><ele>114.0</ele><time>2026-04-06T13:38:14.599Z</time></trkpt><trkpt lat="44.3343" lon="9.4161383"><ele>113.0</ele><time>2026-04-06T13:38:15.598Z</time></trkpt><trkpt lat="44.3345067" lon="9.4161117"><ele>112.33333333333333</ele><time>2026-04-06T13:38:16.598Z</time></trkpt><trkpt lat="44.3347233" lon="9.416085"><ele>111.66666666666666</ele><time>2026-04-06T13:38:17.598Z</time></trkpt><trkpt lat="44.3349267" lon="9.416075"><ele>111.0</ele><time>2026-04-06T13:38:18.598Z</time></trkpt><trkpt lat="44.3351133" lon="9.4160767"><ele>111.0</ele><time>2026-04-06T13:38:19.598Z</time></trkpt><trkpt lat="44.3352833" lon="9.4160733"><ele>111.0</ele><time>2026-04-06T13:38:20.599Z</time></trkpt><trkpt lat="44.33543" lon="9.4160517"><ele>111.0</ele><time>2026-04-06T13:38:21.598Z</time></trkpt><trkpt lat="44.3355633" lon="9.4159917"><ele>112.75</ele><time>2026-04-06T13:38:22.598Z</time></trkpt><trkpt lat="44.3356867" lon="9.415875"><ele>114.5</ele><time>2026-04-06T13:38:23.598Z</time></trkpt><trkpt lat="44.335785" lon="9.41572"><ele>116.25</ele><time>2026-04-06T13:38:24.598Z</time></trkpt><trkpt lat="44.3358583" lon="9.41556"><ele>118.0</ele><time>2026-04-06T13:38:25.598Z</time></trkpt><trkpt lat="44.3358983" lon="9.4153867"><ele>118.0</ele><time>2026-04-06T13:38:26.598Z</time></trkpt><trkpt lat="44.3359067" lon="9.4152167"><ele>118.0</ele><time>2026-04-06T13:38:27.597Z</time></trkpt><trkpt lat="44.3358867" lon="9.4150417"><ele>118.0</ele><time>2026-04-06T13:38:28.598Z</time></trkpt><trkpt lat="44.3358433" lon="9.4148333"><ele>118.0</ele><time>2026-04-06T13:38:29.599Z</time></trkpt><trkpt lat="44.3358" lon="9.4146117"><ele>121.0</ele><time>2026-04-06T13:38:30.598Z</time></trkpt><trkpt lat="44.3357483" lon="9.4143917"><ele>124.0</ele><time>2026-04-06T13:38:31.598Z</time></trkpt><trkpt lat="44.3356833" lon="9.4141867"><ele>127.0</ele><time>2026-04-06T13:38:32.598Z</time></trkpt><trkpt lat="44.33559" lon="9.4140017"><ele>121.33333333333334</ele><time>2026-04-06T13:38:33.598Z</time></trkpt><trkpt lat="44.3354817" lon="9.4138317"><ele>115.66666666666666</ele><time>2026-04-06T13:38:34.599Z</time></trkpt><trkpt lat="44.33538" lon="9.4136767"><ele>110.0</ele><time>2026-04-06T13:38:35.598Z</time></trkpt><trkpt lat="44.33529" lon="9.4135283"><ele>109.0</ele><time>2026-04-06T13:38:36.598Z</time></trkpt><trkpt lat="44.3352083" lon="9.4133783"><ele>108.0</ele><time>2026-04-06T13:38:37.598Z</time></trkpt><trkpt lat="44.3351583" lon="9.4132283"><ele>107.0</ele><time>2026-04-06T13:38:38.6Z</time></trkpt><trkpt lat="44.3351383" lon="9.4130783"><ele>106.0</ele><time>2026-04-06T13:38:39.598Z</time></trkpt><trkpt lat="44.3351317" lon="9.41294"><ele>105.75</ele><time>2026-04-06T13:38:40.598Z</time></trkpt><trkpt lat="44.3351683" lon="9.412815"><ele>105.5</ele><time>2026-04-06T13:38:41.597Z</time></trkpt><trkpt lat="44.3352417" lon="9.41272"><ele>105.25</ele><time>2026-04-06T13:38:42.598Z</time></trkpt><trkpt lat="44.335355" lon="9.4126433"><ele>105.0</ele><time>2026-04-06T13:38:43.599Z</time></trkpt><trkpt lat="44.3354833" lon="9.4125733"><ele>107.66666666666666</ele><time>2026-04-06T13:38:44.598Z</time></trkpt><trkpt lat="44.3356217" lon="9.4124983"><ele>110.33333333333333</ele><time>2026-04-06T13:38:45.598Z</time></trkpt><trkpt lat="44.3357567" lon="9.4124117"><ele>113.0</ele><time>2026-04-06T13:38:46.597Z</time></trkpt><trkpt lat="44.3358967" lon="9.4123083"><ele>113.0</ele><time>2026-04-06T13:38:47.599Z</time></trkpt><trkpt lat="44.33603" lon="9.4121933"><ele>113.0</ele><time>2026-04-06T13:38:48.599Z</time></trkpt><trkpt lat="44.3361767" lon="9.4120833"><ele>113.0</ele><time>2026-04-06T13:38:49.599Z</time></trkpt><trkpt lat="44.33635" lon="9.4119717"><ele>109.33333333333333</ele><time>2026-04-06T13:38:50.6Z</time></trkpt><trkpt lat="44.336545" lon="9.4118417"><ele>105.66666666666666</ele><time>2026-04-06T13:38:51.598Z</time></trkpt><trkpt lat="44.33674" lon="9.4117"><ele>102.0</ele><time>2026-04-06T13:38:52.598Z</time></trkpt><trkpt lat="44.3369217" lon="9.4115617"><ele>102.0</ele><time>2026-04-06T13:38:53.598Z</time></trkpt><trkpt lat="44.3370817" lon="9.4114317"><ele>102.0</ele><time>2026-04-06T13:38:54.598Z</time></trkpt><trkpt lat="44.3372317" lon="9.41132"><ele>102.0</ele><time>2026-04-06T13:38:55.598Z</time></trkpt><trkpt lat="44.3373817" lon="9.4112267"><ele>101.0</ele><time>2026-04-06T13:38:56.598Z</time></trkpt><trkpt lat="44.3375417" lon="9.4111483"><ele>100.0</ele><time>2026-04-06T13:38:57.598Z</time></trkpt><trkpt lat="44.3377117" lon="9.411075"><ele>99.0</ele><time>2026-04-06T13:38:58.599Z</time></trkpt><trkpt lat="44.337895" lon="9.4110033"><ele>100.0</ele><time>2026-04-06T13:38:59.598Z</time></trkpt><trkpt lat="44.3380867" lon="9.4109283"><ele>101.0</ele><time>2026-04-06T13:39:00.597Z</time></trkpt><trkpt lat="44.3382867" lon="9.4108533"><ele>102.0</ele><time>2026-04-06T13:39:01.599Z</time></trkpt><trkpt lat="44.3384883" lon="9.4107833"><ele>102.0</ele><time>2026-04-06T13:39:02.599Z</time></trkpt><trkpt lat="44.3386833" lon="9.410725"><ele>102.0</ele><time>2026-04-06T13:39:03.598Z</time></trkpt><trkpt lat="44.338865" lon="9.4106717"><ele>102.0</ele><time>2026-04-06T13:39:04.599Z</time></trkpt><trkpt lat="44.3390383" lon="9.4106217"><ele>103.33333333333334</ele><time>2026-04-06T13:39:05.599Z</time></trkpt><trkpt lat="44.3392" lon="9.4105717"><ele>104.66666666666667</ele><time>2026-04-06T13:39:06.597Z</time></trkpt><trkpt lat="44.33935" lon="9.4105133"><ele>106.0</ele><time>2026-04-06T13:39:07.6Z</time></trkpt><trkpt lat="44.339495" lon="9.4104567"><ele>105.25</ele><time>2026-04-06T13:39:08.598Z</time></trkpt><trkpt lat="44.3396333" lon="9.41039"><ele>104.5</ele><time>2026-04-06T13:39:09.599Z</time></trkpt><trkpt lat="44.3397683" lon="9.4103033"><ele>103.75</ele><time>2026-04-06T13:39:10.599Z</time></trkpt><trkpt lat="44.3399083" lon="9.4102183"><ele>103.0</ele><time>2026-04-06T13:39:11.599Z</time></trkpt><trkpt lat="44.3400433" lon="9.41013"><ele>103.0</ele><time>2026-04-06T13:39:12.598Z</time></trkpt><trkpt lat="44.3401717" lon="9.4100217"><ele>103.0</ele><time>2026-04-06T13:39:13.598Z</time></trkpt><trkpt lat="44.3402833" lon="9.4098783"><ele>103.0</ele><time>2026-04-06T13:39:14.599Z</time></trkpt><trkpt lat="44.3403867" lon="9.4096883"><ele>105.66666666666667</ele><time>2026-04-06T13:39:15.599Z</time></trkpt><trkpt lat="44.340485" lon="9.409485"><ele>108.33333333333334</ele><time>2026-04-06T13:39:16.599Z</time></trkpt><trkpt lat="44.3405717" lon="9.4092767"><ele>111.0</ele><time>2026-04-06T13:39:17.599Z</time></trkpt><trkpt lat="44.3406483" lon="9.4090733"><ele>111.33333333333334</ele><time>2026-04-06T13:39:18.598Z</time></trkpt><trkpt lat="44.3407" lon="9.4088533"><ele>111.66666666666667</ele><time>2026-04-06T13:39:19.599Z</time></trkpt><trkpt lat="44.3407267" lon="9.4086167"><ele>112.0</ele><time>2026-04-06T13:39:20.6Z</time></trkpt><trkpt lat="44.34073" lon="9.4083767"><ele>111.66666666666667</ele><time>2026-04-06T13:39:21.598Z</time></trkpt><trkpt lat="44.340705" lon="9.4081417"><ele>111.33333333333334</ele><time>2026-04-06T13:39:22.599Z</time></trkpt><trkpt lat="44.3406583" lon="9.407905"><ele>111.0</ele><time>2026-04-06T13:39:23.599Z</time></trkpt><trkpt lat="44.3405917" lon="9.4076633"><ele>104.66666666666667</ele><time>2026-04-06T13:39:24.599Z</time></trkpt><trkpt lat="44.3405117" lon="9.4074233"><ele>98.33333333333334</ele><time>2026-04-06T13:39:25.598Z</time></trkpt><trkpt lat="44.3404333" lon="9.4071917"><ele>92.0</ele><time>2026-04-06T13:39:26.599Z</time></trkpt><trkpt lat="44.3403567" lon="9.4069733"><ele>90.75</ele><time>2026-04-06T13:39:27.598Z</time></trkpt><trkpt lat="44.3402867" lon="9.4067733"><ele>89.5</ele><time>2026-04-06T13:39:28.599Z</time></trkpt><trkpt lat="44.3402233" lon="9.4065883"><ele>88.25</ele><time>2026-04-06T13:39:29.599Z</time></trkpt><trkpt lat="44.3401767" lon="9.4064067"><ele>87.0</ele><time>2026-04-06T13:39:30.598Z</time></trkpt><trkpt lat="44.34016" lon="9.40623"><ele>86.5</ele><time>2026-04-06T13:39:31.599Z</time></trkpt><trkpt lat="44.34017" lon="9.4060583"><ele>86.0</ele><time>2026-04-06T13:39:32.599Z</time></trkpt><trkpt lat="44.3402217" lon="9.4058833"><ele>85.5</ele><time>2026-04-06T13:39:33.598Z</time></trkpt><trkpt lat="44.3402733" lon="9.4056983"><ele>85.0</ele><time>2026-04-06T13:39:34.599Z</time></trkpt><trkpt lat="44.3403067" lon="9.405505"><ele>83.75</ele><time>2026-04-06T13:39:35.599Z</time></trkpt><trkpt lat="44.3403233" lon="9.4053183"><ele>82.5</ele><time>2026-04-06T13:39:36.599Z</time></trkpt><trkpt lat="44.3403483" lon="9.4051383"><ele>81.25</ele><time>2026-04-06T13:39:37.598Z</time></trkpt><trkpt lat="44.3403933" lon="9.4049733"><ele>80.0</ele><time>2026-04-06T13:39:38.599Z</time></trkpt><trkpt lat="44.3404683" lon="9.4048283"><ele>79.0</ele><time>2026-04-06T13:39:39.598Z</time></trkpt><trkpt lat="44.3405683" lon="9.404715"><ele>78.0</ele><time>2026-04-06T13:39:40.599Z</time></trkpt><trkpt lat="44.3406983" lon="9.4046333"><ele>77.0</ele><time>2026-04-06T13:39:41.598Z</time></trkpt><trkpt lat="44.34084" lon="9.4045717"><ele>76.0</ele><time>2026-04-06T13:39:42.6Z</time></trkpt><trkpt lat="44.341" lon="9.4045233"><ele>76.0</ele><time>2026-04-06T13:39:43.598Z</time></trkpt><trkpt lat="44.341155" lon="9.40448"><ele>76.0</ele><time>2026-04-06T13:39:44.598Z</time></trkpt><trkpt lat="44.3413067" lon="9.404425"><ele>76.0</ele><time>2026-04-06T13:39:45.597Z</time></trkpt><trkpt lat="44.341455" lon="9.4043417"><ele>80.0</ele><time>2026-04-06T13:39:46.599Z</time></trkpt><trkpt lat="44.3416" lon="9.4042133"><ele>84.0</ele><time>2026-04-06T13:39:47.597Z</time></trkpt><trkpt lat="44.341735" lon="9.404045"><ele>88.0</ele><time>2026-04-06T13:39:48.598Z</time></trkpt><trkpt lat="44.3418633" lon="9.4038767"><ele>85.0</ele><time>2026-04-06T13:39:49.598Z</time></trkpt><trkpt lat="44.3419767" lon="9.4037233"><ele>82.0</ele><time>2026-04-06T13:39:50.599Z</time></trkpt><trkpt lat="44.3420733" lon="9.40359"><ele>79.0</ele><time>2026-04-06T13:39:51.597Z</time></trkpt><trkpt lat="44.3421417" lon="9.40346"><ele>76.0</ele><time>2026-04-06T13:39:52.599Z</time></trkpt><trkpt lat="44.3421817" lon="9.4033233"><ele>76.0</ele><time>2026-04-06T13:39:53.599Z</time></trkpt><trkpt lat="44.3421733" lon="9.4031583"><ele>76.0</ele><time>2026-04-06T13:39:54.598Z</time></trkpt><trkpt lat="44.34212" lon="9.402955"><ele>76.0</ele><time>2026-04-06T13:39:55.599Z</time></trkpt><trkpt lat="44.3420633" lon="9.402735"><ele>76.0</ele><time>2026-04-06T13:39:56.605Z</time></trkpt><trkpt lat="44.3419983" lon="9.4025117"><ele>76.0</ele><time>2026-04-06T13:39:57.597Z</time></trkpt><trkpt lat="44.3419017" lon="9.4022983"><ele>76.0</ele><time>2026-04-06T13:39:58.598Z</time></trkpt><trkpt lat="44.3417667" lon="9.4020967"><ele>76.0</ele><time>2026-04-06T13:39:59.597Z</time></trkpt><trkpt lat="44.341625" lon="9.4019167"><ele>77.75</ele><time>2026-04-06T13:40:00.597Z</time></trkpt><trkpt lat="44.3414917" lon="9.4017683"><ele>79.5</ele><time>2026-04-06T13:40:01.599Z</time></trkpt><trkpt lat="44.341385" lon="9.401645"><ele>81.25</ele><time>2026-04-06T13:40:02.601Z</time></trkpt><trkpt lat="44.3412967" lon="9.4015483"><ele>83.0</ele><time>2026-04-06T13:40:03.598Z</time></trkpt><trkpt lat="44.341235" lon="9.401445"><ele>82.0</ele><time>2026-04-06T13:40:04.599Z</time></trkpt><trkpt lat="44.3412033" lon="9.4013233"><ele>81.0</ele><time>2026-04-06T13:40:05.597Z</time></trkpt><trkpt lat="44.3412083" lon="9.4011883"><ele>80.0</ele><time>2026-04-06T13:40:06.598Z</time></trkpt><trkpt lat="44.341245" lon="9.4010433"><ele>79.0</ele><time>2026-04-06T13:40:07.598Z</time></trkpt><trkpt lat="44.341305" lon="9.4009083"><ele>78.0</ele><time>2026-04-06T13:40:08.598Z</time></trkpt><trkpt lat="44.341395" lon="9.4008083"><ele>78.0</ele><time>2026-04-06T13:40:09.599Z</time></trkpt><trkpt lat="44.341495" lon="9.4007317"><ele>78.0</ele><time>2026-04-06T13:40:10.598Z</time></trkpt><trkpt lat="44.34161" lon="9.4006833"><ele>78.0</ele><time>2026-04-06T13:40:11.599Z</time></trkpt><trkpt lat="44.3417417" lon="9.4006633"><ele>78.0</ele><time>2026-04-06T13:40:12.597Z</time></trkpt><trkpt lat="44.3418983" lon="9.40066"><ele>78.0</ele><time>2026-04-06T13:40:13.599Z</time></trkpt><trkpt lat="44.342065" lon="9.40066"><ele>78.0</ele><time>2026-04-06T13:40:14.598Z</time></trkpt><trkpt lat="44.34223" lon="9.40067"><ele>78.0</ele><time>2026-04-06T13:40:15.599Z</time></trkpt><trkpt lat="44.3423817" lon="9.4006917"><ele>79.25</ele><time>2026-04-06T13:40:16.599Z</time></trkpt><trkpt lat="44.3425217" lon="9.4007117"><ele>80.5</ele><time>2026-04-06T13:40:17.599Z</time></trkpt><trkpt lat="44.34266" lon="9.40072"><ele>81.75</ele><time>2026-04-06T13:40:18.598Z</time></trkpt><trkpt lat="44.3427917" lon="9.4007133"><ele>83.0</ele><time>2026-04-06T13:40:19.598Z</time></trkpt><trkpt lat="44.3429117" lon="9.4007183"><ele>83.0</ele><time>2026-04-06T13:40:20.599Z</time></trkpt><trkpt lat="44.343025" lon="9.4007217"><ele>83.0</ele><time>2026-04-06T13:40:21.598Z</time></trkpt><trkpt lat="44.3431383" lon="9.4007033"><ele>83.0</ele><time>2026-04-06T13:40:22.598Z</time></trkpt><trkpt lat="44.343255" lon="9.4006533"><ele>83.0</ele><time>2026-04-06T13:40:23.598Z</time></trkpt><trkpt lat="44.34337" lon="9.40057"><ele>78.25</ele><time>2026-04-06T13:40:24.598Z</time></trkpt><trkpt lat="44.3434767" lon="9.4004633"><ele>73.5</ele><time>2026-04-06T13:40:25.599Z</time></trkpt><trkpt lat="44.34357" lon="9.4003533"><ele>68.75</ele><time>2026-04-06T13:40:26.598Z</time></trkpt><trkpt lat="44.3436583" lon="9.4002433"><ele>64.0</ele><time>2026-04-06T13:40:27.598Z</time></trkpt><trkpt lat="44.3437417" lon="9.40013"><ele>64.0</ele><time>2026-04-06T13:40:28.597Z</time></trkpt><trkpt lat="44.3438183" lon="9.4000133"><ele>64.0</ele><time>2026-04-06T13:40:29.599Z</time></trkpt><trkpt lat="44.343885" lon="9.3999"><ele>64.0</ele><time>2026-04-06T13:40:30.598Z</time></trkpt><trkpt lat="44.3439517" lon="9.3997983"><ele>64.0</ele><time>2026-04-06T13:40:31.599Z</time></trkpt><trkpt lat="44.344035" lon="9.3997133"><ele>64.0</ele><time>2026-04-06T13:40:32.598Z</time></trkpt><trkpt lat="44.3441167" lon="9.3996333"><ele>63.400000000000006</ele><time>2026-04-06T13:40:33.597Z</time></trkpt><trkpt lat="44.3441983" lon="9.3995617"><ele>62.800000000000004</ele><time>2026-04-06T13:40:34.599Z</time></trkpt><trkpt lat="44.344285" lon="9.3994917"><ele>62.199999999999996</ele><time>2026-04-06T13:40:35.597Z</time></trkpt><trkpt lat="44.3443667" lon="9.3994233"><ele>61.599999999999994</ele><time>2026-04-06T13:40:36.598Z</time></trkpt><trkpt lat="44.3444417" lon="9.3993617"><ele>61.0</ele><time>2026-04-06T13:40:37.598Z</time></trkpt><trkpt lat="44.3445117" lon="9.3992983"><ele>60.99999999999999</ele><time>2026-04-06T13:40:38.598Z</time></trkpt><trkpt lat="44.3445767" lon="9.3992333"><ele>61.0</ele><time>2026-04-06T13:40:39.598Z</time></trkpt><trkpt lat="44.3446317" lon="9.3991583"><ele>61.0</ele><time>2026-04-06T13:40:40.599Z</time></trkpt><trkpt lat="44.3446733" lon="9.39907"><ele>61.0</ele><time>2026-04-06T13:40:41.599Z</time></trkpt><trkpt lat="44.344695" lon="9.3989667"><ele>60.99999999999999</ele><time>2026-04-06T13:40:42.599Z</time></trkpt><trkpt lat="44.3446817" lon="9.3988467"><ele>61.0</ele><time>2026-04-06T13:40:43.597Z</time></trkpt><trkpt lat="44.3446567" lon="9.3987233"><ele>61.4</ele><time>2026-04-06T13:40:44.6Z</time></trkpt><trkpt lat="44.3446167" lon="9.398595"><ele>61.8</ele><time>2026-04-06T13:40:45.599Z</time></trkpt><trkpt lat="44.3445667" lon="9.398465"><ele>62.199999999999996</ele><time>2026-04-06T13:40:46.598Z</time></trkpt><trkpt lat="44.3445017" lon="9.398345"><ele>62.599999999999994</ele><time>2026-04-06T13:40:47.598Z</time></trkpt><trkpt lat="44.3444317" lon="9.398225"><ele>63.0</ele><time>2026-04-06T13:40:48.599Z</time></trkpt><trkpt lat="44.3443567" lon="9.3981117"><ele>63.0</ele><time>2026-04-06T13:40:49.599Z</time></trkpt><trkpt lat="44.3442767" lon="9.3980083"><ele>63.0</ele><time>2026-04-06T13:40:50.598Z</time></trkpt><trkpt lat="44.344195" lon="9.39792"><ele>63.0</ele><time>2026-04-06T13:40:51.597Z</time></trkpt><trkpt lat="44.3441033" lon="9.397845"><ele>63.0</ele><time>2026-04-06T13:40:52.599Z</time></trkpt><trkpt lat="44.34401" lon="9.3977767"><ele>63.0</ele><time>2026-04-06T13:40:53.599Z</time></trkpt><trkpt lat="44.3439183" lon="9.39772"><ele>62.599999999999994</ele><time>2026-04-06T13:40:54.598Z</time></trkpt><trkpt lat="44.3438367" lon="9.3976383"><ele>62.199999999999996</ele><time>2026-04-06T13:40:55.599Z</time></trkpt><trkpt lat="44.3437617" lon="9.3975467"><ele>61.8</ele><time>2026-04-06T13:40:56.599Z</time></trkpt><trkpt lat="44.343695" lon="9.397425"><ele>61.4</ele><time>2026-04-06T13:40:57.597Z</time></trkpt><trkpt lat="44.34364" lon="9.3972817"><ele>61.0</ele><time>2026-04-06T13:40:58.598Z</time></trkpt><trkpt lat="44.3435967" lon="9.3971217"><ele>60.0</ele><time>2026-04-06T13:40:59.599Z</time></trkpt><trkpt lat="44.3435733" lon="9.39695"><ele>59.0</ele><time>2026-04-06T13:41:00.598Z</time></trkpt><trkpt lat="44.3435717" lon="9.3967733"><ele>58.0</ele><time>2026-04-06T13:41:01.599Z</time></trkpt><trkpt lat="44.3435933" lon="9.3966067"><ele>57.0</ele><time>2026-04-06T13:41:02.599Z</time></trkpt><trkpt lat="44.3436383" lon="9.3964483"><ele>57.75</ele><time>2026-04-06T13:41:03.599Z</time></trkpt><trkpt lat="44.3437083" lon="9.3963067"><ele>58.5</ele><time>2026-04-06T13:41:04.599Z</time></trkpt><trkpt lat="44.3438033" lon="9.3961783"><ele>59.25</ele><time>2026-04-06T13:41:05.599Z</time></trkpt><trkpt lat="44.3439133" lon="9.3960467"><ele>60.0</ele><time>2026-04-06T13:41:06.599Z</time></trkpt><trkpt lat="44.3440383" lon="9.3959117"><ele>60.0</ele><time>2026-04-06T13:41:07.599Z</time></trkpt><trkpt lat="44.34417" lon="9.3957733"><ele>60.0</ele><time>2026-04-06T13:41:08.599Z</time></trkpt><trkpt lat="44.34431" lon="9.3956333"><ele>60.0</ele><time>2026-04-06T13:41:09.599Z</time></trkpt><trkpt lat="44.34446" lon="9.39549"><ele>59.0</ele><time>2026-04-06T13:41:10.599Z</time></trkpt><trkpt lat="44.3446083" lon="9.3953383"><ele>58.0</ele><time>2026-04-06T13:41:11.599Z</time></trkpt><trkpt lat="44.3447533" lon="9.3951883"><ele>57.0</ele><time>2026-04-06T13:41:12.599Z</time></trkpt><trkpt lat="44.3448967" lon="9.39504"><ele>57.0</ele><time>2026-04-06T13:41:13.598Z</time></trkpt><trkpt lat="44.345035" lon="9.3948967"><ele>57.0</ele><time>2026-04-06T13:41:14.598Z</time></trkpt><trkpt lat="44.3451667" lon="9.3947583"><ele>57.0</ele><time>2026-04-06T13:41:15.598Z</time></trkpt><trkpt lat="44.3452933" lon="9.3946283"><ele>56.75</ele><time>2026-04-06T13:41:16.599Z</time></trkpt><trkpt lat="44.3454117" lon="9.3945067"><ele>56.5</ele><time>2026-04-06T13:41:17.598Z</time></trkpt><trkpt lat="44.34552" lon="9.3943783"><ele>56.25</ele><time>2026-04-06T13:41:18.599Z</time></trkpt><trkpt lat="44.3456183" lon="9.39423"><ele>56.0</ele><time>2026-04-06T13:41:19.599Z</time></trkpt><trkpt lat="44.3457033" lon="9.3940533"><ele>56.0</ele><time>2026-04-06T13:41:20.598Z</time></trkpt><trkpt lat="44.3457733" lon="9.393855"><ele>56.0</ele><time>2026-04-06T13:41:21.599Z</time></trkpt><trkpt lat="44.3458167" lon="9.39364"><ele>56.0</ele><time>2026-04-06T13:41:22.6Z</time></trkpt><trkpt lat="44.3458317" lon="9.3934133"><ele>56.0</ele><time>2026-04-06T13:41:23.599Z</time></trkpt><trkpt lat="44.3458217" lon="9.3931833"><ele>56.0</ele><time>2026-04-06T13:41:24.597Z</time></trkpt><trkpt lat="44.3458017" lon="9.392965"><ele>56.0</ele><time>2026-04-06T13:41:25.599Z</time></trkpt><trkpt lat="44.3457817" lon="9.3927583"><ele>56.0</ele><time>2026-04-06T13:41:26.599Z</time></trkpt><trkpt lat="44.3457617" lon="9.3925633"><ele>56.0</ele><time>2026-04-06T13:41:27.598Z</time></trkpt><trkpt lat="44.3457433" lon="9.3923783"><ele>56.0</ele><time>2026-04-06T13:41:28.598Z</time></trkpt><trkpt lat="44.3457267" lon="9.392205"><ele>56.0</ele><time>2026-04-06T13:41:29.599Z</time></trkpt><trkpt lat="44.3457183" lon="9.39204"><ele>55.25</ele><time>2026-04-06T13:41:30.599Z</time></trkpt><trkpt lat="44.345725" lon="9.3918783"><ele>54.5</ele><time>2026-04-06T13:41:31.598Z</time></trkpt><trkpt lat="44.3457533" lon="9.391715"><ele>53.75</ele><time>2026-04-06T13:41:32.598Z</time></trkpt><trkpt lat="44.345805" lon="9.3915583"><ele>53.0</ele><time>2026-04-06T13:41:33.597Z</time></trkpt><trkpt lat="44.3458767" lon="9.3914267"><ele>53.5</ele><time>2026-04-06T13:41:34.599Z</time></trkpt><trkpt lat="44.345965" lon="9.3913183"><ele>54.0</ele><time>2026-04-06T13:41:35.599Z</time></trkpt><trkpt lat="44.3460633" lon="9.39123"><ele>54.5</ele><time>2026-04-06T13:41:36.598Z</time></trkpt><trkpt lat="44.3461667" lon="9.3911583"><ele>55.0</ele><time>2026-04-06T13:41:37.599Z</time></trkpt><trkpt lat="44.3462683" lon="9.3910983"><ele>55.0</ele><time>2026-04-06T13:41:38.599Z</time></trkpt><trkpt lat="44.3463733" lon="9.391045"><ele>55.0</ele><time>2026-04-06T13:41:39.598Z</time></trkpt><trkpt lat="44.3464817" lon="9.39099"><ele>55.0</ele><time>2026-04-06T13:41:40.598Z</time></trkpt><trkpt lat="44.3465883" lon="9.3909283"><ele>55.0</ele><time>2026-04-06T13:41:41.598Z</time></trkpt><trkpt lat="44.3466933" lon="9.390865"><ele>54.6</ele><time>2026-04-06T13:41:42.598Z</time></trkpt><trkpt lat="44.3467867" lon="9.3907983"><ele>54.2</ele><time>2026-04-06T13:41:43.599Z</time></trkpt><trkpt lat="44.3468683" lon="9.3907183"><ele>53.8</ele><time>2026-04-06T13:41:44.599Z</time></trkpt><trkpt lat="44.346945" lon="9.3906183"><ele>53.4</ele><time>2026-04-06T13:41:45.598Z</time></trkpt><trkpt lat="44.3470117" lon="9.3905083"><ele>53.0</ele><time>2026-04-06T13:41:46.599Z</time></trkpt><trkpt lat="44.3470717" lon="9.3903967"><ele>53.0</ele><time>2026-04-06T13:41:47.599Z</time></trkpt><trkpt lat="44.347125" lon="9.39029"><ele>53.0</ele><time>2026-04-06T13:41:48.598Z</time></trkpt><trkpt lat="44.3471767" lon="9.3901783"><ele>53.0</ele><time>2026-04-06T13:41:49.599Z</time></trkpt><trkpt lat="44.3472217" lon="9.39006"><ele>53.0</ele><time>2026-04-06T13:41:50.599Z</time></trkpt><trkpt lat="44.3472633" lon="9.38994"><ele>53.0</ele><time>2026-04-06T13:41:51.598Z</time></trkpt><trkpt lat="44.3472983" lon="9.3898133"><ele>56.333333333333336</ele><time>2026-04-06T13:41:52.598Z</time></trkpt><trkpt lat="44.3473317" lon="9.38969"><ele>59.66666666666667</ele><time>2026-04-06T13:41:53.599Z</time></trkpt><trkpt lat="44.34735" lon="9.3895667"><ele>63.0</ele><time>2026-04-06T13:41:54.598Z</time></trkpt><trkpt lat="44.3473467" lon="9.3894467"><ele>66.33333333333333</ele><time>2026-04-06T13:41:55.599Z</time></trkpt><trkpt lat="44.3473317" lon="9.38933"><ele>69.66666666666666</ele><time>2026-04-06T13:41:56.599Z</time></trkpt><trkpt lat="44.347315" lon="9.389205"><ele>73.0</ele><time>2026-04-06T13:41:57.598Z</time></trkpt><trkpt lat="44.3472967" lon="9.3890833"><ele>73.2</ele><time>2026-04-06T13:41:58.597Z</time></trkpt><trkpt lat="44.3472817" lon="9.38896"><ele>73.4</ele><time>2026-04-06T13:41:59.599Z</time></trkpt><trkpt lat="44.3472683" lon="9.3888367"><ele>73.60000000000001</ele><time>2026-04-06T13:42:00.599Z</time></trkpt><trkpt lat="44.3472783" lon="9.3887117"><ele>73.8</ele><time>2026-04-06T13:42:01.598Z</time></trkpt><trkpt lat="44.34728" lon="9.388575"><ele>74.0</ele><time>2026-04-06T13:42:02.598Z</time></trkpt><trkpt lat="44.3472767" lon="9.38843"><ele>71.75</ele><time>2026-04-06T13:42:03.598Z</time></trkpt><trkpt lat="44.3473167" lon="9.3882617"><ele>69.5</ele><time>2026-04-06T13:42:04.599Z</time></trkpt><trkpt lat="44.3474017" lon="9.3881067"><ele>67.25</ele><time>2026-04-06T13:42:05.6Z</time></trkpt><trkpt lat="44.34748" lon="9.38792"><ele>65.0</ele><time>2026-04-06T13:42:06.6Z</time></trkpt><trkpt lat="44.3475933" lon="9.3877433"><ele>60.66666666666667</ele><time>2026-04-06T13:42:07.6Z</time></trkpt><trkpt lat="44.347775" lon="9.38755"><ele>56.33333333333333</ele><time>2026-04-06T13:42:08.6Z</time></trkpt><trkpt lat="44.34794" lon="9.38735"><ele>52.0</ele><time>2026-04-06T13:42:09.599Z</time></trkpt><trkpt lat="44.3480617" lon="9.3871583"><ele>51.0</ele><time>2026-04-06T13:42:10.599Z</time></trkpt><trkpt lat="44.34818" lon="9.3869883"><ele>50.0</ele><time>2026-04-06T13:42:11.6Z</time></trkpt><trkpt lat="44.3482817" lon="9.3868167"><ele>49.0</ele><time>2026-04-06T13:42:12.6Z</time></trkpt><trkpt lat="44.3483717" lon="9.3866533"><ele>49.0</ele><time>2026-04-06T13:42:13.601Z</time></trkpt><trkpt lat="44.3484467" lon="9.3864883"><ele>49.0</ele><time>2026-04-06T13:42:14.601Z</time></trkpt><trkpt lat="44.3485133" lon="9.3863283"><ele>49.0</ele><time>2026-04-06T13:42:15.598Z</time></trkpt><trkpt lat="44.3485767" lon="9.3861633"><ele>49.0</ele><time>2026-04-06T13:42:16.598Z</time></trkpt><trkpt lat="44.34862" lon="9.385985"><ele>48.5</ele><time>2026-04-06T13:42:17.598Z</time></trkpt><trkpt lat="44.3486583" lon="9.3858167"><ele>48.0</ele><time>2026-04-06T13:42:18.598Z</time></trkpt><trkpt lat="44.34868" lon="9.38565"><ele>47.5</ele><time>2026-04-06T13:42:19.598Z</time></trkpt><trkpt lat="44.3486783" lon="9.3854817"><ele>47.0</ele><time>2026-04-06T13:42:20.598Z</time></trkpt><trkpt lat="44.3486533" lon="9.385305"><ele>47.0</ele><time>2026-04-06T13:42:21.597Z</time></trkpt><trkpt lat="44.3486093" lon="9.3851289"><ele>47.0</ele><time>2026-04-06T13:42:22.597Z</time></trkpt><trkpt lat="44.3485651" lon="9.3849499"><ele>47.0</ele><time>2026-04-06T13:42:23.597Z</time></trkpt><trkpt lat="44.3485306" lon="9.3847569"><ele>47.0</ele><time>2026-04-06T13:42:24.599Z</time></trkpt><trkpt lat="44.3485013" lon="9.3845521"><ele>48.33333333333333</ele><time>2026-04-06T13:42:25.599Z</time></trkpt><trkpt lat="44.3484678" lon="9.3843372"><ele>49.666666666666664</ele><time>2026-04-06T13:42:26.599Z</time></trkpt><trkpt lat="44.3484322" lon="9.3841148"><ele>51.0</ele><time>2026-04-06T13:42:27.597Z</time></trkpt><trkpt lat="44.3483963" lon="9.3838883"><ele>49.0</ele><time>2026-04-06T13:42:28.599Z</time></trkpt><trkpt lat="44.3483566" lon="9.3836566"><ele>47.0</ele><time>2026-04-06T13:42:29.599Z</time></trkpt><trkpt lat="44.348314" lon="9.3834172"><ele>45.0</ele><time>2026-04-06T13:42:30.598Z</time></trkpt><trkpt lat="44.3482717" lon="9.3831748"><ele>43.666666666666664</ele><time>2026-04-06T13:42:31.598Z</time></trkpt><trkpt lat="44.3482296" lon="9.3829305"><ele>42.33333333333333</ele><time>2026-04-06T13:42:32.599Z</time></trkpt><trkpt lat="44.3481855" lon="9.3826867"><ele>41.0</ele><time>2026-04-06T13:42:33.599Z</time></trkpt><trkpt lat="44.3481407" lon="9.3824434"><ele>41.0</ele><time>2026-04-06T13:42:34.599Z</time></trkpt><trkpt lat="44.3480941" lon="9.382202"><ele>41.0</ele><time>2026-04-06T13:42:35.599Z</time></trkpt><trkpt lat="44.3480506" lon="9.3819647"><ele>41.0</ele><time>2026-04-06T13:42:36.599Z</time></trkpt><trkpt lat="44.3480052" lon="9.3817356"><ele>41.0</ele><time>2026-04-06T13:42:37.599Z</time></trkpt><trkpt lat="44.3479635" lon="9.3815198"><ele>41.0</ele><time>2026-04-06T13:42:38.599Z</time></trkpt><trkpt lat="44.3479236" lon="9.3813171"><ele>41.0</ele><time>2026-04-06T13:42:39.599Z</time></trkpt><trkpt lat="44.3478751" lon="9.3811263"><ele>41.0</ele><time>2026-04-06T13:42:40.599Z</time></trkpt><trkpt lat="44.3478076" lon="9.3809426"><ele>41.0</ele><time>2026-04-06T13:42:41.599Z</time></trkpt><trkpt lat="44.3477141" lon="9.3807679"><ele>41.0</ele><time>2026-04-06T13:42:42.599Z</time></trkpt><trkpt lat="44.3475982" lon="9.3806003"><ele>42.666666666666664</ele><time>2026-04-06T13:42:43.598Z</time></trkpt><trkpt lat="44.3474803" lon="9.3804349"><ele>44.333333333333336</ele><time>2026-04-06T13:42:44.599Z</time></trkpt><trkpt lat="44.3473702" lon="9.3802752"><ele>46.0</ele><time>2026-04-06T13:42:45.598Z</time></trkpt><trkpt lat="44.3472704" lon="9.3801198"><ele>43.0</ele><time>2026-04-06T13:42:46.598Z</time></trkpt><trkpt lat="44.3471826" lon="9.3799694"><ele>40.0</ele><time>2026-04-06T13:42:47.599Z</time></trkpt><trkpt lat="44.3471097" lon="9.3798128"><ele>37.0</ele><time>2026-04-06T13:42:48.599Z</time></trkpt><trkpt lat="44.3470512" lon="9.3796609"><ele>34.0</ele><time>2026-04-06T13:42:49.598Z</time></trkpt><trkpt lat="44.3470145" lon="9.3795175"><ele>34.0</ele><time>2026-04-06T13:42:50.599Z</time></trkpt><trkpt lat="44.3470054" lon="9.3793913"><ele>34.0</ele><time>2026-04-06T13:42:51.599Z</time></trkpt><trkpt lat="44.3470168" lon="9.3792787"><ele>34.0</ele><time>2026-04-06T13:42:52.599Z</time></trkpt><trkpt lat="44.3470532" lon="9.3791808"><ele>34.0</ele><time>2026-04-06T13:42:53.599Z</time></trkpt><trkpt lat="44.3471098" lon="9.3790923"><ele>34.0</ele><time>2026-04-06T13:42:54.599Z</time></trkpt><trkpt lat="44.3471944" lon="9.3790032"><ele>34.0</ele><time>2026-04-06T13:42:55.599Z</time></trkpt><trkpt lat="44.3473035" lon="9.378908"><ele>34.0</ele><time>2026-04-06T13:42:56.6Z</time></trkpt><trkpt lat="44.3474226" lon="9.3788021"><ele>34.0</ele><time>2026-04-06T13:42:57.597Z</time></trkpt><trkpt lat="44.3475493" lon="9.3786875"><ele>34.0</ele><time>2026-04-06T13:42:58.6Z</time></trkpt><trkpt lat="44.3476742" lon="9.3785719"><ele>34.0</ele><time>2026-04-06T13:42:59.599Z</time></trkpt><trkpt lat="44.3477967" lon="9.3784598"><ele>34.0</ele><time>2026-04-06T13:43:00.599Z</time></trkpt><trkpt lat="44.347916" lon="9.37835"><ele>34.0</ele><time>2026-04-06T13:43:01.599Z</time></trkpt><trkpt lat="44.3480281" lon="9.3782377"><ele>34.0</ele><time>2026-04-06T13:43:02.598Z</time></trkpt><trkpt lat="44.3481375" lon="9.3781261"><ele>34.0</ele><time>2026-04-06T13:43:03.599Z</time></trkpt><trkpt lat="44.3482444" lon="9.378013"><ele>33.25</ele><time>2026-04-06T13:43:04.598Z</time></trkpt><trkpt lat="44.3483501" lon="9.3779022"><ele>32.5</ele><time>2026-04-06T13:43:05.598Z</time></trkpt><trkpt lat="44.3484522" lon="9.377793"><ele>31.75</ele><time>2026-04-06T13:43:06.598Z</time></trkpt><trkpt lat="44.3485528" lon="9.3776914"><ele>31.0</ele><time>2026-04-06T13:43:07.599Z</time></trkpt><trkpt lat="44.3486548" lon="9.3775974"><ele>31.0</ele><time>2026-04-06T13:43:08.6Z</time></trkpt><trkpt lat="44.3487588" lon="9.3774991"><ele>31.0</ele><time>2026-04-06T13:43:09.601Z</time></trkpt><trkpt lat="44.3488583" lon="9.377395"><ele>31.0</ele><time>2026-04-06T13:43:10.599Z</time></trkpt><trkpt lat="44.3489617" lon="9.3772883"><ele>31.0</ele><time>2026-04-06T13:43:11.598Z</time></trkpt><trkpt lat="44.349065" lon="9.3771817"><ele>30.6</ele><time>2026-04-06T13:43:12.598Z</time></trkpt><trkpt lat="44.349165" lon="9.3770817"><ele>30.200000000000003</ele><time>2026-04-06T13:43:13.598Z</time></trkpt><trkpt lat="44.3492633" lon="9.3769917"><ele>29.799999999999997</ele><time>2026-04-06T13:43:14.599Z</time></trkpt><trkpt lat="44.3493417" lon="9.3769"><ele>29.4</ele><time>2026-04-06T13:43:15.598Z</time></trkpt><trkpt lat="44.3494017" lon="9.3768017"><ele>29.0</ele><time>2026-04-06T13:43:16.598Z</time></trkpt><trkpt lat="44.3494417" lon="9.3766967"><ele>29.0</ele><time>2026-04-06T13:43:17.598Z</time></trkpt><trkpt lat="44.3494583" lon="9.3765833"><ele>29.0</ele><time>2026-04-06T13:43:18.598Z</time></trkpt><trkpt lat="44.3494333" lon="9.3764617"><ele>29.0</ele><time>2026-04-06T13:43:19.599Z</time></trkpt><trkpt lat="44.3493867" lon="9.3763383"><ele>29.0</ele><time>2026-04-06T13:43:20.599Z</time></trkpt><trkpt lat="44.3493217" lon="9.3761967"><ele>29.0</ele><time>2026-04-06T13:43:21.598Z</time></trkpt><trkpt lat="44.3492333" lon="9.3760433"><ele>34.0</ele><time>2026-04-06T13:43:22.599Z</time></trkpt><trkpt lat="44.349125" lon="9.3758667"><ele>39.0</ele><time>2026-04-06T13:43:23.599Z</time></trkpt><trkpt lat="44.3490167" lon="9.3756833"><ele>44.0</ele><time>2026-04-06T13:43:24.599Z</time></trkpt><trkpt lat="44.34891" lon="9.3755133"><ele>41.0</ele><time>2026-04-06T13:43:25.599Z</time></trkpt><trkpt lat="44.3488067" lon="9.3753633"><ele>38.0</ele><time>2026-04-06T13:43:26.599Z</time></trkpt><trkpt lat="44.348715" lon="9.3752283"><ele>35.0</ele><time>2026-04-06T13:43:27.598Z</time></trkpt><trkpt lat="44.3486367" lon="9.3751033"><ele>32.0</ele><time>2026-04-06T13:43:28.599Z</time></trkpt><trkpt lat="44.3485817" lon="9.3749817"><ele>32.0</ele><time>2026-04-06T13:43:29.598Z</time></trkpt><trkpt lat="44.348555" lon="9.3748533"><ele>32.0</ele><time>2026-04-06T13:43:30.598Z</time></trkpt><trkpt lat="44.348565" lon="9.3746983"><ele>32.0</ele><time>2026-04-06T13:43:31.598Z</time></trkpt><trkpt lat="44.348595" lon="9.3745217"><ele>32.0</ele><time>2026-04-06T13:43:32.6Z</time></trkpt><trkpt lat="44.3486383" lon="9.3743233"><ele>32.666666666666664</ele><time>2026-04-06T13:43:33.597Z</time></trkpt><trkpt lat="44.3486833" lon="9.3741133"><ele>33.333333333333336</ele><time>2026-04-06T13:43:34.597Z</time></trkpt><trkpt lat="44.3487217" lon="9.3739"><ele>34.0</ele><time>2026-04-06T13:43:35.599Z</time></trkpt><trkpt lat="44.3487483" lon="9.3736867"><ele>34.0</ele><time>2026-04-06T13:43:36.598Z</time></trkpt><trkpt lat="44.3487567" lon="9.37346"><ele>34.0</ele><time>2026-04-06T13:43:37.598Z</time></trkpt><trkpt lat="44.3487517" lon="9.37322"><ele>34.0</ele><time>2026-04-06T13:43:38.599Z</time></trkpt><trkpt lat="44.3487333" lon="9.37298"><ele>35.66666666666667</ele><time>2026-04-06T13:43:39.598Z</time></trkpt><trkpt lat="44.3487083" lon="9.372755"><ele>37.333333333333336</ele><time>2026-04-06T13:43:40.598Z</time></trkpt><trkpt lat="44.3486783" lon="9.3725467"><ele>39.0</ele><time>2026-04-06T13:43:41.597Z</time></trkpt><trkpt lat="44.3486367" lon="9.3723483"><ele>37.333333333333336</ele><time>2026-04-06T13:43:42.599Z</time></trkpt><trkpt lat="44.3485883" lon="9.3721533"><ele>35.66666666666667</ele><time>2026-04-06T13:43:43.599Z</time></trkpt><trkpt lat="44.3485383" lon="9.3719533"><ele>34.0</ele><time>2026-04-06T13:43:44.599Z</time></trkpt><trkpt lat="44.3485067" lon="9.371745"><ele>34.0</ele><time>2026-04-06T13:43:45.597Z</time></trkpt><trkpt lat="44.348485" lon="9.3715283"><ele>34.0</ele><time>2026-04-06T13:43:46.597Z</time></trkpt><trkpt lat="44.3484817" lon="9.3712983"><ele>34.0</ele><time>2026-04-06T13:43:47.598Z</time></trkpt><trkpt lat="44.348495" lon="9.3710667"><ele>32.333333333333336</ele><time>2026-04-06T13:43:48.599Z</time></trkpt><trkpt lat="44.3485233" lon="9.370835"><ele>30.666666666666664</ele><time>2026-04-06T13:43:49.598Z</time></trkpt><trkpt lat="44.3485617" lon="9.3705967"><ele>29.0</ele><time>2026-04-06T13:43:50.599Z</time></trkpt><trkpt lat="44.3486233" lon="9.3703633"><ele>29.0</ele><time>2026-04-06T13:43:51.599Z</time></trkpt><trkpt lat="44.3487033" lon="9.370135"><ele>29.0</ele><time>2026-04-06T13:43:52.599Z</time></trkpt><trkpt lat="44.3487983" lon="9.3699117"><ele>29.0</ele><time>2026-04-06T13:43:53.598Z</time></trkpt><trkpt lat="44.3488967" lon="9.369695"><ele>26.333333333333332</ele><time>2026-04-06T13:43:54.599Z</time></trkpt><trkpt lat="44.3489933" lon="9.3694817"><ele>23.666666666666664</ele><time>2026-04-06T13:43:55.598Z</time></trkpt><trkpt lat="44.3490883" lon="9.3692717"><ele>21.0</ele><time>2026-04-06T13:43:56.599Z</time></trkpt><trkpt lat="44.3491733" lon="9.36907"><ele>21.0</ele><time>2026-04-06T13:43:57.599Z</time></trkpt><trkpt lat="44.3492417" lon="9.3688683"><ele>21.0</ele><time>2026-04-06T13:43:58.599Z</time></trkpt><trkpt lat="44.3492867" lon="9.36866"><ele>21.0</ele><time>2026-04-06T13:43:59.598Z</time></trkpt><trkpt lat="44.3493033" lon="9.368445"><ele>20.666666666666668</ele><time>2026-04-06T13:44:00.599Z</time></trkpt><trkpt lat="44.3492867" lon="9.3682267"><ele>20.333333333333336</ele><time>2026-04-06T13:44:01.599Z</time></trkpt><trkpt lat="44.3492433" lon="9.3680133"><ele>20.0</ele><time>2026-04-06T13:44:02.598Z</time></trkpt><trkpt lat="44.3491683" lon="9.3678117"><ele>20.666666666666668</ele><time>2026-04-06T13:44:03.598Z</time></trkpt><trkpt lat="44.3490633" lon="9.3676283"><ele>21.333333333333332</ele><time>2026-04-06T13:44:04.598Z</time></trkpt><trkpt lat="44.34893" lon="9.3674617"><ele>22.0</ele><time>2026-04-06T13:44:05.599Z</time></trkpt><trkpt lat="44.3487817" lon="9.3673067"><ele>19.666666666666664</ele><time>2026-04-06T13:44:06.597Z</time></trkpt><trkpt lat="44.3486233" lon="9.3671617"><ele>17.333333333333332</ele><time>2026-04-06T13:44:07.6Z</time></trkpt><trkpt lat="44.348465" lon="9.3670233"><ele>15.0</ele><time>2026-04-06T13:44:08.598Z</time></trkpt><trkpt lat="44.3483083" lon="9.366885"><ele>15.0</ele><time>2026-04-06T13:44:09.597Z</time></trkpt><trkpt lat="44.348155" lon="9.3667517"><ele>15.0</ele><time>2026-04-06T13:44:10.599Z</time></trkpt><trkpt lat="44.3480017" lon="9.3666183"><ele>15.0</ele><time>2026-04-06T13:44:11.599Z</time></trkpt><trkpt lat="44.3478433" lon="9.3664833"><ele>15.0</ele><time>2026-04-06T13:44:12.599Z</time></trkpt><trkpt lat="44.3476783" lon="9.3663417"><ele>15.0</ele><time>2026-04-06T13:44:13.599Z</time></trkpt><trkpt lat="44.3475183" lon="9.366195"><ele>15.0</ele><time>2026-04-06T13:44:14.6Z</time></trkpt><trkpt lat="44.34737" lon="9.3660517"><ele>15.0</ele><time>2026-04-06T13:44:15.599Z</time></trkpt><trkpt lat="44.3472283" lon="9.3659167"><ele>15.0</ele><time>2026-04-06T13:44:16.597Z</time></trkpt><trkpt lat="44.34709" lon="9.36579"><ele>15.0</ele><time>2026-04-06T13:44:17.599Z</time></trkpt><trkpt lat="44.3469583" lon="9.3656683"><ele>16.0</ele><time>2026-04-06T13:44:18.599Z</time></trkpt><trkpt lat="44.3468367" lon="9.3655467"><ele>17.0</ele><time>2026-04-06T13:44:19.599Z</time></trkpt><trkpt lat="44.3467333" lon="9.3654183"><ele>18.0</ele><time>2026-04-06T13:44:20.599Z</time></trkpt><trkpt lat="44.3466433" lon="9.365275"><ele>19.0</ele><time>2026-04-06T13:44:21.599Z</time></trkpt><trkpt lat="44.3465667" lon="9.3651133"><ele>19.0</ele><time>2026-04-06T13:44:22.598Z</time></trkpt><trkpt lat="44.346505" lon="9.3649483"><ele>19.0</ele><time>2026-04-06T13:44:23.599Z</time></trkpt><trkpt lat="44.346455" lon="9.3647833"><ele>19.0</ele><time>2026-04-06T13:44:24.599Z</time></trkpt><trkpt lat="44.3464133" lon="9.36462"><ele>19.0</ele><time>2026-04-06T13:44:25.599Z</time></trkpt><trkpt lat="44.3463833" lon="9.364465"><ele>18.333333333333332</ele><time>2026-04-06T13:44:26.598Z</time></trkpt><trkpt lat="44.34636" lon="9.3643233"><ele>17.666666666666664</ele><time>2026-04-06T13:44:27.599Z</time></trkpt><trkpt lat="44.3463433" lon="9.364205"><ele>17.0</ele><time>2026-04-06T13:44:28.597Z</time></trkpt><trkpt lat="44.34633" lon="9.3641183"><ele>16.333333333333332</ele><time>2026-04-06T13:44:29.598Z</time></trkpt><trkpt lat="44.3463267" lon="9.36399"><ele>15.666666666666666</ele><time>2026-04-06T13:44:31.599Z</time></trkpt><trkpt lat="44.3463767" lon="9.363885"><ele>15.0</ele><time>2026-04-06T13:44:33.602Z</time></trkpt><trkpt lat="44.3464367" lon="9.3638433"><ele>15.0</ele><time>2026-04-06T13:44:34.599Z</time></trkpt><trkpt lat="44.346525" lon="9.3637983"><ele>15.0</ele><time>2026-04-06T13:44:35.599Z</time></trkpt><trkpt lat="44.3466317" lon="9.3637433"><ele>15.0</ele><time>2026-04-06T13:44:36.599Z</time></trkpt><trkpt lat="44.3467517" lon="9.3636783"><ele>15.0</ele><time>2026-04-06T13:44:37.6Z</time></trkpt><trkpt lat="44.34687" lon="9.36361"><ele>15.0</ele><time>2026-04-06T13:44:38.599Z</time></trkpt><trkpt lat="44.3469883" lon="9.3635433"><ele>15.0</ele><time>2026-04-06T13:44:39.599Z</time></trkpt><trkpt lat="44.3471083" lon="9.3634733"><ele>15.0</ele><time>2026-04-06T13:44:40.599Z</time></trkpt><trkpt lat="44.34723" lon="9.3633967"><ele>15.0</ele><time>2026-04-06T13:44:41.599Z</time></trkpt><trkpt lat="44.3473617" lon="9.3633117"><ele>15.333333333333332</ele><time>2026-04-06T13:44:42.599Z</time></trkpt><trkpt lat="44.3474917" lon="9.3632117"><ele>15.666666666666666</ele><time>2026-04-06T13:44:43.598Z</time></trkpt><trkpt lat="44.347625" lon="9.3630967"><ele>16.0</ele><time>2026-04-06T13:44:44.599Z</time></trkpt><trkpt lat="44.3477533" lon="9.3629667"><ele>16.0</ele><time>2026-04-06T13:44:45.598Z</time></trkpt><trkpt lat="44.347875" lon="9.3628283"><ele>16.0</ele><time>2026-04-06T13:44:46.599Z</time></trkpt><trkpt lat="44.34798" lon="9.3626833"><ele>16.0</ele><time>2026-04-06T13:44:47.599Z</time></trkpt><trkpt lat="44.348075" lon="9.3625483"><ele>16.0</ele><time>2026-04-06T13:44:48.599Z</time></trkpt><trkpt lat="44.3481683" lon="9.3624383"><ele>18.0</ele><time>2026-04-06T13:44:49.598Z</time></trkpt><trkpt lat="44.3482633" lon="9.3623567"><ele>20.0</ele><time>2026-04-06T13:44:50.599Z</time></trkpt><trkpt lat="44.3483733" lon="9.3623267"><ele>22.0</ele><time>2026-04-06T13:44:51.599Z</time></trkpt><trkpt lat="44.3485067" lon="9.362325"><ele>24.0</ele><time>2026-04-06T13:44:52.598Z</time></trkpt><trkpt lat="44.3486667" lon="9.3623483"><ele>24.0</ele><time>2026-04-06T13:44:53.598Z</time></trkpt><trkpt lat="44.3488383" lon="9.362375"><ele>24.0</ele><time>2026-04-06T13:44:54.597Z</time></trkpt><trkpt lat="44.34901" lon="9.3623967"><ele>24.0</ele><time>2026-04-06T13:44:55.599Z</time></trkpt><trkpt lat="44.34918" lon="9.3624133"><ele>27.666666666666664</ele><time>2026-04-06T13:44:56.599Z</time></trkpt><trkpt lat="44.34934" lon="9.36241"><ele>31.333333333333332</ele><time>2026-04-06T13:44:57.599Z</time></trkpt><trkpt lat="44.3494867" lon="9.36238"><ele>35.0</ele><time>2026-04-06T13:44:58.598Z</time></trkpt><trkpt lat="44.3496283" lon="9.3623283"><ele>35.75</ele><time>2026-04-06T13:44:59.598Z</time></trkpt><trkpt lat="44.349765" lon="9.3622817"><ele>36.5</ele><time>2026-04-06T13:45:00.599Z</time></trkpt><trkpt lat="44.349905" lon="9.3622583"><ele>37.25</ele><time>2026-04-06T13:45:01.598Z</time></trkpt><trkpt lat="44.3500517" lon="9.3622633"><ele>38.0</ele><time>2026-04-06T13:45:02.601Z</time></trkpt><trkpt lat="44.3502067" lon="9.362295"><ele>38.0</ele><time>2026-04-06T13:45:03.599Z</time></trkpt><trkpt lat="44.3503567" lon="9.3623433"><ele>38.0</ele><time>2026-04-06T13:45:04.599Z</time></trkpt><trkpt lat="44.3505033" lon="9.3623883"><ele>38.0</ele><time>2026-04-06T13:45:05.599Z</time></trkpt><trkpt lat="44.350655" lon="9.3624117"><ele>38.666666666666664</ele><time>2026-04-06T13:45:06.599Z</time></trkpt><trkpt lat="44.3508167" lon="9.362405"><ele>39.333333333333336</ele><time>2026-04-06T13:45:07.599Z</time></trkpt><trkpt lat="44.3509867" lon="9.3623833"><ele>40.0</ele><time>2026-04-06T13:45:08.599Z</time></trkpt><trkpt lat="44.3511567" lon="9.36235"><ele>40.0</ele><time>2026-04-06T13:45:09.599Z</time></trkpt><trkpt lat="44.3513183" lon="9.362305"><ele>40.0</ele><time>2026-04-06T13:45:10.598Z</time></trkpt><trkpt lat="44.3514733" lon="9.362245"><ele>40.0</ele><time>2026-04-06T13:45:11.599Z</time></trkpt><trkpt lat="44.3516283" lon="9.3621783"><ele>32.66666666666667</ele><time>2026-04-06T13:45:12.598Z</time></trkpt><trkpt lat="44.3517733" lon="9.3620983"><ele>25.333333333333336</ele><time>2026-04-06T13:45:13.599Z</time></trkpt><trkpt lat="44.3519233" lon="9.3620233"><ele>18.0</ele><time>2026-04-06T13:45:14.598Z</time></trkpt><trkpt lat="44.352075" lon="9.3619417"><ele>22.666666666666664</ele><time>2026-04-06T13:45:15.598Z</time></trkpt><trkpt lat="44.3522267" lon="9.361865"><ele>27.333333333333332</ele><time>2026-04-06T13:45:16.598Z</time></trkpt><trkpt lat="44.3523733" lon="9.36179"><ele>32.0</ele><time>2026-04-06T13:45:17.598Z</time></trkpt><trkpt lat="44.352515" lon="9.36172"><ele>32.0</ele><time>2026-04-06T13:45:18.597Z</time></trkpt><trkpt lat="44.3526467" lon="9.36164"><ele>32.0</ele><time>2026-04-06T13:45:19.597Z</time></trkpt><trkpt lat="44.3527617" lon="9.3615417"><ele>32.0</ele><time>2026-04-06T13:45:20.598Z</time></trkpt><trkpt lat="44.3528683" lon="9.361425"><ele>32.0</ele><time>2026-04-06T13:45:21.602Z</time></trkpt><trkpt lat="44.352965" lon="9.3612883"><ele>33.25</ele><time>2026-04-06T13:45:22.598Z</time></trkpt><trkpt lat="44.35306" lon="9.361135"><ele>34.5</ele><time>2026-04-06T13:45:23.597Z</time></trkpt><trkpt lat="44.3531467" lon="9.360975"><ele>35.75</ele><time>2026-04-06T13:45:24.598Z</time></trkpt><trkpt lat="44.3532367" lon="9.360815"><ele>37.0</ele><time>2026-04-06T13:45:25.599Z</time></trkpt><trkpt lat="44.3533217" lon="9.360655"><ele>34.0</ele><time>2026-04-06T13:45:26.598Z</time></trkpt><trkpt lat="44.3534033" lon="9.3604933"><ele>31.0</ele><time>2026-04-06T13:45:27.598Z</time></trkpt><trkpt lat="44.3534733" lon="9.36032"><ele>28.0</ele><time>2026-04-06T13:45:28.598Z</time></trkpt><trkpt lat="44.3535267" lon="9.36014"><ele>25.0</ele><time>2026-04-06T13:45:29.598Z</time></trkpt><trkpt lat="44.3535617" lon="9.3599567"><ele>25.0</ele><time>2026-04-06T13:45:30.598Z</time></trkpt><trkpt lat="44.3535817" lon="9.3597717"><ele>25.0</ele><time>2026-04-06T13:45:31.598Z</time></trkpt><trkpt lat="44.35359" lon="9.3595983"><ele>25.0</ele><time>2026-04-06T13:45:32.599Z</time></trkpt><trkpt lat="44.3535917" lon="9.3594333"><ele>25.0</ele><time>2026-04-06T13:45:33.598Z</time></trkpt><trkpt lat="44.3535967" lon="9.359265"><ele>24.25</ele><time>2026-04-06T13:45:34.598Z</time></trkpt><trkpt lat="44.3536" lon="9.3590917"><ele>23.5</ele><time>2026-04-06T13:45:35.6Z</time></trkpt><trkpt lat="44.3536083" lon="9.3589117"><ele>22.75</ele><time>2026-04-06T13:45:36.6Z</time></trkpt><trkpt lat="44.3536133" lon="9.3587233"><ele>22.0</ele><time>2026-04-06T13:45:37.599Z</time></trkpt><trkpt lat="44.353615" lon="9.3585267"><ele>21.75</ele><time>2026-04-06T13:45:38.602Z</time></trkpt><trkpt lat="44.353615" lon="9.358325"><ele>21.5</ele><time>2026-04-06T13:45:39.599Z</time></trkpt><trkpt lat="44.35361" lon="9.3581183"><ele>21.25</ele><time>2026-04-06T13:45:40.599Z</time></trkpt><trkpt lat="44.3535983" lon="9.3579083"><ele>21.0</ele><time>2026-04-06T13:45:41.598Z</time></trkpt><trkpt lat="44.35357" lon="9.3577017"><ele>22.5</ele><time>2026-04-06T13:45:42.599Z</time></trkpt><trkpt lat="44.3535333" lon="9.3575"><ele>24.0</ele><time>2026-04-06T13:45:43.599Z</time></trkpt><trkpt lat="44.353485" lon="9.3573017"><ele>25.5</ele><time>2026-04-06T13:45:44.598Z</time></trkpt><trkpt lat="44.3534317" lon="9.3571083"><ele>27.0</ele><time>2026-04-06T13:45:45.6Z</time></trkpt><trkpt lat="44.353375" lon="9.35692"><ele>28.0</ele><time>2026-04-06T13:45:46.599Z</time></trkpt><trkpt lat="44.353315" lon="9.35674"><ele>29.0</ele><time>2026-04-06T13:45:47.598Z</time></trkpt><trkpt lat="44.353255" lon="9.35656"><ele>30.0</ele><time>2026-04-06T13:45:48.598Z</time></trkpt><trkpt lat="44.3531817" lon="9.3563817"><ele>31.0</ele><time>2026-04-06T13:45:49.598Z</time></trkpt><trkpt lat="44.3531033" lon="9.3562017"><ele>29.25</ele><time>2026-04-06T13:45:50.599Z</time></trkpt><trkpt lat="44.353025" lon="9.3560267"><ele>27.5</ele><time>2026-04-06T13:45:51.599Z</time></trkpt><trkpt lat="44.3529467" lon="9.35586"><ele>25.75</ele><time>2026-04-06T13:45:52.598Z</time></trkpt><trkpt lat="44.3528717" lon="9.3557067"><ele>24.0</ele><time>2026-04-06T13:45:53.6Z</time></trkpt><trkpt lat="44.3527983" lon="9.3555467"><ele>25.75</ele><time>2026-04-06T13:45:54.598Z</time></trkpt><trkpt lat="44.3527267" lon="9.3553967"><ele>27.5</ele><time>2026-04-06T13:45:55.599Z</time></trkpt><trkpt lat="44.352655" lon="9.355245"><ele>29.25</ele><time>2026-04-06T13:45:56.599Z</time></trkpt><trkpt lat="44.3525883" lon="9.355095"><ele>31.0</ele><time>2026-04-06T13:45:57.599Z</time></trkpt><trkpt lat="44.352525" lon="9.3549383"><ele>31.0</ele><time>2026-04-06T13:45:58.599Z</time></trkpt><trkpt lat="44.3524667" lon="9.3547767"><ele>31.0</ele><time>2026-04-06T13:45:59.598Z</time></trkpt><trkpt lat="44.352415" lon="9.3546067"><ele>31.0</ele><time>2026-04-06T13:46:00.599Z</time></trkpt><trkpt lat="44.3523683" lon="9.35444"><ele>31.0</ele><time>2026-04-06T13:46:01.599Z</time></trkpt><trkpt lat="44.3523217" lon="9.3542717"><ele>28.0</ele><time>2026-04-06T13:46:02.599Z</time></trkpt><trkpt lat="44.352275" lon="9.3540967"><ele>25.0</ele><time>2026-04-06T13:46:03.598Z</time></trkpt><trkpt lat="44.3522217" lon="9.35391"><ele>22.0</ele><time>2026-04-06T13:46:04.599Z</time></trkpt><trkpt lat="44.3521567" lon="9.3537083"><ele>19.0</ele><time>2026-04-06T13:46:05.601Z</time></trkpt><trkpt lat="44.3520967" lon="9.3534967"><ele>19.0</ele><time>2026-04-06T13:46:06.599Z</time></trkpt><trkpt lat="44.3520417" lon="9.35329"><ele>19.0</ele><time>2026-04-06T13:46:07.6Z</time></trkpt><trkpt lat="44.3519833" lon="9.3530883"><ele>19.0</ele><time>2026-04-06T13:46:08.6Z</time></trkpt><trkpt lat="44.3519167" lon="9.352895"><ele>22.0</ele><time>2026-04-06T13:46:09.6Z</time></trkpt><trkpt lat="44.3518483" lon="9.35272"><ele>25.0</ele><time>2026-04-06T13:46:10.6Z</time></trkpt><trkpt lat="44.3517817" lon="9.352555"><ele>28.0</ele><time>2026-04-06T13:46:11.6Z</time></trkpt><trkpt lat="44.3517217" lon="9.3524"><ele>31.0</ele><time>2026-04-06T13:46:12.6Z</time></trkpt><trkpt lat="44.3516633" lon="9.3522517"><ele>31.8</ele><time>2026-04-06T13:46:13.6Z</time></trkpt><trkpt lat="44.351605" lon="9.35212"><ele>32.6</ele><time>2026-04-06T13:46:14.601Z</time></trkpt><trkpt lat="44.3515333" lon="9.3520033"><ele>33.4</ele><time>2026-04-06T13:46:15.599Z</time></trkpt><trkpt lat="44.3514367" lon="9.3519183"><ele>34.2</ele><time>2026-04-06T13:46:16.598Z</time></trkpt><trkpt lat="44.3513317" lon="9.35187"><ele>35.0</ele><time>2026-04-06T13:46:17.599Z</time></trkpt><trkpt lat="44.3512133" lon="9.3518317"><ele>35.0</ele><time>2026-04-06T13:46:18.597Z</time></trkpt><trkpt lat="44.3510933" lon="9.3517933"><ele>35.0</ele><time>2026-04-06T13:46:19.598Z</time></trkpt><trkpt lat="44.3509667" lon="9.3517533"><ele>35.0</ele><time>2026-04-06T13:46:20.6Z</time></trkpt><trkpt lat="44.3508417" lon="9.351705"><ele>35.0</ele><time>2026-04-06T13:46:21.599Z</time></trkpt><trkpt lat="44.3507167" lon="9.351645"><ele>35.0</ele><time>2026-04-06T13:46:22.597Z</time></trkpt><trkpt lat="44.3505967" lon="9.351585"><ele>35.0</ele><time>2026-04-06T13:46:23.598Z</time></trkpt><trkpt lat="44.3504733" lon="9.351525"><ele>35.0</ele><time>2026-04-06T13:46:24.598Z</time></trkpt><trkpt lat="44.3503467" lon="9.3514833"><ele>35.0</ele><time>2026-04-06T13:46:25.598Z</time></trkpt><trkpt lat="44.350215" lon="9.35146"><ele>32.5</ele><time>2026-04-06T13:46:26.599Z</time></trkpt><trkpt lat="44.350085" lon="9.3514367"><ele>30.0</ele><time>2026-04-06T13:46:27.6Z</time></trkpt><trkpt lat="44.3499617" lon="9.3514167"><ele>27.5</ele><time>2026-04-06T13:46:28.6Z</time></trkpt><trkpt lat="44.3498433" lon="9.3514017"><ele>25.0</ele><time>2026-04-06T13:46:29.598Z</time></trkpt><trkpt lat="44.34973" lon="9.3513883"><ele>24.8</ele><time>2026-04-06T13:46:30.598Z</time></trkpt><trkpt lat="44.349625" lon="9.3513733"><ele>24.6</ele><time>2026-04-06T13:46:31.598Z</time></trkpt><trkpt lat="44.3495283" lon="9.3513467"><ele>24.4</ele><time>2026-04-06T13:46:32.599Z</time></trkpt><trkpt lat="44.349435" lon="9.3513017"><ele>24.2</ele><time>2026-04-06T13:46:33.599Z</time></trkpt><trkpt lat="44.3493533" lon="9.3512317"><ele>24.0</ele><time>2026-04-06T13:46:34.599Z</time></trkpt><trkpt lat="44.349295" lon="9.3511383"><ele>24.0</ele><time>2026-04-06T13:46:35.598Z</time></trkpt><trkpt lat="44.3492483" lon="9.3510267"><ele>24.0</ele><time>2026-04-06T13:46:36.598Z</time></trkpt><trkpt lat="44.3492317" lon="9.3508933"><ele>24.0</ele><time>2026-04-06T13:46:37.599Z</time></trkpt><trkpt lat="44.3492367" lon="9.350745"><ele>24.0</ele><time>2026-04-06T13:46:38.599Z</time></trkpt><trkpt lat="44.349255" lon="9.3505867"><ele>24.0</ele><time>2026-04-06T13:46:39.599Z</time></trkpt><trkpt lat="44.3492817" lon="9.3504233"><ele>23.5</ele><time>2026-04-06T13:46:40.598Z</time></trkpt><trkpt lat="44.3493117" lon="9.3502567"><ele>23.0</ele><time>2026-04-06T13:46:41.598Z</time></trkpt><trkpt lat="44.349335" lon="9.3500917"><ele>22.5</ele><time>2026-04-06T13:46:42.597Z</time></trkpt><trkpt lat="44.3493617" lon="9.3499233"><ele>22.0</ele><time>2026-04-06T13:46:43.597Z</time></trkpt><trkpt lat="44.3493933" lon="9.3497533"><ele>21.5</ele><time>2026-04-06T13:46:44.598Z</time></trkpt><trkpt lat="44.3494217" lon="9.3495867"><ele>21.0</ele><time>2026-04-06T13:46:45.599Z</time></trkpt><trkpt lat="44.3494483" lon="9.3494233"><ele>20.5</ele><time>2026-04-06T13:46:46.599Z</time></trkpt><trkpt lat="44.3494767" lon="9.3492617"><ele>20.0</ele><time>2026-04-06T13:46:47.599Z</time></trkpt><trkpt lat="44.3495067" lon="9.3490983"><ele>20.0</ele><time>2026-04-06T13:46:48.599Z</time></trkpt><trkpt lat="44.349535" lon="9.3489283"><ele>20.0</ele><time>2026-04-06T13:46:49.598Z</time></trkpt><trkpt lat="44.349565" lon="9.34876"><ele>20.0</ele><time>2026-04-06T13:46:50.599Z</time></trkpt><trkpt lat="44.3495883" lon="9.3485983"><ele>20.0</ele><time>2026-04-06T13:46:51.599Z</time></trkpt><trkpt lat="44.3496117" lon="9.3484483"><ele>20.0</ele><time>2026-04-06T13:46:52.6Z</time></trkpt><trkpt lat="44.34964" lon="9.3483017"><ele>20.0</ele><time>2026-04-06T13:46:53.599Z</time></trkpt><trkpt lat="44.3496683" lon="9.34816"><ele>20.0</ele><time>2026-04-06T13:46:54.598Z</time></trkpt><trkpt lat="44.3496933" lon="9.3480233"><ele>20.0</ele><time>2026-04-06T13:46:55.599Z</time></trkpt><trkpt lat="44.3497183" lon="9.3478967"><ele>20.0</ele><time>2026-04-06T13:46:56.599Z</time></trkpt><trkpt lat="44.3497433" lon="9.3477783"><ele>21.166666666666668</ele><time>2026-04-06T13:46:57.597Z</time></trkpt><trkpt lat="44.349765" lon="9.3476667"><ele>22.333333333333336</ele><time>2026-04-06T13:46:58.599Z</time></trkpt><trkpt lat="44.3497833" lon="9.3475633"><ele>23.5</ele><time>2026-04-06T13:46:59.599Z</time></trkpt><trkpt lat="44.3497967" lon="9.34747"><ele>24.666666666666668</ele><time>2026-04-06T13:47:00.599Z</time></trkpt><trkpt lat="44.34981" lon="9.3473783"><ele>25.833333333333332</ele><time>2026-04-06T13:47:01.599Z</time></trkpt><trkpt lat="44.3498233" lon="9.3472767"><ele>27.0</ele><time>2026-04-06T13:47:02.599Z</time></trkpt><trkpt lat="44.3498417" lon="9.347165"><ele>27.0</ele><time>2026-04-06T13:47:03.598Z</time></trkpt><trkpt lat="44.34986" lon="9.3470483"><ele>27.0</ele><time>2026-04-06T13:47:04.6Z</time></trkpt><trkpt lat="44.349875" lon="9.346935"><ele>27.0</ele><time>2026-04-06T13:47:05.602Z</time></trkpt><trkpt lat="44.349885" lon="9.3468217"><ele>27.0</ele><time>2026-04-06T13:47:06.6Z</time></trkpt><trkpt lat="44.3498933" lon="9.3467017"><ele>27.0</ele><time>2026-04-06T13:47:07.601Z</time></trkpt><trkpt lat="44.3499017" lon="9.346575"><ele>27.0</ele><time>2026-04-06T13:47:08.599Z</time></trkpt><trkpt lat="44.349915" lon="9.3464467"><ele>27.0</ele><time>2026-04-06T13:47:09.598Z</time></trkpt><trkpt lat="44.3499267" lon="9.34633"><ele>27.0</ele><time>2026-04-06T13:47:10.598Z</time></trkpt><trkpt lat="44.3499383" lon="9.34622"><ele>27.0</ele><time>2026-04-06T13:47:11.598Z</time></trkpt><trkpt lat="44.3499483" lon="9.3461167"><ele>27.0</ele><time>2026-04-06T13:47:12.599Z</time></trkpt><trkpt lat="44.3499567" lon="9.3460183"><ele>27.0</ele><time>2026-04-06T13:47:13.599Z</time></trkpt><trkpt lat="44.3499633" lon="9.3459233"><ele>27.0</ele><time>2026-04-06T13:47:14.599Z</time></trkpt><trkpt lat="44.3499717" lon="9.345835"><ele>27.0</ele><time>2026-04-06T13:47:15.599Z</time></trkpt><trkpt lat="44.349985" lon="9.3456533"><ele>27.0</ele><time>2026-04-06T13:47:17.599Z</time></trkpt><trkpt lat="44.3499917" lon="9.3455517"><ele>27.0</ele><time>2026-04-06T13:47:18.599Z</time></trkpt><trkpt lat="44.35" lon="9.3454517"><ele>27.0</ele><time>2026-04-06T13:47:19.598Z</time></trkpt><trkpt lat="44.3500133" lon="9.3453483"><ele>27.0</ele><time>2026-04-06T13:47:20.599Z</time></trkpt><trkpt lat="44.3500267" lon="9.345235"><ele>27.0</ele><time>2026-04-06T13:47:21.599Z</time></trkpt><trkpt lat="44.35004" lon="9.3451133"><ele>27.0</ele><time>2026-04-06T13:47:22.598Z</time></trkpt><trkpt lat="44.350055" lon="9.344985"><ele>27.0</ele><time>2026-04-06T13:47:23.598Z</time></trkpt><trkpt lat="44.3500667" lon="9.3448583"><ele>27.000000000000004</ele><time>2026-04-06T13:47:24.598Z</time></trkpt><trkpt lat="44.3500783" lon="9.3447267"><ele>27.000000000000004</ele><time>2026-04-06T13:47:25.599Z</time></trkpt><trkpt lat="44.3500917" lon="9.3445983"><ele>27.0</ele><time>2026-04-06T13:47:26.598Z</time></trkpt><trkpt lat="44.350105" lon="9.3444767"><ele>27.0</ele><time>2026-04-06T13:47:27.599Z</time></trkpt><trkpt lat="44.3501167" lon="9.34436"><ele>27.0</ele><time>2026-04-06T13:47:28.599Z</time></trkpt><trkpt lat="44.3501267" lon="9.3442433"><ele>27.0</ele><time>2026-04-06T13:47:29.599Z</time></trkpt><trkpt lat="44.3501367" lon="9.3441217"><ele>27.0</ele><time>2026-04-06T13:47:30.599Z</time></trkpt><trkpt lat="44.3501517" lon="9.3439983"><ele>27.0</ele><time>2026-04-06T13:47:31.599Z</time></trkpt><trkpt lat="44.35017" lon="9.34388"><ele>27.0</ele><time>2026-04-06T13:47:32.601Z</time></trkpt><trkpt lat="44.350195" lon="9.34377"><ele>27.0</ele><time>2026-04-06T13:47:33.598Z</time></trkpt><trkpt lat="44.3502183" lon="9.3436733"><ele>27.0</ele><time>2026-04-06T13:47:34.599Z</time></trkpt><trkpt lat="44.3502417" lon="9.3435867"><ele>27.0</ele><time>2026-04-06T13:47:35.598Z</time></trkpt><trkpt lat="44.35026" lon="9.3434983"><ele>27.0</ele><time>2026-04-06T13:47:36.599Z</time></trkpt><trkpt lat="44.3502733" lon="9.3434017"><ele>27.0</ele><time>2026-04-06T13:47:37.598Z</time></trkpt><trkpt lat="44.3502933" lon="9.3433017"><ele>27.0</ele><time>2026-04-06T13:47:38.598Z</time></trkpt><trkpt lat="44.350335" lon="9.3432"><ele>27.0</ele><time>2026-04-06T13:47:39.599Z</time></trkpt><trkpt lat="44.350395" lon="9.3431033"><ele>26.8</ele><time>2026-04-06T13:47:40.601Z</time></trkpt><trkpt lat="44.3504733" lon="9.3430267"><ele>26.6</ele><time>2026-04-06T13:47:41.6Z</time></trkpt><trkpt lat="44.3505583" lon="9.3429617"><ele>26.400000000000002</ele><time>2026-04-06T13:47:42.601Z</time></trkpt><trkpt lat="44.3506583" lon="9.34291"><ele>26.200000000000003</ele><time>2026-04-06T13:47:43.601Z</time></trkpt><trkpt lat="44.350765" lon="9.3428833"><ele>26.0</ele><time>2026-04-06T13:47:44.6Z</time></trkpt><trkpt lat="44.3508733" lon="9.3428817"><ele>26.0</ele><time>2026-04-06T13:47:45.601Z</time></trkpt><trkpt lat="44.3509883" lon="9.3429"><ele>26.0</ele><time>2026-04-06T13:47:46.599Z</time></trkpt><trkpt lat="44.3511067" lon="9.34294"><ele>26.0</ele><time>2026-04-06T13:47:47.6Z</time></trkpt><trkpt lat="44.3512217" lon="9.342995"><ele>26.0</ele><time>2026-04-06T13:47:48.598Z</time></trkpt><trkpt lat="44.3513333" lon="9.3430583"><ele>26.200000000000003</ele><time>2026-04-06T13:47:49.598Z</time></trkpt><trkpt lat="44.3514333" lon="9.34312"><ele>26.400000000000002</ele><time>2026-04-06T13:47:50.6Z</time></trkpt><trkpt lat="44.35153" lon="9.343185"><ele>26.6</ele><time>2026-04-06T13:47:51.6Z</time></trkpt><trkpt lat="44.3516217" lon="9.3432483"><ele>26.8</ele><time>2026-04-06T13:47:52.6Z</time></trkpt><trkpt lat="44.3517083" lon="9.3433083"><ele>27.0</ele><time>2026-04-06T13:47:53.6Z</time></trkpt><trkpt lat="44.3517883" lon="9.3433717"><ele>27.0</ele><time>2026-04-06T13:47:54.6Z</time></trkpt><trkpt lat="44.35186" lon="9.3434367"><ele>27.0</ele><time>2026-04-06T13:47:55.603Z</time></trkpt><trkpt lat="44.35192" lon="9.3435"><ele>27.0</ele><time>2026-04-06T13:47:56.601Z</time></trkpt><trkpt lat="44.3519717" lon="9.3435717"><ele>27.0</ele><time>2026-04-06T13:47:57.601Z</time></trkpt><trkpt lat="44.352025" lon="9.3436667"><ele>27.0</ele><time>2026-04-06T13:47:58.601Z</time></trkpt><trkpt lat="44.3520817" lon="9.3437733"><ele>27.0</ele><time>2026-04-06T13:47:59.601Z</time></trkpt><trkpt lat="44.3521417" lon="9.3438883"><ele>26.75</ele><time>2026-04-06T13:48:00.6Z</time></trkpt><trkpt lat="44.352195" lon="9.3440283"><ele>26.5</ele><time>2026-04-06T13:48:01.601Z</time></trkpt><trkpt lat="44.35223" lon="9.3441833"><ele>26.25</ele><time>2026-04-06T13:48:02.601Z</time></trkpt><trkpt lat="44.35226" lon="9.3443533"><ele>26.0</ele><time>2026-04-06T13:48:03.601Z</time></trkpt><trkpt lat="44.35229" lon="9.34454"><ele>27.75</ele><time>2026-04-06T13:48:04.602Z</time></trkpt><trkpt lat="44.3523183" lon="9.3447317"><ele>29.5</ele><time>2026-04-06T13:48:05.602Z</time></trkpt><trkpt lat="44.3523533" lon="9.3449133"><ele>31.25</ele><time>2026-04-06T13:48:06.601Z</time></trkpt><trkpt lat="44.3524033" lon="9.3450733"><ele>33.0</ele><time>2026-04-06T13:48:07.601Z</time></trkpt><trkpt lat="44.352465" lon="9.34522"><ele>33.0</ele><time>2026-04-06T13:48:08.601Z</time></trkpt><trkpt lat="44.3525333" lon="9.3453683"><ele>33.0</ele><time>2026-04-06T13:48:09.602Z</time></trkpt><trkpt lat="44.3526017" lon="9.3455117"><ele>33.0</ele><time>2026-04-06T13:48:10.601Z</time></trkpt><trkpt lat="44.352665" lon="9.3456517"><ele>33.0</ele><time>2026-04-06T13:48:11.601Z</time></trkpt><trkpt lat="44.3527267" lon="9.3457867"><ele>37.2</ele><time>2026-04-06T13:48:12.601Z</time></trkpt><trkpt lat="44.3527783" lon="9.3459217"><ele>41.4</ele><time>2026-04-06T13:48:13.6Z</time></trkpt><trkpt lat="44.3528267" lon="9.3460567"><ele>45.60000000000001</ele><time>2026-04-06T13:48:14.601Z</time></trkpt><trkpt lat="44.3528783" lon="9.3461933"><ele>49.800000000000004</ele><time>2026-04-06T13:48:15.598Z</time></trkpt><trkpt lat="44.3529233" lon="9.346335"><ele>54.0</ele><time>2026-04-06T13:48:16.599Z</time></trkpt><trkpt lat="44.3529683" lon="9.346485"><ele>50.5</ele><time>2026-04-06T13:48:17.598Z</time></trkpt><trkpt lat="44.35302" lon="9.346645"><ele>47.0</ele><time>2026-04-06T13:48:18.599Z</time></trkpt><trkpt lat="44.353085" lon="9.346795"><ele>43.5</ele><time>2026-04-06T13:48:19.598Z</time></trkpt><trkpt lat="44.3531533" lon="9.34693"><ele>40.0</ele><time>2026-04-06T13:48:20.599Z</time></trkpt><trkpt lat="44.3532183" lon="9.347055"><ele>40.0</ele><time>2026-04-06T13:48:21.599Z</time></trkpt><trkpt lat="44.3532883" lon="9.3471833"><ele>40.0</ele><time>2026-04-06T13:48:22.6Z</time></trkpt><trkpt lat="44.3533667" lon="9.3473133"><ele>40.0</ele><time>2026-04-06T13:48:23.598Z</time></trkpt><trkpt lat="44.353455" lon="9.347455"><ele>40.0</ele><time>2026-04-06T13:48:24.599Z</time></trkpt><trkpt lat="44.353565" lon="9.3476083"><ele>42.0</ele><time>2026-04-06T13:48:25.598Z</time></trkpt><trkpt lat="44.3536883" lon="9.3477833"><ele>44.0</ele><time>2026-04-06T13:48:26.599Z</time></trkpt><trkpt lat="44.353805" lon="9.3479817"><ele>46.0</ele><time>2026-04-06T13:48:27.599Z</time></trkpt><trkpt lat="44.3539267" lon="9.3481883"><ele>46.0</ele><time>2026-04-06T13:48:28.599Z</time></trkpt><trkpt lat="44.354045" lon="9.348395"><ele>46.0</ele><time>2026-04-06T13:48:29.599Z</time></trkpt><trkpt lat="44.354165" lon="9.3485933"><ele>46.0</ele><time>2026-04-06T13:48:30.599Z</time></trkpt><trkpt lat="44.3542867" lon="9.3487717"><ele>56.333333333333336</ele><time>2026-04-06T13:48:31.598Z</time></trkpt><trkpt lat="44.3544133" lon="9.3489333"><ele>66.66666666666667</ele><time>2026-04-06T13:48:32.598Z</time></trkpt><trkpt lat="44.3545483" lon="9.3490717"><ele>77.0</ele><time>2026-04-06T13:48:33.599Z</time></trkpt><trkpt lat="44.354695" lon="9.349195"><ele>66.0</ele><time>2026-04-06T13:48:34.598Z</time></trkpt><trkpt lat="44.3548567" lon="9.3493133"><ele>55.0</ele><time>2026-04-06T13:48:35.598Z</time></trkpt><trkpt lat="44.3550317" lon="9.34944"><ele>44.0</ele><time>2026-04-06T13:48:36.598Z</time></trkpt><trkpt lat="44.3552217" lon="9.34958"><ele>46.0</ele><time>2026-04-06T13:48:37.599Z</time></trkpt><trkpt lat="44.3554133" lon="9.3497167"><ele>48.0</ele><time>2026-04-06T13:48:38.599Z</time></trkpt><trkpt lat="44.355595" lon="9.34985"><ele>50.0</ele><time>2026-04-06T13:48:39.598Z</time></trkpt><trkpt lat="44.35577" lon="9.3499683"><ele>50.0</ele><time>2026-04-06T13:48:40.599Z</time></trkpt><trkpt lat="44.355945" lon="9.350075"><ele>50.0</ele><time>2026-04-06T13:48:41.599Z</time></trkpt><trkpt lat="44.35611" lon="9.35017"><ele>50.0</ele><time>2026-04-06T13:48:42.604Z</time></trkpt><trkpt lat="44.3562667" lon="9.3502633"><ele>45.333333333333336</ele><time>2026-04-06T13:48:43.6Z</time></trkpt><trkpt lat="44.3564183" lon="9.350345"><ele>40.66666666666667</ele><time>2026-04-06T13:48:44.599Z</time></trkpt><trkpt lat="44.3565667" lon="9.350425"><ele>36.0</ele><time>2026-04-06T13:48:45.599Z</time></trkpt><trkpt lat="44.3567133" lon="9.3504933"><ele>36.0</ele><time>2026-04-06T13:48:46.599Z</time></trkpt><trkpt lat="44.3568683" lon="9.3505383"><ele>36.0</ele><time>2026-04-06T13:48:47.6Z</time></trkpt><trkpt lat="44.357035" lon="9.3505483"><ele>36.0</ele><time>2026-04-06T13:48:48.598Z</time></trkpt><trkpt lat="44.35721" lon="9.3505233"><ele>35.0</ele><time>2026-04-06T13:48:49.599Z</time></trkpt><trkpt lat="44.357385" lon="9.3504833"><ele>34.0</ele><time>2026-04-06T13:48:50.599Z</time></trkpt><trkpt lat="44.357555" lon="9.3504367"><ele>33.0</ele><time>2026-04-06T13:48:51.598Z</time></trkpt><trkpt lat="44.3577233" lon="9.350385"><ele>33.0</ele><time>2026-04-06T13:48:52.598Z</time></trkpt><trkpt lat="44.3578917" lon="9.35035"><ele>33.0</ele><time>2026-04-06T13:48:53.597Z</time></trkpt><trkpt lat="44.3580533" lon="9.3503367"><ele>33.0</ele><time>2026-04-06T13:48:54.598Z</time></trkpt><trkpt lat="44.3582033" lon="9.3503583"><ele>33.75</ele><time>2026-04-06T13:48:55.598Z</time></trkpt><trkpt lat="44.3583483" lon="9.3504117"><ele>34.5</ele><time>2026-04-06T13:48:56.598Z</time></trkpt><trkpt lat="44.3584817" lon="9.3504967"><ele>35.25</ele><time>2026-04-06T13:48:57.599Z</time></trkpt><trkpt lat="44.3586067" lon="9.3506117"><ele>36.0</ele><time>2026-04-06T13:48:58.599Z</time></trkpt><trkpt lat="44.3587183" lon="9.3507533"><ele>36.0</ele><time>2026-04-06T13:48:59.6Z</time></trkpt><trkpt lat="44.3588217" lon="9.3509267"><ele>36.0</ele><time>2026-04-06T13:49:00.599Z</time></trkpt><trkpt lat="44.358915" lon="9.3511267"><ele>36.0</ele><time>2026-04-06T13:49:01.599Z</time></trkpt><trkpt lat="44.3590083" lon="9.3513433"><ele>37.333333333333336</ele><time>2026-04-06T13:49:02.599Z</time></trkpt><trkpt lat="44.3591133" lon="9.35157"><ele>38.66666666666667</ele><time>2026-04-06T13:49:03.599Z</time></trkpt><trkpt lat="44.35923" lon="9.3517967"><ele>40.0</ele><time>2026-04-06T13:49:04.599Z</time></trkpt><trkpt lat="44.3593633" lon="9.35202"><ele>40.0</ele><time>2026-04-06T13:49:05.599Z</time></trkpt><trkpt lat="44.35951" lon="9.352235"><ele>40.0</ele><time>2026-04-06T13:49:06.598Z</time></trkpt><trkpt lat="44.3596667" lon="9.35244"><ele>40.0</ele><time>2026-04-06T13:49:07.601Z</time></trkpt><trkpt lat="44.35983" lon="9.3526333"><ele>40.0</ele><time>2026-04-06T13:49:08.6Z</time></trkpt><trkpt lat="44.35999" lon="9.35282"><ele>40.0</ele><time>2026-04-06T13:49:09.598Z</time></trkpt><trkpt lat="44.3601417" lon="9.3530083"><ele>40.0</ele><time>2026-04-06T13:49:10.599Z</time></trkpt><trkpt lat="44.3602817" lon="9.353195"><ele>39.66666666666667</ele><time>2026-04-06T13:49:11.598Z</time></trkpt><trkpt lat="44.3604017" lon="9.35338"><ele>39.333333333333336</ele><time>2026-04-06T13:49:12.598Z</time></trkpt><trkpt lat="44.3605033" lon="9.3535867"><ele>39.0</ele><time>2026-04-06T13:49:13.599Z</time></trkpt><trkpt lat="44.3605933" lon="9.3538133"><ele>42.66666666666667</ele><time>2026-04-06T13:49:14.598Z</time></trkpt><trkpt lat="44.3606817" lon="9.35405"><ele>46.333333333333336</ele><time>2026-04-06T13:49:15.598Z</time></trkpt><trkpt lat="44.36077" lon="9.3542967"><ele>50.0</ele><time>2026-04-06T13:49:16.598Z</time></trkpt><trkpt lat="44.3608567" lon="9.354545"><ele>57.333333333333336</ele><time>2026-04-06T13:49:17.6Z</time></trkpt><trkpt lat="44.3609433" lon="9.35478"><ele>64.66666666666667</ele><time>2026-04-06T13:49:18.599Z</time></trkpt><trkpt lat="44.3610283" lon="9.3550033"><ele>72.0</ele><time>2026-04-06T13:49:19.599Z</time></trkpt><trkpt lat="44.3611283" lon="9.3552083"><ele>72.0</ele><time>2026-04-06T13:49:20.599Z</time></trkpt><trkpt lat="44.3612317" lon="9.3553983"><ele>72.0</ele><time>2026-04-06T13:49:21.599Z</time></trkpt><trkpt lat="44.3613233" lon="9.3555933"><ele>72.0</ele><time>2026-04-06T13:49:22.598Z</time></trkpt><trkpt lat="44.3614033" lon="9.3558017"><ele>67.33333333333333</ele><time>2026-04-06T13:49:23.599Z</time></trkpt><trkpt lat="44.3614683" lon="9.3560233"><ele>62.666666666666664</ele><time>2026-04-06T13:49:24.602Z</time></trkpt><trkpt lat="44.36152" lon="9.356245"><ele>58.0</ele><time>2026-04-06T13:49:25.598Z</time></trkpt><trkpt lat="44.3615667" lon="9.3564567"><ele>58.0</ele><time>2026-04-06T13:49:26.599Z</time></trkpt><trkpt lat="44.361615" lon="9.3566533"><ele>58.0</ele><time>2026-04-06T13:49:27.598Z</time></trkpt><trkpt lat="44.3616767" lon="9.356835"><ele>58.0</ele><time>2026-04-06T13:49:28.599Z</time></trkpt><trkpt lat="44.3617583" lon="9.356995"><ele>58.0</ele><time>2026-04-06T13:49:29.598Z</time></trkpt><trkpt lat="44.3618533" lon="9.3571267"><ele>59.25</ele><time>2026-04-06T13:49:30.599Z</time></trkpt><trkpt lat="44.3619617" lon="9.3572317"><ele>60.5</ele><time>2026-04-06T13:49:31.599Z</time></trkpt><trkpt lat="44.3620867" lon="9.3573017"><ele>61.75</ele><time>2026-04-06T13:49:32.599Z</time></trkpt><trkpt lat="44.3622233" lon="9.3573367"><ele>63.0</ele><time>2026-04-06T13:49:33.598Z</time></trkpt><trkpt lat="44.362355" lon="9.357355"><ele>63.0</ele><time>2026-04-06T13:49:34.599Z</time></trkpt><trkpt lat="44.3624817" lon="9.3573617"><ele>63.0</ele><time>2026-04-06T13:49:35.6Z</time></trkpt><trkpt lat="44.3625983" lon="9.357375"><ele>63.0</ele><time>2026-04-06T13:49:36.599Z</time></trkpt><trkpt lat="44.3627117" lon="9.357375"><ele>63.0</ele><time>2026-04-06T13:49:37.599Z</time></trkpt><trkpt lat="44.3628183" lon="9.3573783"><ele>63.0</ele><time>2026-04-06T13:49:38.598Z</time></trkpt><trkpt lat="44.3629217" lon="9.3573817"><ele>63.0</ele><time>2026-04-06T13:49:39.599Z</time></trkpt><trkpt lat="44.36302" lon="9.3573917"><ele>63.0</ele><time>2026-04-06T13:49:40.599Z</time></trkpt><trkpt lat="44.3631233" lon="9.3574033"><ele>63.0</ele><time>2026-04-06T13:49:41.599Z</time></trkpt><trkpt lat="44.3632317" lon="9.3574167"><ele>63.0</ele><time>2026-04-06T13:49:42.598Z</time></trkpt><trkpt lat="44.36334" lon="9.3574283"><ele>59.25</ele><time>2026-04-06T13:49:43.599Z</time></trkpt><trkpt lat="44.363455" lon="9.3574383"><ele>55.5</ele><time>2026-04-06T13:49:44.599Z</time></trkpt><trkpt lat="44.3635767" lon="9.3574517"><ele>51.75</ele><time>2026-04-06T13:49:45.599Z</time></trkpt><trkpt lat="44.3637" lon="9.3574667"><ele>48.0</ele><time>2026-04-06T13:49:46.599Z</time></trkpt><trkpt lat="44.3638333" lon="9.3574867"><ele>47.5</ele><time>2026-04-06T13:49:47.598Z</time></trkpt><trkpt lat="44.3639733" lon="9.3575083"><ele>47.0</ele><time>2026-04-06T13:49:48.598Z</time></trkpt><trkpt lat="44.3641217" lon="9.3575283"><ele>46.5</ele><time>2026-04-06T13:49:49.599Z</time></trkpt><trkpt lat="44.36427" lon="9.35755"><ele>46.0</ele><time>2026-04-06T13:49:50.598Z</time></trkpt><trkpt lat="44.3644183" lon="9.35757"><ele>46.0</ele><time>2026-04-06T13:49:51.599Z</time></trkpt><trkpt lat="44.3645567" lon="9.357585"><ele>46.0</ele><time>2026-04-06T13:49:52.599Z</time></trkpt><trkpt lat="44.364685" lon="9.357595"><ele>46.0</ele><time>2026-04-06T13:49:53.599Z</time></trkpt><trkpt lat="44.364815" lon="9.3576083"><ele>46.0</ele><time>2026-04-06T13:49:54.597Z</time></trkpt><trkpt lat="44.3649483" lon="9.3576233"><ele>47.5</ele><time>2026-04-06T13:49:55.6Z</time></trkpt><trkpt lat="44.3650817" lon="9.35764"><ele>49.0</ele><time>2026-04-06T13:49:56.599Z</time></trkpt><trkpt lat="44.365215" lon="9.3576517"><ele>50.5</ele><time>2026-04-06T13:49:57.599Z</time></trkpt><trkpt lat="44.36535" lon="9.3576633"><ele>52.0</ele><time>2026-04-06T13:49:58.599Z</time></trkpt><trkpt lat="44.365485" lon="9.357675"><ele>53.0</ele><time>2026-04-06T13:49:59.599Z</time></trkpt><trkpt lat="44.365615" lon="9.3576867"><ele>54.0</ele><time>2026-04-06T13:50:00.598Z</time></trkpt><trkpt lat="44.36574" lon="9.35769"><ele>55.0</ele><time>2026-04-06T13:50:01.599Z</time></trkpt><trkpt lat="44.3658633" lon="9.35768"><ele>56.0</ele><time>2026-04-06T13:50:02.6Z</time></trkpt><trkpt lat="44.3659833" lon="9.3576433"><ele>56.0</ele><time>2026-04-06T13:50:03.6Z</time></trkpt><trkpt lat="44.3660967" lon="9.35758"><ele>56.0</ele><time>2026-04-06T13:50:04.598Z</time></trkpt><trkpt lat="44.3662033" lon="9.3574967"><ele>56.0</ele><time>2026-04-06T13:50:05.6Z</time></trkpt><trkpt lat="44.366305" lon="9.357405"><ele>56.0</ele><time>2026-04-06T13:50:06.599Z</time></trkpt><trkpt lat="44.3664067" lon="9.3573133"><ele>56.25</ele><time>2026-04-06T13:50:07.599Z</time></trkpt><trkpt lat="44.3665083" lon="9.3572283"><ele>56.5</ele><time>2026-04-06T13:50:08.598Z</time></trkpt><trkpt lat="44.3666117" lon="9.3571533"><ele>56.75</ele><time>2026-04-06T13:50:09.599Z</time></trkpt><trkpt lat="44.3667183" lon="9.357085"><ele>57.0</ele><time>2026-04-06T13:50:10.599Z</time></trkpt><trkpt lat="44.3668267" lon="9.3570233"><ele>57.0</ele><time>2026-04-06T13:50:11.6Z</time></trkpt><trkpt lat="44.3669383" lon="9.3569683"><ele>57.0</ele><time>2026-04-06T13:50:12.599Z</time></trkpt><trkpt lat="44.36705" lon="9.356925"><ele>57.0</ele><time>2026-04-06T13:50:13.598Z</time></trkpt><trkpt lat="44.36716" lon="9.3568883"><ele>57.0</ele><time>2026-04-06T13:50:14.6Z</time></trkpt><trkpt lat="44.3672717" lon="9.3568567"><ele>60.0</ele><time>2026-04-06T13:50:15.598Z</time></trkpt><trkpt lat="44.3673883" lon="9.3568283"><ele>63.0</ele><time>2026-04-06T13:50:16.598Z</time></trkpt><trkpt lat="44.3675067" lon="9.3568033"><ele>66.0</ele><time>2026-04-06T13:50:17.599Z</time></trkpt><trkpt lat="44.3676183" lon="9.35679"><ele>69.0</ele><time>2026-04-06T13:50:18.599Z</time></trkpt><trkpt lat="44.36773" lon="9.356775"><ele>69.0</ele><time>2026-04-06T13:50:19.598Z</time></trkpt><trkpt lat="44.367835" lon="9.35676"><ele>69.0</ele><time>2026-04-06T13:50:20.599Z</time></trkpt><trkpt lat="44.3679383" lon="9.3567383"><ele>69.0</ele><time>2026-04-06T13:50:21.598Z</time></trkpt><trkpt lat="44.3680367" lon="9.3566983"><ele>69.0</ele><time>2026-04-06T13:50:22.599Z</time></trkpt><trkpt lat="44.3681317" lon="9.3566467"><ele>69.0</ele><time>2026-04-06T13:50:23.599Z</time></trkpt><trkpt lat="44.3682283" lon="9.3565933"><ele>69.2</ele><time>2026-04-06T13:50:24.599Z</time></trkpt><trkpt lat="44.3683217" lon="9.3565283"><ele>69.4</ele><time>2026-04-06T13:50:25.598Z</time></trkpt><trkpt lat="44.3684083" lon="9.3564533"><ele>69.6</ele><time>2026-04-06T13:50:26.599Z</time></trkpt><trkpt lat="44.3684833" lon="9.3563683"><ele>69.8</ele><time>2026-04-06T13:50:27.599Z</time></trkpt><trkpt lat="44.3685467" lon="9.3562833"><ele>70.0</ele><time>2026-04-06T13:50:28.599Z</time></trkpt><trkpt lat="44.3686117" lon="9.3562033"><ele>70.0</ele><time>2026-04-06T13:50:29.599Z</time></trkpt><trkpt lat="44.368685" lon="9.3561417"><ele>70.0</ele><time>2026-04-06T13:50:30.6Z</time></trkpt><trkpt lat="44.368765" lon="9.3561"><ele>70.0</ele><time>2026-04-06T13:50:31.598Z</time></trkpt><trkpt lat="44.36885" lon="9.3560883"><ele>70.0</ele><time>2026-04-06T13:50:32.599Z</time></trkpt><trkpt lat="44.3689433" lon="9.3561133"><ele>70.0</ele><time>2026-04-06T13:50:33.599Z</time></trkpt><trkpt lat="44.3690433" lon="9.3561667"><ele>68.5</ele><time>2026-04-06T13:50:34.599Z</time></trkpt><trkpt lat="44.3691533" lon="9.356235"><ele>67.0</ele><time>2026-04-06T13:50:35.6Z</time></trkpt><trkpt lat="44.3692583" lon="9.356295"><ele>65.5</ele><time>2026-04-06T13:50:36.598Z</time></trkpt><trkpt lat="44.3693667" lon="9.3563617"><ele>64.0</ele><time>2026-04-06T13:50:37.599Z</time></trkpt><trkpt lat="44.3694867" lon="9.3564317"><ele>72.66666666666666</ele><time>2026-04-06T13:50:38.599Z</time></trkpt><trkpt lat="44.3696167" lon="9.356485"><ele>81.33333333333333</ele><time>2026-04-06T13:50:39.599Z</time></trkpt><trkpt lat="44.369775" lon="9.35653"><ele>90.0</ele><time>2026-04-06T13:50:40.599Z</time></trkpt><trkpt lat="44.369955" lon="9.35658"><ele>90.0</ele><time>2026-04-06T13:50:41.599Z</time></trkpt><trkpt lat="44.3701283" lon="9.3566333"><ele>90.0</ele><time>2026-04-06T13:50:42.599Z</time></trkpt><trkpt lat="44.37029" lon="9.3566817"><ele>90.0</ele><time>2026-04-06T13:50:43.598Z</time></trkpt><trkpt lat="44.370435" lon="9.3567367"><ele>84.0</ele><time>2026-04-06T13:50:44.599Z</time></trkpt><trkpt lat="44.3705617" lon="9.3568217"><ele>78.0</ele><time>2026-04-06T13:50:45.599Z</time></trkpt><trkpt lat="44.370685" lon="9.3569567"><ele>72.0</ele><time>2026-04-06T13:50:46.598Z</time></trkpt><trkpt lat="44.3707867" lon="9.3571267"><ele>77.25</ele><time>2026-04-06T13:50:47.599Z</time></trkpt><trkpt lat="44.370875" lon="9.3572983"><ele>82.5</ele><time>2026-04-06T13:50:48.599Z</time></trkpt><trkpt lat="44.3709517" lon="9.3574683"><ele>87.75</ele><time>2026-04-06T13:50:49.6Z</time></trkpt><trkpt lat="44.37099" lon="9.35765"><ele>93.0</ele><time>2026-04-06T13:50:50.599Z</time></trkpt><trkpt lat="44.370995" lon="9.3578467"><ele>95.0</ele><time>2026-04-06T13:50:51.599Z</time></trkpt><trkpt lat="44.37097" lon="9.358045"><ele>97.0</ele><time>2026-04-06T13:50:52.599Z</time></trkpt><trkpt lat="44.37094" lon="9.3582333"><ele>99.0</ele><time>2026-04-06T13:50:53.598Z</time></trkpt><trkpt lat="44.3709183" lon="9.3584067"><ele>101.0</ele><time>2026-04-06T13:50:54.598Z</time></trkpt><trkpt lat="44.3708917" lon="9.3585683"><ele>101.0</ele><time>2026-04-06T13:50:55.599Z</time></trkpt><trkpt lat="44.3708617" lon="9.3587217"><ele>101.0</ele><time>2026-04-06T13:50:56.6Z</time></trkpt><trkpt lat="44.3708367" lon="9.3588667"><ele>101.0</ele><time>2026-04-06T13:50:57.598Z</time></trkpt><trkpt lat="44.370835" lon="9.3590067"><ele>101.0</ele><time>2026-04-06T13:50:58.598Z</time></trkpt><trkpt lat="44.370855" lon="9.3591483"><ele>101.0</ele><time>2026-04-06T13:50:59.6Z</time></trkpt><trkpt lat="44.3708967" lon="9.359295"><ele>102.75</ele><time>2026-04-06T13:51:00.599Z</time></trkpt><trkpt lat="44.3709433" lon="9.35945"><ele>104.5</ele><time>2026-04-06T13:51:01.598Z</time></trkpt><trkpt lat="44.37099" lon="9.3596033"><ele>106.25</ele><time>2026-04-06T13:51:02.599Z</time></trkpt><trkpt lat="44.3710233" lon="9.359755"><ele>108.0</ele><time>2026-04-06T13:51:03.599Z</time></trkpt><trkpt lat="44.37105" lon="9.3598983"><ele>109.2</ele><time>2026-04-06T13:51:04.599Z</time></trkpt><trkpt lat="44.3710633" lon="9.360035"><ele>110.4</ele><time>2026-04-06T13:51:05.598Z</time></trkpt><trkpt lat="44.3710783" lon="9.360165"><ele>111.60000000000001</ele><time>2026-04-06T13:51:06.598Z</time></trkpt><trkpt lat="44.371095" lon="9.3602933"><ele>112.80000000000001</ele><time>2026-04-06T13:51:07.599Z</time></trkpt><trkpt lat="44.37113" lon="9.3604133"><ele>114.0</ele><time>2026-04-06T13:51:08.599Z</time></trkpt><trkpt lat="44.371185" lon="9.3605233"><ele>117.4</ele><time>2026-04-06T13:51:09.599Z</time></trkpt><trkpt lat="44.3712617" lon="9.360615"><ele>120.80000000000001</ele><time>2026-04-06T13:51:10.599Z</time></trkpt><trkpt lat="44.3713517" lon="9.360685"><ele>124.19999999999999</ele><time>2026-04-06T13:51:11.599Z</time></trkpt><trkpt lat="44.3714567" lon="9.3607317"><ele>127.6</ele><time>2026-04-06T13:51:12.598Z</time></trkpt><trkpt lat="44.3715733" lon="9.3607633"><ele>131.0</ele><time>2026-04-06T13:51:13.599Z</time></trkpt><trkpt lat="44.3717" lon="9.3607867"><ele>122.0</ele><time>2026-04-06T13:51:14.6Z</time></trkpt><trkpt lat="44.371825" lon="9.3608083"><ele>113.0</ele><time>2026-04-06T13:51:15.598Z</time></trkpt><trkpt lat="44.3719533" lon="9.3608217"><ele>104.0</ele><time>2026-04-06T13:51:16.599Z</time></trkpt><trkpt lat="44.3720767" lon="9.3608333"><ele>95.0</ele><time>2026-04-06T13:51:17.599Z</time></trkpt><trkpt lat="44.3721933" lon="9.36084"><ele>92.0</ele><time>2026-04-06T13:51:18.599Z</time></trkpt><trkpt lat="44.3723062" lon="9.360836"><ele>89.0</ele><time>2026-04-06T13:51:19.599Z</time></trkpt><trkpt lat="44.3724234" lon="9.3608279"><ele>86.0</ele><time>2026-04-06T13:51:20.598Z</time></trkpt><trkpt lat="44.372542" lon="9.3608158"><ele>83.0</ele><time>2026-04-06T13:51:21.599Z</time></trkpt><trkpt lat="44.3726646" lon="9.360808"><ele>83.0</ele><time>2026-04-06T13:51:22.598Z</time></trkpt><trkpt lat="44.3727913" lon="9.3608052"><ele>83.0</ele><time>2026-04-06T13:51:23.599Z</time></trkpt><trkpt lat="44.3729213" lon="9.3608029"><ele>83.0</ele><time>2026-04-06T13:51:24.599Z</time></trkpt><trkpt lat="44.3730555" lon="9.360803"><ele>83.0</ele><time>2026-04-06T13:51:25.599Z</time></trkpt><trkpt lat="44.3731869" lon="9.3607988"><ele>81.0</ele><time>2026-04-06T13:51:26.599Z</time></trkpt><trkpt lat="44.3733141" lon="9.3607944"><ele>79.0</ele><time>2026-04-06T13:51:27.599Z</time></trkpt><trkpt lat="44.3734326" lon="9.3607948"><ele>77.0</ele><time>2026-04-06T13:51:28.599Z</time></trkpt><trkpt lat="44.3735368" lon="9.3608127"><ele>75.0</ele><time>2026-04-06T13:51:29.599Z</time></trkpt><trkpt lat="44.3736307" lon="9.3608656"><ele>75.0</ele><time>2026-04-06T13:51:30.599Z</time></trkpt><trkpt lat="44.3737093" lon="9.3609456"><ele>75.0</ele><time>2026-04-06T13:51:31.598Z</time></trkpt><trkpt lat="44.3737505" lon="9.3610668"><ele>75.0</ele><time>2026-04-06T13:51:32.599Z</time></trkpt><trkpt lat="44.3737501" lon="9.3612183"><ele>75.0</ele><time>2026-04-06T13:51:33.598Z</time></trkpt><trkpt lat="44.3737193" lon="9.3613909"><ele>75.0</ele><time>2026-04-06T13:51:34.6Z</time></trkpt><trkpt lat="44.3736672" lon="9.3615684"><ele>79.75</ele><time>2026-04-06T13:51:35.6Z</time></trkpt><trkpt lat="44.3736131" lon="9.3617355"><ele>84.5</ele><time>2026-04-06T13:51:36.599Z</time></trkpt><trkpt lat="44.3735585" lon="9.3618902"><ele>89.25</ele><time>2026-04-06T13:51:37.6Z</time></trkpt><trkpt lat="44.3735084" lon="9.3620317"><ele>94.0</ele><time>2026-04-06T13:51:38.599Z</time></trkpt><trkpt lat="44.3734614" lon="9.3621649"><ele>94.80000000000001</ele><time>2026-04-06T13:51:39.599Z</time></trkpt><trkpt lat="44.3734235" lon="9.3622956"><ele>95.60000000000001</ele><time>2026-04-06T13:51:40.601Z</time></trkpt><trkpt lat="44.3734062" lon="9.3624306"><ele>96.4</ele><time>2026-04-06T13:51:41.6Z</time></trkpt><trkpt lat="44.3734197" lon="9.3625665"><ele>97.2</ele><time>2026-04-06T13:51:42.599Z</time></trkpt><trkpt lat="44.373479" lon="9.3626832"><ele>98.0</ele><time>2026-04-06T13:51:43.601Z</time></trkpt><trkpt lat="44.3735592" lon="9.3627746"><ele>98.0</ele><time>2026-04-06T13:51:44.599Z</time></trkpt><trkpt lat="44.3736579" lon="9.3628421"><ele>98.0</ele><time>2026-04-06T13:51:45.598Z</time></trkpt><trkpt lat="44.3737744" lon="9.3629055"><ele>98.0</ele><time>2026-04-06T13:51:46.6Z</time></trkpt><trkpt lat="44.3738871" lon="9.3629802"><ele>98.0</ele><time>2026-04-06T13:51:47.6Z</time></trkpt><trkpt lat="44.3739993" lon="9.3630689"><ele>96.0</ele><time>2026-04-06T13:51:48.598Z</time></trkpt><trkpt lat="44.3740998" lon="9.363166"><ele>94.0</ele><time>2026-04-06T13:51:49.598Z</time></trkpt><trkpt lat="44.3741939" lon="9.363263"><ele>92.0</ele><time>2026-04-06T13:51:50.6Z</time></trkpt><trkpt lat="44.3742829" lon="9.3633544"><ele>90.0</ele><time>2026-04-06T13:51:51.599Z</time></trkpt><trkpt lat="44.374369" lon="9.3634459"><ele>90.0</ele><time>2026-04-06T13:51:52.598Z</time></trkpt><trkpt lat="44.3744457" lon="9.3635417"><ele>90.0</ele><time>2026-04-06T13:51:53.6Z</time></trkpt><trkpt lat="44.3745081" lon="9.3636507"><ele>90.0</ele><time>2026-04-06T13:51:54.599Z</time></trkpt><trkpt lat="44.3745482" lon="9.3637777"><ele>90.0</ele><time>2026-04-06T13:51:55.599Z</time></trkpt><trkpt lat="44.3745765" lon="9.3639131"><ele>90.0</ele><time>2026-04-06T13:51:56.598Z</time></trkpt><trkpt lat="44.3746048" lon="9.3640498"><ele>88.0</ele><time>2026-04-06T13:51:57.599Z</time></trkpt><trkpt lat="44.3746504" lon="9.3641776"><ele>86.0</ele><time>2026-04-06T13:51:58.598Z</time></trkpt><trkpt lat="44.3747078" lon="9.364284"><ele>84.0</ele><time>2026-04-06T13:51:59.598Z</time></trkpt><trkpt lat="44.3747748" lon="9.3643698"><ele>82.0</ele><time>2026-04-06T13:52:00.599Z</time></trkpt><trkpt lat="44.374848" lon="9.3644411"><ele>80.0</ele><time>2026-04-06T13:52:01.599Z</time></trkpt><trkpt lat="44.3749305" lon="9.3645038"><ele>80.0</ele><time>2026-04-06T13:52:02.599Z</time></trkpt><trkpt lat="44.3750189" lon="9.364566"><ele>80.0</ele><time>2026-04-06T13:52:03.598Z</time></trkpt><trkpt lat="44.3751129" lon="9.3646418"><ele>80.0</ele><time>2026-04-06T13:52:04.598Z</time></trkpt><trkpt lat="44.3752066" lon="9.3647199"><ele>80.0</ele><time>2026-04-06T13:52:05.599Z</time></trkpt><trkpt lat="44.3752905" lon="9.3648032"><ele>80.0</ele><time>2026-04-06T13:52:06.599Z</time></trkpt><trkpt lat="44.375366" lon="9.3648938"><ele>78.6</ele><time>2026-04-06T13:52:07.599Z</time></trkpt><trkpt lat="44.3754339" lon="9.364998"><ele>77.2</ele><time>2026-04-06T13:52:08.599Z</time></trkpt><trkpt lat="44.3754968" lon="9.3651166"><ele>75.8</ele><time>2026-04-06T13:52:09.599Z</time></trkpt><trkpt lat="44.3755549" lon="9.365242"><ele>74.4</ele><time>2026-04-06T13:52:10.6Z</time></trkpt><trkpt lat="44.3756039" lon="9.3653689"><ele>73.0</ele><time>2026-04-06T13:52:11.6Z</time></trkpt><trkpt lat="44.3756474" lon="9.3655007"><ele>75.8</ele><time>2026-04-06T13:52:12.599Z</time></trkpt><trkpt lat="44.3756967" lon="9.3656362"><ele>78.6</ele><time>2026-04-06T13:52:13.598Z</time></trkpt><trkpt lat="44.3757564" lon="9.3657671"><ele>81.39999999999999</ele><time>2026-04-06T13:52:14.599Z</time></trkpt><trkpt lat="44.3758321" lon="9.3658789"><ele>84.19999999999999</ele><time>2026-04-06T13:52:15.599Z</time></trkpt><trkpt lat="44.3759261" lon="9.3659696"><ele>87.0</ele><time>2026-04-06T13:52:16.599Z</time></trkpt><trkpt lat="44.3760352" lon="9.3660466"><ele>87.0</ele><time>2026-04-06T13:52:17.599Z</time></trkpt><trkpt lat="44.3761482" lon="9.3661277"><ele>87.0</ele><time>2026-04-06T13:52:18.598Z</time></trkpt><trkpt lat="44.3762564" lon="9.3662256"><ele>87.0</ele><time>2026-04-06T13:52:19.598Z</time></trkpt><trkpt lat="44.3763639" lon="9.3663412"><ele>87.0</ele><time>2026-04-06T13:52:20.6Z</time></trkpt><trkpt lat="44.3764724" lon="9.3664689"><ele>84.33333333333333</ele><time>2026-04-06T13:52:21.599Z</time></trkpt><trkpt lat="44.3765954" lon="9.3666146"><ele>81.66666666666666</ele><time>2026-04-06T13:52:22.598Z</time></trkpt><trkpt lat="44.3767325" lon="9.3667763"><ele>79.0</ele><time>2026-04-06T13:52:23.599Z</time></trkpt><trkpt lat="44.3768678" lon="9.3669399"><ele>79.0</ele><time>2026-04-06T13:52:24.599Z</time></trkpt><trkpt lat="44.376999" lon="9.3670932"><ele>79.0</ele><time>2026-04-06T13:52:25.6Z</time></trkpt><trkpt lat="44.3771274" lon="9.3672294"><ele>79.0</ele><time>2026-04-06T13:52:26.599Z</time></trkpt><trkpt lat="44.3772539" lon="9.3673513"><ele>77.0</ele><time>2026-04-06T13:52:27.599Z</time></trkpt><trkpt lat="44.3773815" lon="9.367479"><ele>75.0</ele><time>2026-04-06T13:52:28.599Z</time></trkpt><trkpt lat="44.3775139" lon="9.367629"><ele>73.0</ele><time>2026-04-06T13:52:29.599Z</time></trkpt><trkpt lat="44.3776437" lon="9.367816"><ele>82.0</ele><time>2026-04-06T13:52:30.6Z</time></trkpt><trkpt lat="44.3777645" lon="9.3680332"><ele>91.0</ele><time>2026-04-06T13:52:31.598Z</time></trkpt><trkpt lat="44.3778788" lon="9.3682487"><ele>100.0</ele><time>2026-04-06T13:52:32.601Z</time></trkpt><trkpt lat="44.3779889" lon="9.3684382"><ele>95.5</ele><time>2026-04-06T13:52:33.6Z</time></trkpt><trkpt lat="44.3780927" lon="9.3686001"><ele>91.0</ele><time>2026-04-06T13:52:34.599Z</time></trkpt><trkpt lat="44.3781839" lon="9.3687392"><ele>86.5</ele><time>2026-04-06T13:52:35.599Z</time></trkpt><trkpt lat="44.3782617" lon="9.3688647"><ele>82.0</ele><time>2026-04-06T13:52:36.599Z</time></trkpt><trkpt lat="44.3783526" lon="9.368998"><ele>82.0</ele><time>2026-04-06T13:52:37.6Z</time></trkpt><trkpt lat="44.3784628" lon="9.3691595"><ele>82.0</ele><time>2026-04-06T13:52:38.599Z</time></trkpt><trkpt lat="44.3785858" lon="9.3693557"><ele>82.0</ele><time>2026-04-06T13:52:39.598Z</time></trkpt><trkpt lat="44.3787175" lon="9.369581"><ele>80.33333333333333</ele><time>2026-04-06T13:52:40.599Z</time></trkpt><trkpt lat="44.3788576" lon="9.3698101"><ele>78.66666666666667</ele><time>2026-04-06T13:52:41.599Z</time></trkpt><trkpt lat="44.3789949" lon="9.37002"><ele>77.0</ele><time>2026-04-06T13:52:42.599Z</time></trkpt><trkpt lat="44.3791302" lon="9.3702163"><ele>77.0</ele><time>2026-04-06T13:52:43.599Z</time></trkpt><trkpt lat="44.3792658" lon="9.3704085"><ele>77.0</ele><time>2026-04-06T13:52:44.599Z</time></trkpt><trkpt lat="44.3793972" lon="9.3705974"><ele>77.0</ele><time>2026-04-06T13:52:45.599Z</time></trkpt><trkpt lat="44.3795272" lon="9.370786"><ele>76.66666666666667</ele><time>2026-04-06T13:52:46.597Z</time></trkpt><trkpt lat="44.3796679" lon="9.3709758"><ele>76.33333333333333</ele><time>2026-04-06T13:52:47.599Z</time></trkpt><trkpt lat="44.3798214" lon="9.3711662"><ele>76.0</ele><time>2026-04-06T13:52:48.599Z</time></trkpt><trkpt lat="44.3799846" lon="9.3713607"><ele>80.66666666666666</ele><time>2026-04-06T13:52:49.599Z</time></trkpt><trkpt lat="44.3801496" lon="9.3715596"><ele>85.33333333333333</ele><time>2026-04-06T13:52:50.6Z</time></trkpt><trkpt lat="44.3803056" lon="9.371757"><ele>90.0</ele><time>2026-04-06T13:52:51.599Z</time></trkpt><trkpt lat="44.3804471" lon="9.3719526"><ele>85.33333333333333</ele><time>2026-04-06T13:52:52.599Z</time></trkpt><trkpt lat="44.3805839" lon="9.3721445"><ele>80.66666666666666</ele><time>2026-04-06T13:52:53.6Z</time></trkpt><trkpt lat="44.3807137" lon="9.3723303"><ele>76.0</ele><time>2026-04-06T13:52:54.598Z</time></trkpt><trkpt lat="44.3808383" lon="9.3725091"><ele>76.0</ele><time>2026-04-06T13:52:55.6Z</time></trkpt><trkpt lat="44.3809552" lon="9.3726792"><ele>76.0</ele><time>2026-04-06T13:52:56.599Z</time></trkpt><trkpt lat="44.3810646" lon="9.3728426"><ele>76.0</ele><time>2026-04-06T13:52:57.599Z</time></trkpt><trkpt lat="44.381162" lon="9.3730067"><ele>73.66666666666666</ele><time>2026-04-06T13:52:58.599Z</time></trkpt><trkpt lat="44.3812436" lon="9.3731864"><ele>71.33333333333333</ele><time>2026-04-06T13:52:59.599Z</time></trkpt><trkpt lat="44.3813127" lon="9.3733867"><ele>69.0</ele><time>2026-04-06T13:53:00.599Z</time></trkpt><trkpt lat="44.3813781" lon="9.3736008"><ele>69.0</ele><time>2026-04-06T13:53:01.599Z</time></trkpt><trkpt lat="44.3814419" lon="9.3738149"><ele>69.0</ele><time>2026-04-06T13:53:02.599Z</time></trkpt><trkpt lat="44.3815151" lon="9.3740213"><ele>69.0</ele><time>2026-04-06T13:53:03.598Z</time></trkpt><trkpt lat="44.3815965" lon="9.3742229"><ele>72.33333333333333</ele><time>2026-04-06T13:53:04.599Z</time></trkpt><trkpt lat="44.3816814" lon="9.374419"><ele>75.66666666666666</ele><time>2026-04-06T13:53:05.599Z</time></trkpt><trkpt lat="44.3817613" lon="9.3746124"><ele>79.0</ele><time>2026-04-06T13:53:06.599Z</time></trkpt><trkpt lat="44.3818252" lon="9.3747998"><ele>82.75</ele><time>2026-04-06T13:53:07.598Z</time></trkpt><trkpt lat="44.3818735" lon="9.374969"><ele>86.5</ele><time>2026-04-06T13:53:08.6Z</time></trkpt><trkpt lat="44.3819112" lon="9.3751185"><ele>90.25</ele><time>2026-04-06T13:53:09.598Z</time></trkpt><trkpt lat="44.381945" lon="9.3752611"><ele>94.0</ele><time>2026-04-06T13:53:10.6Z</time></trkpt><trkpt lat="44.3819777" lon="9.3754026"><ele>96.25</ele><time>2026-04-06T13:53:11.599Z</time></trkpt><trkpt lat="44.3820229" lon="9.3755352"><ele>98.5</ele><time>2026-04-06T13:53:12.598Z</time></trkpt><trkpt lat="44.3820885" lon="9.3756642"><ele>100.75</ele><time>2026-04-06T13:53:13.599Z</time></trkpt><trkpt lat="44.3821768" lon="9.3757911"><ele>103.0</ele><time>2026-04-06T13:53:14.6Z</time></trkpt><trkpt lat="44.3822867" lon="9.3759182"><ele>97.25</ele><time>2026-04-06T13:53:15.599Z</time></trkpt><trkpt lat="44.3824085" lon="9.3760491"><ele>91.5</ele><time>2026-04-06T13:53:16.598Z</time></trkpt><trkpt lat="44.3825244" lon="9.3761771"><ele>85.75</ele><time>2026-04-06T13:53:17.599Z</time></trkpt><trkpt lat="44.3826356" lon="9.3763007"><ele>80.0</ele><time>2026-04-06T13:53:18.599Z</time></trkpt><trkpt lat="44.3827449" lon="9.3764294"><ele>80.0</ele><time>2026-04-06T13:53:19.599Z</time></trkpt><trkpt lat="44.3828566" lon="9.376562"><ele>80.0</ele><time>2026-04-06T13:53:20.598Z</time></trkpt><trkpt lat="44.38297" lon="9.3766917"><ele>80.0</ele><time>2026-04-06T13:53:21.599Z</time></trkpt><trkpt lat="44.3830783" lon="9.3768183"><ele>80.0</ele><time>2026-04-06T13:53:22.599Z</time></trkpt><trkpt lat="44.3831917" lon="9.37695"><ele>80.0</ele><time>2026-04-06T13:53:23.598Z</time></trkpt><trkpt lat="44.3833083" lon="9.3770883"><ele>80.0</ele><time>2026-04-06T13:53:24.599Z</time></trkpt><trkpt lat="44.38342" lon="9.37722"><ele>80.0</ele><time>2026-04-06T13:53:25.599Z</time></trkpt><trkpt lat="44.3835267" lon="9.37734"><ele>80.0</ele><time>2026-04-06T13:53:26.598Z</time></trkpt><trkpt lat="44.3836267" lon="9.3774533"><ele>80.5</ele><time>2026-04-06T13:53:27.601Z</time></trkpt><trkpt lat="44.383725" lon="9.3775667"><ele>81.0</ele><time>2026-04-06T13:53:28.599Z</time></trkpt><trkpt lat="44.3838217" lon="9.3776933"><ele>81.5</ele><time>2026-04-06T13:53:29.599Z</time></trkpt><trkpt lat="44.3839233" lon="9.3778167"><ele>82.0</ele><time>2026-04-06T13:53:30.599Z</time></trkpt><trkpt lat="44.3840217" lon="9.3779317"><ele>83.75</ele><time>2026-04-06T13:53:31.6Z</time></trkpt><trkpt lat="44.3841167" lon="9.3780367"><ele>85.5</ele><time>2026-04-06T13:53:32.598Z</time></trkpt><trkpt lat="44.3842183" lon="9.3781317"><ele>87.25</ele><time>2026-04-06T13:53:33.599Z</time></trkpt><trkpt lat="44.384335" lon="9.378215"><ele>89.0</ele><time>2026-04-06T13:53:34.598Z</time></trkpt><trkpt lat="44.3844683" lon="9.3782867"><ele>89.0</ele><time>2026-04-06T13:53:35.598Z</time></trkpt><trkpt lat="44.3846183" lon="9.3783517"><ele>89.0</ele><time>2026-04-06T13:53:36.598Z</time></trkpt><trkpt lat="44.384775" lon="9.3784217"><ele>89.0</ele><time>2026-04-06T13:53:37.6Z</time></trkpt><trkpt lat="44.3849383" lon="9.3784767"><ele>86.66666666666667</ele><time>2026-04-06T13:53:38.599Z</time></trkpt><trkpt lat="44.3850983" lon="9.3785317"><ele>84.33333333333333</ele><time>2026-04-06T13:53:39.599Z</time></trkpt><trkpt lat="44.38525" lon="9.3785817"><ele>82.0</ele><time>2026-04-06T13:53:40.599Z</time></trkpt><trkpt lat="44.3854" lon="9.3786367"><ele>81.0</ele><time>2026-04-06T13:53:41.599Z</time></trkpt><trkpt lat="44.385555" lon="9.3787"><ele>80.0</ele><time>2026-04-06T13:53:42.599Z</time></trkpt><trkpt lat="44.3857017" lon="9.3787733"><ele>79.0</ele><time>2026-04-06T13:53:43.599Z</time></trkpt><trkpt lat="44.3858483" lon="9.3788667"><ele>81.66666666666666</ele><time>2026-04-06T13:53:44.598Z</time></trkpt><trkpt lat="44.385995" lon="9.37897"><ele>84.33333333333333</ele><time>2026-04-06T13:53:45.598Z</time></trkpt><trkpt lat="44.386145" lon="9.3790767"><ele>87.0</ele><time>2026-04-06T13:53:46.599Z</time></trkpt><trkpt lat="44.3862917" lon="9.379185"><ele>85.66666666666667</ele><time>2026-04-06T13:53:47.598Z</time></trkpt><trkpt lat="44.3864267" lon="9.3792933"><ele>84.33333333333334</ele><time>2026-04-06T13:53:48.598Z</time></trkpt><trkpt lat="44.3865533" lon="9.3794083"><ele>83.0</ele><time>2026-04-06T13:53:49.598Z</time></trkpt><trkpt lat="44.3866633" lon="9.3795433"><ele>85.0</ele><time>2026-04-06T13:53:50.599Z</time></trkpt><trkpt lat="44.3867567" lon="9.379705"><ele>87.0</ele><time>2026-04-06T13:53:51.599Z</time></trkpt><trkpt lat="44.3868467" lon="9.379885"><ele>89.0</ele><time>2026-04-06T13:53:52.599Z</time></trkpt><trkpt lat="44.386935" lon="9.3800667"><ele>89.0</ele><time>2026-04-06T13:53:53.6Z</time></trkpt><trkpt lat="44.3870333" lon="9.3802333"><ele>89.0</ele><time>2026-04-06T13:53:54.599Z</time></trkpt><trkpt lat="44.387155" lon="9.38037"><ele>89.0</ele><time>2026-04-06T13:53:55.599Z</time></trkpt><trkpt lat="44.3872933" lon="9.38048"><ele>90.66666666666667</ele><time>2026-04-06T13:53:56.6Z</time></trkpt><trkpt lat="44.3874383" lon="9.3805667"><ele>92.33333333333333</ele><time>2026-04-06T13:53:57.598Z</time></trkpt><trkpt lat="44.3875867" lon="9.3806367"><ele>94.0</ele><time>2026-04-06T13:53:58.599Z</time></trkpt><trkpt lat="44.387745" lon="9.3806833"><ele>94.0</ele><time>2026-04-06T13:53:59.6Z</time></trkpt><trkpt lat="44.3879133" lon="9.3807"><ele>94.0</ele><time>2026-04-06T13:54:00.599Z</time></trkpt><trkpt lat="44.3880833" lon="9.3806933"><ele>94.0</ele><time>2026-04-06T13:54:01.598Z</time></trkpt><trkpt lat="44.3882483" lon="9.3806667"><ele>94.0</ele><time>2026-04-06T13:54:02.599Z</time></trkpt><trkpt lat="44.3884167" lon="9.38061"><ele>94.0</ele><time>2026-04-06T13:54:03.6Z</time></trkpt><trkpt lat="44.388585" lon="9.38052"><ele>94.0</ele><time>2026-04-06T13:54:04.599Z</time></trkpt><trkpt lat="44.388755" lon="9.3804017"><ele>94.0</ele><time>2026-04-06T13:54:05.599Z</time></trkpt><trkpt lat="44.3889267" lon="9.38026"><ele>94.0</ele><time>2026-04-06T13:54:06.599Z</time></trkpt><trkpt lat="44.3891033" lon="9.38012"><ele>94.0</ele><time>2026-04-06T13:54:07.599Z</time></trkpt><trkpt lat="44.3892783" lon="9.3799633"><ele>94.0</ele><time>2026-04-06T13:54:08.599Z</time></trkpt><trkpt lat="44.3894517" lon="9.3797917"><ele>94.0</ele><time>2026-04-06T13:54:09.599Z</time></trkpt><trkpt lat="44.3896267" lon="9.37961"><ele>94.0</ele><time>2026-04-06T13:54:10.599Z</time></trkpt><trkpt lat="44.3897967" lon="9.3794233"><ele>94.66666666666666</ele><time>2026-04-06T13:54:11.599Z</time></trkpt><trkpt lat="44.3899683" lon="9.3792383"><ele>95.33333333333333</ele><time>2026-04-06T13:54:12.598Z</time></trkpt><trkpt lat="44.3901383" lon="9.3790517"><ele>96.0</ele><time>2026-04-06T13:54:13.599Z</time></trkpt><trkpt lat="44.3903067" lon="9.3788717"><ele>95.0</ele><time>2026-04-06T13:54:14.599Z</time></trkpt><trkpt lat="44.390465" lon="9.378695"><ele>94.0</ele><time>2026-04-06T13:54:15.599Z</time></trkpt><trkpt lat="44.390615" lon="9.3785333"><ele>93.0</ele><time>2026-04-06T13:54:16.599Z</time></trkpt><trkpt lat="44.3907533" lon="9.37838"><ele>94.5</ele><time>2026-04-06T13:54:17.599Z</time></trkpt><trkpt lat="44.3908767" lon="9.3782433"><ele>96.0</ele><time>2026-04-06T13:54:18.598Z</time></trkpt><trkpt lat="44.3909867" lon="9.3781317"><ele>97.5</ele><time>2026-04-06T13:54:19.599Z</time></trkpt><trkpt lat="44.3910967" lon="9.3780533"><ele>99.0</ele><time>2026-04-06T13:54:20.599Z</time></trkpt><trkpt lat="44.3912083" lon="9.3780367"><ele>99.0</ele><time>2026-04-06T13:54:21.598Z</time></trkpt><trkpt lat="44.391325" lon="9.3780633"><ele>99.0</ele><time>2026-04-06T13:54:22.599Z</time></trkpt><trkpt lat="44.3914433" lon="9.3781417"><ele>99.0</ele><time>2026-04-06T13:54:23.599Z</time></trkpt><trkpt lat="44.3915483" lon="9.3782267"><ele>99.0</ele><time>2026-04-06T13:54:24.599Z</time></trkpt><trkpt lat="44.39164" lon="9.378315"><ele>99.0</ele><time>2026-04-06T13:54:25.598Z</time></trkpt><trkpt lat="44.3917183" lon="9.3784"><ele>99.0</ele><time>2026-04-06T13:54:26.598Z</time></trkpt><trkpt lat="44.3917917" lon="9.3784833"><ele>99.0</ele><time>2026-04-06T13:54:27.599Z</time></trkpt><trkpt lat="44.3918483" lon="9.3785667"><ele>99.0</ele><time>2026-04-06T13:54:28.599Z</time></trkpt><trkpt lat="44.3918967" lon="9.37865"><ele>99.0</ele><time>2026-04-06T13:54:29.599Z</time></trkpt><trkpt lat="44.3919183" lon="9.3787333"><ele>99.0</ele><time>2026-04-06T13:54:30.6Z</time></trkpt><trkpt lat="44.3919983" lon="9.3788617"><ele>99.6</ele><time>2026-04-06T13:54:32.6Z</time></trkpt><trkpt lat="44.392055" lon="9.37891"><ele>100.2</ele><time>2026-04-06T13:54:33.598Z</time></trkpt><trkpt lat="44.3921283" lon="9.3789467"><ele>100.8</ele><time>2026-04-06T13:54:34.598Z</time></trkpt><trkpt lat="44.3922283" lon="9.378965"><ele>101.39999999999999</ele><time>2026-04-06T13:54:35.599Z</time></trkpt><trkpt lat="44.3923333" lon="9.3789667"><ele>102.0</ele><time>2026-04-06T13:54:36.599Z</time></trkpt><trkpt lat="44.39244" lon="9.378955"><ele>102.0</ele><time>2026-04-06T13:54:37.599Z</time></trkpt><trkpt lat="44.3925517" lon="9.37893"><ele>102.0</ele><time>2026-04-06T13:54:38.599Z</time></trkpt><trkpt lat="44.392665" lon="9.3789033"><ele>102.0</ele><time>2026-04-06T13:54:39.598Z</time></trkpt><trkpt lat="44.3927867" lon="9.37889"><ele>102.0</ele><time>2026-04-06T13:54:40.599Z</time></trkpt><trkpt lat="44.392905" lon="9.37888"><ele>103.39999999999999</ele><time>2026-04-06T13:54:41.599Z</time></trkpt><trkpt lat="44.3930233" lon="9.3788717"><ele>104.8</ele><time>2026-04-06T13:54:42.599Z</time></trkpt><trkpt lat="44.393135" lon="9.378865"><ele>106.2</ele><time>2026-04-06T13:54:43.599Z</time></trkpt><trkpt lat="44.3932367" lon="9.3788617"><ele>107.6</ele><time>2026-04-06T13:54:44.6Z</time></trkpt><trkpt lat="44.39333" lon="9.3788633"><ele>109.0</ele><time>2026-04-06T13:54:45.598Z</time></trkpt><trkpt lat="44.3934267" lon="9.378885"><ele>109.0</ele><time>2026-04-06T13:54:46.599Z</time></trkpt><trkpt lat="44.393525" lon="9.3789083"><ele>109.0</ele><time>2026-04-06T13:54:47.599Z</time></trkpt><trkpt lat="44.39363" lon="9.3789517"><ele>109.0</ele><time>2026-04-06T13:54:48.599Z</time></trkpt><trkpt lat="44.3937317" lon="9.3789883"><ele>109.0</ele><time>2026-04-06T13:54:49.6Z</time></trkpt><trkpt lat="44.3938317" lon="9.37902"><ele>109.0</ele><time>2026-04-06T13:54:50.6Z</time></trkpt><trkpt lat="44.3939369" lon="9.3790487"><ele>110.25</ele><time>2026-04-06T13:54:51.599Z</time></trkpt><trkpt lat="44.3940478" lon="9.3790855"><ele>111.5</ele><time>2026-04-06T13:54:52.6Z</time></trkpt><trkpt lat="44.3941655" lon="9.3791282"><ele>112.75</ele><time>2026-04-06T13:54:53.598Z</time></trkpt><trkpt lat="44.394289" lon="9.3791774"><ele>114.0</ele><time>2026-04-06T13:54:54.599Z</time></trkpt><trkpt lat="44.3944158" lon="9.3792326"><ele>114.0</ele><time>2026-04-06T13:54:55.6Z</time></trkpt><trkpt lat="44.3945468" lon="9.3792875"><ele>114.0</ele><time>2026-04-06T13:54:56.599Z</time></trkpt><trkpt lat="44.3946805" lon="9.3793378"><ele>114.0</ele><time>2026-04-06T13:54:57.6Z</time></trkpt><trkpt lat="44.3948196" lon="9.3793789"><ele>114.0</ele><time>2026-04-06T13:54:58.6Z</time></trkpt><trkpt lat="44.3949642" lon="9.3794101"><ele>112.25</ele><time>2026-04-06T13:54:59.598Z</time></trkpt><trkpt lat="44.3951125" lon="9.3794338"><ele>110.5</ele><time>2026-04-06T13:55:00.599Z</time></trkpt><trkpt lat="44.3952547" lon="9.379454"><ele>108.75</ele><time>2026-04-06T13:55:01.599Z</time></trkpt><trkpt lat="44.3953872" lon="9.3794723"><ele>107.0</ele><time>2026-04-06T13:55:02.601Z</time></trkpt><trkpt lat="44.3955069" lon="9.3794869"><ele>106.19999999999999</ele><time>2026-04-06T13:55:03.598Z</time></trkpt><trkpt lat="44.3956156" lon="9.379509"><ele>105.39999999999999</ele><time>2026-04-06T13:55:04.6Z</time></trkpt><trkpt lat="44.3957197" lon="9.3795563"><ele>104.6</ele><time>2026-04-06T13:55:05.6Z</time></trkpt><trkpt lat="44.3958234" lon="9.3796199"><ele>103.80000000000001</ele><time>2026-04-06T13:55:06.599Z</time></trkpt><trkpt lat="44.3959238" lon="9.3796984"><ele>103.0</ele><time>2026-04-06T13:55:07.598Z</time></trkpt><trkpt lat="44.3960108" lon="9.3797943"><ele>106.0</ele><time>2026-04-06T13:55:08.599Z</time></trkpt><trkpt lat="44.3960819" lon="9.3799066"><ele>109.0</ele><time>2026-04-06T13:55:09.598Z</time></trkpt><trkpt lat="44.3961364" lon="9.3800313"><ele>112.00000000000001</ele><time>2026-04-06T13:55:10.599Z</time></trkpt><trkpt lat="44.3961832" lon="9.3801505"><ele>115.0</ele><time>2026-04-06T13:55:11.598Z</time></trkpt><trkpt lat="44.396237" lon="9.3802457"><ele>118.0</ele><time>2026-04-06T13:55:12.599Z</time></trkpt><trkpt lat="44.3963078" lon="9.3803103"><ele>115.2</ele><time>2026-04-06T13:55:13.599Z</time></trkpt><trkpt lat="44.3963892" lon="9.3803448"><ele>112.4</ele><time>2026-04-06T13:55:14.599Z</time></trkpt><trkpt lat="44.3964694" lon="9.3803579"><ele>109.60000000000001</ele><time>2026-04-06T13:55:15.599Z</time></trkpt><trkpt lat="44.3965756" lon="9.3802931"><ele>106.80000000000001</ele><time>2026-04-06T13:55:16.599Z</time></trkpt><trkpt lat="44.3966923" lon="9.3801821"><ele>104.0</ele><time>2026-04-06T13:55:17.599Z</time></trkpt><trkpt lat="44.3968082" lon="9.3800697"><ele>104.0</ele><time>2026-04-06T13:55:18.598Z</time></trkpt><trkpt lat="44.3969202" lon="9.3799624"><ele>104.0</ele><time>2026-04-06T13:55:19.599Z</time></trkpt><trkpt lat="44.3970276" lon="9.3798645"><ele>104.0</ele><time>2026-04-06T13:55:20.599Z</time></trkpt><trkpt lat="44.3971365" lon="9.3797872"><ele>104.0</ele><time>2026-04-06T13:55:21.599Z</time></trkpt><trkpt lat="44.3972508" lon="9.3797426"><ele>105.0</ele><time>2026-04-06T13:55:22.598Z</time></trkpt><trkpt lat="44.3973722" lon="9.3797293"><ele>106.0</ele><time>2026-04-06T13:55:23.598Z</time></trkpt><trkpt lat="44.3975" lon="9.3797534"><ele>107.0</ele><time>2026-04-06T13:55:24.599Z</time></trkpt><trkpt lat="44.3976226" lon="9.379811"><ele>108.0</ele><time>2026-04-06T13:55:25.599Z</time></trkpt><trkpt lat="44.397735" lon="9.3798986"><ele>108.0</ele><time>2026-04-06T13:55:26.599Z</time></trkpt><trkpt lat="44.3978427" lon="9.380012"><ele>108.0</ele><time>2026-04-06T13:55:27.599Z</time></trkpt><trkpt lat="44.3979524" lon="9.3801385"><ele>108.0</ele><time>2026-04-06T13:55:28.599Z</time></trkpt><trkpt lat="44.3980639" lon="9.3802662"><ele>108.0</ele><time>2026-04-06T13:55:29.599Z</time></trkpt><trkpt lat="44.3981751" lon="9.3803893"><ele>108.33333333333334</ele><time>2026-04-06T13:55:30.599Z</time></trkpt><trkpt lat="44.3982907" lon="9.3805058"><ele>108.66666666666667</ele><time>2026-04-06T13:55:31.599Z</time></trkpt><trkpt lat="44.3984191" lon="9.3806099"><ele>109.0</ele><time>2026-04-06T13:55:32.6Z</time></trkpt><trkpt lat="44.398562" lon="9.3807097"><ele>109.0</ele><time>2026-04-06T13:55:33.599Z</time></trkpt><trkpt lat="44.3987225" lon="9.3808048"><ele>109.0</ele><time>2026-04-06T13:55:34.601Z</time></trkpt><trkpt lat="44.3988921" lon="9.3808924"><ele>109.0</ele><time>2026-04-06T13:55:35.599Z</time></trkpt><trkpt lat="44.3990737" lon="9.3809769"><ele>111.66666666666667</ele><time>2026-04-06T13:55:36.599Z</time></trkpt><trkpt lat="44.3992655" lon="9.3810652"><ele>114.33333333333334</ele><time>2026-04-06T13:55:37.6Z</time></trkpt><trkpt lat="44.399459" lon="9.3811538"><ele>117.0</ele><time>2026-04-06T13:55:38.598Z</time></trkpt><trkpt lat="44.39966" lon="9.3812383"><ele>116.0</ele><time>2026-04-06T13:55:39.599Z</time></trkpt><trkpt lat="44.39985" lon="9.3813183"><ele>115.0</ele><time>2026-04-06T13:55:40.6Z</time></trkpt><trkpt lat="44.4000367" lon="9.381395"><ele>114.0</ele><time>2026-04-06T13:55:41.599Z</time></trkpt><trkpt lat="44.4002217" lon="9.3814783"><ele>114.0</ele><time>2026-04-06T13:55:42.599Z</time></trkpt><trkpt lat="44.4003983" lon="9.3815567"><ele>114.0</ele><time>2026-04-06T13:55:43.598Z</time></trkpt><trkpt lat="44.4005667" lon="9.38163"><ele>114.0</ele><time>2026-04-06T13:55:44.599Z</time></trkpt><trkpt lat="44.4007333" lon="9.3816983"><ele>117.66666666666666</ele><time>2026-04-06T13:55:45.599Z</time></trkpt><trkpt lat="44.4009017" lon="9.3817467"><ele>121.33333333333333</ele><time>2026-04-06T13:55:46.599Z</time></trkpt><trkpt lat="44.4010683" lon="9.3817533"><ele>125.0</ele><time>2026-04-06T13:55:47.598Z</time></trkpt><trkpt lat="44.4012267" lon="9.381735"><ele>127.33333333333333</ele><time>2026-04-06T13:55:48.598Z</time></trkpt><trkpt lat="44.4013783" lon="9.3817183"><ele>129.66666666666666</ele><time>2026-04-06T13:55:49.599Z</time></trkpt><trkpt lat="44.40153" lon="9.3817383"><ele>132.0</ele><time>2026-04-06T13:55:50.601Z</time></trkpt><trkpt lat="44.40168" lon="9.3818017"><ele>132.0</ele><time>2026-04-06T13:55:51.599Z</time></trkpt><trkpt lat="44.40183" lon="9.3818583"><ele>132.0</ele><time>2026-04-06T13:55:52.599Z</time></trkpt><trkpt lat="44.40198" lon="9.3818883"><ele>132.0</ele><time>2026-04-06T13:55:53.599Z</time></trkpt><trkpt lat="44.402135" lon="9.3819083"><ele>130.25</ele><time>2026-04-06T13:55:54.599Z</time></trkpt><trkpt lat="44.4022833" lon="9.381945"><ele>128.5</ele><time>2026-04-06T13:55:55.599Z</time></trkpt><trkpt lat="44.40242" lon="9.382005"><ele>126.75</ele><time>2026-04-06T13:55:56.598Z</time></trkpt><trkpt lat="44.4025483" lon="9.3821"><ele>125.0</ele><time>2026-04-06T13:55:57.599Z</time></trkpt><trkpt lat="44.4026733" lon="9.38223"><ele>125.0</ele><time>2026-04-06T13:55:58.598Z</time></trkpt><trkpt lat="44.4028033" lon="9.3823783"><ele>125.0</ele><time>2026-04-06T13:55:59.6Z</time></trkpt><trkpt lat="44.402935" lon="9.382535"><ele>125.0</ele><time>2026-04-06T13:56:00.599Z</time></trkpt><trkpt lat="44.403065" lon="9.3827"><ele>125.66666666666666</ele><time>2026-04-06T13:56:01.598Z</time></trkpt><trkpt lat="44.4031917" lon="9.382865"><ele>126.33333333333334</ele><time>2026-04-06T13:56:02.598Z</time></trkpt><trkpt lat="44.4033117" lon="9.3830367"><ele>127.0</ele><time>2026-04-06T13:56:03.599Z</time></trkpt><trkpt lat="44.4034183" lon="9.3832117"><ele>127.0</ele><time>2026-04-06T13:56:04.599Z</time></trkpt><trkpt lat="44.4035083" lon="9.3834067"><ele>127.0</ele><time>2026-04-06T13:56:05.599Z</time></trkpt><trkpt lat="44.4035817" lon="9.383615"><ele>127.0</ele><time>2026-04-06T13:56:06.604Z</time></trkpt><trkpt lat="44.4036533" lon="9.3838183"><ele>123.0</ele><time>2026-04-06T13:56:07.598Z</time></trkpt><trkpt lat="44.4037367" lon="9.3840117"><ele>119.0</ele><time>2026-04-06T13:56:08.599Z</time></trkpt><trkpt lat="44.4038433" lon="9.384195"><ele>115.0</ele><time>2026-04-06T13:56:09.599Z</time></trkpt><trkpt lat="44.4039617" lon="9.3843667"><ele>117.33333333333334</ele><time>2026-04-06T13:56:10.599Z</time></trkpt><trkpt lat="44.4040983" lon="9.3845317"><ele>119.66666666666666</ele><time>2026-04-06T13:56:11.599Z</time></trkpt><trkpt lat="44.4042317" lon="9.3846867"><ele>122.0</ele><time>2026-04-06T13:56:12.598Z</time></trkpt><trkpt lat="44.404365" lon="9.38483"><ele>122.0</ele><time>2026-04-06T13:56:13.599Z</time></trkpt><trkpt lat="44.4044933" lon="9.384955"><ele>122.0</ele><time>2026-04-06T13:56:14.599Z</time></trkpt><trkpt lat="44.404635" lon="9.3850583"><ele>122.0</ele><time>2026-04-06T13:56:15.598Z</time></trkpt><trkpt lat="44.4047883" lon="9.38514"><ele>128.0</ele><time>2026-04-06T13:56:16.598Z</time></trkpt><trkpt lat="44.4049483" lon="9.3852183"><ele>134.0</ele><time>2026-04-06T13:56:17.598Z</time></trkpt><trkpt lat="44.4051117" lon="9.3852933"><ele>140.0</ele><time>2026-04-06T13:56:18.599Z</time></trkpt><trkpt lat="44.4052667" lon="9.3853617"><ele>140.0</ele><time>2026-04-06T13:56:19.599Z</time></trkpt><trkpt lat="44.4054117" lon="9.38543"><ele>140.0</ele><time>2026-04-06T13:56:20.599Z</time></trkpt><trkpt lat="44.4055483" lon="9.3855"><ele>140.0</ele><time>2026-04-06T13:56:21.599Z</time></trkpt><trkpt lat="44.405675" lon="9.3855817"><ele>140.0</ele><time>2026-04-06T13:56:22.599Z</time></trkpt><trkpt lat="44.405785" lon="9.3856833"><ele>135.25</ele><time>2026-04-06T13:56:23.599Z</time></trkpt><trkpt lat="44.4058767" lon="9.3858167"><ele>130.5</ele><time>2026-04-06T13:56:24.6Z</time></trkpt><trkpt lat="44.4059517" lon="9.3859767"><ele>125.75</ele><time>2026-04-06T13:56:25.599Z</time></trkpt><trkpt lat="44.4060233" lon="9.3861417"><ele>121.0</ele><time>2026-04-06T13:56:26.599Z</time></trkpt><trkpt lat="44.4060983" lon="9.3863017"><ele>121.25</ele><time>2026-04-06T13:56:27.599Z</time></trkpt><trkpt lat="44.406185" lon="9.3864467"><ele>121.5</ele><time>2026-04-06T13:56:28.599Z</time></trkpt><trkpt lat="44.4062933" lon="9.3865667"><ele>121.75</ele><time>2026-04-06T13:56:29.599Z</time></trkpt><trkpt lat="44.406425" lon="9.3866517"><ele>122.0</ele><time>2026-04-06T13:56:30.599Z</time></trkpt><trkpt lat="44.4065783" lon="9.3867017"><ele>123.66666666666666</ele><time>2026-04-06T13:56:31.599Z</time></trkpt><trkpt lat="44.4067383" lon="9.3867367"><ele>125.33333333333334</ele><time>2026-04-06T13:56:32.599Z</time></trkpt><trkpt lat="44.4068917" lon="9.3867633"><ele>127.0</ele><time>2026-04-06T13:56:33.598Z</time></trkpt><trkpt lat="44.407035" lon="9.3867933"><ele>127.5</ele><time>2026-04-06T13:56:34.599Z</time></trkpt><trkpt lat="44.4071733" lon="9.3868333"><ele>128.0</ele><time>2026-04-06T13:56:35.598Z</time></trkpt><trkpt lat="44.4073117" lon="9.3868933"><ele>128.5</ele><time>2026-04-06T13:56:36.599Z</time></trkpt><trkpt lat="44.4074483" lon="9.3869833"><ele>129.0</ele><time>2026-04-06T13:56:37.599Z</time></trkpt><trkpt lat="44.4075833" lon="9.3870917"><ele>128.33333333333334</ele><time>2026-04-06T13:56:38.598Z</time></trkpt><trkpt lat="44.4077183" lon="9.3872133"><ele>127.66666666666667</ele><time>2026-04-06T13:56:39.598Z</time></trkpt><trkpt lat="44.4078517" lon="9.3873333"><ele>127.0</ele><time>2026-04-06T13:56:40.599Z</time></trkpt><trkpt lat="44.407985" lon="9.3874517"><ele>131.33333333333334</ele><time>2026-04-06T13:56:41.599Z</time></trkpt><trkpt lat="44.40812" lon="9.38757"><ele>135.66666666666666</ele><time>2026-04-06T13:56:42.599Z</time></trkpt><trkpt lat="44.408255" lon="9.38769"><ele>140.0</ele><time>2026-04-06T13:56:43.599Z</time></trkpt><trkpt lat="44.4083867" lon="9.3878133"><ele>140.0</ele><time>2026-04-06T13:56:44.598Z</time></trkpt><trkpt lat="44.408515" lon="9.3879283"><ele>140.0</ele><time>2026-04-06T13:56:45.598Z</time></trkpt><trkpt lat="44.40865" lon="9.3880233"><ele>140.0</ele><time>2026-04-06T13:56:46.599Z</time></trkpt><trkpt lat="44.4088017" lon="9.3880883"><ele>137.33333333333331</ele><time>2026-04-06T13:56:47.599Z</time></trkpt><trkpt lat="44.4089617" lon="9.38812"><ele>134.66666666666666</ele><time>2026-04-06T13:56:48.598Z</time></trkpt><trkpt lat="44.4091217" lon="9.388135"><ele>132.0</ele><time>2026-04-06T13:56:49.599Z</time></trkpt><trkpt lat="44.4092733" lon="9.3881417"><ele>132.0</ele><time>2026-04-06T13:56:50.599Z</time></trkpt><trkpt lat="44.40942" lon="9.3881483"><ele>132.0</ele><time>2026-04-06T13:56:51.598Z</time></trkpt><trkpt lat="44.4095667" lon="9.38816"><ele>132.0</ele><time>2026-04-06T13:56:52.602Z</time></trkpt><trkpt lat="44.4097117" lon="9.3881733"><ele>132.0</ele><time>2026-04-06T13:56:53.599Z</time></trkpt><trkpt lat="44.4098567" lon="9.3881917"><ele>135.0</ele><time>2026-04-06T13:56:54.599Z</time></trkpt><trkpt lat="44.4099983" lon="9.3882183"><ele>138.0</ele><time>2026-04-06T13:56:55.599Z</time></trkpt><trkpt lat="44.41014" lon="9.38825"><ele>141.0</ele><time>2026-04-06T13:56:56.599Z</time></trkpt><trkpt lat="44.41028" lon="9.3882933"><ele>144.0</ele><time>2026-04-06T13:56:57.599Z</time></trkpt><trkpt lat="44.4104283" lon="9.38834"><ele>146.0</ele><time>2026-04-06T13:56:58.599Z</time></trkpt><trkpt lat="44.4105833" lon="9.3883883"><ele>148.0</ele><time>2026-04-06T13:56:59.599Z</time></trkpt><trkpt lat="44.4107467" lon="9.3884283"><ele>150.0</ele><time>2026-04-06T13:57:00.599Z</time></trkpt><trkpt lat="44.4109117" lon="9.3884633"><ele>150.0</ele><time>2026-04-06T13:57:01.6Z</time></trkpt><trkpt lat="44.4110717" lon="9.3884883"><ele>150.0</ele><time>2026-04-06T13:57:02.599Z</time></trkpt><trkpt lat="44.4112217" lon="9.388505"><ele>150.0</ele><time>2026-04-06T13:57:03.599Z</time></trkpt><trkpt lat="44.4113633" lon="9.3885083"><ele>150.0</ele><time>2026-04-06T13:57:04.599Z</time></trkpt><trkpt lat="44.4115" lon="9.38849"><ele>150.0</ele><time>2026-04-06T13:57:05.599Z</time></trkpt><trkpt lat="44.4116333" lon="9.3884467"><ele>150.0</ele><time>2026-04-06T13:57:06.598Z</time></trkpt><trkpt lat="44.4117683" lon="9.38837"><ele>150.0</ele><time>2026-04-06T13:57:07.598Z</time></trkpt><trkpt lat="44.4119067" lon="9.3882633"><ele>150.0</ele><time>2026-04-06T13:57:08.599Z</time></trkpt><trkpt lat="44.41205" lon="9.3881383"><ele>150.0</ele><time>2026-04-06T13:57:09.599Z</time></trkpt><trkpt lat="44.41219" lon="9.3880067"><ele>150.0</ele><time>2026-04-06T13:57:10.599Z</time></trkpt><trkpt lat="44.4123217" lon="9.387875"><ele>157.0</ele><time>2026-04-06T13:57:11.599Z</time></trkpt><trkpt lat="44.412445" lon="9.387755"><ele>164.0</ele><time>2026-04-06T13:57:12.598Z</time></trkpt><trkpt lat="44.4125617" lon="9.3876467"><ele>171.0</ele><time>2026-04-06T13:57:13.599Z</time></trkpt><trkpt lat="44.4126717" lon="9.3875767"><ele>178.0</ele><time>2026-04-06T13:57:14.6Z</time></trkpt><trkpt lat="44.412785" lon="9.3875533"><ele>178.0</ele><time>2026-04-06T13:57:15.599Z</time></trkpt><trkpt lat="44.4129067" lon="9.38758"><ele>178.0</ele><time>2026-04-06T13:57:16.599Z</time></trkpt><trkpt lat="44.41303" lon="9.387665"><ele>178.0</ele><time>2026-04-06T13:57:17.599Z</time></trkpt><trkpt lat="44.4131533" lon="9.3877767"><ele>178.0</ele><time>2026-04-06T13:57:18.599Z</time></trkpt><trkpt lat="44.4132783" lon="9.3879117"><ele>165.66666666666669</ele><time>2026-04-06T13:57:19.598Z</time></trkpt><trkpt lat="44.4134067" lon="9.3880667"><ele>153.33333333333334</ele><time>2026-04-06T13:57:20.598Z</time></trkpt><trkpt lat="44.41354" lon="9.388225"><ele>141.0</ele><time>2026-04-06T13:57:21.598Z</time></trkpt><trkpt lat="44.4136783" lon="9.3883783"><ele>141.0</ele><time>2026-04-06T13:57:22.599Z</time></trkpt><trkpt lat="44.41381" lon="9.388535"><ele>141.0</ele><time>2026-04-06T13:57:23.599Z</time></trkpt><trkpt lat="44.4139367" lon="9.3886867"><ele>141.0</ele><time>2026-04-06T13:57:24.598Z</time></trkpt><trkpt lat="44.4140567" lon="9.3888317"><ele>141.75</ele><time>2026-04-06T13:57:25.599Z</time></trkpt><trkpt lat="44.41417" lon="9.388965"><ele>142.5</ele><time>2026-04-06T13:57:26.599Z</time></trkpt><trkpt lat="44.4142883" lon="9.389075"><ele>143.25</ele><time>2026-04-06T13:57:27.599Z</time></trkpt><trkpt lat="44.41442" lon="9.38915"><ele>144.0</ele><time>2026-04-06T13:57:28.599Z</time></trkpt><trkpt lat="44.41457" lon="9.3891967"><ele>144.0</ele><time>2026-04-06T13:57:29.599Z</time></trkpt><trkpt lat="44.4147333" lon="9.3892317"><ele>144.0</ele><time>2026-04-06T13:57:30.599Z</time></trkpt><trkpt lat="44.4149067" lon="9.3892683"><ele>144.0</ele><time>2026-04-06T13:57:31.599Z</time></trkpt><trkpt lat="44.415085" lon="9.3893033"><ele>144.0</ele><time>2026-04-06T13:57:32.6Z</time></trkpt><trkpt lat="44.41526" lon="9.3893383"><ele>144.0</ele><time>2026-04-06T13:57:33.599Z</time></trkpt><trkpt lat="44.4154217" lon="9.3893683"><ele>144.0</ele><time>2026-04-06T13:57:34.6Z</time></trkpt><trkpt lat="44.415575" lon="9.3894"><ele>144.5</ele><time>2026-04-06T13:57:35.599Z</time></trkpt><trkpt lat="44.4157233" lon="9.3894283"><ele>145.0</ele><time>2026-04-06T13:57:36.599Z</time></trkpt><trkpt lat="44.415865" lon="9.3894533"><ele>145.5</ele><time>2026-04-06T13:57:37.598Z</time></trkpt><trkpt lat="44.416005" lon="9.3894867"><ele>146.0</ele><time>2026-04-06T13:57:38.599Z</time></trkpt><trkpt lat="44.41614" lon="9.3895433"><ele>146.0</ele><time>2026-04-06T13:57:39.598Z</time></trkpt><trkpt lat="44.4162717" lon="9.3896217"><ele>146.0</ele><time>2026-04-06T13:57:40.599Z</time></trkpt><trkpt lat="44.4164017" lon="9.3897283"><ele>146.0</ele><time>2026-04-06T13:57:41.599Z</time></trkpt><trkpt lat="44.4165333" lon="9.3898483"><ele>148.5</ele><time>2026-04-06T13:57:42.598Z</time></trkpt><trkpt lat="44.4166633" lon="9.389965"><ele>151.0</ele><time>2026-04-06T13:57:43.6Z</time></trkpt><trkpt lat="44.4167867" lon="9.3900717"><ele>153.5</ele><time>2026-04-06T13:57:44.6Z</time></trkpt><trkpt lat="44.4169117" lon="9.3901683"><ele>156.0</ele><time>2026-04-06T13:57:45.6Z</time></trkpt><trkpt lat="44.41704" lon="9.3902467"><ele>154.0</ele><time>2026-04-06T13:57:46.6Z</time></trkpt><trkpt lat="44.417175" lon="9.3902967"><ele>152.0</ele><time>2026-04-06T13:57:47.599Z</time></trkpt><trkpt lat="44.4173017" lon="9.3903133"><ele>150.0</ele><time>2026-04-06T13:57:48.6Z</time></trkpt><trkpt lat="44.417445" lon="9.3903017"><ele>148.0</ele><time>2026-04-06T13:57:49.599Z</time></trkpt><trkpt lat="44.4176017" lon="9.3902783"><ele>148.0</ele><time>2026-04-06T13:57:50.6Z</time></trkpt><trkpt lat="44.417765" lon="9.390255"><ele>148.0</ele><time>2026-04-06T13:57:51.598Z</time></trkpt><trkpt lat="44.4179283" lon="9.3902317"><ele>148.0</ele><time>2026-04-06T13:57:52.599Z</time></trkpt><trkpt lat="44.4180867" lon="9.3902033"><ele>150.0</ele><time>2026-04-06T13:57:53.599Z</time></trkpt><trkpt lat="44.4182433" lon="9.3901733"><ele>152.0</ele><time>2026-04-06T13:57:54.598Z</time></trkpt><trkpt lat="44.4184017" lon="9.3901383"><ele>154.0</ele><time>2026-04-06T13:57:55.6Z</time></trkpt><trkpt lat="44.4185583" lon="9.3900983"><ele>154.0</ele><time>2026-04-06T13:57:56.6Z</time></trkpt><trkpt lat="44.418715" lon="9.3900517"><ele>154.0</ele><time>2026-04-06T13:57:57.599Z</time></trkpt><trkpt lat="44.4188717" lon="9.3900117"><ele>154.0</ele><time>2026-04-06T13:57:58.599Z</time></trkpt><trkpt lat="44.4190183" lon="9.3899683"><ele>155.75</ele><time>2026-04-06T13:57:59.599Z</time></trkpt><trkpt lat="44.4191633" lon="9.38993"><ele>157.5</ele><time>2026-04-06T13:58:00.6Z</time></trkpt><trkpt lat="44.4193033" lon="9.389895"><ele>159.25</ele><time>2026-04-06T13:58:01.599Z</time></trkpt><trkpt lat="44.41944" lon="9.3898717"><ele>161.0</ele><time>2026-04-06T13:58:02.599Z</time></trkpt><trkpt lat="44.41957" lon="9.389855"><ele>162.0</ele><time>2026-04-06T13:58:03.597Z</time></trkpt><trkpt lat="44.4196933" lon="9.3898483"><ele>163.0</ele><time>2026-04-06T13:58:04.598Z</time></trkpt><trkpt lat="44.4198067" lon="9.3898367"><ele>164.0</ele><time>2026-04-06T13:58:05.598Z</time></trkpt><trkpt lat="44.4199133" lon="9.3898167"><ele>165.0</ele><time>2026-04-06T13:58:06.597Z</time></trkpt><trkpt lat="44.4200067" lon="9.3897883"><ele>166.0</ele><time>2026-04-06T13:58:07.598Z</time></trkpt><trkpt lat="44.42008" lon="9.3897333"><ele>163.60000000000002</ele><time>2026-04-06T13:58:08.599Z</time></trkpt><trkpt lat="44.42015" lon="9.3896633"><ele>161.20000000000002</ele><time>2026-04-06T13:58:09.598Z</time></trkpt><trkpt lat="44.4202017" lon="9.3895683"><ele>158.8</ele><time>2026-04-06T13:58:10.598Z</time></trkpt><trkpt lat="44.42024" lon="9.3894533"><ele>156.4</ele><time>2026-04-06T13:58:11.598Z</time></trkpt><trkpt lat="44.4202383" lon="9.3892967"><ele>154.0</ele><time>2026-04-06T13:58:12.598Z</time></trkpt><trkpt lat="44.42024" lon="9.3891417"><ele>154.0</ele><time>2026-04-06T13:58:13.599Z</time></trkpt><trkpt lat="44.42025" lon="9.3889867"><ele>154.0</ele><time>2026-04-06T13:58:14.599Z</time></trkpt><trkpt lat="44.4202717" lon="9.38884"><ele>154.0</ele><time>2026-04-06T13:58:15.598Z</time></trkpt><trkpt lat="44.4203017" lon="9.3886983"><ele>154.0</ele><time>2026-04-06T13:58:16.599Z</time></trkpt><trkpt lat="44.4203483" lon="9.3885683"><ele>154.0</ele><time>2026-04-06T13:58:17.6Z</time></trkpt><trkpt lat="44.4204067" lon="9.3884433"><ele>155.2</ele><time>2026-04-06T13:58:18.598Z</time></trkpt><trkpt lat="44.42047" lon="9.3883117"><ele>156.4</ele><time>2026-04-06T13:58:19.598Z</time></trkpt><trkpt lat="44.4205367" lon="9.3881817"><ele>157.6</ele><time>2026-04-06T13:58:20.598Z</time></trkpt><trkpt lat="44.4206017" lon="9.388055"><ele>158.8</ele><time>2026-04-06T13:58:21.597Z</time></trkpt><trkpt lat="44.4206633" lon="9.3879367"><ele>160.0</ele><time>2026-04-06T13:58:22.598Z</time></trkpt><trkpt lat="44.4207217" lon="9.3878283"><ele>160.16666666666669</ele><time>2026-04-06T13:58:23.602Z</time></trkpt><trkpt lat="44.4207817" lon="9.3877283"><ele>160.33333333333334</ele><time>2026-04-06T13:58:24.598Z</time></trkpt><trkpt lat="44.4208467" lon="9.3876433"><ele>160.5</ele><time>2026-04-06T13:58:25.598Z</time></trkpt><trkpt lat="44.4209117" lon="9.3875733"><ele>160.66666666666666</ele><time>2026-04-06T13:58:26.599Z</time></trkpt><trkpt lat="44.42098" lon="9.3875183"><ele>160.83333333333331</ele><time>2026-04-06T13:58:27.598Z</time></trkpt><trkpt lat="44.42106" lon="9.3874833"><ele>161.0</ele><time>2026-04-06T13:58:28.599Z</time></trkpt><trkpt lat="44.4211533" lon="9.3874717"><ele>161.0</ele><time>2026-04-06T13:58:29.598Z</time></trkpt><trkpt lat="44.4212767" lon="9.3874717"><ele>161.0</ele><time>2026-04-06T13:58:30.598Z</time></trkpt><trkpt lat="44.42139" lon="9.3874583"><ele>161.0</ele><time>2026-04-06T13:58:31.597Z</time></trkpt><trkpt lat="44.421495" lon="9.3874433"><ele>161.0</ele><time>2026-04-06T13:58:32.597Z</time></trkpt><trkpt lat="44.4215917" lon="9.38742"><ele>161.0</ele><time>2026-04-06T13:58:33.597Z</time></trkpt><trkpt lat="44.42169" lon="9.387385"><ele>161.8</ele><time>2026-04-06T13:58:34.598Z</time></trkpt><trkpt lat="44.4217933" lon="9.3873533"><ele>162.60000000000002</ele><time>2026-04-06T13:58:35.597Z</time></trkpt><trkpt lat="44.4218833" lon="9.3873133"><ele>163.4</ele><time>2026-04-06T13:58:36.597Z</time></trkpt><trkpt lat="44.421965" lon="9.3872717"><ele>164.2</ele><time>2026-04-06T13:58:37.597Z</time></trkpt><trkpt lat="44.4220433" lon="9.38724"><ele>165.0</ele><time>2026-04-06T13:58:38.598Z</time></trkpt><trkpt lat="44.4221288" lon="9.3872035"><ele>165.6</ele><time>2026-04-06T13:58:39.598Z</time></trkpt><trkpt lat="44.422218" lon="9.3871765"><ele>166.2</ele><time>2026-04-06T13:58:40.598Z</time></trkpt><trkpt lat="44.4223164" lon="9.3871475"><ele>166.8</ele><time>2026-04-06T13:58:41.597Z</time></trkpt><trkpt lat="44.4224186" lon="9.3871073"><ele>167.4</ele><time>2026-04-06T13:58:42.598Z</time></trkpt><trkpt lat="44.4225247" lon="9.3870674"><ele>168.0</ele><time>2026-04-06T13:58:43.598Z</time></trkpt><trkpt lat="44.4226203" lon="9.3869807"><ele>168.0</ele><time>2026-04-06T13:58:44.599Z</time></trkpt><trkpt lat="44.4227132" lon="9.386867"><ele>168.0</ele><time>2026-04-06T13:58:45.598Z</time></trkpt><trkpt lat="44.4227999" lon="9.3867175"><ele>168.0</ele><time>2026-04-06T13:58:46.598Z</time></trkpt><trkpt lat="44.4228901" lon="9.3865666"><ele>168.0</ele><time>2026-04-06T13:58:47.601Z</time></trkpt><trkpt lat="44.4229876" lon="9.3864178"><ele>170.0</ele><time>2026-04-06T13:58:48.598Z</time></trkpt><trkpt lat="44.4230872" lon="9.3862661"><ele>172.0</ele><time>2026-04-06T13:58:49.598Z</time></trkpt><trkpt lat="44.4231891" lon="9.3861094"><ele>174.0</ele><time>2026-04-06T13:58:50.599Z</time></trkpt><trkpt lat="44.4232886" lon="9.3859474"><ele>174.0</ele><time>2026-04-06T13:58:51.597Z</time></trkpt><trkpt lat="44.4233908" lon="9.3857841"><ele>174.0</ele><time>2026-04-06T13:58:52.597Z</time></trkpt><trkpt lat="44.4235018" lon="9.3856254"><ele>174.0</ele><time>2026-04-06T13:58:53.599Z</time></trkpt><trkpt lat="44.4236187" lon="9.385466"><ele>173.33333333333334</ele><time>2026-04-06T13:58:54.597Z</time></trkpt><trkpt lat="44.4237431" lon="9.3853083"><ele>172.66666666666669</ele><time>2026-04-06T13:58:55.598Z</time></trkpt><trkpt lat="44.4238732" lon="9.385148"><ele>172.0</ele><time>2026-04-06T13:58:56.599Z</time></trkpt><trkpt lat="44.4240055" lon="9.3849883"><ele>172.0</ele><time>2026-04-06T13:58:57.599Z</time></trkpt><trkpt lat="44.4241349" lon="9.384837"><ele>172.0</ele><time>2026-04-06T13:58:58.598Z</time></trkpt><trkpt lat="44.4242538" lon="9.3847021"><ele>172.0</ele><time>2026-04-06T13:58:59.599Z</time></trkpt><trkpt lat="44.4243721" lon="9.3845837"><ele>172.0</ele><time>2026-04-06T13:59:00.597Z</time></trkpt><trkpt lat="44.4245037" lon="9.3844828"><ele>172.0</ele><time>2026-04-06T13:59:01.598Z</time></trkpt><trkpt lat="44.4246455" lon="9.3843944"><ele>172.0</ele><time>2026-04-06T13:59:02.598Z</time></trkpt><trkpt lat="44.4247931" lon="9.3843005"><ele>179.0</ele><time>2026-04-06T13:59:03.598Z</time></trkpt><trkpt lat="44.4249409" lon="9.3841925"><ele>186.0</ele><time>2026-04-06T13:59:04.597Z</time></trkpt><trkpt lat="44.4250838" lon="9.3840685"><ele>193.0</ele><time>2026-04-06T13:59:05.599Z</time></trkpt><trkpt lat="44.4252144" lon="9.3839425"><ele>187.33333333333331</ele><time>2026-04-06T13:59:06.598Z</time></trkpt><trkpt lat="44.4253307" lon="9.3838151"><ele>181.66666666666666</ele><time>2026-04-06T13:59:07.597Z</time></trkpt><trkpt lat="44.4254332" lon="9.3836659"><ele>176.0</ele><time>2026-04-06T13:59:08.598Z</time></trkpt><trkpt lat="44.4255206" lon="9.3834843"><ele>184.0</ele><time>2026-04-06T13:59:09.597Z</time></trkpt><trkpt lat="44.4256" lon="9.3832813"><ele>192.0</ele><time>2026-04-06T13:59:10.597Z</time></trkpt><trkpt lat="44.4256813" lon="9.3830701"><ele>200.0</ele><time>2026-04-06T13:59:11.597Z</time></trkpt><trkpt lat="44.4257603" lon="9.3828674"><ele>200.0</ele><time>2026-04-06T13:59:12.597Z</time></trkpt><trkpt lat="44.4258351" lon="9.3826786"><ele>200.0</ele><time>2026-04-06T13:59:13.598Z</time></trkpt><trkpt lat="44.425906" lon="9.3825053"><ele>200.0</ele><time>2026-04-06T13:59:14.599Z</time></trkpt><trkpt lat="44.4259758" lon="9.3823578"><ele>200.0</ele><time>2026-04-06T13:59:15.598Z</time></trkpt><trkpt lat="44.4260601" lon="9.3822316"><ele>196.5</ele><time>2026-04-06T13:59:16.598Z</time></trkpt><trkpt lat="44.4261664" lon="9.3821199"><ele>193.0</ele><time>2026-04-06T13:59:17.597Z</time></trkpt><trkpt lat="44.4262823" lon="9.381991"><ele>189.5</ele><time>2026-04-06T13:59:18.598Z</time></trkpt><trkpt lat="44.4263971" lon="9.3818352"><ele>186.0</ele><time>2026-04-06T13:59:19.598Z</time></trkpt><trkpt lat="44.4265091" lon="9.3816581"><ele>191.0</ele><time>2026-04-06T13:59:20.598Z</time></trkpt><trkpt lat="44.4266278" lon="9.3814815"><ele>196.0</ele><time>2026-04-06T13:59:21.597Z</time></trkpt><trkpt lat="44.4267596" lon="9.3813115"><ele>201.0</ele><time>2026-04-06T13:59:22.598Z</time></trkpt><trkpt lat="44.4268975" lon="9.3811453"><ele>201.0</ele><time>2026-04-06T13:59:23.597Z</time></trkpt><trkpt lat="44.4270333" lon="9.3809806"><ele>201.0</ele><time>2026-04-06T13:59:24.598Z</time></trkpt><trkpt lat="44.4271594" lon="9.3808084"><ele>201.0</ele><time>2026-04-06T13:59:25.598Z</time></trkpt><trkpt lat="44.4272721" lon="9.3806192"><ele>207.33333333333331</ele><time>2026-04-06T13:59:26.599Z</time></trkpt><trkpt lat="44.427375" lon="9.3804"><ele>213.66666666666666</ele><time>2026-04-06T13:59:27.598Z</time></trkpt><trkpt lat="44.4274683" lon="9.380185"><ele>220.0</ele><time>2026-04-06T13:59:28.598Z</time></trkpt><trkpt lat="44.42755" lon="9.37999"><ele>220.0</ele><time>2026-04-06T13:59:29.6Z</time></trkpt><trkpt lat="44.4276233" lon="9.37981"><ele>220.0</ele><time>2026-04-06T13:59:30.598Z</time></trkpt><trkpt lat="44.4276883" lon="9.3796417"><ele>220.0</ele><time>2026-04-06T13:59:31.598Z</time></trkpt><trkpt lat="44.4277467" lon="9.3794867"><ele>220.0</ele><time>2026-04-06T13:59:32.597Z</time></trkpt><trkpt lat="44.4278033" lon="9.3793483"><ele>218.16666666666666</ele><time>2026-04-06T13:59:33.598Z</time></trkpt><trkpt lat="44.4278583" lon="9.3792283"><ele>216.33333333333331</ele><time>2026-04-06T13:59:34.598Z</time></trkpt><trkpt lat="44.427915" lon="9.3791267"><ele>214.5</ele><time>2026-04-06T13:59:35.599Z</time></trkpt><trkpt lat="44.42797" lon="9.3790433"><ele>212.66666666666669</ele><time>2026-04-06T13:59:36.598Z</time></trkpt><trkpt lat="44.4280283" lon="9.3789683"><ele>210.83333333333334</ele><time>2026-04-06T13:59:37.598Z</time></trkpt><trkpt lat="44.428085" lon="9.3788983"><ele>209.0</ele><time>2026-04-06T13:59:38.597Z</time></trkpt><trkpt lat="44.4281317" lon="9.37883"><ele>214.2</ele><time>2026-04-06T13:59:39.599Z</time></trkpt><trkpt lat="44.428185" lon="9.378695"><ele>219.39999999999998</ele><time>2026-04-06T13:59:41.598Z</time></trkpt><trkpt lat="44.4282133" lon="9.3785967"><ele>224.6</ele><time>2026-04-06T13:59:43.598Z</time></trkpt><trkpt lat="44.42829" lon="9.3784567"><ele>229.8</ele><time>2026-04-06T14:00:02.599Z</time></trkpt><trkpt lat="44.4283267" lon="9.37838"><ele>235.0</ele><time>2026-04-06T14:00:03.598Z</time></trkpt><trkpt lat="44.4283733" lon="9.3783033"><ele>235.0</ele><time>2026-04-06T14:00:04.599Z</time></trkpt><trkpt lat="44.4284333" lon="9.378225"><ele>235.0</ele><time>2026-04-06T14:00:05.597Z</time></trkpt><trkpt lat="44.42851" lon="9.378145"><ele>235.0</ele><time>2026-04-06T14:00:06.599Z</time></trkpt><trkpt lat="44.4285933" lon="9.3780567"><ele>235.0</ele><time>2026-04-06T14:00:07.598Z</time></trkpt><trkpt lat="44.4286767" lon="9.3779617"><ele>235.0</ele><time>2026-04-06T14:00:08.598Z</time></trkpt><trkpt lat="44.42875" lon="9.3778467"><ele>243.25</ele><time>2026-04-06T14:00:09.597Z</time></trkpt><trkpt lat="44.4288217" lon="9.3777167"><ele>251.5</ele><time>2026-04-06T14:00:10.599Z</time></trkpt><trkpt lat="44.4288867" lon="9.3775783"><ele>259.75</ele><time>2026-04-06T14:00:11.597Z</time></trkpt><trkpt lat="44.4289467" lon="9.3774433"><ele>268.0</ele><time>2026-04-06T14:00:12.598Z</time></trkpt><trkpt lat="44.4289967" lon="9.3773067"><ele>265.0</ele><time>2026-04-06T14:00:13.599Z</time></trkpt><trkpt lat="44.4290267" lon="9.3771567"><ele>262.0</ele><time>2026-04-06T14:00:14.598Z</time></trkpt><trkpt lat="44.4290483" lon="9.37699"><ele>259.0</ele><time>2026-04-06T14:00:15.598Z</time></trkpt><trkpt lat="44.429065" lon="9.3768083"><ele>256.0</ele><time>2026-04-06T14:00:16.598Z</time></trkpt><trkpt lat="44.4290833" lon="9.3766167"><ele>256.0</ele><time>2026-04-06T14:00:17.598Z</time></trkpt><trkpt lat="44.4291017" lon="9.3764217"><ele>256.0</ele><time>2026-04-06T14:00:18.598Z</time></trkpt><trkpt lat="44.4291217" lon="9.3762267"><ele>256.0</ele><time>2026-04-06T14:00:19.599Z</time></trkpt><trkpt lat="44.4291433" lon="9.3760483"><ele>256.0</ele><time>2026-04-06T14:00:20.599Z</time></trkpt><trkpt lat="44.42917" lon="9.3758867"><ele>253.16666666666666</ele><time>2026-04-06T14:00:21.598Z</time></trkpt><trkpt lat="44.4292067" lon="9.3757467"><ele>250.33333333333331</ele><time>2026-04-06T14:00:22.598Z</time></trkpt><trkpt lat="44.4292517" lon="9.375635"><ele>247.5</ele><time>2026-04-06T14:00:23.597Z</time></trkpt><trkpt lat="44.42931" lon="9.3755517"><ele>244.66666666666669</ele><time>2026-04-06T14:00:24.598Z</time></trkpt><trkpt lat="44.42938" lon="9.375505"><ele>241.83333333333334</ele><time>2026-04-06T14:00:25.599Z</time></trkpt><trkpt lat="44.42947" lon="9.375505"><ele>239.0</ele><time>2026-04-06T14:00:26.598Z</time></trkpt><trkpt lat="44.42958" lon="9.3755533"><ele>238.5</ele><time>2026-04-06T14:00:27.597Z</time></trkpt><trkpt lat="44.4297167" lon="9.3755917"><ele>238.0</ele><time>2026-04-06T14:00:28.598Z</time></trkpt><trkpt lat="44.4298467" lon="9.375595"><ele>237.5</ele><time>2026-04-06T14:00:29.597Z</time></trkpt><trkpt lat="44.4299783" lon="9.375545"><ele>237.0</ele><time>2026-04-06T14:00:30.598Z</time></trkpt><trkpt lat="44.430095" lon="9.3754517"><ele>237.0</ele><time>2026-04-06T14:00:31.598Z</time></trkpt><trkpt lat="44.4302117" lon="9.3753283"><ele>237.0</ele><time>2026-04-06T14:00:32.598Z</time></trkpt><trkpt lat="44.4303167" lon="9.3752"><ele>237.0</ele><time>2026-04-06T14:00:33.597Z</time></trkpt><trkpt lat="44.4304133" lon="9.37508"><ele>237.0</ele><time>2026-04-06T14:00:34.598Z</time></trkpt><trkpt lat="44.4305017" lon="9.37496"><ele>245.5</ele><time>2026-04-06T14:00:35.597Z</time></trkpt><trkpt lat="44.430575" lon="9.3748267"><ele>254.0</ele><time>2026-04-06T14:00:36.598Z</time></trkpt><trkpt lat="44.4306233" lon="9.3746667"><ele>262.5</ele><time>2026-04-06T14:00:37.598Z</time></trkpt><trkpt lat="44.430665" lon="9.3744833"><ele>271.0</ele><time>2026-04-06T14:00:38.599Z</time></trkpt><trkpt lat="44.4307117" lon="9.3742917"><ele>271.0</ele><time>2026-04-06T14:00:39.597Z</time></trkpt><trkpt lat="44.4307683" lon="9.3740933"><ele>271.0</ele><time>2026-04-06T14:00:40.598Z</time></trkpt><trkpt lat="44.4308333" lon="9.3738917"><ele>271.0</ele><time>2026-04-06T14:00:41.598Z</time></trkpt><trkpt lat="44.4309" lon="9.3736883"><ele>264.3333333333333</ele><time>2026-04-06T14:00:42.597Z</time></trkpt><trkpt lat="44.430975" lon="9.37348"><ele>257.6666666666667</ele><time>2026-04-06T14:00:43.598Z</time></trkpt><trkpt lat="44.43106" lon="9.3732717"><ele>251.0</ele><time>2026-04-06T14:00:44.599Z</time></trkpt><trkpt lat="44.4311633" lon="9.3730583"><ele>246.66666666666669</ele><time>2026-04-06T14:00:45.598Z</time></trkpt><trkpt lat="44.4312633" lon="9.3728417"><ele>242.33333333333331</ele><time>2026-04-06T14:00:46.597Z</time></trkpt><trkpt lat="44.4313567" lon="9.3726167"><ele>238.0</ele><time>2026-04-06T14:00:47.598Z</time></trkpt><trkpt lat="44.431435" lon="9.3723967"><ele>245.0</ele><time>2026-04-06T14:00:48.598Z</time></trkpt><trkpt lat="44.4315033" lon="9.3721917"><ele>252.0</ele><time>2026-04-06T14:00:49.598Z</time></trkpt><trkpt lat="44.4315667" lon="9.3720033"><ele>259.0</ele><time>2026-04-06T14:00:50.597Z</time></trkpt><trkpt lat="44.4316217" lon="9.3718317"><ele>266.0</ele><time>2026-04-06T14:00:51.598Z</time></trkpt><trkpt lat="44.4316717" lon="9.3716817"><ele>266.0</ele><time>2026-04-06T14:00:52.599Z</time></trkpt><trkpt lat="44.43173" lon="9.3715567"><ele>266.0</ele><time>2026-04-06T14:00:53.598Z</time></trkpt><trkpt lat="44.431805" lon="9.3714633"><ele>266.0</ele><time>2026-04-06T14:00:54.598Z</time></trkpt><trkpt lat="44.4318933" lon="9.3714033"><ele>266.0</ele><time>2026-04-06T14:00:55.599Z</time></trkpt><trkpt lat="44.4320017" lon="9.3713783"><ele>266.0</ele><time>2026-04-06T14:00:56.599Z</time></trkpt><trkpt lat="44.4321283" lon="9.3713817"><ele>273.33333333333337</ele><time>2026-04-06T14:00:57.599Z</time></trkpt><trkpt lat="44.432275" lon="9.3713917"><ele>280.6666666666667</ele><time>2026-04-06T14:00:58.599Z</time></trkpt><trkpt lat="44.4324367" lon="9.3714017"><ele>288.0</ele><time>2026-04-06T14:00:59.6Z</time></trkpt><trkpt lat="44.4325933" lon="9.3714133"><ele>288.0</ele><time>2026-04-06T14:01:00.599Z</time></trkpt><trkpt lat="44.4327383" lon="9.37142"><ele>288.0</ele><time>2026-04-06T14:01:01.598Z</time></trkpt><trkpt lat="44.4328767" lon="9.371415"><ele>288.0</ele><time>2026-04-06T14:01:02.599Z</time></trkpt><trkpt lat="44.4330133" lon="9.3713717"><ele>288.0</ele><time>2026-04-06T14:01:03.598Z</time></trkpt><trkpt lat="44.43315" lon="9.37127"><ele>285.3333333333333</ele><time>2026-04-06T14:01:04.598Z</time></trkpt><trkpt lat="44.43329" lon="9.371135"><ele>282.66666666666663</ele><time>2026-04-06T14:01:05.599Z</time></trkpt><trkpt lat="44.4334267" lon="9.3709867"><ele>280.0</ele><time>2026-04-06T14:01:06.599Z</time></trkpt><trkpt lat="44.43355" lon="9.370835"><ele>280.0</ele><time>2026-04-06T14:01:07.598Z</time></trkpt><trkpt lat="44.4336567" lon="9.3707"><ele>280.0</ele><time>2026-04-06T14:01:08.599Z</time></trkpt><trkpt lat="44.433755" lon="9.3705917"><ele>280.0</ele><time>2026-04-06T14:01:09.597Z</time></trkpt><trkpt lat="44.4338517" lon="9.3705167"><ele>280.0</ele><time>2026-04-06T14:01:10.598Z</time></trkpt><trkpt lat="44.433945" lon="9.3704833"><ele>280.25</ele><time>2026-04-06T14:01:11.599Z</time></trkpt><trkpt lat="44.4340467" lon="9.3705083"><ele>280.5</ele><time>2026-04-06T14:01:12.599Z</time></trkpt><trkpt lat="44.43416" lon="9.370575"><ele>280.75</ele><time>2026-04-06T14:01:13.599Z</time></trkpt><trkpt lat="44.4342833" lon="9.3706617"><ele>281.0</ele><time>2026-04-06T14:01:14.599Z</time></trkpt><trkpt lat="44.434405" lon="9.370745"><ele>284.6</ele><time>2026-04-06T14:01:15.598Z</time></trkpt><trkpt lat="44.434515" lon="9.370805"><ele>288.20000000000005</ele><time>2026-04-06T14:01:16.599Z</time></trkpt><trkpt lat="44.4346217" lon="9.3708217"><ele>291.79999999999995</ele><time>2026-04-06T14:01:17.599Z</time></trkpt><trkpt lat="44.4347133" lon="9.370775"><ele>295.4</ele><time>2026-04-06T14:01:18.598Z</time></trkpt><trkpt lat="44.4347833" lon="9.3706783"><ele>299.0</ele><time>2026-04-06T14:01:19.597Z</time></trkpt><trkpt lat="44.43481" lon="9.370525"><ele>299.75</ele><time>2026-04-06T14:01:20.599Z</time></trkpt><trkpt lat="44.4348133" lon="9.3703333"><ele>300.5</ele><time>2026-04-06T14:01:21.597Z</time></trkpt><trkpt lat="44.4348117" lon="9.37012"><ele>301.25</ele><time>2026-04-06T14:01:22.6Z</time></trkpt><trkpt lat="44.434815" lon="9.3699067"><ele>302.0</ele><time>2026-04-06T14:01:23.597Z</time></trkpt><trkpt lat="44.4348367" lon="9.36969"><ele>302.0</ele><time>2026-04-06T14:01:24.597Z</time></trkpt><trkpt lat="44.4348817" lon="9.369465"><ele>302.0</ele><time>2026-04-06T14:01:25.598Z</time></trkpt><trkpt lat="44.4349383" lon="9.3692333"><ele>302.0</ele><time>2026-04-06T14:01:26.599Z</time></trkpt><trkpt lat="44.4349933" lon="9.3690183"><ele>298.5</ele><time>2026-04-06T14:01:27.598Z</time></trkpt><trkpt lat="44.4350567" lon="9.3688317"><ele>295.0</ele><time>2026-04-06T14:01:28.597Z</time></trkpt><trkpt lat="44.43514" lon="9.3686667"><ele>291.5</ele><time>2026-04-06T14:01:29.598Z</time></trkpt><trkpt lat="44.4352417" lon="9.3685283"><ele>288.0</ele><time>2026-04-06T14:01:30.6Z</time></trkpt><trkpt lat="44.435365" lon="9.3684117"><ele>295.0</ele><time>2026-04-06T14:01:31.599Z</time></trkpt><trkpt lat="44.4355083" lon="9.3683183"><ele>302.0</ele><time>2026-04-06T14:01:32.598Z</time></trkpt><trkpt lat="44.4356583" lon="9.3682517"><ele>309.0</ele><time>2026-04-06T14:01:33.599Z</time></trkpt><trkpt lat="44.4358033" lon="9.368195"><ele>309.0</ele><time>2026-04-06T14:01:34.599Z</time></trkpt><trkpt lat="44.435935" lon="9.3681333"><ele>309.0</ele><time>2026-04-06T14:01:35.599Z</time></trkpt><trkpt lat="44.436045" lon="9.3680333"><ele>309.0</ele><time>2026-04-06T14:01:36.599Z</time></trkpt><trkpt lat="44.436135" lon="9.3679033"><ele>309.0</ele><time>2026-04-06T14:01:37.599Z</time></trkpt><trkpt lat="44.4362117" lon="9.3677817"><ele>310.25</ele><time>2026-04-06T14:01:38.599Z</time></trkpt><trkpt lat="44.4362917" lon="9.3676783"><ele>311.5</ele><time>2026-04-06T14:01:39.599Z</time></trkpt><trkpt lat="44.4363867" lon="9.3675933"><ele>312.75</ele><time>2026-04-06T14:01:40.598Z</time></trkpt><trkpt lat="44.4365" lon="9.3675267"><ele>314.0</ele><time>2026-04-06T14:01:41.598Z</time></trkpt><trkpt lat="44.4366267" lon="9.3674517"><ele>314.0</ele><time>2026-04-06T14:01:42.597Z</time></trkpt><trkpt lat="44.4367683" lon="9.36738"><ele>314.0</ele><time>2026-04-06T14:01:43.599Z</time></trkpt><trkpt lat="44.4369217" lon="9.367315"><ele>314.0</ele><time>2026-04-06T14:01:44.598Z</time></trkpt><trkpt lat="44.4370817" lon="9.3672533"><ele>313.6666666666667</ele><time>2026-04-06T14:01:45.598Z</time></trkpt><trkpt lat="44.4372567" lon="9.3672"><ele>313.3333333333333</ele><time>2026-04-06T14:01:46.598Z</time></trkpt><trkpt lat="44.437425" lon="9.3671267"><ele>313.0</ele><time>2026-04-06T14:01:47.598Z</time></trkpt><trkpt lat="44.43758" lon="9.3670433"><ele>313.0</ele><time>2026-04-06T14:01:48.597Z</time></trkpt><trkpt lat="44.4377183" lon="9.3669567"><ele>313.0</ele><time>2026-04-06T14:01:49.598Z</time></trkpt><trkpt lat="44.4378433" lon="9.366865"><ele>313.0</ele><time>2026-04-06T14:01:50.599Z</time></trkpt><trkpt lat="44.4379633" lon="9.36677"><ele>313.0</ele><time>2026-04-06T14:01:51.597Z</time></trkpt><trkpt lat="44.4380767" lon="9.3666783"><ele>316.0</ele><time>2026-04-06T14:01:52.598Z</time></trkpt><trkpt lat="44.4381783" lon="9.3665917"><ele>319.0</ele><time>2026-04-06T14:01:53.597Z</time></trkpt><trkpt lat="44.4382667" lon="9.3665083"><ele>322.0</ele><time>2026-04-06T14:01:54.598Z</time></trkpt><trkpt lat="44.43835" lon="9.3664417"><ele>325.0</ele><time>2026-04-06T14:01:55.599Z</time></trkpt><trkpt lat="44.438425" lon="9.3664017"><ele>328.0</ele><time>2026-04-06T14:01:56.598Z</time></trkpt><trkpt lat="44.4385" lon="9.3663933"><ele>328.0</ele><time>2026-04-06T14:01:57.598Z</time></trkpt><trkpt lat="44.4385867" lon="9.3664167"><ele>328.0</ele><time>2026-04-06T14:01:58.598Z</time></trkpt><trkpt lat="44.4386967" lon="9.3664533"><ele>328.0</ele><time>2026-04-06T14:01:59.598Z</time></trkpt><trkpt lat="44.4388083" lon="9.366475"><ele>328.0</ele><time>2026-04-06T14:02:00.597Z</time></trkpt><trkpt lat="44.4389383" lon="9.366465"><ele>328.0</ele><time>2026-04-06T14:02:01.599Z</time></trkpt><trkpt lat="44.439085" lon="9.36643"><ele>325.0</ele><time>2026-04-06T14:02:02.599Z</time></trkpt><trkpt lat="44.4392383" lon="9.3663633"><ele>322.0</ele><time>2026-04-06T14:02:03.598Z</time></trkpt><trkpt lat="44.43939" lon="9.366255"><ele>319.0</ele><time>2026-04-06T14:02:04.598Z</time></trkpt><trkpt lat="44.4395433" lon="9.3661167"><ele>327.66666666666663</ele><time>2026-04-06T14:02:05.598Z</time></trkpt><trkpt lat="44.4396983" lon="9.3659567"><ele>336.3333333333333</ele><time>2026-04-06T14:02:06.598Z</time></trkpt><trkpt lat="44.4398583" lon="9.3657983"><ele>345.0</ele><time>2026-04-06T14:02:07.599Z</time></trkpt><trkpt lat="44.440015" lon="9.3656567"><ele>345.0</ele><time>2026-04-06T14:02:08.598Z</time></trkpt><trkpt lat="44.44016" lon="9.3655333"><ele>345.0</ele><time>2026-04-06T14:02:09.597Z</time></trkpt><trkpt lat="44.4402883" lon="9.3654367"><ele>345.0</ele><time>2026-04-06T14:02:10.598Z</time></trkpt><trkpt lat="44.4404067" lon="9.3653683"><ele>345.0</ele><time>2026-04-06T14:02:11.597Z</time></trkpt><trkpt lat="44.440515" lon="9.365345"><ele>344.6</ele><time>2026-04-06T14:02:12.598Z</time></trkpt><trkpt lat="44.440625" lon="9.3653733"><ele>344.2</ele><time>2026-04-06T14:02:13.599Z</time></trkpt><trkpt lat="44.440735" lon="9.36541"><ele>343.79999999999995</ele><time>2026-04-06T14:02:14.599Z</time></trkpt><trkpt lat="44.4408383" lon="9.3654233"><ele>343.4</ele><time>2026-04-06T14:02:15.597Z</time></trkpt><trkpt lat="44.4409383" lon="9.3653817"><ele>343.0</ele><time>2026-04-06T14:02:16.598Z</time></trkpt><trkpt lat="44.4410383" lon="9.3652733"><ele>343.0</ele><time>2026-04-06T14:02:17.598Z</time></trkpt><trkpt lat="44.4411383" lon="9.3650933"><ele>343.0</ele><time>2026-04-06T14:02:18.598Z</time></trkpt><trkpt lat="44.4412217" lon="9.3648933"><ele>343.0</ele><time>2026-04-06T14:02:19.597Z</time></trkpt><trkpt lat="44.4413067" lon="9.3647233"><ele>343.0</ele><time>2026-04-06T14:02:20.598Z</time></trkpt><trkpt lat="44.4413967" lon="9.3645683"><ele>343.0</ele><time>2026-04-06T14:02:21.598Z</time></trkpt><trkpt lat="44.4415067" lon="9.364455"><ele>343.0</ele><time>2026-04-06T14:02:22.597Z</time></trkpt><trkpt lat="44.44162" lon="9.3643817"><ele>343.0</ele><time>2026-04-06T14:02:23.597Z</time></trkpt><trkpt lat="44.44172" lon="9.3643017"><ele>343.0</ele><time>2026-04-06T14:02:24.598Z</time></trkpt><trkpt lat="44.4417883" lon="9.36418"><ele>343.0</ele><time>2026-04-06T14:02:25.598Z</time></trkpt><trkpt lat="44.4418433" lon="9.3640433"><ele>343.0</ele><time>2026-04-06T14:02:26.597Z</time></trkpt><trkpt lat="44.4419083" lon="9.3639167"><ele>343.0</ele><time>2026-04-06T14:02:27.598Z</time></trkpt><trkpt lat="44.442" lon="9.363835"><ele>343.0</ele><time>2026-04-06T14:02:28.597Z</time></trkpt><trkpt lat="44.44211" lon="9.3638067"><ele>339.66666666666663</ele><time>2026-04-06T14:02:29.599Z</time></trkpt><trkpt lat="44.4422483" lon="9.3638367"><ele>336.3333333333333</ele><time>2026-04-06T14:02:30.599Z</time></trkpt><trkpt lat="44.442405" lon="9.3638833"><ele>333.0</ele><time>2026-04-06T14:02:31.6Z</time></trkpt><trkpt lat="44.4425933" lon="9.3639167"><ele>341.0</ele><time>2026-04-06T14:02:32.598Z</time></trkpt><trkpt lat="44.4427883" lon="9.36392"><ele>349.0</ele><time>2026-04-06T14:02:33.599Z</time></trkpt><trkpt lat="44.4429717" lon="9.363915"><ele>357.0</ele><time>2026-04-06T14:02:34.598Z</time></trkpt><trkpt lat="44.44313" lon="9.363905"><ele>358.5</ele><time>2026-04-06T14:02:35.599Z</time></trkpt><trkpt lat="44.4432667" lon="9.3639033"><ele>360.0</ele><time>2026-04-06T14:02:36.598Z</time></trkpt><trkpt lat="44.4433867" lon="9.3639267"><ele>361.5</ele><time>2026-04-06T14:02:37.599Z</time></trkpt><trkpt lat="44.4434917" lon="9.3640017"><ele>363.0</ele><time>2026-04-06T14:02:38.597Z</time></trkpt><trkpt lat="44.4435917" lon="9.364125"><ele>363.0</ele><time>2026-04-06T14:02:39.598Z</time></trkpt><trkpt lat="44.4436904" lon="9.3642491"><ele>363.0</ele><time>2026-04-06T14:02:40.599Z</time></trkpt><trkpt lat="44.4437951" lon="9.3643528"><ele>363.0</ele><time>2026-04-06T14:02:41.599Z</time></trkpt><trkpt lat="44.4439151" lon="9.364425"><ele>363.0</ele><time>2026-04-06T14:02:42.599Z</time></trkpt><trkpt lat="44.4440589" lon="9.3644582"><ele>362.0</ele><time>2026-04-06T14:02:43.598Z</time></trkpt><trkpt lat="44.4442025" lon="9.3644777"><ele>361.0</ele><time>2026-04-06T14:02:44.599Z</time></trkpt><trkpt lat="44.4443264" lon="9.3645196"><ele>360.0</ele><time>2026-04-06T14:02:45.598Z</time></trkpt><trkpt lat="44.4444281" lon="9.3645703"><ele>359.0</ele><time>2026-04-06T14:02:46.597Z</time></trkpt><trkpt lat="44.4445222" lon="9.3645977"><ele>359.0</ele><time>2026-04-06T14:02:47.598Z</time></trkpt><trkpt lat="44.4446085" lon="9.3645752"><ele>359.0</ele><time>2026-04-06T14:02:48.598Z</time></trkpt><trkpt lat="44.4446991" lon="9.3644886"><ele>359.0</ele><time>2026-04-06T14:02:49.599Z</time></trkpt><trkpt lat="44.4447966" lon="9.3643663"><ele>359.0</ele><time>2026-04-06T14:02:50.597Z</time></trkpt><trkpt lat="44.4449032" lon="9.3642494"><ele>361.25</ele><time>2026-04-06T14:02:51.598Z</time></trkpt><trkpt lat="44.4450219" lon="9.3641604"><ele>363.5</ele><time>2026-04-06T14:02:52.598Z</time></trkpt><trkpt lat="44.4451531" lon="9.3641099"><ele>365.75</ele><time>2026-04-06T14:02:53.598Z</time></trkpt><trkpt lat="44.4453064" lon="9.3641223"><ele>368.0</ele><time>2026-04-06T14:02:54.598Z</time></trkpt><trkpt lat="44.4454916" lon="9.3641913"><ele>370.5</ele><time>2026-04-06T14:02:55.598Z</time></trkpt><trkpt lat="44.4457009" lon="9.3642723"><ele>373.0</ele><time>2026-04-06T14:02:56.598Z</time></trkpt><trkpt lat="44.4459288" lon="9.3643396"><ele>373.0</ele><time>2026-04-06T14:02:57.599Z</time></trkpt><trkpt lat="44.4461689" lon="9.3644007"><ele>373.0</ele><time>2026-04-06T14:02:58.598Z</time></trkpt><trkpt lat="44.4464146" lon="9.3644764"><ele>368.5</ele><time>2026-04-06T14:02:59.599Z</time></trkpt><trkpt lat="44.446648" lon="9.3645608"><ele>364.0</ele><time>2026-04-06T14:03:00.598Z</time></trkpt><trkpt lat="44.4468635" lon="9.3646429"><ele>374.3333333333333</ele><time>2026-04-06T14:03:01.597Z</time></trkpt><trkpt lat="44.4470573" lon="9.3647223"><ele>384.66666666666663</ele><time>2026-04-06T14:03:02.599Z</time></trkpt><trkpt lat="44.4472314" lon="9.3647983"><ele>395.0</ele><time>2026-04-06T14:03:03.598Z</time></trkpt><trkpt lat="44.4473912" lon="9.3648626"><ele>395.0</ele><time>2026-04-06T14:03:04.599Z</time></trkpt><trkpt lat="44.4475438" lon="9.3648978"><ele>395.0</ele><time>2026-04-06T14:03:05.598Z</time></trkpt><trkpt lat="44.4476876" lon="9.3649005"><ele>395.0</ele><time>2026-04-06T14:03:06.598Z</time></trkpt><trkpt lat="44.4478211" lon="9.3648838"><ele>395.0</ele><time>2026-04-06T14:03:07.597Z</time></trkpt><trkpt lat="44.4479493" lon="9.3648808"><ele>394.5</ele><time>2026-04-06T14:03:08.599Z</time></trkpt><trkpt lat="44.4480791" lon="9.3649126"><ele>394.0</ele><time>2026-04-06T14:03:09.599Z</time></trkpt><trkpt lat="44.448219" lon="9.364977"><ele>393.5</ele><time>2026-04-06T14:03:10.597Z</time></trkpt><trkpt lat="44.4483611" lon="9.3650412"><ele>393.0</ele><time>2026-04-06T14:03:11.599Z</time></trkpt><trkpt lat="44.448496" lon="9.3650865"><ele>393.0</ele><time>2026-04-06T14:03:12.598Z</time></trkpt><trkpt lat="44.4486186" lon="9.3651403"><ele>393.0</ele><time>2026-04-06T14:03:13.598Z</time></trkpt><trkpt lat="44.4487333" lon="9.3652043"><ele>393.0</ele><time>2026-04-06T14:03:14.599Z</time></trkpt><trkpt lat="44.4488432" lon="9.3652532"><ele>393.0</ele><time>2026-04-06T14:03:15.598Z</time></trkpt><trkpt lat="44.4489482" lon="9.3652643"><ele>394.59999999999997</ele><time>2026-04-06T14:03:16.599Z</time></trkpt><trkpt lat="44.4490442" lon="9.3652182"><ele>396.2</ele><time>2026-04-06T14:03:17.598Z</time></trkpt><trkpt lat="44.4491222" lon="9.3651238"><ele>397.8</ele><time>2026-04-06T14:03:18.598Z</time></trkpt><trkpt lat="44.4491671" lon="9.3649983"><ele>399.4</ele><time>2026-04-06T14:03:19.598Z</time></trkpt><trkpt lat="44.4491839" lon="9.3648679"><ele>401.0</ele><time>2026-04-06T14:03:20.6Z</time></trkpt><trkpt lat="44.4491777" lon="9.364743"><ele>399.4</ele><time>2026-04-06T14:03:21.598Z</time></trkpt><trkpt lat="44.4491367" lon="9.3646297"><ele>397.8</ele><time>2026-04-06T14:03:22.597Z</time></trkpt><trkpt lat="44.4490575" lon="9.3645127"><ele>396.2</ele><time>2026-04-06T14:03:23.598Z</time></trkpt><trkpt lat="44.4489998" lon="9.3643758"><ele>394.59999999999997</ele><time>2026-04-06T14:03:24.598Z</time></trkpt><trkpt lat="44.4489782" lon="9.364222"><ele>393.0</ele><time>2026-04-06T14:03:25.6Z</time></trkpt><trkpt lat="44.4489747" lon="9.3640628"><ele>393.0</ele><time>2026-04-06T14:03:26.599Z</time></trkpt><trkpt lat="44.449005" lon="9.3639203"><ele>393.0</ele><time>2026-04-06T14:03:27.598Z</time></trkpt><trkpt lat="44.4490983" lon="9.3638267"><ele>393.0</ele><time>2026-04-06T14:03:28.598Z</time></trkpt><trkpt lat="44.4492417" lon="9.36377"><ele>393.0</ele><time>2026-04-06T14:03:29.599Z</time></trkpt><trkpt lat="44.4494017" lon="9.3637517"><ele>391.75</ele><time>2026-04-06T14:03:30.599Z</time></trkpt><trkpt lat="44.4495367" lon="9.3637233"><ele>390.5</ele><time>2026-04-06T14:03:31.598Z</time></trkpt><trkpt lat="44.449655" lon="9.36368"><ele>389.25</ele><time>2026-04-06T14:03:32.6Z</time></trkpt><trkpt lat="44.44976" lon="9.3635767"><ele>388.0</ele><time>2026-04-06T14:03:33.598Z</time></trkpt><trkpt lat="44.44984" lon="9.3634283"><ele>392.0</ele><time>2026-04-06T14:03:34.598Z</time></trkpt><trkpt lat="44.4498733" lon="9.36325"><ele>396.0</ele><time>2026-04-06T14:03:35.598Z</time></trkpt><trkpt lat="44.4498567" lon="9.3630733"><ele>400.0</ele><time>2026-04-06T14:03:36.598Z</time></trkpt><trkpt lat="44.449825" lon="9.3628967"><ele>404.0</ele><time>2026-04-06T14:03:37.598Z</time></trkpt><trkpt lat="44.449805" lon="9.3627217"><ele>404.0</ele><time>2026-04-06T14:03:38.598Z</time></trkpt><trkpt lat="44.449815" lon="9.3625583"><ele>404.0</ele><time>2026-04-06T14:03:39.598Z</time></trkpt><trkpt lat="44.44986" lon="9.362425"><ele>404.0</ele><time>2026-04-06T14:03:40.599Z</time></trkpt><trkpt lat="44.4499417" lon="9.3623433"><ele>404.0</ele><time>2026-04-06T14:03:41.598Z</time></trkpt><trkpt lat="44.450055" lon="9.3623017"><ele>404.0</ele><time>2026-04-06T14:03:42.598Z</time></trkpt><trkpt lat="44.4502033" lon="9.3622817"><ele>404.0</ele><time>2026-04-06T14:03:43.598Z</time></trkpt><trkpt lat="44.45034" lon="9.3622467"><ele>404.0</ele><time>2026-04-06T14:03:44.599Z</time></trkpt><trkpt lat="44.4504717" lon="9.3622267"><ele>404.0</ele><time>2026-04-06T14:03:45.597Z</time></trkpt><trkpt lat="44.4506" lon="9.3622183"><ele>404.0</ele><time>2026-04-06T14:03:46.598Z</time></trkpt><trkpt lat="44.4507067" lon="9.3621817"><ele>406.5</ele><time>2026-04-06T14:03:47.599Z</time></trkpt><trkpt lat="44.450795" lon="9.36209"><ele>409.0</ele><time>2026-04-06T14:03:48.598Z</time></trkpt><trkpt lat="44.45085" lon="9.3619433"><ele>411.5</ele><time>2026-04-06T14:03:49.597Z</time></trkpt><trkpt lat="44.4508567" lon="9.3617567"><ele>414.0</ele><time>2026-04-06T14:03:50.598Z</time></trkpt><trkpt lat="44.4508583" lon="9.3615767"><ele>414.0</ele><time>2026-04-06T14:03:51.598Z</time></trkpt><trkpt lat="44.4508733" lon="9.36141"><ele>414.0</ele><time>2026-04-06T14:03:52.599Z</time></trkpt><trkpt lat="44.45092" lon="9.361255"><ele>414.0</ele><time>2026-04-06T14:03:53.598Z</time></trkpt><trkpt lat="44.45099" lon="9.3610883"><ele>414.0</ele><time>2026-04-06T14:03:54.599Z</time></trkpt><trkpt lat="44.4510683" lon="9.360915"><ele>414.5</ele><time>2026-04-06T14:03:55.599Z</time></trkpt><trkpt lat="44.451145" lon="9.3607533"><ele>415.0</ele><time>2026-04-06T14:03:56.598Z</time></trkpt><trkpt lat="44.4512267" lon="9.3606117"><ele>415.5</ele><time>2026-04-06T14:03:57.599Z</time></trkpt><trkpt lat="44.45132" lon="9.36049"><ele>416.0</ele><time>2026-04-06T14:03:58.599Z</time></trkpt><trkpt lat="44.4514233" lon="9.3603867"><ele>416.0</ele><time>2026-04-06T14:03:59.599Z</time></trkpt><trkpt lat="44.4515267" lon="9.3602933"><ele>416.0</ele><time>2026-04-06T14:04:00.599Z</time></trkpt><trkpt lat="44.4516267" lon="9.360205"><ele>416.0</ele><time>2026-04-06T14:04:01.6Z</time></trkpt><trkpt lat="44.45172" lon="9.3601367"><ele>416.0</ele><time>2026-04-06T14:04:02.599Z</time></trkpt><trkpt lat="44.4518067" lon="9.36009"><ele>416.0</ele><time>2026-04-06T14:04:03.599Z</time></trkpt><trkpt lat="44.4518917" lon="9.36008"><ele>416.0</ele><time>2026-04-06T14:04:04.599Z</time></trkpt><trkpt lat="44.45198" lon="9.3601133"><ele>416.0</ele><time>2026-04-06T14:04:05.6Z</time></trkpt><trkpt lat="44.4520583" lon="9.3602067"><ele>416.0</ele><time>2026-04-06T14:04:06.6Z</time></trkpt><trkpt lat="44.4521233" lon="9.3603333"><ele>416.0</ele><time>2026-04-06T14:04:07.6Z</time></trkpt><trkpt lat="44.452195" lon="9.3604717"><ele>416.0</ele><time>2026-04-06T14:04:08.599Z</time></trkpt><trkpt lat="44.452275" lon="9.3605967"><ele>419.20000000000005</ele><time>2026-04-06T14:04:09.599Z</time></trkpt><trkpt lat="44.452365" lon="9.3606733"><ele>422.40000000000003</ele><time>2026-04-06T14:04:10.598Z</time></trkpt><trkpt lat="44.4524733" lon="9.36069"><ele>425.6</ele><time>2026-04-06T14:04:11.599Z</time></trkpt><trkpt lat="44.452585" lon="9.3606733"><ele>428.8</ele><time>2026-04-06T14:04:12.598Z</time></trkpt><trkpt lat="44.4526883" lon="9.3606717"><ele>432.0</ele><time>2026-04-06T14:04:13.599Z</time></trkpt><trkpt lat="44.45277" lon="9.3607183"><ele>432.0</ele><time>2026-04-06T14:04:14.597Z</time></trkpt><trkpt lat="44.452825" lon="9.36081"><ele>432.0</ele><time>2026-04-06T14:04:15.598Z</time></trkpt><trkpt lat="44.45284" lon="9.3609267"><ele>432.0</ele><time>2026-04-06T14:04:16.599Z</time></trkpt><trkpt lat="44.4528167" lon="9.3610367"><ele>432.0</ele><time>2026-04-06T14:04:17.598Z</time></trkpt><trkpt lat="44.4527883" lon="9.3611283"><ele>432.0</ele><time>2026-04-06T14:04:18.598Z</time></trkpt><trkpt lat="44.4527233" lon="9.3611783"><ele>432.0</ele><time>2026-04-06T14:04:19.597Z</time></trkpt><trkpt lat="44.4526267" lon="9.3611817"><ele>432.0</ele><time>2026-04-06T14:04:20.598Z</time></trkpt><trkpt lat="44.4525083" lon="9.36111"><ele>432.0</ele><time>2026-04-06T14:04:21.598Z</time></trkpt><trkpt lat="44.452335" lon="9.36099"><ele>432.0</ele><time>2026-04-06T14:04:22.598Z</time></trkpt><trkpt lat="44.4521917" lon="9.36093"><ele>430.5</ele><time>2026-04-06T14:04:23.597Z</time></trkpt><trkpt lat="44.452055" lon="9.3609433"><ele>429.0</ele><time>2026-04-06T14:04:24.599Z</time></trkpt><trkpt lat="44.4519167" lon="9.3610067"><ele>427.5</ele><time>2026-04-06T14:04:25.599Z</time></trkpt><trkpt lat="44.451785" lon="9.361115"><ele>426.0</ele><time>2026-04-06T14:04:26.599Z</time></trkpt><trkpt lat="44.45167" lon="9.3612567"><ele>428.25</ele><time>2026-04-06T14:04:27.598Z</time></trkpt><trkpt lat="44.4515833" lon="9.3614183"><ele>430.5</ele><time>2026-04-06T14:04:28.598Z</time></trkpt><trkpt lat="44.4515067" lon="9.361595"><ele>432.75</ele><time>2026-04-06T14:04:29.598Z</time></trkpt><trkpt lat="44.45142" lon="9.361755"><ele>435.0</ele><time>2026-04-06T14:04:30.598Z</time></trkpt><trkpt lat="44.451335" lon="9.3618867"><ele>432.6</ele><time>2026-04-06T14:04:31.6Z</time></trkpt><trkpt lat="44.4512567" lon="9.3620083"><ele>430.2</ele><time>2026-04-06T14:04:32.598Z</time></trkpt><trkpt lat="44.451205" lon="9.362135"><ele>427.79999999999995</ele><time>2026-04-06T14:04:33.598Z</time></trkpt><trkpt lat="44.45119" lon="9.3622667"><ele>425.4</ele><time>2026-04-06T14:04:34.597Z</time></trkpt><trkpt lat="44.4512267" lon="9.3623933"><ele>423.0</ele><time>2026-04-06T14:04:35.599Z</time></trkpt><trkpt lat="44.4512867" lon="9.3624883"><ele>426.0</ele><time>2026-04-06T14:04:36.599Z</time></trkpt><trkpt lat="44.4513633" lon="9.3625483"><ele>429.0</ele><time>2026-04-06T14:04:37.599Z</time></trkpt><trkpt lat="44.451485" lon="9.3625117"><ele>432.0</ele><time>2026-04-06T14:04:38.598Z</time></trkpt><trkpt lat="44.4515967" lon="9.3623583"><ele>435.0</ele><time>2026-04-06T14:04:39.598Z</time></trkpt><trkpt lat="44.4516383" lon="9.362115"><ele>435.0</ele><time>2026-04-06T14:04:40.598Z</time></trkpt><trkpt lat="44.451705" lon="9.3619583"><ele>435.0</ele><time>2026-04-06T14:04:41.598Z</time></trkpt><trkpt lat="44.4517917" lon="9.3618167"><ele>435.0</ele><time>2026-04-06T14:04:42.597Z</time></trkpt><trkpt lat="44.45191" lon="9.3616883"><ele>435.0</ele><time>2026-04-06T14:04:43.599Z</time></trkpt><trkpt lat="44.4520317" lon="9.3615867"><ele>437.8</ele><time>2026-04-06T14:04:44.599Z</time></trkpt><trkpt lat="44.4521467" lon="9.3615133"><ele>440.6</ele><time>2026-04-06T14:04:45.597Z</time></trkpt><trkpt lat="44.45225" lon="9.361465"><ele>443.4</ele><time>2026-04-06T14:04:46.598Z</time></trkpt><trkpt lat="44.4523483" lon="9.36144"><ele>446.2</ele><time>2026-04-06T14:04:47.598Z</time></trkpt><trkpt lat="44.4524533" lon="9.36145"><ele>449.0</ele><time>2026-04-06T14:04:48.599Z</time></trkpt><trkpt lat="44.45256" lon="9.3615033"><ele>449.0</ele><time>2026-04-06T14:04:49.598Z</time></trkpt><trkpt lat="44.452665" lon="9.3615683"><ele>449.0</ele><time>2026-04-06T14:04:50.599Z</time></trkpt><trkpt lat="44.4527733" lon="9.3616"><ele>449.0</ele><time>2026-04-06T14:04:51.598Z</time></trkpt><trkpt lat="44.4528733" lon="9.3615833"><ele>449.0</ele><time>2026-04-06T14:04:52.598Z</time></trkpt><trkpt lat="44.4529633" lon="9.361515"><ele>449.0</ele><time>2026-04-06T14:04:53.598Z</time></trkpt><trkpt lat="44.4530483" lon="9.3614183"><ele>450.2</ele><time>2026-04-06T14:04:54.599Z</time></trkpt><trkpt lat="44.4531383" lon="9.3613217"><ele>451.4</ele><time>2026-04-06T14:04:55.599Z</time></trkpt><trkpt lat="44.45323" lon="9.36126"><ele>452.6</ele><time>2026-04-06T14:04:56.599Z</time></trkpt><trkpt lat="44.4533233" lon="9.3612433"><ele>453.8</ele><time>2026-04-06T14:04:57.6Z</time></trkpt><trkpt lat="44.4534033" lon="9.3612733"><ele>455.0</ele><time>2026-04-06T14:04:58.601Z</time></trkpt><trkpt lat="44.453475" lon="9.3613683"><ele>455.0</ele><time>2026-04-06T14:04:59.598Z</time></trkpt><trkpt lat="44.45354" lon="9.361505"><ele>455.0</ele><time>2026-04-06T14:05:00.599Z</time></trkpt><trkpt lat="44.453625" lon="9.361655"><ele>455.0</ele><time>2026-04-06T14:05:01.6Z</time></trkpt><trkpt lat="44.4537233" lon="9.3618117"><ele>455.0</ele><time>2026-04-06T14:05:02.598Z</time></trkpt><trkpt lat="44.4538533" lon="9.3619533"><ele>454.0</ele><time>2026-04-06T14:05:03.6Z</time></trkpt><trkpt lat="44.4540067" lon="9.3620867"><ele>453.0</ele><time>2026-04-06T14:05:04.599Z</time></trkpt><trkpt lat="44.4541733" lon="9.362205"><ele>452.0</ele><time>2026-04-06T14:05:05.598Z</time></trkpt><trkpt lat="44.4543467" lon="9.36229"><ele>455.3333333333333</ele><time>2026-04-06T14:05:06.6Z</time></trkpt><trkpt lat="44.4545083" lon="9.3623433"><ele>458.66666666666663</ele><time>2026-04-06T14:05:07.599Z</time></trkpt><trkpt lat="44.454665" lon="9.362385"><ele>462.0</ele><time>2026-04-06T14:05:08.598Z</time></trkpt><trkpt lat="44.4548117" lon="9.3624183"><ele>462.0</ele><time>2026-04-06T14:05:09.599Z</time></trkpt><trkpt lat="44.45495" lon="9.3624467"><ele>462.0</ele><time>2026-04-06T14:05:10.597Z</time></trkpt><trkpt lat="44.455075" lon="9.3624783"><ele>462.0</ele><time>2026-04-06T14:05:11.599Z</time></trkpt><trkpt lat="44.45519" lon="9.3625383"><ele>462.0</ele><time>2026-04-06T14:05:12.598Z</time></trkpt><trkpt lat="44.455305" lon="9.3626517"><ele>462.0</ele><time>2026-04-06T14:05:13.599Z</time></trkpt><trkpt lat="44.4554033" lon="9.3627917"><ele>462.0</ele><time>2026-04-06T14:05:14.599Z</time></trkpt><trkpt lat="44.4554883" lon="9.36296"><ele>462.0</ele><time>2026-04-06T14:05:15.598Z</time></trkpt><trkpt lat="44.4555633" lon="9.3631517"><ele>462.0</ele><time>2026-04-06T14:05:16.597Z</time></trkpt><trkpt lat="44.4556433" lon="9.36335"><ele>462.5</ele><time>2026-04-06T14:05:17.598Z</time></trkpt><trkpt lat="44.45572" lon="9.3635383"><ele>463.0</ele><time>2026-04-06T14:05:18.598Z</time></trkpt><trkpt lat="44.4557867" lon="9.3637167"><ele>463.5</ele><time>2026-04-06T14:05:19.599Z</time></trkpt><trkpt lat="44.455845" lon="9.3638783"><ele>464.0</ele><time>2026-04-06T14:05:20.598Z</time></trkpt><trkpt lat="44.4558867" lon="9.3640267"><ele>465.79999999999995</ele><time>2026-04-06T14:05:21.597Z</time></trkpt><trkpt lat="44.4559" lon="9.3641717"><ele>467.59999999999997</ele><time>2026-04-06T14:05:22.598Z</time></trkpt><trkpt lat="44.4558883" lon="9.3643017"><ele>469.4</ele><time>2026-04-06T14:05:23.599Z</time></trkpt><trkpt lat="44.45584" lon="9.36439"><ele>471.2</ele><time>2026-04-06T14:05:24.598Z</time></trkpt><trkpt lat="44.4557533" lon="9.364395"><ele>473.0</ele><time>2026-04-06T14:05:25.598Z</time></trkpt><trkpt lat="44.4556733" lon="9.3643417"><ele>473.0</ele><time>2026-04-06T14:05:26.6Z</time></trkpt><trkpt lat="44.4556083" lon="9.3642283"><ele>473.0</ele><time>2026-04-06T14:05:27.598Z</time></trkpt><trkpt lat="44.4555533" lon="9.3640617"><ele>473.0</ele><time>2026-04-06T14:05:28.599Z</time></trkpt><trkpt lat="44.4555033" lon="9.3638683"><ele>473.0</ele><time>2026-04-06T14:05:29.599Z</time></trkpt><trkpt lat="44.4554467" lon="9.36366"><ele>473.75</ele><time>2026-04-06T14:05:30.599Z</time></trkpt><trkpt lat="44.45539" lon="9.363465"><ele>474.5</ele><time>2026-04-06T14:05:31.599Z</time></trkpt><trkpt lat="44.455325" lon="9.3632783"><ele>475.25</ele><time>2026-04-06T14:05:32.598Z</time></trkpt><trkpt lat="44.45525" lon="9.3631217"><ele>476.0</ele><time>2026-04-06T14:05:33.598Z</time></trkpt><trkpt lat="44.4551683" lon="9.3630017"><ele>476.0</ele><time>2026-04-06T14:05:34.598Z</time></trkpt><trkpt lat="44.455075" lon="9.3629467"><ele>476.0</ele><time>2026-04-06T14:05:35.598Z</time></trkpt><trkpt lat="44.45498" lon="9.3629433"><ele>476.0</ele><time>2026-04-06T14:05:36.598Z</time></trkpt><trkpt lat="44.4548867" lon="9.3630117"><ele>476.0</ele><time>2026-04-06T14:05:37.598Z</time></trkpt><trkpt lat="44.4547967" lon="9.36313"><ele>476.0</ele><time>2026-04-06T14:05:38.598Z</time></trkpt><trkpt lat="44.4547017" lon="9.363285"><ele>474.66666666666663</ele><time>2026-04-06T14:05:39.598Z</time></trkpt><trkpt lat="44.4545933" lon="9.3634583"><ele>473.33333333333337</ele><time>2026-04-06T14:05:40.599Z</time></trkpt><trkpt lat="44.45448" lon="9.3636417"><ele>472.0</ele><time>2026-04-06T14:05:41.597Z</time></trkpt><trkpt lat="44.4543733" lon="9.363815"><ele>474.75</ele><time>2026-04-06T14:05:42.599Z</time></trkpt><trkpt lat="44.45428" lon="9.363975"><ele>477.5</ele><time>2026-04-06T14:05:43.599Z</time></trkpt><trkpt lat="44.454205" lon="9.3641417"><ele>480.25</ele><time>2026-04-06T14:05:44.598Z</time></trkpt><trkpt lat="44.454155" lon="9.3643267"><ele>483.0</ele><time>2026-04-06T14:05:45.599Z</time></trkpt><trkpt lat="44.4541367" lon="9.36453"><ele>486.25</ele><time>2026-04-06T14:05:46.598Z</time></trkpt><trkpt lat="44.4541383" lon="9.364725"><ele>489.5</ele><time>2026-04-06T14:05:47.597Z</time></trkpt><trkpt lat="44.454135" lon="9.3649"><ele>492.75</ele><time>2026-04-06T14:05:48.599Z</time></trkpt><trkpt lat="44.454095" lon="9.365045"><ele>496.0</ele><time>2026-04-06T14:05:49.598Z</time></trkpt><trkpt lat="44.4540167" lon="9.3651567"><ele>496.0</ele><time>2026-04-06T14:05:50.599Z</time></trkpt><trkpt lat="44.4539067" lon="9.3652117"><ele>496.0</ele><time>2026-04-06T14:05:51.598Z</time></trkpt><trkpt lat="44.4537833" lon="9.36523"><ele>496.0</ele><time>2026-04-06T14:05:52.598Z</time></trkpt><trkpt lat="44.4536683" lon="9.3652483"><ele>496.0</ele><time>2026-04-06T14:05:53.602Z</time></trkpt><trkpt lat="44.45357" lon="9.3652867"><ele>494.6</ele><time>2026-04-06T14:05:54.6Z</time></trkpt><trkpt lat="44.4534933" lon="9.3653617"><ele>493.20000000000005</ele><time>2026-04-06T14:05:55.599Z</time></trkpt><trkpt lat="44.453445" lon="9.3654717"><ele>491.79999999999995</ele><time>2026-04-06T14:05:56.599Z</time></trkpt><trkpt lat="44.4534383" lon="9.3656167"><ele>490.4</ele><time>2026-04-06T14:05:57.599Z</time></trkpt><trkpt lat="44.4534733" lon="9.36577"><ele>489.0</ele><time>2026-04-06T14:05:58.598Z</time></trkpt><trkpt lat="44.45355" lon="9.36592"><ele>489.0</ele><time>2026-04-06T14:05:59.598Z</time></trkpt><trkpt lat="44.4536533" lon="9.36603"><ele>489.0</ele><time>2026-04-06T14:06:00.597Z</time></trkpt><trkpt lat="44.45376" lon="9.3660867"><ele>489.0</ele><time>2026-04-06T14:06:01.597Z</time></trkpt><trkpt lat="44.453885" lon="9.3660733"><ele>489.0</ele><time>2026-04-06T14:06:02.598Z</time></trkpt><trkpt lat="44.4540067" lon="9.3659733"><ele>491.33333333333337</ele><time>2026-04-06T14:06:03.598Z</time></trkpt><trkpt lat="44.4541283" lon="9.36581"><ele>493.6666666666667</ele><time>2026-04-06T14:06:04.599Z</time></trkpt><trkpt lat="44.4542333" lon="9.3656533"><ele>496.0</ele><time>2026-04-06T14:06:05.598Z</time></trkpt><trkpt lat="44.4543267" lon="9.3655083"><ele>496.0</ele><time>2026-04-06T14:06:06.599Z</time></trkpt><trkpt lat="44.4543933" lon="9.36536"><ele>496.0</ele><time>2026-04-06T14:06:07.6Z</time></trkpt><trkpt lat="44.4544367" lon="9.36521"><ele>496.0</ele><time>2026-04-06T14:06:08.599Z</time></trkpt><trkpt lat="44.454475" lon="9.3650817"><ele>496.0</ele><time>2026-04-06T14:06:09.598Z</time></trkpt><trkpt lat="44.4545283" lon="9.3649733"><ele>496.0</ele><time>2026-04-06T14:06:10.598Z</time></trkpt><trkpt lat="44.4546083" lon="9.3649133"><ele>498.0</ele><time>2026-04-06T14:06:11.598Z</time></trkpt><trkpt lat="44.45471" lon="9.3649117"><ele>500.0</ele><time>2026-04-06T14:06:12.599Z</time></trkpt><trkpt lat="44.4548217" lon="9.3649617"><ele>502.0</ele><time>2026-04-06T14:06:13.6Z</time></trkpt><trkpt lat="44.4549283" lon="9.3650567"><ele>504.0</ele><time>2026-04-06T14:06:14.598Z</time></trkpt><trkpt lat="44.45503" lon="9.3651983"><ele>504.0</ele><time>2026-04-06T14:06:15.599Z</time></trkpt><trkpt lat="44.4551267" lon="9.36537"><ele>504.0</ele><time>2026-04-06T14:06:16.598Z</time></trkpt><trkpt lat="44.4552217" lon="9.36556"><ele>504.0</ele><time>2026-04-06T14:06:17.597Z</time></trkpt><trkpt lat="44.4553183" lon="9.36575"><ele>502.66666666666663</ele><time>2026-04-06T14:06:18.598Z</time></trkpt><trkpt lat="44.4554167" lon="9.3659333"><ele>501.3333333333333</ele><time>2026-04-06T14:06:19.599Z</time></trkpt><trkpt lat="44.4555117" lon="9.3661117"><ele>500.0</ele><time>2026-04-06T14:06:20.598Z</time></trkpt><trkpt lat="44.4556067" lon="9.3662867"><ele>505.66666666666663</ele><time>2026-04-06T14:06:21.597Z</time></trkpt><trkpt lat="44.4556983" lon="9.3664617"><ele>511.33333333333337</ele><time>2026-04-06T14:06:22.599Z</time></trkpt><trkpt lat="44.4557817" lon="9.3666417"><ele>517.0</ele><time>2026-04-06T14:06:23.599Z</time></trkpt><trkpt lat="44.455855" lon="9.3668383"><ele>517.0</ele><time>2026-04-06T14:06:24.598Z</time></trkpt><trkpt lat="44.455915" lon="9.3670467"><ele>517.0</ele><time>2026-04-06T14:06:25.598Z</time></trkpt><trkpt lat="44.45597" lon="9.367245"><ele>517.0</ele><time>2026-04-06T14:06:26.598Z</time></trkpt><trkpt lat="44.4560233" lon="9.3674217"><ele>517.0</ele><time>2026-04-06T14:06:27.598Z</time></trkpt><trkpt lat="44.4560967" lon="9.3675683"><ele>516.25</ele><time>2026-04-06T14:06:28.598Z</time></trkpt><trkpt lat="44.4561817" lon="9.36768"><ele>515.5</ele><time>2026-04-06T14:06:29.598Z</time></trkpt><trkpt lat="44.456295" lon="9.3677333"><ele>514.75</ele><time>2026-04-06T14:06:30.599Z</time></trkpt><trkpt lat="44.4564267" lon="9.3677267"><ele>514.0</ele><time>2026-04-06T14:06:31.599Z</time></trkpt><trkpt lat="44.456555" lon="9.3676917"><ele>514.0</ele><time>2026-04-06T14:06:32.599Z</time></trkpt><trkpt lat="44.4566767" lon="9.3676467"><ele>514.0</ele><time>2026-04-06T14:06:33.598Z</time></trkpt><trkpt lat="44.4567883" lon="9.3676267"><ele>514.0</ele><time>2026-04-06T14:06:34.599Z</time></trkpt><trkpt lat="44.456895" lon="9.3676567"><ele>514.0</ele><time>2026-04-06T14:06:35.601Z</time></trkpt><trkpt lat="44.4569983" lon="9.3677433"><ele>514.0</ele><time>2026-04-06T14:06:36.6Z</time></trkpt><trkpt lat="44.4571183" lon="9.36784"><ele>514.0</ele><time>2026-04-06T14:06:37.599Z</time></trkpt><trkpt lat="44.4572367" lon="9.3679183"><ele>514.0</ele><time>2026-04-06T14:06:38.598Z</time></trkpt><trkpt lat="44.4573567" lon="9.3679583"><ele>514.0</ele><time>2026-04-06T14:06:39.598Z</time></trkpt><trkpt lat="44.457475" lon="9.3679517"><ele>514.75</ele><time>2026-04-06T14:06:40.597Z</time></trkpt><trkpt lat="44.4575983" lon="9.36794"><ele>515.5</ele><time>2026-04-06T14:06:41.598Z</time></trkpt><trkpt lat="44.4577167" lon="9.3679567"><ele>516.25</ele><time>2026-04-06T14:06:42.598Z</time></trkpt><trkpt lat="44.4578167" lon="9.3680117"><ele>517.0</ele><time>2026-04-06T14:06:43.598Z</time></trkpt><trkpt lat="44.457915" lon="9.3681033"><ele>522.5</ele><time>2026-04-06T14:06:44.599Z</time></trkpt><trkpt lat="44.4580233" lon="9.36819"><ele>528.0</ele><time>2026-04-06T14:06:45.598Z</time></trkpt><trkpt lat="44.4581517" lon="9.3682367"><ele>533.5</ele><time>2026-04-06T14:06:46.597Z</time></trkpt><trkpt lat="44.4582817" lon="9.3682567"><ele>539.0</ele><time>2026-04-06T14:06:47.598Z</time></trkpt><trkpt lat="44.4584067" lon="9.3682817"><ele>539.0</ele><time>2026-04-06T14:06:48.599Z</time></trkpt><trkpt lat="44.4585233" lon="9.368335"><ele>539.0</ele><time>2026-04-06T14:06:49.599Z</time></trkpt><trkpt lat="44.458635" lon="9.3684167"><ele>539.0</ele><time>2026-04-06T14:06:50.599Z</time></trkpt><trkpt lat="44.458745" lon="9.368515"><ele>539.0</ele><time>2026-04-06T14:06:51.599Z</time></trkpt><trkpt lat="44.4588517" lon="9.3686133"><ele>540.4</ele><time>2026-04-06T14:06:52.598Z</time></trkpt><trkpt lat="44.4589517" lon="9.3686967"><ele>541.8</ele><time>2026-04-06T14:06:53.599Z</time></trkpt><trkpt lat="44.4590433" lon="9.36875"><ele>543.2</ele><time>2026-04-06T14:06:54.597Z</time></trkpt><trkpt lat="44.4591317" lon="9.3687467"><ele>544.6</ele><time>2026-04-06T14:06:55.598Z</time></trkpt><trkpt lat="44.4592167" lon="9.368685"><ele>546.0</ele><time>2026-04-06T14:06:56.599Z</time></trkpt><trkpt lat="44.4592767" lon="9.3685617"><ele>546.0</ele><time>2026-04-06T14:06:57.598Z</time></trkpt><trkpt lat="44.4592917" lon="9.3683783"><ele>546.0</ele><time>2026-04-06T14:06:58.598Z</time></trkpt><trkpt lat="44.4592683" lon="9.3682017"><ele>546.0</ele><time>2026-04-06T14:06:59.599Z</time></trkpt><trkpt lat="44.4592217" lon="9.3680117"><ele>546.0</ele><time>2026-04-06T14:07:00.599Z</time></trkpt><trkpt lat="44.4591767" lon="9.36781"><ele>547.0</ele><time>2026-04-06T14:07:01.598Z</time></trkpt><trkpt lat="44.4591383" lon="9.3676083"><ele>548.0</ele><time>2026-04-06T14:07:02.599Z</time></trkpt><trkpt lat="44.4591133" lon="9.3673983"><ele>549.0</ele><time>2026-04-06T14:07:03.599Z</time></trkpt><trkpt lat="44.4591033" lon="9.3671767"><ele>549.6666666666666</ele><time>2026-04-06T14:07:04.598Z</time></trkpt><trkpt lat="44.459095" lon="9.3669567"><ele>550.3333333333333</ele><time>2026-04-06T14:07:05.599Z</time></trkpt><trkpt lat="44.45908" lon="9.36673"><ele>551.0</ele><time>2026-04-06T14:07:06.599Z</time></trkpt><trkpt lat="44.4590483" lon="9.36651"><ele>550.25</ele><time>2026-04-06T14:07:07.598Z</time></trkpt><trkpt lat="44.459" lon="9.3663117"><ele>549.5</ele><time>2026-04-06T14:07:08.598Z</time></trkpt><trkpt lat="44.45894" lon="9.36613"><ele>548.75</ele><time>2026-04-06T14:07:09.598Z</time></trkpt><trkpt lat="44.45888" lon="9.365975"><ele>548.0</ele><time>2026-04-06T14:07:10.599Z</time></trkpt><trkpt lat="44.4588317" lon="9.3658383"><ele>548.0</ele><time>2026-04-06T14:07:11.599Z</time></trkpt><trkpt lat="44.45881" lon="9.365705"><ele>548.0</ele><time>2026-04-06T14:07:12.598Z</time></trkpt><trkpt lat="44.4588283" lon="9.3655867"><ele>548.0</ele><time>2026-04-06T14:07:13.599Z</time></trkpt><trkpt lat="44.4588683" lon="9.3654817"><ele>548.0</ele><time>2026-04-06T14:07:14.598Z</time></trkpt><trkpt lat="44.4589417" lon="9.3654533"><ele>548.0</ele><time>2026-04-06T14:07:15.599Z</time></trkpt><trkpt lat="44.4590233" lon="9.3654867"><ele>548.0</ele><time>2026-04-06T14:07:16.599Z</time></trkpt><trkpt lat="44.4591317" lon="9.365595"><ele>548.0</ele><time>2026-04-06T14:07:17.598Z</time></trkpt><trkpt lat="44.4592767" lon="9.365735"><ele>548.0</ele><time>2026-04-06T14:07:18.598Z</time></trkpt><trkpt lat="44.4594367" lon="9.36588"><ele>548.0</ele><time>2026-04-06T14:07:19.597Z</time></trkpt><trkpt lat="44.4596033" lon="9.366015"><ele>549.3333333333333</ele><time>2026-04-06T14:07:20.6Z</time></trkpt><trkpt lat="44.4597783" lon="9.36611"><ele>550.6666666666666</ele><time>2026-04-06T14:07:21.598Z</time></trkpt><trkpt lat="44.4599683" lon="9.36617"><ele>552.0</ele><time>2026-04-06T14:07:22.598Z</time></trkpt><trkpt lat="44.4601683" lon="9.3662233"><ele>552.0</ele><time>2026-04-06T14:07:23.597Z</time></trkpt><trkpt lat="44.46035" lon="9.3662767"><ele>552.0</ele><time>2026-04-06T14:07:24.598Z</time></trkpt><trkpt lat="44.4605217" lon="9.3663467"><ele>552.0</ele><time>2026-04-06T14:07:25.598Z</time></trkpt><trkpt lat="44.4606733" lon="9.3664267"><ele>560.3333333333334</ele><time>2026-04-06T14:07:26.599Z</time></trkpt><trkpt lat="44.4608233" lon="9.366505"><ele>568.6666666666667</ele><time>2026-04-06T14:07:27.598Z</time></trkpt><trkpt lat="44.46098" lon="9.3665533"><ele>577.0</ele><time>2026-04-06T14:07:28.597Z</time></trkpt><trkpt lat="44.4611583" lon="9.3665633"><ele>576.3333333333334</ele><time>2026-04-06T14:07:29.599Z</time></trkpt><trkpt lat="44.4613383" lon="9.36655"><ele>575.6666666666666</ele><time>2026-04-06T14:07:30.598Z</time></trkpt><trkpt lat="44.461515" lon="9.36653"><ele>575.0</ele><time>2026-04-06T14:07:31.598Z</time></trkpt><trkpt lat="44.4617017" lon="9.3664817"><ele>575.0</ele><time>2026-04-06T14:07:32.599Z</time></trkpt><trkpt lat="44.4618883" lon="9.366415"><ele>575.0</ele><time>2026-04-06T14:07:33.599Z</time></trkpt><trkpt lat="44.4620633" lon="9.36634"><ele>575.0</ele><time>2026-04-06T14:07:34.598Z</time></trkpt><trkpt lat="44.4622183" lon="9.3662617"><ele>573.0</ele><time>2026-04-06T14:07:35.597Z</time></trkpt><trkpt lat="44.4623617" lon="9.3661867"><ele>571.0</ele><time>2026-04-06T14:07:36.598Z</time></trkpt><trkpt lat="44.4624967" lon="9.3661167"><ele>569.0</ele><time>2026-04-06T14:07:37.598Z</time></trkpt><trkpt lat="44.462625" lon="9.36604"><ele>567.0</ele><time>2026-04-06T14:07:38.599Z</time></trkpt><trkpt lat="44.4627383" lon="9.3659333"><ele>567.0</ele><time>2026-04-06T14:07:39.598Z</time></trkpt><trkpt lat="44.4628333" lon="9.3658033"><ele>567.0</ele><time>2026-04-06T14:07:40.597Z</time></trkpt><trkpt lat="44.4629167" lon="9.3656733"><ele>567.0</ele><time>2026-04-06T14:07:41.597Z</time></trkpt><trkpt lat="44.4629983" lon="9.3655733"><ele>567.0</ele><time>2026-04-06T14:07:42.598Z</time></trkpt><trkpt lat="44.4630967" lon="9.3655183"><ele>564.5</ele><time>2026-04-06T14:07:43.6Z</time></trkpt><trkpt lat="44.46322" lon="9.3655183"><ele>562.0</ele><time>2026-04-06T14:07:44.599Z</time></trkpt><trkpt lat="44.46336" lon="9.3655467"><ele>559.5</ele><time>2026-04-06T14:07:45.598Z</time></trkpt><trkpt lat="44.4635017" lon="9.3655767"><ele>557.0</ele><time>2026-04-06T14:07:46.598Z</time></trkpt><trkpt lat="44.46363" lon="9.3655867"><ele>562.75</ele><time>2026-04-06T14:07:47.597Z</time></trkpt><trkpt lat="44.4637417" lon="9.3655433"><ele>568.5</ele><time>2026-04-06T14:07:48.598Z</time></trkpt><trkpt lat="44.4638417" lon="9.365425"><ele>574.25</ele><time>2026-04-06T14:07:49.597Z</time></trkpt><trkpt lat="44.4639483" lon="9.365265"><ele>580.0</ele><time>2026-04-06T14:07:50.597Z</time></trkpt><trkpt lat="44.4640567" lon="9.3650867"><ele>580.0</ele><time>2026-04-06T14:07:51.598Z</time></trkpt><trkpt lat="44.4641617" lon="9.3649167"><ele>580.0</ele><time>2026-04-06T14:07:52.597Z</time></trkpt><trkpt lat="44.4642567" lon="9.36476"><ele>580.0</ele><time>2026-04-06T14:07:53.598Z</time></trkpt><trkpt lat="44.46434" lon="9.3646283"><ele>580.0</ele><time>2026-04-06T14:07:54.599Z</time></trkpt><trkpt lat="44.4644267" lon="9.3645333"><ele>580.25</ele><time>2026-04-06T14:07:55.598Z</time></trkpt><trkpt lat="44.4645383" lon="9.364485"><ele>580.5</ele><time>2026-04-06T14:07:56.599Z</time></trkpt><trkpt lat="44.46467" lon="9.3644583"><ele>580.75</ele><time>2026-04-06T14:07:57.598Z</time></trkpt><trkpt lat="44.4648117" lon="9.3644433"><ele>581.0</ele><time>2026-04-06T14:07:58.598Z</time></trkpt><trkpt lat="44.4649583" lon="9.3644233"><ele>581.0</ele><time>2026-04-06T14:07:59.599Z</time></trkpt><trkpt lat="44.4651117" lon="9.3644067"><ele>581.0</ele><time>2026-04-06T14:08:00.598Z</time></trkpt><trkpt lat="44.4652633" lon="9.3643867"><ele>581.0</ele><time>2026-04-06T14:08:01.599Z</time></trkpt><trkpt lat="44.4654267" lon="9.3643733"><ele>582.3333333333333</ele><time>2026-04-06T14:08:02.598Z</time></trkpt><trkpt lat="44.4656033" lon="9.3643833"><ele>583.6666666666666</ele><time>2026-04-06T14:08:03.599Z</time></trkpt><trkpt lat="44.465775" lon="9.3644117"><ele>585.0</ele><time>2026-04-06T14:08:04.599Z</time></trkpt><trkpt lat="44.4659483" lon="9.36446"><ele>585.0</ele><time>2026-04-06T14:08:05.599Z</time></trkpt><trkpt lat="44.4661267" lon="9.3645433"><ele>585.0</ele><time>2026-04-06T14:08:06.598Z</time></trkpt><trkpt lat="44.4663067" lon="9.36465"><ele>585.0</ele><time>2026-04-06T14:08:07.6Z</time></trkpt><trkpt lat="44.4664733" lon="9.36475"><ele>590.25</ele><time>2026-04-06T14:08:08.598Z</time></trkpt><trkpt lat="44.4666267" lon="9.3648383"><ele>595.5</ele><time>2026-04-06T14:08:09.597Z</time></trkpt><trkpt lat="44.4667583" lon="9.36491"><ele>600.75</ele><time>2026-04-06T14:08:10.598Z</time></trkpt><trkpt lat="44.4668767" lon="9.364965"><ele>606.0</ele><time>2026-04-06T14:08:11.598Z</time></trkpt><trkpt lat="44.466985" lon="9.3649833"><ele>606.0</ele><time>2026-04-06T14:08:12.597Z</time></trkpt><trkpt lat="44.4670867" lon="9.3649483"><ele>606.0</ele><time>2026-04-06T14:08:13.599Z</time></trkpt><trkpt lat="44.4671817" lon="9.3648483"><ele>606.0</ele><time>2026-04-06T14:08:14.6Z</time></trkpt><trkpt lat="44.46727" lon="9.36473"><ele>606.0</ele><time>2026-04-06T14:08:15.599Z</time></trkpt><trkpt lat="44.4673483" lon="9.3646117"><ele>603.8</ele><time>2026-04-06T14:08:16.599Z</time></trkpt><trkpt lat="44.4674233" lon="9.3645117"><ele>601.6</ele><time>2026-04-06T14:08:17.598Z</time></trkpt><trkpt lat="44.4675033" lon="9.3644533"><ele>599.4</ele><time>2026-04-06T14:08:18.599Z</time></trkpt><trkpt lat="44.4675917" lon="9.36444"><ele>597.2</ele><time>2026-04-06T14:08:19.598Z</time></trkpt><trkpt lat="44.4676733" lon="9.3644917"><ele>595.0</ele><time>2026-04-06T14:08:20.599Z</time></trkpt><trkpt lat="44.4677233" lon="9.36459"><ele>596.6</ele><time>2026-04-06T14:08:21.599Z</time></trkpt><trkpt lat="44.4677183" lon="9.3647083"><ele>598.2</ele><time>2026-04-06T14:08:22.597Z</time></trkpt><trkpt lat="44.4676883" lon="9.3648333"><ele>599.8</ele><time>2026-04-06T14:08:23.598Z</time></trkpt><trkpt lat="44.4676283" lon="9.36494"><ele>601.4</ele><time>2026-04-06T14:08:24.598Z</time></trkpt><trkpt lat="44.4675217" lon="9.365025"><ele>603.0</ele><time>2026-04-06T14:08:25.599Z</time></trkpt><trkpt lat="44.467365" lon="9.36508"><ele>603.0</ele><time>2026-04-06T14:08:26.598Z</time></trkpt><trkpt lat="44.4672283" lon="9.36513"><ele>603.0</ele><time>2026-04-06T14:08:27.599Z</time></trkpt><trkpt lat="44.46709" lon="9.3651667"><ele>603.0</ele><time>2026-04-06T14:08:28.599Z</time></trkpt><trkpt lat="44.4669533" lon="9.365175"><ele>603.0</ele><time>2026-04-06T14:08:29.598Z</time></trkpt><trkpt lat="44.466805" lon="9.365145"><ele>604.0</ele><time>2026-04-06T14:08:30.597Z</time></trkpt><trkpt lat="44.4666533" lon="9.3651067"><ele>605.0</ele><time>2026-04-06T14:08:31.597Z</time></trkpt><trkpt lat="44.4665017" lon="9.3650683"><ele>606.0</ele><time>2026-04-06T14:08:32.599Z</time></trkpt><trkpt lat="44.4663467" lon="9.3650233"><ele>606.25</ele><time>2026-04-06T14:08:33.599Z</time></trkpt><trkpt lat="44.466195" lon="9.3649783"><ele>606.5</ele><time>2026-04-06T14:08:34.598Z</time></trkpt><trkpt lat="44.4660533" lon="9.3649317"><ele>606.75</ele><time>2026-04-06T14:08:35.597Z</time></trkpt><trkpt lat="44.4659283" lon="9.36489"><ele>607.0</ele><time>2026-04-06T14:08:36.598Z</time></trkpt><trkpt lat="44.46582" lon="9.36486"><ele>607.0</ele><time>2026-04-06T14:08:37.597Z</time></trkpt><trkpt lat="44.4657267" lon="9.364855"><ele>607.0</ele><time>2026-04-06T14:08:38.599Z</time></trkpt><trkpt lat="44.4656383" lon="9.364895"><ele>607.0</ele><time>2026-04-06T14:08:39.597Z</time></trkpt><trkpt lat="44.4655617" lon="9.3649933"><ele>607.0</ele><time>2026-04-06T14:08:40.598Z</time></trkpt><trkpt lat="44.4655133" lon="9.3651217"><ele>607.0</ele><time>2026-04-06T14:08:41.598Z</time></trkpt><trkpt lat="44.4654933" lon="9.36527"><ele>607.0</ele><time>2026-04-06T14:08:42.599Z</time></trkpt><trkpt lat="44.4655" lon="9.3654183"><ele>607.0</ele><time>2026-04-06T14:08:43.598Z</time></trkpt><trkpt lat="44.465515" lon="9.36556"><ele>607.0</ele><time>2026-04-06T14:08:44.599Z</time></trkpt><trkpt lat="44.4655217" lon="9.3657"><ele>607.0</ele><time>2026-04-06T14:08:45.599Z</time></trkpt><trkpt lat="44.4654983" lon="9.36584"><ele>607.0</ele><time>2026-04-06T14:08:46.598Z</time></trkpt><trkpt lat="44.4654467" lon="9.36597"><ele>607.5</ele><time>2026-04-06T14:08:47.598Z</time></trkpt><trkpt lat="44.4653883" lon="9.3660983"><ele>608.0</ele><time>2026-04-06T14:08:48.598Z</time></trkpt><trkpt lat="44.46535" lon="9.366245"><ele>608.5</ele><time>2026-04-06T14:08:49.598Z</time></trkpt><trkpt lat="44.4653417" lon="9.3664067"><ele>609.0</ele><time>2026-04-06T14:08:50.598Z</time></trkpt><trkpt lat="44.4653583" lon="9.3665733"><ele>611.0</ele><time>2026-04-06T14:08:51.599Z</time></trkpt><trkpt lat="44.46538" lon="9.3667317"><ele>613.0</ele><time>2026-04-06T14:08:52.598Z</time></trkpt><trkpt lat="44.465375" lon="9.3668733"><ele>615.0</ele><time>2026-04-06T14:08:53.598Z</time></trkpt><trkpt lat="44.46534" lon="9.36698"><ele>617.0</ele><time>2026-04-06T14:08:54.598Z</time></trkpt><trkpt lat="44.4652783" lon="9.3670417"><ele>619.0</ele><time>2026-04-06T14:08:55.598Z</time></trkpt><trkpt lat="44.4651967" lon="9.367045"><ele>619.0</ele><time>2026-04-06T14:08:56.598Z</time></trkpt><trkpt lat="44.465115" lon="9.366985"><ele>619.0</ele><time>2026-04-06T14:08:57.598Z</time></trkpt><trkpt lat="44.465045" lon="9.3668783"><ele>619.0</ele><time>2026-04-06T14:08:58.598Z</time></trkpt><trkpt lat="44.464975" lon="9.3667733"><ele>619.0</ele><time>2026-04-06T14:08:59.599Z</time></trkpt><trkpt lat="44.4648933" lon="9.3667067"><ele>619.0</ele><time>2026-04-06T14:09:00.599Z</time></trkpt><trkpt lat="44.4647983" lon="9.3666917"><ele>619.0</ele><time>2026-04-06T14:09:01.599Z</time></trkpt><trkpt lat="44.4647167" lon="9.3667467"><ele>619.0</ele><time>2026-04-06T14:09:02.598Z</time></trkpt><trkpt lat="44.4646567" lon="9.3668417"><ele>619.0</ele><time>2026-04-06T14:09:03.599Z</time></trkpt><trkpt lat="44.4646467" lon="9.367"><ele>619.0</ele><time>2026-04-06T14:09:04.599Z</time></trkpt><trkpt lat="44.4646917" lon="9.3671783"><ele>619.0</ele><time>2026-04-06T14:09:05.599Z</time></trkpt><trkpt lat="44.4647767" lon="9.3673633"><ele>621.3333333333334</ele><time>2026-04-06T14:09:06.599Z</time></trkpt><trkpt lat="44.4648917" lon="9.3675433"><ele>623.6666666666666</ele><time>2026-04-06T14:09:07.598Z</time></trkpt><trkpt lat="44.46502" lon="9.3676933"><ele>626.0</ele><time>2026-04-06T14:09:08.598Z</time></trkpt><trkpt lat="44.465155" lon="9.3678067"><ele>626.0</ele><time>2026-04-06T14:09:09.597Z</time></trkpt><trkpt lat="44.4652867" lon="9.3678783"><ele>626.0</ele><time>2026-04-06T14:09:10.598Z</time></trkpt><trkpt lat="44.4654183" lon="9.3679"><ele>626.0</ele><time>2026-04-06T14:09:11.599Z</time></trkpt><trkpt lat="44.4655567" lon="9.36787"><ele>626.0</ele><time>2026-04-06T14:09:12.598Z</time></trkpt><trkpt lat="44.465685" lon="9.3678067"><ele>629.25</ele><time>2026-04-06T14:09:13.599Z</time></trkpt><trkpt lat="44.4657967" lon="9.367715"><ele>632.5</ele><time>2026-04-06T14:09:14.598Z</time></trkpt><trkpt lat="44.46588" lon="9.3675783"><ele>635.75</ele><time>2026-04-06T14:09:15.597Z</time></trkpt><trkpt lat="44.46594" lon="9.3674033"><ele>639.0</ele><time>2026-04-06T14:09:16.598Z</time></trkpt><trkpt lat="44.465985" lon="9.3672083"><ele>636.25</ele><time>2026-04-06T14:09:17.599Z</time></trkpt><trkpt lat="44.4660367" lon="9.3670083"><ele>633.5</ele><time>2026-04-06T14:09:18.599Z</time></trkpt><trkpt lat="44.4660983" lon="9.36682"><ele>630.75</ele><time>2026-04-06T14:09:19.597Z</time></trkpt><trkpt lat="44.466165" lon="9.36665"><ele>628.0</ele><time>2026-04-06T14:09:20.599Z</time></trkpt><trkpt lat="44.4662333" lon="9.3664917"><ele>627.25</ele><time>2026-04-06T14:09:21.597Z</time></trkpt><trkpt lat="44.4663083" lon="9.3663433"><ele>626.5</ele><time>2026-04-06T14:09:22.598Z</time></trkpt><trkpt lat="44.466395" lon="9.36621"><ele>625.75</ele><time>2026-04-06T14:09:23.598Z</time></trkpt><trkpt lat="44.46649" lon="9.366105"><ele>625.0</ele><time>2026-04-06T14:09:24.598Z</time></trkpt><trkpt lat="44.466585" lon="9.36603"><ele>625.0</ele><time>2026-04-06T14:09:25.597Z</time></trkpt><trkpt lat="44.466675" lon="9.3659967"><ele>625.0</ele><time>2026-04-06T14:09:26.598Z</time></trkpt><trkpt lat="44.466765" lon="9.3660133"><ele>625.0</ele><time>2026-04-06T14:09:27.598Z</time></trkpt><trkpt lat="44.466835" lon="9.3660883"><ele>625.0</ele><time>2026-04-06T14:09:28.599Z</time></trkpt><trkpt lat="44.4668717" lon="9.366195"><ele>625.0</ele><time>2026-04-06T14:09:29.598Z</time></trkpt><trkpt lat="44.4668633" lon="9.3663217"><ele>625.0</ele><time>2026-04-06T14:09:30.599Z</time></trkpt><trkpt lat="44.4668167" lon="9.3664367"><ele>629.0</ele><time>2026-04-06T14:09:31.599Z</time></trkpt><trkpt lat="44.4667133" lon="9.3665067"><ele>633.0</ele><time>2026-04-06T14:09:32.598Z</time></trkpt><trkpt lat="44.4665933" lon="9.3665683"><ele>637.0</ele><time>2026-04-06T14:09:33.598Z</time></trkpt><trkpt lat="44.4664817" lon="9.3666467"><ele>641.0</ele><time>2026-04-06T14:09:34.599Z</time></trkpt><trkpt lat="44.4663867" lon="9.366765"><ele>641.0</ele><time>2026-04-06T14:09:35.597Z</time></trkpt><trkpt lat="44.4663117" lon="9.36693"><ele>641.0</ele><time>2026-04-06T14:09:36.598Z</time></trkpt><trkpt lat="44.4662533" lon="9.367125"><ele>641.0</ele><time>2026-04-06T14:09:37.599Z</time></trkpt><trkpt lat="44.466205" lon="9.3673317"><ele>641.0</ele><time>2026-04-06T14:09:38.598Z</time></trkpt><trkpt lat="44.4661733" lon="9.3675433"><ele>640.3333333333333</ele><time>2026-04-06T14:09:39.599Z</time></trkpt><trkpt lat="44.46615" lon="9.3677617"><ele>639.6666666666666</ele><time>2026-04-06T14:09:40.598Z</time></trkpt><trkpt lat="44.46613" lon="9.3679783"><ele>639.0</ele><time>2026-04-06T14:09:41.598Z</time></trkpt><trkpt lat="44.4661083" lon="9.36818"><ele>641.0</ele><time>2026-04-06T14:09:42.599Z</time></trkpt><trkpt lat="44.4660783" lon="9.368365"><ele>643.0</ele><time>2026-04-06T14:09:43.599Z</time></trkpt><trkpt lat="44.4660333" lon="9.3685333"><ele>645.0</ele><time>2026-04-06T14:09:44.601Z</time></trkpt><trkpt lat="44.4659583" lon="9.3686833"><ele>647.0</ele><time>2026-04-06T14:09:45.599Z</time></trkpt><trkpt lat="44.46585" lon="9.368815"><ele>646.5</ele><time>2026-04-06T14:09:46.599Z</time></trkpt><trkpt lat="44.46573" lon="9.368925"><ele>646.0</ele><time>2026-04-06T14:09:47.6Z</time></trkpt><trkpt lat="44.4656133" lon="9.3690067"><ele>645.5</ele><time>2026-04-06T14:09:48.599Z</time></trkpt><trkpt lat="44.465505" lon="9.3690683"><ele>645.0</ele><time>2026-04-06T14:09:49.598Z</time></trkpt><trkpt lat="44.4654067" lon="9.369125"><ele>645.0</ele><time>2026-04-06T14:09:50.599Z</time></trkpt><trkpt lat="44.4653367" lon="9.3692233"><ele>645.0</ele><time>2026-04-06T14:09:51.597Z</time></trkpt><trkpt lat="44.465305" lon="9.3693733"><ele>645.0</ele><time>2026-04-06T14:09:52.599Z</time></trkpt><trkpt lat="44.4653167" lon="9.3695517"><ele>645.0</ele><time>2026-04-06T14:09:53.597Z</time></trkpt><trkpt lat="44.4653333" lon="9.369735"><ele>648.4</ele><time>2026-04-06T14:09:54.599Z</time></trkpt><trkpt lat="44.4653333" lon="9.3699133"><ele>651.8</ele><time>2026-04-06T14:09:55.599Z</time></trkpt><trkpt lat="44.4653033" lon="9.3700717"><ele>655.2</ele><time>2026-04-06T14:09:56.599Z</time></trkpt><trkpt lat="44.4652483" lon="9.370195"><ele>658.6</ele><time>2026-04-06T14:09:57.598Z</time></trkpt><trkpt lat="44.4651733" lon="9.3702733"><ele>662.0</ele><time>2026-04-06T14:09:58.599Z</time></trkpt><trkpt lat="44.4650833" lon="9.3702967"><ele>662.0</ele><time>2026-04-06T14:09:59.599Z</time></trkpt><trkpt lat="44.4649783" lon="9.3702567"><ele>662.0</ele><time>2026-04-06T14:10:00.599Z</time></trkpt><trkpt lat="44.4648767" lon="9.3701633"><ele>662.0</ele><time>2026-04-06T14:10:01.598Z</time></trkpt><trkpt lat="44.4647867" lon="9.370045"><ele>662.0</ele><time>2026-04-06T14:10:02.599Z</time></trkpt><trkpt lat="44.4646967" lon="9.3699383"><ele>661.25</ele><time>2026-04-06T14:10:03.597Z</time></trkpt><trkpt lat="44.4646017" lon="9.36987"><ele>660.5</ele><time>2026-04-06T14:10:04.6Z</time></trkpt><trkpt lat="44.46449" lon="9.3698567"><ele>659.75</ele><time>2026-04-06T14:10:05.598Z</time></trkpt><trkpt lat="44.4643717" lon="9.3698883"><ele>659.0</ele><time>2026-04-06T14:10:06.599Z</time></trkpt><trkpt lat="44.4642467" lon="9.3699483"><ele>659.0</ele><time>2026-04-06T14:10:07.601Z</time></trkpt><trkpt lat="44.46412" lon="9.3700267"><ele>659.0</ele><time>2026-04-06T14:10:08.599Z</time></trkpt><trkpt lat="44.4639933" lon="9.3700967"><ele>659.0</ele><time>2026-04-06T14:10:09.599Z</time></trkpt><trkpt lat="44.4638733" lon="9.370135"><ele>659.0</ele><time>2026-04-06T14:10:10.599Z</time></trkpt><trkpt lat="44.4637583" lon="9.3701617"><ele>661.2</ele><time>2026-04-06T14:10:11.6Z</time></trkpt><trkpt lat="44.46366" lon="9.3702067"><ele>663.4000000000001</ele><time>2026-04-06T14:10:12.599Z</time></trkpt><trkpt lat="44.463575" lon="9.3702917"><ele>665.6</ele><time>2026-04-06T14:10:13.6Z</time></trkpt><trkpt lat="44.463535" lon="9.370415"><ele>667.8</ele><time>2026-04-06T14:10:14.599Z</time></trkpt><trkpt lat="44.4635333" lon="9.370535"><ele>670.0</ele><time>2026-04-06T14:10:15.599Z</time></trkpt><trkpt lat="44.4635833" lon="9.3706333"><ele>667.25</ele><time>2026-04-06T14:10:16.6Z</time></trkpt><trkpt lat="44.4636417" lon="9.3707033"><ele>664.5</ele><time>2026-04-06T14:10:17.599Z</time></trkpt><trkpt lat="44.463755" lon="9.37063"><ele>661.75</ele><time>2026-04-06T14:10:18.6Z</time></trkpt><trkpt lat="44.4638817" lon="9.37051"><ele>659.0</ele><time>2026-04-06T14:10:19.599Z</time></trkpt><trkpt lat="44.4639917" lon="9.37039"><ele>659.0</ele><time>2026-04-06T14:10:20.6Z</time></trkpt><trkpt lat="44.4641083" lon="9.3702867"><ele>659.0</ele><time>2026-04-06T14:10:21.599Z</time></trkpt><trkpt lat="44.464225" lon="9.370215"><ele>659.0</ele><time>2026-04-06T14:10:22.599Z</time></trkpt><trkpt lat="44.4643533" lon="9.370185"><ele>659.0</ele><time>2026-04-06T14:10:23.599Z</time></trkpt><trkpt lat="44.4644767" lon="9.37019"><ele>659.0</ele><time>2026-04-06T14:10:24.598Z</time></trkpt><trkpt lat="44.4645833" lon="9.3702383"><ele>659.0</ele><time>2026-04-06T14:10:25.6Z</time></trkpt><trkpt lat="44.4646583" lon="9.370335"><ele>659.0</ele><time>2026-04-06T14:10:26.599Z</time></trkpt><trkpt lat="44.464705" lon="9.370465"><ele>659.0</ele><time>2026-04-06T14:10:27.6Z</time></trkpt><trkpt lat="44.4647183" lon="9.3706317"><ele>659.0</ele><time>2026-04-06T14:10:28.599Z</time></trkpt><trkpt lat="44.4647333" lon="9.3708083"><ele>662.75</ele><time>2026-04-06T14:10:29.599Z</time></trkpt><trkpt lat="44.4647633" lon="9.3709833"><ele>666.5</ele><time>2026-04-06T14:10:30.6Z</time></trkpt><trkpt lat="44.4648167" lon="9.3711317"><ele>670.25</ele><time>2026-04-06T14:10:31.6Z</time></trkpt><trkpt lat="44.4649083" lon="9.3712533"><ele>674.0</ele><time>2026-04-06T14:10:32.599Z</time></trkpt><trkpt lat="44.4650217" lon="9.3713467"><ele>674.0</ele><time>2026-04-06T14:10:33.6Z</time></trkpt><trkpt lat="44.4651367" lon="9.3714033"><ele>674.0</ele><time>2026-04-06T14:10:34.599Z</time></trkpt><trkpt lat="44.4652467" lon="9.3713983"><ele>674.0</ele><time>2026-04-06T14:10:35.6Z</time></trkpt><trkpt lat="44.4653467" lon="9.3713317"><ele>674.0</ele><time>2026-04-06T14:10:36.6Z</time></trkpt><trkpt lat="44.4654167" lon="9.371205"><ele>674.0</ele><time>2026-04-06T14:10:37.6Z</time></trkpt><trkpt lat="44.46544" lon="9.3710117"><ele>674.0</ele><time>2026-04-06T14:10:38.599Z</time></trkpt><trkpt lat="44.46546" lon="9.3708117"><ele>674.0</ele><time>2026-04-06T14:10:39.598Z</time></trkpt><trkpt lat="44.4654883" lon="9.370595"><ele>674.0</ele><time>2026-04-06T14:10:40.6Z</time></trkpt><trkpt lat="44.4655167" lon="9.37038"><ele>674.5</ele><time>2026-04-06T14:10:41.599Z</time></trkpt><trkpt lat="44.4655567" lon="9.370185"><ele>675.0</ele><time>2026-04-06T14:10:42.598Z</time></trkpt><trkpt lat="44.4655983" lon="9.3700183"><ele>675.5</ele><time>2026-04-06T14:10:43.598Z</time></trkpt><trkpt lat="44.4656583" lon="9.369885"><ele>676.0</ele><time>2026-04-06T14:10:44.598Z</time></trkpt><trkpt lat="44.46574" lon="9.3697817"><ele>676.0</ele><time>2026-04-06T14:10:45.598Z</time></trkpt><trkpt lat="44.46584" lon="9.3697083"><ele>676.0</ele><time>2026-04-06T14:10:46.598Z</time></trkpt><trkpt lat="44.46596" lon="9.369665"><ele>676.0</ele><time>2026-04-06T14:10:47.598Z</time></trkpt><trkpt lat="44.4660967" lon="9.3696517"><ele>676.0</ele><time>2026-04-06T14:10:48.598Z</time></trkpt><trkpt lat="44.4662433" lon="9.3696583"><ele>675.6666666666667</ele><time>2026-04-06T14:10:49.598Z</time></trkpt><trkpt lat="44.4664" lon="9.36969"><ele>675.3333333333334</ele><time>2026-04-06T14:10:50.6Z</time></trkpt><trkpt lat="44.46656" lon="9.36973"><ele>675.0</ele><time>2026-04-06T14:10:51.598Z</time></trkpt><trkpt lat="44.4667117" lon="9.3697683"><ele>675.0</ele><time>2026-04-06T14:10:52.597Z</time></trkpt><trkpt lat="44.466855" lon="9.369785"><ele>675.0</ele><time>2026-04-06T14:10:53.6Z</time></trkpt><trkpt lat="44.466985" lon="9.3697567"><ele>675.0</ele><time>2026-04-06T14:10:54.598Z</time></trkpt><trkpt lat="44.4671" lon="9.3696717"><ele>675.0</ele><time>2026-04-06T14:10:55.599Z</time></trkpt><trkpt lat="44.4672" lon="9.3695533"><ele>676.5</ele><time>2026-04-06T14:10:56.599Z</time></trkpt><trkpt lat="44.467285" lon="9.3694317"><ele>678.0</ele><time>2026-04-06T14:10:57.599Z</time></trkpt><trkpt lat="44.4673817" lon="9.3693283"><ele>679.5</ele><time>2026-04-06T14:10:58.599Z</time></trkpt><trkpt lat="44.4675067" lon="9.3692567"><ele>681.0</ele><time>2026-04-06T14:10:59.598Z</time></trkpt><trkpt lat="44.4676483" lon="9.3692033"><ele>681.0</ele><time>2026-04-06T14:11:00.599Z</time></trkpt><trkpt lat="44.4677983" lon="9.369155"><ele>681.0</ele><time>2026-04-06T14:11:01.598Z</time></trkpt><trkpt lat="44.4679483" lon="9.3690967"><ele>681.0</ele><time>2026-04-06T14:11:02.599Z</time></trkpt><trkpt lat="44.46809" lon="9.36902"><ele>680.5</ele><time>2026-04-06T14:11:03.598Z</time></trkpt><trkpt lat="44.468225" lon="9.3689317"><ele>680.0</ele><time>2026-04-06T14:11:04.598Z</time></trkpt><trkpt lat="44.4683533" lon="9.3688433"><ele>679.5</ele><time>2026-04-06T14:11:05.598Z</time></trkpt><trkpt lat="44.4684883" lon="9.3687717"><ele>679.0</ele><time>2026-04-06T14:11:06.599Z</time></trkpt><trkpt lat="44.468625" lon="9.368705"><ele>679.0</ele><time>2026-04-06T14:11:07.598Z</time></trkpt><trkpt lat="44.4687683" lon="9.368655"><ele>679.0</ele><time>2026-04-06T14:11:08.599Z</time></trkpt><trkpt lat="44.4689133" lon="9.368605"><ele>679.0</ele><time>2026-04-06T14:11:09.598Z</time></trkpt><trkpt lat="44.46906" lon="9.3685683"><ele>679.0</ele><time>2026-04-06T14:11:10.599Z</time></trkpt><trkpt lat="44.4692033" lon="9.3685383"><ele>681.6666666666667</ele><time>2026-04-06T14:11:11.599Z</time></trkpt><trkpt lat="44.4693517" lon="9.368515"><ele>684.3333333333334</ele><time>2026-04-06T14:11:12.598Z</time></trkpt><trkpt lat="44.4695017" lon="9.3685017"><ele>687.0</ele><time>2026-04-06T14:11:13.598Z</time></trkpt><trkpt lat="44.469655" lon="9.3685033"><ele>688.25</ele><time>2026-04-06T14:11:14.599Z</time></trkpt><trkpt lat="44.4698117" lon="9.3685167"><ele>689.5</ele><time>2026-04-06T14:11:15.6Z</time></trkpt><trkpt lat="44.46996" lon="9.368535"><ele>690.75</ele><time>2026-04-06T14:11:16.599Z</time></trkpt><trkpt lat="44.4700983" lon="9.3685567"><ele>692.0</ele><time>2026-04-06T14:11:17.599Z</time></trkpt><trkpt lat="44.4702333" lon="9.3685667"><ele>692.0</ele><time>2026-04-06T14:11:18.599Z</time></trkpt><trkpt lat="44.4703583" lon="9.3685483"><ele>692.0</ele><time>2026-04-06T14:11:19.599Z</time></trkpt><trkpt lat="44.4704633" lon="9.3685017"><ele>692.0</ele><time>2026-04-06T14:11:20.598Z</time></trkpt><trkpt lat="44.4705417" lon="9.3684417"><ele>692.0</ele><time>2026-04-06T14:11:21.599Z</time></trkpt><trkpt lat="44.4706017" lon="9.3683917"><ele>692.0</ele><time>2026-04-06T14:11:22.598Z</time></trkpt><trkpt lat="44.47069" lon="9.3683117"><ele>692.2</ele><time>2026-04-06T14:11:24.598Z</time></trkpt><trkpt lat="44.470765" lon="9.3681683"><ele>692.4000000000001</ele><time>2026-04-06T14:11:54.599Z</time></trkpt><trkpt lat="44.4708033" lon="9.368085"><ele>692.5999999999999</ele><time>2026-04-06T14:11:55.599Z</time></trkpt><trkpt lat="44.4708533" lon="9.368"><ele>692.8</ele><time>2026-04-06T14:11:56.599Z</time></trkpt><trkpt lat="44.4709233" lon="9.3679283"><ele>693.0</ele><time>2026-04-06T14:11:57.599Z</time></trkpt><trkpt lat="44.4710167" lon="9.3678717"><ele>693.0</ele><time>2026-04-06T14:11:58.599Z</time></trkpt><trkpt lat="44.4711267" lon="9.3678467"><ele>693.0</ele><time>2026-04-06T14:11:59.598Z</time></trkpt><trkpt lat="44.4712367" lon="9.3678383"><ele>693.0</ele><time>2026-04-06T14:12:00.598Z</time></trkpt><trkpt lat="44.471345" lon="9.36783"><ele>693.0</ele><time>2026-04-06T14:12:01.598Z</time></trkpt><trkpt lat="44.4714533" lon="9.3678167"><ele>693.0</ele><time>2026-04-06T14:12:02.599Z</time></trkpt><trkpt lat="44.4715567" lon="9.3677883"><ele>694.5999999999999</ele><time>2026-04-06T14:12:03.599Z</time></trkpt><trkpt lat="44.471655" lon="9.3677383"><ele>696.1999999999999</ele><time>2026-04-06T14:12:04.598Z</time></trkpt><trkpt lat="44.4717483" lon="9.3676617"><ele>697.8</ele><time>2026-04-06T14:12:05.599Z</time></trkpt><trkpt lat="44.4718317" lon="9.367545"><ele>699.4</ele><time>2026-04-06T14:12:06.598Z</time></trkpt><trkpt lat="44.471895" lon="9.3674083"><ele>701.0</ele><time>2026-04-06T14:12:07.598Z</time></trkpt><trkpt lat="44.471935" lon="9.367265"><ele>701.8</ele><time>2026-04-06T14:12:08.599Z</time></trkpt><trkpt lat="44.4719567" lon="9.3671283"><ele>702.5999999999999</ele><time>2026-04-06T14:12:09.598Z</time></trkpt><trkpt lat="44.471965" lon="9.3669983"><ele>703.4</ele><time>2026-04-06T14:12:10.598Z</time></trkpt><trkpt lat="44.4719717" lon="9.366875"><ele>704.2</ele><time>2026-04-06T14:12:11.598Z</time></trkpt><trkpt lat="44.4719817" lon="9.3667517"><ele>705.0</ele><time>2026-04-06T14:12:12.598Z</time></trkpt><trkpt lat="44.4720033" lon="9.3666333"><ele>705.0</ele><time>2026-04-06T14:12:13.599Z</time></trkpt><trkpt lat="44.47202" lon="9.3665033"><ele>705.0</ele><time>2026-04-06T14:12:14.599Z</time></trkpt><trkpt lat="44.472035" lon="9.3663567"><ele>705.0</ele><time>2026-04-06T14:12:15.599Z</time></trkpt><trkpt lat="44.4720467" lon="9.36619"><ele>705.0</ele><time>2026-04-06T14:12:16.598Z</time></trkpt><trkpt lat="44.472055" lon="9.3660033"><ele>705.5</ele><time>2026-04-06T14:12:17.599Z</time></trkpt><trkpt lat="44.472065" lon="9.3657967"><ele>706.0</ele><time>2026-04-06T14:12:18.599Z</time></trkpt><trkpt lat="44.47208" lon="9.3655917"><ele>706.5</ele><time>2026-04-06T14:12:19.598Z</time></trkpt><trkpt lat="44.472095" lon="9.3653983"><ele>707.0</ele><time>2026-04-06T14:12:20.598Z</time></trkpt><trkpt lat="44.472115" lon="9.36522"><ele>706.25</ele><time>2026-04-06T14:12:21.598Z</time></trkpt><trkpt lat="44.4721483" lon="9.365055"><ele>705.5</ele><time>2026-04-06T14:12:22.599Z</time></trkpt><trkpt lat="44.4722033" lon="9.364905"><ele>704.75</ele><time>2026-04-06T14:12:23.599Z</time></trkpt><trkpt lat="44.4722783" lon="9.3647733"><ele>704.0</ele><time>2026-04-06T14:12:24.598Z</time></trkpt><trkpt lat="44.47237" lon="9.364665"><ele>704.0</ele><time>2026-04-06T14:12:25.598Z</time></trkpt><trkpt lat="44.4724817" lon="9.3645883"><ele>704.0</ele><time>2026-04-06T14:12:26.599Z</time></trkpt><trkpt lat="44.47261" lon="9.3645417"><ele>704.0</ele><time>2026-04-06T14:12:27.599Z</time></trkpt><trkpt lat="44.4727417" lon="9.3645167"><ele>704.0</ele><time>2026-04-06T14:12:28.599Z</time></trkpt><trkpt lat="44.472875" lon="9.3645083"><ele>708.0</ele><time>2026-04-06T14:12:29.598Z</time></trkpt><trkpt lat="44.4729983" lon="9.3644983"><ele>712.0</ele><time>2026-04-06T14:12:30.599Z</time></trkpt><trkpt lat="44.4731067" lon="9.3644633"><ele>716.0</ele><time>2026-04-06T14:12:31.599Z</time></trkpt><trkpt lat="44.47319" lon="9.3643833"><ele>720.0</ele><time>2026-04-06T14:12:32.6Z</time></trkpt><trkpt lat="44.4732267" lon="9.3642483"><ele>724.0</ele><time>2026-04-06T14:12:33.599Z</time></trkpt><trkpt lat="44.4732083" lon="9.36406"><ele>725.6666666666667</ele><time>2026-04-06T14:12:34.599Z</time></trkpt><trkpt lat="44.4731817" lon="9.3638483"><ele>727.3333333333334</ele><time>2026-04-06T14:12:35.598Z</time></trkpt><trkpt lat="44.47315" lon="9.36363"><ele>729.0</ele><time>2026-04-06T14:12:36.598Z</time></trkpt><trkpt lat="44.473125" lon="9.3634"><ele>729.0</ele><time>2026-04-06T14:12:37.599Z</time></trkpt><trkpt lat="44.4730967" lon="9.36317"><ele>729.0</ele><time>2026-04-06T14:12:38.599Z</time></trkpt><trkpt lat="44.473065" lon="9.3629267"><ele>729.0</ele><time>2026-04-06T14:12:39.598Z</time></trkpt><trkpt lat="44.473025" lon="9.362685"><ele>732.0</ele><time>2026-04-06T14:12:40.598Z</time></trkpt><trkpt lat="44.472975" lon="9.36245"><ele>735.0</ele><time>2026-04-06T14:12:41.597Z</time></trkpt><trkpt lat="44.472905" lon="9.3622267"><ele>738.0</ele><time>2026-04-06T14:12:42.598Z</time></trkpt><trkpt lat="44.4728233" lon="9.362014"><ele>731.6666666666666</ele><time>2026-04-06T14:12:43.597Z</time></trkpt><trkpt lat="44.4727248" lon="9.3618232"><ele>725.3333333333333</ele><time>2026-04-06T14:12:44.6Z</time></trkpt><trkpt lat="44.472617" lon="9.361646"><ele>719.0</ele><time>2026-04-06T14:12:45.598Z</time></trkpt><trkpt lat="44.472514" lon="9.3614811"><ele>717.5</ele><time>2026-04-06T14:12:46.599Z</time></trkpt><trkpt lat="44.4724162" lon="9.3613366"><ele>716.0</ele><time>2026-04-06T14:12:47.599Z</time></trkpt><trkpt lat="44.4723153" lon="9.3612211"><ele>714.5</ele><time>2026-04-06T14:12:48.599Z</time></trkpt><trkpt lat="44.472205" lon="9.3611434"><ele>713.0</ele><time>2026-04-06T14:12:49.599Z</time></trkpt><trkpt lat="44.4720926" lon="9.3610913"><ele>713.0</ele><time>2026-04-06T14:12:50.599Z</time></trkpt><trkpt lat="44.471983" lon="9.3610332"><ele>713.0</ele><time>2026-04-06T14:12:51.599Z</time></trkpt><trkpt lat="44.4718843" lon="9.3609404"><ele>713.0</ele><time>2026-04-06T14:12:52.598Z</time></trkpt><trkpt lat="44.4718075" lon="9.360809"><ele>713.0</ele><time>2026-04-06T14:12:53.599Z</time></trkpt><trkpt lat="44.4717448" lon="9.3606494"><ele>720.0</ele><time>2026-04-06T14:12:54.599Z</time></trkpt><trkpt lat="44.4716756" lon="9.3604924"><ele>727.0</ele><time>2026-04-06T14:12:55.599Z</time></trkpt><trkpt lat="44.471586" lon="9.3603585"><ele>734.0</ele><time>2026-04-06T14:12:56.599Z</time></trkpt><trkpt lat="44.4714765" lon="9.3602493"><ele>741.0</ele><time>2026-04-06T14:12:57.599Z</time></trkpt><trkpt lat="44.4713569" lon="9.3601659"><ele>737.0</ele><time>2026-04-06T14:12:58.598Z</time></trkpt><trkpt lat="44.4712416" lon="9.3600952"><ele>733.0</ele><time>2026-04-06T14:12:59.599Z</time></trkpt><trkpt lat="44.4711355" lon="9.3600284"><ele>729.0</ele><time>2026-04-06T14:13:00.597Z</time></trkpt><trkpt lat="44.471042" lon="9.3599638"><ele>725.0</ele><time>2026-04-06T14:13:01.599Z</time></trkpt><trkpt lat="44.4709608" lon="9.3598843"><ele>721.0</ele><time>2026-04-06T14:13:02.602Z</time></trkpt><trkpt lat="44.4709108" lon="9.3597781"><ele>721.5</ele><time>2026-04-06T14:13:03.598Z</time></trkpt><trkpt lat="44.4708992" lon="9.3596395"><ele>722.0</ele><time>2026-04-06T14:13:04.599Z</time></trkpt><trkpt lat="44.4709211" lon="9.3594762"><ele>722.5</ele><time>2026-04-06T14:13:05.599Z</time></trkpt><trkpt lat="44.4709526" lon="9.3592984"><ele>723.0</ele><time>2026-04-06T14:13:06.599Z</time></trkpt><trkpt lat="44.4709711" lon="9.3591154"><ele>723.0</ele><time>2026-04-06T14:13:07.598Z</time></trkpt><trkpt lat="44.4709598" lon="9.3589377"><ele>723.0</ele><time>2026-04-06T14:13:08.599Z</time></trkpt><trkpt lat="44.4709388" lon="9.3587691"><ele>723.0</ele><time>2026-04-06T14:13:09.598Z</time></trkpt><trkpt lat="44.4709339" lon="9.3586032"><ele>723.0</ele><time>2026-04-06T14:13:10.599Z</time></trkpt><trkpt lat="44.470948" lon="9.3584524"><ele>724.3333333333334</ele><time>2026-04-06T14:13:11.598Z</time></trkpt><trkpt lat="44.4709543" lon="9.3583192"><ele>725.6666666666666</ele><time>2026-04-06T14:13:12.598Z</time></trkpt><trkpt lat="44.4709306" lon="9.3581991"><ele>727.0</ele><time>2026-04-06T14:13:13.599Z</time></trkpt><trkpt lat="44.470878" lon="9.3581044"><ele>728.3333333333333</ele><time>2026-04-06T14:13:14.599Z</time></trkpt><trkpt lat="44.4707996" lon="9.35806"><ele>729.6666666666666</ele><time>2026-04-06T14:13:15.599Z</time></trkpt><trkpt lat="44.4707059" lon="9.3580612"><ele>731.0</ele><time>2026-04-06T14:13:16.599Z</time></trkpt><trkpt lat="44.4706106" lon="9.3580699"><ele>731.0</ele><time>2026-04-06T14:13:17.598Z</time></trkpt><trkpt lat="44.4705155" lon="9.3580608"><ele>731.0</ele><time>2026-04-06T14:13:18.599Z</time></trkpt><trkpt lat="44.470443" lon="9.3579846"><ele>731.0</ele><time>2026-04-06T14:13:19.599Z</time></trkpt><trkpt lat="44.4704016" lon="9.3578539"><ele>731.0</ele><time>2026-04-06T14:13:20.599Z</time></trkpt><trkpt lat="44.4703906" lon="9.3576937"><ele>731.0</ele><time>2026-04-06T14:13:21.599Z</time></trkpt><trkpt lat="44.4703988" lon="9.3575329"><ele>731.0</ele><time>2026-04-06T14:13:22.599Z</time></trkpt><trkpt lat="44.4704266" lon="9.3573886"><ele>731.0</ele><time>2026-04-06T14:13:23.599Z</time></trkpt><trkpt lat="44.4704852" lon="9.3572664"><ele>731.0</ele><time>2026-04-06T14:13:24.599Z</time></trkpt><trkpt lat="44.4705759" lon="9.3571583"><ele>731.0</ele><time>2026-04-06T14:13:25.598Z</time></trkpt><trkpt lat="44.4706868" lon="9.3570503"><ele>731.0</ele><time>2026-04-06T14:13:26.599Z</time></trkpt><trkpt lat="44.4708021" lon="9.3569319"><ele>731.0</ele><time>2026-04-06T14:13:27.599Z</time></trkpt><trkpt lat="44.470913" lon="9.3568054"><ele>731.0</ele><time>2026-04-06T14:13:28.598Z</time></trkpt><trkpt lat="44.4710152" lon="9.3566788"><ele>731.0</ele><time>2026-04-06T14:13:29.599Z</time></trkpt><trkpt lat="44.4711064" lon="9.3565563"><ele>731.0</ele><time>2026-04-06T14:13:30.598Z</time></trkpt><trkpt lat="44.4711867" lon="9.3564433"><ele>731.0</ele><time>2026-04-06T14:13:31.599Z</time></trkpt><trkpt lat="44.4712567" lon="9.3563167"><ele>731.0</ele><time>2026-04-06T14:13:32.599Z</time></trkpt><trkpt lat="44.4713017" lon="9.356165"><ele>731.0</ele><time>2026-04-06T14:13:33.599Z</time></trkpt><trkpt lat="44.4713217" lon="9.3560067"><ele>733.0</ele><time>2026-04-06T14:13:34.598Z</time></trkpt><trkpt lat="44.471315" lon="9.3558533"><ele>735.0</ele><time>2026-04-06T14:13:35.599Z</time></trkpt><trkpt lat="44.4712783" lon="9.355735"><ele>737.0</ele><time>2026-04-06T14:13:36.598Z</time></trkpt><trkpt lat="44.47121" lon="9.3556383"><ele>739.0</ele><time>2026-04-06T14:13:37.599Z</time></trkpt><trkpt lat="44.47112" lon="9.3556033"><ele>741.0</ele><time>2026-04-06T14:13:38.599Z</time></trkpt><trkpt lat="44.4710233" lon="9.35562"><ele>741.0</ele><time>2026-04-06T14:13:39.599Z</time></trkpt><trkpt lat="44.4709217" lon="9.3556633"><ele>741.0</ele><time>2026-04-06T14:13:40.601Z</time></trkpt><trkpt lat="44.4708267" lon="9.3556767"><ele>741.0</ele><time>2026-04-06T14:13:41.599Z</time></trkpt><trkpt lat="44.47074" lon="9.355655"><ele>741.0</ele><time>2026-04-06T14:13:42.599Z</time></trkpt><trkpt lat="44.4706433" lon="9.3556233"><ele>741.0</ele><time>2026-04-06T14:13:43.599Z</time></trkpt><trkpt lat="44.4705217" lon="9.3555733"><ele>752.0</ele><time>2026-04-06T14:13:44.599Z</time></trkpt><trkpt lat="44.47038" lon="9.3554933"><ele>763.0</ele><time>2026-04-06T14:13:45.598Z</time></trkpt><trkpt lat="44.4702283" lon="9.3554183"><ele>774.0</ele><time>2026-04-06T14:13:46.599Z</time></trkpt><trkpt lat="44.4700717" lon="9.3553483"><ele>774.0</ele><time>2026-04-06T14:13:47.599Z</time></trkpt><trkpt lat="44.4699267" lon="9.3552883"><ele>774.0</ele><time>2026-04-06T14:13:48.599Z</time></trkpt><trkpt lat="44.4697933" lon="9.3552267"><ele>774.0</ele><time>2026-04-06T14:13:49.598Z</time></trkpt><trkpt lat="44.4696733" lon="9.3551517"><ele>774.0</ele><time>2026-04-06T14:13:50.599Z</time></trkpt><trkpt lat="44.469555" lon="9.3550933"><ele>771.75</ele><time>2026-04-06T14:13:51.599Z</time></trkpt><trkpt lat="44.469435" lon="9.3550833"><ele>769.5</ele><time>2026-04-06T14:13:52.599Z</time></trkpt><trkpt lat="44.4693067" lon="9.3551133"><ele>767.25</ele><time>2026-04-06T14:13:53.597Z</time></trkpt><trkpt lat="44.4691633" lon="9.355165"><ele>765.0</ele><time>2026-04-06T14:13:54.598Z</time></trkpt><trkpt lat="44.4690167" lon="9.3552267"><ele>765.0</ele><time>2026-04-06T14:13:55.598Z</time></trkpt><trkpt lat="44.4688717" lon="9.35526"><ele>765.0</ele><time>2026-04-06T14:13:56.598Z</time></trkpt><trkpt lat="44.4687217" lon="9.3552767"><ele>765.0</ele><time>2026-04-06T14:13:57.599Z</time></trkpt><trkpt lat="44.4685717" lon="9.35528"><ele>765.0</ele><time>2026-04-06T14:13:58.599Z</time></trkpt><trkpt lat="44.468425" lon="9.355275"><ele>762.0</ele><time>2026-04-06T14:13:59.602Z</time></trkpt><trkpt lat="44.468285" lon="9.3552667"><ele>759.0</ele><time>2026-04-06T14:14:00.598Z</time></trkpt><trkpt lat="44.4681583" lon="9.355265"><ele>756.0</ele><time>2026-04-06T14:14:01.6Z</time></trkpt><trkpt lat="44.46805" lon="9.3552667"><ele>753.0</ele><time>2026-04-06T14:14:02.6Z</time></trkpt><trkpt lat="44.4679567" lon="9.3552467"><ele>753.0</ele><time>2026-04-06T14:14:03.599Z</time></trkpt><trkpt lat="44.4678833" lon="9.355185"><ele>753.0</ele><time>2026-04-06T14:14:04.599Z</time></trkpt><trkpt lat="44.4678367" lon="9.3550867"><ele>753.0</ele><time>2026-04-06T14:14:05.598Z</time></trkpt><trkpt lat="44.4678183" lon="9.354975"><ele>753.0</ele><time>2026-04-06T14:14:06.599Z</time></trkpt><trkpt lat="44.4678317" lon="9.3548683"><ele>753.0</ele><time>2026-04-06T14:14:07.599Z</time></trkpt><trkpt lat="44.4679233" lon="9.3547717"><ele>753.0</ele><time>2026-04-06T14:14:08.599Z</time></trkpt><trkpt lat="44.4680417" lon="9.3546783"><ele>753.0</ele><time>2026-04-06T14:14:09.598Z</time></trkpt><trkpt lat="44.4681617" lon="9.3545683"><ele>753.0</ele><time>2026-04-06T14:14:10.599Z</time></trkpt><trkpt lat="44.468285" lon="9.35444"><ele>753.0</ele><time>2026-04-06T14:14:11.598Z</time></trkpt><trkpt lat="44.4684167" lon="9.354315"><ele>753.0</ele><time>2026-04-06T14:14:12.598Z</time></trkpt><trkpt lat="44.468555" lon="9.354205"><ele>753.0</ele><time>2026-04-06T14:14:13.599Z</time></trkpt><trkpt lat="44.4686983" lon="9.3541"><ele>753.0</ele><time>2026-04-06T14:14:14.599Z</time></trkpt><trkpt lat="44.4688317" lon="9.3539783"><ele>752.5</ele><time>2026-04-06T14:14:15.599Z</time></trkpt><trkpt lat="44.4689583" lon="9.3538533"><ele>752.0</ele><time>2026-04-06T14:14:16.597Z</time></trkpt><trkpt lat="44.4690667" lon="9.35372"><ele>751.5</ele><time>2026-04-06T14:14:17.598Z</time></trkpt><trkpt lat="44.46917" lon="9.3535883"><ele>751.0</ele><time>2026-04-06T14:14:18.6Z</time></trkpt><trkpt lat="44.46928" lon="9.353485"><ele>751.0</ele><time>2026-04-06T14:14:19.599Z</time></trkpt><trkpt lat="44.4694033" lon="9.35341"><ele>751.0</ele><time>2026-04-06T14:14:20.599Z</time></trkpt><trkpt lat="44.4695333" lon="9.3533483"><ele>751.0</ele><time>2026-04-06T14:14:21.599Z</time></trkpt><trkpt lat="44.4696667" lon="9.3532883"><ele>751.0</ele><time>2026-04-06T14:14:22.598Z</time></trkpt><trkpt lat="44.4697933" lon="9.3532283"><ele>753.25</ele><time>2026-04-06T14:14:23.598Z</time></trkpt><trkpt lat="44.46991" lon="9.3531517"><ele>755.5</ele><time>2026-04-06T14:14:24.599Z</time></trkpt><trkpt lat="44.47003" lon="9.35306"><ele>757.75</ele><time>2026-04-06T14:14:25.599Z</time></trkpt><trkpt lat="44.4701367" lon="9.3529233"><ele>760.0</ele><time>2026-04-06T14:14:26.598Z</time></trkpt><trkpt lat="44.4702267" lon="9.3527617"><ele>760.0</ele><time>2026-04-06T14:14:27.599Z</time></trkpt><trkpt lat="44.4703117" lon="9.3526133"><ele>760.0</ele><time>2026-04-06T14:14:28.599Z</time></trkpt><trkpt lat="44.4703817" lon="9.3524683"><ele>760.0</ele><time>2026-04-06T14:14:29.599Z</time></trkpt><trkpt lat="44.47043" lon="9.3523133"><ele>760.0</ele><time>2026-04-06T14:14:30.599Z</time></trkpt><trkpt lat="44.47045" lon="9.352145"><ele>759.0</ele><time>2026-04-06T14:14:31.598Z</time></trkpt><trkpt lat="44.4704367" lon="9.3519633"><ele>758.0</ele><time>2026-04-06T14:14:32.599Z</time></trkpt><trkpt lat="44.4704117" lon="9.351785"><ele>757.0</ele><time>2026-04-06T14:14:33.598Z</time></trkpt><trkpt lat="44.470385" lon="9.3516183"><ele>756.0</ele><time>2026-04-06T14:14:34.598Z</time></trkpt><trkpt lat="44.470365" lon="9.351445"><ele>754.75</ele><time>2026-04-06T14:14:35.599Z</time></trkpt><trkpt lat="44.4703633" lon="9.3512633"><ele>753.5</ele><time>2026-04-06T14:14:36.599Z</time></trkpt><trkpt lat="44.4703917" lon="9.3510867"><ele>752.25</ele><time>2026-04-06T14:14:37.598Z</time></trkpt><trkpt lat="44.4704417" lon="9.3509083"><ele>751.0</ele><time>2026-04-06T14:14:38.599Z</time></trkpt><trkpt lat="44.47051" lon="9.350725"><ele>760.3333333333334</ele><time>2026-04-06T14:14:39.599Z</time></trkpt><trkpt lat="44.47058" lon="9.3505267"><ele>769.6666666666667</ele><time>2026-04-06T14:14:40.599Z</time></trkpt><trkpt lat="44.470645" lon="9.3503233"><ele>779.0</ele><time>2026-04-06T14:14:41.599Z</time></trkpt><trkpt lat="44.470705" lon="9.350105"><ele>779.0</ele><time>2026-04-06T14:14:42.598Z</time></trkpt><trkpt lat="44.4707667" lon="9.34989"><ele>779.0</ele><time>2026-04-06T14:14:43.599Z</time></trkpt><trkpt lat="44.47083" lon="9.3496817"><ele>779.0</ele><time>2026-04-06T14:14:44.599Z</time></trkpt><trkpt lat="44.470895" lon="9.3494767"><ele>778.6666666666667</ele><time>2026-04-06T14:14:45.599Z</time></trkpt><trkpt lat="44.4709533" lon="9.3492617"><ele>778.3333333333333</ele><time>2026-04-06T14:14:46.599Z</time></trkpt><trkpt lat="44.4709917" lon="9.3490333"><ele>778.0</ele><time>2026-04-06T14:14:47.597Z</time></trkpt><trkpt lat="44.471015" lon="9.348815"><ele>778.0</ele><time>2026-04-06T14:14:48.599Z</time></trkpt><trkpt lat="44.4710283" lon="9.3486117"><ele>778.0</ele><time>2026-04-06T14:14:49.597Z</time></trkpt><trkpt lat="44.47103" lon="9.3484183"><ele>778.0</ele><time>2026-04-06T14:14:50.599Z</time></trkpt><trkpt lat="44.4710067" lon="9.3482383"><ele>778.0</ele><time>2026-04-06T14:14:51.598Z</time></trkpt><trkpt lat="44.47097" lon="9.3480717"><ele>779.75</ele><time>2026-04-06T14:14:52.597Z</time></trkpt><trkpt lat="44.4709383" lon="9.34791"><ele>781.5</ele><time>2026-04-06T14:14:53.597Z</time></trkpt><trkpt lat="44.470925" lon="9.34774"><ele>783.25</ele><time>2026-04-06T14:14:54.599Z</time></trkpt><trkpt lat="44.4709333" lon="9.3475517"><ele>785.0</ele><time>2026-04-06T14:14:55.598Z</time></trkpt><trkpt lat="44.47093" lon="9.347345"><ele>787.6666666666667</ele><time>2026-04-06T14:14:56.599Z</time></trkpt><trkpt lat="44.4708983" lon="9.3471217"><ele>790.3333333333333</ele><time>2026-04-06T14:14:57.598Z</time></trkpt><trkpt lat="44.470845" lon="9.3468867"><ele>793.0</ele><time>2026-04-06T14:14:58.599Z</time></trkpt><trkpt lat="44.4707767" lon="9.34663"><ele>798.6666666666666</ele><time>2026-04-06T14:14:59.597Z</time></trkpt><trkpt lat="44.4706967" lon="9.34635"><ele>804.3333333333333</ele><time>2026-04-06T14:15:00.599Z</time></trkpt><trkpt lat="44.4706117" lon="9.346075"><ele>810.0</ele><time>2026-04-06T14:15:01.599Z</time></trkpt><trkpt lat="44.4705033" lon="9.345815"><ele>809.3333333333333</ele><time>2026-04-06T14:15:02.599Z</time></trkpt><trkpt lat="44.4703917" lon="9.3455917"><ele>808.6666666666666</ele><time>2026-04-06T14:15:03.598Z</time></trkpt><trkpt lat="44.47029" lon="9.345425"><ele>808.0</ele><time>2026-04-06T14:15:04.598Z</time></trkpt><trkpt lat="44.4701817" lon="9.3453"><ele>808.0</ele><time>2026-04-06T14:15:05.599Z</time></trkpt><trkpt lat="44.4700517" lon="9.3452567"><ele>808.0</ele><time>2026-04-06T14:15:06.599Z</time></trkpt><trkpt lat="44.469915" lon="9.345275"><ele>808.0</ele><time>2026-04-06T14:15:07.599Z</time></trkpt><trkpt lat="44.4697817" lon="9.3453433"><ele>808.0</ele><time>2026-04-06T14:15:08.599Z</time></trkpt><trkpt lat="44.469665" lon="9.3453967"><ele>803.0</ele><time>2026-04-06T14:15:09.599Z</time></trkpt><trkpt lat="44.469565" lon="9.3453983"><ele>798.0</ele><time>2026-04-06T14:15:10.599Z</time></trkpt><trkpt lat="44.46949" lon="9.3453317"><ele>793.0</ele><time>2026-04-06T14:15:11.599Z</time></trkpt><trkpt lat="44.4694383" lon="9.3452283"><ele>788.0</ele><time>2026-04-06T14:15:12.599Z</time></trkpt><trkpt lat="44.4694167" lon="9.3450833"><ele>783.0</ele><time>2026-04-06T14:15:13.598Z</time></trkpt><trkpt lat="44.46945" lon="9.3448883"><ele>781.0</ele><time>2026-04-06T14:15:14.597Z</time></trkpt><trkpt lat="44.4695" lon="9.344665"><ele>779.0</ele><time>2026-04-06T14:15:15.597Z</time></trkpt><trkpt lat="44.469575" lon="9.3444417"><ele>777.0</ele><time>2026-04-06T14:15:16.598Z</time></trkpt><trkpt lat="44.46967" lon="9.3442567"><ele>787.3333333333333</ele><time>2026-04-06T14:15:17.599Z</time></trkpt><trkpt lat="44.4697817" lon="9.3440983"><ele>797.6666666666666</ele><time>2026-04-06T14:15:18.6Z</time></trkpt><trkpt lat="44.4698883" lon="9.3439267"><ele>808.0</ele><time>2026-04-06T14:15:19.6Z</time></trkpt><trkpt lat="44.4699883" lon="9.3437433"><ele>808.0</ele><time>2026-04-06T14:15:20.599Z</time></trkpt><trkpt lat="44.47007" lon="9.3435583"><ele>808.0</ele><time>2026-04-06T14:15:21.599Z</time></trkpt><trkpt lat="44.4701167" lon="9.3433833"><ele>808.0</ele><time>2026-04-06T14:15:22.599Z</time></trkpt><trkpt lat="44.4701233" lon="9.34322"><ele>808.0</ele><time>2026-04-06T14:15:23.6Z</time></trkpt><trkpt lat="44.470075" lon="9.3430533"><ele>809.25</ele><time>2026-04-06T14:15:24.599Z</time></trkpt><trkpt lat="44.470025" lon="9.342885"><ele>810.5</ele><time>2026-04-06T14:15:25.6Z</time></trkpt><trkpt lat="44.46999" lon="9.3427083"><ele>811.75</ele><time>2026-04-06T14:15:26.6Z</time></trkpt><trkpt lat="44.46998" lon="9.342535"><ele>813.0</ele><time>2026-04-06T14:15:27.599Z</time></trkpt><trkpt lat="44.4699817" lon="9.342375"><ele>813.0</ele><time>2026-04-06T14:15:28.599Z</time></trkpt><trkpt lat="44.4699667" lon="9.34223"><ele>813.0</ele><time>2026-04-06T14:15:29.6Z</time></trkpt><trkpt lat="44.469915" lon="9.3421017"><ele>813.0</ele><time>2026-04-06T14:15:30.599Z</time></trkpt><trkpt lat="44.4698283" lon="9.3419983"><ele>813.0</ele><time>2026-04-06T14:15:31.6Z</time></trkpt><trkpt lat="44.4697117" lon="9.3418917"><ele>810.5</ele><time>2026-04-06T14:15:32.6Z</time></trkpt><trkpt lat="44.4695967" lon="9.3417883"><ele>808.0</ele><time>2026-04-06T14:15:33.6Z</time></trkpt><trkpt lat="44.4695" lon="9.3416767"><ele>805.5</ele><time>2026-04-06T14:15:34.599Z</time></trkpt><trkpt lat="44.46944" lon="9.34156"><ele>803.0</ele><time>2026-04-06T14:15:35.6Z</time></trkpt><trkpt lat="44.4694083" lon="9.3414317"><ele>806.5999999999999</ele><time>2026-04-06T14:15:36.599Z</time></trkpt><trkpt lat="44.469425" lon="9.3412867"><ele>810.1999999999999</ele><time>2026-04-06T14:15:37.599Z</time></trkpt><trkpt lat="44.469475" lon="9.3411517"><ele>813.8</ele><time>2026-04-06T14:15:38.598Z</time></trkpt><trkpt lat="44.46951" lon="9.341015"><ele>817.4</ele><time>2026-04-06T14:15:39.598Z</time></trkpt><trkpt lat="44.4694967" lon="9.3408817"><ele>821.0</ele><time>2026-04-06T14:15:40.599Z</time></trkpt><trkpt lat="44.4694483" lon="9.3407583"><ele>821.0</ele><time>2026-04-06T14:15:41.599Z</time></trkpt><trkpt lat="44.4693733" lon="9.3406783"><ele>821.0</ele><time>2026-04-06T14:15:42.599Z</time></trkpt><trkpt lat="44.4692683" lon="9.34064"><ele>821.0</ele><time>2026-04-06T14:15:43.599Z</time></trkpt><trkpt lat="44.4691583" lon="9.3406133"><ele>821.0</ele><time>2026-04-06T14:15:44.599Z</time></trkpt><trkpt lat="44.4690433" lon="9.3405617"><ele>821.0</ele><time>2026-04-06T14:15:45.598Z</time></trkpt><trkpt lat="44.4689267" lon="9.340475"><ele>823.1999999999999</ele><time>2026-04-06T14:15:46.599Z</time></trkpt><trkpt lat="44.4688133" lon="9.340385"><ele>825.4</ele><time>2026-04-06T14:15:47.599Z</time></trkpt><trkpt lat="44.46871" lon="9.3403217"><ele>827.6</ele><time>2026-04-06T14:15:48.599Z</time></trkpt><trkpt lat="44.46861" lon="9.3402983"><ele>829.8</ele><time>2026-04-06T14:15:49.601Z</time></trkpt><trkpt lat="44.46851" lon="9.3403217"><ele>832.0</ele><time>2026-04-06T14:15:50.599Z</time></trkpt><trkpt lat="44.4684133" lon="9.34036"><ele>832.0</ele><time>2026-04-06T14:15:51.599Z</time></trkpt><trkpt lat="44.4683233" lon="9.3404"><ele>832.0</ele><time>2026-04-06T14:15:52.599Z</time></trkpt><trkpt lat="44.468235" lon="9.3404017"><ele>832.0</ele><time>2026-04-06T14:15:53.599Z</time></trkpt><trkpt lat="44.4681517" lon="9.34036"><ele>832.0</ele><time>2026-04-06T14:15:54.599Z</time></trkpt><trkpt lat="44.46807" lon="9.340285"><ele>832.0</ele><time>2026-04-06T14:15:55.599Z</time></trkpt><trkpt lat="44.4679817" lon="9.3402233"><ele>832.2</ele><time>2026-04-06T14:15:56.6Z</time></trkpt><trkpt lat="44.4678917" lon="9.3401867"><ele>832.4000000000001</ele><time>2026-04-06T14:15:57.6Z</time></trkpt><trkpt lat="44.4678" lon="9.3401783"><ele>832.5999999999999</ele><time>2026-04-06T14:15:58.598Z</time></trkpt><trkpt lat="44.4676983" lon="9.340235"><ele>832.8</ele><time>2026-04-06T14:15:59.6Z</time></trkpt><trkpt lat="44.4675967" lon="9.3403283"><ele>833.0</ele><time>2026-04-06T14:16:00.598Z</time></trkpt><trkpt lat="44.4674883" lon="9.340375"><ele>833.0</ele><time>2026-04-06T14:16:01.599Z</time></trkpt><trkpt lat="44.4673733" lon="9.340365"><ele>833.0</ele><time>2026-04-06T14:16:02.598Z</time></trkpt><trkpt lat="44.4672567" lon="9.3403083"><ele>833.0</ele><time>2026-04-06T14:16:03.599Z</time></trkpt><trkpt lat="44.46713" lon="9.3402217"><ele>833.0</ele><time>2026-04-06T14:16:04.599Z</time></trkpt><trkpt lat="44.4670017" lon="9.3401433"><ele>834.25</ele><time>2026-04-06T14:16:05.599Z</time></trkpt><trkpt lat="44.4668717" lon="9.3401"><ele>835.5</ele><time>2026-04-06T14:16:06.598Z</time></trkpt><trkpt lat="44.4667433" lon="9.3400933"><ele>836.75</ele><time>2026-04-06T14:16:07.597Z</time></trkpt><trkpt lat="44.4666217" lon="9.3401283"><ele>838.0</ele><time>2026-04-06T14:16:08.598Z</time></trkpt><trkpt lat="44.4665083" lon="9.3401833"><ele>838.0</ele><time>2026-04-06T14:16:09.599Z</time></trkpt><trkpt lat="44.466405" lon="9.340245"><ele>838.0</ele><time>2026-04-06T14:16:10.598Z</time></trkpt><trkpt lat="44.4663" lon="9.3402967"><ele>838.0</ele><time>2026-04-06T14:16:11.597Z</time></trkpt><trkpt lat="44.4661817" lon="9.340315"><ele>838.0</ele><time>2026-04-06T14:16:12.6Z</time></trkpt><trkpt lat="44.46606" lon="9.3402933"><ele>838.5</ele><time>2026-04-06T14:16:13.599Z</time></trkpt><trkpt lat="44.4659367" lon="9.3402267"><ele>839.0</ele><time>2026-04-06T14:16:14.598Z</time></trkpt><trkpt lat="44.465815" lon="9.3401217"><ele>839.5</ele><time>2026-04-06T14:16:15.598Z</time></trkpt><trkpt lat="44.4657017" lon="9.3400233"><ele>840.0</ele><time>2026-04-06T14:16:16.6Z</time></trkpt><trkpt lat="44.4655883" lon="9.339955"><ele>840.0</ele><time>2026-04-06T14:16:17.597Z</time></trkpt><trkpt lat="44.4654767" lon="9.3399333"><ele>840.0</ele><time>2026-04-06T14:16:18.598Z</time></trkpt><trkpt lat="44.46537" lon="9.3399517"><ele>840.0</ele><time>2026-04-06T14:16:19.599Z</time></trkpt><trkpt lat="44.4652667" lon="9.3399817"><ele>840.0</ele><time>2026-04-06T14:16:20.598Z</time></trkpt><trkpt lat="44.465165" lon="9.3399867"><ele>840.0</ele><time>2026-04-06T14:16:21.599Z</time></trkpt><trkpt lat="44.4650733" lon="9.339945"><ele>838.4</ele><time>2026-04-06T14:16:22.598Z</time></trkpt><trkpt lat="44.4649933" lon="9.3398633"><ele>836.8</ele><time>2026-04-06T14:16:23.598Z</time></trkpt><trkpt lat="44.4649133" lon="9.339765"><ele>835.2</ele><time>2026-04-06T14:16:24.599Z</time></trkpt><trkpt lat="44.4648317" lon="9.3396933"><ele>833.6</ele><time>2026-04-06T14:16:25.598Z</time></trkpt><trkpt lat="44.4647467" lon="9.3396583"><ele>832.0</ele><time>2026-04-06T14:16:26.6Z</time></trkpt><trkpt lat="44.4646633" lon="9.3396733"><ele>836.6</ele><time>2026-04-06T14:16:27.598Z</time></trkpt><trkpt lat="44.4645867" lon="9.3397533"><ele>841.2</ele><time>2026-04-06T14:16:28.599Z</time></trkpt><trkpt lat="44.4645183" lon="9.3398717"><ele>845.8</ele><time>2026-04-06T14:16:29.598Z</time></trkpt><trkpt lat="44.4644567" lon="9.3400033"><ele>850.4</ele><time>2026-04-06T14:16:30.599Z</time></trkpt><trkpt lat="44.46439" lon="9.3401367"><ele>855.0</ele><time>2026-04-06T14:16:31.598Z</time></trkpt><trkpt lat="44.46431" lon="9.3402633"><ele>855.0</ele><time>2026-04-06T14:16:32.599Z</time></trkpt><trkpt lat="44.4642217" lon="9.340365"><ele>855.0</ele><time>2026-04-06T14:16:33.599Z</time></trkpt><trkpt lat="44.4641067" lon="9.34044"><ele>855.0</ele><time>2026-04-06T14:16:34.598Z</time></trkpt><trkpt lat="44.4639783" lon="9.3405217"><ele>855.0</ele><time>2026-04-06T14:16:35.598Z</time></trkpt><trkpt lat="44.4638283" lon="9.34063"><ele>854.6666666666667</ele><time>2026-04-06T14:16:36.599Z</time></trkpt><trkpt lat="44.463675" lon="9.3407767"><ele>854.3333333333334</ele><time>2026-04-06T14:16:37.599Z</time></trkpt><trkpt lat="44.463535" lon="9.34094"><ele>854.0</ele><time>2026-04-06T14:16:38.6Z</time></trkpt><trkpt lat="44.46341" lon="9.3411017"><ele>854.0</ele><time>2026-04-06T14:16:39.598Z</time></trkpt><trkpt lat="44.4633" lon="9.3412583"><ele>854.0</ele><time>2026-04-06T14:16:40.599Z</time></trkpt><trkpt lat="44.4631983" lon="9.3413983"><ele>854.0</ele><time>2026-04-06T14:16:41.598Z</time></trkpt><trkpt lat="44.46309" lon="9.3415"><ele>854.0</ele><time>2026-04-06T14:16:42.599Z</time></trkpt><trkpt lat="44.4629733" lon="9.3415583"><ele>850.0</ele><time>2026-04-06T14:16:43.599Z</time></trkpt><trkpt lat="44.462845" lon="9.341555"><ele>846.0</ele><time>2026-04-06T14:16:44.599Z</time></trkpt><trkpt lat="44.4627167" lon="9.3415333"><ele>842.0</ele><time>2026-04-06T14:16:45.598Z</time></trkpt><trkpt lat="44.462595" lon="9.3415133"><ele>838.0</ele><time>2026-04-06T14:16:46.599Z</time></trkpt><trkpt lat="44.462485" lon="9.3415017"><ele>838.0</ele><time>2026-04-06T14:16:47.598Z</time></trkpt><trkpt lat="44.462385" lon="9.3414717"><ele>838.0</ele><time>2026-04-06T14:16:48.599Z</time></trkpt><trkpt lat="44.4623133" lon="9.3413917"><ele>838.0</ele><time>2026-04-06T14:16:49.599Z</time></trkpt><trkpt lat="44.4622817" lon="9.3412767"><ele>838.0</ele><time>2026-04-06T14:16:50.603Z</time></trkpt><trkpt lat="44.4622783" lon="9.3411633"><ele>838.0</ele><time>2026-04-06T14:16:51.599Z</time></trkpt><trkpt lat="44.46232" lon="9.3410417"><ele>842.3333333333333</ele><time>2026-04-06T14:16:52.598Z</time></trkpt><trkpt lat="44.4624167" lon="9.3408933"><ele>846.6666666666667</ele><time>2026-04-06T14:16:53.6Z</time></trkpt><trkpt lat="44.4625417" lon="9.34073"><ele>851.0</ele><time>2026-04-06T14:16:54.599Z</time></trkpt><trkpt lat="44.4626767" lon="9.3405667"><ele>854.3333333333334</ele><time>2026-04-06T14:16:55.599Z</time></trkpt><trkpt lat="44.4628167" lon="9.3404117"><ele>857.6666666666667</ele><time>2026-04-06T14:16:56.598Z</time></trkpt><trkpt lat="44.4629467" lon="9.3402683"><ele>861.0</ele><time>2026-04-06T14:16:57.599Z</time></trkpt><trkpt lat="44.4630617" lon="9.340115"><ele>861.0</ele><time>2026-04-06T14:16:58.599Z</time></trkpt><trkpt lat="44.4631567" lon="9.3399367"><ele>861.0</ele><time>2026-04-06T14:16:59.598Z</time></trkpt><trkpt lat="44.4632183" lon="9.3397217"><ele>861.0</ele><time>2026-04-06T14:17:00.598Z</time></trkpt><trkpt lat="44.4632583" lon="9.3395"><ele>860.5</ele><time>2026-04-06T14:17:01.599Z</time></trkpt><trkpt lat="44.4632933" lon="9.3393"><ele>860.0</ele><time>2026-04-06T14:17:02.598Z</time></trkpt><trkpt lat="44.4633433" lon="9.3391117"><ele>859.5</ele><time>2026-04-06T14:17:03.599Z</time></trkpt><trkpt lat="44.463405" lon="9.3389317"><ele>859.0</ele><time>2026-04-06T14:17:04.598Z</time></trkpt><trkpt lat="44.4634533" lon="9.3387433"><ele>858.0</ele><time>2026-04-06T14:17:05.599Z</time></trkpt><trkpt lat="44.4634783" lon="9.3385367"><ele>857.0</ele><time>2026-04-06T14:17:06.599Z</time></trkpt><trkpt lat="44.4634867" lon="9.3383333"><ele>856.0</ele><time>2026-04-06T14:17:07.598Z</time></trkpt><trkpt lat="44.46349" lon="9.33815"><ele>855.0</ele><time>2026-04-06T14:17:08.599Z</time></trkpt><trkpt lat="44.4635067" lon="9.33798"><ele>855.0</ele><time>2026-04-06T14:17:09.599Z</time></trkpt><trkpt lat="44.463545" lon="9.3378167"><ele>855.0</ele><time>2026-04-06T14:17:10.599Z</time></trkpt><trkpt lat="44.463595" lon="9.3376583"><ele>855.0</ele><time>2026-04-06T14:17:11.599Z</time></trkpt><trkpt lat="44.4636333" lon="9.3375"><ele>855.0</ele><time>2026-04-06T14:17:12.599Z</time></trkpt><trkpt lat="44.46364" lon="9.337335"><ele>861.25</ele><time>2026-04-06T14:17:13.599Z</time></trkpt><trkpt lat="44.4636033" lon="9.3371667"><ele>867.5</ele><time>2026-04-06T14:17:14.599Z</time></trkpt><trkpt lat="44.463535" lon="9.3370067"><ele>873.75</ele><time>2026-04-06T14:17:15.598Z</time></trkpt><trkpt lat="44.4634433" lon="9.33686"><ele>880.0</ele><time>2026-04-06T14:17:16.597Z</time></trkpt><trkpt lat="44.46334" lon="9.33673"><ele>880.0</ele><time>2026-04-06T14:17:17.599Z</time></trkpt><trkpt lat="44.4632317" lon="9.3366133"><ele>880.0</ele><time>2026-04-06T14:17:18.599Z</time></trkpt><trkpt lat="44.4631117" lon="9.33651"><ele>880.0</ele><time>2026-04-06T14:17:19.599Z</time></trkpt><trkpt lat="44.4629917" lon="9.3364133"><ele>880.0</ele><time>2026-04-06T14:17:20.598Z</time></trkpt><trkpt lat="44.46288" lon="9.3363183"><ele>877.2</ele><time>2026-04-06T14:17:21.598Z</time></trkpt><trkpt lat="44.4627867" lon="9.336215"><ele>874.4</ele><time>2026-04-06T14:17:22.599Z</time></trkpt><trkpt lat="44.462715" lon="9.3361"><ele>871.5999999999999</ele><time>2026-04-06T14:17:23.599Z</time></trkpt><trkpt lat="44.46266" lon="9.3359817"><ele>868.8</ele><time>2026-04-06T14:17:24.6Z</time></trkpt><trkpt lat="44.4626167" lon="9.335865"><ele>866.0</ele><time>2026-04-06T14:17:25.6Z</time></trkpt><trkpt lat="44.4625883" lon="9.335745"><ele>866.0</ele><time>2026-04-06T14:17:26.599Z</time></trkpt><trkpt lat="44.46258" lon="9.3356233"><ele>865.9999999999999</ele><time>2026-04-06T14:17:27.6Z</time></trkpt><trkpt lat="44.4626" lon="9.3355033"><ele>865.9999999999999</ele><time>2026-04-06T14:17:28.599Z</time></trkpt><trkpt lat="44.4626533" lon="9.335375"><ele>866.0</ele><time>2026-04-06T14:17:29.6Z</time></trkpt><trkpt lat="44.4627233" lon="9.3352317"><ele>866.0</ele><time>2026-04-06T14:17:30.6Z</time></trkpt><trkpt lat="44.4628" lon="9.33507"><ele>872.0</ele><time>2026-04-06T14:17:31.6Z</time></trkpt><trkpt lat="44.4628767" lon="9.33489"><ele>878.0</ele><time>2026-04-06T14:17:32.599Z</time></trkpt><trkpt lat="44.46295" lon="9.3346917"><ele>884.0</ele><time>2026-04-06T14:17:33.6Z</time></trkpt><trkpt lat="44.463015" lon="9.3344883"><ele>884.0</ele><time>2026-04-06T14:17:34.599Z</time></trkpt><trkpt lat="44.4630767" lon="9.3342917"><ele>884.0</ele><time>2026-04-06T14:17:35.6Z</time></trkpt><trkpt lat="44.4631333" lon="9.334095"><ele>884.0</ele><time>2026-04-06T14:17:36.6Z</time></trkpt><trkpt lat="44.4631733" lon="9.3338833"><ele>882.0</ele><time>2026-04-06T14:17:37.6Z</time></trkpt><trkpt lat="44.4631883" lon="9.333675"><ele>880.0</ele><time>2026-04-06T14:17:38.6Z</time></trkpt><trkpt lat="44.463185" lon="9.3334733"><ele>878.0</ele><time>2026-04-06T14:17:39.599Z</time></trkpt><trkpt lat="44.46317" lon="9.3332867"><ele>876.0</ele><time>2026-04-06T14:17:40.598Z</time></trkpt><trkpt lat="44.463165" lon="9.3331133"><ele>873.5</ele><time>2026-04-06T14:17:41.599Z</time></trkpt><trkpt lat="44.46319" lon="9.3329617"><ele>871.0</ele><time>2026-04-06T14:17:42.599Z</time></trkpt><trkpt lat="44.4632517" lon="9.3328367"><ele>868.5</ele><time>2026-04-06T14:17:43.598Z</time></trkpt><trkpt lat="44.4633467" lon="9.3327467"><ele>866.0</ele><time>2026-04-06T14:17:44.6Z</time></trkpt><trkpt lat="44.4634667" lon="9.3326867"><ele>866.0</ele><time>2026-04-06T14:17:45.598Z</time></trkpt><trkpt lat="44.4635867" lon="9.3326233"><ele>866.0</ele><time>2026-04-06T14:17:46.599Z</time></trkpt><trkpt lat="44.4637033" lon="9.33255"><ele>866.0</ele><time>2026-04-06T14:17:47.6Z</time></trkpt><trkpt lat="44.46382" lon="9.3325017"><ele>866.0</ele><time>2026-04-06T14:17:48.599Z</time></trkpt><trkpt lat="44.463945" lon="9.3325017"><ele>867.75</ele><time>2026-04-06T14:17:49.599Z</time></trkpt><trkpt lat="44.4640733" lon="9.3325283"><ele>869.5</ele><time>2026-04-06T14:17:50.599Z</time></trkpt><trkpt lat="44.464205" lon="9.3325517"><ele>871.25</ele><time>2026-04-06T14:17:51.599Z</time></trkpt><trkpt lat="44.4643317" lon="9.33254"><ele>873.0</ele><time>2026-04-06T14:17:52.599Z</time></trkpt><trkpt lat="44.464445" lon="9.3324733"><ele>873.0</ele><time>2026-04-06T14:17:53.599Z</time></trkpt><trkpt lat="44.4645467" lon="9.33237"><ele>873.0</ele><time>2026-04-06T14:17:54.598Z</time></trkpt><trkpt lat="44.464645" lon="9.3322533"><ele>873.0</ele><time>2026-04-06T14:17:55.598Z</time></trkpt><trkpt lat="44.4647567" lon="9.332145"><ele>873.0</ele><time>2026-04-06T14:17:56.599Z</time></trkpt><trkpt lat="44.464885" lon="9.3320583"><ele>869.5</ele><time>2026-04-06T14:17:57.599Z</time></trkpt><trkpt lat="44.46502" lon="9.3319833"><ele>866.0</ele><time>2026-04-06T14:17:58.6Z</time></trkpt><trkpt lat="44.46515" lon="9.331905"><ele>862.5</ele><time>2026-04-06T14:17:59.599Z</time></trkpt><trkpt lat="44.46527" lon="9.3318317"><ele>859.0</ele><time>2026-04-06T14:18:00.599Z</time></trkpt><trkpt lat="44.4653717" lon="9.331745"><ele>858.6</ele><time>2026-04-06T14:18:01.598Z</time></trkpt><trkpt lat="44.4654467" lon="9.33163"><ele>858.2</ele><time>2026-04-06T14:18:02.599Z</time></trkpt><trkpt lat="44.4654967" lon="9.3315"><ele>857.8000000000001</ele><time>2026-04-06T14:18:03.599Z</time></trkpt><trkpt lat="44.46553" lon="9.33137"><ele>857.4000000000001</ele><time>2026-04-06T14:18:04.601Z</time></trkpt><trkpt lat="44.4655683" lon="9.331235"><ele>857.0</ele><time>2026-04-06T14:18:05.599Z</time></trkpt><trkpt lat="44.4656417" lon="9.3311217"><ele>857.0</ele><time>2026-04-06T14:18:06.599Z</time></trkpt><trkpt lat="44.4657383" lon="9.3310283"><ele>857.0</ele><time>2026-04-06T14:18:07.598Z</time></trkpt><trkpt lat="44.4658467" lon="9.33096"><ele>857.0</ele><time>2026-04-06T14:18:08.6Z</time></trkpt><trkpt lat="44.4659583" lon="9.330915"><ele>857.0</ele><time>2026-04-06T14:18:09.599Z</time></trkpt><trkpt lat="44.466065" lon="9.3308683"><ele>857.0</ele><time>2026-04-06T14:18:10.599Z</time></trkpt><trkpt lat="44.4661667" lon="9.330785"><ele>857.0</ele><time>2026-04-06T14:18:11.598Z</time></trkpt><trkpt lat="44.4662533" lon="9.3306567"><ele>857.0</ele><time>2026-04-06T14:18:12.599Z</time></trkpt><trkpt lat="44.4663217" lon="9.33049"><ele>857.0</ele><time>2026-04-06T14:18:13.599Z</time></trkpt><trkpt lat="44.466385" lon="9.3303233"><ele>855.75</ele><time>2026-04-06T14:18:14.599Z</time></trkpt><trkpt lat="44.4664417" lon="9.3301617"><ele>854.5</ele><time>2026-04-06T14:18:15.6Z</time></trkpt><trkpt lat="44.46649" lon="9.3300117"><ele>853.25</ele><time>2026-04-06T14:18:16.598Z</time></trkpt><trkpt lat="44.4665167" lon="9.3298667"><ele>852.0</ele><time>2026-04-06T14:18:17.599Z</time></trkpt><trkpt lat="44.466515" lon="9.3297267"><ele>851.6</ele><time>2026-04-06T14:18:18.599Z</time></trkpt><trkpt lat="44.46648" lon="9.3296"><ele>851.2</ele><time>2026-04-06T14:18:19.597Z</time></trkpt><trkpt lat="44.4664333" lon="9.32948"><ele>850.8</ele><time>2026-04-06T14:18:20.599Z</time></trkpt><trkpt lat="44.4663917" lon="9.32936"><ele>850.4</ele><time>2026-04-06T14:18:21.601Z</time></trkpt><trkpt lat="44.4663717" lon="9.3292383"><ele>850.0</ele><time>2026-04-06T14:18:22.598Z</time></trkpt><trkpt lat="44.4663767" lon="9.329115"><ele>849.9999999999999</ele><time>2026-04-06T14:18:23.599Z</time></trkpt><trkpt lat="44.4664033" lon="9.3290067"><ele>850.0</ele><time>2026-04-06T14:18:24.598Z</time></trkpt><trkpt lat="44.4664483" lon="9.328915"><ele>850.0</ele><time>2026-04-06T14:18:25.599Z</time></trkpt><trkpt lat="44.46651" lon="9.328845"><ele>850.0</ele><time>2026-04-06T14:18:26.599Z</time></trkpt><trkpt lat="44.4665917" lon="9.3287967"><ele>849.9999999999999</ele><time>2026-04-06T14:18:27.599Z</time></trkpt><trkpt lat="44.4666833" lon="9.32877"><ele>850.0</ele><time>2026-04-06T14:18:28.6Z</time></trkpt><trkpt lat="44.4667717" lon="9.3287417"><ele>850.4</ele><time>2026-04-06T14:18:29.599Z</time></trkpt><trkpt lat="44.4668617" lon="9.328705"><ele>850.8</ele><time>2026-04-06T14:18:30.598Z</time></trkpt><trkpt lat="44.4669533" lon="9.3286717"><ele>851.2</ele><time>2026-04-06T14:18:31.599Z</time></trkpt><trkpt lat="44.4670517" lon="9.3286233"><ele>851.6</ele><time>2026-04-06T14:18:32.599Z</time></trkpt><trkpt lat="44.4671433" lon="9.3285633"><ele>852.0</ele><time>2026-04-06T14:18:33.598Z</time></trkpt><trkpt lat="44.4672267" lon="9.3284817"><ele>852.0</ele><time>2026-04-06T14:18:34.598Z</time></trkpt><trkpt lat="44.4672933" lon="9.32839"><ele>852.0</ele><time>2026-04-06T14:18:35.599Z</time></trkpt><trkpt lat="44.46734" lon="9.32828"><ele>852.0</ele><time>2026-04-06T14:18:36.599Z</time></trkpt><trkpt lat="44.46737" lon="9.3281617"><ele>852.0</ele><time>2026-04-06T14:18:37.599Z</time></trkpt><trkpt lat="44.4673883" lon="9.3280417"><ele>852.0</ele><time>2026-04-06T14:18:38.6Z</time></trkpt><trkpt lat="44.4673917" lon="9.3279217"><ele>852.0</ele><time>2026-04-06T14:18:39.599Z</time></trkpt><trkpt lat="44.46739" lon="9.3278117"><ele>850.5</ele><time>2026-04-06T14:18:40.599Z</time></trkpt><trkpt lat="44.4673917" lon="9.3277067"><ele>849.0</ele><time>2026-04-06T14:18:41.599Z</time></trkpt><trkpt lat="44.4674133" lon="9.3276117"><ele>847.5</ele><time>2026-04-06T14:18:42.598Z</time></trkpt><trkpt lat="44.467445" lon="9.3275283"><ele>846.0</ele><time>2026-04-06T14:18:43.599Z</time></trkpt><trkpt lat="44.467495" lon="9.3274733"><ele>844.5</ele><time>2026-04-06T14:18:44.599Z</time></trkpt><trkpt lat="44.4675567" lon="9.32744"><ele>843.0</ele><time>2026-04-06T14:18:45.598Z</time></trkpt><trkpt lat="44.4676667" lon="9.3275"><ele>843.0</ele><time>2026-04-06T14:18:46.6Z</time></trkpt><trkpt lat="44.4677833" lon="9.3275883"><ele>843.0</ele><time>2026-04-06T14:18:47.598Z</time></trkpt><trkpt lat="44.4679033" lon="9.327715"><ele>843.0</ele><time>2026-04-06T14:18:48.598Z</time></trkpt><trkpt lat="44.46802" lon="9.3278467"><ele>843.0</ele><time>2026-04-06T14:18:49.598Z</time></trkpt><trkpt lat="44.4681383" lon="9.327935"><ele>842.75</ele><time>2026-04-06T14:18:50.6Z</time></trkpt><trkpt lat="44.4682633" lon="9.3279583"><ele>842.5</ele><time>2026-04-06T14:18:51.599Z</time></trkpt><trkpt lat="44.4684067" lon="9.3279367"><ele>842.25</ele><time>2026-04-06T14:18:52.599Z</time></trkpt><trkpt lat="44.4685533" lon="9.3278867"><ele>842.0</ele><time>2026-04-06T14:18:53.598Z</time></trkpt><trkpt lat="44.468695" lon="9.327815"><ele>842.5</ele><time>2026-04-06T14:18:54.598Z</time></trkpt><trkpt lat="44.4688283" lon="9.3277083"><ele>843.0</ele><time>2026-04-06T14:18:55.599Z</time></trkpt><trkpt lat="44.4689367" lon="9.3275667"><ele>843.5</ele><time>2026-04-06T14:18:56.599Z</time></trkpt><trkpt lat="44.4690333" lon="9.32741"><ele>844.0</ele><time>2026-04-06T14:18:57.599Z</time></trkpt><trkpt lat="44.469135" lon="9.3272467"><ele>842.3333333333333</ele><time>2026-04-06T14:18:58.599Z</time></trkpt><trkpt lat="44.4692417" lon="9.32708"><ele>840.6666666666667</ele><time>2026-04-06T14:18:59.598Z</time></trkpt><trkpt lat="44.4693417" lon="9.3269167"><ele>839.0</ele><time>2026-04-06T14:19:00.599Z</time></trkpt><trkpt lat="44.46944" lon="9.3267667"><ele>839.0</ele><time>2026-04-06T14:19:01.599Z</time></trkpt><trkpt lat="44.4695367" lon="9.3266233"><ele>839.0</ele><time>2026-04-06T14:19:02.599Z</time></trkpt><trkpt lat="44.469645" lon="9.3264983"><ele>839.0</ele><time>2026-04-06T14:19:03.599Z</time></trkpt><trkpt lat="44.4697683" lon="9.3264067"><ele>839.0</ele><time>2026-04-06T14:19:04.6Z</time></trkpt><trkpt lat="44.469905" lon="9.3263467"><ele>838.6666666666667</ele><time>2026-04-06T14:19:05.599Z</time></trkpt><trkpt lat="44.470045" lon="9.32634"><ele>838.3333333333333</ele><time>2026-04-06T14:19:06.6Z</time></trkpt><trkpt lat="44.470195" lon="9.326405"><ele>838.0</ele><time>2026-04-06T14:19:07.599Z</time></trkpt><trkpt lat="44.470345" lon="9.326485"><ele>841.0</ele><time>2026-04-06T14:19:08.598Z</time></trkpt><trkpt lat="44.4704967" lon="9.3265267"><ele>844.0</ele><time>2026-04-06T14:19:09.598Z</time></trkpt><trkpt lat="44.4706583" lon="9.32651"><ele>847.0</ele><time>2026-04-06T14:19:10.599Z</time></trkpt><trkpt lat="44.4708183" lon="9.3264617"><ele>847.5</ele><time>2026-04-06T14:19:11.6Z</time></trkpt><trkpt lat="44.470965" lon="9.32639"><ele>848.0</ele><time>2026-04-06T14:19:12.598Z</time></trkpt><trkpt lat="44.47109" lon="9.3262867"><ele>848.5</ele><time>2026-04-06T14:19:13.598Z</time></trkpt><trkpt lat="44.4711967" lon="9.326145"><ele>849.0</ele><time>2026-04-06T14:19:14.6Z</time></trkpt><trkpt lat="44.47128" lon="9.3259567"><ele>849.0</ele><time>2026-04-06T14:19:15.599Z</time></trkpt><trkpt lat="44.4713367" lon="9.3257267"><ele>849.0</ele><time>2026-04-06T14:19:16.599Z</time></trkpt><trkpt lat="44.4713833" lon="9.325495"><ele>849.0</ele><time>2026-04-06T14:19:17.599Z</time></trkpt><trkpt lat="44.4714217" lon="9.3252667"><ele>847.5</ele><time>2026-04-06T14:19:18.598Z</time></trkpt><trkpt lat="44.4714583" lon="9.3250633"><ele>846.0</ele><time>2026-04-06T14:19:19.599Z</time></trkpt><trkpt lat="44.4715" lon="9.32489"><ele>844.5</ele><time>2026-04-06T14:19:20.6Z</time></trkpt><trkpt lat="44.4715583" lon="9.3247433"><ele>843.0</ele><time>2026-04-06T14:19:21.599Z</time></trkpt><trkpt lat="44.471655" lon="9.32464"><ele>840.0</ele><time>2026-04-06T14:19:22.598Z</time></trkpt><trkpt lat="44.4717817" lon="9.3245867"><ele>837.0</ele><time>2026-04-06T14:19:23.598Z</time></trkpt><trkpt lat="44.4719383" lon="9.3245667"><ele>834.0</ele><time>2026-04-06T14:19:24.599Z</time></trkpt><trkpt lat="44.4721117" lon="9.32455"><ele>834.0</ele><time>2026-04-06T14:19:25.6Z</time></trkpt><trkpt lat="44.4722867" lon="9.3245"><ele>834.0</ele><time>2026-04-06T14:19:26.599Z</time></trkpt><trkpt lat="44.4724633" lon="9.3244283"><ele>834.0</ele><time>2026-04-06T14:19:27.599Z</time></trkpt><trkpt lat="44.47264" lon="9.32434"><ele>834.0</ele><time>2026-04-06T14:19:28.599Z</time></trkpt><trkpt lat="44.4728133" lon="9.3242583"><ele>834.0</ele><time>2026-04-06T14:19:29.599Z</time></trkpt><trkpt lat="44.4729783" lon="9.3241817"><ele>834.0</ele><time>2026-04-06T14:19:30.598Z</time></trkpt><trkpt lat="44.4731333" lon="9.3241117"><ele>834.5</ele><time>2026-04-06T14:19:31.6Z</time></trkpt><trkpt lat="44.4732783" lon="9.3240567"><ele>835.0</ele><time>2026-04-06T14:19:32.6Z</time></trkpt><trkpt lat="44.4734217" lon="9.3240317"><ele>835.5</ele><time>2026-04-06T14:19:33.601Z</time></trkpt><trkpt lat="44.4735717" lon="9.324035"><ele>836.0</ele><time>2026-04-06T14:19:34.598Z</time></trkpt><trkpt lat="44.4737117" lon="9.3240683"><ele>835.0</ele><time>2026-04-06T14:19:35.598Z</time></trkpt><trkpt lat="44.473855" lon="9.324135"><ele>834.0</ele><time>2026-04-06T14:19:36.598Z</time></trkpt><trkpt lat="44.4740067" lon="9.324225"><ele>833.0</ele><time>2026-04-06T14:19:37.598Z</time></trkpt><trkpt lat="44.4741717" lon="9.324325"><ele>833.0</ele><time>2026-04-06T14:19:38.599Z</time></trkpt><trkpt lat="44.4743433" lon="9.3244367"><ele>833.0</ele><time>2026-04-06T14:19:39.601Z</time></trkpt><trkpt lat="44.4745133" lon="9.32455"><ele>833.0</ele><time>2026-04-06T14:19:40.6Z</time></trkpt><trkpt lat="44.4746733" lon="9.3246617"><ele>834.0</ele><time>2026-04-06T14:19:41.6Z</time></trkpt><trkpt lat="44.4748217" lon="9.324765"><ele>835.0</ele><time>2026-04-06T14:19:42.599Z</time></trkpt><trkpt lat="44.47496" lon="9.3248533"><ele>836.0</ele><time>2026-04-06T14:19:43.6Z</time></trkpt><trkpt lat="44.4750933" lon="9.3249133"><ele>836.0</ele><time>2026-04-06T14:19:44.6Z</time></trkpt><trkpt lat="44.4752333" lon="9.324935"><ele>836.0</ele><time>2026-04-06T14:19:45.599Z</time></trkpt><trkpt lat="44.47537" lon="9.324915"><ele>836.0</ele><time>2026-04-06T14:19:46.599Z</time></trkpt><trkpt lat="44.4755017" lon="9.3248567"><ele>836.0</ele><time>2026-04-06T14:19:47.6Z</time></trkpt><trkpt lat="44.475635" lon="9.3247733"><ele>833.25</ele><time>2026-04-06T14:19:48.599Z</time></trkpt><trkpt lat="44.4757617" lon="9.3246783"><ele>830.5</ele><time>2026-04-06T14:19:49.598Z</time></trkpt><trkpt lat="44.4758833" lon="9.3245867"><ele>827.75</ele><time>2026-04-06T14:19:50.598Z</time></trkpt><trkpt lat="44.476" lon="9.3244983"><ele>825.0</ele><time>2026-04-06T14:19:51.599Z</time></trkpt><trkpt lat="44.476115" lon="9.3244083"><ele>825.0</ele><time>2026-04-06T14:19:52.599Z</time></trkpt><trkpt lat="44.476235" lon="9.3243317"><ele>825.0</ele><time>2026-04-06T14:19:53.599Z</time></trkpt><trkpt lat="44.476355" lon="9.3242883"><ele>825.0</ele><time>2026-04-06T14:19:54.599Z</time></trkpt><trkpt lat="44.47648" lon="9.3242833"><ele>825.0</ele><time>2026-04-06T14:19:55.599Z</time></trkpt><trkpt lat="44.4766117" lon="9.3243133"><ele>827.0</ele><time>2026-04-06T14:19:56.599Z</time></trkpt><trkpt lat="44.4767533" lon="9.3243683"><ele>829.0</ele><time>2026-04-06T14:19:57.599Z</time></trkpt><trkpt lat="44.4769" lon="9.32444"><ele>831.0</ele><time>2026-04-06T14:19:58.599Z</time></trkpt><trkpt lat="44.4770533" lon="9.32452"><ele>829.6666666666667</ele><time>2026-04-06T14:19:59.6Z</time></trkpt><trkpt lat="44.47721" lon="9.3246017"><ele>828.3333333333334</ele><time>2026-04-06T14:20:00.599Z</time></trkpt><trkpt lat="44.4773683" lon="9.3246867"><ele>827.0</ele><time>2026-04-06T14:20:01.599Z</time></trkpt><trkpt lat="44.47752" lon="9.324765"><ele>827.0</ele><time>2026-04-06T14:20:02.6Z</time></trkpt><trkpt lat="44.477665" lon="9.3248483"><ele>827.0</ele><time>2026-04-06T14:20:03.599Z</time></trkpt><trkpt lat="44.4778067" lon="9.32493"><ele>827.0</ele><time>2026-04-06T14:20:04.598Z</time></trkpt><trkpt lat="44.477935" lon="9.32502"><ele>826.25</ele><time>2026-04-06T14:20:05.599Z</time></trkpt><trkpt lat="44.47805" lon="9.3251217"><ele>825.5</ele><time>2026-04-06T14:20:06.599Z</time></trkpt><trkpt lat="44.47815" lon="9.3252583"><ele>824.75</ele><time>2026-04-06T14:20:07.599Z</time></trkpt><trkpt lat="44.4782383" lon="9.3254167"><ele>824.0</ele><time>2026-04-06T14:20:08.599Z</time></trkpt><trkpt lat="44.4783217" lon="9.3255833"><ele>824.0</ele><time>2026-04-06T14:20:09.598Z</time></trkpt><trkpt lat="44.4784083" lon="9.325745"><ele>824.0</ele><time>2026-04-06T14:20:10.599Z</time></trkpt><trkpt lat="44.4785083" lon="9.3258867"><ele>824.0</ele><time>2026-04-06T14:20:11.599Z</time></trkpt><trkpt lat="44.478625" lon="9.326"><ele>824.0</ele><time>2026-04-06T14:20:12.599Z</time></trkpt><trkpt lat="44.4787633" lon="9.3260767"><ele>823.3333333333334</ele><time>2026-04-06T14:20:13.597Z</time></trkpt><trkpt lat="44.4789167" lon="9.3261383"><ele>822.6666666666667</ele><time>2026-04-06T14:20:14.6Z</time></trkpt><trkpt lat="44.479075" lon="9.3262017"><ele>822.0</ele><time>2026-04-06T14:20:15.598Z</time></trkpt><trkpt lat="44.4792333" lon="9.3262633"><ele>822.0</ele><time>2026-04-06T14:20:16.599Z</time></trkpt><trkpt lat="44.4793967" lon="9.326325"><ele>822.0</ele><time>2026-04-06T14:20:17.598Z</time></trkpt><trkpt lat="44.4795567" lon="9.326385"><ele>822.0</ele><time>2026-04-06T14:20:18.599Z</time></trkpt><trkpt lat="44.4797133" lon="9.326445"><ele>822.6666666666667</ele><time>2026-04-06T14:20:19.601Z</time></trkpt><trkpt lat="44.4798667" lon="9.3265067"><ele>823.3333333333334</ele><time>2026-04-06T14:20:20.599Z</time></trkpt><trkpt lat="44.4800183" lon="9.3265867"><ele>824.0</ele><time>2026-04-06T14:20:21.599Z</time></trkpt><trkpt lat="44.48017" lon="9.3266833"><ele>824.0</ele><time>2026-04-06T14:20:22.599Z</time></trkpt><trkpt lat="44.48031" lon="9.3267983"><ele>824.0</ele><time>2026-04-06T14:20:23.599Z</time></trkpt><trkpt lat="44.4804433" lon="9.32693"><ele>824.0</ele><time>2026-04-06T14:20:24.598Z</time></trkpt><trkpt lat="44.4805717" lon="9.32707"><ele>826.0</ele><time>2026-04-06T14:20:25.6Z</time></trkpt><trkpt lat="44.4806933" lon="9.3272133"><ele>828.0</ele><time>2026-04-06T14:20:26.598Z</time></trkpt><trkpt lat="44.4808117" lon="9.327355"><ele>830.0</ele><time>2026-04-06T14:20:27.599Z</time></trkpt><trkpt lat="44.48093" lon="9.3274933"><ele>830.0</ele><time>2026-04-06T14:20:28.602Z</time></trkpt><trkpt lat="44.4810467" lon="9.32763"><ele>830.0</ele><time>2026-04-06T14:20:29.6Z</time></trkpt><trkpt lat="44.4811667" lon="9.3277717"><ele>830.0</ele><time>2026-04-06T14:20:30.6Z</time></trkpt><trkpt lat="44.4812867" lon="9.327915"><ele>830.0</ele><time>2026-04-06T14:20:31.6Z</time></trkpt><trkpt lat="44.4814117" lon="9.3280583"><ele>830.0</ele><time>2026-04-06T14:20:32.601Z</time></trkpt><trkpt lat="44.4815417" lon="9.32819"><ele>830.0</ele><time>2026-04-06T14:20:33.6Z</time></trkpt><trkpt lat="44.4816817" lon="9.3283183"><ele>830.0</ele><time>2026-04-06T14:20:34.6Z</time></trkpt><trkpt lat="44.4818317" lon="9.3284433"><ele>830.0</ele><time>2026-04-06T14:20:35.6Z</time></trkpt><trkpt lat="44.4820067" lon="9.3285667"><ele>830.0</ele><time>2026-04-06T14:20:36.599Z</time></trkpt><trkpt lat="44.4822" lon="9.3286917"><ele>829.3333333333334</ele><time>2026-04-06T14:20:37.599Z</time></trkpt><trkpt lat="44.482395" lon="9.3288117"><ele>828.6666666666667</ele><time>2026-04-06T14:20:38.599Z</time></trkpt><trkpt lat="44.482575" lon="9.3289317"><ele>828.0</ele><time>2026-04-06T14:20:39.599Z</time></trkpt><trkpt lat="44.4827417" lon="9.3290567"><ele>828.0</ele><time>2026-04-06T14:20:40.6Z</time></trkpt><trkpt lat="44.4828967" lon="9.3291917"><ele>828.0</ele><time>2026-04-06T14:20:41.598Z</time></trkpt><trkpt lat="44.4830433" lon="9.3293433"><ele>828.0</ele><time>2026-04-06T14:20:42.599Z</time></trkpt><trkpt lat="44.483195" lon="9.3295133"><ele>828.0</ele><time>2026-04-06T14:20:43.599Z</time></trkpt><trkpt lat="44.48335" lon="9.3297"><ele>828.0</ele><time>2026-04-06T14:20:44.599Z</time></trkpt><trkpt lat="44.4835033" lon="9.3298867"><ele>828.0</ele><time>2026-04-06T14:20:45.599Z</time></trkpt><trkpt lat="44.4836567" lon="9.3300833"><ele>829.6666666666667</ele><time>2026-04-06T14:20:46.598Z</time></trkpt><trkpt lat="44.483805" lon="9.3302733"><ele>831.3333333333334</ele><time>2026-04-06T14:20:47.598Z</time></trkpt><trkpt lat="44.4839567" lon="9.33047"><ele>833.0</ele><time>2026-04-06T14:20:48.599Z</time></trkpt><trkpt lat="44.4841083" lon="9.3306617"><ele>833.0</ele><time>2026-04-06T14:20:49.599Z</time></trkpt><trkpt lat="44.4842667" lon="9.33086"><ele>833.0</ele><time>2026-04-06T14:20:50.599Z</time></trkpt><trkpt lat="44.4844233" lon="9.3310533"><ele>833.0</ele><time>2026-04-06T14:20:51.598Z</time></trkpt><trkpt lat="44.4845817" lon="9.33124"><ele>834.3333333333334</ele><time>2026-04-06T14:20:52.599Z</time></trkpt><trkpt lat="44.4847417" lon="9.33142"><ele>835.6666666666667</ele><time>2026-04-06T14:20:53.598Z</time></trkpt><trkpt lat="44.4848917" lon="9.3315967"><ele>837.0</ele><time>2026-04-06T14:20:54.599Z</time></trkpt><trkpt lat="44.4850317" lon="9.33177"><ele>837.0</ele><time>2026-04-06T14:20:55.598Z</time></trkpt><trkpt lat="44.485165" lon="9.331955"><ele>837.0</ele><time>2026-04-06T14:20:56.6Z</time></trkpt><trkpt lat="44.4852967" lon="9.33216"><ele>837.0</ele><time>2026-04-06T14:20:57.599Z</time></trkpt><trkpt lat="44.4854183" lon="9.332375"><ele>837.6666666666667</ele><time>2026-04-06T14:20:58.599Z</time></trkpt><trkpt lat="44.4855367" lon="9.3325983"><ele>838.3333333333334</ele><time>2026-04-06T14:20:59.599Z</time></trkpt><trkpt lat="44.485645" lon="9.3328383"><ele>839.0</ele><time>2026-04-06T14:21:00.599Z</time></trkpt><trkpt lat="44.4857467" lon="9.3330867"><ele>835.3333333333334</ele><time>2026-04-06T14:21:01.598Z</time></trkpt><trkpt lat="44.4858383" lon="9.33333"><ele>831.6666666666667</ele><time>2026-04-06T14:21:02.598Z</time></trkpt><trkpt lat="44.485925" lon="9.3335667"><ele>828.0</ele><time>2026-04-06T14:21:03.599Z</time></trkpt><trkpt lat="44.4860067" lon="9.33379"><ele>828.6666666666667</ele><time>2026-04-06T14:21:04.599Z</time></trkpt><trkpt lat="44.4860883" lon="9.3340017"><ele>829.3333333333334</ele><time>2026-04-06T14:21:05.6Z</time></trkpt><trkpt lat="44.4861767" lon="9.3342033"><ele>830.0</ele><time>2026-04-06T14:21:06.599Z</time></trkpt><trkpt lat="44.48629" lon="9.33439"><ele>830.0</ele><time>2026-04-06T14:21:07.599Z</time></trkpt><trkpt lat="44.4864333" lon="9.3345717"><ele>830.0</ele><time>2026-04-06T14:21:08.598Z</time></trkpt><trkpt lat="44.4865817" lon="9.3347467"><ele>830.0</ele><time>2026-04-06T14:21:09.598Z</time></trkpt><trkpt lat="44.4867467" lon="9.3349217"><ele>828.3333333333334</ele><time>2026-04-06T14:21:10.599Z</time></trkpt><trkpt lat="44.4869183" lon="9.335095"><ele>826.6666666666667</ele><time>2026-04-06T14:21:11.599Z</time></trkpt><trkpt lat="44.4870983" lon="9.3352567"><ele>825.0</ele><time>2026-04-06T14:21:12.598Z</time></trkpt><trkpt lat="44.4872917" lon="9.3354033"><ele>825.0</ele><time>2026-04-06T14:21:13.599Z</time></trkpt><trkpt lat="44.48749" lon="9.33554"><ele>825.0</ele><time>2026-04-06T14:21:14.599Z</time></trkpt><trkpt lat="44.4876867" lon="9.3356683"><ele>825.0</ele><time>2026-04-06T14:21:15.598Z</time></trkpt><trkpt lat="44.4878733" lon="9.3357883"><ele>830.6666666666667</ele><time>2026-04-06T14:21:16.599Z</time></trkpt><trkpt lat="44.4880517" lon="9.3359033"><ele>836.3333333333334</ele><time>2026-04-06T14:21:17.599Z</time></trkpt><trkpt lat="44.4882283" lon="9.3360283"><ele>842.0</ele><time>2026-04-06T14:21:18.599Z</time></trkpt><trkpt lat="44.4883933" lon="9.3361683"><ele>842.0</ele><time>2026-04-06T14:21:19.599Z</time></trkpt><trkpt lat="44.4885433" lon="9.33633"><ele>842.0</ele><time>2026-04-06T14:21:20.599Z</time></trkpt><trkpt lat="44.488685" lon="9.3365183"><ele>842.0</ele><time>2026-04-06T14:21:21.599Z</time></trkpt><trkpt lat="44.4888217" lon="9.336715"><ele>836.6666666666667</ele><time>2026-04-06T14:21:22.599Z</time></trkpt><trkpt lat="44.4889617" lon="9.33692"><ele>831.3333333333333</ele><time>2026-04-06T14:21:23.598Z</time></trkpt><trkpt lat="44.4891" lon="9.33711"><ele>826.0</ele><time>2026-04-06T14:21:24.598Z</time></trkpt><trkpt lat="44.4892367" lon="9.3372967"><ele>826.6666666666666</ele><time>2026-04-06T14:21:25.599Z</time></trkpt><trkpt lat="44.4893767" lon="9.337485"><ele>827.3333333333333</ele><time>2026-04-06T14:21:26.598Z</time></trkpt><trkpt lat="44.4895167" lon="9.3376783"><ele>828.0</ele><time>2026-04-06T14:21:27.599Z</time></trkpt><trkpt lat="44.489655" lon="9.3378817"><ele>825.6666666666667</ele><time>2026-04-06T14:21:28.599Z</time></trkpt><trkpt lat="44.48979" lon="9.338085"><ele>823.3333333333334</ele><time>2026-04-06T14:21:29.599Z</time></trkpt><trkpt lat="44.4899233" lon="9.3382833"><ele>821.0</ele><time>2026-04-06T14:21:30.599Z</time></trkpt><trkpt lat="44.49005" lon="9.3384817"><ele>821.0</ele><time>2026-04-06T14:21:31.598Z</time></trkpt><trkpt lat="44.4901717" lon="9.338675"><ele>821.0</ele><time>2026-04-06T14:21:32.599Z</time></trkpt><trkpt lat="44.4902967" lon="9.3388567"><ele>821.0</ele><time>2026-04-06T14:21:33.6Z</time></trkpt><trkpt lat="44.4904317" lon="9.3390117"><ele>820.3333333333334</ele><time>2026-04-06T14:21:34.598Z</time></trkpt><trkpt lat="44.4905833" lon="9.3391483"><ele>819.6666666666667</ele><time>2026-04-06T14:21:35.599Z</time></trkpt><trkpt lat="44.4907367" lon="9.339265"><ele>819.0</ele><time>2026-04-06T14:21:36.598Z</time></trkpt><trkpt lat="44.4908867" lon="9.3393633"><ele>819.0</ele><time>2026-04-06T14:21:37.599Z</time></trkpt><trkpt lat="44.491035" lon="9.3394417"><ele>819.0</ele><time>2026-04-06T14:21:38.598Z</time></trkpt><trkpt lat="44.4911917" lon="9.33949"><ele>819.0</ele><time>2026-04-06T14:21:39.599Z</time></trkpt><trkpt lat="44.4913433" lon="9.33953"><ele>819.6666666666667</ele><time>2026-04-06T14:21:40.599Z</time></trkpt><trkpt lat="44.491495" lon="9.3395933"><ele>820.3333333333334</ele><time>2026-04-06T14:21:41.601Z</time></trkpt><trkpt lat="44.4916417" lon="9.3396883"><ele>821.0</ele><time>2026-04-06T14:21:42.601Z</time></trkpt><trkpt lat="44.4917817" lon="9.3398117"><ele>821.3333333333334</ele><time>2026-04-06T14:21:43.6Z</time></trkpt><trkpt lat="44.4919217" lon="9.3399483"><ele>821.6666666666667</ele><time>2026-04-06T14:21:44.599Z</time></trkpt><trkpt lat="44.492055" lon="9.3400767"><ele>822.0</ele><time>2026-04-06T14:21:45.599Z</time></trkpt><trkpt lat="44.4921867" lon="9.3402117"><ele>822.0</ele><time>2026-04-06T14:21:46.6Z</time></trkpt><trkpt lat="44.4923133" lon="9.3403683"><ele>822.0</ele><time>2026-04-06T14:21:47.599Z</time></trkpt><trkpt lat="44.492425" lon="9.34053"><ele>822.0</ele><time>2026-04-06T14:21:48.598Z</time></trkpt><trkpt lat="44.49252" lon="9.3407"><ele>820.5</ele><time>2026-04-06T14:21:49.599Z</time></trkpt><trkpt lat="44.4926067" lon="9.3408717"><ele>819.0</ele><time>2026-04-06T14:21:50.598Z</time></trkpt><trkpt lat="44.4926883" lon="9.34104"><ele>817.5</ele><time>2026-04-06T14:21:51.598Z</time></trkpt><trkpt lat="44.4927683" lon="9.3411967"><ele>816.0</ele><time>2026-04-06T14:21:52.599Z</time></trkpt><trkpt lat="44.4928333" lon="9.3413517"><ele>816.25</ele><time>2026-04-06T14:21:53.599Z</time></trkpt><trkpt lat="44.4928833" lon="9.34151"><ele>816.5</ele><time>2026-04-06T14:21:54.599Z</time></trkpt><trkpt lat="44.4929333" lon="9.3416767"><ele>816.75</ele><time>2026-04-06T14:21:55.599Z</time></trkpt><trkpt lat="44.4929667" lon="9.3418633"><ele>817.0</ele><time>2026-04-06T14:21:56.599Z</time></trkpt><trkpt lat="44.493" lon="9.3420717"><ele>818.3333333333333</ele><time>2026-04-06T14:21:57.599Z</time></trkpt><trkpt lat="44.4930317" lon="9.3422933"><ele>819.6666666666667</ele><time>2026-04-06T14:21:58.599Z</time></trkpt><trkpt lat="44.4930667" lon="9.342525"><ele>821.0</ele><time>2026-04-06T14:21:59.599Z</time></trkpt><trkpt lat="44.4930967" lon="9.3427583"><ele>821.0</ele><time>2026-04-06T14:22:00.599Z</time></trkpt><trkpt lat="44.4931217" lon="9.3429833"><ele>821.0</ele><time>2026-04-06T14:22:01.6Z</time></trkpt><trkpt lat="44.493145" lon="9.3431933"><ele>821.0</ele><time>2026-04-06T14:22:02.6Z</time></trkpt><trkpt lat="44.4931683" lon="9.3433867"><ele>821.75</ele><time>2026-04-06T14:22:03.6Z</time></trkpt><trkpt lat="44.4931983" lon="9.3435667"><ele>822.5</ele><time>2026-04-06T14:22:04.599Z</time></trkpt><trkpt lat="44.4932467" lon="9.34373"><ele>823.25</ele><time>2026-04-06T14:22:05.6Z</time></trkpt><trkpt lat="44.4933183" lon="9.3438767"><ele>824.0</ele><time>2026-04-06T14:22:06.599Z</time></trkpt><trkpt lat="44.4934267" lon="9.3440083"><ele>822.0</ele><time>2026-04-06T14:22:07.599Z</time></trkpt><trkpt lat="44.49356" lon="9.34413"><ele>820.0</ele><time>2026-04-06T14:22:08.599Z</time></trkpt><trkpt lat="44.4937067" lon="9.3442467"><ele>818.0</ele><time>2026-04-06T14:22:09.598Z</time></trkpt><trkpt lat="44.4938583" lon="9.3443583"><ele>822.3333333333334</ele><time>2026-04-06T14:22:10.599Z</time></trkpt><trkpt lat="44.4940033" lon="9.3444717"><ele>826.6666666666667</ele><time>2026-04-06T14:22:11.599Z</time></trkpt><trkpt lat="44.4941383" lon="9.3445867"><ele>831.0</ele><time>2026-04-06T14:22:12.599Z</time></trkpt><trkpt lat="44.4942667" lon="9.3447083"><ele>827.6666666666667</ele><time>2026-04-06T14:22:13.599Z</time></trkpt><trkpt lat="44.4943833" lon="9.3448483"><ele>824.3333333333334</ele><time>2026-04-06T14:22:14.599Z</time></trkpt><trkpt lat="44.4944883" lon="9.3450033"><ele>821.0</ele><time>2026-04-06T14:22:15.599Z</time></trkpt><trkpt lat="44.4945917" lon="9.345165"><ele>821.0</ele><time>2026-04-06T14:22:16.598Z</time></trkpt><trkpt lat="44.4946933" lon="9.345325"><ele>821.0</ele><time>2026-04-06T14:22:17.598Z</time></trkpt><trkpt lat="44.4947933" lon="9.345485"><ele>821.0</ele><time>2026-04-06T14:22:18.599Z</time></trkpt><trkpt lat="44.4948917" lon="9.3456467"><ele>817.3333333333334</ele><time>2026-04-06T14:22:19.599Z</time></trkpt><trkpt lat="44.4949867" lon="9.3458133"><ele>813.6666666666667</ele><time>2026-04-06T14:22:20.599Z</time></trkpt><trkpt lat="44.4950683" lon="9.3459967"><ele>810.0</ele><time>2026-04-06T14:22:21.598Z</time></trkpt><trkpt lat="44.495135" lon="9.3461883"><ele>810.75</ele><time>2026-04-06T14:22:22.599Z</time></trkpt><trkpt lat="44.49519" lon="9.3463817"><ele>811.5</ele><time>2026-04-06T14:22:23.599Z</time></trkpt><trkpt lat="44.4952367" lon="9.3465567"><ele>812.25</ele><time>2026-04-06T14:22:24.599Z</time></trkpt><trkpt lat="44.4952833" lon="9.346705"><ele>813.0</ele><time>2026-04-06T14:22:25.598Z</time></trkpt><trkpt lat="44.495335" lon="9.3468317"><ele>813.0</ele><time>2026-04-06T14:22:26.599Z</time></trkpt><trkpt lat="44.49541" lon="9.3469233"><ele>813.0</ele><time>2026-04-06T14:22:27.599Z</time></trkpt><trkpt lat="44.4955217" lon="9.3469633"><ele>813.0</ele><time>2026-04-06T14:22:28.599Z</time></trkpt><trkpt lat="44.4956633" lon="9.3469683"><ele>813.0</ele><time>2026-04-06T14:22:29.6Z</time></trkpt><trkpt lat="44.4958083" lon="9.3469833"><ele>812.75</ele><time>2026-04-06T14:22:30.599Z</time></trkpt><trkpt lat="44.4959483" lon="9.34703"><ele>812.5</ele><time>2026-04-06T14:22:31.599Z</time></trkpt><trkpt lat="44.496085" lon="9.3471033"><ele>812.25</ele><time>2026-04-06T14:22:32.599Z</time></trkpt><trkpt lat="44.49621" lon="9.347215"><ele>812.0</ele><time>2026-04-06T14:22:33.599Z</time></trkpt><trkpt lat="44.49631" lon="9.3473633"><ele>811.3333333333334</ele><time>2026-04-06T14:22:34.598Z</time></trkpt><trkpt lat="44.4963983" lon="9.34754"><ele>810.6666666666667</ele><time>2026-04-06T14:22:35.598Z</time></trkpt><trkpt lat="44.4964533" lon="9.3477517"><ele>810.0</ele><time>2026-04-06T14:22:36.6Z</time></trkpt><trkpt lat="44.4964933" lon="9.3479883"><ele>812.0</ele><time>2026-04-06T14:22:37.599Z</time></trkpt><trkpt lat="44.4965383" lon="9.34824"><ele>814.0</ele><time>2026-04-06T14:22:38.599Z</time></trkpt><trkpt lat="44.496585" lon="9.3484883"><ele>816.0</ele><time>2026-04-06T14:22:39.601Z</time></trkpt><trkpt lat="44.496635" lon="9.3487233"><ele>817.6666666666667</ele><time>2026-04-06T14:22:40.599Z</time></trkpt><trkpt lat="44.4966833" lon="9.3489433"><ele>819.3333333333334</ele><time>2026-04-06T14:22:41.6Z</time></trkpt><trkpt lat="44.4967267" lon="9.349145"><ele>821.0</ele><time>2026-04-06T14:22:42.598Z</time></trkpt><trkpt lat="44.4967667" lon="9.3493333"><ele>821.0</ele><time>2026-04-06T14:22:43.599Z</time></trkpt><trkpt lat="44.496805" lon="9.3495083"><ele>821.0</ele><time>2026-04-06T14:22:44.599Z</time></trkpt><trkpt lat="44.4968533" lon="9.3496733"><ele>821.0</ele><time>2026-04-06T14:22:45.599Z</time></trkpt><trkpt lat="44.4969233" lon="9.349835"><ele>821.0</ele><time>2026-04-06T14:22:46.599Z</time></trkpt><trkpt lat="44.497015" lon="9.3499833"><ele>817.6666666666667</ele><time>2026-04-06T14:22:47.599Z</time></trkpt><trkpt lat="44.497135" lon="9.3501133"><ele>814.3333333333333</ele><time>2026-04-06T14:22:48.599Z</time></trkpt><trkpt lat="44.49727" lon="9.350245"><ele>811.0</ele><time>2026-04-06T14:22:49.599Z</time></trkpt><trkpt lat="44.4974167" lon="9.3503967"><ele>815.3333333333333</ele><time>2026-04-06T14:22:50.6Z</time></trkpt><trkpt lat="44.4975633" lon="9.35056"><ele>819.6666666666667</ele><time>2026-04-06T14:22:51.598Z</time></trkpt><trkpt lat="44.497705" lon="9.350715"><ele>824.0</ele><time>2026-04-06T14:22:52.6Z</time></trkpt><trkpt lat="44.49784" lon="9.3508667"><ele>819.0</ele><time>2026-04-06T14:22:53.599Z</time></trkpt><trkpt lat="44.4979683" lon="9.3510117"><ele>814.0</ele><time>2026-04-06T14:22:54.598Z</time></trkpt><trkpt lat="44.4980817" lon="9.3511583"><ele>809.0</ele><time>2026-04-06T14:22:55.599Z</time></trkpt><trkpt lat="44.49818" lon="9.3513083"><ele>811.25</ele><time>2026-04-06T14:22:56.6Z</time></trkpt><trkpt lat="44.4982667" lon="9.3514533"><ele>813.5</ele><time>2026-04-06T14:22:57.599Z</time></trkpt><trkpt lat="44.4983517" lon="9.351575"><ele>815.75</ele><time>2026-04-06T14:22:58.599Z</time></trkpt><trkpt lat="44.4984533" lon="9.3516583"><ele>818.0</ele><time>2026-04-06T14:22:59.599Z</time></trkpt><trkpt lat="44.4985733" lon="9.35168"><ele>818.0</ele><time>2026-04-06T14:23:00.599Z</time></trkpt><trkpt lat="44.4987083" lon="9.3516417"><ele>818.0</ele><time>2026-04-06T14:23:01.599Z</time></trkpt><trkpt lat="44.498855" lon="9.3515617"><ele>818.0</ele><time>2026-04-06T14:23:02.599Z</time></trkpt><trkpt lat="44.4990167" lon="9.3514533"><ele>813.6666666666667</ele><time>2026-04-06T14:23:03.6Z</time></trkpt><trkpt lat="44.4991817" lon="9.3513183"><ele>809.3333333333333</ele><time>2026-04-06T14:23:04.599Z</time></trkpt><trkpt lat="44.4993467" lon="9.3511817"><ele>805.0</ele><time>2026-04-06T14:23:05.599Z</time></trkpt><trkpt lat="44.4995017" lon="9.3510533"><ele>807.3333333333333</ele><time>2026-04-06T14:23:06.6Z</time></trkpt><trkpt lat="44.4996483" lon="9.3509433"><ele>809.6666666666667</ele><time>2026-04-06T14:23:07.599Z</time></trkpt><trkpt lat="44.4997883" lon="9.3508417"><ele>812.0</ele><time>2026-04-06T14:23:08.599Z</time></trkpt><trkpt lat="44.4999183" lon="9.35075"><ele>812.0</ele><time>2026-04-06T14:23:09.598Z</time></trkpt><trkpt lat="44.5000417" lon="9.35067"><ele>812.0</ele><time>2026-04-06T14:23:10.599Z</time></trkpt><trkpt lat="44.5001667" lon="9.3506117"><ele>812.0</ele><time>2026-04-06T14:23:11.599Z</time></trkpt><trkpt lat="44.5003067" lon="9.35059"><ele>812.0</ele><time>2026-04-06T14:23:12.601Z</time></trkpt><trkpt lat="44.5004567" lon="9.35059"><ele>812.0</ele><time>2026-04-06T14:23:13.598Z</time></trkpt><trkpt lat="44.5006033" lon="9.3505983"><ele>812.0</ele><time>2026-04-06T14:23:14.598Z</time></trkpt><trkpt lat="44.5007383" lon="9.3506017"><ele>812.0</ele><time>2026-04-06T14:23:15.601Z</time></trkpt><trkpt lat="44.500865" lon="9.35062"><ele>812.0</ele><time>2026-04-06T14:23:16.598Z</time></trkpt><trkpt lat="44.5009733" lon="9.3506667"><ele>812.0</ele><time>2026-04-06T14:23:17.598Z</time></trkpt><trkpt lat="44.501055" lon="9.3507517"><ele>812.0</ele><time>2026-04-06T14:23:18.599Z</time></trkpt><trkpt lat="44.501125" lon="9.3508717"><ele>812.0</ele><time>2026-04-06T14:23:19.6Z</time></trkpt><trkpt lat="44.5011833" lon="9.35102"><ele>812.0</ele><time>2026-04-06T14:23:20.599Z</time></trkpt><trkpt lat="44.50125" lon="9.3511817"><ele>812.25</ele><time>2026-04-06T14:23:21.599Z</time></trkpt><trkpt lat="44.5013267" lon="9.35134"><ele>812.5</ele><time>2026-04-06T14:23:22.6Z</time></trkpt><trkpt lat="44.5014" lon="9.3514833"><ele>812.75</ele><time>2026-04-06T14:23:23.599Z</time></trkpt><trkpt lat="44.5014733" lon="9.35162"><ele>813.0</ele><time>2026-04-06T14:23:24.6Z</time></trkpt><trkpt lat="44.5015583" lon="9.3517583"><ele>813.0</ele><time>2026-04-06T14:23:25.599Z</time></trkpt><trkpt lat="44.501645" lon="9.3518967"><ele>813.0</ele><time>2026-04-06T14:23:26.599Z</time></trkpt><trkpt lat="44.5017383" lon="9.35203"><ele>813.0</ele><time>2026-04-06T14:23:27.599Z</time></trkpt><trkpt lat="44.5018433" lon="9.352155"><ele>813.0</ele><time>2026-04-06T14:23:28.6Z</time></trkpt><trkpt lat="44.50197" lon="9.3522633"><ele>813.6666666666667</ele><time>2026-04-06T14:23:29.599Z</time></trkpt><trkpt lat="44.502115" lon="9.3523583"><ele>814.3333333333334</ele><time>2026-04-06T14:23:30.599Z</time></trkpt><trkpt lat="44.502285" lon="9.3524417"><ele>815.0</ele><time>2026-04-06T14:23:31.598Z</time></trkpt><trkpt lat="44.5024817" lon="9.3525283"><ele>815.0</ele><time>2026-04-06T14:23:32.599Z</time></trkpt><trkpt lat="44.5026863" lon="9.3526262"><ele>815.0</ele><time>2026-04-06T14:23:33.598Z</time></trkpt><trkpt lat="44.5029021" lon="9.3527325"><ele>815.0</ele><time>2026-04-06T14:23:34.599Z</time></trkpt><trkpt lat="44.5031225" lon="9.3528365"><ele>812.6666666666667</ele><time>2026-04-06T14:23:35.598Z</time></trkpt><trkpt lat="44.5033377" lon="9.3529331"><ele>810.3333333333333</ele><time>2026-04-06T14:23:36.599Z</time></trkpt><trkpt lat="44.5035471" lon="9.3530291"><ele>808.0</ele><time>2026-04-06T14:23:37.598Z</time></trkpt><trkpt lat="44.5037457" lon="9.353124"><ele>808.6666666666666</ele><time>2026-04-06T14:23:38.601Z</time></trkpt><trkpt lat="44.5039353" lon="9.3532154"><ele>809.3333333333333</ele><time>2026-04-06T14:23:39.6Z</time></trkpt><trkpt lat="44.504117" lon="9.3533049"><ele>810.0</ele><time>2026-04-06T14:23:40.6Z</time></trkpt><trkpt lat="44.5042945" lon="9.3533915"><ele>810.0</ele><time>2026-04-06T14:23:41.6Z</time></trkpt><trkpt lat="44.504468" lon="9.3534765"><ele>810.0</ele><time>2026-04-06T14:23:42.6Z</time></trkpt><trkpt lat="44.5046389" lon="9.3535717"><ele>810.0</ele><time>2026-04-06T14:23:43.6Z</time></trkpt><trkpt lat="44.5048038" lon="9.3536776"><ele>810.0</ele><time>2026-04-06T14:23:44.6Z</time></trkpt><trkpt lat="44.504962" lon="9.3537876"><ele>810.0</ele><time>2026-04-06T14:23:45.6Z</time></trkpt><trkpt lat="44.5051164" lon="9.3538895"><ele>810.0</ele><time>2026-04-06T14:23:46.599Z</time></trkpt><trkpt lat="44.5052734" lon="9.3539715"><ele>810.6666666666667</ele><time>2026-04-06T14:23:47.6Z</time></trkpt><trkpt lat="44.505432" lon="9.3540281"><ele>811.3333333333334</ele><time>2026-04-06T14:23:48.599Z</time></trkpt><trkpt lat="44.5055892" lon="9.3540706"><ele>812.0</ele><time>2026-04-06T14:23:49.6Z</time></trkpt><trkpt lat="44.5057361" lon="9.3541188"><ele>812.0</ele><time>2026-04-06T14:23:50.6Z</time></trkpt><trkpt lat="44.50586" lon="9.3541907"><ele>812.0</ele><time>2026-04-06T14:23:51.6Z</time></trkpt><trkpt lat="44.5059528" lon="9.3543067"><ele>812.0</ele><time>2026-04-06T14:23:52.601Z</time></trkpt><trkpt lat="44.5060221" lon="9.3544706"><ele>812.0</ele><time>2026-04-06T14:23:53.6Z</time></trkpt><trkpt lat="44.5060943" lon="9.3546507"><ele>812.5</ele><time>2026-04-06T14:23:54.599Z</time></trkpt><trkpt lat="44.506178" lon="9.3548137"><ele>813.0</ele><time>2026-04-06T14:23:55.601Z</time></trkpt><trkpt lat="44.5062644" lon="9.3549603"><ele>813.5</ele><time>2026-04-06T14:23:56.6Z</time></trkpt><trkpt lat="44.5063556" lon="9.3550815"><ele>814.0</ele><time>2026-04-06T14:23:57.6Z</time></trkpt><trkpt lat="44.506461" lon="9.3551714"><ele>814.0</ele><time>2026-04-06T14:23:58.6Z</time></trkpt><trkpt lat="44.5065832" lon="9.3552325"><ele>814.0</ele><time>2026-04-06T14:23:59.6Z</time></trkpt><trkpt lat="44.5067333" lon="9.3552636"><ele>814.0</ele><time>2026-04-06T14:24:00.6Z</time></trkpt><trkpt lat="44.5068965" lon="9.3552772"><ele>814.0</ele><time>2026-04-06T14:24:01.599Z</time></trkpt><trkpt lat="44.5070589" lon="9.3552813"><ele>813.3333333333333</ele><time>2026-04-06T14:24:02.6Z</time></trkpt><trkpt lat="44.5072298" lon="9.3552675"><ele>812.6666666666667</ele><time>2026-04-06T14:24:03.599Z</time></trkpt><trkpt lat="44.5074053" lon="9.3552223"><ele>812.0</ele><time>2026-04-06T14:24:04.599Z</time></trkpt><trkpt lat="44.5075748" lon="9.3551514"><ele>812.0</ele><time>2026-04-06T14:24:05.6Z</time></trkpt><trkpt lat="44.5077336" lon="9.3550623"><ele>812.0</ele><time>2026-04-06T14:24:06.6Z</time></trkpt><trkpt lat="44.5078822" lon="9.3549598"><ele>812.0</ele><time>2026-04-06T14:24:07.6Z</time></trkpt><trkpt lat="44.5080212" lon="9.3548488"><ele>811.25</ele><time>2026-04-06T14:24:08.599Z</time></trkpt><trkpt lat="44.5081496" lon="9.3547303"><ele>810.5</ele><time>2026-04-06T14:24:09.598Z</time></trkpt><trkpt lat="44.5082654" lon="9.3546075"><ele>809.75</ele><time>2026-04-06T14:24:10.6Z</time></trkpt><trkpt lat="44.5083751" lon="9.3544904"><ele>809.0</ele><time>2026-04-06T14:24:11.598Z</time></trkpt><trkpt lat="44.5084843" lon="9.3543866"><ele>809.0</ele><time>2026-04-06T14:24:12.599Z</time></trkpt><trkpt lat="44.5085961" lon="9.3542982"><ele>809.0</ele><time>2026-04-06T14:24:13.599Z</time></trkpt><trkpt lat="44.5087177" lon="9.3542417"><ele>809.0</ele><time>2026-04-06T14:24:14.598Z</time></trkpt><trkpt lat="44.5088553" lon="9.3542247"><ele>809.0</ele><time>2026-04-06T14:24:15.599Z</time></trkpt><trkpt lat="44.5090025" lon="9.3542323"><ele>808.0</ele><time>2026-04-06T14:24:16.599Z</time></trkpt><trkpt lat="44.5091523" lon="9.3542546"><ele>807.0</ele><time>2026-04-06T14:24:17.6Z</time></trkpt><trkpt lat="44.509302" lon="9.3542815"><ele>806.0</ele><time>2026-04-06T14:24:18.599Z</time></trkpt><trkpt lat="44.5094445" lon="9.3543022"><ele>805.0</ele><time>2026-04-06T14:24:19.599Z</time></trkpt><trkpt lat="44.5095754" lon="9.3543221"><ele>802.8</ele><time>2026-04-06T14:24:20.599Z</time></trkpt><trkpt lat="44.5096926" lon="9.3543462"><ele>800.6</ele><time>2026-04-06T14:24:21.598Z</time></trkpt><trkpt lat="44.5097998" lon="9.354374"><ele>798.4000000000001</ele><time>2026-04-06T14:24:22.6Z</time></trkpt><trkpt lat="44.5098915" lon="9.354421"><ele>796.2</ele><time>2026-04-06T14:24:23.6Z</time></trkpt><trkpt lat="44.5099666" lon="9.3544994"><ele>794.0</ele><time>2026-04-06T14:24:24.599Z</time></trkpt><trkpt lat="44.5100298" lon="9.3546141"><ele>796.75</ele><time>2026-04-06T14:24:25.6Z</time></trkpt><trkpt lat="44.5100827" lon="9.3547644"><ele>799.5</ele><time>2026-04-06T14:24:26.6Z</time></trkpt><trkpt lat="44.5101377" lon="9.3549345"><ele>802.25</ele><time>2026-04-06T14:24:27.599Z</time></trkpt><trkpt lat="44.5101918" lon="9.3551041"><ele>805.0</ele><time>2026-04-06T14:24:28.599Z</time></trkpt><trkpt lat="44.5102522" lon="9.3552566"><ele>805.0</ele><time>2026-04-06T14:24:29.598Z</time></trkpt><trkpt lat="44.5103276" lon="9.3553818"><ele>805.0</ele><time>2026-04-06T14:24:30.599Z</time></trkpt><trkpt lat="44.510425" lon="9.3554726"><ele>805.0</ele><time>2026-04-06T14:24:31.599Z</time></trkpt><trkpt lat="44.5105375" lon="9.3555342"><ele>805.0</ele><time>2026-04-06T14:24:32.598Z</time></trkpt><trkpt lat="44.5106702" lon="9.3555728"><ele>804.25</ele><time>2026-04-06T14:24:33.599Z</time></trkpt><trkpt lat="44.5108071" lon="9.3556064"><ele>803.5</ele><time>2026-04-06T14:24:34.6Z</time></trkpt><trkpt lat="44.5109445" lon="9.355643"><ele>802.75</ele><time>2026-04-06T14:24:35.6Z</time></trkpt><trkpt lat="44.5110799" lon="9.3556838"><ele>802.0</ele><time>2026-04-06T14:24:36.599Z</time></trkpt><trkpt lat="44.5112084" lon="9.3557267"><ele>795.0</ele><time>2026-04-06T14:24:37.6Z</time></trkpt><trkpt lat="44.5113252" lon="9.3557874"><ele>788.0</ele><time>2026-04-06T14:24:38.6Z</time></trkpt><trkpt lat="44.5114307" lon="9.3558904"><ele>781.0</ele><time>2026-04-06T14:24:39.599Z</time></trkpt><trkpt lat="44.5115238" lon="9.356039"><ele>774.0</ele><time>2026-04-06T14:24:40.6Z</time></trkpt><trkpt lat="44.511614" lon="9.3562063"><ele>777.0</ele><time>2026-04-06T14:24:41.6Z</time></trkpt><trkpt lat="44.5117002" lon="9.3563742"><ele>780.0</ele><time>2026-04-06T14:24:42.598Z</time></trkpt><trkpt lat="44.5117856" lon="9.3565345"><ele>783.0</ele><time>2026-04-06T14:24:43.599Z</time></trkpt><trkpt lat="44.5118694" lon="9.3566934"><ele>786.0</ele><time>2026-04-06T14:24:44.598Z</time></trkpt><trkpt lat="44.5119338" lon="9.3568601"><ele>786.0</ele><time>2026-04-06T14:24:45.597Z</time></trkpt><trkpt lat="44.5119701" lon="9.3570411"><ele>786.0</ele><time>2026-04-06T14:24:46.599Z</time></trkpt><trkpt lat="44.5119805" lon="9.3572363"><ele>786.0</ele><time>2026-04-06T14:24:47.597Z</time></trkpt><trkpt lat="44.5119714" lon="9.3574307"><ele>786.0</ele><time>2026-04-06T14:24:48.598Z</time></trkpt><trkpt lat="44.5119586" lon="9.3576211"><ele>786.0</ele><time>2026-04-06T14:24:49.598Z</time></trkpt><trkpt lat="44.5119399" lon="9.3578048"><ele>786.0</ele><time>2026-04-06T14:24:50.599Z</time></trkpt><trkpt lat="44.5119243" lon="9.3579837"><ele>786.0</ele><time>2026-04-06T14:24:51.598Z</time></trkpt><trkpt lat="44.5119004" lon="9.3581525"><ele>786.0</ele><time>2026-04-06T14:24:52.598Z</time></trkpt><trkpt lat="44.5118575" lon="9.3583172"><ele>785.75</ele><time>2026-04-06T14:24:53.597Z</time></trkpt><trkpt lat="44.5118063" lon="9.3584827"><ele>785.5</ele><time>2026-04-06T14:24:54.597Z</time></trkpt><trkpt lat="44.5117595" lon="9.3586586"><ele>785.25</ele><time>2026-04-06T14:24:55.598Z</time></trkpt><trkpt lat="44.511732" lon="9.3588461"><ele>785.0</ele><time>2026-04-06T14:24:56.599Z</time></trkpt><trkpt lat="44.5117301" lon="9.3590352"><ele>782.25</ele><time>2026-04-06T14:24:57.598Z</time></trkpt><trkpt lat="44.5117265" lon="9.359219"><ele>779.5</ele><time>2026-04-06T14:24:58.599Z</time></trkpt><trkpt lat="44.5117083" lon="9.359393"><ele>776.75</ele><time>2026-04-06T14:24:59.598Z</time></trkpt><trkpt lat="44.5116747" lon="9.3595549"><ele>774.0</ele><time>2026-04-06T14:25:00.598Z</time></trkpt><trkpt lat="44.51163" lon="9.3597069"><ele>772.4000000000001</ele><time>2026-04-06T14:25:01.599Z</time></trkpt><trkpt lat="44.5115753" lon="9.3598473"><ele>770.8</ele><time>2026-04-06T14:25:02.599Z</time></trkpt><trkpt lat="44.511525" lon="9.3599845"><ele>769.2</ele><time>2026-04-06T14:25:03.598Z</time></trkpt><trkpt lat="44.5114796" lon="9.36012"><ele>767.5999999999999</ele><time>2026-04-06T14:25:04.598Z</time></trkpt><trkpt lat="44.5114611" lon="9.3602514"><ele>766.0</ele><time>2026-04-06T14:25:05.597Z</time></trkpt><trkpt lat="44.5114675" lon="9.360373"><ele>766.0</ele><time>2026-04-06T14:25:06.598Z</time></trkpt><trkpt lat="44.5115102" lon="9.3604766"><ele>766.0</ele><time>2026-04-06T14:25:07.598Z</time></trkpt><trkpt lat="44.5115697" lon="9.3605523"><ele>766.0</ele><time>2026-04-06T14:25:08.598Z</time></trkpt><trkpt lat="44.5116495" lon="9.3606133"><ele>766.0</ele><time>2026-04-06T14:25:09.598Z</time></trkpt><trkpt lat="44.511736" lon="9.3606789"><ele>766.0</ele><time>2026-04-06T14:25:10.598Z</time></trkpt><trkpt lat="44.5118214" lon="9.360764"><ele>768.25</ele><time>2026-04-06T14:25:11.599Z</time></trkpt><trkpt lat="44.511884" lon="9.3608835"><ele>770.5</ele><time>2026-04-06T14:25:12.598Z</time></trkpt><trkpt lat="44.5119241" lon="9.361032"><ele>772.75</ele><time>2026-04-06T14:25:13.598Z</time></trkpt><trkpt lat="44.5119486" lon="9.3611954"><ele>775.0</ele><time>2026-04-06T14:25:14.598Z</time></trkpt><trkpt lat="44.5119609" lon="9.3613652"><ele>778.0</ele><time>2026-04-06T14:25:15.598Z</time></trkpt><trkpt lat="44.5119593" lon="9.3615367"><ele>781.0</ele><time>2026-04-06T14:25:16.598Z</time></trkpt><trkpt lat="44.5119683" lon="9.3617047"><ele>784.0</ele><time>2026-04-06T14:25:17.599Z</time></trkpt><trkpt lat="44.5119929" lon="9.3618633"><ele>787.0</ele><time>2026-04-06T14:25:18.597Z</time></trkpt><trkpt lat="44.5120319" lon="9.362014"><ele>787.0</ele><time>2026-04-06T14:25:19.597Z</time></trkpt><trkpt lat="44.5120719" lon="9.3621673"><ele>787.0</ele><time>2026-04-06T14:25:20.597Z</time></trkpt><trkpt lat="44.5120878" lon="9.3623308"><ele>787.0</ele><time>2026-04-06T14:25:21.598Z</time></trkpt><trkpt lat="44.5120698" lon="9.3625048"><ele>787.0</ele><time>2026-04-06T14:25:22.598Z</time></trkpt><trkpt lat="44.5120249" lon="9.362685"><ele>784.25</ele><time>2026-04-06T14:25:23.598Z</time></trkpt><trkpt lat="44.5119759" lon="9.3628658"><ele>781.5</ele><time>2026-04-06T14:25:24.597Z</time></trkpt><trkpt lat="44.5119255" lon="9.3630404"><ele>778.75</ele><time>2026-04-06T14:25:25.598Z</time></trkpt><trkpt lat="44.5118843" lon="9.3632015"><ele>776.0</ele><time>2026-04-06T14:25:26.602Z</time></trkpt><trkpt lat="44.5118625" lon="9.3633528"><ele>776.5999999999999</ele><time>2026-04-06T14:25:27.597Z</time></trkpt><trkpt lat="44.5118796" lon="9.3634953"><ele>777.2</ele><time>2026-04-06T14:25:28.599Z</time></trkpt><trkpt lat="44.5119314" lon="9.3636265"><ele>777.8</ele><time>2026-04-06T14:25:29.597Z</time></trkpt><trkpt lat="44.5119969" lon="9.3637512"><ele>778.4000000000001</ele><time>2026-04-06T14:25:30.597Z</time></trkpt><trkpt lat="44.51207" lon="9.3638929"><ele>779.0</ele><time>2026-04-06T14:25:31.597Z</time></trkpt><trkpt lat="44.5121355" lon="9.3640554"><ele>768.75</ele><time>2026-04-06T14:25:32.598Z</time></trkpt><trkpt lat="44.5121775" lon="9.3642348"><ele>758.5</ele><time>2026-04-06T14:25:33.598Z</time></trkpt><trkpt lat="44.5122031" lon="9.3644179"><ele>748.25</ele><time>2026-04-06T14:25:34.598Z</time></trkpt><trkpt lat="44.5122138" lon="9.3646"><ele>738.0</ele><time>2026-04-06T14:25:35.598Z</time></trkpt><trkpt lat="44.5121997" lon="9.3647764"><ele>737.5</ele><time>2026-04-06T14:25:36.598Z</time></trkpt><trkpt lat="44.5121802" lon="9.3649471"><ele>737.0</ele><time>2026-04-06T14:25:37.598Z</time></trkpt><trkpt lat="44.512169" lon="9.3651193"><ele>736.5</ele><time>2026-04-06T14:25:38.599Z</time></trkpt><trkpt lat="44.512183" lon="9.3652966"><ele>736.0</ele><time>2026-04-06T14:25:39.598Z</time></trkpt><trkpt lat="44.5122315" lon="9.3654809"><ele>739.0</ele><time>2026-04-06T14:25:40.598Z</time></trkpt><trkpt lat="44.5123044" lon="9.3656694"><ele>742.0</ele><time>2026-04-06T14:25:41.599Z</time></trkpt><trkpt lat="44.5123872" lon="9.365854"><ele>745.0</ele><time>2026-04-06T14:25:42.597Z</time></trkpt><trkpt lat="44.5124731" lon="9.3660248"><ele>745.0</ele><time>2026-04-06T14:25:43.597Z</time></trkpt><trkpt lat="44.5125625" lon="9.3661813"><ele>745.0</ele><time>2026-04-06T14:25:44.598Z</time></trkpt><trkpt lat="44.5126595" lon="9.3663322"><ele>745.0</ele><time>2026-04-06T14:25:45.598Z</time></trkpt><trkpt lat="44.5127594" lon="9.3664784"><ele>745.0</ele><time>2026-04-06T14:25:46.598Z</time></trkpt><trkpt lat="44.5128544" lon="9.3666265"><ele>744.75</ele><time>2026-04-06T14:25:47.601Z</time></trkpt><trkpt lat="44.5129339" lon="9.3667773"><ele>744.5</ele><time>2026-04-06T14:25:48.598Z</time></trkpt><trkpt lat="44.5129998" lon="9.3669309"><ele>744.25</ele><time>2026-04-06T14:25:49.597Z</time></trkpt><trkpt lat="44.5130482" lon="9.3670902"><ele>744.0</ele><time>2026-04-06T14:25:50.599Z</time></trkpt><trkpt lat="44.5130929" lon="9.3672474"><ele>744.0</ele><time>2026-04-06T14:25:51.598Z</time></trkpt><trkpt lat="44.5131554" lon="9.367392"><ele>744.0</ele><time>2026-04-06T14:25:52.598Z</time></trkpt><trkpt lat="44.5132551" lon="9.3675183"><ele>744.0</ele><time>2026-04-06T14:25:53.597Z</time></trkpt><trkpt lat="44.5133998" lon="9.3676442"><ele>744.0</ele><time>2026-04-06T14:25:54.598Z</time></trkpt><trkpt lat="44.5135732" lon="9.3677829"><ele>742.0</ele><time>2026-04-06T14:25:55.599Z</time></trkpt><trkpt lat="44.5137733" lon="9.367962"><ele>740.0</ele><time>2026-04-06T14:25:56.598Z</time></trkpt><trkpt lat="44.5139731" lon="9.3681523"><ele>740.0</ele><time>2026-04-06T14:25:57.598Z</time></trkpt><trkpt lat="44.5141574" lon="9.3683317"><ele>740.0</ele><time>2026-04-06T14:25:58.598Z</time></trkpt><trkpt lat="44.5143333" lon="9.3684983"><ele>740.0</ele><time>2026-04-06T14:25:59.599Z</time></trkpt><trkpt lat="44.5145017" lon="9.3686567"><ele>737.6666666666666</ele><time>2026-04-06T14:26:00.598Z</time></trkpt><trkpt lat="44.5146567" lon="9.3688017"><ele>735.3333333333334</ele><time>2026-04-06T14:26:01.599Z</time></trkpt><trkpt lat="44.5148" lon="9.368945"><ele>733.0</ele><time>2026-04-06T14:26:02.599Z</time></trkpt><trkpt lat="44.5149283" lon="9.3691117"><ele>733.0</ele><time>2026-04-06T14:26:03.598Z</time></trkpt><trkpt lat="44.5150567" lon="9.369305"><ele>733.0</ele><time>2026-04-06T14:26:04.599Z</time></trkpt><trkpt lat="44.515185" lon="9.3695317"><ele>733.0</ele><time>2026-04-06T14:26:05.599Z</time></trkpt><trkpt lat="44.51531" lon="9.36978"><ele>728.6666666666667</ele><time>2026-04-06T14:26:06.598Z</time></trkpt><trkpt lat="44.5154317" lon="9.37003"><ele>724.3333333333334</ele><time>2026-04-06T14:26:07.599Z</time></trkpt><trkpt lat="44.515545" lon="9.3702733"><ele>720.0</ele><time>2026-04-06T14:26:08.599Z</time></trkpt><trkpt lat="44.5156483" lon="9.3705133"><ele>723.6666666666666</ele><time>2026-04-06T14:26:09.599Z</time></trkpt><trkpt lat="44.5157517" lon="9.3707417"><ele>727.3333333333333</ele><time>2026-04-06T14:26:10.598Z</time></trkpt><trkpt lat="44.5158567" lon="9.3709583"><ele>731.0</ele><time>2026-04-06T14:26:11.597Z</time></trkpt><trkpt lat="44.51597" lon="9.37116"><ele>731.0</ele><time>2026-04-06T14:26:12.598Z</time></trkpt><trkpt lat="44.5160883" lon="9.3713433"><ele>731.0</ele><time>2026-04-06T14:26:13.6Z</time></trkpt><trkpt lat="44.516215" lon="9.3715083"><ele>731.0</ele><time>2026-04-06T14:26:14.6Z</time></trkpt><trkpt lat="44.516355" lon="9.37165"><ele>727.6666666666666</ele><time>2026-04-06T14:26:15.597Z</time></trkpt><trkpt lat="44.51651" lon="9.37176"><ele>724.3333333333334</ele><time>2026-04-06T14:26:16.598Z</time></trkpt><trkpt lat="44.5166883" lon="9.37183"><ele>721.0</ele><time>2026-04-06T14:26:17.597Z</time></trkpt><trkpt lat="44.516885" lon="9.37187"><ele>720.0</ele><time>2026-04-06T14:26:18.598Z</time></trkpt><trkpt lat="44.5170883" lon="9.371905"><ele>719.0</ele><time>2026-04-06T14:26:19.599Z</time></trkpt><trkpt lat="44.5172983" lon="9.371945"><ele>718.0</ele><time>2026-04-06T14:26:20.598Z</time></trkpt><trkpt lat="44.5175017" lon="9.371985"><ele>718.0</ele><time>2026-04-06T14:26:21.599Z</time></trkpt><trkpt lat="44.5176967" lon="9.3720233"><ele>718.0</ele><time>2026-04-06T14:26:22.598Z</time></trkpt><trkpt lat="44.5178833" lon="9.37206"><ele>718.0</ele><time>2026-04-06T14:26:23.598Z</time></trkpt><trkpt lat="44.5180617" lon="9.3720933"><ele>717.0</ele><time>2026-04-06T14:26:24.598Z</time></trkpt><trkpt lat="44.5182367" lon="9.3721233"><ele>716.0</ele><time>2026-04-06T14:26:25.601Z</time></trkpt><trkpt lat="44.518405" lon="9.3721517"><ele>715.0</ele><time>2026-04-06T14:26:26.599Z</time></trkpt><trkpt lat="44.51857" lon="9.37219"><ele>715.0</ele><time>2026-04-06T14:26:27.599Z</time></trkpt><trkpt lat="44.518725" lon="9.372255"><ele>715.0</ele><time>2026-04-06T14:26:28.598Z</time></trkpt><trkpt lat="44.51886" lon="9.372375"><ele>715.0</ele><time>2026-04-06T14:26:29.599Z</time></trkpt><trkpt lat="44.5189783" lon="9.372545"><ele>716.0</ele><time>2026-04-06T14:26:30.599Z</time></trkpt><trkpt lat="44.519085" lon="9.3727533"><ele>717.0</ele><time>2026-04-06T14:26:31.599Z</time></trkpt><trkpt lat="44.5191867" lon="9.3729617"><ele>718.0</ele><time>2026-04-06T14:26:32.598Z</time></trkpt><trkpt lat="44.5193033" lon="9.373155"><ele>718.0</ele><time>2026-04-06T14:26:33.6Z</time></trkpt><trkpt lat="44.519445" lon="9.37333"><ele>718.0</ele><time>2026-04-06T14:26:34.599Z</time></trkpt><trkpt lat="44.51961" lon="9.3734867"><ele>718.0</ele><time>2026-04-06T14:26:35.598Z</time></trkpt><trkpt lat="44.5197833" lon="9.373645"><ele>719.6666666666667</ele><time>2026-04-06T14:26:36.599Z</time></trkpt><trkpt lat="44.5199483" lon="9.37381"><ele>721.3333333333334</ele><time>2026-04-06T14:26:37.599Z</time></trkpt><trkpt lat="44.5200933" lon="9.3739833"><ele>723.0</ele><time>2026-04-06T14:26:38.598Z</time></trkpt><trkpt lat="44.5202117" lon="9.374165"><ele>723.0</ele><time>2026-04-06T14:26:39.599Z</time></trkpt><trkpt lat="44.5203017" lon="9.374345"><ele>723.0</ele><time>2026-04-06T14:26:40.603Z</time></trkpt><trkpt lat="44.5203633" lon="9.374525"><ele>723.0</ele><time>2026-04-06T14:26:41.599Z</time></trkpt><trkpt lat="44.5203933" lon="9.3747167"><ele>723.0</ele><time>2026-04-06T14:26:42.6Z</time></trkpt><trkpt lat="44.5203917" lon="9.3749117"><ele>720.75</ele><time>2026-04-06T14:26:43.599Z</time></trkpt><trkpt lat="44.5203567" lon="9.3750917"><ele>718.5</ele><time>2026-04-06T14:26:44.6Z</time></trkpt><trkpt lat="44.5202933" lon="9.3752467"><ele>716.25</ele><time>2026-04-06T14:26:45.599Z</time></trkpt><trkpt lat="44.520225" lon="9.3753933"><ele>714.0</ele><time>2026-04-06T14:26:46.598Z</time></trkpt><trkpt lat="44.5201883" lon="9.375545"><ele>713.4000000000001</ele><time>2026-04-06T14:26:47.6Z</time></trkpt><trkpt lat="44.5201883" lon="9.375695"><ele>712.8</ele><time>2026-04-06T14:26:48.598Z</time></trkpt><trkpt lat="44.5202333" lon="9.3758283"><ele>712.2</ele><time>2026-04-06T14:26:49.599Z</time></trkpt><trkpt lat="44.5203233" lon="9.3759317"><ele>711.5999999999999</ele><time>2026-04-06T14:26:50.597Z</time></trkpt><trkpt lat="44.520435" lon="9.375985"><ele>711.0</ele><time>2026-04-06T14:26:51.599Z</time></trkpt><trkpt lat="44.520545" lon="9.3760183"><ele>713.5</ele><time>2026-04-06T14:26:52.598Z</time></trkpt><trkpt lat="44.5206417" lon="9.3760467"><ele>716.0</ele><time>2026-04-06T14:26:53.598Z</time></trkpt><trkpt lat="44.5207233" lon="9.3760667"><ele>718.5</ele><time>2026-04-06T14:26:54.598Z</time></trkpt><trkpt lat="44.5207867" lon="9.3760833"><ele>721.0</ele><time>2026-04-06T14:26:55.598Z</time></trkpt><trkpt lat="44.5208633" lon="9.3761067"><ele>723.5</ele><time>2026-04-06T14:26:57.597Z</time></trkpt><trkpt lat="44.5209533" lon="9.3761383"><ele>726.0</ele><time>2026-04-06T14:27:00.598Z</time></trkpt><trkpt lat="44.52107" lon="9.376195"><ele>726.0</ele><time>2026-04-06T14:27:02.598Z</time></trkpt><trkpt lat="44.5211517" lon="9.3762317"><ele>726.0</ele><time>2026-04-06T14:27:03.597Z</time></trkpt><trkpt lat="44.5212483" lon="9.37627"><ele>726.0</ele><time>2026-04-06T14:27:04.598Z</time></trkpt><trkpt lat="44.5213667" lon="9.3763083"><ele>726.0</ele><time>2026-04-06T14:27:05.598Z</time></trkpt><trkpt lat="44.5215017" lon="9.376345"><ele>726.0</ele><time>2026-04-06T14:27:06.598Z</time></trkpt><trkpt lat="44.5216417" lon="9.3763867"><ele>722.3333333333334</ele><time>2026-04-06T14:27:07.598Z</time></trkpt><trkpt lat="44.52179" lon="9.376425"><ele>718.6666666666667</ele><time>2026-04-06T14:27:08.599Z</time></trkpt><trkpt lat="44.5219467" lon="9.3764633"><ele>715.0</ele><time>2026-04-06T14:27:09.599Z</time></trkpt><trkpt lat="44.5220983" lon="9.3765"><ele>715.0</ele><time>2026-04-06T14:27:10.598Z</time></trkpt><trkpt lat="44.5222483" lon="9.3765367"><ele>715.0</ele><time>2026-04-06T14:27:11.598Z</time></trkpt><trkpt lat="44.5224033" lon="9.37657"><ele>715.0</ele><time>2026-04-06T14:27:12.597Z</time></trkpt><trkpt lat="44.5225633" lon="9.37661"><ele>715.0</ele><time>2026-04-06T14:27:13.598Z</time></trkpt><trkpt lat="44.52272" lon="9.37666"><ele>715.0</ele><time>2026-04-06T14:27:14.598Z</time></trkpt><trkpt lat="44.5228783" lon="9.3767183"><ele>715.0</ele><time>2026-04-06T14:27:15.598Z</time></trkpt><trkpt lat="44.52303" lon="9.3767817"><ele>718.0</ele><time>2026-04-06T14:27:16.597Z</time></trkpt><trkpt lat="44.5231817" lon="9.3768517"><ele>721.0</ele><time>2026-04-06T14:27:17.598Z</time></trkpt><trkpt lat="44.5233317" lon="9.3769283"><ele>724.0</ele><time>2026-04-06T14:27:18.598Z</time></trkpt><trkpt lat="44.5234767" lon="9.3770167"><ele>724.0</ele><time>2026-04-06T14:27:19.598Z</time></trkpt><trkpt lat="44.5236167" lon="9.3771067"><ele>724.0</ele><time>2026-04-06T14:27:20.598Z</time></trkpt><trkpt lat="44.5237583" lon="9.37719"><ele>724.0</ele><time>2026-04-06T14:27:21.597Z</time></trkpt><trkpt lat="44.5238917" lon="9.3772767"><ele>720.75</ele><time>2026-04-06T14:27:22.598Z</time></trkpt><trkpt lat="44.5240183" lon="9.3773717"><ele>717.5</ele><time>2026-04-06T14:27:23.6Z</time></trkpt><trkpt lat="44.52414" lon="9.3774817"><ele>714.25</ele><time>2026-04-06T14:27:24.6Z</time></trkpt><trkpt lat="44.5242633" lon="9.3776033"><ele>711.0</ele><time>2026-04-06T14:27:25.598Z</time></trkpt><trkpt lat="44.52439" lon="9.377725"><ele>711.0</ele><time>2026-04-06T14:27:26.598Z</time></trkpt><trkpt lat="44.52452" lon="9.37784"><ele>711.0</ele><time>2026-04-06T14:27:27.598Z</time></trkpt><trkpt lat="44.5246517" lon="9.3779383"><ele>711.0</ele><time>2026-04-06T14:27:28.598Z</time></trkpt><trkpt lat="44.5247817" lon="9.3780317"><ele>711.0</ele><time>2026-04-06T14:27:29.597Z</time></trkpt><trkpt lat="44.5249033" lon="9.3781183"><ele>710.0</ele><time>2026-04-06T14:27:30.598Z</time></trkpt><trkpt lat="44.5250217" lon="9.3782067"><ele>709.0</ele><time>2026-04-06T14:27:31.597Z</time></trkpt><trkpt lat="44.525145" lon="9.3782967"><ele>708.0</ele><time>2026-04-06T14:27:32.599Z</time></trkpt><trkpt lat="44.5252617" lon="9.3783783"><ele>707.0</ele><time>2026-04-06T14:27:33.598Z</time></trkpt><trkpt lat="44.52537" lon="9.3784533"><ele>706.4000000000001</ele><time>2026-04-06T14:27:34.597Z</time></trkpt><trkpt lat="44.5254633" lon="9.3785317"><ele>705.8000000000001</ele><time>2026-04-06T14:27:35.599Z</time></trkpt><trkpt lat="44.5255333" lon="9.37863"><ele>705.2</ele><time>2026-04-06T14:27:36.597Z</time></trkpt><trkpt lat="44.5255717" lon="9.378745"><ele>704.6</ele><time>2026-04-06T14:27:37.599Z</time></trkpt><trkpt lat="44.5255833" lon="9.3788733"><ele>704.0</ele><time>2026-04-06T14:27:38.598Z</time></trkpt><trkpt lat="44.5255633" lon="9.3790183"><ele>704.0</ele><time>2026-04-06T14:27:39.598Z</time></trkpt><trkpt lat="44.5255167" lon="9.3791717"><ele>704.0</ele><time>2026-04-06T14:27:40.598Z</time></trkpt><trkpt lat="44.5254583" lon="9.3793433"><ele>704.0</ele><time>2026-04-06T14:27:41.598Z</time></trkpt><trkpt lat="44.5253983" lon="9.3795183"><ele>704.0</ele><time>2026-04-06T14:27:42.598Z</time></trkpt><trkpt lat="44.5253267" lon="9.3796917"><ele>705.6666666666666</ele><time>2026-04-06T14:27:43.599Z</time></trkpt><trkpt lat="44.525245" lon="9.3798683"><ele>707.3333333333334</ele><time>2026-04-06T14:27:44.598Z</time></trkpt><trkpt lat="44.5251433" lon="9.380055"><ele>709.0</ele><time>2026-04-06T14:27:45.598Z</time></trkpt><trkpt lat="44.5250217" lon="9.380255"><ele>709.0</ele><time>2026-04-06T14:27:46.598Z</time></trkpt><trkpt lat="44.5248833" lon="9.3804733"><ele>709.0</ele><time>2026-04-06T14:27:47.6Z</time></trkpt><trkpt lat="44.5247317" lon="9.3807"><ele>709.0</ele><time>2026-04-06T14:27:48.598Z</time></trkpt><trkpt lat="44.5245717" lon="9.380925"><ele>708.6666666666667</ele><time>2026-04-06T14:27:49.599Z</time></trkpt><trkpt lat="44.524415" lon="9.3811467"><ele>708.3333333333334</ele><time>2026-04-06T14:27:50.599Z</time></trkpt><trkpt lat="44.5242617" lon="9.3813633"><ele>708.0</ele><time>2026-04-06T14:27:51.599Z</time></trkpt><trkpt lat="44.5241117" lon="9.3815817"><ele>707.0</ele><time>2026-04-06T14:27:52.599Z</time></trkpt><trkpt lat="44.52397" lon="9.381795"><ele>706.0</ele><time>2026-04-06T14:27:53.598Z</time></trkpt><trkpt lat="44.5238367" lon="9.3819983"><ele>705.0</ele><time>2026-04-06T14:27:54.599Z</time></trkpt><trkpt lat="44.52371" lon="9.3821833"><ele>705.0</ele><time>2026-04-06T14:27:55.599Z</time></trkpt><trkpt lat="44.5235917" lon="9.3823633"><ele>705.0</ele><time>2026-04-06T14:27:56.602Z</time></trkpt><trkpt lat="44.5234783" lon="9.38253"><ele>705.0</ele><time>2026-04-06T14:27:57.599Z</time></trkpt><trkpt lat="44.5233733" lon="9.3826883"><ele>705.0</ele><time>2026-04-06T14:27:58.6Z</time></trkpt><trkpt lat="44.5232883" lon="9.3828467"><ele>705.0</ele><time>2026-04-06T14:27:59.599Z</time></trkpt><trkpt lat="44.5232367" lon="9.38301"><ele>705.0</ele><time>2026-04-06T14:28:00.599Z</time></trkpt><trkpt lat="44.5232267" lon="9.3831833"><ele>705.0</ele><time>2026-04-06T14:28:01.599Z</time></trkpt><trkpt lat="44.523275" lon="9.38337"><ele>706.0</ele><time>2026-04-06T14:28:02.598Z</time></trkpt><trkpt lat="44.5233583" lon="9.38357"><ele>707.0</ele><time>2026-04-06T14:28:03.598Z</time></trkpt><trkpt lat="44.5234617" lon="9.3837917"><ele>708.0</ele><time>2026-04-06T14:28:04.599Z</time></trkpt><trkpt lat="44.5235767" lon="9.3840167"><ele>704.6666666666666</ele><time>2026-04-06T14:28:05.598Z</time></trkpt><trkpt lat="44.5236967" lon="9.38423"><ele>701.3333333333333</ele><time>2026-04-06T14:28:06.599Z</time></trkpt><trkpt lat="44.52382" lon="9.384425"><ele>698.0</ele><time>2026-04-06T14:28:07.6Z</time></trkpt><trkpt lat="44.52395" lon="9.3846133"><ele>706.0</ele><time>2026-04-06T14:28:08.598Z</time></trkpt><trkpt lat="44.524095" lon="9.38478"><ele>714.0</ele><time>2026-04-06T14:28:09.599Z</time></trkpt><trkpt lat="44.5242433" lon="9.3849183"><ele>722.0</ele><time>2026-04-06T14:28:10.599Z</time></trkpt><trkpt lat="44.52439" lon="9.3850267"><ele>722.0</ele><time>2026-04-06T14:28:11.598Z</time></trkpt><trkpt lat="44.5245417" lon="9.38512"><ele>722.0</ele><time>2026-04-06T14:28:12.598Z</time></trkpt><trkpt lat="44.524695" lon="9.3851967"><ele>722.0</ele><time>2026-04-06T14:28:13.6Z</time></trkpt><trkpt lat="44.5248433" lon="9.3852483"><ele>718.75</ele><time>2026-04-06T14:28:14.599Z</time></trkpt><trkpt lat="44.52498" lon="9.38526"><ele>715.5</ele><time>2026-04-06T14:28:15.599Z</time></trkpt><trkpt lat="44.5251133" lon="9.3852683"><ele>712.25</ele><time>2026-04-06T14:28:16.6Z</time></trkpt><trkpt lat="44.5252417" lon="9.3852567"><ele>709.0</ele><time>2026-04-06T14:28:17.599Z</time></trkpt><trkpt lat="44.525355" lon="9.385205"><ele>708.8000000000001</ele><time>2026-04-06T14:28:18.598Z</time></trkpt><trkpt lat="44.5254633" lon="9.3851567"><ele>708.6</ele><time>2026-04-06T14:28:19.599Z</time></trkpt><trkpt lat="44.5255633" lon="9.3851183"><ele>708.4</ele><time>2026-04-06T14:28:20.599Z</time></trkpt><trkpt lat="44.5256583" lon="9.38509"><ele>708.2</ele><time>2026-04-06T14:28:21.599Z</time></trkpt><trkpt lat="44.525755" lon="9.3851033"><ele>708.0</ele><time>2026-04-06T14:28:22.599Z</time></trkpt><trkpt lat="44.5258417" lon="9.38515"><ele>708.0</ele><time>2026-04-06T14:28:23.599Z</time></trkpt><trkpt lat="44.5259217" lon="9.3852383"><ele>708.0</ele><time>2026-04-06T14:28:24.599Z</time></trkpt><trkpt lat="44.5259833" lon="9.3853417"><ele>708.0</ele><time>2026-04-06T14:28:25.6Z</time></trkpt><trkpt lat="44.5260167" lon="9.385455"><ele>708.0</ele><time>2026-04-06T14:28:26.6Z</time></trkpt><trkpt lat="44.5260267" lon="9.3855783"><ele>708.0</ele><time>2026-04-06T14:28:27.6Z</time></trkpt><trkpt lat="44.5260217" lon="9.385705"><ele>710.4</ele><time>2026-04-06T14:28:28.6Z</time></trkpt><trkpt lat="44.5260083" lon="9.38583"><ele>712.8</ele><time>2026-04-06T14:28:29.599Z</time></trkpt><trkpt lat="44.5259817" lon="9.38595"><ele>715.2</ele><time>2026-04-06T14:28:30.599Z</time></trkpt><trkpt lat="44.5259433" lon="9.3860617"><ele>717.6</ele><time>2026-04-06T14:28:31.6Z</time></trkpt><trkpt lat="44.5258967" lon="9.3861667"><ele>720.0</ele><time>2026-04-06T14:28:32.6Z</time></trkpt><trkpt lat="44.5258317" lon="9.3862783"><ele>718.5</ele><time>2026-04-06T14:28:33.598Z</time></trkpt><trkpt lat="44.5257683" lon="9.38641"><ele>717.0</ele><time>2026-04-06T14:28:34.597Z</time></trkpt><trkpt lat="44.5256883" lon="9.3865517"><ele>715.5</ele><time>2026-04-06T14:28:35.598Z</time></trkpt><trkpt lat="44.5256167" lon="9.3867067"><ele>714.0</ele><time>2026-04-06T14:28:36.597Z</time></trkpt><trkpt lat="44.5255667" lon="9.3868783"><ele>714.0</ele><time>2026-04-06T14:28:37.599Z</time></trkpt><trkpt lat="44.5255267" lon="9.387065"><ele>714.0</ele><time>2026-04-06T14:28:38.598Z</time></trkpt><trkpt lat="44.5255183" lon="9.38727"><ele>714.0</ele><time>2026-04-06T14:28:39.598Z</time></trkpt><trkpt lat="44.5255283" lon="9.3874833"><ele>714.0</ele><time>2026-04-06T14:28:40.597Z</time></trkpt><trkpt lat="44.5255517" lon="9.3877"><ele>713.5</ele><time>2026-04-06T14:28:41.598Z</time></trkpt><trkpt lat="44.5255783" lon="9.387905"><ele>713.0</ele><time>2026-04-06T14:28:42.598Z</time></trkpt><trkpt lat="44.5256083" lon="9.38809"><ele>712.5</ele><time>2026-04-06T14:28:43.597Z</time></trkpt><trkpt lat="44.5256517" lon="9.3882533"><ele>712.0</ele><time>2026-04-06T14:28:44.599Z</time></trkpt><trkpt lat="44.5257167" lon="9.388405"><ele>714.25</ele><time>2026-04-06T14:28:45.598Z</time></trkpt><trkpt lat="44.5257983" lon="9.38855"><ele>716.5</ele><time>2026-04-06T14:28:46.598Z</time></trkpt><trkpt lat="44.5258933" lon="9.3886917"><ele>718.75</ele><time>2026-04-06T14:28:47.598Z</time></trkpt><trkpt lat="44.52599" lon="9.3888267"><ele>721.0</ele><time>2026-04-06T14:28:48.599Z</time></trkpt><trkpt lat="44.5260833" lon="9.3889517"><ele>723.5999999999999</ele><time>2026-04-06T14:28:49.598Z</time></trkpt><trkpt lat="44.5261683" lon="9.3890617"><ele>726.2</ele><time>2026-04-06T14:28:50.599Z</time></trkpt><trkpt lat="44.526245" lon="9.38917"><ele>728.8</ele><time>2026-04-06T14:28:51.599Z</time></trkpt><trkpt lat="44.526315" lon="9.3892817"><ele>731.4000000000001</ele><time>2026-04-06T14:28:52.599Z</time></trkpt><trkpt lat="44.5263617" lon="9.3894017"><ele>734.0</ele><time>2026-04-06T14:28:53.599Z</time></trkpt><trkpt lat="44.5263833" lon="9.3895333"><ele>730.8000000000001</ele><time>2026-04-06T14:28:54.599Z</time></trkpt><trkpt lat="44.5263833" lon="9.3896733"><ele>727.6</ele><time>2026-04-06T14:28:55.598Z</time></trkpt><trkpt lat="44.5263667" lon="9.3898067"><ele>724.4</ele><time>2026-04-06T14:28:56.599Z</time></trkpt><trkpt lat="44.526335" lon="9.3899283"><ele>721.2</ele><time>2026-04-06T14:28:57.6Z</time></trkpt><trkpt lat="44.5262967" lon="9.3900483"><ele>718.0</ele><time>2026-04-06T14:28:58.6Z</time></trkpt><trkpt lat="44.526235" lon="9.3901567"><ele>721.0</ele><time>2026-04-06T14:28:59.6Z</time></trkpt><trkpt lat="44.5261617" lon="9.3902483"><ele>724.0</ele><time>2026-04-06T14:29:00.599Z</time></trkpt><trkpt lat="44.52608" lon="9.3903083"><ele>727.0</ele><time>2026-04-06T14:29:01.599Z</time></trkpt><trkpt lat="44.5260083" lon="9.390345"><ele>730.0</ele><time>2026-04-06T14:29:02.6Z</time></trkpt><trkpt lat="44.5259467" lon="9.39037"><ele>733.0</ele><time>2026-04-06T14:29:03.599Z</time></trkpt><trkpt lat="44.5259033" lon="9.390435"><ele>736.0</ele><time>2026-04-06T14:30:27.598Z</time></trkpt><trkpt lat="44.5259733" lon="9.3904267"><ele>736.0</ele><time>2026-04-06T14:30:29.599Z</time></trkpt><trkpt lat="44.52607" lon="9.3903617"><ele>736.0</ele><time>2026-04-06T14:30:31.599Z</time></trkpt><trkpt lat="44.526125" lon="9.3903183"><ele>736.0</ele><time>2026-04-06T14:30:32.599Z</time></trkpt><trkpt lat="44.5261883" lon="9.3902667"><ele>736.0</ele><time>2026-04-06T14:30:33.6Z</time></trkpt><trkpt lat="44.5262467" lon="9.390205"><ele>736.0</ele><time>2026-04-06T14:30:34.599Z</time></trkpt><trkpt lat="44.5263033" lon="9.3901217"><ele>736.0</ele><time>2026-04-06T14:30:35.599Z</time></trkpt><trkpt lat="44.5263567" lon="9.3900183"><ele>733.0</ele><time>2026-04-06T14:30:36.6Z</time></trkpt><trkpt lat="44.52639" lon="9.3899"><ele>730.0</ele><time>2026-04-06T14:30:37.6Z</time></trkpt><trkpt lat="44.526415" lon="9.3897767"><ele>727.0</ele><time>2026-04-06T14:30:38.598Z</time></trkpt><trkpt lat="44.526425" lon="9.38965"><ele>724.0</ele><time>2026-04-06T14:30:39.598Z</time></trkpt><trkpt lat="44.5264283" lon="9.3895333"><ele>721.0</ele><time>2026-04-06T14:30:40.598Z</time></trkpt><trkpt lat="44.5264167" lon="9.389425"><ele>718.0</ele><time>2026-04-06T14:30:41.598Z</time></trkpt><trkpt lat="44.5263767" lon="9.38931"><ele>718.5999999999999</ele><time>2026-04-06T14:30:42.598Z</time></trkpt><trkpt lat="44.52632" lon="9.3891983"><ele>719.1999999999999</ele><time>2026-04-06T14:30:43.599Z</time></trkpt><trkpt lat="44.5262483" lon="9.3890883"><ele>719.8</ele><time>2026-04-06T14:30:44.599Z</time></trkpt><trkpt lat="44.5261683" lon="9.3889733"><ele>720.4</ele><time>2026-04-06T14:30:45.597Z</time></trkpt><trkpt lat="44.5260917" lon="9.3888617"><ele>721.0</ele><time>2026-04-06T14:30:46.598Z</time></trkpt><trkpt lat="44.526015" lon="9.3887483"><ele>721.0</ele><time>2026-04-06T14:30:47.598Z</time></trkpt><trkpt lat="44.5259383" lon="9.38864"><ele>721.0</ele><time>2026-04-06T14:30:48.598Z</time></trkpt><trkpt lat="44.5258633" lon="9.3885333"><ele>721.0</ele><time>2026-04-06T14:30:49.597Z</time></trkpt><trkpt lat="44.5257967" lon="9.3884283"><ele>721.0</ele><time>2026-04-06T14:30:50.598Z</time></trkpt><trkpt lat="44.5257367" lon="9.3883167"><ele>721.0</ele><time>2026-04-06T14:30:51.598Z</time></trkpt><trkpt lat="44.5256883" lon="9.388185"><ele>721.0</ele><time>2026-04-06T14:30:52.599Z</time></trkpt><trkpt lat="44.5256517" lon="9.388035"><ele>721.0</ele><time>2026-04-06T14:30:53.597Z</time></trkpt><trkpt lat="44.5256233" lon="9.3878767"><ele>721.0</ele><time>2026-04-06T14:30:54.597Z</time></trkpt><trkpt lat="44.5256" lon="9.3877217"><ele>721.0</ele><time>2026-04-06T14:30:55.598Z</time></trkpt><trkpt lat="44.52558" lon="9.3875717"><ele>719.5999999999999</ele><time>2026-04-06T14:30:56.598Z</time></trkpt><trkpt lat="44.5255683" lon="9.3874183"><ele>718.2</ele><time>2026-04-06T14:30:57.597Z</time></trkpt><trkpt lat="44.5255633" lon="9.3872633"><ele>716.8</ele><time>2026-04-06T14:30:58.598Z</time></trkpt><trkpt lat="44.5255667" lon="9.38711"><ele>715.4000000000001</ele><time>2026-04-06T14:30:59.599Z</time></trkpt><trkpt lat="44.52558" lon="9.38696"><ele>714.0</ele><time>2026-04-06T14:31:00.597Z</time></trkpt><trkpt lat="44.525605" lon="9.3868167"><ele>714.0</ele><time>2026-04-06T14:31:01.597Z</time></trkpt><trkpt lat="44.5256417" lon="9.3866783"><ele>714.0</ele><time>2026-04-06T14:31:02.599Z</time></trkpt><trkpt lat="44.5256833" lon="9.38655"><ele>714.0</ele><time>2026-04-06T14:31:03.599Z</time></trkpt><trkpt lat="44.5257383" lon="9.3864383"><ele>714.0</ele><time>2026-04-06T14:31:04.597Z</time></trkpt><trkpt lat="44.525795" lon="9.3863367"><ele>714.0</ele><time>2026-04-06T14:31:05.598Z</time></trkpt><trkpt lat="44.5258533" lon="9.3862317"><ele>715.2</ele><time>2026-04-06T14:31:06.598Z</time></trkpt><trkpt lat="44.5259067" lon="9.3861217"><ele>716.4000000000001</ele><time>2026-04-06T14:31:07.599Z</time></trkpt><trkpt lat="44.52595" lon="9.386005"><ele>717.6</ele><time>2026-04-06T14:31:08.598Z</time></trkpt><trkpt lat="44.5259833" lon="9.3858767"><ele>718.8</ele><time>2026-04-06T14:31:09.598Z</time></trkpt><trkpt lat="44.5260083" lon="9.3857483"><ele>720.0</ele><time>2026-04-06T14:31:10.599Z</time></trkpt><trkpt lat="44.5260283" lon="9.3856267"><ele>718.0</ele><time>2026-04-06T14:31:11.598Z</time></trkpt><trkpt lat="44.5260367" lon="9.3855117"><ele>716.0</ele><time>2026-04-06T14:31:12.598Z</time></trkpt><trkpt lat="44.52602" lon="9.3853983"><ele>714.0</ele><time>2026-04-06T14:31:13.598Z</time></trkpt><trkpt lat="44.52599" lon="9.3852933"><ele>712.0</ele><time>2026-04-06T14:31:14.598Z</time></trkpt><trkpt lat="44.52596" lon="9.385205"><ele>710.0</ele><time>2026-04-06T14:31:15.598Z</time></trkpt><trkpt lat="44.52591" lon="9.385085"><ele>708.0</ele><time>2026-04-06T14:31:17.598Z</time></trkpt><trkpt lat="44.525865" lon="9.38502"><ele>708.0</ele><time>2026-04-06T14:31:20.599Z</time></trkpt><trkpt lat="44.525835" lon="9.3850983"><ele>708.0</ele><time>2026-04-06T14:36:42.599Z</time></trkpt><trkpt lat="44.52591" lon="9.3852117"><ele>708.0</ele><time>2026-04-06T14:36:44.6Z</time></trkpt><trkpt lat="44.525955" lon="9.385275"><ele>708.0</ele><time>2026-04-06T14:36:45.6Z</time></trkpt><trkpt lat="44.5259917" lon="9.38535"><ele>708.0</ele><time>2026-04-06T14:36:46.6Z</time></trkpt><trkpt lat="44.5260233" lon="9.3854383"><ele>708.0</ele><time>2026-04-06T14:36:47.6Z</time></trkpt><trkpt lat="44.5260417" lon="9.3855417"><ele>708.0</ele><time>2026-04-06T14:36:48.599Z</time></trkpt><trkpt lat="44.5260467" lon="9.38566"><ele>710.0</ele><time>2026-04-06T14:36:49.599Z</time></trkpt><trkpt lat="44.5260367" lon="9.3857817"><ele>712.0</ele><time>2026-04-06T14:36:50.6Z</time></trkpt><trkpt lat="44.52602" lon="9.3859033"><ele>714.0</ele><time>2026-04-06T14:36:51.599Z</time></trkpt><trkpt lat="44.5259917" lon="9.38602"><ele>716.0</ele><time>2026-04-06T14:36:52.599Z</time></trkpt><trkpt lat="44.5259583" lon="9.38613"><ele>718.0</ele><time>2026-04-06T14:36:53.6Z</time></trkpt><trkpt lat="44.525915" lon="9.3862267"><ele>720.0</ele><time>2026-04-06T14:36:54.6Z</time></trkpt><trkpt lat="44.525855" lon="9.3863167"><ele>718.8</ele><time>2026-04-06T14:36:55.6Z</time></trkpt><trkpt lat="44.525795" lon="9.38642"><ele>717.6</ele><time>2026-04-06T14:36:56.601Z</time></trkpt><trkpt lat="44.52573" lon="9.38654"><ele>716.4000000000001</ele><time>2026-04-06T14:36:57.599Z</time></trkpt><trkpt lat="44.525675" lon="9.3866717"><ele>715.2</ele><time>2026-04-06T14:36:58.598Z</time></trkpt><trkpt lat="44.5256283" lon="9.3868017"><ele>714.0</ele><time>2026-04-06T14:36:59.598Z</time></trkpt><trkpt lat="44.5255867" lon="9.3869483"><ele>714.0</ele><time>2026-04-06T14:37:00.598Z</time></trkpt><trkpt lat="44.525565" lon="9.3871183"><ele>714.0</ele><time>2026-04-06T14:37:01.597Z</time></trkpt><trkpt lat="44.5255667" lon="9.3873117"><ele>714.0</ele><time>2026-04-06T14:37:02.598Z</time></trkpt><trkpt lat="44.52558" lon="9.38752"><ele>714.0</ele><time>2026-04-06T14:37:03.599Z</time></trkpt><trkpt lat="44.5256" lon="9.387735"><ele>713.5</ele><time>2026-04-06T14:37:04.597Z</time></trkpt><trkpt lat="44.5256267" lon="9.3879383"><ele>713.0</ele><time>2026-04-06T14:37:05.597Z</time></trkpt><trkpt lat="44.5256617" lon="9.3881167"><ele>712.5</ele><time>2026-04-06T14:37:06.599Z</time></trkpt><trkpt lat="44.5257067" lon="9.3882717"><ele>712.0</ele><time>2026-04-06T14:37:07.597Z</time></trkpt><trkpt lat="44.5257667" lon="9.3884167"><ele>714.25</ele><time>2026-04-06T14:37:08.599Z</time></trkpt><trkpt lat="44.52584" lon="9.3885533"><ele>716.5</ele><time>2026-04-06T14:37:09.597Z</time></trkpt><trkpt lat="44.5259333" lon="9.3886917"><ele>718.75</ele><time>2026-04-06T14:37:10.599Z</time></trkpt><trkpt lat="44.5260283" lon="9.3888367"><ele>721.0</ele><time>2026-04-06T14:37:11.598Z</time></trkpt><trkpt lat="44.52613" lon="9.3889817"><ele>717.75</ele><time>2026-04-06T14:37:12.598Z</time></trkpt><trkpt lat="44.5262283" lon="9.3891183"><ele>714.5</ele><time>2026-04-06T14:37:13.598Z</time></trkpt><trkpt lat="44.5263167" lon="9.38925"><ele>711.25</ele><time>2026-04-06T14:37:14.598Z</time></trkpt><trkpt lat="44.5263667" lon="9.38939"><ele>708.0</ele><time>2026-04-06T14:37:15.597Z</time></trkpt><trkpt lat="44.5263883" lon="9.3895383"><ele>710.5</ele><time>2026-04-06T14:37:16.598Z</time></trkpt><trkpt lat="44.5263817" lon="9.389695"><ele>713.0</ele><time>2026-04-06T14:37:17.599Z</time></trkpt><trkpt lat="44.5263567" lon="9.3898517"><ele>715.5</ele><time>2026-04-06T14:37:18.597Z</time></trkpt><trkpt lat="44.526305" lon="9.3899967"><ele>718.0</ele><time>2026-04-06T14:37:19.598Z</time></trkpt><trkpt lat="44.526235" lon="9.3901267"><ele>720.5</ele><time>2026-04-06T14:37:20.599Z</time></trkpt><trkpt lat="44.52614" lon="9.3902333"><ele>723.0</ele><time>2026-04-06T14:37:21.598Z</time></trkpt><trkpt lat="44.5260333" lon="9.3903283"><ele>725.5</ele><time>2026-04-06T14:37:22.598Z</time></trkpt><trkpt lat="44.52592" lon="9.3904183"><ele>728.0</ele><time>2026-04-06T14:37:23.598Z</time></trkpt><trkpt lat="44.525795" lon="9.3905183"><ele>728.0</ele><time>2026-04-06T14:37:24.598Z</time></trkpt><trkpt lat="44.5256667" lon="9.3906233"><ele>728.0</ele><time>2026-04-06T14:37:25.598Z</time></trkpt><trkpt lat="44.52554" lon="9.3907217"><ele>728.0</ele><time>2026-04-06T14:37:26.598Z</time></trkpt><trkpt lat="44.5254167" lon="9.39082"><ele>728.0</ele><time>2026-04-06T14:37:27.597Z</time></trkpt><trkpt lat="44.5252983" lon="9.3909183"><ele>730.0</ele><time>2026-04-06T14:37:28.599Z</time></trkpt><trkpt lat="44.5251867" lon="9.3910183"><ele>732.0</ele><time>2026-04-06T14:37:29.598Z</time></trkpt><trkpt lat="44.525085" lon="9.3911217"><ele>734.0</ele><time>2026-04-06T14:37:30.599Z</time></trkpt><trkpt lat="44.5250017" lon="9.39124"><ele>736.0</ele><time>2026-04-06T14:37:31.599Z</time></trkpt><trkpt lat="44.524945" lon="9.3913883"><ele>736.0</ele><time>2026-04-06T14:37:32.597Z</time></trkpt><trkpt lat="44.5249117" lon="9.39155"><ele>736.0</ele><time>2026-04-06T14:37:33.598Z</time></trkpt><trkpt lat="44.524885" lon="9.391725"><ele>736.0</ele><time>2026-04-06T14:37:34.599Z</time></trkpt><trkpt lat="44.5248517" lon="9.3919033"><ele>736.0</ele><time>2026-04-06T14:37:35.598Z</time></trkpt><trkpt lat="44.524785" lon="9.3920733"><ele>734.75</ele><time>2026-04-06T14:37:36.597Z</time></trkpt><trkpt lat="44.5246833" lon="9.39219"><ele>733.5</ele><time>2026-04-06T14:37:37.598Z</time></trkpt><trkpt lat="44.52455" lon="9.3922433"><ele>732.25</ele><time>2026-04-06T14:37:38.599Z</time></trkpt><trkpt lat="44.5244017" lon="9.3922517"><ele>731.0</ele><time>2026-04-06T14:37:39.598Z</time></trkpt><trkpt lat="44.5242583" lon="9.3922517"><ele>735.5</ele><time>2026-04-06T14:37:40.598Z</time></trkpt><trkpt lat="44.5241333" lon="9.3922733"><ele>740.0</ele><time>2026-04-06T14:37:41.597Z</time></trkpt><trkpt lat="44.5240317" lon="9.39234"><ele>744.5</ele><time>2026-04-06T14:37:42.597Z</time></trkpt><trkpt lat="44.5239567" lon="9.39245"><ele>749.0</ele><time>2026-04-06T14:37:43.597Z</time></trkpt><trkpt lat="44.523915" lon="9.39259"><ele>749.0</ele><time>2026-04-06T14:37:44.598Z</time></trkpt><trkpt lat="44.523915" lon="9.39276"><ele>749.0</ele><time>2026-04-06T14:37:45.599Z</time></trkpt><trkpt lat="44.5239567" lon="9.3929383"><ele>749.0</ele><time>2026-04-06T14:37:46.599Z</time></trkpt><trkpt lat="44.5240383" lon="9.3931067"><ele>749.0</ele><time>2026-04-06T14:37:47.597Z</time></trkpt><trkpt lat="44.52414" lon="9.3932483"><ele>750.25</ele><time>2026-04-06T14:37:48.598Z</time></trkpt><trkpt lat="44.5242433" lon="9.39337"><ele>751.5</ele><time>2026-04-06T14:37:49.598Z</time></trkpt><trkpt lat="44.5243317" lon="9.3935083"><ele>752.75</ele><time>2026-04-06T14:37:50.6Z</time></trkpt><trkpt lat="44.524405" lon="9.3936633"><ele>754.0</ele><time>2026-04-06T14:37:51.598Z</time></trkpt><trkpt lat="44.52446" lon="9.3938533"><ele>755.0</ele><time>2026-04-06T14:37:52.598Z</time></trkpt><trkpt lat="44.5244817" lon="9.3940483"><ele>756.0</ele><time>2026-04-06T14:37:53.598Z</time></trkpt><trkpt lat="44.52447" lon="9.3942483"><ele>757.0</ele><time>2026-04-06T14:37:54.598Z</time></trkpt><trkpt lat="44.5244283" lon="9.39445"><ele>758.0</ele><time>2026-04-06T14:37:55.599Z</time></trkpt><trkpt lat="44.5243517" lon="9.39463"><ele>755.0</ele><time>2026-04-06T14:37:56.598Z</time></trkpt><trkpt lat="44.524245" lon="9.39479"><ele>752.0</ele><time>2026-04-06T14:37:57.598Z</time></trkpt><trkpt lat="44.5241133" lon="9.39491"><ele>749.0</ele><time>2026-04-06T14:37:58.598Z</time></trkpt><trkpt lat="44.5239667" lon="9.3949867"><ele>749.0</ele><time>2026-04-06T14:37:59.599Z</time></trkpt><trkpt lat="44.5238083" lon="9.3950167"><ele>749.0</ele><time>2026-04-06T14:38:00.599Z</time></trkpt><trkpt lat="44.5236583" lon="9.395025"><ele>749.0</ele><time>2026-04-06T14:38:01.597Z</time></trkpt><trkpt lat="44.5235183" lon="9.3950167"><ele>751.75</ele><time>2026-04-06T14:38:02.599Z</time></trkpt><trkpt lat="44.5233883" lon="9.3949933"><ele>754.5</ele><time>2026-04-06T14:38:03.598Z</time></trkpt><trkpt lat="44.5232667" lon="9.3949733"><ele>757.25</ele><time>2026-04-06T14:38:04.599Z</time></trkpt><trkpt lat="44.5231467" lon="9.395005"><ele>760.0</ele><time>2026-04-06T14:38:05.598Z</time></trkpt><trkpt lat="44.523025" lon="9.39507"><ele>760.0</ele><time>2026-04-06T14:38:06.6Z</time></trkpt><trkpt lat="44.5229083" lon="9.395165"><ele>760.0</ele><time>2026-04-06T14:38:07.598Z</time></trkpt><trkpt lat="44.5228117" lon="9.395285"><ele>760.0</ele><time>2026-04-06T14:38:08.597Z</time></trkpt><trkpt lat="44.5227433" lon="9.3954417"><ele>760.0</ele><time>2026-04-06T14:38:09.598Z</time></trkpt><trkpt lat="44.52271" lon="9.3956317"><ele>762.0</ele><time>2026-04-06T14:38:10.598Z</time></trkpt><trkpt lat="44.522715" lon="9.3958367"><ele>764.0</ele><time>2026-04-06T14:38:11.597Z</time></trkpt><trkpt lat="44.5227383" lon="9.3960583"><ele>766.0</ele><time>2026-04-06T14:38:12.598Z</time></trkpt><trkpt lat="44.5227333" lon="9.39627"><ele>765.25</ele><time>2026-04-06T14:38:13.598Z</time></trkpt><trkpt lat="44.5226917" lon="9.3964633"><ele>764.5</ele><time>2026-04-06T14:38:14.599Z</time></trkpt><trkpt lat="44.5226117" lon="9.3966283"><ele>763.75</ele><time>2026-04-06T14:38:15.598Z</time></trkpt><trkpt lat="44.5225067" lon="9.3967583"><ele>763.0</ele><time>2026-04-06T14:38:16.598Z</time></trkpt><trkpt lat="44.5223783" lon="9.3968383"><ele>763.0</ele><time>2026-04-06T14:38:17.598Z</time></trkpt><trkpt lat="44.5222383" lon="9.3968683"><ele>763.0</ele><time>2026-04-06T14:38:18.598Z</time></trkpt><trkpt lat="44.5221" lon="9.3968467"><ele>763.0</ele><time>2026-04-06T14:38:19.598Z</time></trkpt><trkpt lat="44.52198" lon="9.3967483"><ele>763.0</ele><time>2026-04-06T14:38:20.598Z</time></trkpt><trkpt lat="44.5218833" lon="9.396595"><ele>762.6666666666667</ele><time>2026-04-06T14:38:21.598Z</time></trkpt><trkpt lat="44.5218083" lon="9.3964083"><ele>762.3333333333334</ele><time>2026-04-06T14:38:22.597Z</time></trkpt><trkpt lat="44.5217533" lon="9.396205"><ele>762.0</ele><time>2026-04-06T14:38:23.598Z</time></trkpt><trkpt lat="44.5217033" lon="9.395995"><ele>764.5</ele><time>2026-04-06T14:38:24.598Z</time></trkpt><trkpt lat="44.521655" lon="9.395785"><ele>767.0</ele><time>2026-04-06T14:38:25.597Z</time></trkpt><trkpt lat="44.5216267" lon="9.3955883"><ele>769.5</ele><time>2026-04-06T14:38:26.599Z</time></trkpt><trkpt lat="44.5215533" lon="9.395415"><ele>772.0</ele><time>2026-04-06T14:38:27.598Z</time></trkpt><trkpt lat="44.5214417" lon="9.395265"><ele>773.6666666666666</ele><time>2026-04-06T14:38:28.598Z</time></trkpt><trkpt lat="44.5213033" lon="9.3951583"><ele>775.3333333333333</ele><time>2026-04-06T14:38:29.597Z</time></trkpt><trkpt lat="44.5211533" lon="9.395115"><ele>777.0</ele><time>2026-04-06T14:38:30.598Z</time></trkpt><trkpt lat="44.5209883" lon="9.3951617"><ele>779.3333333333333</ele><time>2026-04-06T14:38:31.599Z</time></trkpt><trkpt lat="44.520825" lon="9.3952767"><ele>781.6666666666666</ele><time>2026-04-06T14:38:32.597Z</time></trkpt><trkpt lat="44.52066" lon="9.3954333"><ele>784.0</ele><time>2026-04-06T14:38:33.598Z</time></trkpt><trkpt lat="44.5204967" lon="9.3956017"><ele>784.3333333333333</ele><time>2026-04-06T14:38:34.597Z</time></trkpt><trkpt lat="44.5203567" lon="9.3957417"><ele>784.6666666666667</ele><time>2026-04-06T14:38:35.598Z</time></trkpt><trkpt lat="44.5202133" lon="9.3958783"><ele>785.0</ele><time>2026-04-06T14:38:36.6Z</time></trkpt><trkpt lat="44.520065" lon="9.3959867"><ele>785.0</ele><time>2026-04-06T14:38:37.599Z</time></trkpt><trkpt lat="44.5199083" lon="9.3960567"><ele>785.0</ele><time>2026-04-06T14:38:38.599Z</time></trkpt><trkpt lat="44.5197367" lon="9.3960933"><ele>785.0</ele><time>2026-04-06T14:38:39.598Z</time></trkpt><trkpt lat="44.5195617" lon="9.3961017"><ele>790.0</ele><time>2026-04-06T14:38:40.598Z</time></trkpt><trkpt lat="44.519395" lon="9.3961033"><ele>795.0</ele><time>2026-04-06T14:38:41.598Z</time></trkpt><trkpt lat="44.5192417" lon="9.39614"><ele>800.0</ele><time>2026-04-06T14:38:42.599Z</time></trkpt><trkpt lat="44.5191083" lon="9.3962317"><ele>799.6666666666667</ele><time>2026-04-06T14:38:43.598Z</time></trkpt><trkpt lat="44.51898" lon="9.3963617"><ele>799.3333333333333</ele><time>2026-04-06T14:38:44.598Z</time></trkpt><trkpt lat="44.51884" lon="9.3964783"><ele>799.0</ele><time>2026-04-06T14:38:45.597Z</time></trkpt><trkpt lat="44.518685" lon="9.396555"><ele>799.0</ele><time>2026-04-06T14:38:46.597Z</time></trkpt><trkpt lat="44.51853" lon="9.3966083"><ele>799.0</ele><time>2026-04-06T14:38:47.598Z</time></trkpt><trkpt lat="44.5183667" lon="9.396655"><ele>799.0</ele><time>2026-04-06T14:38:48.598Z</time></trkpt><trkpt lat="44.5181933" lon="9.39671"><ele>799.0</ele><time>2026-04-06T14:38:49.599Z</time></trkpt><trkpt lat="44.5180067" lon="9.39677"><ele>799.0</ele><time>2026-04-06T14:38:50.599Z</time></trkpt><trkpt lat="44.5178133" lon="9.396835"><ele>799.0</ele><time>2026-04-06T14:38:51.597Z</time></trkpt><trkpt lat="44.517615" lon="9.3968933"><ele>802.3333333333333</ele><time>2026-04-06T14:38:52.598Z</time></trkpt><trkpt lat="44.517415" lon="9.3969533"><ele>805.6666666666667</ele><time>2026-04-06T14:38:53.598Z</time></trkpt><trkpt lat="44.5172083" lon="9.3970183"><ele>809.0</ele><time>2026-04-06T14:38:54.598Z</time></trkpt><trkpt lat="44.517005" lon="9.3970717"><ele>810.6666666666667</ele><time>2026-04-06T14:38:55.598Z</time></trkpt><trkpt lat="44.5168117" lon="9.3971217"><ele>812.3333333333333</ele><time>2026-04-06T14:38:56.598Z</time></trkpt><trkpt lat="44.51662" lon="9.3971733"><ele>814.0</ele><time>2026-04-06T14:38:57.598Z</time></trkpt><trkpt lat="44.5164267" lon="9.3972233"><ele>810.6666666666666</ele><time>2026-04-06T14:38:58.598Z</time></trkpt><trkpt lat="44.5162333" lon="9.3972833"><ele>807.3333333333333</ele><time>2026-04-06T14:38:59.598Z</time></trkpt><trkpt lat="44.516045" lon="9.397335"><ele>804.0</ele><time>2026-04-06T14:39:00.599Z</time></trkpt><trkpt lat="44.51586" lon="9.3973817"><ele>804.0</ele><time>2026-04-06T14:39:01.599Z</time></trkpt><trkpt lat="44.5156783" lon="9.3974267"><ele>804.0</ele><time>2026-04-06T14:39:02.598Z</time></trkpt><trkpt lat="44.5154983" lon="9.39747"><ele>804.0</ele><time>2026-04-06T14:39:03.597Z</time></trkpt><trkpt lat="44.515325" lon="9.3975167"><ele>805.3333333333333</ele><time>2026-04-06T14:39:04.598Z</time></trkpt><trkpt lat="44.5151583" lon="9.397565"><ele>806.6666666666666</ele><time>2026-04-06T14:39:05.6Z</time></trkpt><trkpt lat="44.5149967" lon="9.39762"><ele>808.0</ele><time>2026-04-06T14:39:06.599Z</time></trkpt><trkpt lat="44.51483" lon="9.39771"><ele>808.0</ele><time>2026-04-06T14:39:07.599Z</time></trkpt><trkpt lat="44.514665" lon="9.3978383"><ele>808.0</ele><time>2026-04-06T14:39:08.598Z</time></trkpt><trkpt lat="44.5145033" lon="9.3980167"><ele>808.0</ele><time>2026-04-06T14:39:09.598Z</time></trkpt><trkpt lat="44.5143417" lon="9.3982"><ele>802.3333333333333</ele><time>2026-04-06T14:39:10.598Z</time></trkpt><trkpt lat="44.5141883" lon="9.3983783"><ele>796.6666666666667</ele><time>2026-04-06T14:39:11.598Z</time></trkpt><trkpt lat="44.514045" lon="9.39854"><ele>791.0</ele><time>2026-04-06T14:39:12.598Z</time></trkpt><trkpt lat="44.5139183" lon="9.3986883"><ele>791.0</ele><time>2026-04-06T14:39:13.598Z</time></trkpt><trkpt lat="44.5138217" lon="9.39883"><ele>791.0</ele><time>2026-04-06T14:39:14.599Z</time></trkpt><trkpt lat="44.513765" lon="9.3989917"><ele>791.0</ele><time>2026-04-06T14:39:15.598Z</time></trkpt><trkpt lat="44.5137583" lon="9.3991833"><ele>791.0</ele><time>2026-04-06T14:39:16.598Z</time></trkpt><trkpt lat="44.51379" lon="9.3994017"><ele>792.3333333333334</ele><time>2026-04-06T14:39:17.6Z</time></trkpt><trkpt lat="44.5138367" lon="9.39962"><ele>793.6666666666667</ele><time>2026-04-06T14:39:18.598Z</time></trkpt><trkpt lat="44.513885" lon="9.399825"><ele>795.0</ele><time>2026-04-06T14:39:19.599Z</time></trkpt><trkpt lat="44.51396" lon="9.400005"><ele>801.0</ele><time>2026-04-06T14:39:20.6Z</time></trkpt><trkpt lat="44.5140667" lon="9.400145"><ele>807.0</ele><time>2026-04-06T14:39:21.598Z</time></trkpt><trkpt lat="44.514205" lon="9.4002433"><ele>813.0</ele><time>2026-04-06T14:39:22.598Z</time></trkpt><trkpt lat="44.51435" lon="9.4003183"><ele>813.0</ele><time>2026-04-06T14:39:23.598Z</time></trkpt><trkpt lat="44.5145067" lon="9.4003667"><ele>813.0</ele><time>2026-04-06T14:39:24.597Z</time></trkpt><trkpt lat="44.5146483" lon="9.4003933"><ele>813.0</ele><time>2026-04-06T14:39:25.597Z</time></trkpt><trkpt lat="44.5147717" lon="9.4004083"><ele>813.0</ele><time>2026-04-06T14:39:26.599Z</time></trkpt><trkpt lat="44.5148867" lon="9.400435"><ele>815.0</ele><time>2026-04-06T14:39:27.6Z</time></trkpt><trkpt lat="44.51499" lon="9.4004917"><ele>817.0</ele><time>2026-04-06T14:39:28.6Z</time></trkpt><trkpt lat="44.51508" lon="9.400595"><ele>819.0</ele><time>2026-04-06T14:39:29.599Z</time></trkpt><trkpt lat="44.5151567" lon="9.4007383"><ele>821.0</ele><time>2026-04-06T14:39:30.598Z</time></trkpt><trkpt lat="44.5152433" lon="9.4008967"><ele>821.0</ele><time>2026-04-06T14:39:31.599Z</time></trkpt><trkpt lat="44.515355" lon="9.4010433"><ele>821.0</ele><time>2026-04-06T14:39:32.599Z</time></trkpt><trkpt lat="44.51549" lon="9.401165"><ele>821.0</ele><time>2026-04-06T14:39:33.598Z</time></trkpt><trkpt lat="44.5156317" lon="9.4012667"><ele>821.5</ele><time>2026-04-06T14:39:34.598Z</time></trkpt><trkpt lat="44.5157733" lon="9.4013567"><ele>822.0</ele><time>2026-04-06T14:39:35.598Z</time></trkpt><trkpt lat="44.515905" lon="9.40145"><ele>822.5</ele><time>2026-04-06T14:39:36.599Z</time></trkpt><trkpt lat="44.5160217" lon="9.4015533"><ele>823.0</ele><time>2026-04-06T14:39:37.598Z</time></trkpt><trkpt lat="44.516125" lon="9.4016833"><ele>823.0</ele><time>2026-04-06T14:39:38.599Z</time></trkpt><trkpt lat="44.5162133" lon="9.4018483"><ele>823.0</ele><time>2026-04-06T14:39:39.598Z</time></trkpt><trkpt lat="44.5162783" lon="9.4020517"><ele>823.0</ele><time>2026-04-06T14:39:40.597Z</time></trkpt><trkpt lat="44.51633" lon="9.4022867"><ele>821.6666666666666</ele><time>2026-04-06T14:39:41.597Z</time></trkpt><trkpt lat="44.5163633" lon="9.4025383"><ele>820.3333333333333</ele><time>2026-04-06T14:39:42.598Z</time></trkpt><trkpt lat="44.5163833" lon="9.4028017"><ele>819.0</ele><time>2026-04-06T14:39:43.599Z</time></trkpt><trkpt lat="44.5164067" lon="9.4030683"><ele>819.0</ele><time>2026-04-06T14:39:44.599Z</time></trkpt><trkpt lat="44.5164433" lon="9.403325"><ele>819.0</ele><time>2026-04-06T14:39:45.599Z</time></trkpt><trkpt lat="44.5164983" lon="9.4035717"><ele>819.0</ele><time>2026-04-06T14:39:46.598Z</time></trkpt><trkpt lat="44.5165683" lon="9.4037933"><ele>821.3333333333333</ele><time>2026-04-06T14:39:47.598Z</time></trkpt><trkpt lat="44.516655" lon="9.4040017"><ele>823.6666666666666</ele><time>2026-04-06T14:39:48.597Z</time></trkpt><trkpt lat="44.51674" lon="9.4041933"><ele>826.0</ele><time>2026-04-06T14:39:49.599Z</time></trkpt><trkpt lat="44.5168133" lon="9.4043767"><ele>826.0</ele><time>2026-04-06T14:39:50.599Z</time></trkpt><trkpt lat="44.5168717" lon="9.4045567"><ele>826.0</ele><time>2026-04-06T14:39:51.599Z</time></trkpt><trkpt lat="44.5169017" lon="9.4047367"><ele>826.0</ele><time>2026-04-06T14:39:52.598Z</time></trkpt><trkpt lat="44.5169033" lon="9.4049183"><ele>826.0</ele><time>2026-04-06T14:39:53.599Z</time></trkpt><trkpt lat="44.51687" lon="9.4051017"><ele>826.25</ele><time>2026-04-06T14:39:54.597Z</time></trkpt><trkpt lat="44.5167967" lon="9.4052667"><ele>826.5</ele><time>2026-04-06T14:39:55.598Z</time></trkpt><trkpt lat="44.5166917" lon="9.4053917"><ele>826.75</ele><time>2026-04-06T14:39:56.598Z</time></trkpt><trkpt lat="44.5165583" lon="9.4054833"><ele>827.0</ele><time>2026-04-06T14:39:57.598Z</time></trkpt><trkpt lat="44.5164117" lon="9.405565"><ele>830.6666666666667</ele><time>2026-04-06T14:39:58.599Z</time></trkpt><trkpt lat="44.51626" lon="9.4056667"><ele>834.3333333333333</ele><time>2026-04-06T14:39:59.599Z</time></trkpt><trkpt lat="44.5161133" lon="9.4058017"><ele>838.0</ele><time>2026-04-06T14:40:00.598Z</time></trkpt><trkpt lat="44.51598" lon="9.405965"><ele>838.0</ele><time>2026-04-06T14:40:01.598Z</time></trkpt><trkpt lat="44.5158417" lon="9.4061467"><ele>838.0</ele><time>2026-04-06T14:40:02.597Z</time></trkpt><trkpt lat="44.515695" lon="9.4063383"><ele>838.0</ele><time>2026-04-06T14:40:03.598Z</time></trkpt><trkpt lat="44.5155517" lon="9.4065267"><ele>834.3333333333333</ele><time>2026-04-06T14:40:04.598Z</time></trkpt><trkpt lat="44.515405" lon="9.4067217"><ele>830.6666666666667</ele><time>2026-04-06T14:40:05.598Z</time></trkpt><trkpt lat="44.51526" lon="9.4069067"><ele>827.0</ele><time>2026-04-06T14:40:06.597Z</time></trkpt><trkpt lat="44.51512" lon="9.40708"><ele>830.3333333333334</ele><time>2026-04-06T14:40:07.598Z</time></trkpt><trkpt lat="44.5149883" lon="9.4072367"><ele>833.6666666666667</ele><time>2026-04-06T14:40:08.599Z</time></trkpt><trkpt lat="44.5148583" lon="9.4073667"><ele>837.0</ele><time>2026-04-06T14:40:09.599Z</time></trkpt><trkpt lat="44.5147383" lon="9.4074767"><ele>837.0</ele><time>2026-04-06T14:40:10.598Z</time></trkpt><trkpt lat="44.5146317" lon="9.40759"><ele>837.0</ele><time>2026-04-06T14:40:11.598Z</time></trkpt><trkpt lat="44.5145467" lon="9.40772"><ele>837.0</ele><time>2026-04-06T14:40:12.598Z</time></trkpt><trkpt lat="44.5145033" lon="9.4078817"><ele>837.0</ele><time>2026-04-06T14:40:13.597Z</time></trkpt><trkpt lat="44.5145067" lon="9.4080633"><ele>838.0</ele><time>2026-04-06T14:40:14.598Z</time></trkpt><trkpt lat="44.51455" lon="9.4082433"><ele>839.0</ele><time>2026-04-06T14:40:15.597Z</time></trkpt><trkpt lat="44.514635" lon="9.4084033"><ele>840.0</ele><time>2026-04-06T14:40:16.598Z</time></trkpt><trkpt lat="44.5147483" lon="9.40853"><ele>841.0</ele><time>2026-04-06T14:40:17.599Z</time></trkpt><trkpt lat="44.5148867" lon="9.4086383"><ele>841.0</ele><time>2026-04-06T14:40:18.598Z</time></trkpt><trkpt lat="44.515025" lon="9.40874"><ele>841.0</ele><time>2026-04-06T14:40:19.597Z</time></trkpt><trkpt lat="44.51516" lon="9.4088233"><ele>841.0</ele><time>2026-04-06T14:40:20.598Z</time></trkpt><trkpt lat="44.5152917" lon="9.4088733"><ele>841.0</ele><time>2026-04-06T14:40:21.597Z</time></trkpt><trkpt lat="44.515425" lon="9.4088817"><ele>841.25</ele><time>2026-04-06T14:40:22.602Z</time></trkpt><trkpt lat="44.51556" lon="9.4088517"><ele>841.5</ele><time>2026-04-06T14:40:23.598Z</time></trkpt><trkpt lat="44.5156883" lon="9.4087633"><ele>841.75</ele><time>2026-04-06T14:40:24.598Z</time></trkpt><trkpt lat="44.5158133" lon="9.40866"><ele>842.0</ele><time>2026-04-06T14:40:25.598Z</time></trkpt><trkpt lat="44.5159383" lon="9.408545"><ele>842.0</ele><time>2026-04-06T14:40:26.598Z</time></trkpt><trkpt lat="44.5160633" lon="9.4084467"><ele>842.0</ele><time>2026-04-06T14:40:27.599Z</time></trkpt><trkpt lat="44.516195" lon="9.4083867"><ele>842.0</ele><time>2026-04-06T14:40:28.599Z</time></trkpt><trkpt lat="44.5163233" lon="9.408355"><ele>842.0</ele><time>2026-04-06T14:40:29.598Z</time></trkpt><trkpt lat="44.5164483" lon="9.4083433"><ele>843.75</ele><time>2026-04-06T14:40:30.598Z</time></trkpt><trkpt lat="44.5165683" lon="9.4083667"><ele>845.5</ele><time>2026-04-06T14:40:31.599Z</time></trkpt><trkpt lat="44.5166767" lon="9.40843"><ele>847.25</ele><time>2026-04-06T14:40:32.598Z</time></trkpt><trkpt lat="44.5167617" lon="9.4085283"><ele>849.0</ele><time>2026-04-06T14:40:33.599Z</time></trkpt><trkpt lat="44.5168267" lon="9.40867"><ele>851.0</ele><time>2026-04-06T14:40:34.597Z</time></trkpt><trkpt lat="44.5168683" lon="9.4088383"><ele>853.0</ele><time>2026-04-06T14:40:35.599Z</time></trkpt><trkpt lat="44.5168967" lon="9.4090233"><ele>855.0</ele><time>2026-04-06T14:40:36.597Z</time></trkpt><trkpt lat="44.516915" lon="9.4092133"><ele>857.0</ele><time>2026-04-06T14:40:37.6Z</time></trkpt><trkpt lat="44.5169167" lon="9.4094"><ele>857.0</ele><time>2026-04-06T14:40:38.6Z</time></trkpt><trkpt lat="44.5169" lon="9.4095817"><ele>857.0</ele><time>2026-04-06T14:40:39.598Z</time></trkpt><trkpt lat="44.51687" lon="9.4097617"><ele>857.0</ele><time>2026-04-06T14:40:40.598Z</time></trkpt><trkpt lat="44.5168317" lon="9.4099383"><ele>857.0</ele><time>2026-04-06T14:40:41.598Z</time></trkpt><trkpt lat="44.51679" lon="9.41011"><ele>857.0</ele><time>2026-04-06T14:40:42.598Z</time></trkpt><trkpt lat="44.5167633" lon="9.4102883"><ele>857.0</ele><time>2026-04-06T14:40:43.599Z</time></trkpt><trkpt lat="44.5167733" lon="9.41048"><ele>857.0</ele><time>2026-04-06T14:40:44.599Z</time></trkpt><trkpt lat="44.5168133" lon="9.4106733"><ele>857.0</ele><time>2026-04-06T14:40:45.598Z</time></trkpt><trkpt lat="44.5168783" lon="9.41087"><ele>857.75</ele><time>2026-04-06T14:40:46.598Z</time></trkpt><trkpt lat="44.5169383" lon="9.41106"><ele>858.5</ele><time>2026-04-06T14:40:47.598Z</time></trkpt><trkpt lat="44.51698" lon="9.4112517"><ele>859.25</ele><time>2026-04-06T14:40:48.598Z</time></trkpt><trkpt lat="44.5170117" lon="9.41145"><ele>860.0</ele><time>2026-04-06T14:40:49.6Z</time></trkpt><trkpt lat="44.5170333" lon="9.41166"><ele>862.0</ele><time>2026-04-06T14:40:50.599Z</time></trkpt><trkpt lat="44.5170467" lon="9.4118767"><ele>864.0</ele><time>2026-04-06T14:40:51.599Z</time></trkpt><trkpt lat="44.51705" lon="9.4120983"><ele>866.0</ele><time>2026-04-06T14:40:52.598Z</time></trkpt><trkpt lat="44.5170367" lon="9.4123233"><ele>867.0</ele><time>2026-04-06T14:40:53.598Z</time></trkpt><trkpt lat="44.5170117" lon="9.412545"><ele>868.0</ele><time>2026-04-06T14:40:54.598Z</time></trkpt><trkpt lat="44.5169717" lon="9.41275"><ele>869.0</ele><time>2026-04-06T14:40:55.598Z</time></trkpt><trkpt lat="44.5169317" lon="9.41294"><ele>868.5</ele><time>2026-04-06T14:40:56.598Z</time></trkpt><trkpt lat="44.5169033" lon="9.41311"><ele>868.0</ele><time>2026-04-06T14:40:57.598Z</time></trkpt><trkpt lat="44.516885" lon="9.41327"><ele>867.5</ele><time>2026-04-06T14:40:58.599Z</time></trkpt><trkpt lat="44.5169" lon="9.413415"><ele>867.0</ele><time>2026-04-06T14:40:59.598Z</time></trkpt><trkpt lat="44.5169483" lon="9.4135667"><ele>867.0</ele><time>2026-04-06T14:41:00.597Z</time></trkpt><trkpt lat="44.5170117" lon="9.4137233"><ele>867.0</ele><time>2026-04-06T14:41:01.598Z</time></trkpt><trkpt lat="44.5170717" lon="9.413885"><ele>867.0</ele><time>2026-04-06T14:41:02.598Z</time></trkpt><trkpt lat="44.5171217" lon="9.41403"><ele>867.0</ele><time>2026-04-06T14:41:03.598Z</time></trkpt><trkpt lat="44.5171733" lon="9.4141517"><ele>866.2</ele><time>2026-04-06T14:41:04.598Z</time></trkpt><trkpt lat="44.5172283" lon="9.41427"><ele>865.4000000000001</ele><time>2026-04-06T14:41:05.598Z</time></trkpt><trkpt lat="44.5172883" lon="9.4144017"><ele>864.5999999999999</ele><time>2026-04-06T14:41:06.598Z</time></trkpt><trkpt lat="44.5173367" lon="9.414545"><ele>863.8</ele><time>2026-04-06T14:41:07.599Z</time></trkpt><trkpt lat="44.517365" lon="9.4146883"><ele>863.0</ele><time>2026-04-06T14:41:08.599Z</time></trkpt><trkpt lat="44.5173783" lon="9.41483"><ele>863.0</ele><time>2026-04-06T14:41:09.597Z</time></trkpt><trkpt lat="44.517385" lon="9.41497"><ele>863.0</ele><time>2026-04-06T14:41:10.598Z</time></trkpt><trkpt lat="44.5173967" lon="9.4151067"><ele>863.0</ele><time>2026-04-06T14:41:11.598Z</time></trkpt><trkpt lat="44.5174217" lon="9.4152467"><ele>863.0</ele><time>2026-04-06T14:41:12.598Z</time></trkpt><trkpt lat="44.51747" lon="9.4153783"><ele>863.0</ele><time>2026-04-06T14:41:13.598Z</time></trkpt><trkpt lat="44.5175317" lon="9.41549"><ele>863.8</ele><time>2026-04-06T14:41:14.599Z</time></trkpt><trkpt lat="44.5176" lon="9.41557"><ele>864.5999999999999</ele><time>2026-04-06T14:41:15.597Z</time></trkpt><trkpt lat="44.5176817" lon="9.415625"><ele>865.4000000000001</ele><time>2026-04-06T14:41:16.598Z</time></trkpt><trkpt lat="44.51778" lon="9.41566"><ele>866.2</ele><time>2026-04-06T14:41:17.602Z</time></trkpt><trkpt lat="44.517895" lon="9.415685"><ele>867.0</ele><time>2026-04-06T14:41:18.597Z</time></trkpt><trkpt lat="44.5180233" lon="9.4157"><ele>867.0</ele><time>2026-04-06T14:41:19.598Z</time></trkpt><trkpt lat="44.51816" lon="9.4157117"><ele>867.0</ele><time>2026-04-06T14:41:20.599Z</time></trkpt><trkpt lat="44.5182933" lon="9.4157167"><ele>867.0</ele><time>2026-04-06T14:41:21.599Z</time></trkpt><trkpt lat="44.518425" lon="9.4157133"><ele>867.0</ele><time>2026-04-06T14:41:22.599Z</time></trkpt><trkpt lat="44.51855" lon="9.4156967"><ele>867.0</ele><time>2026-04-06T14:41:23.599Z</time></trkpt><trkpt lat="44.5186667" lon="9.4156683"><ele>867.0</ele><time>2026-04-06T14:41:24.598Z</time></trkpt><trkpt lat="44.5187883" lon="9.41563"><ele>867.0</ele><time>2026-04-06T14:41:25.599Z</time></trkpt><trkpt lat="44.5188983" lon="9.41558"><ele>867.0</ele><time>2026-04-06T14:41:26.599Z</time></trkpt><trkpt lat="44.5189967" lon="9.4154983"><ele>868.6666666666667</ele><time>2026-04-06T14:41:27.598Z</time></trkpt><trkpt lat="44.5190833" lon="9.41538"><ele>870.3333333333334</ele><time>2026-04-06T14:41:28.599Z</time></trkpt><trkpt lat="44.51918" lon="9.415195"><ele>872.0</ele><time>2026-04-06T14:41:29.599Z</time></trkpt><trkpt lat="44.5192917" lon="9.4149983"><ele>872.0</ele><time>2026-04-06T14:41:30.598Z</time></trkpt><trkpt lat="44.5194" lon="9.4148217"><ele>872.0</ele><time>2026-04-06T14:41:31.599Z</time></trkpt><trkpt lat="44.519505" lon="9.41468"><ele>872.0</ele><time>2026-04-06T14:41:32.599Z</time></trkpt><trkpt lat="44.5196117" lon="9.4145833"><ele>872.0</ele><time>2026-04-06T14:41:33.598Z</time></trkpt><trkpt lat="44.5197183" lon="9.414535"><ele>872.0</ele><time>2026-04-06T14:41:34.598Z</time></trkpt><trkpt lat="44.519825" lon="9.414545"><ele>872.0</ele><time>2026-04-06T14:41:35.598Z</time></trkpt><trkpt lat="44.5199133" lon="9.414605"><ele>872.0</ele><time>2026-04-06T14:41:36.599Z</time></trkpt><trkpt lat="44.51998" lon="9.4147133"><ele>872.0</ele><time>2026-04-06T14:41:37.597Z</time></trkpt><trkpt lat="44.5200167" lon="9.414855"><ele>872.0</ele><time>2026-04-06T14:41:38.598Z</time></trkpt><trkpt lat="44.52002" lon="9.4150033"><ele>874.5</ele><time>2026-04-06T14:41:39.597Z</time></trkpt><trkpt lat="44.5199917" lon="9.415145"><ele>877.0</ele><time>2026-04-06T14:41:40.598Z</time></trkpt><trkpt lat="44.5199417" lon="9.4152933"><ele>879.5</ele><time>2026-04-06T14:41:41.6Z</time></trkpt><trkpt lat="44.51988" lon="9.4154367"><ele>882.0</ele><time>2026-04-06T14:41:42.598Z</time></trkpt><trkpt lat="44.5198083" lon="9.415565"><ele>882.4000000000001</ele><time>2026-04-06T14:41:43.599Z</time></trkpt><trkpt lat="44.5197333" lon="9.4156817"><ele>882.8000000000001</ele><time>2026-04-06T14:41:44.599Z</time></trkpt><trkpt lat="44.51966" lon="9.4158"><ele>883.2</ele><time>2026-04-06T14:41:45.599Z</time></trkpt><trkpt lat="44.51958" lon="9.4159033"><ele>883.6</ele><time>2026-04-06T14:41:46.598Z</time></trkpt><trkpt lat="44.5195067" lon="9.4160067"><ele>884.0</ele><time>2026-04-06T14:41:47.599Z</time></trkpt><trkpt lat="44.51945" lon="9.416135"><ele>884.0</ele><time>2026-04-06T14:41:48.599Z</time></trkpt><trkpt lat="44.5194233" lon="9.4162933"><ele>884.0</ele><time>2026-04-06T14:41:49.598Z</time></trkpt><trkpt lat="44.5194317" lon="9.416475"><ele>884.0</ele><time>2026-04-06T14:41:50.599Z</time></trkpt><trkpt lat="44.5194783" lon="9.4166667"><ele>884.0</ele><time>2026-04-06T14:41:51.597Z</time></trkpt><trkpt lat="44.5195533" lon="9.4168533"><ele>888.6666666666667</ele><time>2026-04-06T14:41:52.598Z</time></trkpt><trkpt lat="44.5196467" lon="9.41703"><ele>893.3333333333333</ele><time>2026-04-06T14:41:53.598Z</time></trkpt><trkpt lat="44.5197517" lon="9.4171867"><ele>898.0</ele><time>2026-04-06T14:41:54.598Z</time></trkpt><trkpt lat="44.5198683" lon="9.4173267"><ele>898.3333333333333</ele><time>2026-04-06T14:41:55.598Z</time></trkpt><trkpt lat="44.5200017" lon="9.41745"><ele>898.6666666666667</ele><time>2026-04-06T14:41:56.599Z</time></trkpt><trkpt lat="44.5201533" lon="9.41756"><ele>899.0</ele><time>2026-04-06T14:41:57.597Z</time></trkpt><trkpt lat="44.520315" lon="9.4176633"><ele>899.6666666666667</ele><time>2026-04-06T14:41:58.598Z</time></trkpt><trkpt lat="44.5204733" lon="9.4177667"><ele>900.3333333333333</ele><time>2026-04-06T14:41:59.599Z</time></trkpt><trkpt lat="44.5206167" lon="9.4178633"><ele>901.0</ele><time>2026-04-06T14:42:00.598Z</time></trkpt><trkpt lat="44.5207533" lon="9.4179517"><ele>900.75</ele><time>2026-04-06T14:42:01.598Z</time></trkpt><trkpt lat="44.5208767" lon="9.4180417"><ele>900.5</ele><time>2026-04-06T14:42:02.6Z</time></trkpt><trkpt lat="44.520975" lon="9.4181467"><ele>900.25</ele><time>2026-04-06T14:42:03.599Z</time></trkpt><trkpt lat="44.52105" lon="9.418275"><ele>900.0</ele><time>2026-04-06T14:42:04.599Z</time></trkpt><trkpt lat="44.5210917" lon="9.4184317"><ele>900.0</ele><time>2026-04-06T14:42:05.599Z</time></trkpt><trkpt lat="44.5211017" lon="9.4186083"><ele>900.0</ele><time>2026-04-06T14:42:06.597Z</time></trkpt><trkpt lat="44.5210833" lon="9.4188083"><ele>900.0</ele><time>2026-04-06T14:42:07.597Z</time></trkpt><trkpt lat="44.5210667" lon="9.4190167"><ele>900.0</ele><time>2026-04-06T14:42:08.599Z</time></trkpt><trkpt lat="44.5210783" lon="9.4192217"><ele>900.0</ele><time>2026-04-06T14:42:09.597Z</time></trkpt><trkpt lat="44.5211233" lon="9.41941"><ele>900.0</ele><time>2026-04-06T14:42:10.597Z</time></trkpt><trkpt lat="44.5212017" lon="9.4195667"><ele>900.0</ele><time>2026-04-06T14:42:11.598Z</time></trkpt><trkpt lat="44.5212967" lon="9.4197"><ele>900.0</ele><time>2026-04-06T14:42:12.598Z</time></trkpt><trkpt lat="44.5213733" lon="9.41983"><ele>895.25</ele><time>2026-04-06T14:42:13.598Z</time></trkpt><trkpt lat="44.5214233" lon="9.4199767"><ele>890.5</ele><time>2026-04-06T14:42:14.598Z</time></trkpt><trkpt lat="44.5214383" lon="9.420155"><ele>885.75</ele><time>2026-04-06T14:42:15.598Z</time></trkpt><trkpt lat="44.5214" lon="9.4203467"><ele>881.0</ele><time>2026-04-06T14:42:16.598Z</time></trkpt><trkpt lat="44.5213167" lon="9.420555"><ele>886.0</ele><time>2026-04-06T14:42:17.599Z</time></trkpt><trkpt lat="44.5212067" lon="9.4207667"><ele>891.0</ele><time>2026-04-06T14:42:18.598Z</time></trkpt><trkpt lat="44.5210983" lon="9.420965"><ele>896.0</ele><time>2026-04-06T14:42:19.599Z</time></trkpt><trkpt lat="44.5209983" lon="9.4211483"><ele>896.0</ele><time>2026-04-06T14:42:20.599Z</time></trkpt><trkpt lat="44.5209183" lon="9.4213117"><ele>896.0</ele><time>2026-04-06T14:42:21.598Z</time></trkpt><trkpt lat="44.5208633" lon="9.4214717"><ele>896.0</ele><time>2026-04-06T14:42:22.598Z</time></trkpt><trkpt lat="44.520855" lon="9.4216333"><ele>896.0</ele><time>2026-04-06T14:42:23.599Z</time></trkpt><trkpt lat="44.52089" lon="9.4217933"><ele>894.5999999999999</ele><time>2026-04-06T14:42:24.598Z</time></trkpt><trkpt lat="44.5209617" lon="9.4219133"><ele>893.1999999999999</ele><time>2026-04-06T14:42:25.599Z</time></trkpt><trkpt lat="44.5210583" lon="9.4219883"><ele>891.8000000000001</ele><time>2026-04-06T14:42:26.597Z</time></trkpt><trkpt lat="44.5211717" lon="9.4220167"><ele>890.4000000000001</ele><time>2026-04-06T14:42:27.598Z</time></trkpt><trkpt lat="44.5212817" lon="9.4220317"><ele>889.0</ele><time>2026-04-06T14:42:28.597Z</time></trkpt><trkpt lat="44.5213817" lon="9.42207"><ele>885.25</ele><time>2026-04-06T14:42:29.598Z</time></trkpt><trkpt lat="44.521465" lon="9.4221617"><ele>881.5</ele><time>2026-04-06T14:42:30.598Z</time></trkpt><trkpt lat="44.5215267" lon="9.4222983"><ele>877.75</ele><time>2026-04-06T14:42:31.599Z</time></trkpt><trkpt lat="44.5215717" lon="9.4224733"><ele>874.0</ele><time>2026-04-06T14:42:32.599Z</time></trkpt><trkpt lat="44.5216" lon="9.42267"><ele>874.0</ele><time>2026-04-06T14:42:33.599Z</time></trkpt><trkpt lat="44.5216217" lon="9.42288"><ele>874.0</ele><time>2026-04-06T14:42:34.597Z</time></trkpt><trkpt lat="44.5216333" lon="9.423095"><ele>874.0</ele><time>2026-04-06T14:42:35.597Z</time></trkpt><trkpt lat="44.5216433" lon="9.42331"><ele>873.5</ele><time>2026-04-06T14:42:36.598Z</time></trkpt><trkpt lat="44.5216583" lon="9.42352"><ele>873.0</ele><time>2026-04-06T14:42:37.598Z</time></trkpt><trkpt lat="44.521665" lon="9.423725"><ele>872.5</ele><time>2026-04-06T14:42:38.599Z</time></trkpt><trkpt lat="44.521645" lon="9.4239267"><ele>872.0</ele><time>2026-04-06T14:42:39.598Z</time></trkpt><trkpt lat="44.5216117" lon="9.4241233"><ele>871.0</ele><time>2026-04-06T14:42:40.598Z</time></trkpt><trkpt lat="44.5215617" lon="9.4243083"><ele>870.0</ele><time>2026-04-06T14:42:41.599Z</time></trkpt><trkpt lat="44.521485" lon="9.42447"><ele>869.0</ele><time>2026-04-06T14:42:42.598Z</time></trkpt><trkpt lat="44.521395" lon="9.4246217"><ele>868.0</ele><time>2026-04-06T14:42:43.598Z</time></trkpt><trkpt lat="44.5212817" lon="9.42476"><ele>868.0</ele><time>2026-04-06T14:42:44.599Z</time></trkpt><trkpt lat="44.5211617" lon="9.4248917"><ele>868.0</ele><time>2026-04-06T14:42:45.597Z</time></trkpt><trkpt lat="44.52104" lon="9.4250117"><ele>868.0</ele><time>2026-04-06T14:42:46.598Z</time></trkpt><trkpt lat="44.5209133" lon="9.4251183"><ele>868.0</ele><time>2026-04-06T14:42:47.598Z</time></trkpt><trkpt lat="44.520785" lon="9.4252117"><ele>868.0</ele><time>2026-04-06T14:42:48.597Z</time></trkpt><trkpt lat="44.5206533" lon="9.4252883"><ele>868.0</ele><time>2026-04-06T14:42:49.598Z</time></trkpt><trkpt lat="44.5205183" lon="9.4253433"><ele>868.0</ele><time>2026-04-06T14:42:50.599Z</time></trkpt><trkpt lat="44.5203733" lon="9.42537"><ele>868.0</ele><time>2026-04-06T14:42:51.598Z</time></trkpt><trkpt lat="44.5202267" lon="9.4253817"><ele>869.75</ele><time>2026-04-06T14:42:52.597Z</time></trkpt><trkpt lat="44.5200833" lon="9.4253817"><ele>871.5</ele><time>2026-04-06T14:42:53.598Z</time></trkpt><trkpt lat="44.5199467" lon="9.4253833"><ele>873.25</ele><time>2026-04-06T14:42:54.598Z</time></trkpt><trkpt lat="44.51982" lon="9.42541"><ele>875.0</ele><time>2026-04-06T14:42:55.598Z</time></trkpt><trkpt lat="44.5197133" lon="9.425475"><ele>871.8</ele><time>2026-04-06T14:42:56.599Z</time></trkpt><trkpt lat="44.5196367" lon="9.425575"><ele>868.6</ele><time>2026-04-06T14:42:57.598Z</time></trkpt><trkpt lat="44.519595" lon="9.42569"><ele>865.4000000000001</ele><time>2026-04-06T14:42:58.598Z</time></trkpt><trkpt lat="44.5195833" lon="9.4258233"><ele>862.2</ele><time>2026-04-06T14:42:59.598Z</time></trkpt><trkpt lat="44.5196133" lon="9.4259483"><ele>859.0</ele><time>2026-04-06T14:43:00.599Z</time></trkpt><trkpt lat="44.5196683" lon="9.426055"><ele>859.0</ele><time>2026-04-06T14:43:01.598Z</time></trkpt><trkpt lat="44.5197967" lon="9.426095"><ele>859.0</ele><time>2026-04-06T14:43:02.599Z</time></trkpt><trkpt lat="44.51995" lon="9.4261083"><ele>859.0</ele><time>2026-04-06T14:43:03.598Z</time></trkpt><trkpt lat="44.5201267" lon="9.4261317"><ele>859.0</ele><time>2026-04-06T14:43:04.598Z</time></trkpt><trkpt lat="44.5203233" lon="9.426155"><ele>859.0</ele><time>2026-04-06T14:43:05.598Z</time></trkpt><trkpt lat="44.5205017" lon="9.4262083"><ele>859.0</ele><time>2026-04-06T14:43:06.598Z</time></trkpt><trkpt lat="44.5206617" lon="9.4262767"><ele>857.3333333333333</ele><time>2026-04-06T14:43:07.6Z</time></trkpt><trkpt lat="44.5208133" lon="9.4263517"><ele>855.6666666666667</ele><time>2026-04-06T14:43:08.598Z</time></trkpt><trkpt lat="44.520965" lon="9.4264617"><ele>854.0</ele><time>2026-04-06T14:43:09.599Z</time></trkpt><trkpt lat="44.5211217" lon="9.4265433"><ele>848.3333333333334</ele><time>2026-04-06T14:43:10.597Z</time></trkpt><trkpt lat="44.5212683" lon="9.4266"><ele>842.6666666666667</ele><time>2026-04-06T14:43:11.598Z</time></trkpt><trkpt lat="44.5214067" lon="9.426675"><ele>837.0</ele><time>2026-04-06T14:43:12.597Z</time></trkpt><trkpt lat="44.5215367" lon="9.4267883"><ele>837.0</ele><time>2026-04-06T14:43:13.598Z</time></trkpt><trkpt lat="44.5216567" lon="9.426925"><ele>837.0</ele><time>2026-04-06T14:43:14.598Z</time></trkpt><trkpt lat="44.5217617" lon="9.42706"><ele>837.0</ele><time>2026-04-06T14:43:15.598Z</time></trkpt><trkpt lat="44.5218567" lon="9.4271983"><ele>837.0</ele><time>2026-04-06T14:43:16.598Z</time></trkpt><trkpt lat="44.5219333" lon="9.4273383"><ele>839.5</ele><time>2026-04-06T14:43:17.599Z</time></trkpt><trkpt lat="44.52198" lon="9.4275"><ele>842.0</ele><time>2026-04-06T14:43:18.598Z</time></trkpt><trkpt lat="44.5220017" lon="9.4276733"><ele>844.5</ele><time>2026-04-06T14:43:19.599Z</time></trkpt><trkpt lat="44.5219867" lon="9.4278567"><ele>847.0</ele><time>2026-04-06T14:43:20.599Z</time></trkpt><trkpt lat="44.5219533" lon="9.4280467"><ele>847.25</ele><time>2026-04-06T14:43:21.598Z</time></trkpt><trkpt lat="44.5219133" lon="9.428235"><ele>847.5</ele><time>2026-04-06T14:43:22.597Z</time></trkpt><trkpt lat="44.5219083" lon="9.42842"><ele>847.75</ele><time>2026-04-06T14:43:23.598Z</time></trkpt><trkpt lat="44.521935" lon="9.4285867"><ele>848.0</ele><time>2026-04-06T14:43:24.598Z</time></trkpt><trkpt lat="44.5219983" lon="9.428715"><ele>841.5</ele><time>2026-04-06T14:43:25.599Z</time></trkpt><trkpt lat="44.52209" lon="9.4287867"><ele>835.0</ele><time>2026-04-06T14:43:26.598Z</time></trkpt><trkpt lat="44.5222067" lon="9.4288067"><ele>828.5</ele><time>2026-04-06T14:43:27.598Z</time></trkpt><trkpt lat="44.5223233" lon="9.4287717"><ele>822.0</ele><time>2026-04-06T14:43:28.597Z</time></trkpt><trkpt lat="44.5224333" lon="9.4286633"><ele>822.0</ele><time>2026-04-06T14:43:29.598Z</time></trkpt><trkpt lat="44.5225383" lon="9.428555"><ele>822.0</ele><time>2026-04-06T14:43:30.598Z</time></trkpt><trkpt lat="44.5226383" lon="9.42848"><ele>822.0</ele><time>2026-04-06T14:43:31.599Z</time></trkpt><trkpt lat="44.5227317" lon="9.4284917"><ele>822.0</ele><time>2026-04-06T14:43:32.598Z</time></trkpt><trkpt lat="44.5228017" lon="9.4285733"><ele>822.0</ele><time>2026-04-06T14:43:33.597Z</time></trkpt><trkpt lat="44.5228383" lon="9.4287233"><ele>824.6666666666667</ele><time>2026-04-06T14:43:34.599Z</time></trkpt><trkpt lat="44.5228417" lon="9.4289267"><ele>827.3333333333334</ele><time>2026-04-06T14:43:35.6Z</time></trkpt><trkpt lat="44.522845" lon="9.4291483"><ele>830.0</ele><time>2026-04-06T14:43:36.599Z</time></trkpt><trkpt lat="44.52285" lon="9.429365"><ele>830.0</ele><time>2026-04-06T14:43:37.598Z</time></trkpt><trkpt lat="44.522855" lon="9.429575"><ele>830.0</ele><time>2026-04-06T14:43:38.599Z</time></trkpt><trkpt lat="44.5228383" lon="9.429785"><ele>830.0</ele><time>2026-04-06T14:43:39.598Z</time></trkpt><trkpt lat="44.5228" lon="9.4299867"><ele>830.0</ele><time>2026-04-06T14:43:40.599Z</time></trkpt><trkpt lat="44.5227583" lon="9.4301867"><ele>830.75</ele><time>2026-04-06T14:43:41.599Z</time></trkpt><trkpt lat="44.5227267" lon="9.4303917"><ele>831.5</ele><time>2026-04-06T14:43:42.597Z</time></trkpt><trkpt lat="44.522705" lon="9.4305967"><ele>832.25</ele><time>2026-04-06T14:43:43.597Z</time></trkpt><trkpt lat="44.5226783" lon="9.4308017"><ele>833.0</ele><time>2026-04-06T14:43:44.598Z</time></trkpt><trkpt lat="44.5226333" lon="9.4309917"><ele>831.25</ele><time>2026-04-06T14:43:45.598Z</time></trkpt><trkpt lat="44.5225933" lon="9.431175"><ele>829.5</ele><time>2026-04-06T14:43:46.598Z</time></trkpt><trkpt lat="44.5225817" lon="9.4313633"><ele>827.75</ele><time>2026-04-06T14:43:47.597Z</time></trkpt><trkpt lat="44.5226033" lon="9.4315533"><ele>826.0</ele><time>2026-04-06T14:43:48.597Z</time></trkpt><trkpt lat="44.52265" lon="9.4317467"><ele>823.5</ele><time>2026-04-06T14:43:49.598Z</time></trkpt><trkpt lat="44.5226983" lon="9.4319317"><ele>821.0</ele><time>2026-04-06T14:43:50.597Z</time></trkpt><trkpt lat="44.5227383" lon="9.4321067"><ele>818.5</ele><time>2026-04-06T14:43:51.599Z</time></trkpt><trkpt lat="44.5227533" lon="9.43227"><ele>816.0</ele><time>2026-04-06T14:43:52.598Z</time></trkpt><trkpt lat="44.5227333" lon="9.4324233"><ele>811.75</ele><time>2026-04-06T14:43:53.599Z</time></trkpt><trkpt lat="44.52267" lon="9.4325633"><ele>807.5</ele><time>2026-04-06T14:43:54.597Z</time></trkpt><trkpt lat="44.52256" lon="9.4326867"><ele>803.25</ele><time>2026-04-06T14:43:55.599Z</time></trkpt><trkpt lat="44.5224133" lon="9.4327883"><ele>799.0</ele><time>2026-04-06T14:43:56.599Z</time></trkpt><trkpt lat="44.5222633" lon="9.4328767"><ele>798.75</ele><time>2026-04-06T14:43:57.599Z</time></trkpt><trkpt lat="44.5221217" lon="9.4329783"><ele>798.5</ele><time>2026-04-06T14:43:58.599Z</time></trkpt><trkpt lat="44.522005" lon="9.433105"><ele>798.25</ele><time>2026-04-06T14:43:59.599Z</time></trkpt><trkpt lat="44.521905" lon="9.433245"><ele>798.0</ele><time>2026-04-06T14:44:00.598Z</time></trkpt><trkpt lat="44.5218067" lon="9.4333883"><ele>798.0</ele><time>2026-04-06T14:44:01.598Z</time></trkpt><trkpt lat="44.5216983" lon="9.433505"><ele>798.0</ele><time>2026-04-06T14:44:02.598Z</time></trkpt><trkpt lat="44.5215783" lon="9.4335883"><ele>798.0</ele><time>2026-04-06T14:44:03.598Z</time></trkpt><trkpt lat="44.5214567" lon="9.4336467"><ele>798.0</ele><time>2026-04-06T14:44:04.598Z</time></trkpt><trkpt lat="44.5213483" lon="9.4337033"><ele>798.0</ele><time>2026-04-06T14:44:05.598Z</time></trkpt><trkpt lat="44.5212633" lon="9.4337983"><ele>798.0</ele><time>2026-04-06T14:44:06.598Z</time></trkpt><trkpt lat="44.5212067" lon="9.433925"><ele>798.0</ele><time>2026-04-06T14:44:07.598Z</time></trkpt><trkpt lat="44.5212133" lon="9.43408"><ele>798.0</ele><time>2026-04-06T14:44:08.597Z</time></trkpt><trkpt lat="44.5212517" lon="9.4342433"><ele>798.0</ele><time>2026-04-06T14:44:09.598Z</time></trkpt><trkpt lat="44.5212817" lon="9.434415"><ele>797.5</ele><time>2026-04-06T14:44:10.6Z</time></trkpt><trkpt lat="44.5212817" lon="9.4345933"><ele>797.0</ele><time>2026-04-06T14:44:11.599Z</time></trkpt><trkpt lat="44.5212533" lon="9.4347783"><ele>796.5</ele><time>2026-04-06T14:44:12.599Z</time></trkpt><trkpt lat="44.5211983" lon="9.4349667"><ele>796.0</ele><time>2026-04-06T14:44:13.599Z</time></trkpt><trkpt lat="44.5211333" lon="9.435155"><ele>796.0</ele><time>2026-04-06T14:44:14.598Z</time></trkpt><trkpt lat="44.5210483" lon="9.4353233"><ele>796.0</ele><time>2026-04-06T14:44:15.598Z</time></trkpt><trkpt lat="44.5209567" lon="9.43547"><ele>796.0</ele><time>2026-04-06T14:44:16.598Z</time></trkpt><trkpt lat="44.5208467" lon="9.4355833"><ele>796.0</ele><time>2026-04-06T14:44:17.597Z</time></trkpt><trkpt lat="44.5207283" lon="9.4356683"><ele>789.0</ele><time>2026-04-06T14:44:18.597Z</time></trkpt><trkpt lat="44.5205883" lon="9.435705"><ele>782.0</ele><time>2026-04-06T14:44:19.597Z</time></trkpt><trkpt lat="44.5204467" lon="9.4357167"><ele>775.0</ele><time>2026-04-06T14:44:20.599Z</time></trkpt><trkpt lat="44.520305" lon="9.4356967"><ele>768.0</ele><time>2026-04-06T14:44:21.597Z</time></trkpt><trkpt lat="44.5201667" lon="9.43565"><ele>768.0</ele><time>2026-04-06T14:44:22.598Z</time></trkpt><trkpt lat="44.5200267" lon="9.4356017"><ele>768.0</ele><time>2026-04-06T14:44:23.597Z</time></trkpt><trkpt lat="44.5198883" lon="9.43558"><ele>768.0</ele><time>2026-04-06T14:44:24.598Z</time></trkpt><trkpt lat="44.5197517" lon="9.43558"><ele>768.0</ele><time>2026-04-06T14:44:25.598Z</time></trkpt><trkpt lat="44.5196233" lon="9.4355983"><ele>769.4</ele><time>2026-04-06T14:44:26.598Z</time></trkpt><trkpt lat="44.5195" lon="9.4356367"><ele>770.8</ele><time>2026-04-06T14:44:27.599Z</time></trkpt><trkpt lat="44.5193983" lon="9.4356983"><ele>772.2</ele><time>2026-04-06T14:44:28.599Z</time></trkpt><trkpt lat="44.5193317" lon="9.4358083"><ele>773.6</ele><time>2026-04-06T14:44:29.599Z</time></trkpt><trkpt lat="44.519295" lon="9.4359467"><ele>775.0</ele><time>2026-04-06T14:44:30.599Z</time></trkpt><trkpt lat="44.5192817" lon="9.4361033"><ele>775.0</ele><time>2026-04-06T14:44:31.599Z</time></trkpt><trkpt lat="44.5192867" lon="9.4362567"><ele>775.0</ele><time>2026-04-06T14:44:32.599Z</time></trkpt><trkpt lat="44.5193183" lon="9.4364033"><ele>775.0</ele><time>2026-04-06T14:44:33.599Z</time></trkpt><trkpt lat="44.5193817" lon="9.4365367"><ele>775.0</ele><time>2026-04-06T14:44:34.599Z</time></trkpt><trkpt lat="44.519475" lon="9.4366483"><ele>771.6666666666666</ele><time>2026-04-06T14:44:35.599Z</time></trkpt><trkpt lat="44.5195967" lon="9.4367467"><ele>768.3333333333333</ele><time>2026-04-06T14:44:36.599Z</time></trkpt><trkpt lat="44.519735" lon="9.43684"><ele>765.0</ele><time>2026-04-06T14:44:37.6Z</time></trkpt><trkpt lat="44.5198767" lon="9.4369333"><ele>765.0</ele><time>2026-04-06T14:44:38.598Z</time></trkpt><trkpt lat="44.5200267" lon="9.4370317"><ele>765.0</ele><time>2026-04-06T14:44:39.598Z</time></trkpt><trkpt lat="44.520185" lon="9.4371333"><ele>765.0</ele><time>2026-04-06T14:44:40.598Z</time></trkpt><trkpt lat="44.5203317" lon="9.43724"><ele>766.0</ele><time>2026-04-06T14:44:41.603Z</time></trkpt><trkpt lat="44.5204683" lon="9.43734"><ele>767.0</ele><time>2026-04-06T14:44:42.599Z</time></trkpt><trkpt lat="44.52061" lon="9.43743"><ele>768.0</ele><time>2026-04-06T14:44:43.599Z</time></trkpt><trkpt lat="44.5207283" lon="9.4375117"><ele>769.0</ele><time>2026-04-06T14:44:44.599Z</time></trkpt><trkpt lat="44.52084" lon="9.43759"><ele>769.0</ele><time>2026-04-06T14:44:45.599Z</time></trkpt><trkpt lat="44.5209417" lon="9.4376917"><ele>769.0</ele><time>2026-04-06T14:44:46.599Z</time></trkpt><trkpt lat="44.5210233" lon="9.4378233"><ele>769.0</ele><time>2026-04-06T14:44:47.598Z</time></trkpt><trkpt lat="44.5210867" lon="9.4379833"><ele>769.0</ele><time>2026-04-06T14:44:48.598Z</time></trkpt><trkpt lat="44.5211333" lon="9.4381483"><ele>774.25</ele><time>2026-04-06T14:44:49.599Z</time></trkpt><trkpt lat="44.5211667" lon="9.43831"><ele>779.5</ele><time>2026-04-06T14:44:50.598Z</time></trkpt><trkpt lat="44.5211933" lon="9.438465"><ele>784.75</ele><time>2026-04-06T14:44:51.598Z</time></trkpt><trkpt lat="44.521205" lon="9.4386217"><ele>790.0</ele><time>2026-04-06T14:44:52.597Z</time></trkpt><trkpt lat="44.5211933" lon="9.4387967"><ele>792.0</ele><time>2026-04-06T14:44:53.597Z</time></trkpt><trkpt lat="44.5211667" lon="9.4389867"><ele>794.0</ele><time>2026-04-06T14:44:54.598Z</time></trkpt><trkpt lat="44.521135" lon="9.4391883"><ele>796.0</ele><time>2026-04-06T14:44:55.598Z</time></trkpt><trkpt lat="44.5210967" lon="9.439395"><ele>798.0</ele><time>2026-04-06T14:44:56.597Z</time></trkpt><trkpt lat="44.5210517" lon="9.439595"><ele>795.5</ele><time>2026-04-06T14:44:57.598Z</time></trkpt><trkpt lat="44.521005" lon="9.43979"><ele>793.0</ele><time>2026-04-06T14:44:58.599Z</time></trkpt><trkpt lat="44.5209467" lon="9.43997"><ele>790.5</ele><time>2026-04-06T14:44:59.598Z</time></trkpt><trkpt lat="44.5208717" lon="9.44013"><ele>788.0</ele><time>2026-04-06T14:45:00.597Z</time></trkpt><trkpt lat="44.520785" lon="9.440275"><ele>788.0</ele><time>2026-04-06T14:45:01.599Z</time></trkpt><trkpt lat="44.5206917" lon="9.4404167"><ele>788.0</ele><time>2026-04-06T14:45:02.597Z</time></trkpt><trkpt lat="44.5206233" lon="9.4405817"><ele>788.0</ele><time>2026-04-06T14:45:03.598Z</time></trkpt><trkpt lat="44.5205717" lon="9.4407667"><ele>788.0</ele><time>2026-04-06T14:45:04.6Z</time></trkpt><trkpt lat="44.5205317" lon="9.4409617"><ele>783.75</ele><time>2026-04-06T14:45:05.598Z</time></trkpt><trkpt lat="44.52049" lon="9.4411567"><ele>779.5</ele><time>2026-04-06T14:45:06.598Z</time></trkpt><trkpt lat="44.5204533" lon="9.4413467"><ele>775.25</ele><time>2026-04-06T14:45:07.598Z</time></trkpt><trkpt lat="44.5204317" lon="9.4415417"><ele>771.0</ele><time>2026-04-06T14:45:08.598Z</time></trkpt><trkpt lat="44.5204317" lon="9.4417333"><ele>769.0</ele><time>2026-04-06T14:45:09.598Z</time></trkpt><trkpt lat="44.52045" lon="9.44191"><ele>767.0</ele><time>2026-04-06T14:45:10.598Z</time></trkpt><trkpt lat="44.5204733" lon="9.4420733"><ele>765.0</ele><time>2026-04-06T14:45:11.599Z</time></trkpt><trkpt lat="44.5204867" lon="9.4422283"><ele>763.0</ele><time>2026-04-06T14:45:12.598Z</time></trkpt><trkpt lat="44.5204783" lon="9.4423783"><ele>761.5</ele><time>2026-04-06T14:45:13.599Z</time></trkpt><trkpt lat="44.5204317" lon="9.442515"><ele>760.0</ele><time>2026-04-06T14:45:14.599Z</time></trkpt><trkpt lat="44.52036" lon="9.442645"><ele>758.5</ele><time>2026-04-06T14:45:15.599Z</time></trkpt><trkpt lat="44.5202867" lon="9.4427733"><ele>757.0</ele><time>2026-04-06T14:45:16.598Z</time></trkpt><trkpt lat="44.5202383" lon="9.4429183"><ele>768.75</ele><time>2026-04-06T14:45:17.598Z</time></trkpt><trkpt lat="44.52022" lon="9.4430883"><ele>780.5</ele><time>2026-04-06T14:45:18.598Z</time></trkpt><trkpt lat="44.5202233" lon="9.4432767"><ele>792.25</ele><time>2026-04-06T14:45:19.597Z</time></trkpt><trkpt lat="44.5202383" lon="9.4434683"><ele>804.0</ele><time>2026-04-06T14:45:20.599Z</time></trkpt><trkpt lat="44.52025" lon="9.443665"><ele>802.6666666666667</ele><time>2026-04-06T14:45:21.598Z</time></trkpt><trkpt lat="44.5202417" lon="9.443865"><ele>801.3333333333334</ele><time>2026-04-06T14:45:22.599Z</time></trkpt><trkpt lat="44.52022" lon="9.444075"><ele>800.0</ele><time>2026-04-06T14:45:23.599Z</time></trkpt><trkpt lat="44.52019" lon="9.4442967"><ele>800.0</ele><time>2026-04-06T14:45:24.597Z</time></trkpt><trkpt lat="44.5201583" lon="9.4445333"><ele>800.0</ele><time>2026-04-06T14:45:25.597Z</time></trkpt><trkpt lat="44.5201317" lon="9.4447833"><ele>800.0</ele><time>2026-04-06T14:45:26.6Z</time></trkpt><trkpt lat="44.52011" lon="9.44503"><ele>796.6666666666667</ele><time>2026-04-06T14:45:27.598Z</time></trkpt><trkpt lat="44.520095" lon="9.4452617"><ele>793.3333333333333</ele><time>2026-04-06T14:45:28.599Z</time></trkpt><trkpt lat="44.520085" lon="9.4454833"><ele>790.0</ele><time>2026-04-06T14:45:29.598Z</time></trkpt><trkpt lat="44.5200717" lon="9.4456983"><ele>789.6666666666666</ele><time>2026-04-06T14:45:30.598Z</time></trkpt><trkpt lat="44.5200567" lon="9.44591"><ele>789.3333333333333</ele><time>2026-04-06T14:45:31.597Z</time></trkpt><trkpt lat="44.5200433" lon="9.4461233"><ele>789.0</ele><time>2026-04-06T14:45:32.6Z</time></trkpt><trkpt lat="44.5200433" lon="9.4463433"><ele>788.6666666666667</ele><time>2026-04-06T14:45:33.598Z</time></trkpt><trkpt lat="44.5200767" lon="9.44657"><ele>788.3333333333334</ele><time>2026-04-06T14:45:34.598Z</time></trkpt><trkpt lat="44.52014" lon="9.4468167"><ele>788.0</ele><time>2026-04-06T14:45:35.598Z</time></trkpt><trkpt lat="44.5202217" lon="9.447095"><ele>790.3333333333334</ele><time>2026-04-06T14:45:36.598Z</time></trkpt><trkpt lat="44.5203033" lon="9.447375"><ele>792.6666666666667</ele><time>2026-04-06T14:45:37.599Z</time></trkpt><trkpt lat="44.5203783" lon="9.447635"><ele>795.0</ele><time>2026-04-06T14:45:38.599Z</time></trkpt><trkpt lat="44.520445" lon="9.447875"><ele>783.6666666666666</ele><time>2026-04-06T14:45:39.598Z</time></trkpt><trkpt lat="44.5205017" lon="9.4481017"><ele>772.3333333333333</ele><time>2026-04-06T14:45:40.597Z</time></trkpt><trkpt lat="44.5205267" lon="9.4483217"><ele>761.0</ele><time>2026-04-06T14:45:41.602Z</time></trkpt><trkpt lat="44.5205317" lon="9.4485367"><ele>761.0</ele><time>2026-04-06T14:45:42.599Z</time></trkpt><trkpt lat="44.52049" lon="9.44875"><ele>761.0</ele><time>2026-04-06T14:45:43.598Z</time></trkpt><trkpt lat="44.5204067" lon="9.4489617"><ele>761.0</ele><time>2026-04-06T14:45:44.599Z</time></trkpt><trkpt lat="44.520305" lon="9.449165"><ele>763.3333333333333</ele><time>2026-04-06T14:45:45.598Z</time></trkpt><trkpt lat="44.5202033" lon="9.4493617"><ele>765.6666666666666</ele><time>2026-04-06T14:45:46.599Z</time></trkpt><trkpt lat="44.520105" lon="9.44955"><ele>768.0</ele><time>2026-04-06T14:45:47.598Z</time></trkpt><trkpt lat="44.5200083" lon="9.4497267"><ele>768.0</ele><time>2026-04-06T14:45:48.598Z</time></trkpt><trkpt lat="44.5199183" lon="9.4499033"><ele>768.0</ele><time>2026-04-06T14:45:49.599Z</time></trkpt><trkpt lat="44.519845" lon="9.4500883"><ele>768.0</ele><time>2026-04-06T14:45:50.599Z</time></trkpt><trkpt lat="44.5197967" lon="9.4502933"><ele>767.6666666666666</ele><time>2026-04-06T14:45:51.598Z</time></trkpt><trkpt lat="44.519765" lon="9.4505067"><ele>767.3333333333333</ele><time>2026-04-06T14:45:52.598Z</time></trkpt><trkpt lat="44.5197483" lon="9.45072"><ele>767.0</ele><time>2026-04-06T14:45:53.598Z</time></trkpt><trkpt lat="44.519755" lon="9.4509233"><ele>767.0</ele><time>2026-04-06T14:45:54.598Z</time></trkpt><trkpt lat="44.519785" lon="9.451115"><ele>767.0</ele><time>2026-04-06T14:45:55.597Z</time></trkpt><trkpt lat="44.5198233" lon="9.4512883"><ele>767.0</ele><time>2026-04-06T14:45:56.599Z</time></trkpt><trkpt lat="44.5198517" lon="9.4514517"><ele>767.0</ele><time>2026-04-06T14:45:57.597Z</time></trkpt><trkpt lat="44.519865" lon="9.45161"><ele>765.5</ele><time>2026-04-06T14:45:58.599Z</time></trkpt><trkpt lat="44.51985" lon="9.45177"><ele>764.0</ele><time>2026-04-06T14:45:59.597Z</time></trkpt><trkpt lat="44.519805" lon="9.4519417"><ele>762.5</ele><time>2026-04-06T14:46:00.601Z</time></trkpt><trkpt lat="44.519735" lon="9.452095"><ele>761.0</ele><time>2026-04-06T14:46:01.599Z</time></trkpt><trkpt lat="44.519645" lon="9.4522183"><ele>763.75</ele><time>2026-04-06T14:46:02.598Z</time></trkpt><trkpt lat="44.5195333" lon="9.4523083"><ele>766.5</ele><time>2026-04-06T14:46:03.598Z</time></trkpt><trkpt lat="44.5194133" lon="9.4523767"><ele>769.25</ele><time>2026-04-06T14:46:04.597Z</time></trkpt><trkpt lat="44.5192967" lon="9.4524383"><ele>772.0</ele><time>2026-04-06T14:46:05.598Z</time></trkpt><trkpt lat="44.51919" lon="9.4525017"><ele>772.0</ele><time>2026-04-06T14:46:06.598Z</time></trkpt><trkpt lat="44.519095" lon="9.452575"><ele>772.0</ele><time>2026-04-06T14:46:07.598Z</time></trkpt><trkpt lat="44.5190233" lon="9.4526717"><ele>772.0</ele><time>2026-04-06T14:46:08.597Z</time></trkpt><trkpt lat="44.5189783" lon="9.4527933"><ele>772.0</ele><time>2026-04-06T14:46:09.598Z</time></trkpt><trkpt lat="44.5189683" lon="9.4529517"><ele>772.0</ele><time>2026-04-06T14:46:10.597Z</time></trkpt><trkpt lat="44.5189767" lon="9.45312"><ele>770.2</ele><time>2026-04-06T14:46:11.597Z</time></trkpt><trkpt lat="44.5189917" lon="9.45328"><ele>768.4000000000001</ele><time>2026-04-06T14:46:12.597Z</time></trkpt><trkpt lat="44.5190067" lon="9.4534233"><ele>766.5999999999999</ele><time>2026-04-06T14:46:13.599Z</time></trkpt><trkpt lat="44.5190267" lon="9.4535467"><ele>764.8</ele><time>2026-04-06T14:46:14.599Z</time></trkpt><trkpt lat="44.51905" lon="9.453645"><ele>763.0</ele><time>2026-04-06T14:46:15.599Z</time></trkpt><trkpt lat="44.519065" lon="9.45377"><ele>763.0</ele><time>2026-04-06T14:46:17.598Z</time></trkpt><trkpt lat="44.519105" lon="9.453865"><ele>763.0</ele><time>2026-04-06T14:48:20.598Z</time></trkpt><trkpt lat="44.5191817" lon="9.45379"><ele>763.0</ele><time>2026-04-06T14:48:23.597Z</time></trkpt><trkpt lat="44.5192783" lon="9.453775"><ele>763.0</ele><time>2026-04-06T14:48:25.597Z</time></trkpt><trkpt lat="44.5193517" lon="9.45377"><ele>763.0</ele><time>2026-04-06T14:48:26.598Z</time></trkpt><trkpt lat="44.5194417" lon="9.4537633"><ele>763.0</ele><time>2026-04-06T14:48:27.599Z</time></trkpt><trkpt lat="44.519545" lon="9.4537567"><ele>762.2</ele><time>2026-04-06T14:48:28.597Z</time></trkpt><trkpt lat="44.5196533" lon="9.4537467"><ele>761.4</ele><time>2026-04-06T14:48:29.598Z</time></trkpt><trkpt lat="44.5197617" lon="9.453735"><ele>760.6</ele><time>2026-04-06T14:48:30.597Z</time></trkpt><trkpt lat="44.5198767" lon="9.45372"><ele>759.8000000000001</ele><time>2026-04-06T14:48:31.598Z</time></trkpt><trkpt lat="44.51999" lon="9.4537117"><ele>759.0</ele><time>2026-04-06T14:48:32.601Z</time></trkpt><trkpt lat="44.5201017" lon="9.453705"><ele>759.0</ele><time>2026-04-06T14:48:33.597Z</time></trkpt><trkpt lat="44.5202083" lon="9.4536933"><ele>759.0</ele><time>2026-04-06T14:48:34.597Z</time></trkpt><trkpt lat="44.520315" lon="9.4536517"><ele>759.0</ele><time>2026-04-06T14:48:35.599Z</time></trkpt><trkpt lat="44.5204067" lon="9.4535617"><ele>759.0</ele><time>2026-04-06T14:48:36.598Z</time></trkpt><trkpt lat="44.5204833" lon="9.45343"><ele>762.5</ele><time>2026-04-06T14:48:37.599Z</time></trkpt><trkpt lat="44.5205483" lon="9.45327"><ele>766.0</ele><time>2026-04-06T14:48:38.597Z</time></trkpt><trkpt lat="44.52061" lon="9.4531017"><ele>769.5</ele><time>2026-04-06T14:48:39.598Z</time></trkpt><trkpt lat="44.5206667" lon="9.452925"><ele>773.0</ele><time>2026-04-06T14:48:40.599Z</time></trkpt><trkpt lat="44.5207217" lon="9.4527467"><ele>773.0</ele><time>2026-04-06T14:48:41.598Z</time></trkpt><trkpt lat="44.5207783" lon="9.4525683"><ele>773.0</ele><time>2026-04-06T14:48:42.597Z</time></trkpt><trkpt lat="44.520835" lon="9.4523967"><ele>773.0</ele><time>2026-04-06T14:48:43.598Z</time></trkpt><trkpt lat="44.52089" lon="9.45223"><ele>773.0</ele><time>2026-04-06T14:48:44.599Z</time></trkpt><trkpt lat="44.5209467" lon="9.4520617"><ele>771.5</ele><time>2026-04-06T14:48:45.598Z</time></trkpt><trkpt lat="44.5210033" lon="9.45188"><ele>770.0</ele><time>2026-04-06T14:48:46.598Z</time></trkpt><trkpt lat="44.5210567" lon="9.4516883"><ele>768.5</ele><time>2026-04-06T14:48:47.599Z</time></trkpt><trkpt lat="44.5211067" lon="9.4514833"><ele>767.0</ele><time>2026-04-06T14:48:48.598Z</time></trkpt><trkpt lat="44.5211483" lon="9.4512733"><ele>766.5</ele><time>2026-04-06T14:48:49.599Z</time></trkpt><trkpt lat="44.5211833" lon="9.45107"><ele>766.0</ele><time>2026-04-06T14:48:50.599Z</time></trkpt><trkpt lat="44.52122" lon="9.45089"><ele>765.5</ele><time>2026-04-06T14:48:51.599Z</time></trkpt><trkpt lat="44.52128" lon="9.450735"><ele>765.0</ele><time>2026-04-06T14:48:52.599Z</time></trkpt><trkpt lat="44.5213683" lon="9.4505983"><ele>768.3333333333333</ele><time>2026-04-06T14:48:53.598Z</time></trkpt><trkpt lat="44.521485" lon="9.4504867"><ele>771.6666666666666</ele><time>2026-04-06T14:48:54.599Z</time></trkpt><trkpt lat="44.5216267" lon="9.4503883"><ele>775.0</ele><time>2026-04-06T14:48:55.599Z</time></trkpt><trkpt lat="44.5217767" lon="9.4502883"><ele>775.0</ele><time>2026-04-06T14:48:56.598Z</time></trkpt><trkpt lat="44.521935" lon="9.450185"><ele>775.0</ele><time>2026-04-06T14:48:57.598Z</time></trkpt><trkpt lat="44.52209" lon="9.4500867"><ele>775.0</ele><time>2026-04-06T14:48:58.598Z</time></trkpt><trkpt lat="44.5222267" lon="9.449985"><ele>785.6666666666666</ele><time>2026-04-06T14:48:59.598Z</time></trkpt><trkpt lat="44.52234" lon="9.4498517"><ele>796.3333333333333</ele><time>2026-04-06T14:49:00.599Z</time></trkpt><trkpt lat="44.5224183" lon="9.4496767"><ele>807.0</ele><time>2026-04-06T14:49:01.598Z</time></trkpt><trkpt lat="44.5224533" lon="9.4494633"><ele>807.0</ele><time>2026-04-06T14:49:02.598Z</time></trkpt><trkpt lat="44.522455" lon="9.449225"><ele>807.0</ele><time>2026-04-06T14:49:03.599Z</time></trkpt><trkpt lat="44.52244" lon="9.4489733"><ele>807.0</ele><time>2026-04-06T14:49:04.597Z</time></trkpt><trkpt lat="44.5224383" lon="9.4487317"><ele>808.0</ele><time>2026-04-06T14:49:05.599Z</time></trkpt><trkpt lat="44.5224483" lon="9.4485017"><ele>809.0</ele><time>2026-04-06T14:49:06.597Z</time></trkpt><trkpt lat="44.5224467" lon="9.448275"><ele>810.0</ele><time>2026-04-06T14:49:07.598Z</time></trkpt><trkpt lat="44.5224283" lon="9.4480567"><ele>810.0</ele><time>2026-04-06T14:49:08.598Z</time></trkpt><trkpt lat="44.522415" lon="9.4478517"><ele>810.0</ele><time>2026-04-06T14:49:09.599Z</time></trkpt><trkpt lat="44.5224183" lon="9.4476483"><ele>810.0</ele><time>2026-04-06T14:49:10.599Z</time></trkpt><trkpt lat="44.5224533" lon="9.4474433"><ele>810.0</ele><time>2026-04-06T14:49:11.599Z</time></trkpt><trkpt lat="44.5225067" lon="9.4472317"><ele>809.3333333333333</ele><time>2026-04-06T14:49:12.599Z</time></trkpt><trkpt lat="44.5225633" lon="9.4470167"><ele>808.6666666666666</ele><time>2026-04-06T14:49:13.599Z</time></trkpt><trkpt lat="44.5226133" lon="9.446805"><ele>808.0</ele><time>2026-04-06T14:49:14.598Z</time></trkpt><trkpt lat="44.522655" lon="9.4466067"><ele>808.0</ele><time>2026-04-06T14:49:15.599Z</time></trkpt><trkpt lat="44.5227067" lon="9.44643"><ele>808.0</ele><time>2026-04-06T14:49:16.597Z</time></trkpt><trkpt lat="44.5227783" lon="9.4462683"><ele>808.0</ele><time>2026-04-06T14:49:17.599Z</time></trkpt><trkpt lat="44.5228667" lon="9.4461367"><ele>808.0</ele><time>2026-04-06T14:49:18.599Z</time></trkpt><trkpt lat="44.52296" lon="9.4460467"><ele>807.5</ele><time>2026-04-06T14:49:19.599Z</time></trkpt><trkpt lat="44.52307" lon="9.4459883"><ele>807.0</ele><time>2026-04-06T14:49:20.599Z</time></trkpt><trkpt lat="44.5231917" lon="9.4459633"><ele>806.5</ele><time>2026-04-06T14:49:21.599Z</time></trkpt><trkpt lat="44.5233267" lon="9.4459833"><ele>806.0</ele><time>2026-04-06T14:49:22.598Z</time></trkpt><trkpt lat="44.5234533" lon="9.4460483"><ele>806.0</ele><time>2026-04-06T14:49:23.599Z</time></trkpt><trkpt lat="44.5235717" lon="9.4461667"><ele>806.0</ele><time>2026-04-06T14:49:24.599Z</time></trkpt><trkpt lat="44.5236683" lon="9.4463333"><ele>806.0</ele><time>2026-04-06T14:49:25.598Z</time></trkpt><trkpt lat="44.5237533" lon="9.44651"><ele>811.0</ele><time>2026-04-06T14:49:26.599Z</time></trkpt><trkpt lat="44.5238483" lon="9.4466717"><ele>816.0</ele><time>2026-04-06T14:49:27.599Z</time></trkpt><trkpt lat="44.5239733" lon="9.4468033"><ele>821.0</ele><time>2026-04-06T14:49:28.599Z</time></trkpt><trkpt lat="44.52411" lon="9.4468917"><ele>821.0</ele><time>2026-04-06T14:49:29.598Z</time></trkpt><trkpt lat="44.5242417" lon="9.44693"><ele>821.0</ele><time>2026-04-06T14:49:30.598Z</time></trkpt><trkpt lat="44.5243583" lon="9.4469183"><ele>821.0</ele><time>2026-04-06T14:49:31.599Z</time></trkpt><trkpt lat="44.5244667" lon="9.446845"><ele>821.0</ele><time>2026-04-06T14:49:32.599Z</time></trkpt><trkpt lat="44.5245583" lon="9.4467233"><ele>823.75</ele><time>2026-04-06T14:49:33.599Z</time></trkpt><trkpt lat="44.5246417" lon="9.446585"><ele>826.5</ele><time>2026-04-06T14:49:34.601Z</time></trkpt><trkpt lat="44.5247033" lon="9.446445"><ele>829.25</ele><time>2026-04-06T14:49:35.598Z</time></trkpt><trkpt lat="44.5247317" lon="9.44628"><ele>832.0</ele><time>2026-04-06T14:49:36.598Z</time></trkpt><trkpt lat="44.5247133" lon="9.4460917"><ele>834.0</ele><time>2026-04-06T14:49:37.599Z</time></trkpt><trkpt lat="44.5246633" lon="9.4458883"><ele>836.0</ele><time>2026-04-06T14:49:38.599Z</time></trkpt><trkpt lat="44.5246033" lon="9.4456783"><ele>838.0</ele><time>2026-04-06T14:49:39.597Z</time></trkpt><trkpt lat="44.5245517" lon="9.4454567"><ele>831.6666666666666</ele><time>2026-04-06T14:49:40.598Z</time></trkpt><trkpt lat="44.5245117" lon="9.445225"><ele>825.3333333333333</ele><time>2026-04-06T14:49:41.597Z</time></trkpt><trkpt lat="44.5244883" lon="9.4449767"><ele>819.0</ele><time>2026-04-06T14:49:42.599Z</time></trkpt><trkpt lat="44.5244633" lon="9.4447083"><ele>820.6666666666667</ele><time>2026-04-06T14:49:43.598Z</time></trkpt><trkpt lat="44.5244367" lon="9.444435"><ele>822.3333333333334</ele><time>2026-04-06T14:49:44.599Z</time></trkpt><trkpt lat="44.5244117" lon="9.44416"><ele>824.0</ele><time>2026-04-06T14:49:45.598Z</time></trkpt><trkpt lat="44.5243867" lon="9.4438967"><ele>827.0</ele><time>2026-04-06T14:49:46.598Z</time></trkpt><trkpt lat="44.52436" lon="9.44365"><ele>830.0</ele><time>2026-04-06T14:49:47.599Z</time></trkpt><trkpt lat="44.5243367" lon="9.4434217"><ele>833.0</ele><time>2026-04-06T14:49:48.598Z</time></trkpt><trkpt lat="44.5243217" lon="9.443215"><ele>833.0</ele><time>2026-04-06T14:49:49.599Z</time></trkpt><trkpt lat="44.52431" lon="9.4430317"><ele>833.0</ele><time>2026-04-06T14:49:50.601Z</time></trkpt><trkpt lat="44.52433" lon="9.4428683"><ele>833.0</ele><time>2026-04-06T14:49:51.597Z</time></trkpt><trkpt lat="44.5243933" lon="9.4427283"><ele>833.0</ele><time>2026-04-06T14:49:52.599Z</time></trkpt><trkpt lat="44.52449" lon="9.442615"><ele>839.0</ele><time>2026-04-06T14:49:53.597Z</time></trkpt><trkpt lat="44.5246083" lon="9.4425183"><ele>845.0</ele><time>2026-04-06T14:49:54.599Z</time></trkpt><trkpt lat="44.52473" lon="9.4424117"><ele>851.0</ele><time>2026-04-06T14:49:55.597Z</time></trkpt><trkpt lat="44.5248383" lon="9.4422883"><ele>857.0</ele><time>2026-04-06T14:49:56.599Z</time></trkpt><trkpt lat="44.5249317" lon="9.4421533"><ele>852.25</ele><time>2026-04-06T14:49:57.599Z</time></trkpt><trkpt lat="44.5250317" lon="9.442045"><ele>847.5</ele><time>2026-04-06T14:49:58.598Z</time></trkpt><trkpt lat="44.5251533" lon="9.441975"><ele>842.75</ele><time>2026-04-06T14:49:59.599Z</time></trkpt><trkpt lat="44.5252783" lon="9.4419267"><ele>838.0</ele><time>2026-04-06T14:50:00.599Z</time></trkpt><trkpt lat="44.52539" lon="9.4418717"><ele>845.0</ele><time>2026-04-06T14:50:01.599Z</time></trkpt><trkpt lat="44.52548" lon="9.44178"><ele>852.0</ele><time>2026-04-06T14:50:02.599Z</time></trkpt><trkpt lat="44.5255387" lon="9.4416428"><ele>859.0</ele><time>2026-04-06T14:50:03.598Z</time></trkpt><trkpt lat="44.5255599" lon="9.4414632"><ele>866.0</ele><time>2026-04-06T14:50:04.599Z</time></trkpt><trkpt lat="44.5255545" lon="9.4412509"><ele>866.0</ele><time>2026-04-06T14:50:05.599Z</time></trkpt><trkpt lat="44.525544" lon="9.4410246"><ele>866.0</ele><time>2026-04-06T14:50:06.599Z</time></trkpt><trkpt lat="44.5255354" lon="9.4407938"><ele>866.0</ele><time>2026-04-06T14:50:07.599Z</time></trkpt><trkpt lat="44.5255286" lon="9.4405734"><ele>864.75</ele><time>2026-04-06T14:50:08.599Z</time></trkpt><trkpt lat="44.5255204" lon="9.4403745"><ele>863.5</ele><time>2026-04-06T14:50:09.599Z</time></trkpt><trkpt lat="44.5255146" lon="9.4401966"><ele>862.25</ele><time>2026-04-06T14:50:10.598Z</time></trkpt><trkpt lat="44.525519" lon="9.4400365"><ele>861.0</ele><time>2026-04-06T14:50:11.597Z</time></trkpt><trkpt lat="44.5255476" lon="9.4398968"><ele>861.0</ele><time>2026-04-06T14:50:12.598Z</time></trkpt><trkpt lat="44.525608" lon="9.4397816"><ele>860.9999999999999</ele><time>2026-04-06T14:50:13.597Z</time></trkpt><trkpt lat="44.5256946" lon="9.4397068"><ele>860.9999999999999</ele><time>2026-04-06T14:50:14.599Z</time></trkpt><trkpt lat="44.5257979" lon="9.4396894"><ele>861.0</ele><time>2026-04-06T14:50:15.598Z</time></trkpt><trkpt lat="44.5258994" lon="9.4397331"><ele>861.0</ele><time>2026-04-06T14:50:16.598Z</time></trkpt><trkpt lat="44.5260025" lon="9.4398394"><ele>861.0</ele><time>2026-04-06T14:50:17.598Z</time></trkpt><trkpt lat="44.5261077" lon="9.4399716"><ele>861.0</ele><time>2026-04-06T14:50:18.598Z</time></trkpt><trkpt lat="44.5262167" lon="9.4401047"><ele>861.0</ele><time>2026-04-06T14:50:19.599Z</time></trkpt><trkpt lat="44.5263212" lon="9.440224"><ele>861.0</ele><time>2026-04-06T14:50:20.599Z</time></trkpt><trkpt lat="44.526417" lon="9.4403225"><ele>862.0</ele><time>2026-04-06T14:50:21.598Z</time></trkpt><trkpt lat="44.5265137" lon="9.4403927"><ele>862.9999999999999</ele><time>2026-04-06T14:50:22.597Z</time></trkpt><trkpt lat="44.5266167" lon="9.4404215"><ele>863.9999999999999</ele><time>2026-04-06T14:50:23.599Z</time></trkpt><trkpt lat="44.5267191" lon="9.4403981"><ele>865.0</ele><time>2026-04-06T14:50:24.6Z</time></trkpt><trkpt lat="44.5268157" lon="9.4403273"><ele>866.0</ele><time>2026-04-06T14:50:25.598Z</time></trkpt><trkpt lat="44.5268996" lon="9.4402134"><ele>866.0</ele><time>2026-04-06T14:50:26.599Z</time></trkpt><trkpt lat="44.5269727" lon="9.4400694"><ele>866.0</ele><time>2026-04-06T14:50:27.599Z</time></trkpt><trkpt lat="44.5270353" lon="9.4399032"><ele>866.0</ele><time>2026-04-06T14:50:28.599Z</time></trkpt><trkpt lat="44.5270939" lon="9.4397365"><ele>866.0</ele><time>2026-04-06T14:50:29.599Z</time></trkpt><trkpt lat="44.5271485" lon="9.4395706"><ele>868.75</ele><time>2026-04-06T14:50:30.598Z</time></trkpt><trkpt lat="44.5272079" lon="9.4394144"><ele>871.5</ele><time>2026-04-06T14:50:31.599Z</time></trkpt><trkpt lat="44.527271" lon="9.4392647"><ele>874.25</ele><time>2026-04-06T14:50:32.598Z</time></trkpt><trkpt lat="44.5273317" lon="9.4391141"><ele>877.0</ele><time>2026-04-06T14:50:33.599Z</time></trkpt><trkpt lat="44.5273849" lon="9.4389593"><ele>876.5</ele><time>2026-04-06T14:50:34.598Z</time></trkpt><trkpt lat="44.5274253" lon="9.438793"><ele>876.0</ele><time>2026-04-06T14:50:35.598Z</time></trkpt><trkpt lat="44.527451" lon="9.4386169"><ele>875.5</ele><time>2026-04-06T14:50:36.599Z</time></trkpt><trkpt lat="44.5274712" lon="9.4384408"><ele>875.0</ele><time>2026-04-06T14:50:37.599Z</time></trkpt><trkpt lat="44.5274838" lon="9.4382699"><ele>875.0</ele><time>2026-04-06T14:50:38.599Z</time></trkpt><trkpt lat="44.5274939" lon="9.4381149"><ele>875.0</ele><time>2026-04-06T14:50:39.599Z</time></trkpt><trkpt lat="44.5275104" lon="9.4379748"><ele>875.0</ele><time>2026-04-06T14:50:40.598Z</time></trkpt><trkpt lat="44.5275541" lon="9.4378519"><ele>875.0</ele><time>2026-04-06T14:50:41.599Z</time></trkpt><trkpt lat="44.527629" lon="9.4377535"><ele>875.0</ele><time>2026-04-06T14:50:42.599Z</time></trkpt><trkpt lat="44.5277272" lon="9.4376871"><ele>874.5</ele><time>2026-04-06T14:50:43.598Z</time></trkpt><trkpt lat="44.527842" lon="9.4376677"><ele>874.0</ele><time>2026-04-06T14:50:44.599Z</time></trkpt><trkpt lat="44.5279644" lon="9.4376967"><ele>873.5</ele><time>2026-04-06T14:50:45.599Z</time></trkpt><trkpt lat="44.5280909" lon="9.4377482"><ele>873.0</ele><time>2026-04-06T14:50:46.597Z</time></trkpt><trkpt lat="44.5282212" lon="9.4378056"><ele>873.0</ele><time>2026-04-06T14:50:47.597Z</time></trkpt><trkpt lat="44.528359" lon="9.4378565"><ele>873.0</ele><time>2026-04-06T14:50:48.598Z</time></trkpt><trkpt lat="44.528497" lon="9.437878"><ele>873.0</ele><time>2026-04-06T14:50:49.599Z</time></trkpt><trkpt lat="44.5286369" lon="9.437858"><ele>873.0</ele><time>2026-04-06T14:50:50.599Z</time></trkpt><trkpt lat="44.528775" lon="9.4377813"><ele>876.75</ele><time>2026-04-06T14:50:51.598Z</time></trkpt><trkpt lat="44.5289067" lon="9.4376815"><ele>880.5</ele><time>2026-04-06T14:50:52.599Z</time></trkpt><trkpt lat="44.5290293" lon="9.4375832"><ele>884.25</ele><time>2026-04-06T14:50:53.598Z</time></trkpt><trkpt lat="44.5291449" lon="9.4375139"><ele>888.0</ele><time>2026-04-06T14:50:54.598Z</time></trkpt><trkpt lat="44.5292564" lon="9.4374947"><ele>888.0</ele><time>2026-04-06T14:50:55.599Z</time></trkpt><trkpt lat="44.5293594" lon="9.4375347"><ele>888.0</ele><time>2026-04-06T14:50:56.6Z</time></trkpt><trkpt lat="44.5294475" lon="9.4376357"><ele>888.0</ele><time>2026-04-06T14:50:57.599Z</time></trkpt><trkpt lat="44.5295248" lon="9.4377771"><ele>888.0</ele><time>2026-04-06T14:50:58.598Z</time></trkpt><trkpt lat="44.5296057" lon="9.4379192"><ele>892.0</ele><time>2026-04-06T14:50:59.599Z</time></trkpt><trkpt lat="44.5297057" lon="9.4380297"><ele>896.0</ele><time>2026-04-06T14:51:00.597Z</time></trkpt><trkpt lat="44.5298317" lon="9.4380956"><ele>900.0</ele><time>2026-04-06T14:51:01.599Z</time></trkpt><trkpt lat="44.529983" lon="9.4381212"><ele>904.0</ele><time>2026-04-06T14:51:02.599Z</time></trkpt><trkpt lat="44.5301427" lon="9.4381223"><ele>904.0</ele><time>2026-04-06T14:51:03.598Z</time></trkpt><trkpt lat="44.5302974" lon="9.4381226"><ele>904.0</ele><time>2026-04-06T14:51:04.598Z</time></trkpt><trkpt lat="44.5304449" lon="9.4381262"><ele>904.0</ele><time>2026-04-06T14:51:05.599Z</time></trkpt><trkpt lat="44.5305793" lon="9.4381332"><ele>904.0</ele><time>2026-04-06T14:51:06.599Z</time></trkpt><trkpt lat="44.5307013" lon="9.4381451"><ele>904.6</ele><time>2026-04-06T14:51:07.598Z</time></trkpt><trkpt lat="44.5308127" lon="9.4381514"><ele>905.2</ele><time>2026-04-06T14:51:08.598Z</time></trkpt><trkpt lat="44.5309121" lon="9.4381368"><ele>905.8000000000001</ele><time>2026-04-06T14:51:09.598Z</time></trkpt><trkpt lat="44.5310007" lon="9.438091"><ele>906.4000000000001</ele><time>2026-04-06T14:51:10.599Z</time></trkpt><trkpt lat="44.5310696" lon="9.4379991"><ele>907.0</ele><time>2026-04-06T14:51:11.599Z</time></trkpt><trkpt lat="44.5311163" lon="9.437871"><ele>904.8</ele><time>2026-04-06T14:51:12.598Z</time></trkpt><trkpt lat="44.5311476" lon="9.4377269"><ele>902.6</ele><time>2026-04-06T14:51:13.598Z</time></trkpt><trkpt lat="44.5311721" lon="9.4375773"><ele>900.3999999999999</ele><time>2026-04-06T14:51:14.599Z</time></trkpt><trkpt lat="44.5311952" lon="9.4374297"><ele>898.1999999999999</ele><time>2026-04-06T14:51:15.598Z</time></trkpt><trkpt lat="44.5312244" lon="9.4372902"><ele>896.0</ele><time>2026-04-06T14:51:16.599Z</time></trkpt><trkpt lat="44.5312653" lon="9.4371493"><ele>901.25</ele><time>2026-04-06T14:51:17.599Z</time></trkpt><trkpt lat="44.5313186" lon="9.4370001"><ele>906.5</ele><time>2026-04-06T14:51:18.598Z</time></trkpt><trkpt lat="44.5313802" lon="9.436836"><ele>911.75</ele><time>2026-04-06T14:51:19.599Z</time></trkpt><trkpt lat="44.5314512" lon="9.4366558"><ele>917.0</ele><time>2026-04-06T14:51:20.598Z</time></trkpt><trkpt lat="44.5315315" lon="9.4364634"><ele>916.0</ele><time>2026-04-06T14:51:21.599Z</time></trkpt><trkpt lat="44.531621" lon="9.4362658"><ele>915.0</ele><time>2026-04-06T14:51:22.598Z</time></trkpt><trkpt lat="44.5317164" lon="9.4360689"><ele>914.0</ele><time>2026-04-06T14:51:23.599Z</time></trkpt><trkpt lat="44.5318126" lon="9.4358704"><ele>914.0</ele><time>2026-04-06T14:51:24.599Z</time></trkpt><trkpt lat="44.5319056" lon="9.4356746"><ele>914.0</ele><time>2026-04-06T14:51:25.598Z</time></trkpt><trkpt lat="44.5319931" lon="9.4354865"><ele>914.0</ele><time>2026-04-06T14:51:26.599Z</time></trkpt><trkpt lat="44.5320751" lon="9.435306"><ele>917.25</ele><time>2026-04-06T14:51:27.598Z</time></trkpt><trkpt lat="44.5321522" lon="9.4351297"><ele>920.5</ele><time>2026-04-06T14:51:28.599Z</time></trkpt><trkpt lat="44.5322298" lon="9.4349537"><ele>923.75</ele><time>2026-04-06T14:51:29.598Z</time></trkpt><trkpt lat="44.5323023" lon="9.434772"><ele>927.0</ele><time>2026-04-06T14:51:30.597Z</time></trkpt><trkpt lat="44.532365" lon="9.4345801"><ele>927.0</ele><time>2026-04-06T14:51:31.598Z</time></trkpt><trkpt lat="44.5324182" lon="9.4343773"><ele>927.0</ele><time>2026-04-06T14:51:32.599Z</time></trkpt><trkpt lat="44.5324597" lon="9.4341686"><ele>927.0</ele><time>2026-04-06T14:51:33.598Z</time></trkpt><trkpt lat="44.5324914" lon="9.4339676"><ele>926.75</ele><time>2026-04-06T14:51:34.598Z</time></trkpt><trkpt lat="44.53251" lon="9.4337804"><ele>926.5</ele><time>2026-04-06T14:51:35.598Z</time></trkpt><trkpt lat="44.5325061" lon="9.4336023"><ele>926.25</ele><time>2026-04-06T14:51:36.598Z</time></trkpt><trkpt lat="44.5324772" lon="9.4334389"><ele>926.0</ele><time>2026-04-06T14:51:37.598Z</time></trkpt><trkpt lat="44.5324431" lon="9.4332943"><ele>926.0</ele><time>2026-04-06T14:51:38.599Z</time></trkpt><trkpt lat="44.5324237" lon="9.4331585"><ele>925.9999999999999</ele><time>2026-04-06T14:51:39.598Z</time></trkpt><trkpt lat="44.5324417" lon="9.4330333"><ele>925.9999999999999</ele><time>2026-04-06T14:51:40.597Z</time></trkpt><trkpt lat="44.5324867" lon="9.4329117"><ele>926.0</ele><time>2026-04-06T14:51:41.599Z</time></trkpt><trkpt lat="44.5325667" lon="9.43282"><ele>926.0</ele><time>2026-04-06T14:51:42.599Z</time></trkpt><trkpt lat="44.5326583" lon="9.4327717"><ele>927.25</ele><time>2026-04-06T14:51:43.601Z</time></trkpt><trkpt lat="44.53276" lon="9.4327567"><ele>928.5</ele><time>2026-04-06T14:51:44.599Z</time></trkpt><trkpt lat="44.5328767" lon="9.43277"><ele>929.75</ele><time>2026-04-06T14:51:45.598Z</time></trkpt><trkpt lat="44.5330033" lon="9.432785"><ele>931.0</ele><time>2026-04-06T14:51:46.599Z</time></trkpt><trkpt lat="44.5331333" lon="9.432795"><ele>931.0</ele><time>2026-04-06T14:51:47.598Z</time></trkpt><trkpt lat="44.533265" lon="9.4327833"><ele>931.0</ele><time>2026-04-06T14:51:48.598Z</time></trkpt><trkpt lat="44.5333917" lon="9.4327383"><ele>931.0</ele><time>2026-04-06T14:51:49.599Z</time></trkpt><trkpt lat="44.5335067" lon="9.4326533"><ele>931.0</ele><time>2026-04-06T14:51:50.599Z</time></trkpt><trkpt lat="44.533605" lon="9.4325567"><ele>931.0</ele><time>2026-04-06T14:51:51.598Z</time></trkpt><trkpt lat="44.533705" lon="9.4324817"><ele>930.9999999999999</ele><time>2026-04-06T14:51:52.599Z</time></trkpt><trkpt lat="44.533815" lon="9.4324467"><ele>930.9999999999999</ele><time>2026-04-06T14:51:53.603Z</time></trkpt><trkpt lat="44.5339233" lon="9.4324617"><ele>931.0</ele><time>2026-04-06T14:51:54.598Z</time></trkpt><trkpt lat="44.5340117" lon="9.4325233"><ele>931.0</ele><time>2026-04-06T14:51:55.599Z</time></trkpt><trkpt lat="44.534085" lon="9.4326383"><ele>932.5</ele><time>2026-04-06T14:51:56.601Z</time></trkpt><trkpt lat="44.534155" lon="9.432795"><ele>934.0</ele><time>2026-04-06T14:51:57.6Z</time></trkpt><trkpt lat="44.534225" lon="9.4329633"><ele>935.5</ele><time>2026-04-06T14:51:58.6Z</time></trkpt><trkpt lat="44.5342983" lon="9.433125"><ele>937.0</ele><time>2026-04-06T14:51:59.599Z</time></trkpt><trkpt lat="44.53439" lon="9.4332633"><ele>940.5</ele><time>2026-04-06T14:52:00.599Z</time></trkpt><trkpt lat="44.534505" lon="9.4333567"><ele>944.0</ele><time>2026-04-06T14:52:01.599Z</time></trkpt><trkpt lat="44.534635" lon="9.4333933"><ele>947.5</ele><time>2026-04-06T14:52:02.599Z</time></trkpt><trkpt lat="44.53478" lon="9.4333833"><ele>951.0</ele><time>2026-04-06T14:52:03.598Z</time></trkpt><trkpt lat="44.534925" lon="9.4333617"><ele>951.0</ele><time>2026-04-06T14:52:04.597Z</time></trkpt><trkpt lat="44.535065" lon="9.433345"><ele>951.0</ele><time>2026-04-06T14:52:05.599Z</time></trkpt><trkpt lat="44.535195" lon="9.4333483"><ele>951.0</ele><time>2026-04-06T14:52:06.599Z</time></trkpt><trkpt lat="44.5353117" lon="9.4333967"><ele>951.0</ele><time>2026-04-06T14:52:07.598Z</time></trkpt><trkpt lat="44.5354" lon="9.4334967"><ele>949.5</ele><time>2026-04-06T14:52:08.6Z</time></trkpt><trkpt lat="44.5354617" lon="9.4336467"><ele>948.0</ele><time>2026-04-06T14:52:09.598Z</time></trkpt><trkpt lat="44.5354917" lon="9.43383"><ele>946.5</ele><time>2026-04-06T14:52:10.598Z</time></trkpt><trkpt lat="44.53551" lon="9.434035"><ele>945.0</ele><time>2026-04-06T14:52:11.599Z</time></trkpt><trkpt lat="44.5355367" lon="9.4342467"><ele>945.0</ele><time>2026-04-06T14:52:12.599Z</time></trkpt><trkpt lat="44.5355767" lon="9.4344617"><ele>945.0</ele><time>2026-04-06T14:52:13.599Z</time></trkpt><trkpt lat="44.5356417" lon="9.43468"><ele>945.0</ele><time>2026-04-06T14:52:14.598Z</time></trkpt><trkpt lat="44.5357183" lon="9.4348967"><ele>948.5</ele><time>2026-04-06T14:52:15.598Z</time></trkpt><trkpt lat="44.535795" lon="9.43509"><ele>952.0</ele><time>2026-04-06T14:52:16.599Z</time></trkpt><trkpt lat="44.5358583" lon="9.435265"><ele>955.5</ele><time>2026-04-06T14:52:17.599Z</time></trkpt><trkpt lat="44.535915" lon="9.4354267"><ele>959.0</ele><time>2026-04-06T14:52:18.598Z</time></trkpt><trkpt lat="44.5359367" lon="9.4356"><ele>961.5</ele><time>2026-04-06T14:52:19.598Z</time></trkpt><trkpt lat="44.535915" lon="9.4357833"><ele>964.0</ele><time>2026-04-06T14:52:20.599Z</time></trkpt><trkpt lat="44.5358583" lon="9.4359817"><ele>966.5</ele><time>2026-04-06T14:52:21.599Z</time></trkpt><trkpt lat="44.5357917" lon="9.4361717"><ele>969.0</ele><time>2026-04-06T14:52:22.597Z</time></trkpt><trkpt lat="44.535735" lon="9.436345"><ele>971.0</ele><time>2026-04-06T14:52:23.598Z</time></trkpt><trkpt lat="44.5357067" lon="9.43652"><ele>973.0</ele><time>2026-04-06T14:52:24.598Z</time></trkpt><trkpt lat="44.5357083" lon="9.43669"><ele>975.0</ele><time>2026-04-06T14:52:25.599Z</time></trkpt><trkpt lat="44.5357383" lon="9.4368417"><ele>977.0</ele><time>2026-04-06T14:52:26.6Z</time></trkpt><trkpt lat="44.5358117" lon="9.4369717"><ele>977.0</ele><time>2026-04-06T14:52:27.6Z</time></trkpt><trkpt lat="44.5359133" lon="9.4370683"><ele>977.0</ele><time>2026-04-06T14:52:28.6Z</time></trkpt><trkpt lat="44.53604" lon="9.4371267"><ele>977.0</ele><time>2026-04-06T14:52:29.599Z</time></trkpt><trkpt lat="44.53617" lon="9.4371483"><ele>977.0</ele><time>2026-04-06T14:52:30.6Z</time></trkpt><trkpt lat="44.5362933" lon="9.4371533"><ele>977.0</ele><time>2026-04-06T14:52:31.598Z</time></trkpt><trkpt lat="44.5364067" lon="9.4371883"><ele>977.0</ele><time>2026-04-06T14:52:32.6Z</time></trkpt><trkpt lat="44.5364933" lon="9.43728"><ele>977.0</ele><time>2026-04-06T14:52:33.598Z</time></trkpt><trkpt lat="44.5365417" lon="9.4374317"><ele>977.0</ele><time>2026-04-06T14:52:34.598Z</time></trkpt><trkpt lat="44.536565" lon="9.4376417"><ele>977.0</ele><time>2026-04-06T14:52:35.599Z</time></trkpt><trkpt lat="44.53657" lon="9.4378817"><ele>977.0</ele><time>2026-04-06T14:52:36.599Z</time></trkpt><trkpt lat="44.5365883" lon="9.438115"><ele>977.0</ele><time>2026-04-06T14:52:37.598Z</time></trkpt><trkpt lat="44.5366267" lon="9.4383283"><ele>979.6666666666667</ele><time>2026-04-06T14:52:38.599Z</time></trkpt><trkpt lat="44.53667" lon="9.43854"><ele>982.3333333333333</ele><time>2026-04-06T14:52:39.598Z</time></trkpt><trkpt lat="44.5366933" lon="9.4387667"><ele>985.0</ele><time>2026-04-06T14:52:40.599Z</time></trkpt><trkpt lat="44.5367" lon="9.4390067"><ele>987.0</ele><time>2026-04-06T14:52:41.599Z</time></trkpt><trkpt lat="44.536705" lon="9.439235"><ele>989.0</ele><time>2026-04-06T14:52:42.597Z</time></trkpt><trkpt lat="44.5367217" lon="9.4394483"><ele>991.0</ele><time>2026-04-06T14:52:43.598Z</time></trkpt><trkpt lat="44.536765" lon="9.4396483"><ele>996.3333333333333</ele><time>2026-04-06T14:52:44.599Z</time></trkpt><trkpt lat="44.53684" lon="9.4398467"><ele>1001.6666666666667</ele><time>2026-04-06T14:52:45.598Z</time></trkpt><trkpt lat="44.53692" lon="9.4400467"><ele>1007.0</ele><time>2026-04-06T14:52:46.597Z</time></trkpt><trkpt lat="44.536995" lon="9.4402517"><ele>1003.25</ele><time>2026-04-06T14:52:47.599Z</time></trkpt><trkpt lat="44.5370567" lon="9.4404567"><ele>999.5</ele><time>2026-04-06T14:52:48.598Z</time></trkpt><trkpt lat="44.5371117" lon="9.4406483"><ele>995.75</ele><time>2026-04-06T14:52:49.598Z</time></trkpt><trkpt lat="44.53718" lon="9.440805"><ele>992.0</ele><time>2026-04-06T14:52:50.598Z</time></trkpt><trkpt lat="44.53728" lon="9.44091"><ele>992.0</ele><time>2026-04-06T14:52:51.599Z</time></trkpt><trkpt lat="44.537405" lon="9.44096"><ele>992.0</ele><time>2026-04-06T14:52:52.599Z</time></trkpt><trkpt lat="44.53754" lon="9.4409933"><ele>992.0</ele><time>2026-04-06T14:52:53.599Z</time></trkpt><trkpt lat="44.5376667" lon="9.4410533"><ele>992.0</ele><time>2026-04-06T14:52:54.599Z</time></trkpt><trkpt lat="44.5377733" lon="9.4411633"><ele>989.0</ele><time>2026-04-06T14:52:55.599Z</time></trkpt><trkpt lat="44.5378617" lon="9.4413233"><ele>986.0</ele><time>2026-04-06T14:52:56.6Z</time></trkpt><trkpt lat="44.537935" lon="9.4415133"><ele>983.0</ele><time>2026-04-06T14:52:57.599Z</time></trkpt><trkpt lat="44.5379967" lon="9.441705"><ele>980.0</ele><time>2026-04-06T14:52:58.599Z</time></trkpt><trkpt lat="44.5380467" lon="9.4418917"><ele>980.0</ele><time>2026-04-06T14:52:59.597Z</time></trkpt><trkpt lat="44.538075" lon="9.4420817"><ele>980.0</ele><time>2026-04-06T14:53:00.598Z</time></trkpt><trkpt lat="44.5380817" lon="9.4422767"><ele>980.0</ele><time>2026-04-06T14:53:01.598Z</time></trkpt><trkpt lat="44.5380717" lon="9.4424683"><ele>980.0</ele><time>2026-04-06T14:53:02.599Z</time></trkpt><trkpt lat="44.5380583" lon="9.442645"><ele>982.0</ele><time>2026-04-06T14:53:03.599Z</time></trkpt><trkpt lat="44.53806" lon="9.4428033"><ele>984.0</ele><time>2026-04-06T14:53:04.598Z</time></trkpt><trkpt lat="44.5380833" lon="9.4429367"><ele>986.0</ele><time>2026-04-06T14:53:05.599Z</time></trkpt><trkpt lat="44.53815" lon="9.4430333"><ele>988.0</ele><time>2026-04-06T14:53:06.598Z</time></trkpt><trkpt lat="44.53826" lon="9.4431067"><ele>990.0</ele><time>2026-04-06T14:53:07.597Z</time></trkpt><trkpt lat="44.53839" lon="9.4431733"><ele>994.0</ele><time>2026-04-06T14:53:08.598Z</time></trkpt><trkpt lat="44.5385433" lon="9.4432367"><ele>998.0</ele><time>2026-04-06T14:53:09.598Z</time></trkpt><trkpt lat="44.5387033" lon="9.4433033"><ele>1002.0</ele><time>2026-04-06T14:53:10.598Z</time></trkpt><trkpt lat="44.5388567" lon="9.4433667"><ele>1002.0</ele><time>2026-04-06T14:53:11.599Z</time></trkpt><trkpt lat="44.5389983" lon="9.443425"><ele>1002.0</ele><time>2026-04-06T14:53:12.599Z</time></trkpt><trkpt lat="44.5391317" lon="9.4434717"><ele>1002.0</ele><time>2026-04-06T14:53:13.598Z</time></trkpt><trkpt lat="44.539265" lon="9.4434783"><ele>1002.0</ele><time>2026-04-06T14:53:14.599Z</time></trkpt><trkpt lat="44.5393967" lon="9.4434383"><ele>1002.0</ele><time>2026-04-06T14:53:15.599Z</time></trkpt><trkpt lat="44.5395317" lon="9.4433783"><ele>1002.0</ele><time>2026-04-06T14:53:16.597Z</time></trkpt><trkpt lat="44.5396683" lon="9.44333"><ele>1002.0</ele><time>2026-04-06T14:53:17.599Z</time></trkpt><trkpt lat="44.539806" lon="9.4432979"><ele>1002.0</ele><time>2026-04-06T14:53:18.599Z</time></trkpt><trkpt lat="44.5399431" lon="9.4432846"><ele>1002.75</ele><time>2026-04-06T14:53:19.599Z</time></trkpt><trkpt lat="44.5400742" lon="9.4432886"><ele>1003.5</ele><time>2026-04-06T14:53:20.6Z</time></trkpt><trkpt lat="44.5401945" lon="9.4433087"><ele>1004.25</ele><time>2026-04-06T14:53:21.601Z</time></trkpt><trkpt lat="44.5403013" lon="9.4433567"><ele>1005.0</ele><time>2026-04-06T14:53:22.6Z</time></trkpt><trkpt lat="44.5403901" lon="9.4434416"><ele>1002.25</ele><time>2026-04-06T14:53:23.599Z</time></trkpt><trkpt lat="44.5404602" lon="9.4435605"><ele>999.5</ele><time>2026-04-06T14:53:24.599Z</time></trkpt><trkpt lat="44.5405068" lon="9.4437135"><ele>996.75</ele><time>2026-04-06T14:53:25.6Z</time></trkpt><trkpt lat="44.5405331" lon="9.4438978"><ele>994.0</ele><time>2026-04-06T14:53:26.599Z</time></trkpt><trkpt lat="44.5405568" lon="9.4440981"><ele>994.0</ele><time>2026-04-06T14:53:27.597Z</time></trkpt><trkpt lat="44.5406008" lon="9.4443016"><ele>994.0</ele><time>2026-04-06T14:53:28.6Z</time></trkpt><trkpt lat="44.5406755" lon="9.4445011"><ele>994.0</ele><time>2026-04-06T14:53:29.599Z</time></trkpt><trkpt lat="44.5407738" lon="9.4447036"><ele>1001.0</ele><time>2026-04-06T14:53:30.598Z</time></trkpt><trkpt lat="44.540877" lon="9.4449101"><ele>1008.0</ele><time>2026-04-06T14:53:31.599Z</time></trkpt><trkpt lat="44.540977" lon="9.4451216"><ele>1015.0</ele><time>2026-04-06T14:53:32.598Z</time></trkpt><trkpt lat="44.5410818" lon="9.4453324"><ele>1008.6666666666666</ele><time>2026-04-06T14:53:33.598Z</time></trkpt><trkpt lat="44.5411902" lon="9.4455381"><ele>1002.3333333333333</ele><time>2026-04-06T14:53:34.597Z</time></trkpt><trkpt lat="44.5412921" lon="9.4457359"><ele>996.0</ele><time>2026-04-06T14:53:35.6Z</time></trkpt><trkpt lat="44.5413856" lon="9.4459298"><ele>996.0</ele><time>2026-04-06T14:53:36.598Z</time></trkpt><trkpt lat="44.5414662" lon="9.4461234"><ele>996.0</ele><time>2026-04-06T14:53:37.599Z</time></trkpt><trkpt lat="44.5415477" lon="9.4463135"><ele>996.0</ele><time>2026-04-06T14:53:38.599Z</time></trkpt><trkpt lat="44.5416508" lon="9.4464865"><ele>1004.3333333333333</ele><time>2026-04-06T14:53:39.598Z</time></trkpt><trkpt lat="44.5417772" lon="9.4466286"><ele>1012.6666666666666</ele><time>2026-04-06T14:53:40.599Z</time></trkpt><trkpt lat="44.5419055" lon="9.446743"><ele>1021.0</ele><time>2026-04-06T14:53:41.598Z</time></trkpt><trkpt lat="44.5420176" lon="9.4468588"><ele>1015.75</ele><time>2026-04-06T14:53:42.597Z</time></trkpt><trkpt lat="44.5421057" lon="9.4470054"><ele>1010.5</ele><time>2026-04-06T14:53:43.598Z</time></trkpt><trkpt lat="44.5421565" lon="9.4471788"><ele>1005.25</ele><time>2026-04-06T14:53:44.599Z</time></trkpt><trkpt lat="44.5421812" lon="9.4473635"><ele>1000.0</ele><time>2026-04-06T14:53:45.6Z</time></trkpt><trkpt lat="44.5422189" lon="9.4475486"><ele>1000.0</ele><time>2026-04-06T14:53:46.599Z</time></trkpt><trkpt lat="44.5422838" lon="9.4477316"><ele>1000.0</ele><time>2026-04-06T14:53:47.599Z</time></trkpt><trkpt lat="44.5423556" lon="9.4479116"><ele>1000.0</ele><time>2026-04-06T14:53:48.599Z</time></trkpt><trkpt lat="44.5424034" lon="9.4480948"><ele>1000.0</ele><time>2026-04-06T14:53:49.6Z</time></trkpt><trkpt lat="44.542423" lon="9.4482799"><ele>1003.25</ele><time>2026-04-06T14:53:50.599Z</time></trkpt><trkpt lat="44.5424395" lon="9.448454"><ele>1006.5</ele><time>2026-04-06T14:53:51.599Z</time></trkpt><trkpt lat="44.5424875" lon="9.4486128"><ele>1009.75</ele><time>2026-04-06T14:53:52.599Z</time></trkpt><trkpt lat="44.542577" lon="9.4487717"><ele>1013.0</ele><time>2026-04-06T14:53:53.598Z</time></trkpt><trkpt lat="44.5426924" lon="9.4489274"><ele>1016.75</ele><time>2026-04-06T14:53:54.598Z</time></trkpt><trkpt lat="44.5428123" lon="9.4490721"><ele>1020.5</ele><time>2026-04-06T14:53:55.598Z</time></trkpt><trkpt lat="44.5429223" lon="9.4492116"><ele>1024.25</ele><time>2026-04-06T14:53:56.599Z</time></trkpt><trkpt lat="44.5430198" lon="9.449356"><ele>1028.0</ele><time>2026-04-06T14:53:57.597Z</time></trkpt><trkpt lat="44.543092" lon="9.4495248"><ele>1022.3333333333334</ele><time>2026-04-06T14:53:58.598Z</time></trkpt><trkpt lat="44.5431429" lon="9.4497171"><ele>1016.6666666666667</ele><time>2026-04-06T14:53:59.599Z</time></trkpt><trkpt lat="44.5431887" lon="9.449924"><ele>1011.0</ele><time>2026-04-06T14:54:00.601Z</time></trkpt><trkpt lat="44.5432403" lon="9.4501329"><ele>1011.0</ele><time>2026-04-06T14:54:01.598Z</time></trkpt><trkpt lat="44.5433121" lon="9.450338"><ele>1011.0</ele><time>2026-04-06T14:54:02.599Z</time></trkpt><trkpt lat="44.5434097" lon="9.4505339"><ele>1011.0</ele><time>2026-04-06T14:54:03.597Z</time></trkpt><trkpt lat="44.5435237" lon="9.4507183"><ele>1010.0</ele><time>2026-04-06T14:54:04.598Z</time></trkpt><trkpt lat="44.5436414" lon="9.4508849"><ele>1009.0</ele><time>2026-04-06T14:54:05.598Z</time></trkpt><trkpt lat="44.543752" lon="9.4510319"><ele>1008.0</ele><time>2026-04-06T14:54:06.598Z</time></trkpt><trkpt lat="44.5438567" lon="9.4511633"><ele>1008.0</ele><time>2026-04-06T14:54:07.598Z</time></trkpt><trkpt lat="44.5439614" lon="9.4512649"><ele>1008.0</ele><time>2026-04-06T14:54:08.599Z</time></trkpt><trkpt lat="44.5440693" lon="9.4513143"><ele>1008.0</ele><time>2026-04-06T14:54:09.598Z</time></trkpt><trkpt lat="44.5441768" lon="9.4513008"><ele>1008.0</ele><time>2026-04-06T14:54:10.599Z</time></trkpt><trkpt lat="44.5442926" lon="9.4512324"><ele>1008.0</ele><time>2026-04-06T14:54:11.598Z</time></trkpt><trkpt lat="44.5444028" lon="9.4511021"><ele>1008.0</ele><time>2026-04-06T14:54:12.597Z</time></trkpt><trkpt lat="44.5445007" lon="9.450912"><ele>1008.0</ele><time>2026-04-06T14:54:13.599Z</time></trkpt><trkpt lat="44.5445893" lon="9.4506984"><ele>1010.0</ele><time>2026-04-06T14:54:14.598Z</time></trkpt><trkpt lat="44.5446679" lon="9.4504899"><ele>1012.0</ele><time>2026-04-06T14:54:15.599Z</time></trkpt><trkpt lat="44.5447406" lon="9.4502962"><ele>1014.0</ele><time>2026-04-06T14:54:16.599Z</time></trkpt><trkpt lat="44.5448142" lon="9.4501251"><ele>1014.0</ele><time>2026-04-06T14:54:17.598Z</time></trkpt><trkpt lat="44.5448924" lon="9.449974"><ele>1014.0</ele><time>2026-04-06T14:54:18.599Z</time></trkpt><trkpt lat="44.5449766" lon="9.4498495"><ele>1014.0</ele><time>2026-04-06T14:54:19.598Z</time></trkpt><trkpt lat="44.5450676" lon="9.4497607"><ele>1014.0</ele><time>2026-04-06T14:54:20.599Z</time></trkpt><trkpt lat="44.545161" lon="9.4497132"><ele>1014.0</ele><time>2026-04-06T14:54:21.598Z</time></trkpt><trkpt lat="44.5452522" lon="9.4497052"><ele>1014.0000000000001</ele><time>2026-04-06T14:54:22.597Z</time></trkpt><trkpt lat="44.5453383" lon="9.4497279"><ele>1014.0000000000001</ele><time>2026-04-06T14:54:23.599Z</time></trkpt><trkpt lat="44.5454181" lon="9.4497753"><ele>1014.0</ele><time>2026-04-06T14:54:24.599Z</time></trkpt><trkpt lat="44.5454919" lon="9.449867"><ele>1014.0</ele><time>2026-04-06T14:54:25.599Z</time></trkpt><trkpt lat="44.5455486" lon="9.4499933"><ele>1014.75</ele><time>2026-04-06T14:54:26.599Z</time></trkpt><trkpt lat="44.5455945" lon="9.4501424"><ele>1015.5</ele><time>2026-04-06T14:54:27.598Z</time></trkpt><trkpt lat="44.5456388" lon="9.4502946"><ele>1016.25</ele><time>2026-04-06T14:54:28.598Z</time></trkpt><trkpt lat="44.5456827" lon="9.4504422"><ele>1017.0</ele><time>2026-04-06T14:54:29.599Z</time></trkpt><trkpt lat="44.5457243" lon="9.4505832"><ele>1017.0</ele><time>2026-04-06T14:54:30.599Z</time></trkpt><trkpt lat="44.5457635" lon="9.4507206"><ele>1017.0</ele><time>2026-04-06T14:54:31.599Z</time></trkpt><trkpt lat="44.5457939" lon="9.4508606"><ele>1017.0</ele><time>2026-04-06T14:54:32.598Z</time></trkpt><trkpt lat="44.5458074" lon="9.4510011"><ele>1017.0</ele><time>2026-04-06T14:54:33.598Z</time></trkpt><trkpt lat="44.5458034" lon="9.4511384"><ele>1017.0</ele><time>2026-04-06T14:54:34.599Z</time></trkpt><trkpt lat="44.5457874" lon="9.451277"><ele>1017.0</ele><time>2026-04-06T14:54:35.598Z</time></trkpt><trkpt lat="44.5457604" lon="9.4514185"><ele>1017.0</ele><time>2026-04-06T14:54:36.599Z</time></trkpt><trkpt lat="44.5457306" lon="9.4515602"><ele>1017.0</ele><time>2026-04-06T14:54:37.599Z</time></trkpt><trkpt lat="44.5457029" lon="9.4516975"><ele>1017.0</ele><time>2026-04-06T14:54:38.598Z</time></trkpt><trkpt lat="44.5456829" lon="9.4518298"><ele>1017.0</ele><time>2026-04-06T14:54:39.599Z</time></trkpt><trkpt lat="44.5456755" lon="9.4519581"><ele>1017.0</ele><time>2026-04-06T14:54:40.599Z</time></trkpt><trkpt lat="44.5456863" lon="9.4520789"><ele>1017.0</ele><time>2026-04-06T14:54:41.598Z</time></trkpt><trkpt lat="44.5457133" lon="9.4521828"><ele>1017.0</ele><time>2026-04-06T14:54:42.599Z</time></trkpt><trkpt lat="44.5457431" lon="9.4522671"><ele>1017.0</ele><time>2026-04-06T14:54:43.599Z</time></trkpt><trkpt lat="44.5457968" lon="9.4524093"><ele>1017.0</ele><time>2026-04-06T14:54:45.598Z</time></trkpt><trkpt lat="44.5458452" lon="9.4525481"><ele>1016.8333333333334</ele><time>2026-04-06T14:54:47.598Z</time></trkpt><trkpt lat="44.5459028" lon="9.452713"><ele>1016.6666666666667</ele><time>2026-04-06T14:54:49.599Z</time></trkpt><trkpt lat="44.5459348" lon="9.4528021"><ele>1016.5</ele><time>2026-04-06T14:54:50.599Z</time></trkpt><trkpt lat="44.5459713" lon="9.4528864"><ele>1016.3333333333334</ele><time>2026-04-06T14:54:51.598Z</time></trkpt><trkpt lat="44.5460154" lon="9.4529627"><ele>1016.1666666666667</ele><time>2026-04-06T14:54:52.598Z</time></trkpt><trkpt lat="44.5460669" lon="9.4530242"><ele>1016.0</ele><time>2026-04-06T14:54:53.599Z</time></trkpt><trkpt lat="44.546131" lon="9.4530689"><ele>1015.8333333333334</ele><time>2026-04-06T14:54:54.598Z</time></trkpt><trkpt lat="44.54621" lon="9.4530683"><ele>1015.6666666666667</ele><time>2026-04-06T14:54:55.598Z</time></trkpt><trkpt lat="44.5462767" lon="9.4530417"><ele>1015.5</ele><time>2026-04-06T14:54:56.599Z</time></trkpt><trkpt lat="44.5463433" lon="9.453"><ele>1015.3333333333333</ele><time>2026-04-06T14:54:57.598Z</time></trkpt><trkpt lat="44.5464117" lon="9.4529517"><ele>1015.1666666666666</ele><time>2026-04-06T14:54:58.598Z</time></trkpt><trkpt lat="44.546485" lon="9.4529017"><ele>1015.0</ele><time>2026-04-06T14:54:59.599Z</time></trkpt><trkpt lat="44.5465583" lon="9.45285"><ele>1014.9999999999999</ele><time>2026-04-06T14:55:00.598Z</time></trkpt><trkpt lat="44.5466317" lon="9.4528"><ele>1015.0</ele><time>2026-04-06T14:55:01.599Z</time></trkpt><trkpt lat="44.5467033" lon="9.452755"><ele>1015.0</ele><time>2026-04-06T14:55:02.598Z</time></trkpt><trkpt lat="44.5467783" lon="9.4527267"><ele>1015.0</ele><time>2026-04-06T14:55:03.599Z</time></trkpt><trkpt lat="44.5468583" lon="9.45272"><ele>1014.9999999999999</ele><time>2026-04-06T14:55:04.599Z</time></trkpt><trkpt lat="44.54694" lon="9.4527367"><ele>1015.0</ele><time>2026-04-06T14:55:05.599Z</time></trkpt><trkpt lat="44.5470167" lon="9.452765"><ele>1015.8333333333333</ele><time>2026-04-06T14:55:06.598Z</time></trkpt><trkpt lat="44.5470933" lon="9.4528017"><ele>1016.6666666666666</ele><time>2026-04-06T14:55:07.599Z</time></trkpt><trkpt lat="44.5471767" lon="9.4528317"><ele>1017.5</ele><time>2026-04-06T14:55:08.599Z</time></trkpt><trkpt lat="44.5472583" lon="9.4528433"><ele>1018.3333333333333</ele><time>2026-04-06T14:55:09.598Z</time></trkpt><trkpt lat="44.54733" lon="9.45284"><ele>1019.1666666666666</ele><time>2026-04-06T14:55:10.598Z</time></trkpt><trkpt lat="44.5474467" lon="9.4528483"><ele>1020.0</ele><time>2026-04-06T14:55:12.598Z</time></trkpt><trkpt lat="44.547525" lon="9.45293"><ele>1021.8333333333334</ele><time>2026-04-06T14:55:14.6Z</time></trkpt><trkpt lat="44.5475317" lon="9.45307"><ele>1023.6666666666667</ele><time>2026-04-06T14:55:16.598Z</time></trkpt><trkpt lat="44.5474583" lon="9.453155"><ele>1025.5</ele><time>2026-04-06T14:55:18.599Z</time></trkpt><trkpt lat="44.5473933" lon="9.4531583"><ele>1027.3333333333335</ele><time>2026-04-06T14:55:19.599Z</time></trkpt><trkpt lat="44.5473117" lon="9.4531267"><ele>1029.1666666666667</ele><time>2026-04-06T14:55:20.599Z</time></trkpt><trkpt lat="44.5472283" lon="9.4530883"><ele>1031.0</ele><time>2026-04-06T14:55:21.599Z</time></trkpt><trkpt lat="44.5471483" lon="9.4530533"><ele>1031.0</ele><time>2026-04-06T14:55:22.599Z</time></trkpt><trkpt lat="44.5470633" lon="9.4530317"><ele>1031.0</ele><time>2026-04-06T14:55:23.599Z</time></trkpt><trkpt lat="44.5469783" lon="9.45303"><ele>1031.0</ele><time>2026-04-06T14:55:24.598Z</time></trkpt><trkpt lat="44.546895" lon="9.4530467"><ele>1031.0</ele><time>2026-04-06T14:55:25.599Z</time></trkpt><trkpt lat="44.5468067" lon="9.4530783"><ele>1031.0</ele><time>2026-04-06T14:55:26.598Z</time></trkpt><trkpt lat="44.5467217" lon="9.4531267"><ele>1031.0</ele><time>2026-04-06T14:55:27.598Z</time></trkpt><trkpt lat="44.5466333" lon="9.4531967"><ele>1031.6</ele><time>2026-04-06T14:55:28.598Z</time></trkpt><trkpt lat="44.5465567" lon="9.4532783"><ele>1032.1999999999998</ele><time>2026-04-06T14:55:29.598Z</time></trkpt><trkpt lat="44.5464883" lon="9.4533683"><ele>1032.8000000000002</ele><time>2026-04-06T14:55:30.599Z</time></trkpt><trkpt lat="44.5464233" lon="9.4534633"><ele>1033.4</ele><time>2026-04-06T14:55:31.598Z</time></trkpt><trkpt lat="44.54636" lon="9.4535583"><ele>1034.0</ele><time>2026-04-06T14:55:32.599Z</time></trkpt><trkpt lat="44.5462967" lon="9.4536483"><ele>1034.0</ele><time>2026-04-06T14:55:33.599Z</time></trkpt><trkpt lat="44.546235" lon="9.4537417"><ele>1034.0</ele><time>2026-04-06T14:55:34.598Z</time></trkpt><trkpt lat="44.5461717" lon="9.453835"><ele>1034.0</ele><time>2026-04-06T14:55:35.599Z</time></trkpt><trkpt lat="44.5461067" lon="9.4539317"><ele>1034.0</ele><time>2026-04-06T14:55:36.599Z</time></trkpt><trkpt lat="44.5460467" lon="9.4540333"><ele>1034.0</ele><time>2026-04-06T14:55:37.598Z</time></trkpt><trkpt lat="44.545995" lon="9.4541483"><ele>1033.5</ele><time>2026-04-06T14:55:38.599Z</time></trkpt><trkpt lat="44.5459567" lon="9.4542867"><ele>1033.0</ele><time>2026-04-06T14:55:39.598Z</time></trkpt><trkpt lat="44.5459383" lon="9.454445"><ele>1032.5</ele><time>2026-04-06T14:55:40.597Z</time></trkpt><trkpt lat="44.5459317" lon="9.45463"><ele>1032.0</ele><time>2026-04-06T14:55:41.599Z</time></trkpt><trkpt lat="44.5459317" lon="9.4548483"><ele>1034.3333333333333</ele><time>2026-04-06T14:55:42.599Z</time></trkpt><trkpt lat="44.5459283" lon="9.4550933"><ele>1036.6666666666665</ele><time>2026-04-06T14:55:43.599Z</time></trkpt><trkpt lat="44.5459217" lon="9.45536"><ele>1039.0</ele><time>2026-04-06T14:55:44.599Z</time></trkpt><trkpt lat="44.5459133" lon="9.4556217"><ele>1039.6666666666665</ele><time>2026-04-06T14:55:45.598Z</time></trkpt><trkpt lat="44.5459067" lon="9.4558617"><ele>1040.3333333333333</ele><time>2026-04-06T14:55:46.599Z</time></trkpt><trkpt lat="44.545905" lon="9.45608"><ele>1041.0</ele><time>2026-04-06T14:55:47.599Z</time></trkpt><trkpt lat="44.545905" lon="9.456285"><ele>1042.5</ele><time>2026-04-06T14:55:48.599Z</time></trkpt><trkpt lat="44.5458983" lon="9.4564733"><ele>1044.0</ele><time>2026-04-06T14:55:49.599Z</time></trkpt><trkpt lat="44.5458767" lon="9.456645"><ele>1045.5</ele><time>2026-04-06T14:55:50.598Z</time></trkpt><trkpt lat="44.5458317" lon="9.4568067"><ele>1047.0</ele><time>2026-04-06T14:55:51.599Z</time></trkpt><trkpt lat="44.5457533" lon="9.4569483"><ele>1047.0</ele><time>2026-04-06T14:55:52.598Z</time></trkpt><trkpt lat="44.5456583" lon="9.4570583"><ele>1047.0</ele><time>2026-04-06T14:55:53.599Z</time></trkpt><trkpt lat="44.54556" lon="9.45713"><ele>1047.0</ele><time>2026-04-06T14:55:54.599Z</time></trkpt><trkpt lat="44.54546" lon="9.4571667"><ele>1047.0</ele><time>2026-04-06T14:55:55.599Z</time></trkpt><trkpt lat="44.5453533" lon="9.45717"><ele>1047.0</ele><time>2026-04-06T14:55:56.602Z</time></trkpt><trkpt lat="44.545245" lon="9.4571317"><ele>1047.4</ele><time>2026-04-06T14:55:57.6Z</time></trkpt><trkpt lat="44.5451483" lon="9.4570533"><ele>1047.8000000000002</ele><time>2026-04-06T14:55:58.599Z</time></trkpt><trkpt lat="44.5450533" lon="9.4569567"><ele>1048.2</ele><time>2026-04-06T14:55:59.599Z</time></trkpt><trkpt lat="44.5449667" lon="9.4568567"><ele>1048.6000000000001</ele><time>2026-04-06T14:56:00.599Z</time></trkpt><trkpt lat="44.54489" lon="9.456765"><ele>1049.0</ele><time>2026-04-06T14:56:01.599Z</time></trkpt><trkpt lat="44.5448183" lon="9.4566783"><ele>1049.0</ele><time>2026-04-06T14:56:02.599Z</time></trkpt><trkpt lat="44.54475" lon="9.456595"><ele>1049.0</ele><time>2026-04-06T14:56:03.599Z</time></trkpt><trkpt lat="44.5446883" lon="9.4565167"><ele>1049.0</ele><time>2026-04-06T14:56:04.599Z</time></trkpt><trkpt lat="44.54463" lon="9.4564467"><ele>1049.0</ele><time>2026-04-06T14:56:05.599Z</time></trkpt><trkpt lat="44.5445767" lon="9.456395"><ele>1049.0</ele><time>2026-04-06T14:56:06.598Z</time></trkpt><trkpt lat="44.5444783" lon="9.4563267"><ele>1049.0</ele><time>2026-04-06T14:56:08.599Z</time></trkpt><trkpt lat="44.544395" lon="9.456285"><ele>1048.1666666666667</ele><time>2026-04-06T14:56:16.599Z</time></trkpt><trkpt lat="44.544315" lon="9.4562633"><ele>1047.3333333333335</ele><time>2026-04-06T14:56:19.599Z</time></trkpt><trkpt lat="44.54422" lon="9.4562283"><ele>1046.5</ele><time>2026-04-06T14:56:21.599Z</time></trkpt><trkpt lat="44.5441583" lon="9.456205"><ele>1045.6666666666667</ele><time>2026-04-06T14:56:22.599Z</time></trkpt><trkpt lat="44.5440917" lon="9.456185"><ele>1044.8333333333333</ele><time>2026-04-06T14:56:23.6Z</time></trkpt><trkpt lat="44.54402" lon="9.4561683"><ele>1044.0</ele><time>2026-04-06T14:56:24.598Z</time></trkpt><trkpt lat="44.5439417" lon="9.45615"><ele>1044.0</ele><time>2026-04-06T14:56:25.598Z</time></trkpt><trkpt lat="44.5438617" lon="9.4561283"><ele>1044.0</ele><time>2026-04-06T14:56:26.598Z</time></trkpt><trkpt lat="44.5437733" lon="9.456105"><ele>1044.0</ele><time>2026-04-06T14:56:27.599Z</time></trkpt><trkpt lat="44.54368" lon="9.4560783"><ele>1044.0</ele><time>2026-04-06T14:56:28.599Z</time></trkpt><trkpt lat="44.5435883" lon="9.45604"><ele>1044.0</ele><time>2026-04-06T14:56:29.599Z</time></trkpt><trkpt lat="44.5435067" lon="9.455985"><ele>1046.4</ele><time>2026-04-06T14:56:30.599Z</time></trkpt><trkpt lat="44.5434317" lon="9.4559083"><ele>1048.8000000000002</ele><time>2026-04-06T14:56:31.598Z</time></trkpt><trkpt lat="44.5433667" lon="9.4558033"><ele>1051.1999999999998</ele><time>2026-04-06T14:56:32.599Z</time></trkpt><trkpt lat="44.5433183" lon="9.4556733"><ele>1053.6</ele><time>2026-04-06T14:56:33.599Z</time></trkpt><trkpt lat="44.5432933" lon="9.4555283"><ele>1056.0</ele><time>2026-04-06T14:56:34.599Z</time></trkpt><trkpt lat="44.54328" lon="9.4553717"><ele>1056.0</ele><time>2026-04-06T14:56:35.599Z</time></trkpt><trkpt lat="44.54327" lon="9.4552067"><ele>1056.0</ele><time>2026-04-06T14:56:36.599Z</time></trkpt><trkpt lat="44.5432667" lon="9.45504"><ele>1056.0</ele><time>2026-04-06T14:56:37.599Z</time></trkpt><trkpt lat="44.5432633" lon="9.4548683"><ele>1056.0</ele><time>2026-04-06T14:56:38.598Z</time></trkpt><trkpt lat="44.5432617" lon="9.454695"><ele>1055.25</ele><time>2026-04-06T14:56:39.599Z</time></trkpt><trkpt lat="44.54325" lon="9.4545117"><ele>1054.5</ele><time>2026-04-06T14:56:40.598Z</time></trkpt><trkpt lat="44.5432283" lon="9.45433"><ele>1053.75</ele><time>2026-04-06T14:56:41.599Z</time></trkpt><trkpt lat="44.543205" lon="9.4541633"><ele>1053.0</ele><time>2026-04-06T14:56:42.597Z</time></trkpt><trkpt lat="44.5431817" lon="9.4540033"><ele>1053.0</ele><time>2026-04-06T14:56:43.598Z</time></trkpt><trkpt lat="44.5431533" lon="9.45385"><ele>1053.0</ele><time>2026-04-06T14:56:44.598Z</time></trkpt><trkpt lat="44.54312" lon="9.453695"><ele>1053.0</ele><time>2026-04-06T14:56:45.598Z</time></trkpt><trkpt lat="44.5430917" lon="9.45354"><ele>1053.0</ele><time>2026-04-06T14:56:46.601Z</time></trkpt><trkpt lat="44.5430633" lon="9.453385"><ele>1053.0</ele><time>2026-04-06T14:56:47.599Z</time></trkpt><trkpt lat="44.54302" lon="9.45323"><ele>1053.0</ele><time>2026-04-06T14:56:48.598Z</time></trkpt><trkpt lat="44.5429483" lon="9.4530733"><ele>1053.0</ele><time>2026-04-06T14:56:49.598Z</time></trkpt><trkpt lat="44.542845" lon="9.452905"><ele>1053.0</ele><time>2026-04-06T14:56:50.599Z</time></trkpt><trkpt lat="44.54273" lon="9.452715"><ele>1057.6666666666667</ele><time>2026-04-06T14:56:51.599Z</time></trkpt><trkpt lat="44.5426167" lon="9.452515"><ele>1062.3333333333335</ele><time>2026-04-06T14:56:52.599Z</time></trkpt><trkpt lat="44.54252" lon="9.4522967"><ele>1067.0</ele><time>2026-04-06T14:56:53.599Z</time></trkpt><trkpt lat="44.542435" lon="9.452065"><ele>1067.0</ele><time>2026-04-06T14:56:54.599Z</time></trkpt><trkpt lat="44.542365" lon="9.45182"><ele>1067.0</ele><time>2026-04-06T14:56:55.598Z</time></trkpt><trkpt lat="44.5423033" lon="9.451565"><ele>1067.0</ele><time>2026-04-06T14:56:56.6Z</time></trkpt><trkpt lat="44.5422483" lon="9.45131"><ele>1063.0</ele><time>2026-04-06T14:56:57.599Z</time></trkpt><trkpt lat="44.5422017" lon="9.4510633"><ele>1059.0</ele><time>2026-04-06T14:56:58.598Z</time></trkpt><trkpt lat="44.5421617" lon="9.4508317"><ele>1055.0</ele><time>2026-04-06T14:56:59.598Z</time></trkpt><trkpt lat="44.5421133" lon="9.45062"><ele>1064.3333333333335</ele><time>2026-04-06T14:57:00.599Z</time></trkpt><trkpt lat="44.5420467" lon="9.4504317"><ele>1073.6666666666667</ele><time>2026-04-06T14:57:01.598Z</time></trkpt><trkpt lat="44.54194" lon="9.4502767"><ele>1083.0</ele><time>2026-04-06T14:57:02.598Z</time></trkpt><trkpt lat="44.541805" lon="9.4501583"><ele>1083.0</ele><time>2026-04-06T14:57:03.599Z</time></trkpt><trkpt lat="44.5416583" lon="9.4500583"><ele>1083.0</ele><time>2026-04-06T14:57:04.599Z</time></trkpt><trkpt lat="44.54152" lon="9.4499583"><ele>1083.0</ele><time>2026-04-06T14:57:05.598Z</time></trkpt><trkpt lat="44.5414033" lon="9.44983"><ele>1083.0</ele><time>2026-04-06T14:57:06.599Z</time></trkpt><trkpt lat="44.5413167" lon="9.44966"><ele>1083.0</ele><time>2026-04-06T14:57:07.598Z</time></trkpt><trkpt lat="44.5412517" lon="9.44945"><ele>1083.0</ele><time>2026-04-06T14:57:08.598Z</time></trkpt><trkpt lat="44.54119" lon="9.4492233"><ele>1086.0</ele><time>2026-04-06T14:57:09.599Z</time></trkpt><trkpt lat="44.5411183" lon="9.448995"><ele>1089.0</ele><time>2026-04-06T14:57:10.599Z</time></trkpt><trkpt lat="44.54103" lon="9.4487617"><ele>1092.0</ele><time>2026-04-06T14:57:11.599Z</time></trkpt><trkpt lat="44.5409333" lon="9.4485133"><ele>1092.0</ele><time>2026-04-06T14:57:12.599Z</time></trkpt><trkpt lat="44.5408333" lon="9.4482583"><ele>1092.0</ele><time>2026-04-06T14:57:13.599Z</time></trkpt><trkpt lat="44.540725" lon="9.4479983"><ele>1092.0</ele><time>2026-04-06T14:57:14.6Z</time></trkpt><trkpt lat="44.5406117" lon="9.4477317"><ele>1092.6666666666667</ele><time>2026-04-06T14:57:15.599Z</time></trkpt><trkpt lat="44.5405117" lon="9.447475"><ele>1093.3333333333335</ele><time>2026-04-06T14:57:16.598Z</time></trkpt><trkpt lat="44.5404267" lon="9.447245"><ele>1094.0</ele><time>2026-04-06T14:57:17.599Z</time></trkpt><trkpt lat="44.5403383" lon="9.4470617"><ele>1094.0</ele><time>2026-04-06T14:57:18.599Z</time></trkpt><trkpt lat="44.5402383" lon="9.446935"><ele>1094.0</ele><time>2026-04-06T14:57:19.599Z</time></trkpt><trkpt lat="44.54012" lon="9.4468767"><ele>1094.0</ele><time>2026-04-06T14:57:20.599Z</time></trkpt><trkpt lat="44.539985" lon="9.4468867"><ele>1094.0</ele><time>2026-04-06T14:57:21.598Z</time></trkpt><trkpt lat="44.5398383" lon="9.4469533"><ele>1094.0</ele><time>2026-04-06T14:57:22.599Z</time></trkpt><trkpt lat="44.5396883" lon="9.44704"><ele>1094.0</ele><time>2026-04-06T14:57:23.599Z</time></trkpt><trkpt lat="44.5395367" lon="9.44713"><ele>1094.0</ele><time>2026-04-06T14:57:24.599Z</time></trkpt><trkpt lat="44.5393817" lon="9.4471967"><ele>1100.75</ele><time>2026-04-06T14:57:25.599Z</time></trkpt><trkpt lat="44.5392333" lon="9.44723"><ele>1107.5</ele><time>2026-04-06T14:57:26.598Z</time></trkpt><trkpt lat="44.53909" lon="9.4472333"><ele>1114.25</ele><time>2026-04-06T14:57:27.599Z</time></trkpt><trkpt lat="44.538945" lon="9.447215"><ele>1121.0</ele><time>2026-04-06T14:57:28.598Z</time></trkpt><trkpt lat="44.5388083" lon="9.4472117"><ele>1120.0</ele><time>2026-04-06T14:57:29.597Z</time></trkpt><trkpt lat="44.53867" lon="9.4472467"><ele>1119.0</ele><time>2026-04-06T14:57:30.598Z</time></trkpt><trkpt lat="44.5385383" lon="9.4473167"><ele>1118.0</ele><time>2026-04-06T14:57:31.599Z</time></trkpt><trkpt lat="44.53842" lon="9.447435"><ele>1117.0</ele><time>2026-04-06T14:57:32.599Z</time></trkpt><trkpt lat="44.5383117" lon="9.4475867"><ele>1117.0</ele><time>2026-04-06T14:57:33.599Z</time></trkpt><trkpt lat="44.5382117" lon="9.447755"><ele>1117.0</ele><time>2026-04-06T14:57:34.598Z</time></trkpt><trkpt lat="44.5381217" lon="9.4479133"><ele>1117.0</ele><time>2026-04-06T14:57:35.599Z</time></trkpt><trkpt lat="44.53803" lon="9.44804"><ele>1117.0</ele><time>2026-04-06T14:57:36.599Z</time></trkpt><trkpt lat="44.537925" lon="9.448115"><ele>1118.5</ele><time>2026-04-06T14:57:37.6Z</time></trkpt><trkpt lat="44.5378067" lon="9.4481383"><ele>1120.0</ele><time>2026-04-06T14:57:38.599Z</time></trkpt><trkpt lat="44.5376833" lon="9.4481067"><ele>1121.5</ele><time>2026-04-06T14:57:39.599Z</time></trkpt><trkpt lat="44.5375483" lon="9.448035"><ele>1123.0</ele><time>2026-04-06T14:57:40.599Z</time></trkpt><trkpt lat="44.537405" lon="9.447945"><ele>1123.0</ele><time>2026-04-06T14:57:41.599Z</time></trkpt><trkpt lat="44.53725" lon="9.4478533"><ele>1123.0</ele><time>2026-04-06T14:57:42.599Z</time></trkpt><trkpt lat="44.5370917" lon="9.4477667"><ele>1123.0</ele><time>2026-04-06T14:57:43.598Z</time></trkpt><trkpt lat="44.5369383" lon="9.4476767"><ele>1129.0</ele><time>2026-04-06T14:57:44.599Z</time></trkpt><trkpt lat="44.5367983" lon="9.447565"><ele>1135.0</ele><time>2026-04-06T14:57:45.599Z</time></trkpt><trkpt lat="44.53667" lon="9.4474217"><ele>1141.0</ele><time>2026-04-06T14:57:46.599Z</time></trkpt><trkpt lat="44.53656" lon="9.44725"><ele>1136.6666666666665</ele><time>2026-04-06T14:57:47.599Z</time></trkpt><trkpt lat="44.5364733" lon="9.4470583"><ele>1132.3333333333333</ele><time>2026-04-06T14:57:48.598Z</time></trkpt><trkpt lat="44.5364033" lon="9.4468583"><ele>1128.0</ele><time>2026-04-06T14:57:49.598Z</time></trkpt><trkpt lat="44.53634" lon="9.4466683"><ele>1128.0</ele><time>2026-04-06T14:57:50.599Z</time></trkpt><trkpt lat="44.5362583" lon="9.4465017"><ele>1128.0</ele><time>2026-04-06T14:57:51.598Z</time></trkpt><trkpt lat="44.53615" lon="9.4463633"><ele>1128.0</ele><time>2026-04-06T14:57:52.599Z</time></trkpt><trkpt lat="44.536025" lon="9.4462717"><ele>1128.0</ele><time>2026-04-06T14:57:53.599Z</time></trkpt><trkpt lat="44.5359" lon="9.4462267"><ele>1129.25</ele><time>2026-04-06T14:57:54.598Z</time></trkpt><trkpt lat="44.5357817" lon="9.4462233"><ele>1130.5</ele><time>2026-04-06T14:57:55.598Z</time></trkpt><trkpt lat="44.53567" lon="9.4462617"><ele>1131.75</ele><time>2026-04-06T14:57:56.599Z</time></trkpt><trkpt lat="44.5355667" lon="9.4463467"><ele>1133.0</ele><time>2026-04-06T14:57:57.599Z</time></trkpt><trkpt lat="44.5354733" lon="9.4464667"><ele>1132.75</ele><time>2026-04-06T14:57:58.598Z</time></trkpt><trkpt lat="44.5353883" lon="9.446615"><ele>1132.5</ele><time>2026-04-06T14:57:59.598Z</time></trkpt><trkpt lat="44.5352983" lon="9.4467767"><ele>1132.25</ele><time>2026-04-06T14:58:00.599Z</time></trkpt><trkpt lat="44.5352" lon="9.4469483"><ele>1132.0</ele><time>2026-04-06T14:58:01.599Z</time></trkpt><trkpt lat="44.5350967" lon="9.447125"><ele>1138.6666666666665</ele><time>2026-04-06T14:58:02.599Z</time></trkpt><trkpt lat="44.534995" lon="9.4473083"><ele>1145.3333333333333</ele><time>2026-04-06T14:58:03.599Z</time></trkpt><trkpt lat="44.5348983" lon="9.447505"><ele>1152.0</ele><time>2026-04-06T14:58:04.599Z</time></trkpt><trkpt lat="44.53481" lon="9.4477183"><ele>1152.0</ele><time>2026-04-06T14:58:05.603Z</time></trkpt><trkpt lat="44.5347309" lon="9.4479434"><ele>1152.0</ele><time>2026-04-06T14:58:06.599Z</time></trkpt><trkpt lat="44.5346579" lon="9.4481798"><ele>1152.0</ele><time>2026-04-06T14:58:07.598Z</time></trkpt><trkpt lat="44.5345874" lon="9.4484162"><ele>1150.0</ele><time>2026-04-06T14:58:08.599Z</time></trkpt><trkpt lat="44.5345077" lon="9.4486429"><ele>1148.0</ele><time>2026-04-06T14:58:09.598Z</time></trkpt><trkpt lat="44.5344135" lon="9.4488598"><ele>1146.0</ele><time>2026-04-06T14:58:10.599Z</time></trkpt><trkpt lat="44.5343118" lon="9.4490699"><ele>1151.3333333333333</ele><time>2026-04-06T14:58:11.599Z</time></trkpt><trkpt lat="44.5342117" lon="9.4492743"><ele>1156.6666666666665</ele><time>2026-04-06T14:58:12.599Z</time></trkpt><trkpt lat="44.5341154" lon="9.4494676"><ele>1162.0</ele><time>2026-04-06T14:58:13.599Z</time></trkpt><trkpt lat="44.5340277" lon="9.4496461"><ele>1165.0</ele><time>2026-04-06T14:58:14.598Z</time></trkpt><trkpt lat="44.5339517" lon="9.4498115"><ele>1168.0</ele><time>2026-04-06T14:58:15.599Z</time></trkpt><trkpt lat="44.5338977" lon="9.4499827"><ele>1171.0</ele><time>2026-04-06T14:58:16.599Z</time></trkpt><trkpt lat="44.5338818" lon="9.4501723"><ele>1174.0</ele><time>2026-04-06T14:58:17.599Z</time></trkpt><trkpt lat="44.5339039" lon="9.4503721"><ele>1174.3333333333333</ele><time>2026-04-06T14:58:18.6Z</time></trkpt><trkpt lat="44.5339625" lon="9.4505705"><ele>1174.6666666666667</ele><time>2026-04-06T14:58:19.598Z</time></trkpt><trkpt lat="44.5340497" lon="9.4507738"><ele>1175.0</ele><time>2026-04-06T14:58:20.599Z</time></trkpt><trkpt lat="44.5341483" lon="9.4509865"><ele>1175.0</ele><time>2026-04-06T14:58:21.599Z</time></trkpt><trkpt lat="44.5342458" lon="9.4512039"><ele>1175.0</ele><time>2026-04-06T14:58:22.599Z</time></trkpt><trkpt lat="44.5343346" lon="9.4514226"><ele>1175.0</ele><time>2026-04-06T14:58:23.599Z</time></trkpt><trkpt lat="44.5344023" lon="9.4516496"><ele>1172.6666666666667</ele><time>2026-04-06T14:58:24.599Z</time></trkpt><trkpt lat="44.5344461" lon="9.45189"><ele>1170.3333333333333</ele><time>2026-04-06T14:58:25.599Z</time></trkpt><trkpt lat="44.5344704" lon="9.4521448"><ele>1168.0</ele><time>2026-04-06T14:58:26.599Z</time></trkpt><trkpt lat="44.5344848" lon="9.4524061"><ele>1167.6666666666665</ele><time>2026-04-06T14:58:27.599Z</time></trkpt><trkpt lat="44.5344938" lon="9.4526611"><ele>1167.3333333333333</ele><time>2026-04-06T14:58:28.599Z</time></trkpt><trkpt lat="44.5345012" lon="9.4528972"><ele>1167.0</ele><time>2026-04-06T14:58:29.599Z</time></trkpt><trkpt lat="44.5345137" lon="9.453113"><ele>1169.25</ele><time>2026-04-06T14:58:30.598Z</time></trkpt><trkpt lat="44.5345205" lon="9.4533099"><ele>1171.5</ele><time>2026-04-06T14:58:31.599Z</time></trkpt><trkpt lat="44.534504" lon="9.4534877"><ele>1173.75</ele><time>2026-04-06T14:58:32.599Z</time></trkpt><trkpt lat="44.5344544" lon="9.4536504"><ele>1176.0</ele><time>2026-04-06T14:58:33.599Z</time></trkpt><trkpt lat="44.5343692" lon="9.4537891"><ele>1182.0</ele><time>2026-04-06T14:58:34.599Z</time></trkpt><trkpt lat="44.5342537" lon="9.4538929"><ele>1188.0</ele><time>2026-04-06T14:58:35.6Z</time></trkpt><trkpt lat="44.5341159" lon="9.4539617"><ele>1194.0</ele><time>2026-04-06T14:58:36.598Z</time></trkpt><trkpt lat="44.5339704" lon="9.4540155"><ele>1200.0</ele><time>2026-04-06T14:58:37.599Z</time></trkpt><trkpt lat="44.5338379" lon="9.4540808"><ele>1200.0</ele><time>2026-04-06T14:58:38.599Z</time></trkpt><trkpt lat="44.5337243" lon="9.454174"><ele>1200.0</ele><time>2026-04-06T14:58:39.598Z</time></trkpt><trkpt lat="44.5336353" lon="9.4543114"><ele>1200.0</ele><time>2026-04-06T14:58:40.599Z</time></trkpt><trkpt lat="44.5335753" lon="9.4544807"><ele>1200.0</ele><time>2026-04-06T14:58:41.598Z</time></trkpt><trkpt lat="44.5335575" lon="9.454672"><ele>1192.0</ele><time>2026-04-06T14:58:42.598Z</time></trkpt><trkpt lat="44.5335821" lon="9.4548716"><ele>1184.0</ele><time>2026-04-06T14:58:43.598Z</time></trkpt><trkpt lat="44.5336415" lon="9.4550688"><ele>1176.0</ele><time>2026-04-06T14:58:44.599Z</time></trkpt><trkpt lat="44.5337181" lon="9.4552542"><ele>1183.5</ele><time>2026-04-06T14:58:45.599Z</time></trkpt><trkpt lat="44.5337987" lon="9.4554285"><ele>1191.0</ele><time>2026-04-06T14:58:46.598Z</time></trkpt><trkpt lat="44.5338799" lon="9.4555848"><ele>1198.5</ele><time>2026-04-06T14:58:47.598Z</time></trkpt><trkpt lat="44.5339659" lon="9.4557272"><ele>1206.0</ele><time>2026-04-06T14:58:48.6Z</time></trkpt><trkpt lat="44.5340545" lon="9.4558569"><ele>1206.0</ele><time>2026-04-06T14:58:49.599Z</time></trkpt><trkpt lat="44.5341432" lon="9.4559787"><ele>1206.0</ele><time>2026-04-06T14:58:50.599Z</time></trkpt><trkpt lat="44.5342208" lon="9.4561031"><ele>1206.0</ele><time>2026-04-06T14:58:51.599Z</time></trkpt><trkpt lat="44.5342783" lon="9.4562365"><ele>1206.0</ele><time>2026-04-06T14:58:52.599Z</time></trkpt><trkpt lat="44.5343154" lon="9.4563872"><ele>1205.5</ele><time>2026-04-06T14:58:53.599Z</time></trkpt><trkpt lat="44.5343267" lon="9.45656"><ele>1205.0</ele><time>2026-04-06T14:58:54.599Z</time></trkpt><trkpt lat="44.534325" lon="9.4567533"><ele>1204.5</ele><time>2026-04-06T14:58:55.598Z</time></trkpt><trkpt lat="44.5343083" lon="9.456975"><ele>1204.0</ele><time>2026-04-06T14:58:56.598Z</time></trkpt><trkpt lat="44.5342867" lon="9.457215"><ele>1204.0</ele><time>2026-04-06T14:58:57.599Z</time></trkpt><trkpt lat="44.534265" lon="9.457445"><ele>1204.0</ele><time>2026-04-06T14:58:58.598Z</time></trkpt><trkpt lat="44.53424" lon="9.4576567"><ele>1204.0</ele><time>2026-04-06T14:58:59.598Z</time></trkpt><trkpt lat="44.53422" lon="9.4578567"><ele>1204.25</ele><time>2026-04-06T14:59:00.599Z</time></trkpt><trkpt lat="44.5342067" lon="9.4580383"><ele>1204.5</ele><time>2026-04-06T14:59:01.599Z</time></trkpt><trkpt lat="44.5342233" lon="9.4582133"><ele>1204.75</ele><time>2026-04-06T14:59:02.598Z</time></trkpt><trkpt lat="44.5342817" lon="9.4583833"><ele>1205.0</ele><time>2026-04-06T14:59:03.598Z</time></trkpt><trkpt lat="44.5343783" lon="9.4585517"><ele>1205.0</ele><time>2026-04-06T14:59:04.598Z</time></trkpt><trkpt lat="44.5344867" lon="9.4587183"><ele>1205.0</ele><time>2026-04-06T14:59:05.597Z</time></trkpt><trkpt lat="44.534595" lon="9.4588767"><ele>1205.0</ele><time>2026-04-06T14:59:06.598Z</time></trkpt><trkpt lat="44.5346917" lon="9.4590217"><ele>1211.0</ele><time>2026-04-06T14:59:07.597Z</time></trkpt><trkpt lat="44.5347717" lon="9.4591683"><ele>1217.0</ele><time>2026-04-06T14:59:08.598Z</time></trkpt><trkpt lat="44.5348283" lon="9.4593183"><ele>1223.0</ele><time>2026-04-06T14:59:09.599Z</time></trkpt><trkpt lat="44.534845" lon="9.45948"><ele>1229.0</ele><time>2026-04-06T14:59:10.598Z</time></trkpt><trkpt lat="44.5348233" lon="9.4596517"><ele>1229.0</ele><time>2026-04-06T14:59:11.599Z</time></trkpt><trkpt lat="44.5347717" lon="9.4598183"><ele>1229.0</ele><time>2026-04-06T14:59:12.597Z</time></trkpt><trkpt lat="44.5347233" lon="9.4599867"><ele>1229.0</ele><time>2026-04-06T14:59:13.598Z</time></trkpt><trkpt lat="44.5347" lon="9.46017"><ele>1229.0</ele><time>2026-04-06T14:59:14.597Z</time></trkpt><trkpt lat="44.5347183" lon="9.4603683"><ele>1229.0</ele><time>2026-04-06T14:59:15.597Z</time></trkpt><trkpt lat="44.5347717" lon="9.4605833"><ele>1229.0</ele><time>2026-04-06T14:59:16.598Z</time></trkpt><trkpt lat="44.5348233" lon="9.46081"><ele>1229.0</ele><time>2026-04-06T14:59:17.597Z</time></trkpt><trkpt lat="44.534865" lon="9.4610467"><ele>1229.0</ele><time>2026-04-06T14:59:18.597Z</time></trkpt><trkpt lat="44.5349033" lon="9.4612733"><ele>1229.0</ele><time>2026-04-06T14:59:19.597Z</time></trkpt><trkpt lat="44.5349367" lon="9.4614767"><ele>1229.0</ele><time>2026-04-06T14:59:20.598Z</time></trkpt><trkpt lat="44.5349817" lon="9.4616633"><ele>1228.0</ele><time>2026-04-06T14:59:21.597Z</time></trkpt><trkpt lat="44.535055" lon="9.4618383"><ele>1227.0</ele><time>2026-04-06T14:59:22.598Z</time></trkpt><trkpt lat="44.5351633" lon="9.4619967"><ele>1226.0</ele><time>2026-04-06T14:59:23.598Z</time></trkpt><trkpt lat="44.535295" lon="9.4621517"><ele>1232.6666666666667</ele><time>2026-04-06T14:59:24.598Z</time></trkpt><trkpt lat="44.535435" lon="9.4623083"><ele>1239.3333333333333</ele><time>2026-04-06T14:59:25.601Z</time></trkpt><trkpt lat="44.5355633" lon="9.462465"><ele>1246.0</ele><time>2026-04-06T14:59:26.598Z</time></trkpt><trkpt lat="44.5356667" lon="9.4626367"><ele>1246.0</ele><time>2026-04-06T14:59:27.597Z</time></trkpt><trkpt lat="44.5357467" lon="9.462835"><ele>1246.0</ele><time>2026-04-06T14:59:28.597Z</time></trkpt><trkpt lat="44.5358083" lon="9.4630517"><ele>1246.0</ele><time>2026-04-06T14:59:29.599Z</time></trkpt><trkpt lat="44.5358583" lon="9.463285"><ele>1245.3333333333333</ele><time>2026-04-06T14:59:30.598Z</time></trkpt><trkpt lat="44.5358967" lon="9.4635283"><ele>1244.6666666666667</ele><time>2026-04-06T14:59:31.597Z</time></trkpt><trkpt lat="44.535915" lon="9.46378"><ele>1244.0</ele><time>2026-04-06T14:59:32.599Z</time></trkpt><trkpt lat="44.5359217" lon="9.46404"><ele>1244.0</ele><time>2026-04-06T14:59:33.598Z</time></trkpt><trkpt lat="44.5359233" lon="9.4643133"><ele>1244.0</ele><time>2026-04-06T14:59:34.597Z</time></trkpt><trkpt lat="44.5359233" lon="9.4645933"><ele>1244.0</ele><time>2026-04-06T14:59:35.599Z</time></trkpt><trkpt lat="44.535925" lon="9.4648633"><ele>1245.3333333333335</ele><time>2026-04-06T14:59:36.598Z</time></trkpt><trkpt lat="44.5359217" lon="9.4650983"><ele>1246.6666666666667</ele><time>2026-04-06T14:59:37.597Z</time></trkpt><trkpt lat="44.5359217" lon="9.4653217"><ele>1248.0</ele><time>2026-04-06T14:59:38.598Z</time></trkpt><trkpt lat="44.53593" lon="9.4655367"><ele>1248.0</ele><time>2026-04-06T14:59:39.598Z</time></trkpt><trkpt lat="44.5359583" lon="9.4657367"><ele>1248.0</ele><time>2026-04-06T14:59:40.597Z</time></trkpt><trkpt lat="44.5360217" lon="9.465915"><ele>1248.0</ele><time>2026-04-06T14:59:41.598Z</time></trkpt><trkpt lat="44.5361283" lon="9.4660733"><ele>1248.0</ele><time>2026-04-06T14:59:42.6Z</time></trkpt><trkpt lat="44.5362783" lon="9.4662083"><ele>1250.3333333333333</ele><time>2026-04-06T14:59:43.597Z</time></trkpt><trkpt lat="44.5364533" lon="9.466315"><ele>1252.6666666666665</ele><time>2026-04-06T14:59:44.598Z</time></trkpt><trkpt lat="44.5366417" lon="9.4663983"><ele>1255.0</ele><time>2026-04-06T14:59:45.597Z</time></trkpt><trkpt lat="44.5368367" lon="9.4664633"><ele>1255.0</ele><time>2026-04-06T14:59:46.599Z</time></trkpt><trkpt lat="44.5370283" lon="9.4665183"><ele>1255.0</ele><time>2026-04-06T14:59:47.597Z</time></trkpt><trkpt lat="44.5372133" lon="9.4665817"><ele>1255.0</ele><time>2026-04-06T14:59:48.598Z</time></trkpt><trkpt lat="44.5373883" lon="9.466655"><ele>1260.0</ele><time>2026-04-06T14:59:49.597Z</time></trkpt><trkpt lat="44.5375567" lon="9.4667317"><ele>1265.0</ele><time>2026-04-06T14:59:50.597Z</time></trkpt><trkpt lat="44.5377183" lon="9.4668083"><ele>1270.0</ele><time>2026-04-06T14:59:51.599Z</time></trkpt><trkpt lat="44.5378667" lon="9.4668833"><ele>1270.75</ele><time>2026-04-06T14:59:52.598Z</time></trkpt><trkpt lat="44.538" lon="9.4669683"><ele>1271.5</ele><time>2026-04-06T14:59:53.598Z</time></trkpt><trkpt lat="44.5381167" lon="9.4670783"><ele>1272.25</ele><time>2026-04-06T14:59:54.598Z</time></trkpt><trkpt lat="44.5382133" lon="9.46723"><ele>1273.0</ele><time>2026-04-06T14:59:55.598Z</time></trkpt><trkpt lat="44.5382983" lon="9.4674233"><ele>1273.0</ele><time>2026-04-06T14:59:56.598Z</time></trkpt><trkpt lat="44.5383767" lon="9.4676367"><ele>1273.0</ele><time>2026-04-06T14:59:57.598Z</time></trkpt><trkpt lat="44.538465" lon="9.4678533"><ele>1273.0</ele><time>2026-04-06T14:59:58.598Z</time></trkpt><trkpt lat="44.5385633" lon="9.4680633"><ele>1269.3333333333333</ele><time>2026-04-06T14:59:59.601Z</time></trkpt><trkpt lat="44.5386683" lon="9.468265"><ele>1265.6666666666667</ele><time>2026-04-06T15:00:00.598Z</time></trkpt><trkpt lat="44.5387733" lon="9.46846"><ele>1262.0</ele><time>2026-04-06T15:00:01.597Z</time></trkpt><trkpt lat="44.5388733" lon="9.4686417"><ele>1268.75</ele><time>2026-04-06T15:00:02.598Z</time></trkpt><trkpt lat="44.53896" lon="9.468815"><ele>1275.5</ele><time>2026-04-06T15:00:03.598Z</time></trkpt><trkpt lat="44.539025" lon="9.4689883"><ele>1282.25</ele><time>2026-04-06T15:00:04.598Z</time></trkpt><trkpt lat="44.53906" lon="9.4691733"><ele>1289.0</ele><time>2026-04-06T15:00:05.597Z</time></trkpt><trkpt lat="44.5390617" lon="9.4693733"><ele>1289.0</ele><time>2026-04-06T15:00:06.598Z</time></trkpt><trkpt lat="44.53904" lon="9.4695867"><ele>1289.0</ele><time>2026-04-06T15:00:07.599Z</time></trkpt><trkpt lat="44.5390183" lon="9.469815"><ele>1289.0</ele><time>2026-04-06T15:00:08.599Z</time></trkpt><trkpt lat="44.5390067" lon="9.4700583"><ele>1289.6666666666667</ele><time>2026-04-06T15:00:09.598Z</time></trkpt><trkpt lat="44.539" lon="9.4703133"><ele>1290.3333333333333</ele><time>2026-04-06T15:00:10.597Z</time></trkpt><trkpt lat="44.5389967" lon="9.4705667"><ele>1291.0</ele><time>2026-04-06T15:00:11.598Z</time></trkpt><trkpt lat="44.538995" lon="9.470805"><ele>1293.5</ele><time>2026-04-06T15:00:12.597Z</time></trkpt><trkpt lat="44.53899" lon="9.4710233"><ele>1296.0</ele><time>2026-04-06T15:00:13.598Z</time></trkpt><trkpt lat="44.53898" lon="9.4712233"><ele>1298.5</ele><time>2026-04-06T15:00:14.598Z</time></trkpt><trkpt lat="44.5389517" lon="9.4714083"><ele>1301.0</ele><time>2026-04-06T15:00:15.598Z</time></trkpt><trkpt lat="44.5388933" lon="9.47158"><ele>1304.6666666666667</ele><time>2026-04-06T15:00:16.598Z</time></trkpt><trkpt lat="44.5388067" lon="9.4717383"><ele>1308.3333333333333</ele><time>2026-04-06T15:00:17.598Z</time></trkpt><trkpt lat="44.538695" lon="9.471895"><ele>1312.0</ele><time>2026-04-06T15:00:18.598Z</time></trkpt><trkpt lat="44.5385733" lon="9.4720517"><ele>1309.6666666666665</ele><time>2026-04-06T15:00:19.598Z</time></trkpt><trkpt lat="44.5384433" lon="9.472215"><ele>1307.3333333333333</ele><time>2026-04-06T15:00:20.598Z</time></trkpt><trkpt lat="44.53831" lon="9.4723783"><ele>1305.0</ele><time>2026-04-06T15:00:21.599Z</time></trkpt><trkpt lat="44.5381717" lon="9.4725267"><ele>1305.0</ele><time>2026-04-06T15:00:22.599Z</time></trkpt><trkpt lat="44.538035" lon="9.4726667"><ele>1305.0</ele><time>2026-04-06T15:00:23.599Z</time></trkpt><trkpt lat="44.537915" lon="9.4728117"><ele>1305.0</ele><time>2026-04-06T15:00:24.598Z</time></trkpt><trkpt lat="44.5378117" lon="9.472985"><ele>1304.6666666666667</ele><time>2026-04-06T15:00:25.598Z</time></trkpt><trkpt lat="44.5377233" lon="9.47319"><ele>1304.3333333333335</ele><time>2026-04-06T15:00:26.598Z</time></trkpt><trkpt lat="44.5376483" lon="9.4733983"><ele>1304.0</ele><time>2026-04-06T15:00:27.597Z</time></trkpt><trkpt lat="44.537565" lon="9.4735967"><ele>1304.0</ele><time>2026-04-06T15:00:28.599Z</time></trkpt><trkpt lat="44.5374667" lon="9.4737717"><ele>1304.0</ele><time>2026-04-06T15:00:29.598Z</time></trkpt><trkpt lat="44.5373483" lon="9.4739067"><ele>1304.0</ele><time>2026-04-06T15:00:30.598Z</time></trkpt><trkpt lat="44.53723" lon="9.4740267"><ele>1302.5</ele><time>2026-04-06T15:00:31.598Z</time></trkpt><trkpt lat="44.5371317" lon="9.47416"><ele>1301.0</ele><time>2026-04-06T15:00:32.599Z</time></trkpt><trkpt lat="44.5370583" lon="9.4743167"><ele>1299.5</ele><time>2026-04-06T15:00:33.598Z</time></trkpt><trkpt lat="44.5370283" lon="9.4745"><ele>1298.0</ele><time>2026-04-06T15:00:34.597Z</time></trkpt><trkpt lat="44.5370433" lon="9.4746933"><ele>1306.5</ele><time>2026-04-06T15:00:35.599Z</time></trkpt><trkpt lat="44.5371" lon="9.47488"><ele>1315.0</ele><time>2026-04-06T15:00:36.597Z</time></trkpt><trkpt lat="44.5371883" lon="9.4750517"><ele>1323.5</ele><time>2026-04-06T15:00:37.602Z</time></trkpt><trkpt lat="44.53729" lon="9.4752"><ele>1332.0</ele><time>2026-04-06T15:00:38.599Z</time></trkpt><trkpt lat="44.53738" lon="9.47534"><ele>1331.0</ele><time>2026-04-06T15:00:39.597Z</time></trkpt><trkpt lat="44.5374583" lon="9.4754933"><ele>1330.0</ele><time>2026-04-06T15:00:40.598Z</time></trkpt><trkpt lat="44.5375133" lon="9.4756683"><ele>1329.0</ele><time>2026-04-06T15:00:41.597Z</time></trkpt><trkpt lat="44.537535" lon="9.4758683"><ele>1328.0</ele><time>2026-04-06T15:00:42.598Z</time></trkpt><trkpt lat="44.53753" lon="9.4760867"><ele>1330.6666666666667</ele><time>2026-04-06T15:00:43.597Z</time></trkpt><trkpt lat="44.5375" lon="9.47631"><ele>1333.3333333333333</ele><time>2026-04-06T15:00:44.598Z</time></trkpt><trkpt lat="44.53745" lon="9.476525"><ele>1336.0</ele><time>2026-04-06T15:00:45.598Z</time></trkpt><trkpt lat="44.5373833" lon="9.4767217"><ele>1336.0</ele><time>2026-04-06T15:00:46.598Z</time></trkpt><trkpt lat="44.5373233" lon="9.4769067"><ele>1336.0</ele><time>2026-04-06T15:00:47.598Z</time></trkpt><trkpt lat="44.5372917" lon="9.47709"><ele>1336.0</ele><time>2026-04-06T15:00:48.598Z</time></trkpt><trkpt lat="44.5373033" lon="9.47728"><ele>1336.0</ele><time>2026-04-06T15:00:49.599Z</time></trkpt><trkpt lat="44.5373567" lon="9.4774717"><ele>1337.3333333333333</ele><time>2026-04-06T15:00:50.599Z</time></trkpt><trkpt lat="44.537435" lon="9.4776667"><ele>1338.6666666666667</ele><time>2026-04-06T15:00:51.597Z</time></trkpt><trkpt lat="44.5374983" lon="9.4778667"><ele>1340.0</ele><time>2026-04-06T15:00:52.598Z</time></trkpt><trkpt lat="44.5375367" lon="9.478085"><ele>1340.0</ele><time>2026-04-06T15:00:53.599Z</time></trkpt><trkpt lat="44.5375467" lon="9.4783083"><ele>1340.0</ele><time>2026-04-06T15:00:54.598Z</time></trkpt><trkpt lat="44.5375517" lon="9.4785233"><ele>1340.0</ele><time>2026-04-06T15:00:55.598Z</time></trkpt><trkpt lat="44.53757" lon="9.47873"><ele>1341.3333333333335</ele><time>2026-04-06T15:00:56.598Z</time></trkpt><trkpt lat="44.53762" lon="9.4789317"><ele>1342.6666666666667</ele><time>2026-04-06T15:00:57.598Z</time></trkpt><trkpt lat="44.5377133" lon="9.4791183"><ele>1344.0</ele><time>2026-04-06T15:00:58.599Z</time></trkpt><trkpt lat="44.53784" lon="9.4792983"><ele>1347.6666666666667</ele><time>2026-04-06T15:00:59.598Z</time></trkpt><trkpt lat="44.5379883" lon="9.479475"><ele>1351.3333333333335</ele><time>2026-04-06T15:01:00.598Z</time></trkpt><trkpt lat="44.538135" lon="9.479645"><ele>1355.0</ele><time>2026-04-06T15:01:01.599Z</time></trkpt><trkpt lat="44.538265" lon="9.4798083"><ele>1355.0</ele><time>2026-04-06T15:01:02.599Z</time></trkpt><trkpt lat="44.5383733" lon="9.4799717"><ele>1355.0</ele><time>2026-04-06T15:01:03.598Z</time></trkpt><trkpt lat="44.5384533" lon="9.4801567"><ele>1355.0</ele><time>2026-04-06T15:01:04.6Z</time></trkpt><trkpt lat="44.538505" lon="9.480365"><ele>1357.0</ele><time>2026-04-06T15:01:05.598Z</time></trkpt><trkpt lat="44.5385283" lon="9.4805883"><ele>1359.0</ele><time>2026-04-06T15:01:06.598Z</time></trkpt><trkpt lat="44.5385367" lon="9.4808117"><ele>1361.0</ele><time>2026-04-06T15:01:07.598Z</time></trkpt><trkpt lat="44.5385267" lon="9.4810217"><ele>1361.0</ele><time>2026-04-06T15:01:08.598Z</time></trkpt><trkpt lat="44.5384933" lon="9.4812233"><ele>1361.0</ele><time>2026-04-06T15:01:09.598Z</time></trkpt><trkpt lat="44.5384367" lon="9.481415"><ele>1361.0</ele><time>2026-04-06T15:01:10.599Z</time></trkpt><trkpt lat="44.538365" lon="9.48159"><ele>1361.0</ele><time>2026-04-06T15:01:11.599Z</time></trkpt><trkpt lat="44.5382583" lon="9.4817467"><ele>1366.0</ele><time>2026-04-06T15:01:12.598Z</time></trkpt><trkpt lat="44.5381267" lon="9.4818867"><ele>1371.0</ele><time>2026-04-06T15:01:13.598Z</time></trkpt><trkpt lat="44.53798" lon="9.4820283"><ele>1376.0</ele><time>2026-04-06T15:01:14.599Z</time></trkpt><trkpt lat="44.5378283" lon="9.4821767"><ele>1376.3333333333335</ele><time>2026-04-06T15:01:15.598Z</time></trkpt><trkpt lat="44.537675" lon="9.48233"><ele>1376.6666666666667</ele><time>2026-04-06T15:01:16.598Z</time></trkpt><trkpt lat="44.537525" lon="9.4824783"><ele>1377.0</ele><time>2026-04-06T15:01:17.598Z</time></trkpt><trkpt lat="44.5373867" lon="9.4826367"><ele>1377.0</ele><time>2026-04-06T15:01:18.599Z</time></trkpt><trkpt lat="44.5372633" lon="9.4828217"><ele>1377.0</ele><time>2026-04-06T15:01:19.599Z</time></trkpt><trkpt lat="44.5371533" lon="9.4830367"><ele>1377.0</ele><time>2026-04-06T15:01:20.598Z</time></trkpt><trkpt lat="44.5370483" lon="9.4832617"><ele>1377.6666666666667</ele><time>2026-04-06T15:01:21.597Z</time></trkpt><trkpt lat="44.53696" lon="9.4835033"><ele>1378.3333333333335</ele><time>2026-04-06T15:01:22.598Z</time></trkpt><trkpt lat="44.53689" lon="9.4837533"><ele>1379.0</ele><time>2026-04-06T15:01:23.599Z</time></trkpt><trkpt lat="44.536835" lon="9.4840017"><ele>1379.0</ele><time>2026-04-06T15:01:24.597Z</time></trkpt><trkpt lat="44.536795" lon="9.4842433"><ele>1379.0</ele><time>2026-04-06T15:01:25.597Z</time></trkpt><trkpt lat="44.536755" lon="9.4844717"><ele>1379.0</ele><time>2026-04-06T15:01:26.599Z</time></trkpt><trkpt lat="44.5367167" lon="9.484695"><ele>1382.0</ele><time>2026-04-06T15:01:27.598Z</time></trkpt><trkpt lat="44.53667" lon="9.4849017"><ele>1385.0</ele><time>2026-04-06T15:01:28.598Z</time></trkpt><trkpt lat="44.5366117" lon="9.48508"><ele>1388.0</ele><time>2026-04-06T15:01:29.598Z</time></trkpt><trkpt lat="44.53653" lon="9.485225"><ele>1391.0</ele><time>2026-04-06T15:01:30.598Z</time></trkpt><trkpt lat="44.5364233" lon="9.485355"><ele>1389.3333333333335</ele><time>2026-04-06T15:01:31.598Z</time></trkpt><trkpt lat="44.536305" lon="9.485495"><ele>1387.6666666666667</ele><time>2026-04-06T15:01:32.599Z</time></trkpt><trkpt lat="44.5361817" lon="9.4856467"><ele>1386.0</ele><time>2026-04-06T15:01:33.599Z</time></trkpt><trkpt lat="44.536065" lon="9.4858167"><ele>1386.0</ele><time>2026-04-06T15:01:34.598Z</time></trkpt><trkpt lat="44.5359533" lon="9.486"><ele>1386.0</ele><time>2026-04-06T15:01:35.599Z</time></trkpt><trkpt lat="44.53585" lon="9.486195"><ele>1386.0</ele><time>2026-04-06T15:01:36.6Z</time></trkpt><trkpt lat="44.53576" lon="9.4864083"><ele>1390.3333333333333</ele><time>2026-04-06T15:01:37.598Z</time></trkpt><trkpt lat="44.53568" lon="9.4866317"><ele>1394.6666666666665</ele><time>2026-04-06T15:01:38.599Z</time></trkpt><trkpt lat="44.5356117" lon="9.4868667"><ele>1399.0</ele><time>2026-04-06T15:01:39.599Z</time></trkpt><trkpt lat="44.53555" lon="9.4871083"><ele>1403.3333333333333</ele><time>2026-04-06T15:01:40.599Z</time></trkpt><trkpt lat="44.535495" lon="9.4873567"><ele>1407.6666666666667</ele><time>2026-04-06T15:01:41.599Z</time></trkpt><trkpt lat="44.535445" lon="9.487605"><ele>1412.0</ele><time>2026-04-06T15:01:42.598Z</time></trkpt><trkpt lat="44.5353933" lon="9.4878433"><ele>1406.6666666666667</ele><time>2026-04-06T15:01:43.598Z</time></trkpt><trkpt lat="44.5353483" lon="9.4880667"><ele>1401.3333333333333</ele><time>2026-04-06T15:01:44.597Z</time></trkpt><trkpt lat="44.5353133" lon="9.4882683"><ele>1396.0</ele><time>2026-04-06T15:01:45.598Z</time></trkpt><trkpt lat="44.5352967" lon="9.488465"><ele>1396.0</ele><time>2026-04-06T15:01:46.597Z</time></trkpt><trkpt lat="44.5352983" lon="9.48866"><ele>1396.0</ele><time>2026-04-06T15:01:47.598Z</time></trkpt><trkpt lat="44.535335" lon="9.48885"><ele>1396.0</ele><time>2026-04-06T15:01:48.598Z</time></trkpt><trkpt lat="44.5354083" lon="9.4890233"><ele>1396.0</ele><time>2026-04-06T15:01:49.598Z</time></trkpt><trkpt lat="44.5355133" lon="9.4891833"><ele>1403.0</ele><time>2026-04-06T15:01:50.598Z</time></trkpt><trkpt lat="44.5356367" lon="9.4893333"><ele>1410.0</ele><time>2026-04-06T15:01:51.597Z</time></trkpt><trkpt lat="44.5357633" lon="9.4894767"><ele>1417.0</ele><time>2026-04-06T15:01:52.598Z</time></trkpt><trkpt lat="44.53589" lon="9.4896217"><ele>1417.3333333333333</ele><time>2026-04-06T15:01:53.6Z</time></trkpt><trkpt lat="44.5360167" lon="9.4897667"><ele>1417.6666666666667</ele><time>2026-04-06T15:01:54.598Z</time></trkpt><trkpt lat="44.5361417" lon="9.4899083"><ele>1418.0</ele><time>2026-04-06T15:01:55.597Z</time></trkpt><trkpt lat="44.5362683" lon="9.490045"><ele>1421.6666666666667</ele><time>2026-04-06T15:01:56.599Z</time></trkpt><trkpt lat="44.536395" lon="9.4901817"><ele>1425.3333333333333</ele><time>2026-04-06T15:01:57.599Z</time></trkpt><trkpt lat="44.53652" lon="9.4903117"><ele>1429.0</ele><time>2026-04-06T15:01:58.598Z</time></trkpt><trkpt lat="44.53664" lon="9.4904383"><ele>1429.75</ele><time>2026-04-06T15:01:59.599Z</time></trkpt><trkpt lat="44.536755" lon="9.4905633"><ele>1430.5</ele><time>2026-04-06T15:02:00.598Z</time></trkpt><trkpt lat="44.5368617" lon="9.4906883"><ele>1431.25</ele><time>2026-04-06T15:02:01.6Z</time></trkpt><trkpt lat="44.5369517" lon="9.4908233"><ele>1432.0</ele><time>2026-04-06T15:02:02.6Z</time></trkpt><trkpt lat="44.53701" lon="9.49098"><ele>1432.0</ele><time>2026-04-06T15:02:03.599Z</time></trkpt><trkpt lat="44.537035" lon="9.4911517"><ele>1432.0</ele><time>2026-04-06T15:02:04.597Z</time></trkpt><trkpt lat="44.53704" lon="9.4913417"><ele>1432.0</ele><time>2026-04-06T15:02:05.599Z</time></trkpt><trkpt lat="44.53704" lon="9.4915367"><ele>1432.0</ele><time>2026-04-06T15:02:06.598Z</time></trkpt><trkpt lat="44.5370467" lon="9.4917267"><ele>1436.25</ele><time>2026-04-06T15:02:07.599Z</time></trkpt><trkpt lat="44.5370667" lon="9.4919117"><ele>1440.5</ele><time>2026-04-06T15:02:08.599Z</time></trkpt><trkpt lat="44.5371033" lon="9.49209"><ele>1444.75</ele><time>2026-04-06T15:02:09.599Z</time></trkpt><trkpt lat="44.5371633" lon="9.4922533"><ele>1449.0</ele><time>2026-04-06T15:02:10.599Z</time></trkpt><trkpt lat="44.5372417" lon="9.492405"><ele>1449.0</ele><time>2026-04-06T15:02:11.598Z</time></trkpt><trkpt lat="44.53733" lon="9.4925417"><ele>1449.0</ele><time>2026-04-06T15:02:12.597Z</time></trkpt><trkpt lat="44.53742" lon="9.4926717"><ele>1449.0</ele><time>2026-04-06T15:02:13.6Z</time></trkpt><trkpt lat="44.537505" lon="9.492805"><ele>1449.0</ele><time>2026-04-06T15:02:14.6Z</time></trkpt><trkpt lat="44.5375833" lon="9.4929483"><ele>1447.75</ele><time>2026-04-06T15:02:15.597Z</time></trkpt><trkpt lat="44.5376483" lon="9.493105"><ele>1446.5</ele><time>2026-04-06T15:02:16.598Z</time></trkpt><trkpt lat="44.5377017" lon="9.4932767"><ele>1445.25</ele><time>2026-04-06T15:02:17.598Z</time></trkpt><trkpt lat="44.5377417" lon="9.493465"><ele>1444.0</ele><time>2026-04-06T15:02:18.597Z</time></trkpt><trkpt lat="44.5377683" lon="9.4936633"><ele>1444.0</ele><time>2026-04-06T15:02:19.598Z</time></trkpt><trkpt lat="44.5377883" lon="9.493865"><ele>1444.0</ele><time>2026-04-06T15:02:20.598Z</time></trkpt><trkpt lat="44.5377967" lon="9.4940633"><ele>1444.0</ele><time>2026-04-06T15:02:21.598Z</time></trkpt><trkpt lat="44.537785" lon="9.4942583"><ele>1444.0</ele><time>2026-04-06T15:02:22.597Z</time></trkpt><trkpt lat="44.5377383" lon="9.4944533"><ele>1447.0</ele><time>2026-04-06T15:02:23.598Z</time></trkpt><trkpt lat="44.5376667" lon="9.4946417"><ele>1450.0</ele><time>2026-04-06T15:02:24.599Z</time></trkpt><trkpt lat="44.537575" lon="9.494815"><ele>1453.0</ele><time>2026-04-06T15:02:25.598Z</time></trkpt><trkpt lat="44.5374667" lon="9.4949817"><ele>1453.0</ele><time>2026-04-06T15:02:26.597Z</time></trkpt><trkpt lat="44.53734" lon="9.4951683"><ele>1453.0</ele><time>2026-04-06T15:02:27.598Z</time></trkpt><trkpt lat="44.5372033" lon="9.495365"><ele>1453.0</ele><time>2026-04-06T15:02:28.597Z</time></trkpt><trkpt lat="44.5370683" lon="9.4955383"><ele>1449.6666666666665</ele><time>2026-04-06T15:02:29.598Z</time></trkpt><trkpt lat="44.5369417" lon="9.4956867"><ele>1446.3333333333333</ele><time>2026-04-06T15:02:30.598Z</time></trkpt><trkpt lat="44.5368333" lon="9.49583"><ele>1443.0</ele><time>2026-04-06T15:02:31.598Z</time></trkpt><trkpt lat="44.536735" lon="9.4959717"><ele>1443.0</ele><time>2026-04-06T15:02:32.598Z</time></trkpt><trkpt lat="44.536655" lon="9.4961267"><ele>1443.0</ele><time>2026-04-06T15:02:33.599Z</time></trkpt><trkpt lat="44.53659" lon="9.4962933"><ele>1443.0</ele><time>2026-04-06T15:02:34.598Z</time></trkpt><trkpt lat="44.5365417" lon="9.4964667"><ele>1443.0</ele><time>2026-04-06T15:02:35.598Z</time></trkpt><trkpt lat="44.5365183" lon="9.4966517"><ele>1445.25</ele><time>2026-04-06T15:02:36.602Z</time></trkpt><trkpt lat="44.5365217" lon="9.4968417"><ele>1447.5</ele><time>2026-04-06T15:02:37.601Z</time></trkpt><trkpt lat="44.5365467" lon="9.4970333"><ele>1449.75</ele><time>2026-04-06T15:02:38.602Z</time></trkpt><trkpt lat="44.53658" lon="9.497225"><ele>1452.0</ele><time>2026-04-06T15:02:39.601Z</time></trkpt><trkpt lat="44.536605" lon="9.49742"><ele>1452.5</ele><time>2026-04-06T15:02:40.599Z</time></trkpt><trkpt lat="44.5366133" lon="9.49762"><ele>1453.0</ele><time>2026-04-06T15:02:41.598Z</time></trkpt><trkpt lat="44.53659" lon="9.4978167"><ele>1453.5</ele><time>2026-04-06T15:02:42.598Z</time></trkpt><trkpt lat="44.5365383" lon="9.4980017"><ele>1454.0</ele><time>2026-04-06T15:02:43.598Z</time></trkpt><trkpt lat="44.5364733" lon="9.498175"><ele>1455.5</ele><time>2026-04-06T15:02:44.598Z</time></trkpt><trkpt lat="44.5364067" lon="9.4983517"><ele>1457.0</ele><time>2026-04-06T15:02:45.598Z</time></trkpt><trkpt lat="44.5363433" lon="9.4985333"><ele>1458.5</ele><time>2026-04-06T15:02:46.598Z</time></trkpt><trkpt lat="44.536295" lon="9.4987167"><ele>1460.0</ele><time>2026-04-06T15:02:47.598Z</time></trkpt><trkpt lat="44.5362717" lon="9.4988983"><ele>1462.25</ele><time>2026-04-06T15:02:48.599Z</time></trkpt><trkpt lat="44.5362717" lon="9.4990717"><ele>1464.5</ele><time>2026-04-06T15:02:49.598Z</time></trkpt><trkpt lat="44.5362833" lon="9.499235"><ele>1466.75</ele><time>2026-04-06T15:02:50.598Z</time></trkpt><trkpt lat="44.5362917" lon="9.4993917"><ele>1469.0</ele><time>2026-04-06T15:02:51.598Z</time></trkpt><trkpt lat="44.53628" lon="9.49955"><ele>1467.0</ele><time>2026-04-06T15:02:52.598Z</time></trkpt><trkpt lat="44.536235" lon="9.49972"><ele>1465.0</ele><time>2026-04-06T15:02:53.598Z</time></trkpt><trkpt lat="44.5361533" lon="9.4998967"><ele>1463.0</ele><time>2026-04-06T15:02:54.597Z</time></trkpt><trkpt lat="44.5360433" lon="9.50007"><ele>1461.0</ele><time>2026-04-06T15:02:55.598Z</time></trkpt><trkpt lat="44.53594" lon="9.50024"><ele>1461.0</ele><time>2026-04-06T15:02:56.598Z</time></trkpt><trkpt lat="44.5358533" lon="9.5004117"><ele>1461.0</ele><time>2026-04-06T15:02:57.599Z</time></trkpt><trkpt lat="44.5358" lon="9.500595"><ele>1461.0</ele><time>2026-04-06T15:02:58.598Z</time></trkpt><trkpt lat="44.5357867" lon="9.5007933"><ele>1461.0</ele><time>2026-04-06T15:02:59.597Z</time></trkpt><trkpt lat="44.5358117" lon="9.5009817"><ele>1463.25</ele><time>2026-04-06T15:03:00.598Z</time></trkpt><trkpt lat="44.53587" lon="9.5011467"><ele>1465.5</ele><time>2026-04-06T15:03:01.598Z</time></trkpt><trkpt lat="44.5359583" lon="9.5012767"><ele>1467.75</ele><time>2026-04-06T15:03:02.597Z</time></trkpt><trkpt lat="44.5360683" lon="9.5013767"><ele>1470.0</ele><time>2026-04-06T15:03:03.599Z</time></trkpt><trkpt lat="44.5361917" lon="9.501455"><ele>1471.5</ele><time>2026-04-06T15:03:04.598Z</time></trkpt><trkpt lat="44.5363217" lon="9.501525"><ele>1473.0</ele><time>2026-04-06T15:03:05.599Z</time></trkpt><trkpt lat="44.53645" lon="9.5015917"><ele>1474.5</ele><time>2026-04-06T15:03:06.599Z</time></trkpt><trkpt lat="44.536575" lon="9.5016533"><ele>1476.0</ele><time>2026-04-06T15:03:07.598Z</time></trkpt><trkpt lat="44.5367" lon="9.5017033"><ele>1476.0</ele><time>2026-04-06T15:03:08.599Z</time></trkpt><trkpt lat="44.5368317" lon="9.501735"><ele>1476.0</ele><time>2026-04-06T15:03:09.598Z</time></trkpt><trkpt lat="44.5369767" lon="9.5017433"><ele>1476.0</ele><time>2026-04-06T15:03:10.599Z</time></trkpt><trkpt lat="44.5371333" lon="9.5017317"><ele>1476.0</ele><time>2026-04-06T15:03:11.599Z</time></trkpt><trkpt lat="44.5372983" lon="9.5017017"><ele>1474.6666666666667</ele><time>2026-04-06T15:03:12.599Z</time></trkpt><trkpt lat="44.5374717" lon="9.50166"><ele>1473.3333333333335</ele><time>2026-04-06T15:03:13.597Z</time></trkpt><trkpt lat="44.5376517" lon="9.5016183"><ele>1472.0</ele><time>2026-04-06T15:03:14.597Z</time></trkpt><trkpt lat="44.5378283" lon="9.5015817"><ele>1467.6666666666667</ele><time>2026-04-06T15:03:15.598Z</time></trkpt><trkpt lat="44.5379933" lon="9.5015417"><ele>1463.3333333333333</ele><time>2026-04-06T15:03:16.599Z</time></trkpt><trkpt lat="44.538155" lon="9.5015"><ele>1459.0</ele><time>2026-04-06T15:03:17.598Z</time></trkpt><trkpt lat="44.5383117" lon="9.5014333"><ele>1459.0</ele><time>2026-04-06T15:03:18.597Z</time></trkpt><trkpt lat="44.5384583" lon="9.5013333"><ele>1459.0</ele><time>2026-04-06T15:03:19.598Z</time></trkpt><trkpt lat="44.5385933" lon="9.5012233"><ele>1459.0</ele><time>2026-04-06T15:03:20.599Z</time></trkpt><trkpt lat="44.5387267" lon="9.5011333"><ele>1466.0</ele><time>2026-04-06T15:03:21.599Z</time></trkpt><trkpt lat="44.538865" lon="9.5010883"><ele>1473.0</ele><time>2026-04-06T15:03:22.598Z</time></trkpt><trkpt lat="44.5390117" lon="9.5010783"><ele>1480.0</ele><time>2026-04-06T15:03:23.599Z</time></trkpt><trkpt lat="44.539155" lon="9.5011017"><ele>1487.0</ele><time>2026-04-06T15:03:24.598Z</time></trkpt><trkpt lat="44.53929" lon="9.5011617"><ele>1482.6666666666667</ele><time>2026-04-06T15:03:25.598Z</time></trkpt><trkpt lat="44.5394183" lon="9.50125"><ele>1478.3333333333333</ele><time>2026-04-06T15:03:26.599Z</time></trkpt><trkpt lat="44.53955" lon="9.5013533"><ele>1474.0</ele><time>2026-04-06T15:03:27.598Z</time></trkpt><trkpt lat="44.53969" lon="9.5014583"><ele>1474.0</ele><time>2026-04-06T15:03:28.598Z</time></trkpt><trkpt lat="44.539835" lon="9.5015583"><ele>1474.0</ele><time>2026-04-06T15:03:29.597Z</time></trkpt><trkpt lat="44.539985" lon="9.5016517"><ele>1474.0</ele><time>2026-04-06T15:03:30.598Z</time></trkpt><trkpt lat="44.5401417" lon="9.5017283"><ele>1474.0</ele><time>2026-04-06T15:03:31.597Z</time></trkpt><trkpt lat="44.5403117" lon="9.501775"><ele>1474.0</ele><time>2026-04-06T15:03:32.599Z</time></trkpt><trkpt lat="44.54049" lon="9.501795"><ele>1474.0</ele><time>2026-04-06T15:03:33.598Z</time></trkpt><trkpt lat="44.5406617" lon="9.50181"><ele>1476.0</ele><time>2026-04-06T15:03:34.598Z</time></trkpt><trkpt lat="44.54082" lon="9.5018383"><ele>1478.0</ele><time>2026-04-06T15:03:35.597Z</time></trkpt><trkpt lat="44.54097" lon="9.50188"><ele>1480.0</ele><time>2026-04-06T15:03:36.599Z</time></trkpt><trkpt lat="44.54111" lon="9.5019283"><ele>1479.5</ele><time>2026-04-06T15:03:37.598Z</time></trkpt><trkpt lat="44.5412417" lon="9.5019817"><ele>1479.0</ele><time>2026-04-06T15:03:38.598Z</time></trkpt><trkpt lat="44.5413667" lon="9.5020117"><ele>1478.5</ele><time>2026-04-06T15:03:39.598Z</time></trkpt><trkpt lat="44.54149" lon="9.5020117"><ele>1478.0</ele><time>2026-04-06T15:03:40.597Z</time></trkpt><trkpt lat="44.5416083" lon="9.50195"><ele>1478.0</ele><time>2026-04-06T15:03:41.599Z</time></trkpt><trkpt lat="44.5417117" lon="9.50182"><ele>1478.0</ele><time>2026-04-06T15:03:42.597Z</time></trkpt><trkpt lat="44.5418033" lon="9.5016617"><ele>1478.0</ele><time>2026-04-06T15:03:43.598Z</time></trkpt><trkpt lat="44.5418833" lon="9.5014983"><ele>1478.0</ele><time>2026-04-06T15:03:44.598Z</time></trkpt><trkpt lat="44.5419633" lon="9.5013467"><ele>1479.25</ele><time>2026-04-06T15:03:45.599Z</time></trkpt><trkpt lat="44.54207" lon="9.50123"><ele>1480.5</ele><time>2026-04-06T15:03:46.598Z</time></trkpt><trkpt lat="44.5422017" lon="9.5011433"><ele>1481.75</ele><time>2026-04-06T15:03:47.598Z</time></trkpt><trkpt lat="44.5423433" lon="9.5010733"><ele>1483.0</ele><time>2026-04-06T15:03:48.598Z</time></trkpt><trkpt lat="44.5425067" lon="9.5010333"><ele>1483.0</ele><time>2026-04-06T15:03:49.598Z</time></trkpt><trkpt lat="44.5426767" lon="9.5009983"><ele>1483.0</ele><time>2026-04-06T15:03:50.598Z</time></trkpt><trkpt lat="44.5428383" lon="9.50094"><ele>1483.0</ele><time>2026-04-06T15:03:51.599Z</time></trkpt><trkpt lat="44.5429917" lon="9.5008617"><ele>1480.6666666666665</ele><time>2026-04-06T15:03:52.597Z</time></trkpt><trkpt lat="44.543135" lon="9.5007717"><ele>1478.3333333333333</ele><time>2026-04-06T15:03:53.599Z</time></trkpt><trkpt lat="44.5432767" lon="9.5006767"><ele>1476.0</ele><time>2026-04-06T15:03:54.598Z</time></trkpt><trkpt lat="44.5434233" lon="9.500605"><ele>1476.0</ele><time>2026-04-06T15:03:55.599Z</time></trkpt><trkpt lat="44.5435817" lon="9.5005583"><ele>1476.0</ele><time>2026-04-06T15:03:56.6Z</time></trkpt><trkpt lat="44.5437467" lon="9.500535"><ele>1476.0</ele><time>2026-04-06T15:03:57.599Z</time></trkpt><trkpt lat="44.5439067" lon="9.5005067"><ele>1475.0</ele><time>2026-04-06T15:03:58.599Z</time></trkpt><trkpt lat="44.54406" lon="9.5004567"><ele>1474.0</ele><time>2026-04-06T15:03:59.598Z</time></trkpt><trkpt lat="44.5442017" lon="9.5003933"><ele>1473.0</ele><time>2026-04-06T15:04:00.598Z</time></trkpt><trkpt lat="44.5443383" lon="9.500345"><ele>1472.0</ele><time>2026-04-06T15:04:01.6Z</time></trkpt><trkpt lat="44.5444683" lon="9.500325"><ele>1475.25</ele><time>2026-04-06T15:04:02.599Z</time></trkpt><trkpt lat="44.5445983" lon="9.5003517"><ele>1478.5</ele><time>2026-04-06T15:04:03.6Z</time></trkpt><trkpt lat="44.544715" lon="9.5004267"><ele>1481.75</ele><time>2026-04-06T15:04:04.6Z</time></trkpt><trkpt lat="44.5448133" lon="9.5005567"><ele>1485.0</ele><time>2026-04-06T15:04:05.599Z</time></trkpt><trkpt lat="44.5448967" lon="9.500725"><ele>1485.0</ele><time>2026-04-06T15:04:06.598Z</time></trkpt><trkpt lat="44.5449767" lon="9.5009117"><ele>1485.0</ele><time>2026-04-06T15:04:07.598Z</time></trkpt><trkpt lat="44.545055" lon="9.5010967"><ele>1485.0</ele><time>2026-04-06T15:04:08.6Z</time></trkpt><trkpt lat="44.54514" lon="9.501275"><ele>1481.6666666666667</ele><time>2026-04-06T15:04:09.6Z</time></trkpt><trkpt lat="44.545225" lon="9.5014533"><ele>1478.3333333333335</ele><time>2026-04-06T15:04:10.6Z</time></trkpt><trkpt lat="44.54531" lon="9.5016383"><ele>1475.0</ele><time>2026-04-06T15:04:11.6Z</time></trkpt><trkpt lat="44.5453917" lon="9.5018183"><ele>1477.0</ele><time>2026-04-06T15:04:12.6Z</time></trkpt><trkpt lat="44.5454783" lon="9.5019933"><ele>1479.0</ele><time>2026-04-06T15:04:13.6Z</time></trkpt><trkpt lat="44.5455867" lon="9.5021483"><ele>1481.0</ele><time>2026-04-06T15:04:14.6Z</time></trkpt><trkpt lat="44.5457133" lon="9.5022767"><ele>1481.0</ele><time>2026-04-06T15:04:15.6Z</time></trkpt><trkpt lat="44.545845" lon="9.5023817"><ele>1481.0</ele><time>2026-04-06T15:04:16.6Z</time></trkpt><trkpt lat="44.545975" lon="9.50247"><ele>1481.0</ele><time>2026-04-06T15:04:17.597Z</time></trkpt><trkpt lat="44.5461017" lon="9.5025417"><ele>1481.0</ele><time>2026-04-06T15:04:18.598Z</time></trkpt><trkpt lat="44.54623" lon="9.502585"><ele>1482.0</ele><time>2026-04-06T15:04:19.598Z</time></trkpt><trkpt lat="44.5463683" lon="9.5025733"><ele>1483.0</ele><time>2026-04-06T15:04:20.597Z</time></trkpt><trkpt lat="44.5465183" lon="9.502505"><ele>1484.0</ele><time>2026-04-06T15:04:21.598Z</time></trkpt><trkpt lat="44.5466867" lon="9.5024033"><ele>1484.0</ele><time>2026-04-06T15:04:22.598Z</time></trkpt><trkpt lat="44.5468667" lon="9.5023033"><ele>1484.0</ele><time>2026-04-06T15:04:23.598Z</time></trkpt><trkpt lat="44.5470467" lon="9.5022083"><ele>1484.0</ele><time>2026-04-06T15:04:24.599Z</time></trkpt><trkpt lat="44.5472183" lon="9.5021183"><ele>1491.0</ele><time>2026-04-06T15:04:25.599Z</time></trkpt><trkpt lat="44.54738" lon="9.5020433"><ele>1498.0</ele><time>2026-04-06T15:04:26.599Z</time></trkpt><trkpt lat="44.5475317" lon="9.501985"><ele>1505.0</ele><time>2026-04-06T15:04:27.599Z</time></trkpt><trkpt lat="44.54767" lon="9.5019733"><ele>1505.0</ele><time>2026-04-06T15:04:28.599Z</time></trkpt><trkpt lat="44.54779" lon="9.5020167"><ele>1505.0</ele><time>2026-04-06T15:04:29.598Z</time></trkpt><trkpt lat="44.54788" lon="9.5021283"><ele>1505.0</ele><time>2026-04-06T15:04:30.599Z</time></trkpt><trkpt lat="44.54796" lon="9.5023117"><ele>1505.0</ele><time>2026-04-06T15:04:31.599Z</time></trkpt><trkpt lat="44.5480417" lon="9.5025483"><ele>1503.6666666666667</ele><time>2026-04-06T15:04:32.599Z</time></trkpt><trkpt lat="44.5481367" lon="9.5028133"><ele>1502.3333333333333</ele><time>2026-04-06T15:04:33.598Z</time></trkpt><trkpt lat="44.5482433" lon="9.5030933"><ele>1501.0</ele><time>2026-04-06T15:04:34.598Z</time></trkpt><trkpt lat="44.5483467" lon="9.5033667"><ele>1498.3333333333333</ele><time>2026-04-06T15:04:35.598Z</time></trkpt><trkpt lat="44.5484433" lon="9.503615"><ele>1495.6666666666667</ele><time>2026-04-06T15:04:36.597Z</time></trkpt><trkpt lat="44.5485333" lon="9.5038367"><ele>1493.0</ele><time>2026-04-06T15:04:37.598Z</time></trkpt><trkpt lat="44.5486133" lon="9.50405"><ele>1490.0</ele><time>2026-04-06T15:04:38.599Z</time></trkpt><trkpt lat="44.54867" lon="9.5042717"><ele>1487.0</ele><time>2026-04-06T15:04:39.598Z</time></trkpt><trkpt lat="44.5486833" lon="9.504505"><ele>1484.0</ele><time>2026-04-06T15:04:40.597Z</time></trkpt><trkpt lat="44.5486717" lon="9.504745"><ele>1483.6666666666667</ele><time>2026-04-06T15:04:41.598Z</time></trkpt><trkpt lat="44.54867" lon="9.5050033"><ele>1483.3333333333333</ele><time>2026-04-06T15:04:42.598Z</time></trkpt><trkpt lat="44.5486983" lon="9.505275"><ele>1483.0</ele><time>2026-04-06T15:04:43.598Z</time></trkpt><trkpt lat="44.5487517" lon="9.50554"><ele>1493.0</ele><time>2026-04-06T15:04:44.598Z</time></trkpt><trkpt lat="44.5488283" lon="9.5057733"><ele>1503.0</ele><time>2026-04-06T15:04:45.599Z</time></trkpt><trkpt lat="44.548915" lon="9.5059767"><ele>1513.0</ele><time>2026-04-06T15:04:46.598Z</time></trkpt><trkpt lat="44.548995" lon="9.5061767"><ele>1512.3333333333333</ele><time>2026-04-06T15:04:47.598Z</time></trkpt><trkpt lat="44.5490483" lon="9.506385"><ele>1511.6666666666667</ele><time>2026-04-06T15:04:48.599Z</time></trkpt><trkpt lat="44.5490717" lon="9.5065933"><ele>1511.0</ele><time>2026-04-06T15:04:49.599Z</time></trkpt><trkpt lat="44.5490583" lon="9.5068017"><ele>1511.0</ele><time>2026-04-06T15:04:50.598Z</time></trkpt><trkpt lat="44.5490217" lon="9.50702"><ele>1511.0</ele><time>2026-04-06T15:04:51.598Z</time></trkpt><trkpt lat="44.5489733" lon="9.507245"><ele>1511.0</ele><time>2026-04-06T15:04:52.598Z</time></trkpt><trkpt lat="44.5489317" lon="9.507465"><ele>1512.3333333333335</ele><time>2026-04-06T15:04:53.599Z</time></trkpt><trkpt lat="44.54891" lon="9.5076817"><ele>1513.6666666666667</ele><time>2026-04-06T15:04:54.598Z</time></trkpt><trkpt lat="44.54892" lon="9.5079083"><ele>1515.0</ele><time>2026-04-06T15:04:55.598Z</time></trkpt><trkpt lat="44.548965" lon="9.5081567"><ele>1515.0</ele><time>2026-04-06T15:04:56.599Z</time></trkpt><trkpt lat="44.5490267" lon="9.5083967"><ele>1515.0</ele><time>2026-04-06T15:04:57.599Z</time></trkpt><trkpt lat="44.549105" lon="9.50862"><ele>1515.0</ele><time>2026-04-06T15:04:58.597Z</time></trkpt><trkpt lat="44.5492067" lon="9.50882"><ele>1510.6666666666667</ele><time>2026-04-06T15:04:59.598Z</time></trkpt><trkpt lat="44.54933" lon="9.5090067"><ele>1506.3333333333335</ele><time>2026-04-06T15:05:00.598Z</time></trkpt><trkpt lat="44.5494517" lon="9.509205"><ele>1502.0</ele><time>2026-04-06T15:05:01.598Z</time></trkpt><trkpt lat="44.54955" lon="9.5094167"><ele>1508.3333333333335</ele><time>2026-04-06T15:05:02.599Z</time></trkpt><trkpt lat="44.5496217" lon="9.5096283"><ele>1514.6666666666667</ele><time>2026-04-06T15:05:03.597Z</time></trkpt><trkpt lat="44.5496717" lon="9.509835"><ele>1521.0</ele><time>2026-04-06T15:05:04.598Z</time></trkpt><trkpt lat="44.5497" lon="9.5100417"><ele>1521.0</ele><time>2026-04-06T15:05:05.599Z</time></trkpt><trkpt lat="44.5496883" lon="9.5102633"><ele>1521.0</ele><time>2026-04-06T15:05:06.597Z</time></trkpt><trkpt lat="44.549645" lon="9.5105"><ele>1521.0</ele><time>2026-04-06T15:05:07.598Z</time></trkpt><trkpt lat="44.54959" lon="9.5107417"><ele>1516.3333333333333</ele><time>2026-04-06T15:05:08.6Z</time></trkpt><trkpt lat="44.5495417" lon="9.510975"><ele>1511.6666666666665</ele><time>2026-04-06T15:05:09.599Z</time></trkpt><trkpt lat="44.5495033" lon="9.51119"><ele>1507.0</ele><time>2026-04-06T15:05:10.597Z</time></trkpt><trkpt lat="44.5494783" lon="9.5113983"><ele>1507.0</ele><time>2026-04-06T15:05:11.599Z</time></trkpt><trkpt lat="44.549465" lon="9.5115933"><ele>1507.0</ele><time>2026-04-06T15:05:12.597Z</time></trkpt><trkpt lat="44.54947" lon="9.5117817"><ele>1507.0</ele><time>2026-04-06T15:05:13.598Z</time></trkpt><trkpt lat="44.5495133" lon="9.5119517"><ele>1507.0</ele><time>2026-04-06T15:05:14.598Z</time></trkpt><trkpt lat="44.549625" lon="9.512085"><ele>1506.6666666666665</ele><time>2026-04-06T15:05:15.599Z</time></trkpt><trkpt lat="44.5497783" lon="9.5121883"><ele>1506.3333333333333</ele><time>2026-04-06T15:05:16.597Z</time></trkpt><trkpt lat="44.5499533" lon="9.512285"><ele>1506.0</ele><time>2026-04-06T15:05:17.598Z</time></trkpt><trkpt lat="44.5501333" lon="9.512385"><ele>1506.0</ele><time>2026-04-06T15:05:18.599Z</time></trkpt><trkpt lat="44.5503083" lon="9.5124817"><ele>1506.0</ele><time>2026-04-06T15:05:19.599Z</time></trkpt><trkpt lat="44.55047" lon="9.5125717"><ele>1506.0</ele><time>2026-04-06T15:05:20.6Z</time></trkpt><trkpt lat="44.5506183" lon="9.5126767"><ele>1506.6666666666667</ele><time>2026-04-06T15:05:21.598Z</time></trkpt><trkpt lat="44.55075" lon="9.512815"><ele>1507.3333333333335</ele><time>2026-04-06T15:05:22.599Z</time></trkpt><trkpt lat="44.5508667" lon="9.512995"><ele>1508.0</ele><time>2026-04-06T15:05:23.599Z</time></trkpt><trkpt lat="44.5509667" lon="9.5132017"><ele>1508.0</ele><time>2026-04-06T15:05:24.599Z</time></trkpt><trkpt lat="44.5510683" lon="9.5134133"><ele>1508.0</ele><time>2026-04-06T15:05:25.598Z</time></trkpt><trkpt lat="44.5511883" lon="9.5136217"><ele>1508.0</ele><time>2026-04-06T15:05:26.598Z</time></trkpt><trkpt lat="44.5513233" lon="9.5138167"><ele>1510.3333333333335</ele><time>2026-04-06T15:05:27.597Z</time></trkpt><trkpt lat="44.551455" lon="9.514005"><ele>1512.6666666666667</ele><time>2026-04-06T15:05:28.598Z</time></trkpt><trkpt lat="44.5515717" lon="9.514205"><ele>1515.0</ele><time>2026-04-06T15:05:29.599Z</time></trkpt><trkpt lat="44.5516683" lon="9.514435"><ele>1510.3333333333333</ele><time>2026-04-06T15:05:30.597Z</time></trkpt><trkpt lat="44.551745" lon="9.5146883"><ele>1505.6666666666665</ele><time>2026-04-06T15:05:31.598Z</time></trkpt><trkpt lat="44.5518133" lon="9.5149567"><ele>1501.0</ele><time>2026-04-06T15:05:32.598Z</time></trkpt><trkpt lat="44.5518833" lon="9.5152233"><ele>1497.6666666666665</ele><time>2026-04-06T15:05:33.599Z</time></trkpt><trkpt lat="44.55196" lon="9.5154733"><ele>1494.3333333333333</ele><time>2026-04-06T15:05:34.599Z</time></trkpt><trkpt lat="44.5520467" lon="9.5157033"><ele>1491.0</ele><time>2026-04-06T15:05:35.598Z</time></trkpt><trkpt lat="44.5521483" lon="9.5159017"><ele>1493.3333333333333</ele><time>2026-04-06T15:05:36.597Z</time></trkpt><trkpt lat="44.5522733" lon="9.5160567"><ele>1495.6666666666665</ele><time>2026-04-06T15:05:37.599Z</time></trkpt><trkpt lat="44.552435" lon="9.5161783"><ele>1498.0</ele><time>2026-04-06T15:05:38.598Z</time></trkpt><trkpt lat="44.5526283" lon="9.51628"><ele>1498.0</ele><time>2026-04-06T15:05:39.598Z</time></trkpt><trkpt lat="44.5528317" lon="9.5163783"><ele>1498.0</ele><time>2026-04-06T15:05:40.599Z</time></trkpt><trkpt lat="44.55303" lon="9.516475"><ele>1498.0</ele><time>2026-04-06T15:05:41.603Z</time></trkpt><trkpt lat="44.553215" lon="9.5165717"><ele>1500.6666666666665</ele><time>2026-04-06T15:05:42.598Z</time></trkpt><trkpt lat="44.5533883" lon="9.5166583"><ele>1503.3333333333333</ele><time>2026-04-06T15:05:43.599Z</time></trkpt><trkpt lat="44.5535467" lon="9.5167317"><ele>1506.0</ele><time>2026-04-06T15:05:44.599Z</time></trkpt><trkpt lat="44.5537" lon="9.5167667"><ele>1505.6666666666667</ele><time>2026-04-06T15:05:45.597Z</time></trkpt><trkpt lat="44.5538467" lon="9.5167467"><ele>1505.3333333333335</ele><time>2026-04-06T15:05:46.598Z</time></trkpt><trkpt lat="44.55399" lon="9.516655"><ele>1505.0</ele><time>2026-04-06T15:05:47.598Z</time></trkpt><trkpt lat="44.5541267" lon="9.5165167"><ele>1505.0</ele><time>2026-04-06T15:05:48.598Z</time></trkpt><trkpt lat="44.5542567" lon="9.5163767"><ele>1505.0</ele><time>2026-04-06T15:05:49.599Z</time></trkpt><trkpt lat="44.5543883" lon="9.5162717"><ele>1505.0</ele><time>2026-04-06T15:05:50.6Z</time></trkpt><trkpt lat="44.5545267" lon="9.5162067"><ele>1503.6666666666667</ele><time>2026-04-06T15:05:51.598Z</time></trkpt><trkpt lat="44.5546733" lon="9.51619"><ele>1502.3333333333333</ele><time>2026-04-06T15:05:52.598Z</time></trkpt><trkpt lat="44.5548317" lon="9.5162217"><ele>1501.0</ele><time>2026-04-06T15:05:53.599Z</time></trkpt><trkpt lat="44.5549883" lon="9.5162717"><ele>1501.0</ele><time>2026-04-06T15:05:54.598Z</time></trkpt><trkpt lat="44.555135" lon="9.516345"><ele>1501.0</ele><time>2026-04-06T15:05:55.598Z</time></trkpt><trkpt lat="44.5552617" lon="9.5164533"><ele>1501.0</ele><time>2026-04-06T15:05:56.599Z</time></trkpt><trkpt lat="44.55537" lon="9.5166167"><ele>1500.3333333333333</ele><time>2026-04-06T15:05:57.598Z</time></trkpt><trkpt lat="44.5554767" lon="9.5168233"><ele>1499.6666666666667</ele><time>2026-04-06T15:05:58.599Z</time></trkpt><trkpt lat="44.55559" lon="9.5170517"><ele>1499.0</ele><time>2026-04-06T15:05:59.598Z</time></trkpt><trkpt lat="44.5557017" lon="9.51728"><ele>1499.0</ele><time>2026-04-06T15:06:00.599Z</time></trkpt><trkpt lat="44.55581" lon="9.5174967"><ele>1499.0</ele><time>2026-04-06T15:06:01.597Z</time></trkpt><trkpt lat="44.55591" lon="9.5177067"><ele>1499.0</ele><time>2026-04-06T15:06:02.599Z</time></trkpt><trkpt lat="44.5560017" lon="9.5179267"><ele>1495.0</ele><time>2026-04-06T15:06:03.598Z</time></trkpt><trkpt lat="44.5560767" lon="9.5181717"><ele>1491.0</ele><time>2026-04-06T15:06:04.599Z</time></trkpt><trkpt lat="44.5561383" lon="9.5184267"><ele>1487.0</ele><time>2026-04-06T15:06:05.599Z</time></trkpt><trkpt lat="44.55618" lon="9.518675"><ele>1484.3333333333335</ele><time>2026-04-06T15:06:06.598Z</time></trkpt><trkpt lat="44.5561967" lon="9.5189183"><ele>1481.6666666666667</ele><time>2026-04-06T15:06:07.597Z</time></trkpt><trkpt lat="44.5561917" lon="9.5191583"><ele>1479.0</ele><time>2026-04-06T15:06:08.6Z</time></trkpt><trkpt lat="44.5561883" lon="9.5193917"><ele>1476.6666666666667</ele><time>2026-04-06T15:06:09.598Z</time></trkpt><trkpt lat="44.5562" lon="9.519605"><ele>1474.3333333333335</ele><time>2026-04-06T15:06:10.598Z</time></trkpt><trkpt lat="44.556245" lon="9.5198033"><ele>1472.0</ele><time>2026-04-06T15:06:11.599Z</time></trkpt><trkpt lat="44.5563317" lon="9.51998"><ele>1477.3333333333335</ele><time>2026-04-06T15:06:12.599Z</time></trkpt><trkpt lat="44.556435" lon="9.520135"><ele>1482.6666666666667</ele><time>2026-04-06T15:06:13.598Z</time></trkpt><trkpt lat="44.5565317" lon="9.520305"><ele>1488.0</ele><time>2026-04-06T15:06:14.599Z</time></trkpt><trkpt lat="44.556595" lon="9.5205117"><ele>1488.0</ele><time>2026-04-06T15:06:15.598Z</time></trkpt><trkpt lat="44.5566283" lon="9.52074"><ele>1488.0</ele><time>2026-04-06T15:06:16.598Z</time></trkpt><trkpt lat="44.5566533" lon="9.5209717"><ele>1488.0</ele><time>2026-04-06T15:06:17.597Z</time></trkpt><trkpt lat="44.5566917" lon="9.5211917"><ele>1484.6666666666667</ele><time>2026-04-06T15:06:18.598Z</time></trkpt><trkpt lat="44.5567683" lon="9.5214083"><ele>1481.3333333333335</ele><time>2026-04-06T15:06:19.605Z</time></trkpt><trkpt lat="44.5568783" lon="9.5216233"><ele>1478.0</ele><time>2026-04-06T15:06:20.599Z</time></trkpt><trkpt lat="44.5570033" lon="9.5218433"><ele>1482.0</ele><time>2026-04-06T15:06:21.598Z</time></trkpt><trkpt lat="44.5571267" lon="9.5220733"><ele>1486.0</ele><time>2026-04-06T15:06:22.597Z</time></trkpt><trkpt lat="44.5572417" lon="9.5223"><ele>1490.0</ele><time>2026-04-06T15:06:23.599Z</time></trkpt><trkpt lat="44.5573433" lon="9.522535"><ele>1490.0</ele><time>2026-04-06T15:06:24.598Z</time></trkpt><trkpt lat="44.5574267" lon="9.52279"><ele>1490.0</ele><time>2026-04-06T15:06:25.598Z</time></trkpt><trkpt lat="44.5574883" lon="9.5230583"><ele>1490.0</ele><time>2026-04-06T15:06:26.599Z</time></trkpt><trkpt lat="44.5575317" lon="9.523335"><ele>1485.6666666666667</ele><time>2026-04-06T15:06:27.598Z</time></trkpt><trkpt lat="44.5575483" lon="9.5236117"><ele>1481.3333333333333</ele><time>2026-04-06T15:06:28.597Z</time></trkpt><trkpt lat="44.5575517" lon="9.5238733"><ele>1477.0</ele><time>2026-04-06T15:06:29.598Z</time></trkpt><trkpt lat="44.55755" lon="9.5241183"><ele>1474.75</ele><time>2026-04-06T15:06:30.598Z</time></trkpt><trkpt lat="44.5575517" lon="9.524345"><ele>1472.5</ele><time>2026-04-06T15:06:31.598Z</time></trkpt><trkpt lat="44.557565" lon="9.5245467"><ele>1470.25</ele><time>2026-04-06T15:06:32.597Z</time></trkpt><trkpt lat="44.5576083" lon="9.524715"><ele>1468.0</ele><time>2026-04-06T15:06:33.598Z</time></trkpt><trkpt lat="44.557685" lon="9.5248467"><ele>1467.3333333333333</ele><time>2026-04-06T15:06:34.597Z</time></trkpt><trkpt lat="44.5577983" lon="9.5249317"><ele>1466.6666666666667</ele><time>2026-04-06T15:06:35.599Z</time></trkpt><trkpt lat="44.557945" lon="9.5249517"><ele>1466.0</ele><time>2026-04-06T15:06:36.598Z</time></trkpt><trkpt lat="44.5581217" lon="9.5248983"><ele>1466.0</ele><time>2026-04-06T15:06:37.598Z</time></trkpt><trkpt lat="44.5583333" lon="9.5248033"><ele>1466.0</ele><time>2026-04-06T15:06:38.598Z</time></trkpt><trkpt lat="44.5585583" lon="9.5247167"><ele>1463.6666666666667</ele><time>2026-04-06T15:06:39.598Z</time></trkpt><trkpt lat="44.5587783" lon="9.52464"><ele>1461.3333333333333</ele><time>2026-04-06T15:06:40.598Z</time></trkpt><trkpt lat="44.5589817" lon="9.5245733"><ele>1459.0</ele><time>2026-04-06T15:06:41.598Z</time></trkpt><trkpt lat="44.5591767" lon="9.5245133"><ele>1463.3333333333333</ele><time>2026-04-06T15:06:42.597Z</time></trkpt><trkpt lat="44.5593567" lon="9.5244817"><ele>1467.6666666666667</ele><time>2026-04-06T15:06:43.598Z</time></trkpt><trkpt lat="44.5595317" lon="9.5244917"><ele>1472.0</ele><time>2026-04-06T15:06:44.597Z</time></trkpt><trkpt lat="44.5597167" lon="9.5245567"><ele>1467.3333333333335</ele><time>2026-04-06T15:06:45.597Z</time></trkpt><trkpt lat="44.5598967" lon="9.524645"><ele>1462.6666666666667</ele><time>2026-04-06T15:06:46.598Z</time></trkpt><trkpt lat="44.560075" lon="9.5247233"><ele>1458.0</ele><time>2026-04-06T15:06:47.599Z</time></trkpt><trkpt lat="44.5602667" lon="9.5247883"><ele>1458.3333333333333</ele><time>2026-04-06T15:06:48.597Z</time></trkpt><trkpt lat="44.560475" lon="9.5248083"><ele>1458.6666666666665</ele><time>2026-04-06T15:06:49.598Z</time></trkpt><trkpt lat="44.5606967" lon="9.524785"><ele>1459.0</ele><time>2026-04-06T15:06:50.599Z</time></trkpt><trkpt lat="44.5609183" lon="9.5247383"><ele>1459.0</ele><time>2026-04-06T15:06:51.597Z</time></trkpt><trkpt lat="44.56113" lon="9.5246917"><ele>1459.0</ele><time>2026-04-06T15:06:52.598Z</time></trkpt><trkpt lat="44.5613317" lon="9.52465"><ele>1459.0</ele><time>2026-04-06T15:06:53.598Z</time></trkpt><trkpt lat="44.56152" lon="9.5246167"><ele>1460.6666666666665</ele><time>2026-04-06T15:06:54.597Z</time></trkpt><trkpt lat="44.5616867" lon="9.524585"><ele>1462.3333333333333</ele><time>2026-04-06T15:06:55.598Z</time></trkpt><trkpt lat="44.5618283" lon="9.5245283"><ele>1464.0</ele><time>2026-04-06T15:06:56.597Z</time></trkpt><trkpt lat="44.56195" lon="9.5244283"><ele>1455.6666666666667</ele><time>2026-04-06T15:06:57.598Z</time></trkpt><trkpt lat="44.56205" lon="9.5242667"><ele>1447.3333333333335</ele><time>2026-04-06T15:06:58.598Z</time></trkpt><trkpt lat="44.5621267" lon="9.5240483"><ele>1439.0</ele><time>2026-04-06T15:06:59.598Z</time></trkpt><trkpt lat="44.5621933" lon="9.5238217"><ele>1440.0</ele><time>2026-04-06T15:07:00.597Z</time></trkpt><trkpt lat="44.5622483" lon="9.5235933"><ele>1441.0</ele><time>2026-04-06T15:07:01.599Z</time></trkpt><trkpt lat="44.562295" lon="9.5233717"><ele>1442.0</ele><time>2026-04-06T15:07:02.598Z</time></trkpt><trkpt lat="44.5623233" lon="9.5231517"><ele>1442.0</ele><time>2026-04-06T15:07:03.599Z</time></trkpt><trkpt lat="44.562345" lon="9.5229417"><ele>1442.0</ele><time>2026-04-06T15:07:04.6Z</time></trkpt><trkpt lat="44.56237" lon="9.5227433"><ele>1442.0</ele><time>2026-04-06T15:07:05.598Z</time></trkpt><trkpt lat="44.5624233" lon="9.5225683"><ele>1442.0</ele><time>2026-04-06T15:07:06.598Z</time></trkpt><trkpt lat="44.5625" lon="9.522425"><ele>1439.5</ele><time>2026-04-06T15:07:07.599Z</time></trkpt><trkpt lat="44.56261" lon="9.52232"><ele>1437.0</ele><time>2026-04-06T15:07:08.599Z</time></trkpt><trkpt lat="44.5627433" lon="9.5222433"><ele>1434.5</ele><time>2026-04-06T15:07:09.597Z</time></trkpt><trkpt lat="44.5628917" lon="9.5221767"><ele>1432.0</ele><time>2026-04-06T15:07:10.598Z</time></trkpt><trkpt lat="44.5630433" lon="9.52211"><ele>1443.0</ele><time>2026-04-06T15:07:11.599Z</time></trkpt><trkpt lat="44.5632" lon="9.5220333"><ele>1454.0</ele><time>2026-04-06T15:07:12.599Z</time></trkpt><trkpt lat="44.5633517" lon="9.521945"><ele>1465.0</ele><time>2026-04-06T15:07:13.598Z</time></trkpt><trkpt lat="44.56349" lon="9.5218567"><ele>1465.0</ele><time>2026-04-06T15:07:14.598Z</time></trkpt><trkpt lat="44.5636217" lon="9.5217767"><ele>1465.0</ele><time>2026-04-06T15:07:15.597Z</time></trkpt><trkpt lat="44.563765" lon="9.5217083"><ele>1465.0</ele><time>2026-04-06T15:07:16.599Z</time></trkpt><trkpt lat="44.563925" lon="9.521665"><ele>1459.0</ele><time>2026-04-06T15:07:17.599Z</time></trkpt><trkpt lat="44.5640867" lon="9.5216433"><ele>1453.0</ele><time>2026-04-06T15:07:18.598Z</time></trkpt><trkpt lat="44.5642483" lon="9.5216283"><ele>1447.0</ele><time>2026-04-06T15:07:19.598Z</time></trkpt><trkpt lat="44.564405" lon="9.521615"><ele>1451.3333333333333</ele><time>2026-04-06T15:07:20.599Z</time></trkpt><trkpt lat="44.564555" lon="9.5216033"><ele>1455.6666666666667</ele><time>2026-04-06T15:07:21.597Z</time></trkpt><trkpt lat="44.5647033" lon="9.5216183"><ele>1460.0</ele><time>2026-04-06T15:07:22.597Z</time></trkpt><trkpt lat="44.5648517" lon="9.5216667"><ele>1460.0</ele><time>2026-04-06T15:07:23.598Z</time></trkpt><trkpt lat="44.5650017" lon="9.5217617"><ele>1460.0</ele><time>2026-04-06T15:07:24.597Z</time></trkpt><trkpt lat="44.5651483" lon="9.5218867"><ele>1460.0</ele><time>2026-04-06T15:07:25.598Z</time></trkpt><trkpt lat="44.565295" lon="9.5220183"><ele>1455.3333333333335</ele><time>2026-04-06T15:07:26.598Z</time></trkpt><trkpt lat="44.5654433" lon="9.5221567"><ele>1450.6666666666667</ele><time>2026-04-06T15:07:27.597Z</time></trkpt><trkpt lat="44.56559" lon="9.52229"><ele>1446.0</ele><time>2026-04-06T15:07:28.597Z</time></trkpt><trkpt lat="44.56573" lon="9.5224067"><ele>1446.0</ele><time>2026-04-06T15:07:29.598Z</time></trkpt><trkpt lat="44.56587" lon="9.5225033"><ele>1446.0</ele><time>2026-04-06T15:07:30.599Z</time></trkpt><trkpt lat="44.5660133" lon="9.5225717"><ele>1446.0</ele><time>2026-04-06T15:07:31.599Z</time></trkpt><trkpt lat="44.56617" lon="9.52261"><ele>1447.3333333333333</ele><time>2026-04-06T15:07:32.598Z</time></trkpt><trkpt lat="44.5663383" lon="9.5226217"><ele>1448.6666666666665</ele><time>2026-04-06T15:07:33.599Z</time></trkpt><trkpt lat="44.5665083" lon="9.5226217"><ele>1450.0</ele><time>2026-04-06T15:07:34.598Z</time></trkpt><trkpt lat="44.56667" lon="9.5226217"><ele>1450.0</ele><time>2026-04-06T15:07:35.599Z</time></trkpt><trkpt lat="44.56682" lon="9.5226217"><ele>1450.0</ele><time>2026-04-06T15:07:36.598Z</time></trkpt><trkpt lat="44.5669533" lon="9.5226067"><ele>1450.0</ele><time>2026-04-06T15:07:37.598Z</time></trkpt><trkpt lat="44.5670683" lon="9.5225683"><ele>1450.0</ele><time>2026-04-06T15:07:38.598Z</time></trkpt><trkpt lat="44.56716" lon="9.522485"><ele>1448.0</ele><time>2026-04-06T15:07:39.599Z</time></trkpt><trkpt lat="44.5672233" lon="9.522355"><ele>1446.0</ele><time>2026-04-06T15:07:40.598Z</time></trkpt><trkpt lat="44.5672683" lon="9.5221883"><ele>1444.0</ele><time>2026-04-06T15:07:41.598Z</time></trkpt><trkpt lat="44.5673017" lon="9.5219933"><ele>1442.0</ele><time>2026-04-06T15:07:42.599Z</time></trkpt><trkpt lat="44.5673233" lon="9.5217817"><ele>1442.0</ele><time>2026-04-06T15:07:43.597Z</time></trkpt><trkpt lat="44.5673433" lon="9.5215717"><ele>1442.0</ele><time>2026-04-06T15:07:44.598Z</time></trkpt><trkpt lat="44.5673733" lon="9.5213783"><ele>1442.0</ele><time>2026-04-06T15:07:45.598Z</time></trkpt><trkpt lat="44.5674283" lon="9.5212033"><ele>1442.0</ele><time>2026-04-06T15:07:46.598Z</time></trkpt><trkpt lat="44.5675" lon="9.5210367"><ele>1444.0</ele><time>2026-04-06T15:07:47.598Z</time></trkpt><trkpt lat="44.5675933" lon="9.5208683"><ele>1446.0</ele><time>2026-04-06T15:07:48.597Z</time></trkpt><trkpt lat="44.5677033" lon="9.5206983"><ele>1448.0</ele><time>2026-04-06T15:07:49.599Z</time></trkpt><trkpt lat="44.5678167" lon="9.5205233"><ele>1443.0</ele><time>2026-04-06T15:07:50.601Z</time></trkpt><trkpt lat="44.567925" lon="9.5203533"><ele>1438.0</ele><time>2026-04-06T15:07:51.598Z</time></trkpt><trkpt lat="44.5680317" lon="9.5201967"><ele>1433.0</ele><time>2026-04-06T15:07:52.599Z</time></trkpt><trkpt lat="44.5681333" lon="9.5200533"><ele>1433.0</ele><time>2026-04-06T15:07:53.599Z</time></trkpt><trkpt lat="44.5682383" lon="9.5199217"><ele>1433.0</ele><time>2026-04-06T15:07:54.599Z</time></trkpt><trkpt lat="44.5683567" lon="9.51983"><ele>1433.0</ele><time>2026-04-06T15:07:55.598Z</time></trkpt><trkpt lat="44.5684917" lon="9.519795"><ele>1433.0</ele><time>2026-04-06T15:07:56.6Z</time></trkpt><trkpt lat="44.5686467" lon="9.5197883"><ele>1430.3333333333335</ele><time>2026-04-06T15:07:57.598Z</time></trkpt><trkpt lat="44.56881" lon="9.5197817"><ele>1427.6666666666667</ele><time>2026-04-06T15:07:58.6Z</time></trkpt><trkpt lat="44.5689733" lon="9.519765"><ele>1425.0</ele><time>2026-04-06T15:07:59.598Z</time></trkpt><trkpt lat="44.56913" lon="9.5197317"><ele>1425.0</ele><time>2026-04-06T15:08:00.597Z</time></trkpt><trkpt lat="44.5692783" lon="9.5196883"><ele>1425.0</ele><time>2026-04-06T15:08:01.598Z</time></trkpt><trkpt lat="44.5694233" lon="9.519655"><ele>1425.0</ele><time>2026-04-06T15:08:02.599Z</time></trkpt><trkpt lat="44.5695683" lon="9.5196417"><ele>1425.0</ele><time>2026-04-06T15:08:03.599Z</time></trkpt><trkpt lat="44.56971" lon="9.5196783"><ele>1425.25</ele><time>2026-04-06T15:08:04.597Z</time></trkpt><trkpt lat="44.5698467" lon="9.5197533"><ele>1425.5</ele><time>2026-04-06T15:08:05.599Z</time></trkpt><trkpt lat="44.5699717" lon="9.5198333"><ele>1425.75</ele><time>2026-04-06T15:08:06.598Z</time></trkpt><trkpt lat="44.5700917" lon="9.5198883"><ele>1426.0</ele><time>2026-04-06T15:08:07.599Z</time></trkpt><trkpt lat="44.570215" lon="9.5198917"><ele>1426.0</ele><time>2026-04-06T15:08:08.599Z</time></trkpt><trkpt lat="44.5703467" lon="9.5198283"><ele>1426.0</ele><time>2026-04-06T15:08:09.599Z</time></trkpt><trkpt lat="44.5704733" lon="9.5197367"><ele>1426.0</ele><time>2026-04-06T15:08:10.599Z</time></trkpt><trkpt lat="44.570595" lon="9.5196483"><ele>1426.0</ele><time>2026-04-06T15:08:11.598Z</time></trkpt><trkpt lat="44.5707167" lon="9.5195983"><ele>1423.6666666666665</ele><time>2026-04-06T15:08:12.597Z</time></trkpt><trkpt lat="44.570845" lon="9.5195983"><ele>1421.3333333333333</ele><time>2026-04-06T15:08:13.599Z</time></trkpt><trkpt lat="44.5709967" lon="9.5196533"><ele>1419.0</ele><time>2026-04-06T15:08:14.599Z</time></trkpt><trkpt lat="44.5711567" lon="9.5197383"><ele>1419.3333333333333</ele><time>2026-04-06T15:08:15.598Z</time></trkpt><trkpt lat="44.5713067" lon="9.519825"><ele>1419.6666666666665</ele><time>2026-04-06T15:08:16.597Z</time></trkpt><trkpt lat="44.571445" lon="9.51991"><ele>1420.0</ele><time>2026-04-06T15:08:17.599Z</time></trkpt><trkpt lat="44.571585" lon="9.5199817"><ele>1420.0</ele><time>2026-04-06T15:08:18.599Z</time></trkpt><trkpt lat="44.5717267" lon="9.520015"><ele>1420.0</ele><time>2026-04-06T15:08:19.597Z</time></trkpt><trkpt lat="44.571875" lon="9.51999"><ele>1420.0</ele><time>2026-04-06T15:08:20.599Z</time></trkpt><trkpt lat="44.57202" lon="9.5199267"><ele>1420.0</ele><time>2026-04-06T15:08:21.598Z</time></trkpt><trkpt lat="44.5721583" lon="9.51985"><ele>1417.75</ele><time>2026-04-06T15:08:22.598Z</time></trkpt><trkpt lat="44.5722967" lon="9.5197917"><ele>1415.5</ele><time>2026-04-06T15:08:23.598Z</time></trkpt><trkpt lat="44.572435" lon="9.5197767"><ele>1413.25</ele><time>2026-04-06T15:08:24.598Z</time></trkpt><trkpt lat="44.5725717" lon="9.5198017"><ele>1411.0</ele><time>2026-04-06T15:08:25.598Z</time></trkpt><trkpt lat="44.5727083" lon="9.51988"><ele>1411.0</ele><time>2026-04-06T15:08:26.597Z</time></trkpt><trkpt lat="44.572835" lon="9.52"><ele>1411.0</ele><time>2026-04-06T15:08:27.598Z</time></trkpt><trkpt lat="44.57296" lon="9.5201467"><ele>1411.0</ele><time>2026-04-06T15:08:28.599Z</time></trkpt><trkpt lat="44.5730767" lon="9.520295"><ele>1409.75</ele><time>2026-04-06T15:08:29.598Z</time></trkpt><trkpt lat="44.5731883" lon="9.5204317"><ele>1408.5</ele><time>2026-04-06T15:08:30.599Z</time></trkpt><trkpt lat="44.573295" lon="9.5205517"><ele>1407.25</ele><time>2026-04-06T15:08:31.598Z</time></trkpt><trkpt lat="44.5733933" lon="9.5206367"><ele>1406.0</ele><time>2026-04-06T15:08:32.598Z</time></trkpt><trkpt lat="44.5734867" lon="9.5206767"><ele>1406.0</ele><time>2026-04-06T15:08:33.6Z</time></trkpt><trkpt lat="44.573575" lon="9.52066"><ele>1406.0</ele><time>2026-04-06T15:08:34.598Z</time></trkpt><trkpt lat="44.573655" lon="9.5205867"><ele>1406.0</ele><time>2026-04-06T15:08:35.599Z</time></trkpt><trkpt lat="44.5737067" lon="9.5204667"><ele>1406.0</ele><time>2026-04-06T15:08:36.598Z</time></trkpt><trkpt lat="44.5737233" lon="9.5203183"><ele>1406.0</ele><time>2026-04-06T15:08:37.599Z</time></trkpt><trkpt lat="44.5737067" lon="9.5201633"><ele>1405.25</ele><time>2026-04-06T15:08:38.599Z</time></trkpt><trkpt lat="44.5736417" lon="9.5200017"><ele>1404.5</ele><time>2026-04-06T15:08:39.599Z</time></trkpt><trkpt lat="44.5735483" lon="9.51984"><ele>1403.75</ele><time>2026-04-06T15:08:40.598Z</time></trkpt><trkpt lat="44.5734383" lon="9.519665"><ele>1403.0</ele><time>2026-04-06T15:08:41.598Z</time></trkpt><trkpt lat="44.5733217" lon="9.5194783"><ele>1403.0</ele><time>2026-04-06T15:08:42.598Z</time></trkpt><trkpt lat="44.5732" lon="9.519285"><ele>1403.0</ele><time>2026-04-06T15:08:43.597Z</time></trkpt><trkpt lat="44.5730783" lon="9.5190933"><ele>1403.0</ele><time>2026-04-06T15:08:44.6Z</time></trkpt><trkpt lat="44.5729617" lon="9.518905"><ele>1404.6666666666667</ele><time>2026-04-06T15:08:45.598Z</time></trkpt><trkpt lat="44.5728517" lon="9.5187183"><ele>1406.3333333333333</ele><time>2026-04-06T15:08:46.599Z</time></trkpt><trkpt lat="44.572745" lon="9.5185233"><ele>1408.0</ele><time>2026-04-06T15:08:47.597Z</time></trkpt><trkpt lat="44.5726483" lon="9.5183133"><ele>1408.0</ele><time>2026-04-06T15:08:48.598Z</time></trkpt><trkpt lat="44.57256" lon="9.5181"><ele>1408.0</ele><time>2026-04-06T15:08:49.599Z</time></trkpt><trkpt lat="44.5724783" lon="9.5179"><ele>1408.0</ele><time>2026-04-06T15:08:50.599Z</time></trkpt><trkpt lat="44.5724017" lon="9.5177133"><ele>1405.25</ele><time>2026-04-06T15:08:51.6Z</time></trkpt><trkpt lat="44.572325" lon="9.5175317"><ele>1402.5</ele><time>2026-04-06T15:08:52.598Z</time></trkpt><trkpt lat="44.5722617" lon="9.5173567"><ele>1399.75</ele><time>2026-04-06T15:08:53.598Z</time></trkpt><trkpt lat="44.5722067" lon="9.5171867"><ele>1397.0</ele><time>2026-04-06T15:08:54.597Z</time></trkpt><trkpt lat="44.57218" lon="9.51701"><ele>1395.0</ele><time>2026-04-06T15:08:55.597Z</time></trkpt><trkpt lat="44.5721833" lon="9.5168283"><ele>1393.0</ele><time>2026-04-06T15:08:56.599Z</time></trkpt><trkpt lat="44.5722183" lon="9.5166417"><ele>1391.0</ele><time>2026-04-06T15:08:57.598Z</time></trkpt><trkpt lat="44.5722883" lon="9.5164683"><ele>1389.0</ele><time>2026-04-06T15:08:58.599Z</time></trkpt><trkpt lat="44.57238" lon="9.5163083"><ele>1390.0</ele><time>2026-04-06T15:08:59.599Z</time></trkpt><trkpt lat="44.5724867" lon="9.51615"><ele>1391.0</ele><time>2026-04-06T15:09:00.599Z</time></trkpt><trkpt lat="44.572605" lon="9.5159933"><ele>1392.0</ele><time>2026-04-06T15:09:01.598Z</time></trkpt><trkpt lat="44.5727217" lon="9.5158433"><ele>1392.0</ele><time>2026-04-06T15:09:02.599Z</time></trkpt><trkpt lat="44.57283" lon="9.515695"><ele>1392.0</ele><time>2026-04-06T15:09:03.599Z</time></trkpt><trkpt lat="44.57293" lon="9.5155467"><ele>1392.0</ele><time>2026-04-06T15:09:04.597Z</time></trkpt><trkpt lat="44.5730133" lon="9.5153967"><ele>1392.0</ele><time>2026-04-06T15:09:05.598Z</time></trkpt><trkpt lat="44.57307" lon="9.5152383"><ele>1388.25</ele><time>2026-04-06T15:09:06.598Z</time></trkpt><trkpt lat="44.5731017" lon="9.5150667"><ele>1384.5</ele><time>2026-04-06T15:09:07.598Z</time></trkpt><trkpt lat="44.573115" lon="9.5148883"><ele>1380.75</ele><time>2026-04-06T15:09:08.599Z</time></trkpt><trkpt lat="44.5731183" lon="9.5147"><ele>1377.0</ele><time>2026-04-06T15:09:09.599Z</time></trkpt><trkpt lat="44.5731133" lon="9.5144933"><ele>1375.6666666666667</ele><time>2026-04-06T15:09:10.599Z</time></trkpt><trkpt lat="44.5731" lon="9.5142717"><ele>1374.3333333333335</ele><time>2026-04-06T15:09:11.598Z</time></trkpt><trkpt lat="44.5730783" lon="9.5140383"><ele>1373.0</ele><time>2026-04-06T15:09:12.599Z</time></trkpt><trkpt lat="44.5730533" lon="9.5138067"><ele>1370.6666666666667</ele><time>2026-04-06T15:09:13.599Z</time></trkpt><trkpt lat="44.57302" lon="9.5135867"><ele>1368.3333333333333</ele><time>2026-04-06T15:09:14.599Z</time></trkpt><trkpt lat="44.572985" lon="9.513375"><ele>1366.0</ele><time>2026-04-06T15:09:15.598Z</time></trkpt><trkpt lat="44.5729567" lon="9.5131783"><ele>1366.0</ele><time>2026-04-06T15:09:16.599Z</time></trkpt><trkpt lat="44.57294" lon="9.512995"><ele>1366.0</ele><time>2026-04-06T15:09:17.599Z</time></trkpt><trkpt lat="44.57295" lon="9.5128267"><ele>1366.0</ele><time>2026-04-06T15:09:18.598Z</time></trkpt><trkpt lat="44.5729867" lon="9.5126767"><ele>1366.0</ele><time>2026-04-06T15:09:19.599Z</time></trkpt><trkpt lat="44.573055" lon="9.5125483"><ele>1366.25</ele><time>2026-04-06T15:09:20.6Z</time></trkpt><trkpt lat="44.5731467" lon="9.512455"><ele>1366.5</ele><time>2026-04-06T15:09:21.597Z</time></trkpt><trkpt lat="44.5732583" lon="9.5123883"><ele>1366.75</ele><time>2026-04-06T15:09:22.598Z</time></trkpt><trkpt lat="44.57338" lon="9.51234"><ele>1367.0</ele><time>2026-04-06T15:09:23.598Z</time></trkpt><trkpt lat="44.573505" lon="9.5122917"><ele>1367.0</ele><time>2026-04-06T15:09:24.598Z</time></trkpt><trkpt lat="44.5736267" lon="9.5122417"><ele>1367.0</ele><time>2026-04-06T15:09:25.599Z</time></trkpt><trkpt lat="44.57374" lon="9.51218"><ele>1367.0</ele><time>2026-04-06T15:09:26.598Z</time></trkpt><trkpt lat="44.5738433" lon="9.5120933"><ele>1367.0</ele><time>2026-04-06T15:09:27.598Z</time></trkpt><trkpt lat="44.5739367" lon="9.5119817"><ele>1363.75</ele><time>2026-04-06T15:09:28.598Z</time></trkpt><trkpt lat="44.5740167" lon="9.5118417"><ele>1360.5</ele><time>2026-04-06T15:09:29.599Z</time></trkpt><trkpt lat="44.5740733" lon="9.5116867"><ele>1357.25</ele><time>2026-04-06T15:09:30.599Z</time></trkpt><trkpt lat="44.5741017" lon="9.5115233"><ele>1354.0</ele><time>2026-04-06T15:09:31.6Z</time></trkpt><trkpt lat="44.5741033" lon="9.51136"><ele>1352.5</ele><time>2026-04-06T15:09:32.599Z</time></trkpt><trkpt lat="44.57409" lon="9.511195"><ele>1351.0</ele><time>2026-04-06T15:09:33.598Z</time></trkpt><trkpt lat="44.5740667" lon="9.511035"><ele>1349.5</ele><time>2026-04-06T15:09:34.598Z</time></trkpt><trkpt lat="44.5740433" lon="9.5108783"><ele>1348.0</ele><time>2026-04-06T15:09:35.599Z</time></trkpt><trkpt lat="44.5740217" lon="9.5107217"><ele>1348.0</ele><time>2026-04-06T15:09:36.598Z</time></trkpt><trkpt lat="44.5739967" lon="9.5105633"><ele>1348.0</ele><time>2026-04-06T15:09:37.599Z</time></trkpt><trkpt lat="44.5739683" lon="9.5104117"><ele>1348.0</ele><time>2026-04-06T15:09:38.602Z</time></trkpt><trkpt lat="44.5739267" lon="9.5102617"><ele>1348.0</ele><time>2026-04-06T15:09:39.599Z</time></trkpt><trkpt lat="44.57387" lon="9.510115"><ele>1344.75</ele><time>2026-04-06T15:09:40.599Z</time></trkpt><trkpt lat="44.573805" lon="9.5099783"><ele>1341.5</ele><time>2026-04-06T15:09:41.599Z</time></trkpt><trkpt lat="44.5737383" lon="9.5098483"><ele>1338.25</ele><time>2026-04-06T15:09:42.598Z</time></trkpt><trkpt lat="44.573675" lon="9.5097183"><ele>1335.0</ele><time>2026-04-06T15:09:43.599Z</time></trkpt><trkpt lat="44.57361" lon="9.5095867"><ele>1339.4</ele><time>2026-04-06T15:09:44.598Z</time></trkpt><trkpt lat="44.5735517" lon="9.5094467"><ele>1343.8</ele><time>2026-04-06T15:09:45.597Z</time></trkpt><trkpt lat="44.5735167" lon="9.5092983"><ele>1348.1999999999998</ele><time>2026-04-06T15:09:46.599Z</time></trkpt><trkpt lat="44.5735083" lon="9.50915"><ele>1352.6</ele><time>2026-04-06T15:09:47.598Z</time></trkpt><trkpt lat="44.5735317" lon="9.5090083"><ele>1357.0</ele><time>2026-04-06T15:09:48.599Z</time></trkpt><trkpt lat="44.573575" lon="9.5088817"><ele>1357.0</ele><time>2026-04-06T15:09:49.598Z</time></trkpt><trkpt lat="44.573645" lon="9.5087817"><ele>1357.0</ele><time>2026-04-06T15:09:50.599Z</time></trkpt><trkpt lat="44.573745" lon="9.5087083"><ele>1357.0</ele><time>2026-04-06T15:09:51.598Z</time></trkpt><trkpt lat="44.573865" lon="9.5086667"><ele>1357.0</ele><time>2026-04-06T15:09:52.599Z</time></trkpt><trkpt lat="44.5740117" lon="9.5086533"><ele>1360.6666666666665</ele><time>2026-04-06T15:09:53.599Z</time></trkpt><trkpt lat="44.5741833" lon="9.50867"><ele>1364.3333333333333</ele><time>2026-04-06T15:09:54.598Z</time></trkpt><trkpt lat="44.5743583" lon="9.5087"><ele>1368.0</ele><time>2026-04-06T15:09:55.597Z</time></trkpt><trkpt lat="44.574515" lon="9.508735"><ele>1361.5</ele><time>2026-04-06T15:09:56.6Z</time></trkpt><trkpt lat="44.5746567" lon="9.5087583"><ele>1355.0</ele><time>2026-04-06T15:09:57.597Z</time></trkpt><trkpt lat="44.574785" lon="9.5087317"><ele>1348.5</ele><time>2026-04-06T15:09:58.599Z</time></trkpt><trkpt lat="44.5749033" lon="9.5086317"><ele>1342.0</ele><time>2026-04-06T15:09:59.597Z</time></trkpt><trkpt lat="44.57501" lon="9.5084583"><ele>1342.0</ele><time>2026-04-06T15:10:00.598Z</time></trkpt><trkpt lat="44.575095" lon="9.50824"><ele>1342.0</ele><time>2026-04-06T15:10:01.599Z</time></trkpt><trkpt lat="44.5751767" lon="9.5080367"><ele>1342.0</ele><time>2026-04-06T15:10:02.599Z</time></trkpt><trkpt lat="44.5752633" lon="9.5078467"><ele>1336.0</ele><time>2026-04-06T15:10:03.598Z</time></trkpt><trkpt lat="44.5753767" lon="9.507685"><ele>1330.0</ele><time>2026-04-06T15:10:04.598Z</time></trkpt><trkpt lat="44.5755" lon="9.5075583"><ele>1324.0</ele><time>2026-04-06T15:10:05.598Z</time></trkpt><trkpt lat="44.5756317" lon="9.50745"><ele>1324.0</ele><time>2026-04-06T15:10:06.599Z</time></trkpt><trkpt lat="44.5757517" lon="9.507355"><ele>1324.0</ele><time>2026-04-06T15:10:07.599Z</time></trkpt><trkpt lat="44.5758567" lon="9.5072533"><ele>1324.0</ele><time>2026-04-06T15:10:08.599Z</time></trkpt><trkpt lat="44.5759233" lon="9.5071183"><ele>1324.0</ele><time>2026-04-06T15:10:09.598Z</time></trkpt><trkpt lat="44.5759417" lon="9.5069567"><ele>1326.75</ele><time>2026-04-06T15:10:10.6Z</time></trkpt><trkpt lat="44.5759083" lon="9.506795"><ele>1329.5</ele><time>2026-04-06T15:10:11.598Z</time></trkpt><trkpt lat="44.5758467" lon="9.506645"><ele>1332.25</ele><time>2026-04-06T15:10:12.599Z</time></trkpt><trkpt lat="44.5757983" lon="9.5064917"><ele>1335.0</ele><time>2026-04-06T15:10:13.598Z</time></trkpt><trkpt lat="44.5757767" lon="9.506325"><ele>1335.75</ele><time>2026-04-06T15:10:14.598Z</time></trkpt><trkpt lat="44.5758017" lon="9.5061683"><ele>1336.5</ele><time>2026-04-06T15:10:15.598Z</time></trkpt><trkpt lat="44.57587" lon="9.5060283"><ele>1337.25</ele><time>2026-04-06T15:10:16.599Z</time></trkpt><trkpt lat="44.57596" lon="9.505905"><ele>1338.0</ele><time>2026-04-06T15:10:17.598Z</time></trkpt><trkpt lat="44.57606" lon="9.50579"><ele>1338.0</ele><time>2026-04-06T15:10:18.598Z</time></trkpt><trkpt lat="44.5761517" lon="9.505665"><ele>1338.0</ele><time>2026-04-06T15:10:19.599Z</time></trkpt><trkpt lat="44.576225" lon="9.50554"><ele>1338.0</ele><time>2026-04-06T15:10:20.598Z</time></trkpt><trkpt lat="44.5762533" lon="9.5053917"><ele>1338.0</ele><time>2026-04-06T15:10:21.598Z</time></trkpt><trkpt lat="44.5762433" lon="9.5052467"><ele>1338.6000000000001</ele><time>2026-04-06T15:10:22.598Z</time></trkpt><trkpt lat="44.576195" lon="9.5051"><ele>1339.2</ele><time>2026-04-06T15:10:23.599Z</time></trkpt><trkpt lat="44.5761383" lon="9.5049633"><ele>1339.8</ele><time>2026-04-06T15:10:24.597Z</time></trkpt><trkpt lat="44.5760933" lon="9.504825"><ele>1340.4</ele><time>2026-04-06T15:10:25.598Z</time></trkpt><trkpt lat="44.5760717" lon="9.5046717"><ele>1341.0</ele><time>2026-04-06T15:10:26.599Z</time></trkpt><trkpt lat="44.5760967" lon="9.5045233"><ele>1342.5</ele><time>2026-04-06T15:10:27.598Z</time></trkpt><trkpt lat="44.57616" lon="9.5043867"><ele>1344.0</ele><time>2026-04-06T15:10:28.599Z</time></trkpt><trkpt lat="44.57626" lon="9.50429"><ele>1345.5</ele><time>2026-04-06T15:10:29.597Z</time></trkpt><trkpt lat="44.5763917" lon="9.50423"><ele>1347.0</ele><time>2026-04-06T15:10:30.598Z</time></trkpt><trkpt lat="44.57653" lon="9.50418"><ele>1339.0</ele><time>2026-04-06T15:10:31.597Z</time></trkpt><trkpt lat="44.576665" lon="9.5041283"><ele>1331.0</ele><time>2026-04-06T15:10:32.598Z</time></trkpt><trkpt lat="44.5767883" lon="9.50407"><ele>1323.0</ele><time>2026-04-06T15:10:33.599Z</time></trkpt><trkpt lat="44.5768933" lon="9.5039917"><ele>1315.0</ele><time>2026-04-06T15:10:34.599Z</time></trkpt><trkpt lat="44.5769733" lon="9.5038767"><ele>1316.0</ele><time>2026-04-06T15:10:35.599Z</time></trkpt><trkpt lat="44.577025" lon="9.503735"><ele>1317.0</ele><time>2026-04-06T15:10:36.598Z</time></trkpt><trkpt lat="44.5770383" lon="9.503575"><ele>1318.0</ele><time>2026-04-06T15:10:37.599Z</time></trkpt><trkpt lat="44.5770017" lon="9.5034117"><ele>1319.0</ele><time>2026-04-06T15:10:38.599Z</time></trkpt><trkpt lat="44.57693" lon="9.5032567"><ele>1319.0</ele><time>2026-04-06T15:10:39.598Z</time></trkpt><trkpt lat="44.5768517" lon="9.50311"><ele>1319.0</ele><time>2026-04-06T15:10:40.599Z</time></trkpt><trkpt lat="44.5767883" lon="9.5029633"><ele>1319.0</ele><time>2026-04-06T15:10:41.598Z</time></trkpt><trkpt lat="44.5767567" lon="9.50281"><ele>1319.0</ele><time>2026-04-06T15:10:42.598Z</time></trkpt><trkpt lat="44.5767633" lon="9.5026583"><ele>1320.0</ele><time>2026-04-06T15:10:43.599Z</time></trkpt><trkpt lat="44.5768183" lon="9.502525"><ele>1321.0</ele><time>2026-04-06T15:10:44.599Z</time></trkpt><trkpt lat="44.5769083" lon="9.5024267"><ele>1322.0</ele><time>2026-04-06T15:10:45.599Z</time></trkpt><trkpt lat="44.5770383" lon="9.50236"><ele>1323.0</ele><time>2026-04-06T15:10:46.598Z</time></trkpt><trkpt lat="44.5771867" lon="9.5022967"><ele>1320.6666666666667</ele><time>2026-04-06T15:10:47.597Z</time></trkpt><trkpt lat="44.5773417" lon="9.5022267"><ele>1318.3333333333335</ele><time>2026-04-06T15:10:48.597Z</time></trkpt><trkpt lat="44.5774983" lon="9.5021417"><ele>1316.0</ele><time>2026-04-06T15:10:49.6Z</time></trkpt><trkpt lat="44.5776567" lon="9.5020167"><ele>1316.0</ele><time>2026-04-06T15:10:50.599Z</time></trkpt><trkpt lat="44.5778033" lon="9.50186"><ele>1316.0</ele><time>2026-04-06T15:10:51.598Z</time></trkpt><trkpt lat="44.5779383" lon="9.5017067"><ele>1316.0</ele><time>2026-04-06T15:10:52.598Z</time></trkpt><trkpt lat="44.5780617" lon="9.501555"><ele>1310.5</ele><time>2026-04-06T15:10:53.6Z</time></trkpt><trkpt lat="44.5781767" lon="9.5014133"><ele>1305.0</ele><time>2026-04-06T15:10:54.599Z</time></trkpt><trkpt lat="44.5782717" lon="9.501265"><ele>1299.5</ele><time>2026-04-06T15:10:55.598Z</time></trkpt><trkpt lat="44.57834" lon="9.5011117"><ele>1294.0</ele><time>2026-04-06T15:10:56.599Z</time></trkpt><trkpt lat="44.5783633" lon="9.5009517"><ele>1294.0</ele><time>2026-04-06T15:10:57.598Z</time></trkpt><trkpt lat="44.578335" lon="9.50078"><ele>1294.0</ele><time>2026-04-06T15:10:58.598Z</time></trkpt><trkpt lat="44.57826" lon="9.500615"><ele>1294.0</ele><time>2026-04-06T15:10:59.598Z</time></trkpt><trkpt lat="44.578155" lon="9.5004617"><ele>1294.0</ele><time>2026-04-06T15:11:00.599Z</time></trkpt><trkpt lat="44.57805" lon="9.50032"><ele>1290.25</ele><time>2026-04-06T15:11:01.599Z</time></trkpt><trkpt lat="44.5779567" lon="9.50018"><ele>1286.5</ele><time>2026-04-06T15:11:02.598Z</time></trkpt><trkpt lat="44.5778917" lon="9.5000233"><ele>1282.75</ele><time>2026-04-06T15:11:03.597Z</time></trkpt><trkpt lat="44.5778567" lon="9.499845"><ele>1279.0</ele><time>2026-04-06T15:11:04.598Z</time></trkpt><trkpt lat="44.577845" lon="9.4996433"><ele>1284.75</ele><time>2026-04-06T15:11:05.599Z</time></trkpt><trkpt lat="44.57784" lon="9.4994417"><ele>1290.5</ele><time>2026-04-06T15:11:06.598Z</time></trkpt><trkpt lat="44.5778233" lon="9.49925"><ele>1296.25</ele><time>2026-04-06T15:11:07.598Z</time></trkpt><trkpt lat="44.5777833" lon="9.4990733"><ele>1302.0</ele><time>2026-04-06T15:11:08.599Z</time></trkpt><trkpt lat="44.5777167" lon="9.4989067"><ele>1302.0</ele><time>2026-04-06T15:11:09.598Z</time></trkpt><trkpt lat="44.57763" lon="9.4987583"><ele>1302.0</ele><time>2026-04-06T15:11:10.599Z</time></trkpt><trkpt lat="44.5775233" lon="9.498635"><ele>1302.0</ele><time>2026-04-06T15:11:11.599Z</time></trkpt><trkpt lat="44.5774067" lon="9.4985483"><ele>1302.0</ele><time>2026-04-06T15:11:12.598Z</time></trkpt><trkpt lat="44.5772783" lon="9.498495"><ele>1295.0</ele><time>2026-04-06T15:11:13.598Z</time></trkpt><trkpt lat="44.5771317" lon="9.49849"><ele>1288.0</ele><time>2026-04-06T15:11:14.599Z</time></trkpt><trkpt lat="44.5769733" lon="9.498515"><ele>1281.0</ele><time>2026-04-06T15:11:15.599Z</time></trkpt><trkpt lat="44.5768117" lon="9.498545"><ele>1281.0</ele><time>2026-04-06T15:11:16.599Z</time></trkpt><trkpt lat="44.57665" lon="9.4985783"><ele>1281.0</ele><time>2026-04-06T15:11:17.599Z</time></trkpt><trkpt lat="44.57649" lon="9.498595"><ele>1281.0</ele><time>2026-04-06T15:11:18.599Z</time></trkpt><trkpt lat="44.576335" lon="9.498575"><ele>1279.3333333333333</ele><time>2026-04-06T15:11:19.599Z</time></trkpt><trkpt lat="44.57618" lon="9.4985317"><ele>1277.6666666666665</ele><time>2026-04-06T15:11:20.599Z</time></trkpt><trkpt lat="44.576025" lon="9.4984883"><ele>1276.0</ele><time>2026-04-06T15:11:21.599Z</time></trkpt><trkpt lat="44.5758617" lon="9.4984517"><ele>1276.0</ele><time>2026-04-06T15:11:22.6Z</time></trkpt><trkpt lat="44.5756967" lon="9.4984417"><ele>1276.0</ele><time>2026-04-06T15:11:23.599Z</time></trkpt><trkpt lat="44.5755383" lon="9.4984433"><ele>1276.0</ele><time>2026-04-06T15:11:24.598Z</time></trkpt><trkpt lat="44.5753917" lon="9.4984467"><ele>1276.75</ele><time>2026-04-06T15:11:25.598Z</time></trkpt><trkpt lat="44.5752583" lon="9.49843"><ele>1277.5</ele><time>2026-04-06T15:11:26.598Z</time></trkpt><trkpt lat="44.5751367" lon="9.498385"><ele>1278.25</ele><time>2026-04-06T15:11:27.6Z</time></trkpt><trkpt lat="44.5750333" lon="9.49829"><ele>1279.0</ele><time>2026-04-06T15:11:28.599Z</time></trkpt><trkpt lat="44.5749583" lon="9.49815"><ele>1279.0</ele><time>2026-04-06T15:11:29.598Z</time></trkpt><trkpt lat="44.57492" lon="9.4979733"><ele>1279.0</ele><time>2026-04-06T15:11:30.599Z</time></trkpt><trkpt lat="44.574925" lon="9.4977733"><ele>1279.0</ele><time>2026-04-06T15:11:31.598Z</time></trkpt><trkpt lat="44.5749633" lon="9.4975417"><ele>1279.0</ele><time>2026-04-06T15:11:32.6Z</time></trkpt><trkpt lat="44.5750183" lon="9.4972867"><ele>1281.0</ele><time>2026-04-06T15:11:33.599Z</time></trkpt><trkpt lat="44.57508" lon="9.4970383"><ele>1283.0</ele><time>2026-04-06T15:11:34.599Z</time></trkpt><trkpt lat="44.5751583" lon="9.496795"><ele>1285.0</ele><time>2026-04-06T15:11:35.599Z</time></trkpt><trkpt lat="44.5752567" lon="9.49656"><ele>1276.0</ele><time>2026-04-06T15:11:36.6Z</time></trkpt><trkpt lat="44.575365" lon="9.496345"><ele>1267.0</ele><time>2026-04-06T15:11:37.598Z</time></trkpt><trkpt lat="44.5754733" lon="9.4961233"><ele>1258.0</ele><time>2026-04-06T15:11:38.599Z</time></trkpt><trkpt lat="44.57557" lon="9.4958717"><ele>1258.0</ele><time>2026-04-06T15:11:39.599Z</time></trkpt><trkpt lat="44.5756517" lon="9.4956017"><ele>1258.0</ele><time>2026-04-06T15:11:40.599Z</time></trkpt><trkpt lat="44.5757167" lon="9.4953383"><ele>1258.0</ele><time>2026-04-06T15:11:41.598Z</time></trkpt><trkpt lat="44.5757717" lon="9.4950933"><ele>1258.0</ele><time>2026-04-06T15:11:42.599Z</time></trkpt><trkpt lat="44.5758233" lon="9.4948617"><ele>1258.0</ele><time>2026-04-06T15:11:43.599Z</time></trkpt><trkpt lat="44.5758667" lon="9.4946583"><ele>1258.0</ele><time>2026-04-06T15:11:44.599Z</time></trkpt><trkpt lat="44.5758917" lon="9.494465"><ele>1257.0</ele><time>2026-04-06T15:11:45.598Z</time></trkpt><trkpt lat="44.5758867" lon="9.49427"><ele>1256.0</ele><time>2026-04-06T15:11:46.599Z</time></trkpt><trkpt lat="44.5758533" lon="9.4940783"><ele>1255.0</ele><time>2026-04-06T15:11:47.599Z</time></trkpt><trkpt lat="44.5758033" lon="9.4938917"><ele>1254.0</ele><time>2026-04-06T15:11:48.599Z</time></trkpt><trkpt lat="44.5757433" lon="9.4937133"><ele>1251.75</ele><time>2026-04-06T15:11:49.599Z</time></trkpt><trkpt lat="44.57567" lon="9.4935517"><ele>1249.5</ele><time>2026-04-06T15:11:50.599Z</time></trkpt><trkpt lat="44.575595" lon="9.4934"><ele>1247.25</ele><time>2026-04-06T15:11:51.599Z</time></trkpt><trkpt lat="44.5755283" lon="9.4932567"><ele>1245.0</ele><time>2026-04-06T15:11:52.598Z</time></trkpt><trkpt lat="44.5754867" lon="9.4931067"><ele>1245.0</ele><time>2026-04-06T15:11:53.6Z</time></trkpt><trkpt lat="44.57548" lon="9.4929517"><ele>1245.0</ele><time>2026-04-06T15:11:54.599Z</time></trkpt><trkpt lat="44.57552" lon="9.4928033"><ele>1245.0</ele><time>2026-04-06T15:11:55.599Z</time></trkpt><trkpt lat="44.575595" lon="9.4926617"><ele>1245.0</ele><time>2026-04-06T15:11:56.599Z</time></trkpt><trkpt lat="44.575675" lon="9.4925267"><ele>1244.5</ele><time>2026-04-06T15:11:57.6Z</time></trkpt><trkpt lat="44.5757367" lon="9.49238"><ele>1244.0</ele><time>2026-04-06T15:11:58.597Z</time></trkpt><trkpt lat="44.5757717" lon="9.4922183"><ele>1243.5</ele><time>2026-04-06T15:11:59.599Z</time></trkpt><trkpt lat="44.5757683" lon="9.49204"><ele>1243.0</ele><time>2026-04-06T15:12:00.599Z</time></trkpt><trkpt lat="44.5757233" lon="9.491845"><ele>1241.6666666666665</ele><time>2026-04-06T15:12:01.598Z</time></trkpt><trkpt lat="44.57566" lon="9.4916383"><ele>1240.3333333333333</ele><time>2026-04-06T15:12:02.599Z</time></trkpt><trkpt lat="44.575595" lon="9.4914283"><ele>1239.0</ele><time>2026-04-06T15:12:03.599Z</time></trkpt><trkpt lat="44.5755317" lon="9.4912233"><ele>1234.0</ele><time>2026-04-06T15:12:04.6Z</time></trkpt><trkpt lat="44.5754683" lon="9.4910167"><ele>1229.0</ele><time>2026-04-06T15:12:05.598Z</time></trkpt><trkpt lat="44.5754033" lon="9.4908133"><ele>1224.0</ele><time>2026-04-06T15:12:06.598Z</time></trkpt><trkpt lat="44.575335" lon="9.490625"><ele>1229.0</ele><time>2026-04-06T15:12:07.599Z</time></trkpt><trkpt lat="44.5752583" lon="9.4904517"><ele>1234.0</ele><time>2026-04-06T15:12:08.599Z</time></trkpt><trkpt lat="44.5751783" lon="9.4902917"><ele>1239.0</ele><time>2026-04-06T15:12:09.598Z</time></trkpt><trkpt lat="44.575095" lon="9.4901383"><ele>1244.0</ele><time>2026-04-06T15:12:10.597Z</time></trkpt><trkpt lat="44.5750217" lon="9.4899883"><ele>1244.0</ele><time>2026-04-06T15:12:11.599Z</time></trkpt><trkpt lat="44.5749633" lon="9.4898383"><ele>1244.0</ele><time>2026-04-06T15:12:12.598Z</time></trkpt><trkpt lat="44.57493" lon="9.4896767"><ele>1244.0</ele><time>2026-04-06T15:12:13.598Z</time></trkpt><trkpt lat="44.57493" lon="9.489505"><ele>1244.0</ele><time>2026-04-06T15:12:14.599Z</time></trkpt><trkpt lat="44.5749633" lon="9.4893267"><ele>1244.0</ele><time>2026-04-06T15:12:15.598Z</time></trkpt><trkpt lat="44.5750233" lon="9.4891483"><ele>1244.0</ele><time>2026-04-06T15:12:16.598Z</time></trkpt><trkpt lat="44.5751033" lon="9.4889667"><ele>1244.0</ele><time>2026-04-06T15:12:17.599Z</time></trkpt><trkpt lat="44.5751867" lon="9.488785"><ele>1244.0</ele><time>2026-04-06T15:12:18.599Z</time></trkpt><trkpt lat="44.5752717" lon="9.4886067"><ele>1234.0</ele><time>2026-04-06T15:12:19.599Z</time></trkpt><trkpt lat="44.57536" lon="9.488425"><ele>1224.0</ele><time>2026-04-06T15:12:20.599Z</time></trkpt><trkpt lat="44.5754467" lon="9.4882467"><ele>1214.0</ele><time>2026-04-06T15:12:21.599Z</time></trkpt><trkpt lat="44.5755283" lon="9.4880717"><ele>1215.25</ele><time>2026-04-06T15:12:22.599Z</time></trkpt><trkpt lat="44.5755833" lon="9.4878933"><ele>1216.5</ele><time>2026-04-06T15:12:23.599Z</time></trkpt><trkpt lat="44.5756" lon="9.48771"><ele>1217.75</ele><time>2026-04-06T15:12:24.599Z</time></trkpt><trkpt lat="44.5755783" lon="9.4875317"><ele>1219.0</ele><time>2026-04-06T15:12:25.598Z</time></trkpt><trkpt lat="44.57553" lon="9.4873667"><ele>1219.0</ele><time>2026-04-06T15:12:26.598Z</time></trkpt><trkpt lat="44.5754583" lon="9.487215"><ele>1219.0</ele><time>2026-04-06T15:12:27.598Z</time></trkpt><trkpt lat="44.57539" lon="9.48706"><ele>1219.0</ele><time>2026-04-06T15:12:28.597Z</time></trkpt><trkpt lat="44.57533" lon="9.4868833"><ele>1219.0</ele><time>2026-04-06T15:12:29.598Z</time></trkpt><trkpt lat="44.57528" lon="9.4866983"><ele>1222.5</ele><time>2026-04-06T15:12:30.6Z</time></trkpt><trkpt lat="44.57524" lon="9.4865067"><ele>1226.0</ele><time>2026-04-06T15:12:31.599Z</time></trkpt><trkpt lat="44.5752083" lon="9.48631"><ele>1229.5</ele><time>2026-04-06T15:12:32.6Z</time></trkpt><trkpt lat="44.5751783" lon="9.4861083"><ele>1233.0</ele><time>2026-04-06T15:12:33.599Z</time></trkpt><trkpt lat="44.5751517" lon="9.4859083"><ele>1233.0</ele><time>2026-04-06T15:12:34.599Z</time></trkpt><trkpt lat="44.5751217" lon="9.485715"><ele>1233.0</ele><time>2026-04-06T15:12:35.599Z</time></trkpt><trkpt lat="44.575095" lon="9.4855283"><ele>1233.0</ele><time>2026-04-06T15:12:36.598Z</time></trkpt><trkpt lat="44.5750783" lon="9.4853483"><ele>1233.0</ele><time>2026-04-06T15:12:37.599Z</time></trkpt><trkpt lat="44.575085" lon="9.485175"><ele>1230.75</ele><time>2026-04-06T15:12:38.601Z</time></trkpt><trkpt lat="44.5751267" lon="9.4850183"><ele>1228.5</ele><time>2026-04-06T15:12:39.599Z</time></trkpt><trkpt lat="44.575205" lon="9.4848783"><ele>1226.25</ele><time>2026-04-06T15:12:40.599Z</time></trkpt><trkpt lat="44.5753017" lon="9.484775"><ele>1224.0</ele><time>2026-04-06T15:12:41.599Z</time></trkpt><trkpt lat="44.5754083" lon="9.48471"><ele>1220.75</ele><time>2026-04-06T15:12:42.601Z</time></trkpt><trkpt lat="44.5755267" lon="9.4846933"><ele>1217.5</ele><time>2026-04-06T15:12:43.6Z</time></trkpt><trkpt lat="44.5756417" lon="9.4847217"><ele>1214.25</ele><time>2026-04-06T15:12:44.599Z</time></trkpt><trkpt lat="44.575765" lon="9.4847917"><ele>1211.0</ele><time>2026-04-06T15:12:45.599Z</time></trkpt><trkpt lat="44.575905" lon="9.4849067"><ele>1211.0</ele><time>2026-04-06T15:12:46.598Z</time></trkpt><trkpt lat="44.5760467" lon="9.48504"><ele>1211.0</ele><time>2026-04-06T15:12:47.598Z</time></trkpt><trkpt lat="44.576175" lon="9.4851483"><ele>1211.0</ele><time>2026-04-06T15:12:48.598Z</time></trkpt><trkpt lat="44.576295" lon="9.48524"><ele>1211.6</ele><time>2026-04-06T15:12:49.599Z</time></trkpt><trkpt lat="44.576405" lon="9.4853"><ele>1212.1999999999998</ele><time>2026-04-06T15:12:50.598Z</time></trkpt><trkpt lat="44.57651" lon="9.4853333"><ele>1212.8000000000002</ele><time>2026-04-06T15:12:51.598Z</time></trkpt><trkpt lat="44.576615" lon="9.485325"><ele>1213.4</ele><time>2026-04-06T15:12:52.599Z</time></trkpt><trkpt lat="44.5767133" lon="9.4852633"><ele>1214.0</ele><time>2026-04-06T15:12:53.599Z</time></trkpt><trkpt lat="44.576805" lon="9.4851733"><ele>1214.0</ele><time>2026-04-06T15:12:54.6Z</time></trkpt><trkpt lat="44.576895" lon="9.48508"><ele>1214.0</ele><time>2026-04-06T15:12:55.597Z</time></trkpt><trkpt lat="44.5770017" lon="9.4850033"><ele>1214.0</ele><time>2026-04-06T15:12:56.599Z</time></trkpt><trkpt lat="44.57712" lon="9.4849633"><ele>1214.0</ele><time>2026-04-06T15:12:57.598Z</time></trkpt><trkpt lat="44.5772467" lon="9.4849617"><ele>1210.75</ele><time>2026-04-06T15:12:58.597Z</time></trkpt><trkpt lat="44.5773783" lon="9.484975"><ele>1207.5</ele><time>2026-04-06T15:12:59.598Z</time></trkpt><trkpt lat="44.5775083" lon="9.4849933"><ele>1204.25</ele><time>2026-04-06T15:13:00.599Z</time></trkpt><trkpt lat="44.5776367" lon="9.4850117"><ele>1201.0</ele><time>2026-04-06T15:13:01.599Z</time></trkpt><trkpt lat="44.5777617" lon="9.485"><ele>1196.75</ele><time>2026-04-06T15:13:02.599Z</time></trkpt><trkpt lat="44.5778783" lon="9.484935"><ele>1192.5</ele><time>2026-04-06T15:13:03.598Z</time></trkpt><trkpt lat="44.578" lon="9.4848483"><ele>1188.25</ele><time>2026-04-06T15:13:04.599Z</time></trkpt><trkpt lat="44.57812" lon="9.4847567"><ele>1184.0</ele><time>2026-04-06T15:13:05.598Z</time></trkpt><trkpt lat="44.5782517" lon="9.4846967"><ele>1184.0</ele><time>2026-04-06T15:13:06.598Z</time></trkpt><trkpt lat="44.5783767" lon="9.4846567"><ele>1184.0</ele><time>2026-04-06T15:13:07.598Z</time></trkpt><trkpt lat="44.5784917" lon="9.4846133"><ele>1184.0</ele><time>2026-04-06T15:13:08.598Z</time></trkpt><trkpt lat="44.5785883" lon="9.4845333"><ele>1184.0</ele><time>2026-04-06T15:13:09.597Z</time></trkpt><trkpt lat="44.5786567" lon="9.4844217"><ele>1180.75</ele><time>2026-04-06T15:13:10.598Z</time></trkpt><trkpt lat="44.5787" lon="9.48428"><ele>1177.5</ele><time>2026-04-06T15:13:11.597Z</time></trkpt><trkpt lat="44.5787367" lon="9.4841283"><ele>1174.25</ele><time>2026-04-06T15:13:12.598Z</time></trkpt><trkpt lat="44.578755" lon="9.48396"><ele>1171.0</ele><time>2026-04-06T15:13:13.597Z</time></trkpt><trkpt lat="44.5787533" lon="9.4837817"><ele>1169.75</ele><time>2026-04-06T15:13:14.598Z</time></trkpt><trkpt lat="44.5787333" lon="9.4836033"><ele>1168.5</ele><time>2026-04-06T15:13:15.598Z</time></trkpt><trkpt lat="44.578685" lon="9.4834017"><ele>1167.25</ele><time>2026-04-06T15:13:16.599Z</time></trkpt><trkpt lat="44.5786267" lon="9.4831883"><ele>1166.0</ele><time>2026-04-06T15:13:17.599Z</time></trkpt><trkpt lat="44.578575" lon="9.4829817"><ele>1173.75</ele><time>2026-04-06T15:13:18.599Z</time></trkpt><trkpt lat="44.578535" lon="9.4827783"><ele>1181.5</ele><time>2026-04-06T15:13:19.598Z</time></trkpt><trkpt lat="44.5785117" lon="9.4825783"><ele>1189.25</ele><time>2026-04-06T15:13:20.599Z</time></trkpt><trkpt lat="44.5785133" lon="9.4823783"><ele>1197.0</ele><time>2026-04-06T15:13:21.599Z</time></trkpt><trkpt lat="44.5785383" lon="9.4821733"><ele>1197.0</ele><time>2026-04-06T15:13:22.599Z</time></trkpt><trkpt lat="44.57859" lon="9.4819683"><ele>1197.0</ele><time>2026-04-06T15:13:23.599Z</time></trkpt><trkpt lat="44.5786533" lon="9.4817733"><ele>1197.0</ele><time>2026-04-06T15:13:24.599Z</time></trkpt><trkpt lat="44.5787167" lon="9.48159"><ele>1195.25</ele><time>2026-04-06T15:13:25.597Z</time></trkpt><trkpt lat="44.57879" lon="9.481425"><ele>1193.5</ele><time>2026-04-06T15:13:26.598Z</time></trkpt><trkpt lat="44.5788967" lon="9.4813133"><ele>1191.75</ele><time>2026-04-06T15:13:27.599Z</time></trkpt><trkpt lat="44.57903" lon="9.4812467"><ele>1190.0</ele><time>2026-04-06T15:13:28.599Z</time></trkpt><trkpt lat="44.5791767" lon="9.4812367"><ele>1185.0</ele><time>2026-04-06T15:13:29.599Z</time></trkpt><trkpt lat="44.5793383" lon="9.48129"><ele>1180.0</ele><time>2026-04-06T15:13:30.598Z</time></trkpt><trkpt lat="44.5795017" lon="9.481375"><ele>1175.0</ele><time>2026-04-06T15:13:31.597Z</time></trkpt><trkpt lat="44.5796483" lon="9.4814383"><ele>1172.75</ele><time>2026-04-06T15:13:32.599Z</time></trkpt><trkpt lat="44.5797767" lon="9.4814733"><ele>1170.5</ele><time>2026-04-06T15:13:33.599Z</time></trkpt><trkpt lat="44.5799" lon="9.4814667"><ele>1168.25</ele><time>2026-04-06T15:13:34.599Z</time></trkpt><trkpt lat="44.5800067" lon="9.4813883"><ele>1166.0</ele><time>2026-04-06T15:13:35.598Z</time></trkpt><trkpt lat="44.5800983" lon="9.4812467"><ele>1167.5</ele><time>2026-04-06T15:13:36.598Z</time></trkpt><trkpt lat="44.58018" lon="9.4810783"><ele>1169.0</ele><time>2026-04-06T15:13:37.598Z</time></trkpt><trkpt lat="44.580265" lon="9.48093"><ele>1170.5</ele><time>2026-04-06T15:13:38.599Z</time></trkpt><trkpt lat="44.5803567" lon="9.4808117"><ele>1172.0</ele><time>2026-04-06T15:13:39.598Z</time></trkpt><trkpt lat="44.5804617" lon="9.48075"><ele>1172.0</ele><time>2026-04-06T15:13:40.598Z</time></trkpt><trkpt lat="44.5805727" lon="9.4807391"><ele>1172.0</ele><time>2026-04-06T15:13:41.599Z</time></trkpt><trkpt lat="44.5806785" lon="9.4807835"><ele>1172.0</ele><time>2026-04-06T15:13:42.597Z</time></trkpt><trkpt lat="44.5807701" lon="9.4808787"><ele>1172.0</ele><time>2026-04-06T15:13:43.602Z</time></trkpt><trkpt lat="44.5808445" lon="9.4810105"><ele>1172.0</ele><time>2026-04-06T15:13:44.599Z</time></trkpt><trkpt lat="44.5808995" lon="9.4811729"><ele>1172.0</ele><time>2026-04-06T15:13:45.599Z</time></trkpt><trkpt lat="44.5809404" lon="9.4813503"><ele>1172.0</ele><time>2026-04-06T15:13:46.599Z</time></trkpt><trkpt lat="44.5809759" lon="9.4815306"><ele>1172.0</ele><time>2026-04-06T15:13:47.598Z</time></trkpt><trkpt lat="44.5810095" lon="9.4817089"><ele>1169.75</ele><time>2026-04-06T15:13:48.599Z</time></trkpt><trkpt lat="44.581045" lon="9.4818813"><ele>1167.5</ele><time>2026-04-06T15:13:49.6Z</time></trkpt><trkpt lat="44.5810816" lon="9.4820509"><ele>1165.25</ele><time>2026-04-06T15:13:50.599Z</time></trkpt><trkpt lat="44.5811146" lon="9.4822168"><ele>1163.0</ele><time>2026-04-06T15:13:51.598Z</time></trkpt><trkpt lat="44.5811383" lon="9.4823828"><ele>1161.75</ele><time>2026-04-06T15:13:52.598Z</time></trkpt><trkpt lat="44.5811406" lon="9.4825573"><ele>1160.5</ele><time>2026-04-06T15:13:53.599Z</time></trkpt><trkpt lat="44.5811152" lon="9.4827353"><ele>1159.25</ele><time>2026-04-06T15:13:54.598Z</time></trkpt><trkpt lat="44.5810707" lon="9.4829109"><ele>1158.0</ele><time>2026-04-06T15:13:55.598Z</time></trkpt><trkpt lat="44.5810216" lon="9.4830803"><ele>1155.75</ele><time>2026-04-06T15:13:56.598Z</time></trkpt><trkpt lat="44.5809861" lon="9.4832467"><ele>1153.5</ele><time>2026-04-06T15:13:57.598Z</time></trkpt><trkpt lat="44.5809774" lon="9.4834225"><ele>1151.25</ele><time>2026-04-06T15:13:58.598Z</time></trkpt><trkpt lat="44.5809974" lon="9.4836037"><ele>1149.0</ele><time>2026-04-06T15:13:59.599Z</time></trkpt><trkpt lat="44.5810549" lon="9.483787"><ele>1150.0</ele><time>2026-04-06T15:14:00.598Z</time></trkpt><trkpt lat="44.5811463" lon="9.4839652"><ele>1151.0</ele><time>2026-04-06T15:14:01.598Z</time></trkpt><trkpt lat="44.5812531" lon="9.4841245"><ele>1152.0</ele><time>2026-04-06T15:14:02.599Z</time></trkpt><trkpt lat="44.5813678" lon="9.4842537"><ele>1152.0</ele><time>2026-04-06T15:14:03.599Z</time></trkpt><trkpt lat="44.5814983" lon="9.4843485"><ele>1152.0</ele><time>2026-04-06T15:14:04.599Z</time></trkpt><trkpt lat="44.5816445" lon="9.4844149"><ele>1152.0</ele><time>2026-04-06T15:14:05.599Z</time></trkpt><trkpt lat="44.5817955" lon="9.4844581"><ele>1152.0</ele><time>2026-04-06T15:14:06.598Z</time></trkpt><trkpt lat="44.5819439" lon="9.4844837"><ele>1152.0</ele><time>2026-04-06T15:14:07.598Z</time></trkpt><trkpt lat="44.5820841" lon="9.4844922"><ele>1152.0</ele><time>2026-04-06T15:14:08.599Z</time></trkpt><trkpt lat="44.5822111" lon="9.4844682"><ele>1152.0</ele><time>2026-04-06T15:14:09.598Z</time></trkpt><trkpt lat="44.5823273" lon="9.4843935"><ele>1150.0</ele><time>2026-04-06T15:14:10.599Z</time></trkpt><trkpt lat="44.5824269" lon="9.4842744"><ele>1148.0</ele><time>2026-04-06T15:14:11.599Z</time></trkpt><trkpt lat="44.5825037" lon="9.4841254"><ele>1146.0</ele><time>2026-04-06T15:14:12.599Z</time></trkpt><trkpt lat="44.5825659" lon="9.4839607"><ele>1144.0</ele><time>2026-04-06T15:14:13.598Z</time></trkpt><trkpt lat="44.5826312" lon="9.4837987"><ele>1142.0</ele><time>2026-04-06T15:14:14.598Z</time></trkpt><trkpt lat="44.5827177" lon="9.483659"><ele>1140.0</ele><time>2026-04-06T15:14:15.597Z</time></trkpt><trkpt lat="44.5828302" lon="9.4835436"><ele>1138.0</ele><time>2026-04-06T15:14:16.599Z</time></trkpt><trkpt lat="44.5829504" lon="9.4834419"><ele>1136.0</ele><time>2026-04-06T15:14:17.6Z</time></trkpt><trkpt lat="44.5830635" lon="9.483338"><ele>1136.0</ele><time>2026-04-06T15:14:18.598Z</time></trkpt><trkpt lat="44.5831645" lon="9.4832084"><ele>1136.0</ele><time>2026-04-06T15:14:19.598Z</time></trkpt><trkpt lat="44.5832538" lon="9.4830568"><ele>1136.0</ele><time>2026-04-06T15:14:20.598Z</time></trkpt><trkpt lat="44.5833307" lon="9.4828891"><ele>1136.0</ele><time>2026-04-06T15:14:21.599Z</time></trkpt><trkpt lat="44.5833952" lon="9.4827224"><ele>1139.5</ele><time>2026-04-06T15:14:22.599Z</time></trkpt><trkpt lat="44.5834435" lon="9.4825595"><ele>1143.0</ele><time>2026-04-06T15:14:23.599Z</time></trkpt><trkpt lat="44.5834739" lon="9.4823916"><ele>1146.5</ele><time>2026-04-06T15:14:24.598Z</time></trkpt><trkpt lat="44.5834917" lon="9.4822235"><ele>1150.0</ele><time>2026-04-06T15:14:25.598Z</time></trkpt><trkpt lat="44.5835083" lon="9.4820663"><ele>1151.2</ele><time>2026-04-06T15:14:26.598Z</time></trkpt><trkpt lat="44.5835448" lon="9.4819334"><ele>1152.4</ele><time>2026-04-06T15:14:27.597Z</time></trkpt><trkpt lat="44.5836085" lon="9.4818382"><ele>1153.6</ele><time>2026-04-06T15:14:28.6Z</time></trkpt><trkpt lat="44.5837017" lon="9.4817967"><ele>1154.8</ele><time>2026-04-06T15:14:29.598Z</time></trkpt><trkpt lat="44.5838017" lon="9.4817883"><ele>1156.0</ele><time>2026-04-06T15:14:30.599Z</time></trkpt><trkpt lat="44.5839217" lon="9.4818167"><ele>1151.25</ele><time>2026-04-06T15:14:31.598Z</time></trkpt><trkpt lat="44.5840417" lon="9.4818167"><ele>1146.5</ele><time>2026-04-06T15:14:32.599Z</time></trkpt><trkpt lat="44.5841617" lon="9.48178"><ele>1141.75</ele><time>2026-04-06T15:14:33.598Z</time></trkpt><trkpt lat="44.5842783" lon="9.4817283"><ele>1137.0</ele><time>2026-04-06T15:14:34.599Z</time></trkpt><trkpt lat="44.58439" lon="9.4816817"><ele>1137.0</ele><time>2026-04-06T15:14:35.599Z</time></trkpt><trkpt lat="44.5845017" lon="9.481655"><ele>1137.0</ele><time>2026-04-06T15:14:36.598Z</time></trkpt><trkpt lat="44.5846067" lon="9.481665"><ele>1137.0</ele><time>2026-04-06T15:14:37.598Z</time></trkpt><trkpt lat="44.5847133" lon="9.4817167"><ele>1137.0</ele><time>2026-04-06T15:14:38.599Z</time></trkpt><trkpt lat="44.5848217" lon="9.48179"><ele>1135.0</ele><time>2026-04-06T15:14:39.599Z</time></trkpt><trkpt lat="44.5849267" lon="9.4818683"><ele>1133.0</ele><time>2026-04-06T15:14:40.599Z</time></trkpt><trkpt lat="44.5850333" lon="9.4819367"><ele>1131.0</ele><time>2026-04-06T15:14:41.598Z</time></trkpt><trkpt lat="44.5851483" lon="9.4819783"><ele>1129.0</ele><time>2026-04-06T15:14:42.599Z</time></trkpt><trkpt lat="44.5852783" lon="9.48198"><ele>1128.0</ele><time>2026-04-06T15:14:43.598Z</time></trkpt><trkpt lat="44.5854167" lon="9.481955"><ele>1127.0</ele><time>2026-04-06T15:14:44.599Z</time></trkpt><trkpt lat="44.5855583" lon="9.4819183"><ele>1126.0</ele><time>2026-04-06T15:14:45.598Z</time></trkpt><trkpt lat="44.5856967" lon="9.481875"><ele>1125.0</ele><time>2026-04-06T15:14:46.598Z</time></trkpt><trkpt lat="44.58583" lon="9.4818367"><ele>1125.0</ele><time>2026-04-06T15:14:47.598Z</time></trkpt><trkpt lat="44.58596" lon="9.4818117"><ele>1125.0</ele><time>2026-04-06T15:14:48.598Z</time></trkpt><trkpt lat="44.5860867" lon="9.48182"><ele>1125.0</ele><time>2026-04-06T15:14:49.598Z</time></trkpt><trkpt lat="44.586205" lon="9.4818667"><ele>1125.0</ele><time>2026-04-06T15:14:50.599Z</time></trkpt><trkpt lat="44.5863117" lon="9.48195"><ele>1125.75</ele><time>2026-04-06T15:14:51.599Z</time></trkpt><trkpt lat="44.5863933" lon="9.4820683"><ele>1126.5</ele><time>2026-04-06T15:14:52.597Z</time></trkpt><trkpt lat="44.58645" lon="9.4822117"><ele>1127.25</ele><time>2026-04-06T15:14:53.598Z</time></trkpt><trkpt lat="44.5864817" lon="9.4823667"><ele>1128.0</ele><time>2026-04-06T15:14:54.598Z</time></trkpt><trkpt lat="44.5864917" lon="9.482525"><ele>1126.5</ele><time>2026-04-06T15:14:55.599Z</time></trkpt><trkpt lat="44.5864683" lon="9.48268"><ele>1125.0</ele><time>2026-04-06T15:14:56.598Z</time></trkpt><trkpt lat="44.58641" lon="9.48282"><ele>1123.5</ele><time>2026-04-06T15:14:57.599Z</time></trkpt><trkpt lat="44.58633" lon="9.48294"><ele>1122.0</ele><time>2026-04-06T15:14:58.599Z</time></trkpt><trkpt lat="44.5862317" lon="9.4830333"><ele>1119.5</ele><time>2026-04-06T15:14:59.599Z</time></trkpt><trkpt lat="44.5861133" lon="9.4831"><ele>1117.0</ele><time>2026-04-06T15:15:00.599Z</time></trkpt><trkpt lat="44.5859817" lon="9.4831433"><ele>1114.5</ele><time>2026-04-06T15:15:01.599Z</time></trkpt><trkpt lat="44.58585" lon="9.48318"><ele>1112.0</ele><time>2026-04-06T15:15:02.6Z</time></trkpt><trkpt lat="44.5857217" lon="9.4832233"><ele>1112.0</ele><time>2026-04-06T15:15:03.6Z</time></trkpt><trkpt lat="44.5856017" lon="9.48328"><ele>1112.0</ele><time>2026-04-06T15:15:04.599Z</time></trkpt><trkpt lat="44.5854967" lon="9.48336"><ele>1112.0</ele><time>2026-04-06T15:15:05.598Z</time></trkpt><trkpt lat="44.58541" lon="9.4834683"><ele>1112.0</ele><time>2026-04-06T15:15:06.599Z</time></trkpt><trkpt lat="44.5853417" lon="9.4836067"><ele>1112.75</ele><time>2026-04-06T15:15:07.599Z</time></trkpt><trkpt lat="44.5852883" lon="9.4837633"><ele>1113.5</ele><time>2026-04-06T15:15:08.599Z</time></trkpt><trkpt lat="44.5852367" lon="9.4839183"><ele>1114.25</ele><time>2026-04-06T15:15:09.599Z</time></trkpt><trkpt lat="44.5851883" lon="9.4840717"><ele>1115.0</ele><time>2026-04-06T15:15:10.598Z</time></trkpt><trkpt lat="44.5851417" lon="9.4842217"><ele>1113.6</ele><time>2026-04-06T15:15:11.599Z</time></trkpt><trkpt lat="44.5850967" lon="9.4843667"><ele>1112.2</ele><time>2026-04-06T15:15:12.598Z</time></trkpt><trkpt lat="44.5850533" lon="9.4845083"><ele>1110.8</ele><time>2026-04-06T15:15:13.599Z</time></trkpt><trkpt lat="44.5850117" lon="9.4846417"><ele>1109.4</ele><time>2026-04-06T15:15:14.599Z</time></trkpt><trkpt lat="44.5849767" lon="9.4847717"><ele>1108.0</ele><time>2026-04-06T15:15:15.598Z</time></trkpt><trkpt lat="44.584955" lon="9.4849033"><ele>1106.4</ele><time>2026-04-06T15:15:16.598Z</time></trkpt><trkpt lat="44.584955" lon="9.4850317"><ele>1104.8</ele><time>2026-04-06T15:15:17.598Z</time></trkpt><trkpt lat="44.584975" lon="9.485155"><ele>1103.2</ele><time>2026-04-06T15:15:18.599Z</time></trkpt><trkpt lat="44.5850161" lon="9.4852674"><ele>1101.6</ele><time>2026-04-06T15:15:19.599Z</time></trkpt><trkpt lat="44.5850796" lon="9.4853613"><ele>1100.0</ele><time>2026-04-06T15:15:20.599Z</time></trkpt><trkpt lat="44.5851726" lon="9.4854115"><ele>1100.0</ele><time>2026-04-06T15:15:21.598Z</time></trkpt><trkpt lat="44.5852842" lon="9.4854113"><ele>1100.0</ele><time>2026-04-06T15:15:22.599Z</time></trkpt><trkpt lat="44.5854014" lon="9.4853595"><ele>1100.0</ele><time>2026-04-06T15:15:23.599Z</time></trkpt><trkpt lat="44.5855149" lon="9.4852576"><ele>1100.0</ele><time>2026-04-06T15:15:24.599Z</time></trkpt><trkpt lat="44.585623" lon="9.4851184"><ele>1097.5</ele><time>2026-04-06T15:15:25.598Z</time></trkpt><trkpt lat="44.5857258" lon="9.4849704"><ele>1095.0</ele><time>2026-04-06T15:15:26.598Z</time></trkpt><trkpt lat="44.5858285" lon="9.4848333"><ele>1092.5</ele><time>2026-04-06T15:15:27.599Z</time></trkpt><trkpt lat="44.5859347" lon="9.4847137"><ele>1090.0</ele><time>2026-04-06T15:15:28.599Z</time></trkpt><trkpt lat="44.5860494" lon="9.4846219"><ele>1091.75</ele><time>2026-04-06T15:15:29.598Z</time></trkpt><trkpt lat="44.5861758" lon="9.4845552"><ele>1093.5</ele><time>2026-04-06T15:15:30.598Z</time></trkpt><trkpt lat="44.5863045" lon="9.4845039"><ele>1095.25</ele><time>2026-04-06T15:15:31.599Z</time></trkpt><trkpt lat="44.586433" lon="9.4844605"><ele>1097.0</ele><time>2026-04-06T15:15:32.599Z</time></trkpt><trkpt lat="44.5865613" lon="9.484421"><ele>1097.0</ele><time>2026-04-06T15:15:33.598Z</time></trkpt><trkpt lat="44.5866914" lon="9.4843926"><ele>1097.0</ele><time>2026-04-06T15:15:34.597Z</time></trkpt><trkpt lat="44.5868246" lon="9.4843802"><ele>1097.0</ele><time>2026-04-06T15:15:35.599Z</time></trkpt><trkpt lat="44.5869597" lon="9.4843809"><ele>1097.0</ele><time>2026-04-06T15:15:36.599Z</time></trkpt><trkpt lat="44.587093" lon="9.4843856"><ele>1094.5</ele><time>2026-04-06T15:15:37.599Z</time></trkpt><trkpt lat="44.5872219" lon="9.4843865"><ele>1092.0</ele><time>2026-04-06T15:15:38.598Z</time></trkpt><trkpt lat="44.5873496" lon="9.4843844"><ele>1089.5</ele><time>2026-04-06T15:15:39.599Z</time></trkpt><trkpt lat="44.5874723" lon="9.48437"><ele>1087.0</ele><time>2026-04-06T15:15:40.598Z</time></trkpt><trkpt lat="44.5875893" lon="9.4843264"><ele>1087.0</ele><time>2026-04-06T15:15:41.599Z</time></trkpt><trkpt lat="44.5876912" lon="9.4842455"><ele>1087.0</ele><time>2026-04-06T15:15:42.599Z</time></trkpt><trkpt lat="44.5877728" lon="9.4841216"><ele>1087.0</ele><time>2026-04-06T15:15:43.599Z</time></trkpt><trkpt lat="44.5878321" lon="9.4839674"><ele>1087.0</ele><time>2026-04-06T15:15:44.598Z</time></trkpt><trkpt lat="44.587879" lon="9.4838049"><ele>1085.75</ele><time>2026-04-06T15:15:45.597Z</time></trkpt><trkpt lat="44.5879284" lon="9.4836438"><ele>1084.5</ele><time>2026-04-06T15:15:46.598Z</time></trkpt><trkpt lat="44.587984" lon="9.4834948"><ele>1083.25</ele><time>2026-04-06T15:15:47.598Z</time></trkpt><trkpt lat="44.5880471" lon="9.4833566"><ele>1082.0</ele><time>2026-04-06T15:15:48.598Z</time></trkpt><trkpt lat="44.5881244" lon="9.4832401"><ele>1082.0</ele><time>2026-04-06T15:15:49.598Z</time></trkpt><trkpt lat="44.5882185" lon="9.4831588"><ele>1082.0</ele><time>2026-04-06T15:15:50.599Z</time></trkpt><trkpt lat="44.5883284" lon="9.483124"><ele>1082.0</ele><time>2026-04-06T15:15:51.598Z</time></trkpt><trkpt lat="44.5884494" lon="9.4831281"><ele>1082.0</ele><time>2026-04-06T15:15:52.599Z</time></trkpt><trkpt lat="44.5885779" lon="9.4831472"><ele>1078.6666666666667</ele><time>2026-04-06T15:15:53.598Z</time></trkpt><trkpt lat="44.588716" lon="9.4831641"><ele>1075.3333333333333</ele><time>2026-04-06T15:15:54.598Z</time></trkpt><trkpt lat="44.5888663" lon="9.4831684"><ele>1072.0</ele><time>2026-04-06T15:15:55.599Z</time></trkpt><trkpt lat="44.5890271" lon="9.4831815"><ele>1072.0</ele><time>2026-04-06T15:15:56.599Z</time></trkpt><trkpt lat="44.5891869" lon="9.4832072"><ele>1072.0</ele><time>2026-04-06T15:15:57.598Z</time></trkpt><trkpt lat="44.5893397" lon="9.4832408"><ele>1072.0</ele><time>2026-04-06T15:15:58.597Z</time></trkpt><trkpt lat="44.5894843" lon="9.4832723"><ele>1070.0</ele><time>2026-04-06T15:15:59.598Z</time></trkpt><trkpt lat="44.5896229" lon="9.483294"><ele>1068.0</ele><time>2026-04-06T15:16:00.598Z</time></trkpt><trkpt lat="44.5897606" lon="9.4832963"><ele>1066.0</ele><time>2026-04-06T15:16:01.598Z</time></trkpt><trkpt lat="44.589894" lon="9.4832592"><ele>1064.0</ele><time>2026-04-06T15:16:02.599Z</time></trkpt><trkpt lat="44.59002" lon="9.4831736"><ele>1064.0</ele><time>2026-04-06T15:16:03.598Z</time></trkpt><trkpt lat="44.5901466" lon="9.4830508"><ele>1064.0</ele><time>2026-04-06T15:16:04.599Z</time></trkpt><trkpt lat="44.590277" lon="9.4829271"><ele>1064.0</ele><time>2026-04-06T15:16:05.599Z</time></trkpt><trkpt lat="44.5904145" lon="9.4828197"><ele>1065.6666666666667</ele><time>2026-04-06T15:16:06.598Z</time></trkpt><trkpt lat="44.5905667" lon="9.4827467"><ele>1067.3333333333333</ele><time>2026-04-06T15:16:07.598Z</time></trkpt><trkpt lat="44.5907267" lon="9.4827033"><ele>1069.0</ele><time>2026-04-06T15:16:08.6Z</time></trkpt><trkpt lat="44.5908933" lon="9.4826767"><ele>1069.0</ele><time>2026-04-06T15:16:09.599Z</time></trkpt><trkpt lat="44.5910517" lon="9.4826583"><ele>1069.0</ele><time>2026-04-06T15:16:10.597Z</time></trkpt><trkpt lat="44.5912" lon="9.48264"><ele>1069.0</ele><time>2026-04-06T15:16:11.597Z</time></trkpt><trkpt lat="44.591335" lon="9.4826283"><ele>1069.0</ele><time>2026-04-06T15:16:12.598Z</time></trkpt><trkpt lat="44.5914583" lon="9.4826433"><ele>1066.8333333333333</ele><time>2026-04-06T15:16:13.599Z</time></trkpt><trkpt lat="44.5915567" lon="9.482685"><ele>1064.6666666666665</ele><time>2026-04-06T15:16:14.599Z</time></trkpt><trkpt lat="44.5916183" lon="9.482775"><ele>1062.5</ele><time>2026-04-06T15:16:15.598Z</time></trkpt><trkpt lat="44.59164" lon="9.48289"><ele>1060.3333333333333</ele><time>2026-04-06T15:16:16.598Z</time></trkpt><trkpt lat="44.591635" lon="9.4830117"><ele>1058.1666666666667</ele><time>2026-04-06T15:16:17.598Z</time></trkpt><trkpt lat="44.5915933" lon="9.48311"><ele>1056.0</ele><time>2026-04-06T15:16:18.598Z</time></trkpt><trkpt lat="44.5915417" lon="9.48318"><ele>1054.0</ele><time>2026-04-06T15:16:19.598Z</time></trkpt><trkpt lat="44.59139" lon="9.4831667"><ele>1052.0</ele><time>2026-04-06T15:16:20.599Z</time></trkpt><trkpt lat="44.5912517" lon="9.483175"><ele>1050.0</ele><time>2026-04-06T15:16:21.598Z</time></trkpt><trkpt lat="44.59111" lon="9.48318"><ele>1048.0</ele><time>2026-04-06T15:16:22.597Z</time></trkpt><trkpt lat="44.5909683" lon="9.4831733"><ele>1048.0</ele><time>2026-04-06T15:16:23.599Z</time></trkpt><trkpt lat="44.5908317" lon="9.4831667"><ele>1048.0</ele><time>2026-04-06T15:16:24.6Z</time></trkpt><trkpt lat="44.59071" lon="9.4831767"><ele>1048.0</ele><time>2026-04-06T15:16:25.599Z</time></trkpt><trkpt lat="44.5905967" lon="9.4832067"><ele>1048.0</ele><time>2026-04-06T15:16:26.598Z</time></trkpt><trkpt lat="44.5904833" lon="9.4832517"><ele>1048.0</ele><time>2026-04-06T15:16:27.597Z</time></trkpt><trkpt lat="44.590375" lon="9.483315"><ele>1048.0</ele><time>2026-04-06T15:16:28.602Z</time></trkpt><trkpt lat="44.5902783" lon="9.48341"><ele>1048.0</ele><time>2026-04-06T15:16:29.598Z</time></trkpt><trkpt lat="44.5902067" lon="9.4835417"><ele>1048.0</ele><time>2026-04-06T15:16:30.599Z</time></trkpt><trkpt lat="44.5901617" lon="9.4837133"><ele>1048.5</ele><time>2026-04-06T15:16:31.597Z</time></trkpt><trkpt lat="44.5901433" lon="9.4839"><ele>1049.0</ele><time>2026-04-06T15:16:32.599Z</time></trkpt><trkpt lat="44.5901383" lon="9.48408"><ele>1049.5</ele><time>2026-04-06T15:16:33.6Z</time></trkpt><trkpt lat="44.5901333" lon="9.4842583"><ele>1050.0</ele><time>2026-04-06T15:16:34.599Z</time></trkpt><trkpt lat="44.59012" lon="9.4844333"><ele>1050.0</ele><time>2026-04-06T15:16:35.601Z</time></trkpt><trkpt lat="44.5900883" lon="9.484595"><ele>1050.0</ele><time>2026-04-06T15:16:36.599Z</time></trkpt><trkpt lat="44.5900333" lon="9.4847383"><ele>1050.0</ele><time>2026-04-06T15:16:37.599Z</time></trkpt><trkpt lat="44.5899533" lon="9.484855"><ele>1050.0</ele><time>2026-04-06T15:16:38.599Z</time></trkpt><trkpt lat="44.5898517" lon="9.484955"><ele>1048.0</ele><time>2026-04-06T15:16:39.599Z</time></trkpt><trkpt lat="44.589725" lon="9.4850533"><ele>1046.0</ele><time>2026-04-06T15:16:40.599Z</time></trkpt><trkpt lat="44.5895933" lon="9.485155"><ele>1044.0</ele><time>2026-04-06T15:16:41.599Z</time></trkpt><trkpt lat="44.5894667" lon="9.48525"><ele>1042.0</ele><time>2026-04-06T15:16:42.598Z</time></trkpt><trkpt lat="44.5893583" lon="9.485345"><ele>1039.6666666666665</ele><time>2026-04-06T15:16:43.598Z</time></trkpt><trkpt lat="44.589275" lon="9.4854467"><ele>1037.3333333333333</ele><time>2026-04-06T15:16:44.597Z</time></trkpt><trkpt lat="44.5892267" lon="9.4855533"><ele>1035.0</ele><time>2026-04-06T15:16:45.597Z</time></trkpt><trkpt lat="44.589195" lon="9.4856617"><ele>1032.6666666666667</ele><time>2026-04-06T15:16:46.597Z</time></trkpt><trkpt lat="44.5891933" lon="9.4857667"><ele>1030.3333333333335</ele><time>2026-04-06T15:16:47.599Z</time></trkpt><trkpt lat="44.589255" lon="9.4858467"><ele>1028.0</ele><time>2026-04-06T15:16:48.598Z</time></trkpt><trkpt lat="44.5893233" lon="9.4858983"><ele>1028.0</ele><time>2026-04-06T15:16:49.599Z</time></trkpt><trkpt lat="44.589425" lon="9.4858667"><ele>1028.0</ele><time>2026-04-06T15:16:50.599Z</time></trkpt><trkpt lat="44.5895217" lon="9.485825"><ele>1028.0</ele><time>2026-04-06T15:16:51.598Z</time></trkpt><trkpt lat="44.5896267" lon="9.4856867"><ele>1028.0</ele><time>2026-04-06T15:16:52.598Z</time></trkpt><trkpt lat="44.58973" lon="9.4855633"><ele>1029.5</ele><time>2026-04-06T15:16:53.598Z</time></trkpt><trkpt lat="44.5898367" lon="9.4854317"><ele>1031.0</ele><time>2026-04-06T15:16:54.599Z</time></trkpt><trkpt lat="44.5899483" lon="9.4853017"><ele>1032.5</ele><time>2026-04-06T15:16:55.6Z</time></trkpt><trkpt lat="44.5900567" lon="9.48518"><ele>1034.0</ele><time>2026-04-06T15:16:56.599Z</time></trkpt><trkpt lat="44.5901633" lon="9.48507"><ele>1034.0</ele><time>2026-04-06T15:16:57.598Z</time></trkpt><trkpt lat="44.5902767" lon="9.4849667"><ele>1034.0</ele><time>2026-04-06T15:16:58.599Z</time></trkpt><trkpt lat="44.5903833" lon="9.484855"><ele>1034.0</ele><time>2026-04-06T15:16:59.598Z</time></trkpt><trkpt lat="44.590475" lon="9.4847233"><ele>1034.0</ele><time>2026-04-06T15:17:00.599Z</time></trkpt><trkpt lat="44.5905517" lon="9.4845733"><ele>1031.0</ele><time>2026-04-06T15:17:01.599Z</time></trkpt><trkpt lat="44.59062" lon="9.4844167"><ele>1028.0</ele><time>2026-04-06T15:17:02.599Z</time></trkpt><trkpt lat="44.5906883" lon="9.4842667"><ele>1025.0</ele><time>2026-04-06T15:17:03.598Z</time></trkpt><trkpt lat="44.59077" lon="9.48414"><ele>1022.0</ele><time>2026-04-06T15:17:04.599Z</time></trkpt><trkpt lat="44.5908717" lon="9.484055"><ele>1022.0</ele><time>2026-04-06T15:17:05.599Z</time></trkpt><trkpt lat="44.5909967" lon="9.4840133"><ele>1022.0</ele><time>2026-04-06T15:17:06.598Z</time></trkpt><trkpt lat="44.59115" lon="9.484005"><ele>1022.0</ele><time>2026-04-06T15:17:07.599Z</time></trkpt><trkpt lat="44.59133" lon="9.48401"><ele>1019.0</ele><time>2026-04-06T15:17:08.599Z</time></trkpt><trkpt lat="44.5915217" lon="9.4840233"><ele>1016.0</ele><time>2026-04-06T15:17:09.597Z</time></trkpt><trkpt lat="44.5917067" lon="9.4840383"><ele>1013.0</ele><time>2026-04-06T15:17:10.599Z</time></trkpt><trkpt lat="44.591885" lon="9.48405"><ele>1010.6666666666667</ele><time>2026-04-06T15:17:11.599Z</time></trkpt><trkpt lat="44.5920567" lon="9.4840567"><ele>1008.3333333333333</ele><time>2026-04-06T15:17:12.597Z</time></trkpt><trkpt lat="44.5922233" lon="9.4840633"><ele>1006.0</ele><time>2026-04-06T15:17:13.6Z</time></trkpt><trkpt lat="44.5923883" lon="9.4840733"><ele>1006.0</ele><time>2026-04-06T15:17:14.599Z</time></trkpt><trkpt lat="44.5925467" lon="9.4840833"><ele>1006.0</ele><time>2026-04-06T15:17:15.6Z</time></trkpt><trkpt lat="44.5927033" lon="9.4840933"><ele>1006.0</ele><time>2026-04-06T15:17:16.598Z</time></trkpt><trkpt lat="44.592855" lon="9.4841083"><ele>1006.75</ele><time>2026-04-06T15:17:17.601Z</time></trkpt><trkpt lat="44.5929917" lon="9.4841367"><ele>1007.5</ele><time>2026-04-06T15:17:18.598Z</time></trkpt><trkpt lat="44.5931167" lon="9.484195"><ele>1008.25</ele><time>2026-04-06T15:17:19.6Z</time></trkpt><trkpt lat="44.5932217" lon="9.4842983"><ele>1009.0</ele><time>2026-04-06T15:17:20.598Z</time></trkpt><trkpt lat="44.5932967" lon="9.48444"><ele>1004.25</ele><time>2026-04-06T15:17:21.598Z</time></trkpt><trkpt lat="44.5933417" lon="9.4846033"><ele>999.5</ele><time>2026-04-06T15:17:22.597Z</time></trkpt><trkpt lat="44.5933833" lon="9.484765"><ele>994.75</ele><time>2026-04-06T15:17:23.599Z</time></trkpt><trkpt lat="44.5934467" lon="9.484915"><ele>990.0</ele><time>2026-04-06T15:17:24.598Z</time></trkpt><trkpt lat="44.5935417" lon="9.4850433"><ele>990.0</ele><time>2026-04-06T15:17:25.599Z</time></trkpt><trkpt lat="44.5936467" lon="9.48514"><ele>990.0</ele><time>2026-04-06T15:17:26.598Z</time></trkpt><trkpt lat="44.5937517" lon="9.4852033"><ele>990.0</ele><time>2026-04-06T15:17:27.598Z</time></trkpt><trkpt lat="44.5938483" lon="9.48522"><ele>990.0</ele><time>2026-04-06T15:17:28.599Z</time></trkpt><trkpt lat="44.5939433" lon="9.485185"><ele>990.0</ele><time>2026-04-06T15:17:29.599Z</time></trkpt><trkpt lat="44.5940283" lon="9.4850933"><ele>991.25</ele><time>2026-04-06T15:17:30.599Z</time></trkpt><trkpt lat="44.5940983" lon="9.4849683"><ele>992.5</ele><time>2026-04-06T15:17:31.598Z</time></trkpt><trkpt lat="44.5941583" lon="9.4848283"><ele>993.75</ele><time>2026-04-06T15:17:32.6Z</time></trkpt><trkpt lat="44.5942167" lon="9.48469"><ele>995.0</ele><time>2026-04-06T15:17:33.599Z</time></trkpt><trkpt lat="44.5942767" lon="9.48456"><ele>994.0</ele><time>2026-04-06T15:17:34.597Z</time></trkpt><trkpt lat="44.5943433" lon="9.4844417"><ele>993.0</ele><time>2026-04-06T15:17:35.598Z</time></trkpt><trkpt lat="44.594425" lon="9.4843467"><ele>992.0</ele><time>2026-04-06T15:17:36.598Z</time></trkpt><trkpt lat="44.59452" lon="9.4842883"><ele>991.0</ele><time>2026-04-06T15:17:37.598Z</time></trkpt><trkpt lat="44.5946233" lon="9.484255"><ele>990.0</ele><time>2026-04-06T15:17:38.598Z</time></trkpt><trkpt lat="44.594735" lon="9.4842233"><ele>990.0</ele><time>2026-04-06T15:17:39.597Z</time></trkpt><trkpt lat="44.5948533" lon="9.4841883"><ele>990.0</ele><time>2026-04-06T15:17:40.599Z</time></trkpt><trkpt lat="44.594975" lon="9.484155"><ele>990.0</ele><time>2026-04-06T15:17:41.597Z</time></trkpt><trkpt lat="44.5950917" lon="9.4841217"><ele>990.0</ele><time>2026-04-06T15:17:42.598Z</time></trkpt><trkpt lat="44.5952067" lon="9.4841033"><ele>990.0</ele><time>2026-04-06T15:17:43.599Z</time></trkpt><trkpt lat="44.59532" lon="9.4841133"><ele>990.0</ele><time>2026-04-06T15:17:44.598Z</time></trkpt><trkpt lat="44.595435" lon="9.4841583"><ele>990.0</ele><time>2026-04-06T15:17:45.599Z</time></trkpt><trkpt lat="44.5955567" lon="9.4842433"><ele>990.0</ele><time>2026-04-06T15:17:46.598Z</time></trkpt><trkpt lat="44.595675" lon="9.4843583"><ele>991.0</ele><time>2026-04-06T15:17:47.599Z</time></trkpt><trkpt lat="44.5957917" lon="9.484475"><ele>992.0</ele><time>2026-04-06T15:17:48.598Z</time></trkpt><trkpt lat="44.5959067" lon="9.484585"><ele>993.0</ele><time>2026-04-06T15:17:49.599Z</time></trkpt><trkpt lat="44.5960217" lon="9.484685"><ele>994.0</ele><time>2026-04-06T15:17:50.6Z</time></trkpt><trkpt lat="44.59614" lon="9.484755"><ele>989.0</ele><time>2026-04-06T15:17:51.597Z</time></trkpt><trkpt lat="44.5962667" lon="9.4847817"><ele>984.0</ele><time>2026-04-06T15:17:52.598Z</time></trkpt><trkpt lat="44.5964017" lon="9.484755"><ele>979.0</ele><time>2026-04-06T15:17:53.598Z</time></trkpt><trkpt lat="44.5965433" lon="9.4846917"><ele>974.0</ele><time>2026-04-06T15:17:54.599Z</time></trkpt><trkpt lat="44.59668" lon="9.4846217"><ele>973.0</ele><time>2026-04-06T15:17:55.599Z</time></trkpt><trkpt lat="44.5968133" lon="9.484555"><ele>972.0</ele><time>2026-04-06T15:17:56.6Z</time></trkpt><trkpt lat="44.59694" lon="9.4844817"><ele>971.0</ele><time>2026-04-06T15:17:57.597Z</time></trkpt><trkpt lat="44.5970567" lon="9.4843767"><ele>970.0</ele><time>2026-04-06T15:17:58.597Z</time></trkpt><trkpt lat="44.5971567" lon="9.4842317"><ele>970.0</ele><time>2026-04-06T15:17:59.599Z</time></trkpt><trkpt lat="44.5972433" lon="9.4840667"><ele>970.0</ele><time>2026-04-06T15:18:00.599Z</time></trkpt><trkpt lat="44.597325" lon="9.4839083"><ele>970.0</ele><time>2026-04-06T15:18:01.6Z</time></trkpt><trkpt lat="44.5974083" lon="9.4837567"><ele>970.0</ele><time>2026-04-06T15:18:02.598Z</time></trkpt><trkpt lat="44.5975017" lon="9.4836267"><ele>972.2</ele><time>2026-04-06T15:18:03.599Z</time></trkpt><trkpt lat="44.5976" lon="9.4835217"><ele>974.4</ele><time>2026-04-06T15:18:04.598Z</time></trkpt><trkpt lat="44.5977017" lon="9.4834433"><ele>976.5999999999999</ele><time>2026-04-06T15:18:05.599Z</time></trkpt><trkpt lat="44.5978017" lon="9.4833983"><ele>978.8</ele><time>2026-04-06T15:18:06.599Z</time></trkpt><trkpt lat="44.5979017" lon="9.48339"><ele>981.0</ele><time>2026-04-06T15:18:07.599Z</time></trkpt><trkpt lat="44.5979983" lon="9.48343"><ele>982.25</ele><time>2026-04-06T15:18:08.599Z</time></trkpt><trkpt lat="44.5980817" lon="9.48352"><ele>983.5</ele><time>2026-04-06T15:18:09.601Z</time></trkpt><trkpt lat="44.5981483" lon="9.4836533"><ele>984.75</ele><time>2026-04-06T15:18:10.598Z</time></trkpt><trkpt lat="44.5982117" lon="9.4837933"><ele>986.0</ele><time>2026-04-06T15:18:11.598Z</time></trkpt><trkpt lat="44.59829" lon="9.4839183"><ele>982.5</ele><time>2026-04-06T15:18:12.598Z</time></trkpt><trkpt lat="44.5983933" lon="9.484025"><ele>979.0</ele><time>2026-04-06T15:18:13.598Z</time></trkpt><trkpt lat="44.5985133" lon="9.4841"><ele>975.5</ele><time>2026-04-06T15:18:14.599Z</time></trkpt><trkpt lat="44.5986417" lon="9.4841517"><ele>972.0</ele><time>2026-04-06T15:18:15.599Z</time></trkpt><trkpt lat="44.5987767" lon="9.4841933"><ele>972.0</ele><time>2026-04-06T15:18:16.599Z</time></trkpt><trkpt lat="44.5989183" lon="9.4842333"><ele>972.0</ele><time>2026-04-06T15:18:17.598Z</time></trkpt><trkpt lat="44.59906" lon="9.4842717"><ele>972.0</ele><time>2026-04-06T15:18:18.598Z</time></trkpt><trkpt lat="44.5992033" lon="9.484305"><ele>972.0</ele><time>2026-04-06T15:18:19.598Z</time></trkpt><trkpt lat="44.5993417" lon="9.484335"><ele>972.0</ele><time>2026-04-06T15:18:20.598Z</time></trkpt><trkpt lat="44.5994683" lon="9.4843733"><ele>972.0</ele><time>2026-04-06T15:18:21.599Z</time></trkpt><trkpt lat="44.5995867" lon="9.4844317"><ele>972.0</ele><time>2026-04-06T15:18:22.598Z</time></trkpt><trkpt lat="44.59969" lon="9.48453"><ele>972.0</ele><time>2026-04-06T15:18:23.599Z</time></trkpt><trkpt lat="44.59977" lon="9.484665"><ele>968.5</ele><time>2026-04-06T15:18:24.601Z</time></trkpt><trkpt lat="44.5998333" lon="9.4848217"><ele>965.0</ele><time>2026-04-06T15:18:25.599Z</time></trkpt><trkpt lat="44.59989" lon="9.4849767"><ele>961.5</ele><time>2026-04-06T15:18:26.598Z</time></trkpt><trkpt lat="44.5999517" lon="9.48512"><ele>958.0</ele><time>2026-04-06T15:18:27.598Z</time></trkpt><trkpt lat="44.60003" lon="9.4852333"><ele>958.0</ele><time>2026-04-06T15:18:28.598Z</time></trkpt><trkpt lat="44.60013" lon="9.4852983"><ele>958.0</ele><time>2026-04-06T15:18:29.598Z</time></trkpt><trkpt lat="44.6002317" lon="9.4853067"><ele>958.0</ele><time>2026-04-06T15:18:30.598Z</time></trkpt><trkpt lat="44.6003367" lon="9.4852483"><ele>958.0</ele><time>2026-04-06T15:18:31.598Z</time></trkpt><trkpt lat="44.600435" lon="9.4851433"><ele>958.0</ele><time>2026-04-06T15:18:32.598Z</time></trkpt><trkpt lat="44.6005217" lon="9.4850067"><ele>959.25</ele><time>2026-04-06T15:18:33.599Z</time></trkpt><trkpt lat="44.6006067" lon="9.4848633"><ele>960.5</ele><time>2026-04-06T15:18:34.598Z</time></trkpt><trkpt lat="44.6007" lon="9.4847233"><ele>961.75</ele><time>2026-04-06T15:18:35.598Z</time></trkpt><trkpt lat="44.6008133" lon="9.4845967"><ele>963.0</ele><time>2026-04-06T15:18:36.598Z</time></trkpt><trkpt lat="44.600945" lon="9.4844883"><ele>963.0</ele><time>2026-04-06T15:18:37.598Z</time></trkpt><trkpt lat="44.6010867" lon="9.4843933"><ele>963.0</ele><time>2026-04-06T15:18:38.599Z</time></trkpt><trkpt lat="44.6012333" lon="9.4843083"><ele>963.0</ele><time>2026-04-06T15:18:39.598Z</time></trkpt><trkpt lat="44.6013833" lon="9.4842283"><ele>960.0</ele><time>2026-04-06T15:18:40.599Z</time></trkpt><trkpt lat="44.6015267" lon="9.4841483"><ele>957.0</ele><time>2026-04-06T15:18:41.599Z</time></trkpt><trkpt lat="44.6016667" lon="9.4840767"><ele>954.0</ele><time>2026-04-06T15:18:42.598Z</time></trkpt><trkpt lat="44.6018" lon="9.4840083"><ele>951.0</ele><time>2026-04-06T15:18:43.597Z</time></trkpt><trkpt lat="44.601925" lon="9.4839383"><ele>951.25</ele><time>2026-04-06T15:18:44.598Z</time></trkpt><trkpt lat="44.6020483" lon="9.4838667"><ele>951.5</ele><time>2026-04-06T15:18:45.597Z</time></trkpt><trkpt lat="44.602165" lon="9.4837983"><ele>951.75</ele><time>2026-04-06T15:18:46.599Z</time></trkpt><trkpt lat="44.6022683" lon="9.4837167"><ele>952.0</ele><time>2026-04-06T15:18:47.598Z</time></trkpt><trkpt lat="44.602345" lon="9.4836083"><ele>952.0</ele><time>2026-04-06T15:18:48.597Z</time></trkpt><trkpt lat="44.6023967" lon="9.483485"><ele>952.0</ele><time>2026-04-06T15:18:49.598Z</time></trkpt><trkpt lat="44.6024067" lon="9.4833367"><ele>952.0</ele><time>2026-04-06T15:18:50.597Z</time></trkpt><trkpt lat="44.6023933" lon="9.4831817"><ele>952.0</ele><time>2026-04-06T15:18:51.599Z</time></trkpt><trkpt lat="44.6023917" lon="9.4830317"><ele>952.0</ele><time>2026-04-06T15:18:52.599Z</time></trkpt><trkpt lat="44.602415" lon="9.4828817"><ele>954.2</ele><time>2026-04-06T15:18:53.597Z</time></trkpt><trkpt lat="44.6024583" lon="9.4827483"><ele>956.4000000000001</ele><time>2026-04-06T15:18:54.598Z</time></trkpt><trkpt lat="44.6025267" lon="9.482655"><ele>958.5999999999999</ele><time>2026-04-06T15:18:55.599Z</time></trkpt><trkpt lat="44.6026067" lon="9.4826017"><ele>960.8</ele><time>2026-04-06T15:18:56.599Z</time></trkpt><trkpt lat="44.602735" lon="9.48269"><ele>963.0</ele><time>2026-04-06T15:18:57.6Z</time></trkpt><trkpt lat="44.6028717" lon="9.4828017"><ele>963.0</ele><time>2026-04-06T15:18:58.599Z</time></trkpt><trkpt lat="44.6029967" lon="9.4829167"><ele>963.0</ele><time>2026-04-06T15:18:59.599Z</time></trkpt><trkpt lat="44.6031183" lon="9.48303"><ele>963.0</ele><time>2026-04-06T15:19:00.599Z</time></trkpt><trkpt lat="44.60323" lon="9.4831417"><ele>963.0</ele><time>2026-04-06T15:19:01.598Z</time></trkpt><trkpt lat="44.6033517" lon="9.483245"><ele>958.0</ele><time>2026-04-06T15:19:02.599Z</time></trkpt><trkpt lat="44.6034667" lon="9.48331"><ele>953.0</ele><time>2026-04-06T15:19:03.598Z</time></trkpt><trkpt lat="44.60359" lon="9.4833117"><ele>948.0</ele><time>2026-04-06T15:19:04.599Z</time></trkpt><trkpt lat="44.6037117" lon="9.4832967"><ele>943.0</ele><time>2026-04-06T15:19:05.599Z</time></trkpt><trkpt lat="44.6038367" lon="9.4832983"><ele>943.0</ele><time>2026-04-06T15:19:06.599Z</time></trkpt><trkpt lat="44.6039571" lon="9.483339"><ele>943.0</ele><time>2026-04-06T15:19:07.6Z</time></trkpt><trkpt lat="44.6040668" lon="9.4834204"><ele>943.0</ele><time>2026-04-06T15:19:08.598Z</time></trkpt><trkpt lat="44.6041643" lon="9.4835304"><ele>943.0</ele><time>2026-04-06T15:19:09.597Z</time></trkpt><trkpt lat="44.6042506" lon="9.4836469"><ele>943.0</ele><time>2026-04-06T15:19:10.598Z</time></trkpt><trkpt lat="44.6043287" lon="9.4837601"><ele>943.0</ele><time>2026-04-06T15:19:11.598Z</time></trkpt><trkpt lat="44.6044045" lon="9.4838698"><ele>943.0</ele><time>2026-04-06T15:19:12.598Z</time></trkpt><trkpt lat="44.6044816" lon="9.4839718"><ele>943.0</ele><time>2026-04-06T15:19:13.598Z</time></trkpt><trkpt lat="44.6045655" lon="9.4840544"><ele>943.0</ele><time>2026-04-06T15:19:14.599Z</time></trkpt><trkpt lat="44.6046607" lon="9.4841077"><ele>939.0</ele><time>2026-04-06T15:19:15.598Z</time></trkpt><trkpt lat="44.6047657" lon="9.4841291"><ele>935.0</ele><time>2026-04-06T15:19:16.598Z</time></trkpt><trkpt lat="44.6048805" lon="9.4841105"><ele>931.0</ele><time>2026-04-06T15:19:17.597Z</time></trkpt><trkpt lat="44.6050009" lon="9.4840451"><ele>927.0</ele><time>2026-04-06T15:19:18.599Z</time></trkpt><trkpt lat="44.6051216" lon="9.4839363"><ele>927.0</ele><time>2026-04-06T15:19:19.597Z</time></trkpt><trkpt lat="44.6052412" lon="9.483814"><ele>927.0</ele><time>2026-04-06T15:19:20.599Z</time></trkpt><trkpt lat="44.6053584" lon="9.4837018"><ele>927.0</ele><time>2026-04-06T15:19:21.598Z</time></trkpt><trkpt lat="44.6054765" lon="9.483622"><ele>927.0</ele><time>2026-04-06T15:19:22.598Z</time></trkpt><trkpt lat="44.6055994" lon="9.4835815"><ele>929.4000000000001</ele><time>2026-04-06T15:19:23.599Z</time></trkpt><trkpt lat="44.6057177" lon="9.4835924"><ele>931.8000000000001</ele><time>2026-04-06T15:19:24.598Z</time></trkpt><trkpt lat="44.6058314" lon="9.4836281"><ele>934.2</ele><time>2026-04-06T15:19:25.599Z</time></trkpt><trkpt lat="44.6059395" lon="9.4836636"><ele>936.6</ele><time>2026-04-06T15:19:26.599Z</time></trkpt><trkpt lat="44.6060392" lon="9.4836936"><ele>939.0</ele><time>2026-04-06T15:19:27.599Z</time></trkpt><trkpt lat="44.6061386" lon="9.4837351"><ele>934.25</ele><time>2026-04-06T15:19:28.599Z</time></trkpt><trkpt lat="44.6062409" lon="9.4837924"><ele>929.5</ele><time>2026-04-06T15:19:29.598Z</time></trkpt><trkpt lat="44.6063473" lon="9.4838662"><ele>924.75</ele><time>2026-04-06T15:19:30.599Z</time></trkpt><trkpt lat="44.6064481" lon="9.4839506"><ele>920.0</ele><time>2026-04-06T15:19:31.599Z</time></trkpt><trkpt lat="44.6065393" lon="9.4840347"><ele>920.0000000000001</ele><time>2026-04-06T15:19:32.598Z</time></trkpt><trkpt lat="44.6066183" lon="9.4841157"><ele>920.0</ele><time>2026-04-06T15:19:33.598Z</time></trkpt><trkpt lat="44.6066868" lon="9.4841856"><ele>920.0</ele><time>2026-04-06T15:19:34.599Z</time></trkpt><trkpt lat="44.6067528" lon="9.4842455"><ele>920.0</ele><time>2026-04-06T15:19:35.6Z</time></trkpt><trkpt lat="44.6068217" lon="9.4842957"><ele>920.0000000000001</ele><time>2026-04-06T15:19:36.599Z</time></trkpt><trkpt lat="44.6068937" lon="9.4843377"><ele>920.0</ele><time>2026-04-06T15:19:37.599Z</time></trkpt><trkpt lat="44.6069717" lon="9.4843698"><ele>919.6666666666667</ele><time>2026-04-06T15:19:38.601Z</time></trkpt><trkpt lat="44.6070584" lon="9.4843946"><ele>919.3333333333334</ele><time>2026-04-06T15:19:39.6Z</time></trkpt><trkpt lat="44.6071451" lon="9.4844089"><ele>919.0</ele><time>2026-04-06T15:19:40.6Z</time></trkpt><trkpt lat="44.6072273" lon="9.4844133"><ele>918.6666666666667</ele><time>2026-04-06T15:19:41.601Z</time></trkpt><trkpt lat="44.6073096" lon="9.4844067"><ele>918.3333333333334</ele><time>2026-04-06T15:19:42.6Z</time></trkpt><trkpt lat="44.6074005" lon="9.4843755"><ele>918.0</ele><time>2026-04-06T15:19:43.6Z</time></trkpt><trkpt lat="44.6075009" lon="9.4843257"><ele>918.0</ele><time>2026-04-06T15:19:44.6Z</time></trkpt><trkpt lat="44.6076075" lon="9.4842645"><ele>918.0</ele><time>2026-04-06T15:19:45.598Z</time></trkpt><trkpt lat="44.6077144" lon="9.4841883"><ele>918.0</ele><time>2026-04-06T15:19:46.599Z</time></trkpt><trkpt lat="44.6078259" lon="9.4840955"><ele>918.0</ele><time>2026-04-06T15:19:47.599Z</time></trkpt><trkpt lat="44.6079496" lon="9.4839919"><ele>919.5</ele><time>2026-04-06T15:19:48.598Z</time></trkpt><trkpt lat="44.6080731" lon="9.4838917"><ele>921.0</ele><time>2026-04-06T15:19:49.599Z</time></trkpt><trkpt lat="44.6081924" lon="9.4837869"><ele>922.5</ele><time>2026-04-06T15:19:50.598Z</time></trkpt><trkpt lat="44.6083041" lon="9.4836781"><ele>924.0</ele><time>2026-04-06T15:19:51.599Z</time></trkpt><trkpt lat="44.608411" lon="9.4835861"><ele>924.0</ele><time>2026-04-06T15:19:52.597Z</time></trkpt><trkpt lat="44.6085157" lon="9.4835207"><ele>924.0000000000001</ele><time>2026-04-06T15:19:53.597Z</time></trkpt><trkpt lat="44.6086228" lon="9.4834864"><ele>924.0000000000001</ele><time>2026-04-06T15:19:54.597Z</time></trkpt><trkpt lat="44.6087293" lon="9.4834648"><ele>924.0</ele><time>2026-04-06T15:19:55.598Z</time></trkpt><trkpt lat="44.6088202" lon="9.483416"><ele>924.0</ele><time>2026-04-06T15:19:56.599Z</time></trkpt><trkpt lat="44.6089026" lon="9.4833392"><ele>922.6</ele><time>2026-04-06T15:19:57.6Z</time></trkpt><trkpt lat="44.6089735" lon="9.4832409"><ele>921.2</ele><time>2026-04-06T15:19:58.599Z</time></trkpt><trkpt lat="44.6090326" lon="9.4831256"><ele>919.8000000000001</ele><time>2026-04-06T15:19:59.599Z</time></trkpt><trkpt lat="44.6090621" lon="9.4829907"><ele>918.4000000000001</ele><time>2026-04-06T15:20:00.599Z</time></trkpt><trkpt lat="44.6090643" lon="9.4828452"><ele>917.0</ele><time>2026-04-06T15:20:01.599Z</time></trkpt><trkpt lat="44.6090479" lon="9.4826906"><ele>916.5</ele><time>2026-04-06T15:20:02.6Z</time></trkpt><trkpt lat="44.6090267" lon="9.4825286"><ele>916.0</ele><time>2026-04-06T15:20:03.601Z</time></trkpt><trkpt lat="44.6090175" lon="9.4823724"><ele>915.5</ele><time>2026-04-06T15:20:04.6Z</time></trkpt><trkpt lat="44.6090292" lon="9.4822166"><ele>915.0</ele><time>2026-04-06T15:20:05.599Z</time></trkpt><trkpt lat="44.6090738" lon="9.4820557"><ele>915.0</ele><time>2026-04-06T15:20:06.599Z</time></trkpt><trkpt lat="44.6091421" lon="9.4819001"><ele>915.0</ele><time>2026-04-06T15:20:07.599Z</time></trkpt><trkpt lat="44.609223" lon="9.4817533"><ele>915.0</ele><time>2026-04-06T15:20:08.599Z</time></trkpt><trkpt lat="44.6093024" lon="9.4816122"><ele>915.0</ele><time>2026-04-06T15:20:09.599Z</time></trkpt><trkpt lat="44.60938" lon="9.4814781"><ele>915.0</ele><time>2026-04-06T15:20:10.597Z</time></trkpt><trkpt lat="44.6094617" lon="9.4813489"><ele>915.0</ele><time>2026-04-06T15:20:11.599Z</time></trkpt><trkpt lat="44.6095417" lon="9.4812189"><ele>915.0</ele><time>2026-04-06T15:20:12.598Z</time></trkpt><trkpt lat="44.6096192" lon="9.4810907"><ele>915.0</ele><time>2026-04-06T15:20:13.598Z</time></trkpt><trkpt lat="44.6096828" lon="9.4809567"><ele>910.8</ele><time>2026-04-06T15:20:14.599Z</time></trkpt><trkpt lat="44.6097241" lon="9.4808163"><ele>906.6</ele><time>2026-04-06T15:20:15.598Z</time></trkpt><trkpt lat="44.609738" lon="9.480671"><ele>902.4000000000001</ele><time>2026-04-06T15:20:16.599Z</time></trkpt><trkpt lat="44.6097167" lon="9.480526"><ele>898.2</ele><time>2026-04-06T15:20:17.598Z</time></trkpt><trkpt lat="44.6096547" lon="9.4803726"><ele>894.0</ele><time>2026-04-06T15:20:18.599Z</time></trkpt><trkpt lat="44.609579" lon="9.4802225"><ele>891.5</ele><time>2026-04-06T15:20:19.6Z</time></trkpt><trkpt lat="44.6095028" lon="9.4800784"><ele>889.0</ele><time>2026-04-06T15:20:20.599Z</time></trkpt><trkpt lat="44.6094349" lon="9.4799312"><ele>886.5</ele><time>2026-04-06T15:20:21.598Z</time></trkpt><trkpt lat="44.6093882" lon="9.4797852"><ele>884.0</ele><time>2026-04-06T15:20:22.598Z</time></trkpt><trkpt lat="44.6093627" lon="9.4796389"><ele>889.0</ele><time>2026-04-06T15:20:23.598Z</time></trkpt><trkpt lat="44.6093496" lon="9.4794991"><ele>894.0000000000001</ele><time>2026-04-06T15:20:24.599Z</time></trkpt><trkpt lat="44.6093435" lon="9.4793635"><ele>899.0000000000001</ele><time>2026-04-06T15:20:25.599Z</time></trkpt><trkpt lat="44.6093382" lon="9.4792313"><ele>904.0</ele><time>2026-04-06T15:20:26.599Z</time></trkpt><trkpt lat="44.6093366" lon="9.4790943"><ele>909.0</ele><time>2026-04-06T15:20:27.6Z</time></trkpt><trkpt lat="44.6093503" lon="9.4789576"><ele>909.0</ele><time>2026-04-06T15:20:28.597Z</time></trkpt><trkpt lat="44.6093683" lon="9.4788238"><ele>909.0</ele><time>2026-04-06T15:20:29.599Z</time></trkpt><trkpt lat="44.6094012" lon="9.4787016"><ele>909.0</ele><time>2026-04-06T15:20:30.6Z</time></trkpt><trkpt lat="44.6094366" lon="9.4785864"><ele>909.0</ele><time>2026-04-06T15:20:31.599Z</time></trkpt><trkpt lat="44.6094674" lon="9.478473"><ele>909.0</ele><time>2026-04-06T15:20:32.6Z</time></trkpt><trkpt lat="44.6094874" lon="9.4783636"><ele>909.0</ele><time>2026-04-06T15:20:33.599Z</time></trkpt><trkpt lat="44.6094853" lon="9.4782574"><ele>908.4285714285713</ele><time>2026-04-06T15:20:34.599Z</time></trkpt><trkpt lat="44.609466" lon="9.4781572"><ele>907.8571428571429</ele><time>2026-04-06T15:20:35.598Z</time></trkpt><trkpt lat="44.6094323" lon="9.4780681"><ele>907.2857142857142</ele><time>2026-04-06T15:20:36.6Z</time></trkpt><trkpt lat="44.6093896" lon="9.4779854"><ele>906.7142857142857</ele><time>2026-04-06T15:20:37.6Z</time></trkpt><trkpt lat="44.6093431" lon="9.4779117"><ele>906.1428571428571</ele><time>2026-04-06T15:20:38.599Z</time></trkpt><trkpt lat="44.6092887" lon="9.4778436"><ele>905.5714285714286</ele><time>2026-04-06T15:20:39.599Z</time></trkpt><trkpt lat="44.6092273" lon="9.4777728"><ele>905.0</ele><time>2026-04-06T15:20:40.6Z</time></trkpt><trkpt lat="44.6091593" lon="9.4777026"><ele>903.1666666666667</ele><time>2026-04-06T15:20:41.597Z</time></trkpt><trkpt lat="44.6090914" lon="9.4776288"><ele>901.3333333333334</ele><time>2026-04-06T15:20:42.597Z</time></trkpt><trkpt lat="44.6090286" lon="9.4775521"><ele>899.5</ele><time>2026-04-06T15:20:43.599Z</time></trkpt><trkpt lat="44.6089798" lon="9.4774643"><ele>897.6666666666667</ele><time>2026-04-06T15:20:44.599Z</time></trkpt><trkpt lat="44.6089518" lon="9.477363"><ele>895.8333333333334</ele><time>2026-04-06T15:20:45.599Z</time></trkpt><trkpt lat="44.6089393" lon="9.4772531"><ele>894.0</ele><time>2026-04-06T15:20:46.597Z</time></trkpt><trkpt lat="44.6089452" lon="9.4771313"><ele>894.4000000000001</ele><time>2026-04-06T15:20:47.597Z</time></trkpt><trkpt lat="44.6089765" lon="9.4770103"><ele>894.8000000000001</ele><time>2026-04-06T15:20:48.599Z</time></trkpt><trkpt lat="44.6090169" lon="9.4768904"><ele>895.1999999999999</ele><time>2026-04-06T15:20:49.599Z</time></trkpt><trkpt lat="44.6090626" lon="9.4767697"><ele>895.5999999999999</ele><time>2026-04-06T15:20:50.599Z</time></trkpt><trkpt lat="44.6091104" lon="9.476649"><ele>896.0</ele><time>2026-04-06T15:20:51.598Z</time></trkpt><trkpt lat="44.6091592" lon="9.4765312"><ele>896.0</ele><time>2026-04-06T15:20:52.598Z</time></trkpt><trkpt lat="44.6092123" lon="9.4764202"><ele>895.9999999999999</ele><time>2026-04-06T15:20:53.598Z</time></trkpt><trkpt lat="44.6092651" lon="9.4763147"><ele>895.9999999999999</ele><time>2026-04-06T15:20:54.598Z</time></trkpt><trkpt lat="44.6093175" lon="9.4762074"><ele>896.0</ele><time>2026-04-06T15:20:55.598Z</time></trkpt><trkpt lat="44.6093774" lon="9.4761047"><ele>896.0</ele><time>2026-04-06T15:20:56.599Z</time></trkpt><trkpt lat="44.6094448" lon="9.476013"><ele>892.3333333333334</ele><time>2026-04-06T15:20:57.598Z</time></trkpt><trkpt lat="44.6095167" lon="9.4759279"><ele>888.6666666666667</ele><time>2026-04-06T15:20:58.598Z</time></trkpt><trkpt lat="44.609585" lon="9.4758411"><ele>885.0</ele><time>2026-04-06T15:20:59.598Z</time></trkpt><trkpt lat="44.6096427" lon="9.4757467"><ele>881.3333333333333</ele><time>2026-04-06T15:21:00.6Z</time></trkpt><trkpt lat="44.6096891" lon="9.4756458"><ele>877.6666666666666</ele><time>2026-04-06T15:21:01.599Z</time></trkpt><trkpt lat="44.6097259" lon="9.4755369"><ele>874.0</ele><time>2026-04-06T15:21:02.599Z</time></trkpt><trkpt lat="44.6097513" lon="9.475422"><ele>873.9999999999999</ele><time>2026-04-06T15:21:03.6Z</time></trkpt><trkpt lat="44.6097717" lon="9.4753056"><ele>874.0</ele><time>2026-04-06T15:21:04.599Z</time></trkpt><trkpt lat="44.609791" lon="9.475186"><ele>874.0</ele><time>2026-04-06T15:21:05.598Z</time></trkpt><trkpt lat="44.6098136" lon="9.4750728"><ele>874.0</ele><time>2026-04-06T15:21:06.598Z</time></trkpt><trkpt lat="44.6098494" lon="9.4749726"><ele>873.9999999999999</ele><time>2026-04-06T15:21:07.599Z</time></trkpt><trkpt lat="44.6098918" lon="9.4748844"><ele>874.0</ele><time>2026-04-06T15:21:08.598Z</time></trkpt><trkpt lat="44.6099389" lon="9.4748035"><ele>874.0</ele><time>2026-04-06T15:21:09.599Z</time></trkpt><trkpt lat="44.6099886" lon="9.4747253"><ele>874.0</ele><time>2026-04-06T15:21:10.599Z</time></trkpt><trkpt lat="44.6100317" lon="9.474643"><ele>874.0</ele><time>2026-04-06T15:21:11.601Z</time></trkpt><trkpt lat="44.6100646" lon="9.4745551"><ele>874.0</ele><time>2026-04-06T15:21:12.598Z</time></trkpt><trkpt lat="44.6100839" lon="9.474458"><ele>874.0</ele><time>2026-04-06T15:21:13.599Z</time></trkpt><trkpt lat="44.6100879" lon="9.4743519"><ele>874.0</ele><time>2026-04-06T15:21:14.597Z</time></trkpt><trkpt lat="44.6100765" lon="9.4742399"><ele>874.0</ele><time>2026-04-06T15:21:15.598Z</time></trkpt><trkpt lat="44.6100475" lon="9.4741321"><ele>874.1666666666666</ele><time>2026-04-06T15:21:16.597Z</time></trkpt><trkpt lat="44.610004" lon="9.4740355"><ele>874.3333333333333</ele><time>2026-04-06T15:21:17.6Z</time></trkpt><trkpt lat="44.6099501" lon="9.4739485"><ele>874.5</ele><time>2026-04-06T15:21:18.599Z</time></trkpt><trkpt lat="44.6098933" lon="9.4738659"><ele>874.6666666666667</ele><time>2026-04-06T15:21:19.598Z</time></trkpt><trkpt lat="44.6098384" lon="9.4737807"><ele>874.8333333333334</ele><time>2026-04-06T15:21:20.598Z</time></trkpt><trkpt lat="44.6097878" lon="9.4736925"><ele>875.0</ele><time>2026-04-06T15:21:21.597Z</time></trkpt><trkpt lat="44.6097423" lon="9.473605"><ele>874.3333333333334</ele><time>2026-04-06T15:21:22.599Z</time></trkpt><trkpt lat="44.6097007" lon="9.4735138"><ele>873.6666666666667</ele><time>2026-04-06T15:21:23.598Z</time></trkpt><trkpt lat="44.6096678" lon="9.473415"><ele>873.0</ele><time>2026-04-06T15:21:24.599Z</time></trkpt><trkpt lat="44.6096467" lon="9.4733017"><ele>872.3333333333333</ele><time>2026-04-06T15:21:25.597Z</time></trkpt><trkpt lat="44.6096467" lon="9.473185"><ele>871.6666666666666</ele><time>2026-04-06T15:21:26.598Z</time></trkpt><trkpt lat="44.6096617" lon="9.4730667"><ele>871.0</ele><time>2026-04-06T15:21:27.598Z</time></trkpt><trkpt lat="44.6096967" lon="9.4729583"><ele>871.0</ele><time>2026-04-06T15:21:28.598Z</time></trkpt><trkpt lat="44.6097467" lon="9.4728633"><ele>870.9999999999999</ele><time>2026-04-06T15:21:29.599Z</time></trkpt><trkpt lat="44.60982" lon="9.4727933"><ele>870.9999999999999</ele><time>2026-04-06T15:21:30.599Z</time></trkpt><trkpt lat="44.609905" lon="9.4727483"><ele>871.0</ele><time>2026-04-06T15:21:31.597Z</time></trkpt><trkpt lat="44.6100017" lon="9.4727233"><ele>871.0</ele><time>2026-04-06T15:21:32.599Z</time></trkpt><trkpt lat="44.610105" lon="9.4727317"><ele>871.0</ele><time>2026-04-06T15:21:33.599Z</time></trkpt><trkpt lat="44.6102117" lon="9.472755"><ele>871.0</ele><time>2026-04-06T15:21:34.597Z</time></trkpt><trkpt lat="44.6103233" lon="9.4727967"><ele>871.0</ele><time>2026-04-06T15:21:35.599Z</time></trkpt><trkpt lat="44.6104383" lon="9.4728583"><ele>871.0</ele><time>2026-04-06T15:21:36.597Z</time></trkpt><trkpt lat="44.6105533" lon="9.47292"><ele>868.5</ele><time>2026-04-06T15:21:37.598Z</time></trkpt><trkpt lat="44.6106717" lon="9.4729783"><ele>866.0</ele><time>2026-04-06T15:21:38.598Z</time></trkpt><trkpt lat="44.610785" lon="9.4730383"><ele>863.5</ele><time>2026-04-06T15:21:39.599Z</time></trkpt><trkpt lat="44.6108967" lon="9.473095"><ele>861.0</ele><time>2026-04-06T15:21:40.598Z</time></trkpt><trkpt lat="44.6110033" lon="9.47316"><ele>861.0</ele><time>2026-04-06T15:21:41.599Z</time></trkpt><trkpt lat="44.6111083" lon="9.4732417"><ele>861.0</ele><time>2026-04-06T15:21:42.599Z</time></trkpt><trkpt lat="44.611205" lon="9.4733417"><ele>861.0</ele><time>2026-04-06T15:21:43.598Z</time></trkpt><trkpt lat="44.611295" lon="9.473445"><ele>861.0</ele><time>2026-04-06T15:21:44.598Z</time></trkpt><trkpt lat="44.61138" lon="9.4735467"><ele>860.8</ele><time>2026-04-06T15:21:45.598Z</time></trkpt><trkpt lat="44.6114567" lon="9.47365"><ele>860.5999999999999</ele><time>2026-04-06T15:21:46.598Z</time></trkpt><trkpt lat="44.6115217" lon="9.4737617"><ele>860.4</ele><time>2026-04-06T15:21:47.599Z</time></trkpt><trkpt lat="44.61158" lon="9.4738783"><ele>860.2</ele><time>2026-04-06T15:21:48.598Z</time></trkpt><trkpt lat="44.6116333" lon="9.474"><ele>860.0</ele><time>2026-04-06T15:21:49.599Z</time></trkpt><trkpt lat="44.6116867" lon="9.47412"><ele>860.0</ele><time>2026-04-06T15:21:50.598Z</time></trkpt><trkpt lat="44.6117367" lon="9.4742417"><ele>860.0</ele><time>2026-04-06T15:21:51.598Z</time></trkpt><trkpt lat="44.6117833" lon="9.4743733"><ele>860.0</ele><time>2026-04-06T15:21:52.597Z</time></trkpt><trkpt lat="44.6118217" lon="9.4745133"><ele>860.0</ele><time>2026-04-06T15:21:53.599Z</time></trkpt><trkpt lat="44.6118583" lon="9.4746667"><ele>860.0</ele><time>2026-04-06T15:21:54.6Z</time></trkpt><trkpt lat="44.6118933" lon="9.4748383"><ele>857.5</ele><time>2026-04-06T15:21:55.598Z</time></trkpt><trkpt lat="44.611925" lon="9.4750183"><ele>855.0</ele><time>2026-04-06T15:21:56.6Z</time></trkpt><trkpt lat="44.6119567" lon="9.475195"><ele>852.5</ele><time>2026-04-06T15:21:57.599Z</time></trkpt><trkpt lat="44.61199" lon="9.4753633"><ele>850.0</ele><time>2026-04-06T15:21:58.599Z</time></trkpt><trkpt lat="44.6120183" lon="9.475525"><ele>856.8</ele><time>2026-04-06T15:21:59.599Z</time></trkpt><trkpt lat="44.6120433" lon="9.4756783"><ele>863.6</ele><time>2026-04-06T15:22:00.598Z</time></trkpt><trkpt lat="44.6120733" lon="9.4758217"><ele>870.4000000000001</ele><time>2026-04-06T15:22:01.598Z</time></trkpt><trkpt lat="44.612105" lon="9.4759567"><ele>877.2</ele><time>2026-04-06T15:22:02.6Z</time></trkpt><trkpt lat="44.612135" lon="9.4760817"><ele>884.0</ele><time>2026-04-06T15:22:03.599Z</time></trkpt><trkpt lat="44.6121617" lon="9.4761967"><ele>882.6666666666667</ele><time>2026-04-06T15:22:04.599Z</time></trkpt><trkpt lat="44.6121883" lon="9.4763083"><ele>881.3333333333334</ele><time>2026-04-06T15:22:05.599Z</time></trkpt><trkpt lat="44.61221" lon="9.4764133"><ele>880.0</ele><time>2026-04-06T15:22:06.598Z</time></trkpt><trkpt lat="44.6122267" lon="9.476515"><ele>878.6666666666667</ele><time>2026-04-06T15:22:07.599Z</time></trkpt><trkpt lat="44.612245" lon="9.4766267"><ele>877.3333333333334</ele><time>2026-04-06T15:22:08.599Z</time></trkpt><trkpt lat="44.612265" lon="9.4767483"><ele>876.0</ele><time>2026-04-06T15:22:09.599Z</time></trkpt><trkpt lat="44.6122867" lon="9.4768783"><ele>876.0</ele><time>2026-04-06T15:22:10.599Z</time></trkpt><trkpt lat="44.612305" lon="9.4770117"><ele>875.9999999999999</ele><time>2026-04-06T15:22:11.599Z</time></trkpt><trkpt lat="44.61232" lon="9.4771467"><ele>875.9999999999999</ele><time>2026-04-06T15:22:12.599Z</time></trkpt><trkpt lat="44.6123317" lon="9.4772783"><ele>876.0</ele><time>2026-04-06T15:22:13.598Z</time></trkpt><trkpt lat="44.6123433" lon="9.4774"><ele>876.0</ele><time>2026-04-06T15:22:14.599Z</time></trkpt><trkpt lat="44.6123583" lon="9.477515"><ele>873.6666666666666</ele><time>2026-04-06T15:22:15.598Z</time></trkpt><trkpt lat="44.61237" lon="9.4776167"><ele>871.3333333333333</ele><time>2026-04-06T15:22:16.598Z</time></trkpt><trkpt lat="44.6123783" lon="9.4777117"><ele>869.0</ele><time>2026-04-06T15:22:17.598Z</time></trkpt><trkpt lat="44.6123883" lon="9.4778"><ele>866.6666666666666</ele><time>2026-04-06T15:22:18.599Z</time></trkpt><trkpt lat="44.612395" lon="9.47791"><ele>864.3333333333333</ele><time>2026-04-06T15:22:20.599Z</time></trkpt><trkpt lat="44.612395" lon="9.4780483"><ele>862.0</ele><time>2026-04-06T15:23:08.6Z</time></trkpt><trkpt lat="44.61244" lon="9.4781533"><ele>862.0</ele><time>2026-04-06T15:23:11.599Z</time></trkpt><trkpt lat="44.6124917" lon="9.4782283"><ele>862.0</ele><time>2026-04-06T15:23:13.599Z</time></trkpt><trkpt lat="44.612555" lon="9.4782917"><ele>862.0</ele><time>2026-04-06T15:23:15.598Z</time></trkpt><trkpt lat="44.6126333" lon="9.4783217"><ele>862.0</ele><time>2026-04-06T15:23:17.599Z</time></trkpt><trkpt lat="44.6127517" lon="9.4783167"><ele>862.0</ele><time>2026-04-06T15:23:19.598Z</time></trkpt><trkpt lat="44.612865" lon="9.4782683"><ele>862.0</ele><time>2026-04-06T15:23:21.599Z</time></trkpt><trkpt lat="44.6129633" lon="9.4782283"><ele>862.0</ele><time>2026-04-06T15:23:23.599Z</time></trkpt><trkpt lat="44.6130417" lon="9.478215"><ele>862.0</ele><time>2026-04-06T15:23:25.599Z</time></trkpt><trkpt lat="44.6131233" lon="9.4782467"><ele>862.0</ele><time>2026-04-06T15:23:27.598Z</time></trkpt><trkpt lat="44.613215" lon="9.4783383"><ele>862.0</ele><time>2026-04-06T15:23:29.598Z</time></trkpt><trkpt lat="44.6132733" lon="9.4784817"><ele>862.0</ele><time>2026-04-06T15:23:31.599Z</time></trkpt><trkpt lat="44.6133033" lon="9.478645"><ele>862.0</ele><time>2026-04-06T15:23:33.599Z</time></trkpt><trkpt lat="44.61332" lon="9.4788067"><ele>862.0</ele><time>2026-04-06T15:23:35.598Z</time></trkpt><trkpt lat="44.6133083" lon="9.47894"><ele>862.0</ele><time>2026-04-06T15:23:37.599Z</time></trkpt><trkpt lat="44.6132917" lon="9.479085"><ele>862.0</ele><time>2026-04-06T15:23:39.599Z</time></trkpt><trkpt lat="44.6132933" lon="9.47926"><ele>860.4000000000001</ele><time>2026-04-06T15:23:41.598Z</time></trkpt><trkpt lat="44.6132983" lon="9.4794183"><ele>858.8000000000001</ele><time>2026-04-06T15:23:43.604Z</time></trkpt><trkpt lat="44.61332" lon="9.47953"><ele>857.2</ele><time>2026-04-06T15:23:45.599Z</time></trkpt><trkpt lat="44.613355" lon="9.4796333"><ele>855.6</ele><time>2026-04-06T15:23:47.599Z</time></trkpt><trkpt lat="44.61338" lon="9.479775"><ele>854.0</ele><time>2026-04-06T15:23:49.598Z</time></trkpt><trkpt lat="44.6133967" lon="9.4799383"><ele>853.25</ele><time>2026-04-06T15:23:51.598Z</time></trkpt><trkpt lat="44.6134033" lon="9.480095"><ele>852.5</ele><time>2026-04-06T15:23:53.599Z</time></trkpt><trkpt lat="44.6134067" lon="9.4802633"><ele>851.75</ele><time>2026-04-06T15:23:55.598Z</time></trkpt><trkpt lat="44.6134283" lon="9.480425"><ele>851.0</ele><time>2026-04-06T15:23:57.598Z</time></trkpt><trkpt lat="44.613465" lon="9.4805667"><ele>849.0</ele><time>2026-04-06T15:23:59.599Z</time></trkpt><trkpt lat="44.6135117" lon="9.48068"><ele>847.0</ele><time>2026-04-06T15:24:01.599Z</time></trkpt><trkpt lat="44.6135667" lon="9.48079"><ele>845.0</ele><time>2026-04-06T15:24:03.599Z</time></trkpt><trkpt lat="44.6136167" lon="9.480965"><ele>843.0</ele><time>2026-04-06T15:24:05.599Z</time></trkpt><trkpt lat="44.6136367" lon="9.4810783"><ele>841.0</ele><time>2026-04-06T15:24:06.598Z</time></trkpt><trkpt lat="44.6136483" lon="9.4811883"><ele>843.8333333333333</ele><time>2026-04-06T15:24:07.598Z</time></trkpt><trkpt lat="44.6136567" lon="9.4812967"><ele>846.6666666666666</ele><time>2026-04-06T15:24:08.599Z</time></trkpt><trkpt lat="44.6136617" lon="9.481395"><ele>849.5</ele><time>2026-04-06T15:24:09.597Z</time></trkpt><trkpt lat="44.6136683" lon="9.481495"><ele>852.3333333333333</ele><time>2026-04-06T15:24:10.598Z</time></trkpt><trkpt lat="44.61368" lon="9.481605"><ele>855.1666666666666</ele><time>2026-04-06T15:24:11.599Z</time></trkpt><trkpt lat="44.6136967" lon="9.4817283"><ele>858.0</ele><time>2026-04-06T15:24:12.598Z</time></trkpt><trkpt lat="44.6137117" lon="9.4818517"><ele>858.0</ele><time>2026-04-06T15:24:13.597Z</time></trkpt><trkpt lat="44.6137267" lon="9.48198"><ele>858.0</ele><time>2026-04-06T15:24:14.599Z</time></trkpt><trkpt lat="44.6137367" lon="9.4821117"><ele>858.0</ele><time>2026-04-06T15:24:15.597Z</time></trkpt><trkpt lat="44.61374" lon="9.4822467"><ele>858.0</ele><time>2026-04-06T15:24:16.599Z</time></trkpt><trkpt lat="44.6137283" lon="9.482375"><ele>858.0</ele><time>2026-04-06T15:24:17.599Z</time></trkpt><trkpt lat="44.6136983" lon="9.4824883"><ele>853.8333333333334</ele><time>2026-04-06T15:24:18.599Z</time></trkpt><trkpt lat="44.613655" lon="9.4825867"><ele>849.6666666666667</ele><time>2026-04-06T15:24:19.599Z</time></trkpt><trkpt lat="44.6136117" lon="9.4826783"><ele>845.5</ele><time>2026-04-06T15:24:20.599Z</time></trkpt><trkpt lat="44.6135767" lon="9.4827733"><ele>841.3333333333334</ele><time>2026-04-06T15:24:21.599Z</time></trkpt><trkpt lat="44.6135533" lon="9.4828717"><ele>837.1666666666667</ele><time>2026-04-06T15:24:22.599Z</time></trkpt><trkpt lat="44.6135617" lon="9.4829883"><ele>833.0</ele><time>2026-04-06T15:24:23.6Z</time></trkpt><trkpt lat="44.6136067" lon="9.4831183"><ele>837.75</ele><time>2026-04-06T15:24:24.599Z</time></trkpt><trkpt lat="44.6136717" lon="9.48325"><ele>842.5</ele><time>2026-04-06T15:24:25.597Z</time></trkpt><trkpt lat="44.6137517" lon="9.4833833"><ele>847.25</ele><time>2026-04-06T15:24:26.599Z</time></trkpt><trkpt lat="44.6138367" lon="9.4835167"><ele>852.0</ele><time>2026-04-06T15:24:27.597Z</time></trkpt><trkpt lat="44.6139217" lon="9.4836483"><ele>847.0</ele><time>2026-04-06T15:24:28.599Z</time></trkpt><trkpt lat="44.614005" lon="9.48377"><ele>842.0</ele><time>2026-04-06T15:24:29.598Z</time></trkpt><trkpt lat="44.61409" lon="9.483885"><ele>837.0</ele><time>2026-04-06T15:24:30.599Z</time></trkpt><trkpt lat="44.6141767" lon="9.483985"><ele>832.0</ele><time>2026-04-06T15:24:31.599Z</time></trkpt><trkpt lat="44.6142633" lon="9.48407"><ele>832.0</ele><time>2026-04-06T15:24:32.599Z</time></trkpt><trkpt lat="44.6143467" lon="9.4841467"><ele>832.0</ele><time>2026-04-06T15:24:33.599Z</time></trkpt><trkpt lat="44.6144317" lon="9.484215"><ele>832.0</ele><time>2026-04-06T15:24:34.6Z</time></trkpt><trkpt lat="44.61451" lon="9.4842767"><ele>832.0</ele><time>2026-04-06T15:24:35.599Z</time></trkpt><trkpt lat="44.6145867" lon="9.4843367"><ele>832.0</ele><time>2026-04-06T15:24:36.6Z</time></trkpt><trkpt lat="44.614655" lon="9.4844067"><ele>830.9999999999999</ele><time>2026-04-06T15:24:37.6Z</time></trkpt><trkpt lat="44.6147183" lon="9.4844917"><ele>830.0</ele><time>2026-04-06T15:24:38.599Z</time></trkpt><trkpt lat="44.6147733" lon="9.4845883"><ele>829.0</ele><time>2026-04-06T15:24:39.598Z</time></trkpt><trkpt lat="44.6148217" lon="9.4846917"><ele>828.0</ele><time>2026-04-06T15:24:40.599Z</time></trkpt><trkpt lat="44.6148733" lon="9.48479"><ele>826.9999999999999</ele><time>2026-04-06T15:24:41.599Z</time></trkpt><trkpt lat="44.61493" lon="9.484895"><ele>826.0</ele><time>2026-04-06T15:24:42.598Z</time></trkpt><trkpt lat="44.6149983" lon="9.4849933"><ele>826.0</ele><time>2026-04-06T15:24:43.598Z</time></trkpt><trkpt lat="44.615085" lon="9.4850783"><ele>826.0</ele><time>2026-04-06T15:24:44.598Z</time></trkpt><trkpt lat="44.6151767" lon="9.485155"><ele>826.0</ele><time>2026-04-06T15:24:45.599Z</time></trkpt><trkpt lat="44.6152667" lon="9.4852183"><ele>826.0</ele><time>2026-04-06T15:24:46.597Z</time></trkpt><trkpt lat="44.6153583" lon="9.485275"><ele>826.0</ele><time>2026-04-06T15:24:47.598Z</time></trkpt><trkpt lat="44.615455" lon="9.4853333"><ele>824.5</ele><time>2026-04-06T15:24:48.599Z</time></trkpt><trkpt lat="44.615555" lon="9.4854017"><ele>823.0</ele><time>2026-04-06T15:24:49.6Z</time></trkpt><trkpt lat="44.615655" lon="9.4854817"><ele>821.5</ele><time>2026-04-06T15:24:50.6Z</time></trkpt><trkpt lat="44.6157583" lon="9.48557"><ele>820.0</ele><time>2026-04-06T15:24:51.599Z</time></trkpt><trkpt lat="44.6158667" lon="9.4856717"><ele>820.0</ele><time>2026-04-06T15:24:52.6Z</time></trkpt><trkpt lat="44.6159767" lon="9.48578"><ele>820.0</ele><time>2026-04-06T15:24:53.6Z</time></trkpt><trkpt lat="44.6160983" lon="9.4859133"><ele>820.0</ele><time>2026-04-06T15:24:54.599Z</time></trkpt><trkpt lat="44.616225" lon="9.4860717"><ele>820.0</ele><time>2026-04-06T15:24:55.599Z</time></trkpt><trkpt lat="44.6163533" lon="9.48624"><ele>820.0</ele><time>2026-04-06T15:24:56.599Z</time></trkpt><trkpt lat="44.6164783" lon="9.4864017"><ele>820.0</ele><time>2026-04-06T15:24:57.599Z</time></trkpt><trkpt lat="44.6165917" lon="9.486555"><ele>820.0</ele><time>2026-04-06T15:24:58.599Z</time></trkpt><trkpt lat="44.616685" lon="9.4867033"><ele>820.0</ele><time>2026-04-06T15:24:59.598Z</time></trkpt><trkpt lat="44.6167567" lon="9.4868467"><ele>820.0</ele><time>2026-04-06T15:25:00.599Z</time></trkpt><trkpt lat="44.6168083" lon="9.4869867"><ele>820.0</ele><time>2026-04-06T15:25:01.598Z</time></trkpt><trkpt lat="44.6168533" lon="9.4871217"><ele>821.6</ele><time>2026-04-06T15:25:02.599Z</time></trkpt><trkpt lat="44.6168933" lon="9.48725"><ele>823.2</ele><time>2026-04-06T15:25:03.6Z</time></trkpt><trkpt lat="44.616935" lon="9.4873717"><ele>824.8</ele><time>2026-04-06T15:25:04.6Z</time></trkpt><trkpt lat="44.61699" lon="9.4875"><ele>826.4</ele><time>2026-04-06T15:25:05.598Z</time></trkpt><trkpt lat="44.6170717" lon="9.487645"><ele>828.0</ele><time>2026-04-06T15:25:06.598Z</time></trkpt><trkpt lat="44.6171933" lon="9.48781"><ele>824.0</ele><time>2026-04-06T15:25:07.599Z</time></trkpt><trkpt lat="44.6173267" lon="9.487975"><ele>820.0</ele><time>2026-04-06T15:25:08.599Z</time></trkpt><trkpt lat="44.617445" lon="9.4881283"><ele>816.0</ele><time>2026-04-06T15:25:09.599Z</time></trkpt><trkpt lat="44.617535" lon="9.4882817"><ele>816.0</ele><time>2026-04-06T15:25:10.599Z</time></trkpt><trkpt lat="44.61759" lon="9.4884567"><ele>816.0</ele><time>2026-04-06T15:25:11.599Z</time></trkpt><trkpt lat="44.6175983" lon="9.4886517"><ele>816.0</ele><time>2026-04-06T15:25:12.599Z</time></trkpt><trkpt lat="44.61757" lon="9.4888567"><ele>816.0</ele><time>2026-04-06T15:25:13.599Z</time></trkpt><trkpt lat="44.6175217" lon="9.4890583"><ele>813.75</ele><time>2026-04-06T15:25:14.599Z</time></trkpt><trkpt lat="44.6174717" lon="9.48925"><ele>811.5</ele><time>2026-04-06T15:25:15.599Z</time></trkpt><trkpt lat="44.6174267" lon="9.4894333"><ele>809.25</ele><time>2026-04-06T15:25:16.599Z</time></trkpt><trkpt lat="44.6174017" lon="9.489605"><ele>807.0</ele><time>2026-04-06T15:25:17.599Z</time></trkpt><trkpt lat="44.6174083" lon="9.4897667"><ele>804.75</ele><time>2026-04-06T15:25:18.598Z</time></trkpt><trkpt lat="44.6174533" lon="9.4899183"><ele>802.5</ele><time>2026-04-06T15:25:19.598Z</time></trkpt><trkpt lat="44.6175217" lon="9.49005"><ele>800.25</ele><time>2026-04-06T15:25:20.6Z</time></trkpt><trkpt lat="44.6176033" lon="9.4901583"><ele>798.0</ele><time>2026-04-06T15:25:21.599Z</time></trkpt><trkpt lat="44.617695" lon="9.4902383"><ele>798.0</ele><time>2026-04-06T15:25:22.599Z</time></trkpt><trkpt lat="44.6177983" lon="9.4902833"><ele>798.0</ele><time>2026-04-06T15:25:23.598Z</time></trkpt><trkpt lat="44.6179217" lon="9.4902833"><ele>798.0</ele><time>2026-04-06T15:25:24.598Z</time></trkpt><trkpt lat="44.6180717" lon="9.490245"><ele>798.0</ele><time>2026-04-06T15:25:25.599Z</time></trkpt><trkpt lat="44.6182417" lon="9.4901917"><ele>796.6666666666667</ele><time>2026-04-06T15:25:26.599Z</time></trkpt><trkpt lat="44.6184117" lon="9.4901383"><ele>795.3333333333334</ele><time>2026-04-06T15:25:27.598Z</time></trkpt><trkpt lat="44.6185717" lon="9.49009"><ele>794.0</ele><time>2026-04-06T15:25:28.6Z</time></trkpt><trkpt lat="44.618725" lon="9.4900333"><ele>794.0</ele><time>2026-04-06T15:25:29.598Z</time></trkpt><trkpt lat="44.618885" lon="9.4899617"><ele>794.0</ele><time>2026-04-06T15:25:30.599Z</time></trkpt><trkpt lat="44.6190517" lon="9.4898817"><ele>794.0</ele><time>2026-04-06T15:25:31.599Z</time></trkpt><trkpt lat="44.6192167" lon="9.489835"><ele>794.0</ele><time>2026-04-06T15:25:32.6Z</time></trkpt><trkpt lat="44.6193783" lon="9.4898217"><ele>794.0</ele><time>2026-04-06T15:25:33.598Z</time></trkpt><trkpt lat="44.619545" lon="9.4898417"><ele>794.0</ele><time>2026-04-06T15:25:34.6Z</time></trkpt><trkpt lat="44.619715" lon="9.4898767"><ele>792.0</ele><time>2026-04-06T15:25:35.6Z</time></trkpt><trkpt lat="44.619885" lon="9.4899133"><ele>790.0</ele><time>2026-04-06T15:25:36.6Z</time></trkpt><trkpt lat="44.6200567" lon="9.48995"><ele>788.0</ele><time>2026-04-06T15:25:37.599Z</time></trkpt><trkpt lat="44.620225" lon="9.48998"><ele>787.3333333333334</ele><time>2026-04-06T15:25:38.6Z</time></trkpt><trkpt lat="44.6203883" lon="9.4900067"><ele>786.6666666666667</ele><time>2026-04-06T15:25:39.6Z</time></trkpt><trkpt lat="44.6205483" lon="9.4900233"><ele>786.0</ele><time>2026-04-06T15:25:40.599Z</time></trkpt><trkpt lat="44.6207083" lon="9.4900267"><ele>786.0</ele><time>2026-04-06T15:25:41.601Z</time></trkpt><trkpt lat="44.6208617" lon="9.4900167"><ele>786.0</ele><time>2026-04-06T15:25:42.599Z</time></trkpt><trkpt lat="44.6210117" lon="9.4899983"><ele>786.0</ele><time>2026-04-06T15:25:43.599Z</time></trkpt><trkpt lat="44.62116" lon="9.4899733"><ele>785.25</ele><time>2026-04-06T15:25:44.598Z</time></trkpt><trkpt lat="44.6213017" lon="9.4899733"><ele>784.5</ele><time>2026-04-06T15:25:45.599Z</time></trkpt><trkpt lat="44.6214367" lon="9.4900133"><ele>783.75</ele><time>2026-04-06T15:25:46.598Z</time></trkpt><trkpt lat="44.6215517" lon="9.4901033"><ele>783.0</ele><time>2026-04-06T15:25:47.599Z</time></trkpt><trkpt lat="44.6216467" lon="9.4902217"><ele>783.0</ele><time>2026-04-06T15:25:48.599Z</time></trkpt><trkpt lat="44.6217383" lon="9.4903567"><ele>783.0</ele><time>2026-04-06T15:25:49.599Z</time></trkpt><trkpt lat="44.62183" lon="9.4904883"><ele>783.0</ele><time>2026-04-06T15:25:50.598Z</time></trkpt><trkpt lat="44.62193" lon="9.4906083"><ele>783.0</ele><time>2026-04-06T15:25:51.599Z</time></trkpt><trkpt lat="44.6220333" lon="9.4907133"><ele>781.75</ele><time>2026-04-06T15:25:52.598Z</time></trkpt><trkpt lat="44.62214" lon="9.4908117"><ele>780.5</ele><time>2026-04-06T15:25:53.6Z</time></trkpt><trkpt lat="44.6222533" lon="9.4909033"><ele>779.25</ele><time>2026-04-06T15:25:54.599Z</time></trkpt><trkpt lat="44.622365" lon="9.4909933"><ele>778.0</ele><time>2026-04-06T15:25:55.598Z</time></trkpt><trkpt lat="44.62247" lon="9.491085"><ele>778.0</ele><time>2026-04-06T15:25:56.598Z</time></trkpt><trkpt lat="44.6225733" lon="9.491185"><ele>778.0</ele><time>2026-04-06T15:25:57.599Z</time></trkpt><trkpt lat="44.6226733" lon="9.491295"><ele>778.0</ele><time>2026-04-06T15:25:58.597Z</time></trkpt><trkpt lat="44.6227683" lon="9.4914067"><ele>778.0</ele><time>2026-04-06T15:25:59.599Z</time></trkpt><trkpt lat="44.6228633" lon="9.49152"><ele>774.75</ele><time>2026-04-06T15:26:00.599Z</time></trkpt><trkpt lat="44.622955" lon="9.4916317"><ele>771.5</ele><time>2026-04-06T15:26:01.599Z</time></trkpt><trkpt lat="44.6230467" lon="9.49174"><ele>768.25</ele><time>2026-04-06T15:26:02.599Z</time></trkpt><trkpt lat="44.623145" lon="9.4918333"><ele>765.0</ele><time>2026-04-06T15:26:03.599Z</time></trkpt><trkpt lat="44.6232517" lon="9.4918967"><ele>765.0</ele><time>2026-04-06T15:26:04.599Z</time></trkpt><trkpt lat="44.6233683" lon="9.4919317"><ele>765.0</ele><time>2026-04-06T15:26:05.6Z</time></trkpt><trkpt lat="44.623495" lon="9.491945"><ele>765.0</ele><time>2026-04-06T15:26:06.599Z</time></trkpt><trkpt lat="44.6236317" lon="9.4919483"><ele>765.0</ele><time>2026-04-06T15:26:07.598Z</time></trkpt><trkpt lat="44.623775" lon="9.4919517"><ele>765.0</ele><time>2026-04-06T15:26:08.599Z</time></trkpt><trkpt lat="44.6239217" lon="9.4919567"><ele>765.0</ele><time>2026-04-06T15:26:09.601Z</time></trkpt><trkpt lat="44.6240733" lon="9.4919633"><ele>765.0</ele><time>2026-04-06T15:26:10.599Z</time></trkpt><trkpt lat="44.6242217" lon="9.4919717"><ele>765.0</ele><time>2026-04-06T15:26:11.6Z</time></trkpt><trkpt lat="44.6243683" lon="9.4919833"><ele>763.5</ele><time>2026-04-06T15:26:12.599Z</time></trkpt><trkpt lat="44.6245117" lon="9.4919933"><ele>762.0</ele><time>2026-04-06T15:26:13.599Z</time></trkpt><trkpt lat="44.6246517" lon="9.4920017"><ele>760.5</ele><time>2026-04-06T15:26:14.599Z</time></trkpt><trkpt lat="44.62479" lon="9.4920083"><ele>759.0</ele><time>2026-04-06T15:26:15.598Z</time></trkpt><trkpt lat="44.6249217" lon="9.4920083"><ele>759.0</ele><time>2026-04-06T15:26:16.597Z</time></trkpt><trkpt lat="44.625045" lon="9.4919933"><ele>759.0</ele><time>2026-04-06T15:26:17.599Z</time></trkpt><trkpt lat="44.6251533" lon="9.4919383"><ele>759.0</ele><time>2026-04-06T15:26:18.599Z</time></trkpt><trkpt lat="44.6252383" lon="9.4918317"><ele>759.0</ele><time>2026-04-06T15:26:19.598Z</time></trkpt><trkpt lat="44.6252867" lon="9.49167"><ele>759.0</ele><time>2026-04-06T15:26:20.599Z</time></trkpt><trkpt lat="44.6253033" lon="9.4914883"><ele>759.0</ele><time>2026-04-06T15:26:21.599Z</time></trkpt><trkpt lat="44.62532" lon="9.49132"><ele>759.0</ele><time>2026-04-06T15:26:22.598Z</time></trkpt><trkpt lat="44.62536" lon="9.491165"><ele>759.0</ele><time>2026-04-06T15:26:23.599Z</time></trkpt><trkpt lat="44.6254333" lon="9.4910567"><ele>759.0</ele><time>2026-04-06T15:26:24.599Z</time></trkpt><trkpt lat="44.62553" lon="9.491015"><ele>759.0</ele><time>2026-04-06T15:26:25.598Z</time></trkpt><trkpt lat="44.62563" lon="9.4910467"><ele>759.0</ele><time>2026-04-06T15:26:26.599Z</time></trkpt><trkpt lat="44.6257233" lon="9.4911467"><ele>759.0</ele><time>2026-04-06T15:26:27.599Z</time></trkpt><trkpt lat="44.6257867" lon="9.4913167"><ele>759.0</ele><time>2026-04-06T15:26:28.598Z</time></trkpt><trkpt lat="44.6258167" lon="9.49152"><ele>759.0</ele><time>2026-04-06T15:26:29.598Z</time></trkpt><trkpt lat="44.6258367" lon="9.4917367"><ele>759.0</ele><time>2026-04-06T15:26:30.599Z</time></trkpt><trkpt lat="44.6258783" lon="9.4919433"><ele>755.0</ele><time>2026-04-06T15:26:31.599Z</time></trkpt><trkpt lat="44.6259467" lon="9.49213"><ele>751.0</ele><time>2026-04-06T15:26:32.599Z</time></trkpt><trkpt lat="44.6260167" lon="9.4923083"><ele>747.0</ele><time>2026-04-06T15:26:33.599Z</time></trkpt><trkpt lat="44.6260667" lon="9.4925017"><ele>743.0</ele><time>2026-04-06T15:26:34.6Z</time></trkpt><trkpt lat="44.6260933" lon="9.4927167"><ele>739.6666666666666</ele><time>2026-04-06T15:26:35.599Z</time></trkpt><trkpt lat="44.626105" lon="9.4929517"><ele>736.3333333333334</ele><time>2026-04-06T15:26:36.599Z</time></trkpt><trkpt lat="44.6261083" lon="9.4931867"><ele>733.0</ele><time>2026-04-06T15:26:37.599Z</time></trkpt><trkpt lat="44.62611" lon="9.4934"><ele>733.0</ele><time>2026-04-06T15:26:38.601Z</time></trkpt><trkpt lat="44.6261117" lon="9.4935817"><ele>733.0</ele><time>2026-04-06T15:26:39.598Z</time></trkpt><trkpt lat="44.6261367" lon="9.4937333"><ele>733.0</ele><time>2026-04-06T15:26:40.598Z</time></trkpt><trkpt lat="44.626195" lon="9.49386"><ele>733.0</ele><time>2026-04-06T15:26:41.599Z</time></trkpt><trkpt lat="44.626295" lon="9.493945"><ele>733.5</ele><time>2026-04-06T15:26:42.599Z</time></trkpt><trkpt lat="44.6264217" lon="9.4939983"><ele>734.0</ele><time>2026-04-06T15:26:43.598Z</time></trkpt><trkpt lat="44.6265567" lon="9.4940467"><ele>734.5</ele><time>2026-04-06T15:26:44.599Z</time></trkpt><trkpt lat="44.6266867" lon="9.494115"><ele>735.0</ele><time>2026-04-06T15:26:45.599Z</time></trkpt><trkpt lat="44.6268017" lon="9.49421"><ele>735.0</ele><time>2026-04-06T15:26:46.598Z</time></trkpt><trkpt lat="44.6269117" lon="9.4942883"><ele>735.0</ele><time>2026-04-06T15:26:47.597Z</time></trkpt><trkpt lat="44.627025" lon="9.494315"><ele>735.0</ele><time>2026-04-06T15:26:48.599Z</time></trkpt><trkpt lat="44.6271383" lon="9.4942667"><ele>735.0</ele><time>2026-04-06T15:26:49.599Z</time></trkpt><trkpt lat="44.6272383" lon="9.4941717"><ele>738.0</ele><time>2026-04-06T15:26:50.599Z</time></trkpt><trkpt lat="44.627305" lon="9.4940183"><ele>741.0</ele><time>2026-04-06T15:26:51.599Z</time></trkpt><trkpt lat="44.6273817" lon="9.49388"><ele>744.0</ele><time>2026-04-06T15:26:52.599Z</time></trkpt><trkpt lat="44.6274683" lon="9.4937567"><ele>747.0</ele><time>2026-04-06T15:26:53.599Z</time></trkpt><trkpt lat="44.62758" lon="9.493675"><ele>747.0</ele><time>2026-04-06T15:26:54.599Z</time></trkpt><trkpt lat="44.6277167" lon="9.4936267"><ele>747.0</ele><time>2026-04-06T15:26:55.599Z</time></trkpt><trkpt lat="44.62786" lon="9.4935867"><ele>747.0</ele><time>2026-04-06T15:26:56.599Z</time></trkpt><trkpt lat="44.6279933" lon="9.493535"><ele>747.0</ele><time>2026-04-06T15:26:57.598Z</time></trkpt><trkpt lat="44.6281017" lon="9.49344"><ele>745.0</ele><time>2026-04-06T15:26:58.6Z</time></trkpt><trkpt lat="44.62819" lon="9.4933033"><ele>743.0</ele><time>2026-04-06T15:26:59.599Z</time></trkpt><trkpt lat="44.62826" lon="9.49314"><ele>741.0</ele><time>2026-04-06T15:27:00.599Z</time></trkpt><trkpt lat="44.628345" lon="9.4929917"><ele>739.0</ele><time>2026-04-06T15:27:01.599Z</time></trkpt><trkpt lat="44.6284617" lon="9.4928833"><ele>739.0</ele><time>2026-04-06T15:27:02.599Z</time></trkpt><trkpt lat="44.628585" lon="9.492785"><ele>739.0</ele><time>2026-04-06T15:27:03.598Z</time></trkpt><trkpt lat="44.6286917" lon="9.4926533"><ele>739.0</ele><time>2026-04-06T15:27:04.598Z</time></trkpt><trkpt lat="44.6287783" lon="9.4924867"><ele>739.0</ele><time>2026-04-06T15:27:05.599Z</time></trkpt><trkpt lat="44.6288533" lon="9.49232"><ele>739.0</ele><time>2026-04-06T15:27:06.599Z</time></trkpt><trkpt lat="44.6289367" lon="9.4921833"><ele>739.0</ele><time>2026-04-06T15:27:07.599Z</time></trkpt><trkpt lat="44.6290383" lon="9.4920983"><ele>739.0</ele><time>2026-04-06T15:27:08.599Z</time></trkpt><trkpt lat="44.6291567" lon="9.49208"><ele>739.0</ele><time>2026-04-06T15:27:09.599Z</time></trkpt><trkpt lat="44.6293017" lon="9.4921167"><ele>730.6666666666667</ele><time>2026-04-06T15:27:10.599Z</time></trkpt><trkpt lat="44.62946" lon="9.49219"><ele>722.3333333333334</ele><time>2026-04-06T15:27:11.599Z</time></trkpt><trkpt lat="44.6296267" lon="9.4922733"><ele>714.0</ele><time>2026-04-06T15:27:12.599Z</time></trkpt><trkpt lat="44.6297917" lon="9.492355"><ele>714.0</ele><time>2026-04-06T15:27:13.601Z</time></trkpt><trkpt lat="44.62995" lon="9.4924267"><ele>714.0</ele><time>2026-04-06T15:27:14.6Z</time></trkpt><trkpt lat="44.6301" lon="9.4924967"><ele>714.0</ele><time>2026-04-06T15:27:15.599Z</time></trkpt><trkpt lat="44.6302483" lon="9.4925467"><ele>713.6666666666666</ele><time>2026-04-06T15:27:16.599Z</time></trkpt><trkpt lat="44.6304067" lon="9.4925617"><ele>713.3333333333333</ele><time>2026-04-06T15:27:17.599Z</time></trkpt><trkpt lat="44.6305733" lon="9.4925567"><ele>713.0</ele><time>2026-04-06T15:27:18.599Z</time></trkpt><trkpt lat="44.6307383" lon="9.4925483"><ele>713.0</ele><time>2026-04-06T15:27:19.6Z</time></trkpt><trkpt lat="44.6308967" lon="9.4925433"><ele>713.0</ele><time>2026-04-06T15:27:20.599Z</time></trkpt><trkpt lat="44.6310467" lon="9.4925467"><ele>713.0</ele><time>2026-04-06T15:27:21.599Z</time></trkpt><trkpt lat="44.6311783" lon="9.4925717"><ele>713.0</ele><time>2026-04-06T15:27:22.6Z</time></trkpt><trkpt lat="44.63129" lon="9.4926233"><ele>710.75</ele><time>2026-04-06T15:27:23.599Z</time></trkpt><trkpt lat="44.631385" lon="9.4927317"><ele>708.5</ele><time>2026-04-06T15:27:24.599Z</time></trkpt><trkpt lat="44.63145" lon="9.4928783"><ele>706.25</ele><time>2026-04-06T15:27:25.599Z</time></trkpt><trkpt lat="44.6315033" lon="9.4930333"><ele>704.0</ele><time>2026-04-06T15:27:26.599Z</time></trkpt><trkpt lat="44.6315717" lon="9.4931717"><ele>704.0</ele><time>2026-04-06T15:27:27.598Z</time></trkpt><trkpt lat="44.6316733" lon="9.4932883"><ele>704.0</ele><time>2026-04-06T15:27:28.599Z</time></trkpt><trkpt lat="44.631795" lon="9.4933783"><ele>704.0</ele><time>2026-04-06T15:27:29.599Z</time></trkpt><trkpt lat="44.6319233" lon="9.493465"><ele>704.0</ele><time>2026-04-06T15:27:30.599Z</time></trkpt><trkpt lat="44.6320433" lon="9.4935667"><ele>706.0</ele><time>2026-04-06T15:27:31.599Z</time></trkpt><trkpt lat="44.6321517" lon="9.4936867"><ele>708.0</ele><time>2026-04-06T15:27:32.599Z</time></trkpt><trkpt lat="44.6322467" lon="9.4938183"><ele>710.0</ele><time>2026-04-06T15:27:33.599Z</time></trkpt><trkpt lat="44.632335" lon="9.4939633"><ele>712.0</ele><time>2026-04-06T15:27:34.599Z</time></trkpt><trkpt lat="44.6324167" lon="9.4941183"><ele>708.0</ele><time>2026-04-06T15:27:35.599Z</time></trkpt><trkpt lat="44.6324883" lon="9.4942833"><ele>704.0</ele><time>2026-04-06T15:27:36.599Z</time></trkpt><trkpt lat="44.632545" lon="9.4944617"><ele>700.0</ele><time>2026-04-06T15:27:37.599Z</time></trkpt><trkpt lat="44.632585" lon="9.494645"><ele>696.0</ele><time>2026-04-06T15:27:38.599Z</time></trkpt><trkpt lat="44.6326117" lon="9.4948317"><ele>693.5999999999999</ele><time>2026-04-06T15:27:39.599Z</time></trkpt><trkpt lat="44.6326467" lon="9.4949983"><ele>691.2</ele><time>2026-04-06T15:27:40.599Z</time></trkpt><trkpt lat="44.6326983" lon="9.4951367"><ele>688.8</ele><time>2026-04-06T15:27:41.599Z</time></trkpt><trkpt lat="44.6327783" lon="9.495225"><ele>686.4000000000001</ele><time>2026-04-06T15:27:42.599Z</time></trkpt><trkpt lat="44.6328767" lon="9.4952617"><ele>684.0</ele><time>2026-04-06T15:27:43.599Z</time></trkpt><trkpt lat="44.63299" lon="9.4952367"><ele>684.0</ele><time>2026-04-06T15:27:44.599Z</time></trkpt><trkpt lat="44.6331067" lon="9.4951533"><ele>684.0</ele><time>2026-04-06T15:27:45.599Z</time></trkpt><trkpt lat="44.6332267" lon="9.4950267"><ele>684.0</ele><time>2026-04-06T15:27:46.599Z</time></trkpt><trkpt lat="44.6333433" lon="9.49488"><ele>684.0</ele><time>2026-04-06T15:27:47.599Z</time></trkpt><trkpt lat="44.63345" lon="9.4947317"><ele>684.0</ele><time>2026-04-06T15:27:48.599Z</time></trkpt><trkpt lat="44.633555" lon="9.49459"><ele>684.0</ele><time>2026-04-06T15:27:49.599Z</time></trkpt><trkpt lat="44.63366" lon="9.4944617"><ele>684.0</ele><time>2026-04-06T15:27:50.599Z</time></trkpt><trkpt lat="44.6337567" lon="9.49434"><ele>684.0</ele><time>2026-04-06T15:27:51.6Z</time></trkpt><trkpt lat="44.6338417" lon="9.4942233"><ele>683.2</ele><time>2026-04-06T15:27:52.6Z</time></trkpt><trkpt lat="44.6339117" lon="9.4941033"><ele>682.4000000000001</ele><time>2026-04-06T15:27:53.6Z</time></trkpt><trkpt lat="44.6339583" lon="9.493965"><ele>681.6</ele><time>2026-04-06T15:27:54.6Z</time></trkpt><trkpt lat="44.63399" lon="9.4938217"><ele>680.8</ele><time>2026-04-06T15:27:55.6Z</time></trkpt><trkpt lat="44.6340317" lon="9.4936867"><ele>680.0</ele><time>2026-04-06T15:27:56.6Z</time></trkpt><trkpt lat="44.6340983" lon="9.49357"><ele>680.0</ele><time>2026-04-06T15:27:57.599Z</time></trkpt><trkpt lat="44.6341867" lon="9.4934783"><ele>680.0</ele><time>2026-04-06T15:27:58.601Z</time></trkpt><trkpt lat="44.6342867" lon="9.4934267"><ele>680.0</ele><time>2026-04-06T15:27:59.601Z</time></trkpt><trkpt lat="44.6343967" lon="9.4933917"><ele>680.0</ele><time>2026-04-06T15:28:00.601Z</time></trkpt><trkpt lat="44.6345267" lon="9.49337"><ele>678.75</ele><time>2026-04-06T15:28:01.603Z</time></trkpt><trkpt lat="44.6346667" lon="9.4933483"><ele>677.5</ele><time>2026-04-06T15:28:02.601Z</time></trkpt><trkpt lat="44.6348033" lon="9.4933283"><ele>676.25</ele><time>2026-04-06T15:28:03.598Z</time></trkpt><trkpt lat="44.6349333" lon="9.4933217"><ele>675.0</ele><time>2026-04-06T15:28:04.598Z</time></trkpt><trkpt lat="44.6350617" lon="9.4933317"><ele>675.0</ele><time>2026-04-06T15:28:05.599Z</time></trkpt><trkpt lat="44.635185" lon="9.4933683"><ele>675.0</ele><time>2026-04-06T15:28:06.599Z</time></trkpt><trkpt lat="44.6353033" lon="9.493435"><ele>675.0</ele><time>2026-04-06T15:28:07.599Z</time></trkpt><trkpt lat="44.6354133" lon="9.4935233"><ele>675.0</ele><time>2026-04-06T15:28:08.6Z</time></trkpt><trkpt lat="44.6355183" lon="9.4936167"><ele>675.5</ele><time>2026-04-06T15:28:09.599Z</time></trkpt><trkpt lat="44.6356167" lon="9.493695"><ele>676.0</ele><time>2026-04-06T15:28:10.599Z</time></trkpt><trkpt lat="44.6357233" lon="9.4937283"><ele>676.5</ele><time>2026-04-06T15:28:11.598Z</time></trkpt><trkpt lat="44.63585" lon="9.4937033"><ele>677.0</ele><time>2026-04-06T15:28:12.599Z</time></trkpt><trkpt lat="44.635975" lon="9.4936367"><ele>677.0</ele><time>2026-04-06T15:28:13.599Z</time></trkpt><trkpt lat="44.6361167" lon="9.4935717"><ele>677.0</ele><time>2026-04-06T15:28:14.6Z</time></trkpt><trkpt lat="44.63627" lon="9.4935367"><ele>677.0</ele><time>2026-04-06T15:28:15.599Z</time></trkpt><trkpt lat="44.6364233" lon="9.4935317"><ele>676.5</ele><time>2026-04-06T15:28:16.603Z</time></trkpt><trkpt lat="44.6365733" lon="9.4935517"><ele>676.0</ele><time>2026-04-06T15:28:17.598Z</time></trkpt><trkpt lat="44.63671" lon="9.4935983"><ele>675.5</ele><time>2026-04-06T15:28:18.598Z</time></trkpt><trkpt lat="44.6368433" lon="9.4936783"><ele>675.0</ele><time>2026-04-06T15:28:19.598Z</time></trkpt><trkpt lat="44.6369733" lon="9.4938"><ele>669.6666666666666</ele><time>2026-04-06T15:28:20.599Z</time></trkpt><trkpt lat="44.637105" lon="9.4939433"><ele>664.3333333333333</ele><time>2026-04-06T15:28:21.599Z</time></trkpt><trkpt lat="44.6372333" lon="9.4940967"><ele>659.0</ele><time>2026-04-06T15:28:22.599Z</time></trkpt><trkpt lat="44.6373617" lon="9.4942483"><ele>659.0</ele><time>2026-04-06T15:28:23.6Z</time></trkpt><trkpt lat="44.6374967" lon="9.4943867"><ele>659.0</ele><time>2026-04-06T15:28:24.599Z</time></trkpt><trkpt lat="44.6376333" lon="9.4945017"><ele>659.0</ele><time>2026-04-06T15:28:25.599Z</time></trkpt><trkpt lat="44.6377817" lon="9.494595"><ele>655.6666666666666</ele><time>2026-04-06T15:28:26.599Z</time></trkpt><trkpt lat="44.63794" lon="9.4946733"><ele>652.3333333333334</ele><time>2026-04-06T15:28:27.599Z</time></trkpt><trkpt lat="44.6380983" lon="9.4947467"><ele>649.0</ele><time>2026-04-06T15:28:28.599Z</time></trkpt><trkpt lat="44.6382567" lon="9.494825"><ele>649.0</ele><time>2026-04-06T15:28:29.598Z</time></trkpt><trkpt lat="44.6384083" lon="9.4948967"><ele>649.0</ele><time>2026-04-06T15:28:30.598Z</time></trkpt><trkpt lat="44.6385583" lon="9.4949567"><ele>649.0</ele><time>2026-04-06T15:28:31.599Z</time></trkpt><trkpt lat="44.638705" lon="9.4949967"><ele>647.0</ele><time>2026-04-06T15:28:32.599Z</time></trkpt><trkpt lat="44.638855" lon="9.495005"><ele>645.0</ele><time>2026-04-06T15:28:33.599Z</time></trkpt><trkpt lat="44.6390133" lon="9.494975"><ele>643.0</ele><time>2026-04-06T15:28:34.599Z</time></trkpt><trkpt lat="44.639175" lon="9.4949267"><ele>643.0</ele><time>2026-04-06T15:28:35.599Z</time></trkpt><trkpt lat="44.6393417" lon="9.4948667"><ele>643.0</ele><time>2026-04-06T15:28:36.599Z</time></trkpt><trkpt lat="44.6395017" lon="9.4948017"><ele>643.0</ele><time>2026-04-06T15:28:37.599Z</time></trkpt><trkpt lat="44.6396583" lon="9.4947367"><ele>641.3333333333334</ele><time>2026-04-06T15:28:38.599Z</time></trkpt><trkpt lat="44.6398117" lon="9.4946783"><ele>639.6666666666666</ele><time>2026-04-06T15:28:39.598Z</time></trkpt><trkpt lat="44.6399683" lon="9.4946283"><ele>638.0</ele><time>2026-04-06T15:28:40.599Z</time></trkpt><trkpt lat="44.6401317" lon="9.4945983"><ele>638.6666666666666</ele><time>2026-04-06T15:28:41.599Z</time></trkpt><trkpt lat="44.6403033" lon="9.4945883"><ele>639.3333333333334</ele><time>2026-04-06T15:28:42.599Z</time></trkpt><trkpt lat="44.6404683" lon="9.4945967"><ele>640.0</ele><time>2026-04-06T15:28:43.599Z</time></trkpt><trkpt lat="44.64063" lon="9.4946183"><ele>640.0</ele><time>2026-04-06T15:28:44.6Z</time></trkpt><trkpt lat="44.64078" lon="9.49467"><ele>640.0</ele><time>2026-04-06T15:28:45.598Z</time></trkpt><trkpt lat="44.6409267" lon="9.4947633"><ele>640.0</ele><time>2026-04-06T15:28:46.6Z</time></trkpt><trkpt lat="44.6410817" lon="9.4948917"><ele>644.6666666666667</ele><time>2026-04-06T15:28:47.6Z</time></trkpt><trkpt lat="44.6412467" lon="9.49503"><ele>649.3333333333334</ele><time>2026-04-06T15:28:48.599Z</time></trkpt><trkpt lat="44.6414233" lon="9.49517"><ele>654.0</ele><time>2026-04-06T15:28:49.6Z</time></trkpt><trkpt lat="44.641605" lon="9.4953083"><ele>651.6666666666666</ele><time>2026-04-06T15:28:50.601Z</time></trkpt><trkpt lat="44.6417833" lon="9.4954433"><ele>649.3333333333333</ele><time>2026-04-06T15:28:51.598Z</time></trkpt><trkpt lat="44.64195" lon="9.4955717"><ele>647.0</ele><time>2026-04-06T15:28:52.599Z</time></trkpt><trkpt lat="44.6421067" lon="9.4957"><ele>647.0</ele><time>2026-04-06T15:28:53.599Z</time></trkpt><trkpt lat="44.6422483" lon="9.495835"><ele>647.0</ele><time>2026-04-06T15:28:54.599Z</time></trkpt><trkpt lat="44.6423717" lon="9.49599"><ele>647.0</ele><time>2026-04-06T15:28:55.598Z</time></trkpt><trkpt lat="44.64248" lon="9.4961533"><ele>643.6666666666666</ele><time>2026-04-06T15:28:56.599Z</time></trkpt><trkpt lat="44.6425867" lon="9.496315"><ele>640.3333333333334</ele><time>2026-04-06T15:28:57.598Z</time></trkpt><trkpt lat="44.6426967" lon="9.49646"><ele>637.0</ele><time>2026-04-06T15:28:58.599Z</time></trkpt><trkpt lat="44.6428167" lon="9.4965933"><ele>637.0</ele><time>2026-04-06T15:28:59.599Z</time></trkpt><trkpt lat="44.6429467" lon="9.4967083"><ele>637.0</ele><time>2026-04-06T15:29:00.599Z</time></trkpt><trkpt lat="44.6430817" lon="9.4968133"><ele>637.0</ele><time>2026-04-06T15:29:01.599Z</time></trkpt><trkpt lat="44.6432067" lon="9.4969267"><ele>637.0</ele><time>2026-04-06T15:29:02.6Z</time></trkpt><trkpt lat="44.643325" lon="9.49704"><ele>637.0</ele><time>2026-04-06T15:29:03.599Z</time></trkpt><trkpt lat="44.643435" lon="9.497155"><ele>637.0</ele><time>2026-04-06T15:29:04.6Z</time></trkpt><trkpt lat="44.64353" lon="9.497275"><ele>637.0</ele><time>2026-04-06T15:29:05.599Z</time></trkpt><trkpt lat="44.6436167" lon="9.4973917"><ele>636.2</ele><time>2026-04-06T15:29:06.598Z</time></trkpt><trkpt lat="44.6436967" lon="9.4975133"><ele>635.4000000000001</ele><time>2026-04-06T15:29:07.598Z</time></trkpt><trkpt lat="44.64377" lon="9.4976367"><ele>634.5999999999999</ele><time>2026-04-06T15:29:08.599Z</time></trkpt><trkpt lat="44.6438367" lon="9.4977533"><ele>633.8</ele><time>2026-04-06T15:29:09.598Z</time></trkpt><trkpt lat="44.64389" lon="9.4978567"><ele>633.0</ele><time>2026-04-06T15:29:10.598Z</time></trkpt><trkpt lat="44.6439283" lon="9.4979483"><ele>631.6666666666666</ele><time>2026-04-06T15:29:11.599Z</time></trkpt><trkpt lat="44.64395" lon="9.4980417"><ele>630.3333333333334</ele><time>2026-04-06T15:29:12.599Z</time></trkpt><trkpt lat="44.6439533" lon="9.4981383"><ele>629.0</ele><time>2026-04-06T15:29:13.598Z</time></trkpt><trkpt lat="44.6439417" lon="9.49824"><ele>627.6666666666667</ele><time>2026-04-06T15:29:14.599Z</time></trkpt><trkpt lat="44.64391" lon="9.4983467"><ele>626.3333333333334</ele><time>2026-04-06T15:29:15.598Z</time></trkpt><trkpt lat="44.6438533" lon="9.4984567"><ele>625.0</ele><time>2026-04-06T15:29:16.599Z</time></trkpt><trkpt lat="44.6437917" lon="9.4985733"><ele>625.0</ele><time>2026-04-06T15:29:17.599Z</time></trkpt><trkpt lat="44.6437267" lon="9.49868"><ele>625.0</ele><time>2026-04-06T15:29:18.599Z</time></trkpt><trkpt lat="44.6436683" lon="9.49878"><ele>625.0</ele><time>2026-04-06T15:29:19.599Z</time></trkpt><trkpt lat="44.6436133" lon="9.4988733"><ele>625.0</ele><time>2026-04-06T15:29:20.6Z</time></trkpt><trkpt lat="44.643565" lon="9.4989683"><ele>625.0</ele><time>2026-04-06T15:29:21.599Z</time></trkpt><trkpt lat="44.6435233" lon="9.4990517"><ele>625.0</ele><time>2026-04-06T15:29:22.597Z</time></trkpt><trkpt lat="44.6434667" lon="9.4991433"><ele>625.0</ele><time>2026-04-06T15:29:24.598Z</time></trkpt><trkpt lat="44.6433717" lon="9.4992033"><ele>625.0</ele><time>2026-04-06T15:42:23.599Z</time></trkpt><trkpt lat="44.6434217" lon="9.4992983"><ele>625.0</ele><time>2026-04-06T15:42:26.6Z</time></trkpt><trkpt lat="44.6434783" lon="9.49941"><ele>625.0</ele><time>2026-04-06T15:42:28.601Z</time></trkpt><trkpt lat="44.6435133" lon="9.4994883"><ele>625.0</ele><time>2026-04-06T15:42:29.6Z</time></trkpt><trkpt lat="44.6435617" lon="9.499575"><ele>625.0</ele><time>2026-04-06T15:42:30.6Z</time></trkpt><trkpt lat="44.6436283" lon="9.49966"><ele>625.8</ele><time>2026-04-06T15:42:31.599Z</time></trkpt><trkpt lat="44.6437033" lon="9.4997383"><ele>626.6</ele><time>2026-04-06T15:42:32.6Z</time></trkpt><trkpt lat="44.6437867" lon="9.499815"><ele>627.4</ele><time>2026-04-06T15:42:33.599Z</time></trkpt><trkpt lat="44.643875" lon="9.4998917"><ele>628.2</ele><time>2026-04-06T15:42:34.599Z</time></trkpt><trkpt lat="44.6439683" lon="9.4999717"><ele>629.0</ele><time>2026-04-06T15:42:35.6Z</time></trkpt><trkpt lat="44.6440733" lon="9.5000567"><ele>629.0</ele><time>2026-04-06T15:42:36.599Z</time></trkpt><trkpt lat="44.6441867" lon="9.5001417"><ele>629.0</ele><time>2026-04-06T15:42:37.6Z</time></trkpt><trkpt lat="44.6443083" lon="9.5002233"><ele>629.0</ele><time>2026-04-06T15:42:38.599Z</time></trkpt><trkpt lat="44.6444317" lon="9.5003033"><ele>629.0</ele><time>2026-04-06T15:42:39.601Z</time></trkpt><trkpt lat="44.6445483" lon="9.500385"><ele>629.75</ele><time>2026-04-06T15:42:40.599Z</time></trkpt><trkpt lat="44.6446617" lon="9.5004733"><ele>630.5</ele><time>2026-04-06T15:42:41.599Z</time></trkpt><trkpt lat="44.6447717" lon="9.5005733"><ele>631.25</ele><time>2026-04-06T15:42:42.599Z</time></trkpt><trkpt lat="44.64488" lon="9.5006867"><ele>632.0</ele><time>2026-04-06T15:42:43.601Z</time></trkpt><trkpt lat="44.6449833" lon="9.5008133"><ele>632.0</ele><time>2026-04-06T15:42:44.602Z</time></trkpt><trkpt lat="44.645075" lon="9.5009567"><ele>632.0</ele><time>2026-04-06T15:42:45.599Z</time></trkpt><trkpt lat="44.645155" lon="9.5011183"><ele>632.0</ele><time>2026-04-06T15:42:46.6Z</time></trkpt><trkpt lat="44.645225" lon="9.5012967"><ele>632.0</ele><time>2026-04-06T15:42:47.6Z</time></trkpt><trkpt lat="44.6452883" lon="9.5014933"><ele>632.0</ele><time>2026-04-06T15:42:48.598Z</time></trkpt><trkpt lat="44.6453533" lon="9.5017083"><ele>632.0</ele><time>2026-04-06T15:42:49.598Z</time></trkpt><trkpt lat="44.6454183" lon="9.501925"><ele>632.0</ele><time>2026-04-06T15:42:50.599Z</time></trkpt><trkpt lat="44.64549" lon="9.5021367"><ele>632.0</ele><time>2026-04-06T15:42:51.6Z</time></trkpt><trkpt lat="44.645565" lon="9.50234"><ele>632.0</ele><time>2026-04-06T15:42:52.601Z</time></trkpt><trkpt lat="44.6456467" lon="9.5025433"><ele>632.0</ele><time>2026-04-06T15:42:53.601Z</time></trkpt><trkpt lat="44.6457283" lon="9.5027567"><ele>635.3333333333333</ele><time>2026-04-06T15:42:54.598Z</time></trkpt><trkpt lat="44.6457967" lon="9.50298"><ele>638.6666666666666</ele><time>2026-04-06T15:42:55.601Z</time></trkpt><trkpt lat="44.6458483" lon="9.503205"><ele>642.0</ele><time>2026-04-06T15:42:56.599Z</time></trkpt><trkpt lat="44.6458917" lon="9.503415"><ele>642.0</ele><time>2026-04-06T15:42:57.599Z</time></trkpt><trkpt lat="44.6459367" lon="9.5036033"><ele>642.0</ele><time>2026-04-06T15:42:58.601Z</time></trkpt><trkpt lat="44.6459917" lon="9.5037717"><ele>642.0</ele><time>2026-04-06T15:42:59.599Z</time></trkpt><trkpt lat="44.64605" lon="9.50393"><ele>642.0</ele><time>2026-04-06T15:43:00.597Z</time></trkpt><trkpt lat="44.6460967" lon="9.50408"><ele>644.5</ele><time>2026-04-06T15:43:01.599Z</time></trkpt><trkpt lat="44.6461217" lon="9.5042283"><ele>647.0</ele><time>2026-04-06T15:43:02.601Z</time></trkpt><trkpt lat="44.64613" lon="9.504385"><ele>649.5</ele><time>2026-04-06T15:43:03.601Z</time></trkpt><trkpt lat="44.6461167" lon="9.5045533"><ele>652.0</ele><time>2026-04-06T15:43:04.599Z</time></trkpt><trkpt lat="44.64609" lon="9.5047233"><ele>653.6</ele><time>2026-04-06T15:43:05.6Z</time></trkpt><trkpt lat="44.6460617" lon="9.5048783"><ele>655.2</ele><time>2026-04-06T15:43:06.599Z</time></trkpt><trkpt lat="44.646045" lon="9.5050267"><ele>656.8</ele><time>2026-04-06T15:43:07.6Z</time></trkpt><trkpt lat="44.64605" lon="9.5051717"><ele>658.4</ele><time>2026-04-06T15:43:08.601Z</time></trkpt><trkpt lat="44.6460767" lon="9.5053083"><ele>660.0</ele><time>2026-04-06T15:43:09.601Z</time></trkpt><trkpt lat="44.6461317" lon="9.505435"><ele>651.6666666666666</ele><time>2026-04-06T15:43:10.6Z</time></trkpt><trkpt lat="44.6462233" lon="9.5055683"><ele>643.3333333333333</ele><time>2026-04-06T15:43:11.599Z</time></trkpt><trkpt lat="44.6463367" lon="9.5057217"><ele>635.0</ele><time>2026-04-06T15:43:12.6Z</time></trkpt><trkpt lat="44.64647" lon="9.5059117"><ele>635.0</ele><time>2026-04-06T15:43:13.601Z</time></trkpt><trkpt lat="44.6466067" lon="9.50612"><ele>635.0</ele><time>2026-04-06T15:43:14.6Z</time></trkpt><trkpt lat="44.64674" lon="9.506325"><ele>635.0</ele><time>2026-04-06T15:43:15.601Z</time></trkpt><trkpt lat="44.6468633" lon="9.5065"><ele>630.0</ele><time>2026-04-06T15:43:16.6Z</time></trkpt><trkpt lat="44.6469833" lon="9.5066617"><ele>625.0</ele><time>2026-04-06T15:43:17.599Z</time></trkpt><trkpt lat="44.6470967" lon="9.5068183"><ele>620.0</ele><time>2026-04-06T15:43:18.6Z</time></trkpt><trkpt lat="44.647195" lon="9.5069767"><ele>624.25</ele><time>2026-04-06T15:43:19.601Z</time></trkpt><trkpt lat="44.6472717" lon="9.5071517"><ele>628.5</ele><time>2026-04-06T15:43:20.6Z</time></trkpt><trkpt lat="44.647325" lon="9.5073433"><ele>632.75</ele><time>2026-04-06T15:43:21.599Z</time></trkpt><trkpt lat="44.6473617" lon="9.5075383"><ele>637.0</ele><time>2026-04-06T15:43:22.599Z</time></trkpt><trkpt lat="44.6474067" lon="9.5077233"><ele>637.0</ele><time>2026-04-06T15:43:23.601Z</time></trkpt><trkpt lat="44.647475" lon="9.5078783"><ele>637.0</ele><time>2026-04-06T15:43:24.602Z</time></trkpt><trkpt lat="44.6475683" lon="9.5079983"><ele>637.0</ele><time>2026-04-06T15:43:25.6Z</time></trkpt><trkpt lat="44.6476833" lon="9.5080833"><ele>637.0</ele><time>2026-04-06T15:43:26.599Z</time></trkpt><trkpt lat="44.6478133" lon="9.5081183"><ele>636.75</ele><time>2026-04-06T15:43:27.6Z</time></trkpt><trkpt lat="44.6479467" lon="9.5081317"><ele>636.5</ele><time>2026-04-06T15:43:28.598Z</time></trkpt><trkpt lat="44.6480733" lon="9.5081567"><ele>636.25</ele><time>2026-04-06T15:43:29.6Z</time></trkpt><trkpt lat="44.6481917" lon="9.5082283"><ele>636.0</ele><time>2026-04-06T15:43:30.6Z</time></trkpt><trkpt lat="44.6482933" lon="9.5083567"><ele>636.0</ele><time>2026-04-06T15:43:31.6Z</time></trkpt><trkpt lat="44.648395" lon="9.5085267"><ele>636.0</ele><time>2026-04-06T15:43:32.601Z</time></trkpt><trkpt lat="44.648495" lon="9.5087333"><ele>636.0</ele><time>2026-04-06T15:43:33.6Z</time></trkpt><trkpt lat="44.648585" lon="9.5089617"><ele>633.0</ele><time>2026-04-06T15:43:34.6Z</time></trkpt><trkpt lat="44.648665" lon="9.5091967"><ele>630.0</ele><time>2026-04-06T15:43:35.599Z</time></trkpt><trkpt lat="44.6487417" lon="9.5094317"><ele>627.0</ele><time>2026-04-06T15:43:36.599Z</time></trkpt><trkpt lat="44.6488183" lon="9.5096567"><ele>627.0</ele><time>2026-04-06T15:43:37.601Z</time></trkpt><trkpt lat="44.6488867" lon="9.50988"><ele>627.0</ele><time>2026-04-06T15:43:38.6Z</time></trkpt><trkpt lat="44.6489517" lon="9.5101117"><ele>627.0</ele><time>2026-04-06T15:43:39.601Z</time></trkpt><trkpt lat="44.6490167" lon="9.51035"><ele>629.0</ele><time>2026-04-06T15:43:40.6Z</time></trkpt><trkpt lat="44.64908" lon="9.51057"><ele>631.0</ele><time>2026-04-06T15:43:41.6Z</time></trkpt><trkpt lat="44.649155" lon="9.5107717"><ele>633.0</ele><time>2026-04-06T15:43:42.6Z</time></trkpt><trkpt lat="44.649235" lon="9.51095"><ele>633.0</ele><time>2026-04-06T15:43:43.6Z</time></trkpt><trkpt lat="44.6493133" lon="9.5111133"><ele>633.0</ele><time>2026-04-06T15:43:44.599Z</time></trkpt><trkpt lat="44.649375" lon="9.5112867"><ele>633.0</ele><time>2026-04-06T15:43:45.6Z</time></trkpt><trkpt lat="44.6494" lon="9.5114767"><ele>633.0</ele><time>2026-04-06T15:43:46.6Z</time></trkpt><trkpt lat="44.6494017" lon="9.51169"><ele>635.0</ele><time>2026-04-06T15:43:47.598Z</time></trkpt><trkpt lat="44.649405" lon="9.5119233"><ele>637.0</ele><time>2026-04-06T15:43:48.599Z</time></trkpt><trkpt lat="44.649435" lon="9.5121583"><ele>639.0</ele><time>2026-04-06T15:43:49.599Z</time></trkpt><trkpt lat="44.6494983" lon="9.5123817"><ele>635.25</ele><time>2026-04-06T15:43:50.6Z</time></trkpt><trkpt lat="44.6495733" lon="9.51258"><ele>631.5</ele><time>2026-04-06T15:43:51.6Z</time></trkpt><trkpt lat="44.6496317" lon="9.512765"><ele>627.75</ele><time>2026-04-06T15:43:52.599Z</time></trkpt><trkpt lat="44.6496567" lon="9.512945"><ele>624.0</ele><time>2026-04-06T15:43:53.598Z</time></trkpt><trkpt lat="44.6496433" lon="9.5131417"><ele>624.0</ele><time>2026-04-06T15:43:54.599Z</time></trkpt><trkpt lat="44.6495967" lon="9.513345"><ele>624.0</ele><time>2026-04-06T15:43:55.601Z</time></trkpt><trkpt lat="44.6495367" lon="9.5135433"><ele>624.0</ele><time>2026-04-06T15:43:56.6Z</time></trkpt><trkpt lat="44.6494767" lon="9.513725"><ele>624.0</ele><time>2026-04-06T15:43:57.6Z</time></trkpt><trkpt lat="44.6494417" lon="9.5139"><ele>624.0</ele><time>2026-04-06T15:43:58.599Z</time></trkpt><trkpt lat="44.6494383" lon="9.514075"><ele>624.0</ele><time>2026-04-06T15:43:59.598Z</time></trkpt><trkpt lat="44.649475" lon="9.51425"><ele>624.0</ele><time>2026-04-06T15:44:00.598Z</time></trkpt><trkpt lat="44.6495633" lon="9.51441"><ele>624.0</ele><time>2026-04-06T15:44:01.599Z</time></trkpt><trkpt lat="44.6496783" lon="9.5145417"><ele>624.5</ele><time>2026-04-06T15:44:02.6Z</time></trkpt><trkpt lat="44.6498033" lon="9.5146467"><ele>625.0</ele><time>2026-04-06T15:44:03.598Z</time></trkpt><trkpt lat="44.649915" lon="9.5147433"><ele>625.5</ele><time>2026-04-06T15:44:04.598Z</time></trkpt><trkpt lat="44.6499917" lon="9.5148617"><ele>626.0</ele><time>2026-04-06T15:44:05.598Z</time></trkpt><trkpt lat="44.65003" lon="9.5150067"><ele>626.0</ele><time>2026-04-06T15:44:06.599Z</time></trkpt><trkpt lat="44.65004" lon="9.51519"><ele>626.0</ele><time>2026-04-06T15:44:07.599Z</time></trkpt><trkpt lat="44.6500317" lon="9.5153917"><ele>626.0</ele><time>2026-04-06T15:44:08.6Z</time></trkpt><trkpt lat="44.6500083" lon="9.5155883"><ele>626.0</ele><time>2026-04-06T15:44:09.599Z</time></trkpt><trkpt lat="44.6499783" lon="9.515775"><ele>626.25</ele><time>2026-04-06T15:44:10.6Z</time></trkpt><trkpt lat="44.6499483" lon="9.5159533"><ele>626.5</ele><time>2026-04-06T15:44:11.6Z</time></trkpt><trkpt lat="44.6499467" lon="9.51612"><ele>626.75</ele><time>2026-04-06T15:44:12.601Z</time></trkpt><trkpt lat="44.6499833" lon="9.5162933"><ele>627.0</ele><time>2026-04-06T15:44:13.599Z</time></trkpt><trkpt lat="44.6500367" lon="9.5164783"><ele>627.0</ele><time>2026-04-06T15:44:14.6Z</time></trkpt><trkpt lat="44.6500833" lon="9.5166633"><ele>627.0</ele><time>2026-04-06T15:44:15.599Z</time></trkpt><trkpt lat="44.6501133" lon="9.5168267"><ele>627.0</ele><time>2026-04-06T15:44:16.599Z</time></trkpt><trkpt lat="44.6501317" lon="9.5169633"><ele>627.0</ele><time>2026-04-06T15:44:17.599Z</time></trkpt><trkpt lat="44.6501517" lon="9.5171017"><ele>627.8000000000001</ele><time>2026-04-06T15:44:18.599Z</time></trkpt><trkpt lat="44.6501783" lon="9.517245"><ele>628.6</ele><time>2026-04-06T15:44:19.599Z</time></trkpt><trkpt lat="44.6502083" lon="9.5173817"><ele>629.4000000000001</ele><time>2026-04-06T15:44:20.6Z</time></trkpt><trkpt lat="44.6502433" lon="9.5175217"><ele>630.2</ele><time>2026-04-06T15:44:21.6Z</time></trkpt><trkpt lat="44.6502883" lon="9.5176683"><ele>631.0</ele><time>2026-04-06T15:44:22.601Z</time></trkpt><trkpt lat="44.650325" lon="9.517825"><ele>623.5</ele><time>2026-04-06T15:44:23.6Z</time></trkpt><trkpt lat="44.6503583" lon="9.518"><ele>616.0</ele><time>2026-04-06T15:44:24.6Z</time></trkpt><trkpt lat="44.6503733" lon="9.518185"><ele>608.5</ele><time>2026-04-06T15:44:25.601Z</time></trkpt><trkpt lat="44.6503867" lon="9.51837"><ele>601.0</ele><time>2026-04-06T15:44:26.601Z</time></trkpt><trkpt lat="44.6504033" lon="9.5185767"><ele>601.3333333333334</ele><time>2026-04-06T15:44:27.6Z</time></trkpt><trkpt lat="44.650425" lon="9.5188083"><ele>601.6666666666666</ele><time>2026-04-06T15:44:28.6Z</time></trkpt><trkpt lat="44.650455" lon="9.51908"><ele>602.0</ele><time>2026-04-06T15:44:29.601Z</time></trkpt><trkpt lat="44.6505067" lon="9.5193933"><ele>602.0</ele><time>2026-04-06T15:44:30.6Z</time></trkpt><trkpt lat="44.6505717" lon="9.519705"><ele>602.0</ele><time>2026-04-06T15:44:31.599Z</time></trkpt><trkpt lat="44.6506317" lon="9.5199933"><ele>602.0</ele><time>2026-04-06T15:44:32.6Z</time></trkpt><trkpt lat="44.6506817" lon="9.5202683"><ele>604.3333333333333</ele><time>2026-04-06T15:44:33.601Z</time></trkpt><trkpt lat="44.6507317" lon="9.52054"><ele>606.6666666666666</ele><time>2026-04-06T15:44:34.6Z</time></trkpt><trkpt lat="44.6508" lon="9.5208"><ele>609.0</ele><time>2026-04-06T15:44:35.6Z</time></trkpt><trkpt lat="44.6508867" lon="9.5210433"><ele>613.3333333333334</ele><time>2026-04-06T15:44:36.6Z</time></trkpt><trkpt lat="44.6509767" lon="9.5212733"><ele>617.6666666666667</ele><time>2026-04-06T15:44:37.601Z</time></trkpt><trkpt lat="44.65105" lon="9.5214983"><ele>622.0</ele><time>2026-04-06T15:44:38.601Z</time></trkpt><trkpt lat="44.6511067" lon="9.5217317"><ele>607.6666666666667</ele><time>2026-04-06T15:44:39.6Z</time></trkpt><trkpt lat="44.6511517" lon="9.52198"><ele>593.3333333333334</ele><time>2026-04-06T15:44:40.598Z</time></trkpt><trkpt lat="44.65118" lon="9.522255"><ele>579.0</ele><time>2026-04-06T15:44:41.6Z</time></trkpt><trkpt lat="44.6512017" lon="9.5225317"><ele>579.0</ele><time>2026-04-06T15:44:42.598Z</time></trkpt><trkpt lat="44.6512217" lon="9.52279"><ele>579.0</ele><time>2026-04-06T15:44:43.6Z</time></trkpt><trkpt lat="44.6512417" lon="9.5230283"><ele>579.0</ele><time>2026-04-06T15:44:44.601Z</time></trkpt><trkpt lat="44.6512667" lon="9.5232467"><ele>581.3333333333334</ele><time>2026-04-06T15:44:45.599Z</time></trkpt><trkpt lat="44.651315" lon="9.5234517"><ele>583.6666666666667</ele><time>2026-04-06T15:44:46.597Z</time></trkpt><trkpt lat="44.651395" lon="9.5236467"><ele>586.0</ele><time>2026-04-06T15:44:47.598Z</time></trkpt><trkpt lat="44.651485" lon="9.523835"><ele>588.5</ele><time>2026-04-06T15:44:48.6Z</time></trkpt><trkpt lat="44.6515583" lon="9.524025"><ele>591.0</ele><time>2026-04-06T15:44:49.6Z</time></trkpt><trkpt lat="44.6516067" lon="9.524215"><ele>593.5</ele><time>2026-04-06T15:44:50.6Z</time></trkpt><trkpt lat="44.65164" lon="9.5243967"><ele>596.0</ele><time>2026-04-06T15:44:51.598Z</time></trkpt><trkpt lat="44.65168" lon="9.5245633"><ele>592.25</ele><time>2026-04-06T15:44:52.598Z</time></trkpt><trkpt lat="44.65175" lon="9.5247117"><ele>588.5</ele><time>2026-04-06T15:44:53.599Z</time></trkpt><trkpt lat="44.6518483" lon="9.5248283"><ele>584.75</ele><time>2026-04-06T15:44:54.599Z</time></trkpt><trkpt lat="44.65197" lon="9.5248983"><ele>581.0</ele><time>2026-04-06T15:44:55.598Z</time></trkpt><trkpt lat="44.65209" lon="9.5249567"><ele>581.0</ele><time>2026-04-06T15:44:56.6Z</time></trkpt><trkpt lat="44.652185" lon="9.5250267"><ele>581.0</ele><time>2026-04-06T15:44:57.598Z</time></trkpt><trkpt lat="44.6522667" lon="9.5251333"><ele>581.0</ele><time>2026-04-06T15:44:58.6Z</time></trkpt><trkpt lat="44.6523267" lon="9.5252817"><ele>581.0</ele><time>2026-04-06T15:44:59.6Z</time></trkpt><trkpt lat="44.6523767" lon="9.5254533"><ele>584.75</ele><time>2026-04-06T15:45:00.598Z</time></trkpt><trkpt lat="44.6524367" lon="9.5256217"><ele>588.5</ele><time>2026-04-06T15:45:01.599Z</time></trkpt><trkpt lat="44.6525083" lon="9.5257717"><ele>592.25</ele><time>2026-04-06T15:45:02.601Z</time></trkpt><trkpt lat="44.6525967" lon="9.5259167"><ele>596.0</ele><time>2026-04-06T15:45:03.6Z</time></trkpt><trkpt lat="44.652685" lon="9.52606"><ele>596.0</ele><time>2026-04-06T15:45:04.6Z</time></trkpt><trkpt lat="44.652765" lon="9.5261983"><ele>596.0</ele><time>2026-04-06T15:45:05.598Z</time></trkpt><trkpt lat="44.6528317" lon="9.52632"><ele>596.0</ele><time>2026-04-06T15:45:06.6Z</time></trkpt><trkpt lat="44.6528817" lon="9.526445"><ele>596.0</ele><time>2026-04-06T15:45:07.6Z</time></trkpt><trkpt lat="44.65291" lon="9.5265783"><ele>596.0</ele><time>2026-04-06T15:45:08.601Z</time></trkpt><trkpt lat="44.6529067" lon="9.5267133"><ele>595.8</ele><time>2026-04-06T15:45:09.598Z</time></trkpt><trkpt lat="44.652875" lon="9.5268383"><ele>595.6</ele><time>2026-04-06T15:45:10.6Z</time></trkpt><trkpt lat="44.6528133" lon="9.5269583"><ele>595.4</ele><time>2026-04-06T15:45:11.599Z</time></trkpt><trkpt lat="44.65274" lon="9.52708"><ele>595.2</ele><time>2026-04-06T15:45:12.6Z</time></trkpt><trkpt lat="44.6526767" lon="9.5272033"><ele>595.0</ele><time>2026-04-06T15:45:13.599Z</time></trkpt><trkpt lat="44.652635" lon="9.5273433"><ele>595.0</ele><time>2026-04-06T15:45:14.599Z</time></trkpt><trkpt lat="44.65263" lon="9.5275083"><ele>595.0</ele><time>2026-04-06T15:45:15.599Z</time></trkpt><trkpt lat="44.6526567" lon="9.52768"><ele>595.0</ele><time>2026-04-06T15:45:16.6Z</time></trkpt><trkpt lat="44.6527183" lon="9.5278483"><ele>595.0</ele><time>2026-04-06T15:45:17.6Z</time></trkpt><trkpt lat="44.6527983" lon="9.52802"><ele>592.25</ele><time>2026-04-06T15:45:18.599Z</time></trkpt><trkpt lat="44.652875" lon="9.5281983"><ele>589.5</ele><time>2026-04-06T15:45:19.599Z</time></trkpt><trkpt lat="44.6529367" lon="9.5283833"><ele>586.75</ele><time>2026-04-06T15:45:20.598Z</time></trkpt><trkpt lat="44.6529983" lon="9.5285617"><ele>584.0</ele><time>2026-04-06T15:45:21.599Z</time></trkpt><trkpt lat="44.653075" lon="9.5287367"><ele>584.0</ele><time>2026-04-06T15:45:22.6Z</time></trkpt><trkpt lat="44.6531767" lon="9.5288967"><ele>584.0</ele><time>2026-04-06T15:45:23.601Z</time></trkpt><trkpt lat="44.6533017" lon="9.5290433"><ele>584.0</ele><time>2026-04-06T15:45:24.598Z</time></trkpt><trkpt lat="44.6534417" lon="9.5291783"><ele>584.0</ele><time>2026-04-06T15:45:25.6Z</time></trkpt><trkpt lat="44.6535733" lon="9.5293033"><ele>584.0</ele><time>2026-04-06T15:45:26.601Z</time></trkpt><trkpt lat="44.653685" lon="9.5294283"><ele>584.0</ele><time>2026-04-06T15:45:27.601Z</time></trkpt><trkpt lat="44.65378" lon="9.52957"><ele>584.0</ele><time>2026-04-06T15:45:28.599Z</time></trkpt><trkpt lat="44.6538417" lon="9.5297283"><ele>582.25</ele><time>2026-04-06T15:45:29.6Z</time></trkpt><trkpt lat="44.6538733" lon="9.5299"><ele>580.5</ele><time>2026-04-06T15:45:30.599Z</time></trkpt><trkpt lat="44.6538833" lon="9.5300717"><ele>578.75</ele><time>2026-04-06T15:45:31.599Z</time></trkpt><trkpt lat="44.6538717" lon="9.53025"><ele>577.0</ele><time>2026-04-06T15:45:32.599Z</time></trkpt><trkpt lat="44.6538517" lon="9.5304433"><ele>576.6666666666667</ele><time>2026-04-06T15:45:33.6Z</time></trkpt><trkpt lat="44.65385" lon="9.53065"><ele>576.3333333333334</ele><time>2026-04-06T15:45:34.598Z</time></trkpt><trkpt lat="44.653875" lon="9.53086"><ele>576.0</ele><time>2026-04-06T15:45:35.601Z</time></trkpt><trkpt lat="44.6539133" lon="9.5310783"><ele>575.6666666666666</ele><time>2026-04-06T15:45:36.6Z</time></trkpt><trkpt lat="44.6539567" lon="9.5313083"><ele>575.3333333333333</ele><time>2026-04-06T15:45:37.599Z</time></trkpt><trkpt lat="44.6540067" lon="9.5315433"><ele>575.0</ele><time>2026-04-06T15:45:38.6Z</time></trkpt><trkpt lat="44.6540583" lon="9.5317783"><ele>575.0</ele><time>2026-04-06T15:45:39.598Z</time></trkpt><trkpt lat="44.6541183" lon="9.5320033"><ele>575.0</ele><time>2026-04-06T15:45:40.601Z</time></trkpt><trkpt lat="44.654185" lon="9.5322133"><ele>575.0</ele><time>2026-04-06T15:45:41.6Z</time></trkpt><trkpt lat="44.6542633" lon="9.5324167"><ele>575.0</ele><time>2026-04-06T15:45:42.6Z</time></trkpt><trkpt lat="44.6543517" lon="9.5326033"><ele>575.0</ele><time>2026-04-06T15:45:43.6Z</time></trkpt><trkpt lat="44.6544567" lon="9.532775"><ele>575.0</ele><time>2026-04-06T15:45:44.6Z</time></trkpt><trkpt lat="44.6545717" lon="9.53293"><ele>574.5</ele><time>2026-04-06T15:45:45.6Z</time></trkpt><trkpt lat="44.6546883" lon="9.5330717"><ele>574.0</ele><time>2026-04-06T15:45:46.601Z</time></trkpt><trkpt lat="44.65481" lon="9.5331967"><ele>573.5</ele><time>2026-04-06T15:45:47.6Z</time></trkpt><trkpt lat="44.65493" lon="9.5333017"><ele>573.0</ele><time>2026-04-06T15:45:48.599Z</time></trkpt><trkpt lat="44.6550417" lon="9.5333983"><ele>573.0</ele><time>2026-04-06T15:45:49.6Z</time></trkpt><trkpt lat="44.6551433" lon="9.5335"><ele>573.0</ele><time>2026-04-06T15:45:50.601Z</time></trkpt><trkpt lat="44.6552283" lon="9.5336233"><ele>573.0</ele><time>2026-04-06T15:45:51.6Z</time></trkpt><trkpt lat="44.6552867" lon="9.5337683"><ele>573.0</ele><time>2026-04-06T15:45:52.599Z</time></trkpt><trkpt lat="44.655315" lon="9.5339333"><ele>576.0</ele><time>2026-04-06T15:45:53.6Z</time></trkpt><trkpt lat="44.655315" lon="9.534115"><ele>579.0</ele><time>2026-04-06T15:45:54.599Z</time></trkpt><trkpt lat="44.65528" lon="9.5343133"><ele>582.0</ele><time>2026-04-06T15:45:55.599Z</time></trkpt><trkpt lat="44.65523" lon="9.5345167"><ele>585.0</ele><time>2026-04-06T15:45:56.602Z</time></trkpt><trkpt lat="44.65518" lon="9.534715"><ele>585.0</ele><time>2026-04-06T15:45:57.599Z</time></trkpt><trkpt lat="44.65515" lon="9.5349133"><ele>585.0</ele><time>2026-04-06T15:45:58.598Z</time></trkpt><trkpt lat="44.65515" lon="9.5351117"><ele>585.0</ele><time>2026-04-06T15:45:59.601Z</time></trkpt><trkpt lat="44.6551817" lon="9.5353033"><ele>585.0</ele><time>2026-04-06T15:46:00.6Z</time></trkpt><trkpt lat="44.6552483" lon="9.5354817"><ele>579.6666666666666</ele><time>2026-04-06T15:46:01.598Z</time></trkpt><trkpt lat="44.6553533" lon="9.53564"><ele>574.3333333333333</ele><time>2026-04-06T15:46:02.599Z</time></trkpt><trkpt lat="44.6554767" lon="9.5357817"><ele>569.0</ele><time>2026-04-06T15:46:03.6Z</time></trkpt><trkpt lat="44.6556" lon="9.5359317"><ele>569.0</ele><time>2026-04-06T15:46:04.601Z</time></trkpt><trkpt lat="44.655705" lon="9.5360983"><ele>569.0</ele><time>2026-04-06T15:46:05.601Z</time></trkpt><trkpt lat="44.6557933" lon="9.536285"><ele>569.0</ele><time>2026-04-06T15:46:06.599Z</time></trkpt><trkpt lat="44.6558667" lon="9.5364833"><ele>572.6666666666666</ele><time>2026-04-06T15:46:07.6Z</time></trkpt><trkpt lat="44.65594" lon="9.5366867"><ele>576.3333333333334</ele><time>2026-04-06T15:46:08.6Z</time></trkpt><trkpt lat="44.6560233" lon="9.5368833"><ele>580.0</ele><time>2026-04-06T15:46:09.598Z</time></trkpt><trkpt lat="44.6561167" lon="9.5370617"><ele>576.6666666666667</ele><time>2026-04-06T15:46:10.597Z</time></trkpt><trkpt lat="44.65622" lon="9.5372283"><ele>573.3333333333334</ele><time>2026-04-06T15:46:11.599Z</time></trkpt><trkpt lat="44.6563233" lon="9.5373867"><ele>570.0</ele><time>2026-04-06T15:46:12.598Z</time></trkpt><trkpt lat="44.6564283" lon="9.5375417"><ele>570.0</ele><time>2026-04-06T15:46:13.598Z</time></trkpt><trkpt lat="44.65654" lon="9.537685"><ele>570.0</ele><time>2026-04-06T15:46:14.598Z</time></trkpt><trkpt lat="44.6566567" lon="9.5378017"><ele>570.0</ele><time>2026-04-06T15:46:15.599Z</time></trkpt><trkpt lat="44.656775" lon="9.5378783"><ele>570.0</ele><time>2026-04-06T15:46:16.597Z</time></trkpt><trkpt lat="44.6568983" lon="9.5379217"><ele>572.0</ele><time>2026-04-06T15:46:17.599Z</time></trkpt><trkpt lat="44.6570183" lon="9.5379467"><ele>574.0</ele><time>2026-04-06T15:46:18.598Z</time></trkpt><trkpt lat="44.6571367" lon="9.5379467"><ele>576.0</ele><time>2026-04-06T15:46:19.598Z</time></trkpt><trkpt lat="44.6572467" lon="9.53798"><ele>578.0</ele><time>2026-04-06T15:46:20.598Z</time></trkpt><trkpt lat="44.6573583" lon="9.538035"><ele>578.0</ele><time>2026-04-06T15:46:21.597Z</time></trkpt><trkpt lat="44.6574667" lon="9.5381183"><ele>578.0</ele><time>2026-04-06T15:46:22.599Z</time></trkpt><trkpt lat="44.6575633" lon="9.5382083"><ele>578.0</ele><time>2026-04-06T15:46:23.599Z</time></trkpt><trkpt lat="44.6576583" lon="9.538285"><ele>578.0</ele><time>2026-04-06T15:46:24.599Z</time></trkpt><trkpt lat="44.6578665" lon="9.5384408"><ele>574.0</ele><time>2026-04-06T15:46:26.861Z</time></trkpt><trkpt lat="44.6579594" lon="9.5384333"><ele>570.0</ele><time>2026-04-06T15:46:28.202Z</time></trkpt><trkpt lat="44.6580653" lon="9.5385978"><ele>566.0</ele><time>2026-04-06T15:46:29.599Z</time></trkpt><trkpt lat="44.658133" lon="9.5387551"><ele>562.0</ele><time>2026-04-06T15:46:30.602Z</time></trkpt><trkpt lat="44.658193" lon="9.5389056"><ele>562.0</ele><time>2026-04-06T15:46:31.603Z</time></trkpt><trkpt lat="44.6582475" lon="9.539061"><ele>562.0</ele><time>2026-04-06T15:46:32.599Z</time></trkpt><trkpt lat="44.658303" lon="9.5392124"><ele>562.0</ele><time>2026-04-06T15:46:33.602Z</time></trkpt><trkpt lat="44.6583532" lon="9.5393599"><ele>562.0</ele><time>2026-04-06T15:46:34.6Z</time></trkpt><trkpt lat="44.6583962" lon="9.539509"><ele>562.25</ele><time>2026-04-06T15:46:35.603Z</time></trkpt><trkpt lat="44.658427" lon="9.5396592"><ele>562.5</ele><time>2026-04-06T15:46:36.602Z</time></trkpt><trkpt lat="44.6584296" lon="9.5398181"><ele>562.75</ele><time>2026-04-06T15:46:37.603Z</time></trkpt><trkpt lat="44.6584092" lon="9.5399921"><ele>563.0</ele><time>2026-04-06T15:46:38.604Z</time></trkpt><trkpt lat="44.6583963" lon="9.5401627"><ele>563.0</ele><time>2026-04-06T15:46:39.602Z</time></trkpt><trkpt lat="44.6583891" lon="9.5403339"><ele>563.0</ele><time>2026-04-06T15:46:40.603Z</time></trkpt><trkpt lat="44.6584022" lon="9.5404948"><ele>563.0</ele><time>2026-04-06T15:46:41.602Z</time></trkpt><trkpt lat="44.6584344" lon="9.5406404"><ele>563.0</ele><time>2026-04-06T15:46:42.603Z</time></trkpt><trkpt lat="44.6584887" lon="9.5407646"><ele>563.0</ele><time>2026-04-06T15:46:43.6Z</time></trkpt><trkpt lat="44.6585658" lon="9.5408661"><ele>559.3333333333333</ele><time>2026-04-06T15:46:44.602Z</time></trkpt><trkpt lat="44.6586883" lon="9.5409467"><ele>555.6666666666666</ele><time>2026-04-06T15:46:45.602Z</time></trkpt><trkpt lat="44.6588433" lon="9.541035"><ele>552.0</ele><time>2026-04-06T15:46:46.602Z</time></trkpt><trkpt lat="44.6590133" lon="9.5411267"><ele>551.6666666666666</ele><time>2026-04-06T15:46:47.602Z</time></trkpt><trkpt lat="44.65918" lon="9.54122"><ele>551.3333333333333</ele><time>2026-04-06T15:46:48.603Z</time></trkpt><trkpt lat="44.65934" lon="9.5413117"><ele>551.0</ele><time>2026-04-06T15:46:49.602Z</time></trkpt><trkpt lat="44.6594933" lon="9.5414083"><ele>551.0</ele><time>2026-04-06T15:46:50.603Z</time></trkpt><trkpt lat="44.6596367" lon="9.5415233"><ele>551.0</ele><time>2026-04-06T15:46:51.602Z</time></trkpt><trkpt lat="44.659765" lon="9.5416533"><ele>551.0</ele><time>2026-04-06T15:46:52.601Z</time></trkpt><trkpt lat="44.65988" lon="9.5417867"><ele>551.0</ele><time>2026-04-06T15:46:53.603Z</time></trkpt><trkpt lat="44.6599883" lon="9.5419217"><ele>551.0</ele><time>2026-04-06T15:46:54.601Z</time></trkpt><trkpt lat="44.6600917" lon="9.5420483"><ele>551.0</ele><time>2026-04-06T15:46:55.603Z</time></trkpt><trkpt lat="44.6601967" lon="9.5421567"><ele>551.0</ele><time>2026-04-06T15:46:56.601Z</time></trkpt><trkpt lat="44.660305" lon="9.5422433"><ele>549.5</ele><time>2026-04-06T15:46:57.601Z</time></trkpt><trkpt lat="44.6604133" lon="9.5423233"><ele>548.0</ele><time>2026-04-06T15:46:58.604Z</time></trkpt><trkpt lat="44.6605117" lon="9.54241"><ele>546.5</ele><time>2026-04-06T15:46:59.604Z</time></trkpt><trkpt lat="44.6605967" lon="9.5425133"><ele>545.0</ele><time>2026-04-06T15:47:00.604Z</time></trkpt><trkpt lat="44.6606667" lon="9.54264"><ele>545.0</ele><time>2026-04-06T15:47:01.603Z</time></trkpt><trkpt lat="44.660725" lon="9.5427933"><ele>545.0</ele><time>2026-04-06T15:47:02.605Z</time></trkpt><trkpt lat="44.6607733" lon="9.5429633"><ele>545.0</ele><time>2026-04-06T15:47:03.603Z</time></trkpt><trkpt lat="44.6608133" lon="9.54314"><ele>545.0</ele><time>2026-04-06T15:47:04.6Z</time></trkpt><trkpt lat="44.6608517" lon="9.5433233"><ele>545.5</ele><time>2026-04-06T15:47:05.602Z</time></trkpt><trkpt lat="44.660885" lon="9.54351"><ele>546.0</ele><time>2026-04-06T15:47:06.601Z</time></trkpt><trkpt lat="44.6609117" lon="9.5436933"><ele>546.5</ele><time>2026-04-06T15:47:07.602Z</time></trkpt><trkpt lat="44.6609283" lon="9.5438783"><ele>547.0</ele><time>2026-04-06T15:47:08.604Z</time></trkpt><trkpt lat="44.6609367" lon="9.5440633"><ele>547.0</ele><time>2026-04-06T15:47:09.601Z</time></trkpt><trkpt lat="44.66094" lon="9.5442533"><ele>547.0</ele><time>2026-04-06T15:47:10.599Z</time></trkpt><trkpt lat="44.6609367" lon="9.5444433"><ele>547.0</ele><time>2026-04-06T15:47:11.604Z</time></trkpt><trkpt lat="44.6609333" lon="9.544635"><ele>547.0</ele><time>2026-04-06T15:47:12.604Z</time></trkpt><trkpt lat="44.6609267" lon="9.5448217"><ele>546.25</ele><time>2026-04-06T15:47:13.603Z</time></trkpt><trkpt lat="44.66092" lon="9.5450067"><ele>545.5</ele><time>2026-04-06T15:47:14.603Z</time></trkpt><trkpt lat="44.66091" lon="9.5451833"><ele>544.75</ele><time>2026-04-06T15:47:15.603Z</time></trkpt><trkpt lat="44.6609033" lon="9.5453517"><ele>544.0</ele><time>2026-04-06T15:47:16.602Z</time></trkpt><trkpt lat="44.6609033" lon="9.54551"><ele>543.4</ele><time>2026-04-06T15:47:17.603Z</time></trkpt><trkpt lat="44.6609067" lon="9.54566"><ele>542.8</ele><time>2026-04-06T15:47:18.604Z</time></trkpt><trkpt lat="44.66092" lon="9.5458083"><ele>542.2</ele><time>2026-04-06T15:47:19.604Z</time></trkpt><trkpt lat="44.660945" lon="9.54595"><ele>541.6</ele><time>2026-04-06T15:47:20.603Z</time></trkpt><trkpt lat="44.6609933" lon="9.546085"><ele>541.0</ele><time>2026-04-06T15:47:21.601Z</time></trkpt><trkpt lat="44.6610617" lon="9.5462067"><ele>538.25</ele><time>2026-04-06T15:47:22.603Z</time></trkpt><trkpt lat="44.6611433" lon="9.546315"><ele>535.5</ele><time>2026-04-06T15:47:23.602Z</time></trkpt><trkpt lat="44.6612383" lon="9.5464117"><ele>532.75</ele><time>2026-04-06T15:47:24.603Z</time></trkpt><trkpt lat="44.6613433" lon="9.5464783"><ele>530.0</ele><time>2026-04-06T15:47:25.598Z</time></trkpt><trkpt lat="44.6614567" lon="9.5465133"><ele>530.0</ele><time>2026-04-06T15:47:26.603Z</time></trkpt><trkpt lat="44.6615817" lon="9.5465083"><ele>530.0</ele><time>2026-04-06T15:47:27.601Z</time></trkpt><trkpt lat="44.661715" lon="9.5464683"><ele>530.0</ele><time>2026-04-06T15:47:28.6Z</time></trkpt><trkpt lat="44.6618617" lon="9.5464133"><ele>530.0</ele><time>2026-04-06T15:47:29.602Z</time></trkpt><trkpt lat="44.66202" lon="9.5463583"><ele>528.0</ele><time>2026-04-06T15:47:30.601Z</time></trkpt><trkpt lat="44.66218" lon="9.5463117"><ele>526.0</ele><time>2026-04-06T15:47:31.6Z</time></trkpt><trkpt lat="44.662335" lon="9.5462733"><ele>524.0</ele><time>2026-04-06T15:47:32.602Z</time></trkpt><trkpt lat="44.6624783" lon="9.54624"><ele>524.6</ele><time>2026-04-06T15:47:33.605Z</time></trkpt><trkpt lat="44.6626067" lon="9.54621"><ele>525.2</ele><time>2026-04-06T15:47:34.602Z</time></trkpt><trkpt lat="44.6627217" lon="9.5461833"><ele>525.8000000000001</ele><time>2026-04-06T15:47:35.601Z</time></trkpt><trkpt lat="44.662825" lon="9.5461583"><ele>526.4</ele><time>2026-04-06T15:47:36.603Z</time></trkpt><trkpt lat="44.66292" lon="9.5461383"><ele>527.0</ele><time>2026-04-06T15:47:37.601Z</time></trkpt><trkpt lat="44.663015" lon="9.546135"><ele>528.8333333333333</ele><time>2026-04-06T15:47:38.602Z</time></trkpt><trkpt lat="44.6631033" lon="9.546155"><ele>530.6666666666666</ele><time>2026-04-06T15:47:39.602Z</time></trkpt><trkpt lat="44.6631833" lon="9.5461967"><ele>532.5</ele><time>2026-04-06T15:47:40.602Z</time></trkpt><trkpt lat="44.66325" lon="9.5462567"><ele>534.3333333333334</ele><time>2026-04-06T15:47:41.603Z</time></trkpt><trkpt lat="44.6633017" lon="9.5463317"><ele>536.1666666666667</ele><time>2026-04-06T15:47:42.602Z</time></trkpt><trkpt lat="44.663335" lon="9.5464267"><ele>538.0</ele><time>2026-04-06T15:47:43.601Z</time></trkpt><trkpt lat="44.6633533" lon="9.5465367"><ele>538.0</ele><time>2026-04-06T15:47:44.602Z</time></trkpt><trkpt lat="44.6633567" lon="9.546655"><ele>538.0</ele><time>2026-04-06T15:47:45.6Z</time></trkpt><trkpt lat="44.6633467" lon="9.5467783"><ele>538.0</ele><time>2026-04-06T15:47:46.601Z</time></trkpt><trkpt lat="44.6633167" lon="9.546895"><ele>538.0</ele><time>2026-04-06T15:47:47.601Z</time></trkpt><trkpt lat="44.663275" lon="9.547005"><ele>538.0</ele><time>2026-04-06T15:47:48.601Z</time></trkpt><trkpt lat="44.6632333" lon="9.5471183"><ele>538.0</ele><time>2026-04-06T15:47:49.603Z</time></trkpt><trkpt lat="44.6632067" lon="9.5472383"><ele>538.25</ele><time>2026-04-06T15:47:50.601Z</time></trkpt><trkpt lat="44.663205" lon="9.54737"><ele>538.5</ele><time>2026-04-06T15:47:51.601Z</time></trkpt><trkpt lat="44.6632383" lon="9.5475217"><ele>538.75</ele><time>2026-04-06T15:47:52.599Z</time></trkpt><trkpt lat="44.6632983" lon="9.5476867"><ele>539.0</ele><time>2026-04-06T15:47:53.602Z</time></trkpt><trkpt lat="44.6633767" lon="9.5478733"><ele>535.6666666666666</ele><time>2026-04-06T15:47:54.602Z</time></trkpt><trkpt lat="44.6634617" lon="9.5480833"><ele>532.3333333333334</ele><time>2026-04-06T15:47:55.601Z</time></trkpt><trkpt lat="44.6635483" lon="9.5483"><ele>529.0</ele><time>2026-04-06T15:47:56.602Z</time></trkpt><trkpt lat="44.6636417" lon="9.548505"><ele>535.6666666666667</ele><time>2026-04-06T15:47:57.603Z</time></trkpt><trkpt lat="44.66374" lon="9.5487"><ele>542.3333333333334</ele><time>2026-04-06T15:47:58.602Z</time></trkpt><trkpt lat="44.6638367" lon="9.5488983"><ele>549.0</ele><time>2026-04-06T15:47:59.602Z</time></trkpt><trkpt lat="44.6639267" lon="9.549115"><ele>549.0</ele><time>2026-04-06T15:48:00.602Z</time></trkpt><trkpt lat="44.6640033" lon="9.5493433"><ele>549.0</ele><time>2026-04-06T15:48:01.602Z</time></trkpt><trkpt lat="44.6640683" lon="9.5495667"><ele>549.0</ele><time>2026-04-06T15:48:02.602Z</time></trkpt><trkpt lat="44.6641367" lon="9.54978"><ele>544.3333333333334</ele><time>2026-04-06T15:48:03.601Z</time></trkpt><trkpt lat="44.6642183" lon="9.55"><ele>539.6666666666667</ele><time>2026-04-06T15:48:04.602Z</time></trkpt><trkpt lat="44.664315" lon="9.550225"><ele>535.0</ele><time>2026-04-06T15:48:05.602Z</time></trkpt><trkpt lat="44.6644" lon="9.5504383"><ele>537.75</ele><time>2026-04-06T15:48:06.6Z</time></trkpt><trkpt lat="44.6644767" lon="9.550635"><ele>540.5</ele><time>2026-04-06T15:48:07.601Z</time></trkpt><trkpt lat="44.6645517" lon="9.55081"><ele>543.25</ele><time>2026-04-06T15:48:08.601Z</time></trkpt><trkpt lat="44.6646167" lon="9.550965"><ele>546.0</ele><time>2026-04-06T15:48:09.599Z</time></trkpt><trkpt lat="44.6646767" lon="9.551095"><ele>545.6</ele><time>2026-04-06T15:48:10.601Z</time></trkpt><trkpt lat="44.664725" lon="9.55121"><ele>545.2</ele><time>2026-04-06T15:48:11.602Z</time></trkpt><trkpt lat="44.66476" lon="9.551325"><ele>544.8</ele><time>2026-04-06T15:48:12.602Z</time></trkpt><trkpt lat="44.6647683" lon="9.55145"><ele>544.4</ele><time>2026-04-06T15:48:13.602Z</time></trkpt><trkpt lat="44.664755" lon="9.5516033"><ele>544.0</ele><time>2026-04-06T15:48:14.602Z</time></trkpt><trkpt lat="44.664715" lon="9.5518"><ele>544.0</ele><time>2026-04-06T15:48:15.602Z</time></trkpt><trkpt lat="44.6646667" lon="9.551995"><ele>544.0</ele><time>2026-04-06T15:48:16.599Z</time></trkpt><trkpt lat="44.6646233" lon="9.552175"><ele>544.0</ele><time>2026-04-06T15:48:17.603Z</time></trkpt><trkpt lat="44.6645917" lon="9.552335"><ele>544.0</ele><time>2026-04-06T15:48:18.602Z</time></trkpt><trkpt lat="44.6645733" lon="9.5524783"><ele>544.0</ele><time>2026-04-06T15:48:19.603Z</time></trkpt><trkpt lat="44.66457" lon="9.5526083"><ele>544.0</ele><time>2026-04-06T15:48:20.603Z</time></trkpt><trkpt lat="44.6645867" lon="9.5527383"><ele>544.0</ele><time>2026-04-06T15:48:21.601Z</time></trkpt><trkpt lat="44.6646383" lon="9.55291"><ele>544.0</ele><time>2026-04-06T15:48:22.602Z</time></trkpt><trkpt lat="44.6647017" lon="9.5531267"><ele>543.3333333333334</ele><time>2026-04-06T15:48:23.6Z</time></trkpt><trkpt lat="44.66477" lon="9.553375"><ele>542.6666666666666</ele><time>2026-04-06T15:48:24.601Z</time></trkpt><trkpt lat="44.6648483" lon="9.5536417"><ele>542.0</ele><time>2026-04-06T15:48:25.602Z</time></trkpt><trkpt lat="44.6649283" lon="9.5539183"><ele>539.6666666666666</ele><time>2026-04-06T15:48:26.602Z</time></trkpt><trkpt lat="44.6650083" lon="9.5541933"><ele>537.3333333333334</ele><time>2026-04-06T15:48:27.602Z</time></trkpt><trkpt lat="44.66509" lon="9.5544733"><ele>535.0</ele><time>2026-04-06T15:48:28.601Z</time></trkpt><trkpt lat="44.665165" lon="9.5547533"><ele>530.6666666666667</ele><time>2026-04-06T15:48:29.602Z</time></trkpt><trkpt lat="44.6652383" lon="9.5550233"><ele>526.3333333333334</ele><time>2026-04-06T15:48:30.601Z</time></trkpt><trkpt lat="44.66531" lon="9.5552917"><ele>522.0</ele><time>2026-04-06T15:48:31.6Z</time></trkpt><trkpt lat="44.66538" lon="9.55556"><ele>526.3333333333334</ele><time>2026-04-06T15:48:32.602Z</time></trkpt><trkpt lat="44.6654467" lon="9.5558333"><ele>530.6666666666667</ele><time>2026-04-06T15:48:33.603Z</time></trkpt><trkpt lat="44.6655067" lon="9.5561117"><ele>535.0</ele><time>2026-04-06T15:48:34.602Z</time></trkpt><trkpt lat="44.6655617" lon="9.5564"><ele>535.0</ele><time>2026-04-06T15:48:35.601Z</time></trkpt><trkpt lat="44.66561" lon="9.556695"><ele>535.0</ele><time>2026-04-06T15:48:36.6Z</time></trkpt><trkpt lat="44.665655" lon="9.5569883"><ele>535.0</ele><time>2026-04-06T15:48:37.603Z</time></trkpt><trkpt lat="44.6656917" lon="9.557275"><ele>531.6666666666667</ele><time>2026-04-06T15:48:38.602Z</time></trkpt><trkpt lat="44.6657283" lon="9.55755"><ele>528.3333333333334</ele><time>2026-04-06T15:48:39.603Z</time></trkpt><trkpt lat="44.665775" lon="9.55782"><ele>525.0</ele><time>2026-04-06T15:48:40.599Z</time></trkpt><trkpt lat="44.665835" lon="9.5580883"><ele>523.3333333333334</ele><time>2026-04-06T15:48:41.601Z</time></trkpt><trkpt lat="44.6659083" lon="9.5583533"><ele>521.6666666666667</ele><time>2026-04-06T15:48:42.602Z</time></trkpt><trkpt lat="44.6659883" lon="9.558615"><ele>520.0</ele><time>2026-04-06T15:48:43.6Z</time></trkpt><trkpt lat="44.6660617" lon="9.558875"><ele>524.0</ele><time>2026-04-06T15:48:44.601Z</time></trkpt><trkpt lat="44.6661267" lon="9.5591283"><ele>528.0</ele><time>2026-04-06T15:48:45.6Z</time></trkpt><trkpt lat="44.6661833" lon="9.5593683"><ele>532.0</ele><time>2026-04-06T15:48:46.599Z</time></trkpt><trkpt lat="44.6662383" lon="9.5596"><ele>532.0</ele><time>2026-04-06T15:48:47.602Z</time></trkpt><trkpt lat="44.6662817" lon="9.5598233"><ele>532.0</ele><time>2026-04-06T15:48:48.602Z</time></trkpt><trkpt lat="44.6663033" lon="9.5600383"><ele>532.0</ele><time>2026-04-06T15:48:49.602Z</time></trkpt><trkpt lat="44.6662867" lon="9.5602467"><ele>532.3333333333334</ele><time>2026-04-06T15:48:50.603Z</time></trkpt><trkpt lat="44.6662267" lon="9.56045"><ele>532.6666666666666</ele><time>2026-04-06T15:48:51.602Z</time></trkpt><trkpt lat="44.6661417" lon="9.5606317"><ele>533.0</ele><time>2026-04-06T15:48:52.601Z</time></trkpt><trkpt lat="44.6660617" lon="9.5607983"><ele>528.75</ele><time>2026-04-06T15:48:53.603Z</time></trkpt><trkpt lat="44.6659933" lon="9.5609517"><ele>524.5</ele><time>2026-04-06T15:48:54.601Z</time></trkpt><trkpt lat="44.665965" lon="9.561105"><ele>520.25</ele><time>2026-04-06T15:48:55.601Z</time></trkpt><trkpt lat="44.6659967" lon="9.561265"><ele>516.0</ele><time>2026-04-06T15:48:56.601Z</time></trkpt><trkpt lat="44.66608" lon="9.561425"><ele>517.75</ele><time>2026-04-06T15:48:57.601Z</time></trkpt><trkpt lat="44.6661783" lon="9.5615767"><ele>519.5</ele><time>2026-04-06T15:48:58.603Z</time></trkpt><trkpt lat="44.66628" lon="9.561715"><ele>521.25</ele><time>2026-04-06T15:48:59.602Z</time></trkpt><trkpt lat="44.666405" lon="9.5618267"><ele>523.0</ele><time>2026-04-06T15:49:00.603Z</time></trkpt><trkpt lat="44.666555" lon="9.5619117"><ele>523.0</ele><time>2026-04-06T15:49:01.602Z</time></trkpt><trkpt lat="44.6667033" lon="9.56199"><ele>523.0</ele><time>2026-04-06T15:49:02.601Z</time></trkpt><trkpt lat="44.6668433" lon="9.562085"><ele>523.0</ele><time>2026-04-06T15:49:03.599Z</time></trkpt><trkpt lat="44.6669633" lon="9.56222"><ele>525.0</ele><time>2026-04-06T15:49:04.602Z</time></trkpt><trkpt lat="44.6670683" lon="9.5623917"><ele>527.0</ele><time>2026-04-06T15:49:05.601Z</time></trkpt><trkpt lat="44.66716" lon="9.56259"><ele>529.0</ele><time>2026-04-06T15:49:06.599Z</time></trkpt><trkpt lat="44.667245" lon="9.5627917"><ele>526.0</ele><time>2026-04-06T15:49:07.602Z</time></trkpt><trkpt lat="44.66732" lon="9.5629883"><ele>523.0</ele><time>2026-04-06T15:49:08.602Z</time></trkpt><trkpt lat="44.667375" lon="9.5631833"><ele>520.0</ele><time>2026-04-06T15:49:09.602Z</time></trkpt><trkpt lat="44.6674083" lon="9.5633883"><ele>520.0</ele><time>2026-04-06T15:49:10.603Z</time></trkpt><trkpt lat="44.667435" lon="9.5636033"><ele>520.0</ele><time>2026-04-06T15:49:11.603Z</time></trkpt><trkpt lat="44.667465" lon="9.5638267"><ele>520.0</ele><time>2026-04-06T15:49:12.602Z</time></trkpt><trkpt lat="44.6675033" lon="9.5640483"><ele>518.0</ele><time>2026-04-06T15:49:13.602Z</time></trkpt><trkpt lat="44.667545" lon="9.5642667"><ele>516.0</ele><time>2026-04-06T15:49:14.602Z</time></trkpt><trkpt lat="44.6675917" lon="9.5644667"><ele>514.0</ele><time>2026-04-06T15:49:15.6Z</time></trkpt><trkpt lat="44.667645" lon="9.5646467"><ele>512.0</ele><time>2026-04-06T15:49:16.601Z</time></trkpt><trkpt lat="44.6677017" lon="9.5648017"><ele>513.0</ele><time>2026-04-06T15:49:17.6Z</time></trkpt><trkpt lat="44.667765" lon="9.56493"><ele>514.0</ele><time>2026-04-06T15:49:18.603Z</time></trkpt><trkpt lat="44.6678483" lon="9.5650383"><ele>515.0</ele><time>2026-04-06T15:49:19.6Z</time></trkpt><trkpt lat="44.66795" lon="9.5651317"><ele>516.0</ele><time>2026-04-06T15:49:20.603Z</time></trkpt><trkpt lat="44.6680667" lon="9.5652183"><ele>516.0</ele><time>2026-04-06T15:49:21.602Z</time></trkpt><trkpt lat="44.668195" lon="9.5653233"><ele>516.0</ele><time>2026-04-06T15:49:22.603Z</time></trkpt><trkpt lat="44.6683367" lon="9.5654617"><ele>516.0</ele><time>2026-04-06T15:49:23.603Z</time></trkpt><trkpt lat="44.668475" lon="9.5656317"><ele>516.0</ele><time>2026-04-06T15:49:24.602Z</time></trkpt><trkpt lat="44.6685983" lon="9.5658183"><ele>516.0</ele><time>2026-04-06T15:49:25.6Z</time></trkpt><trkpt lat="44.6687" lon="9.566015"><ele>516.0</ele><time>2026-04-06T15:49:26.599Z</time></trkpt><trkpt lat="44.6687817" lon="9.56622"><ele>516.0</ele><time>2026-04-06T15:49:27.6Z</time></trkpt><trkpt lat="44.6688517" lon="9.5664217"><ele>516.0</ele><time>2026-04-06T15:49:28.601Z</time></trkpt><trkpt lat="44.6689133" lon="9.566605"><ele>516.0</ele><time>2026-04-06T15:49:29.602Z</time></trkpt><trkpt lat="44.668985" lon="9.5667617"><ele>516.0</ele><time>2026-04-06T15:49:30.602Z</time></trkpt><trkpt lat="44.6690883" lon="9.5668833"><ele>516.0</ele><time>2026-04-06T15:49:31.602Z</time></trkpt><trkpt lat="44.6692317" lon="9.566965"><ele>516.0</ele><time>2026-04-06T15:49:32.603Z</time></trkpt><trkpt lat="44.6694017" lon="9.5670217"><ele>516.0</ele><time>2026-04-06T15:49:33.602Z</time></trkpt><trkpt lat="44.6695867" lon="9.5670833"><ele>511.66666666666663</ele><time>2026-04-06T15:49:34.6Z</time></trkpt><trkpt lat="44.6697717" lon="9.567155"><ele>507.3333333333333</ele><time>2026-04-06T15:49:35.6Z</time></trkpt><trkpt lat="44.669945" lon="9.5672367"><ele>503.0</ele><time>2026-04-06T15:49:36.602Z</time></trkpt><trkpt lat="44.6701017" lon="9.56732"><ele>503.0</ele><time>2026-04-06T15:49:37.601Z</time></trkpt><trkpt lat="44.6702467" lon="9.5674033"><ele>503.0</ele><time>2026-04-06T15:49:38.601Z</time></trkpt><trkpt lat="44.6703983" lon="9.567465"><ele>503.0</ele><time>2026-04-06T15:49:39.602Z</time></trkpt><trkpt lat="44.6705533" lon="9.5674867"><ele>503.5</ele><time>2026-04-06T15:49:40.602Z</time></trkpt><trkpt lat="44.6707033" lon="9.5674733"><ele>504.0</ele><time>2026-04-06T15:49:41.602Z</time></trkpt><trkpt lat="44.67085" lon="9.56745"><ele>504.5</ele><time>2026-04-06T15:49:42.602Z</time></trkpt><trkpt lat="44.67099" lon="9.56745"><ele>505.0</ele><time>2026-04-06T15:49:43.6Z</time></trkpt><trkpt lat="44.6711283" lon="9.5675017"><ele>506.33333333333337</ele><time>2026-04-06T15:49:44.603Z</time></trkpt><trkpt lat="44.671275" lon="9.5675917"><ele>507.66666666666663</ele><time>2026-04-06T15:49:45.602Z</time></trkpt><trkpt lat="44.671425" lon="9.56771"><ele>509.0</ele><time>2026-04-06T15:49:46.601Z</time></trkpt><trkpt lat="44.67157" lon="9.5678233"><ele>507.0</ele><time>2026-04-06T15:49:47.601Z</time></trkpt><trkpt lat="44.6717083" lon="9.56792"><ele>505.0</ele><time>2026-04-06T15:49:48.6Z</time></trkpt><trkpt lat="44.6718417" lon="9.5679983"><ele>503.0</ele><time>2026-04-06T15:49:49.6Z</time></trkpt><trkpt lat="44.6719717" lon="9.56806"><ele>501.0</ele><time>2026-04-06T15:49:50.603Z</time></trkpt><trkpt lat="44.672105" lon="9.5681017"><ele>501.0</ele><time>2026-04-06T15:49:51.601Z</time></trkpt><trkpt lat="44.6722367" lon="9.568125"><ele>501.0</ele><time>2026-04-06T15:49:52.601Z</time></trkpt><trkpt lat="44.6723633" lon="9.568145"><ele>501.0</ele><time>2026-04-06T15:49:53.601Z</time></trkpt><trkpt lat="44.672485" lon="9.5681533"><ele>501.0</ele><time>2026-04-06T15:49:54.6Z</time></trkpt><trkpt lat="44.6726067" lon="9.5681517"><ele>501.0</ele><time>2026-04-06T15:49:55.602Z</time></trkpt><trkpt lat="44.6727283" lon="9.5681533"><ele>501.0</ele><time>2026-04-06T15:49:56.6Z</time></trkpt><trkpt lat="44.6728517" lon="9.568155"><ele>501.0</ele><time>2026-04-06T15:49:57.603Z</time></trkpt><trkpt lat="44.6729733" lon="9.5681567"><ele>501.0</ele><time>2026-04-06T15:49:58.602Z</time></trkpt><trkpt lat="44.673095" lon="9.5681517"><ele>498.25</ele><time>2026-04-06T15:49:59.602Z</time></trkpt><trkpt lat="44.6732167" lon="9.5681283"><ele>495.5</ele><time>2026-04-06T15:50:00.601Z</time></trkpt><trkpt lat="44.6733433" lon="9.5680733"><ele>492.75</ele><time>2026-04-06T15:50:01.602Z</time></trkpt><trkpt lat="44.6734667" lon="9.5679917"><ele>490.0</ele><time>2026-04-06T15:50:02.602Z</time></trkpt><trkpt lat="44.6735833" lon="9.5678917"><ele>491.25</ele><time>2026-04-06T15:50:03.602Z</time></trkpt><trkpt lat="44.6736933" lon="9.5677883"><ele>492.5</ele><time>2026-04-06T15:50:04.6Z</time></trkpt><trkpt lat="44.6738033" lon="9.5676833"><ele>493.75</ele><time>2026-04-06T15:50:05.601Z</time></trkpt><trkpt lat="44.6739283" lon="9.56758"><ele>495.0</ele><time>2026-04-06T15:50:06.601Z</time></trkpt><trkpt lat="44.6740767" lon="9.5674817"><ele>495.0</ele><time>2026-04-06T15:50:07.602Z</time></trkpt><trkpt lat="44.6742533" lon="9.5673867"><ele>495.0</ele><time>2026-04-06T15:50:08.6Z</time></trkpt><trkpt lat="44.67445" lon="9.56729"><ele>495.0</ele><time>2026-04-06T15:50:09.602Z</time></trkpt><trkpt lat="44.6746533" lon="9.5672017"><ele>495.0</ele><time>2026-04-06T15:50:10.601Z</time></trkpt><trkpt lat="44.674855" lon="9.56712"><ele>495.0</ele><time>2026-04-06T15:50:11.6Z</time></trkpt><trkpt lat="44.6750483" lon="9.56705"><ele>495.0</ele><time>2026-04-06T15:50:12.602Z</time></trkpt><trkpt lat="44.6752283" lon="9.566985"><ele>493.66666666666663</ele><time>2026-04-06T15:50:13.599Z</time></trkpt><trkpt lat="44.675405" lon="9.5669283"><ele>492.3333333333333</ele><time>2026-04-06T15:50:14.599Z</time></trkpt><trkpt lat="44.67558" lon="9.56689"><ele>491.0</ele><time>2026-04-06T15:50:15.602Z</time></trkpt><trkpt lat="44.6757533" lon="9.5668683"><ele>491.0</ele><time>2026-04-06T15:50:16.601Z</time></trkpt><trkpt lat="44.6759167" lon="9.5668633"><ele>491.0</ele><time>2026-04-06T15:50:17.599Z</time></trkpt><trkpt lat="44.6760733" lon="9.5668617"><ele>491.0</ele><time>2026-04-06T15:50:18.6Z</time></trkpt><trkpt lat="44.6762267" lon="9.5668583"><ele>490.5</ele><time>2026-04-06T15:50:19.602Z</time></trkpt><trkpt lat="44.6763767" lon="9.5668483"><ele>490.0</ele><time>2026-04-06T15:50:20.602Z</time></trkpt><trkpt lat="44.6765217" lon="9.56682"><ele>489.5</ele><time>2026-04-06T15:50:21.601Z</time></trkpt><trkpt lat="44.6766633" lon="9.5667633"><ele>489.0</ele><time>2026-04-06T15:50:22.601Z</time></trkpt><trkpt lat="44.6767967" lon="9.56669"><ele>489.0</ele><time>2026-04-06T15:50:23.6Z</time></trkpt><trkpt lat="44.6769183" lon="9.56662"><ele>489.0</ele><time>2026-04-06T15:50:24.597Z</time></trkpt><trkpt lat="44.6770317" lon="9.566585"><ele>489.0</ele><time>2026-04-06T15:50:25.598Z</time></trkpt><trkpt lat="44.6771383" lon="9.566615"><ele>489.0</ele><time>2026-04-06T15:50:26.602Z</time></trkpt><trkpt lat="44.67724" lon="9.56671"><ele>486.25</ele><time>2026-04-06T15:50:27.601Z</time></trkpt><trkpt lat="44.6773317" lon="9.566865"><ele>483.5</ele><time>2026-04-06T15:50:28.6Z</time></trkpt><trkpt lat="44.6774183" lon="9.56703"><ele>480.75</ele><time>2026-04-06T15:50:29.6Z</time></trkpt><trkpt lat="44.677505" lon="9.5671933"><ele>478.0</ele><time>2026-04-06T15:50:30.601Z</time></trkpt><trkpt lat="44.6775917" lon="9.5673567"><ele>477.25</ele><time>2026-04-06T15:50:31.6Z</time></trkpt><trkpt lat="44.6776783" lon="9.56752"><ele>476.5</ele><time>2026-04-06T15:50:32.602Z</time></trkpt><trkpt lat="44.6777617" lon="9.5676783"><ele>475.75</ele><time>2026-04-06T15:50:33.6Z</time></trkpt><trkpt lat="44.67784" lon="9.5678283"><ele>475.0</ele><time>2026-04-06T15:50:34.603Z</time></trkpt><trkpt lat="44.6779117" lon="9.56797"><ele>477.4</ele><time>2026-04-06T15:50:35.603Z</time></trkpt><trkpt lat="44.67798" lon="9.5681017"><ele>479.8</ele><time>2026-04-06T15:50:36.601Z</time></trkpt><trkpt lat="44.678045" lon="9.568225"><ele>482.20000000000005</ele><time>2026-04-06T15:50:37.602Z</time></trkpt><trkpt lat="44.6781067" lon="9.56834"><ele>484.6</ele><time>2026-04-06T15:50:38.602Z</time></trkpt><trkpt lat="44.6781683" lon="9.5684417"><ele>487.0</ele><time>2026-04-06T15:50:39.602Z</time></trkpt><trkpt lat="44.6782417" lon="9.56852"><ele>487.0</ele><time>2026-04-06T15:50:40.601Z</time></trkpt><trkpt lat="44.6783267" lon="9.568565"><ele>487.00000000000006</ele><time>2026-04-06T15:50:41.6Z</time></trkpt><trkpt lat="44.6784217" lon="9.5685633"><ele>487.00000000000006</ele><time>2026-04-06T15:50:42.604Z</time></trkpt><trkpt lat="44.6785167" lon="9.568515"><ele>487.0</ele><time>2026-04-06T15:50:43.603Z</time></trkpt><trkpt lat="44.6786033" lon="9.5684217"><ele>487.0</ele><time>2026-04-06T15:50:44.602Z</time></trkpt><trkpt lat="44.6786767" lon="9.5682883"><ele>487.75</ele><time>2026-04-06T15:50:45.603Z</time></trkpt><trkpt lat="44.6787317" lon="9.5681283"><ele>488.5</ele><time>2026-04-06T15:50:46.6Z</time></trkpt><trkpt lat="44.6787717" lon="9.5679583"><ele>489.25</ele><time>2026-04-06T15:50:47.6Z</time></trkpt><trkpt lat="44.6788" lon="9.5677883"><ele>490.0</ele><time>2026-04-06T15:50:48.601Z</time></trkpt><trkpt lat="44.6788317" lon="9.5676217"><ele>490.0</ele><time>2026-04-06T15:50:49.6Z</time></trkpt><trkpt lat="44.6788883" lon="9.5674567"><ele>490.0</ele><time>2026-04-06T15:50:50.602Z</time></trkpt><trkpt lat="44.6789633" lon="9.567295"><ele>490.0</ele><time>2026-04-06T15:50:51.601Z</time></trkpt><trkpt lat="44.67906" lon="9.567135"><ele>490.0</ele><time>2026-04-06T15:50:52.602Z</time></trkpt><trkpt lat="44.6791733" lon="9.566975"><ele>490.6666666666667</ele><time>2026-04-06T15:50:53.6Z</time></trkpt><trkpt lat="44.6792967" lon="9.5668183"><ele>491.33333333333337</ele><time>2026-04-06T15:50:54.6Z</time></trkpt><trkpt lat="44.6794217" lon="9.56667"><ele>492.0</ele><time>2026-04-06T15:50:55.599Z</time></trkpt><trkpt lat="44.6795533" lon="9.5665267"><ele>492.0</ele><time>2026-04-06T15:50:56.601Z</time></trkpt><trkpt lat="44.67968" lon="9.566385"><ele>492.0</ele><time>2026-04-06T15:50:57.603Z</time></trkpt><trkpt lat="44.6797983" lon="9.5662517"><ele>492.0</ele><time>2026-04-06T15:50:58.602Z</time></trkpt><trkpt lat="44.6799117" lon="9.566135"><ele>489.25</ele><time>2026-04-06T15:50:59.6Z</time></trkpt><trkpt lat="44.680025" lon="9.56603"><ele>486.5</ele><time>2026-04-06T15:51:00.603Z</time></trkpt><trkpt lat="44.6801483" lon="9.5659467"><ele>483.75</ele><time>2026-04-06T15:51:01.598Z</time></trkpt><trkpt lat="44.68028" lon="9.5659033"><ele>481.0</ele><time>2026-04-06T15:51:02.603Z</time></trkpt><trkpt lat="44.680415" lon="9.5658767"><ele>481.0</ele><time>2026-04-06T15:51:03.6Z</time></trkpt><trkpt lat="44.680545" lon="9.5658317"><ele>481.0</ele><time>2026-04-06T15:51:04.602Z</time></trkpt><trkpt lat="44.68067" lon="9.565785"><ele>481.0</ele><time>2026-04-06T15:51:05.601Z</time></trkpt><trkpt lat="44.680785" lon="9.56576"><ele>481.0</ele><time>2026-04-06T15:51:06.602Z</time></trkpt><trkpt lat="44.6808883" lon="9.565785"><ele>481.0</ele><time>2026-04-06T15:51:07.6Z</time></trkpt><trkpt lat="44.6809783" lon="9.5658567"><ele>481.0</ele><time>2026-04-06T15:51:08.603Z</time></trkpt><trkpt lat="44.6810533" lon="9.56598"><ele>481.0</ele><time>2026-04-06T15:51:09.601Z</time></trkpt><trkpt lat="44.6811233" lon="9.5661317"><ele>481.0</ele><time>2026-04-06T15:51:10.599Z</time></trkpt><trkpt lat="44.6812133" lon="9.5662833"><ele>482.6666666666667</ele><time>2026-04-06T15:51:11.6Z</time></trkpt><trkpt lat="44.6813433" lon="9.5664217"><ele>484.33333333333337</ele><time>2026-04-06T15:51:12.602Z</time></trkpt><trkpt lat="44.6815" lon="9.56653"><ele>486.0</ele><time>2026-04-06T15:51:13.597Z</time></trkpt><trkpt lat="44.68166" lon="9.5665933"><ele>486.0</ele><time>2026-04-06T15:51:14.603Z</time></trkpt><trkpt lat="44.6818167" lon="9.5666167"><ele>486.0</ele><time>2026-04-06T15:51:15.601Z</time></trkpt><trkpt lat="44.6819633" lon="9.566635"><ele>486.0</ele><time>2026-04-06T15:51:16.602Z</time></trkpt><trkpt lat="44.6821033" lon="9.56667"><ele>486.0</ele><time>2026-04-06T15:51:17.601Z</time></trkpt><trkpt lat="44.682225" lon="9.5667383"><ele>484.6</ele><time>2026-04-06T15:51:18.602Z</time></trkpt><trkpt lat="44.6823317" lon="9.5668333"><ele>483.20000000000005</ele><time>2026-04-06T15:51:19.603Z</time></trkpt><trkpt lat="44.682425" lon="9.5669317"><ele>481.79999999999995</ele><time>2026-04-06T15:51:20.603Z</time></trkpt><trkpt lat="44.6825083" lon="9.5670083"><ele>480.4</ele><time>2026-04-06T15:51:21.603Z</time></trkpt><trkpt lat="44.6825883" lon="9.5670467"><ele>479.0</ele><time>2026-04-06T15:51:22.601Z</time></trkpt><trkpt lat="44.6826683" lon="9.5670483"><ele>478.99999999999994</ele><time>2026-04-06T15:51:23.602Z</time></trkpt><trkpt lat="44.6827383" lon="9.5670133"><ele>479.0</ele><time>2026-04-06T15:51:24.603Z</time></trkpt><trkpt lat="44.682805" lon="9.5669533"><ele>479.0</ele><time>2026-04-06T15:51:25.603Z</time></trkpt><trkpt lat="44.6828717" lon="9.5668883"><ele>479.0</ele><time>2026-04-06T15:51:26.601Z</time></trkpt><trkpt lat="44.6829483" lon="9.5668317"><ele>478.99999999999994</ele><time>2026-04-06T15:51:27.602Z</time></trkpt><trkpt lat="44.6830317" lon="9.5668"><ele>479.0</ele><time>2026-04-06T15:51:28.6Z</time></trkpt><trkpt lat="44.6831167" lon="9.5668017"><ele>478.0</ele><time>2026-04-06T15:51:29.602Z</time></trkpt><trkpt lat="44.6832" lon="9.5668417"><ele>477.0</ele><time>2026-04-06T15:51:30.601Z</time></trkpt><trkpt lat="44.68326" lon="9.5669533"><ele>476.0</ele><time>2026-04-06T15:51:31.6Z</time></trkpt><trkpt lat="44.6833233" lon="9.567105"><ele>475.0</ele><time>2026-04-06T15:51:32.602Z</time></trkpt><trkpt lat="44.6833967" lon="9.5673017"><ele>474.33333333333337</ele><time>2026-04-06T15:51:33.602Z</time></trkpt><trkpt lat="44.6834933" lon="9.5675267"><ele>473.66666666666663</ele><time>2026-04-06T15:51:34.601Z</time></trkpt><trkpt lat="44.6835983" lon="9.5677617"><ele>473.0</ele><time>2026-04-06T15:51:35.601Z</time></trkpt><trkpt lat="44.6837067" lon="9.5679767"><ele>477.0</ele><time>2026-04-06T15:51:36.601Z</time></trkpt><trkpt lat="44.683805" lon="9.5681733"><ele>481.0</ele><time>2026-04-06T15:51:37.602Z</time></trkpt><trkpt lat="44.6839" lon="9.5683467"><ele>485.0</ele><time>2026-04-06T15:51:38.601Z</time></trkpt><trkpt lat="44.684005" lon="9.5684833"><ele>485.0</ele><time>2026-04-06T15:51:39.602Z</time></trkpt><trkpt lat="44.684125" lon="9.5685817"><ele>485.0</ele><time>2026-04-06T15:51:40.602Z</time></trkpt><trkpt lat="44.6842517" lon="9.568635"><ele>485.0</ele><time>2026-04-06T15:51:41.602Z</time></trkpt><trkpt lat="44.68438" lon="9.56864"><ele>485.0</ele><time>2026-04-06T15:51:42.601Z</time></trkpt><trkpt lat="44.6845117" lon="9.568615"><ele>483.75</ele><time>2026-04-06T15:51:43.6Z</time></trkpt><trkpt lat="44.6846367" lon="9.5686017"><ele>482.5</ele><time>2026-04-06T15:51:44.602Z</time></trkpt><trkpt lat="44.684765" lon="9.5686233"><ele>481.25</ele><time>2026-04-06T15:51:45.6Z</time></trkpt><trkpt lat="44.6848983" lon="9.5686783"><ele>480.0</ele><time>2026-04-06T15:51:46.601Z</time></trkpt><trkpt lat="44.6850383" lon="9.5687017"><ele>480.0</ele><time>2026-04-06T15:51:47.601Z</time></trkpt><trkpt lat="44.6851817" lon="9.5686683"><ele>480.0</ele><time>2026-04-06T15:51:48.599Z</time></trkpt><trkpt lat="44.6853233" lon="9.5685867"><ele>480.0</ele><time>2026-04-06T15:51:49.6Z</time></trkpt><trkpt lat="44.68546" lon="9.5684817"><ele>483.0</ele><time>2026-04-06T15:51:50.601Z</time></trkpt><trkpt lat="44.6855983" lon="9.568385"><ele>486.0</ele><time>2026-04-06T15:51:51.603Z</time></trkpt><trkpt lat="44.6857417" lon="9.5683267"><ele>489.0</ele><time>2026-04-06T15:51:52.602Z</time></trkpt><trkpt lat="44.6858933" lon="9.5683217"><ele>489.0</ele><time>2026-04-06T15:51:53.601Z</time></trkpt><trkpt lat="44.686055" lon="9.5683617"><ele>489.0</ele><time>2026-04-06T15:51:54.603Z</time></trkpt><trkpt lat="44.68622" lon="9.5684267"><ele>489.0</ele><time>2026-04-06T15:51:55.601Z</time></trkpt><trkpt lat="44.6863783" lon="9.5684967"><ele>488.0</ele><time>2026-04-06T15:51:56.602Z</time></trkpt><trkpt lat="44.6865283" lon="9.5685517"><ele>487.0</ele><time>2026-04-06T15:51:57.602Z</time></trkpt><trkpt lat="44.6866783" lon="9.5685767"><ele>486.0</ele><time>2026-04-06T15:51:58.602Z</time></trkpt><trkpt lat="44.6868333" lon="9.5685483"><ele>487.0</ele><time>2026-04-06T15:51:59.6Z</time></trkpt><trkpt lat="44.6869967" lon="9.5684667"><ele>488.0</ele><time>2026-04-06T15:52:00.602Z</time></trkpt><trkpt lat="44.6871717" lon="9.568375"><ele>489.0</ele><time>2026-04-06T15:52:01.602Z</time></trkpt><trkpt lat="44.6873567" lon="9.568305"><ele>489.0</ele><time>2026-04-06T15:52:02.601Z</time></trkpt><trkpt lat="44.6875483" lon="9.5682667"><ele>489.0</ele><time>2026-04-06T15:52:03.602Z</time></trkpt><trkpt lat="44.6877317" lon="9.5682717"><ele>489.0</ele><time>2026-04-06T15:52:04.602Z</time></trkpt><trkpt lat="44.6878967" lon="9.5683233"><ele>489.33333333333337</ele><time>2026-04-06T15:52:05.601Z</time></trkpt><trkpt lat="44.68805" lon="9.5684317"><ele>489.6666666666667</ele><time>2026-04-06T15:52:06.6Z</time></trkpt><trkpt lat="44.6881883" lon="9.568585"><ele>490.0</ele><time>2026-04-06T15:52:07.603Z</time></trkpt><trkpt lat="44.6882917" lon="9.568765"><ele>491.25</ele><time>2026-04-06T15:52:08.603Z</time></trkpt><trkpt lat="44.6883717" lon="9.5689533"><ele>492.5</ele><time>2026-04-06T15:52:09.603Z</time></trkpt><trkpt lat="44.6884417" lon="9.5691267"><ele>493.75</ele><time>2026-04-06T15:52:10.603Z</time></trkpt><trkpt lat="44.6885283" lon="9.56926"><ele>495.0</ele><time>2026-04-06T15:52:11.6Z</time></trkpt><trkpt lat="44.6886433" lon="9.5693433"><ele>495.0</ele><time>2026-04-06T15:52:12.602Z</time></trkpt><trkpt lat="44.68878" lon="9.5693667"><ele>495.0</ele><time>2026-04-06T15:52:13.601Z</time></trkpt><trkpt lat="44.6889467" lon="9.56933"><ele>495.0</ele><time>2026-04-06T15:52:14.6Z</time></trkpt><trkpt lat="44.6891233" lon="9.5692617"><ele>495.0</ele><time>2026-04-06T15:52:15.6Z</time></trkpt><trkpt lat="44.689295" lon="9.5692033"><ele>495.0</ele><time>2026-04-06T15:52:16.601Z</time></trkpt><trkpt lat="44.6894583" lon="9.5691617"><ele>495.0</ele><time>2026-04-06T15:52:17.602Z</time></trkpt><trkpt lat="44.68961" lon="9.5691367"><ele>496.0</ele><time>2026-04-06T15:52:18.6Z</time></trkpt><trkpt lat="44.68975" lon="9.5690917"><ele>497.0</ele><time>2026-04-06T15:52:19.602Z</time></trkpt><trkpt lat="44.6898733" lon="9.5690033"><ele>498.0</ele><time>2026-04-06T15:52:20.603Z</time></trkpt><trkpt lat="44.6899833" lon="9.5688933"><ele>499.0</ele><time>2026-04-06T15:52:21.603Z</time></trkpt><trkpt lat="44.6900867" lon="9.5687883"><ele>499.0</ele><time>2026-04-06T15:52:22.601Z</time></trkpt><trkpt lat="44.6901967" lon="9.5687283"><ele>499.0</ele><time>2026-04-06T15:52:23.601Z</time></trkpt><trkpt lat="44.6903133" lon="9.5687183"><ele>499.0</ele><time>2026-04-06T15:52:24.601Z</time></trkpt><trkpt lat="44.69043" lon="9.56876"><ele>499.0</ele><time>2026-04-06T15:52:25.6Z</time></trkpt><trkpt lat="44.69053" lon="9.5688583"><ele>497.25</ele><time>2026-04-06T15:52:26.602Z</time></trkpt><trkpt lat="44.6906083" lon="9.56901"><ele>495.5</ele><time>2026-04-06T15:52:27.603Z</time></trkpt><trkpt lat="44.690675" lon="9.5691683"><ele>493.75</ele><time>2026-04-06T15:52:28.601Z</time></trkpt><trkpt lat="44.6907517" lon="9.5693083"><ele>492.0</ele><time>2026-04-06T15:52:29.601Z</time></trkpt><trkpt lat="44.6908533" lon="9.5693983"><ele>492.0</ele><time>2026-04-06T15:52:30.601Z</time></trkpt><trkpt lat="44.690975" lon="9.5694217"><ele>492.0</ele><time>2026-04-06T15:52:31.602Z</time></trkpt><trkpt lat="44.69112" lon="9.569385"><ele>492.0</ele><time>2026-04-06T15:52:32.602Z</time></trkpt><trkpt lat="44.69127" lon="9.569305"><ele>492.0</ele><time>2026-04-06T15:52:33.602Z</time></trkpt><trkpt lat="44.69143" lon="9.5692017"><ele>493.0</ele><time>2026-04-06T15:52:34.6Z</time></trkpt><trkpt lat="44.6915933" lon="9.5691"><ele>494.0</ele><time>2026-04-06T15:52:35.603Z</time></trkpt><trkpt lat="44.6917567" lon="9.5690167"><ele>495.0</ele><time>2026-04-06T15:52:36.603Z</time></trkpt><trkpt lat="44.6919117" lon="9.5689617"><ele>494.25</ele><time>2026-04-06T15:52:37.602Z</time></trkpt><trkpt lat="44.692055" lon="9.5689317"><ele>493.5</ele><time>2026-04-06T15:52:38.602Z</time></trkpt><trkpt lat="44.6921933" lon="9.5689317"><ele>492.75</ele><time>2026-04-06T15:52:39.601Z</time></trkpt><trkpt lat="44.6923217" lon="9.5689867"><ele>492.0</ele><time>2026-04-06T15:52:40.6Z</time></trkpt><trkpt lat="44.6924383" lon="9.56907"><ele>492.0</ele><time>2026-04-06T15:52:41.6Z</time></trkpt><trkpt lat="44.6925417" lon="9.569165"><ele>492.0</ele><time>2026-04-06T15:52:42.601Z</time></trkpt><trkpt lat="44.6926483" lon="9.5692333"><ele>492.0</ele><time>2026-04-06T15:52:43.6Z</time></trkpt><trkpt lat="44.692755" lon="9.56924"><ele>492.0</ele><time>2026-04-06T15:52:44.6Z</time></trkpt><trkpt lat="44.6928583" lon="9.569175"><ele>492.75</ele><time>2026-04-06T15:52:45.602Z</time></trkpt><trkpt lat="44.6929467" lon="9.5690433"><ele>493.5</ele><time>2026-04-06T15:52:46.601Z</time></trkpt><trkpt lat="44.6930233" lon="9.5688733"><ele>494.25</ele><time>2026-04-06T15:52:47.601Z</time></trkpt><trkpt lat="44.6930883" lon="9.5686983"><ele>495.0</ele><time>2026-04-06T15:52:48.602Z</time></trkpt><trkpt lat="44.6931317" lon="9.5685067"><ele>495.0</ele><time>2026-04-06T15:52:49.602Z</time></trkpt><trkpt lat="44.6931433" lon="9.5683"><ele>495.0</ele><time>2026-04-06T15:52:50.603Z</time></trkpt><trkpt lat="44.6931383" lon="9.5680967"><ele>495.0</ele><time>2026-04-06T15:52:51.603Z</time></trkpt><trkpt lat="44.693135" lon="9.567905"><ele>495.0</ele><time>2026-04-06T15:52:52.603Z</time></trkpt><trkpt lat="44.693155" lon="9.5677333"><ele>491.5</ele><time>2026-04-06T15:52:53.602Z</time></trkpt><trkpt lat="44.693215" lon="9.5675983"><ele>488.0</ele><time>2026-04-06T15:52:54.601Z</time></trkpt><trkpt lat="44.6933083" lon="9.5675033"><ele>484.5</ele><time>2026-04-06T15:52:55.603Z</time></trkpt><trkpt lat="44.6934317" lon="9.5674433"><ele>481.0</ele><time>2026-04-06T15:52:56.603Z</time></trkpt><trkpt lat="44.6935733" lon="9.5674317"><ele>481.0</ele><time>2026-04-06T15:52:57.603Z</time></trkpt><trkpt lat="44.6937217" lon="9.5674583"><ele>481.0</ele><time>2026-04-06T15:52:58.6Z</time></trkpt><trkpt lat="44.6938583" lon="9.567515"><ele>481.0</ele><time>2026-04-06T15:52:59.601Z</time></trkpt><trkpt lat="44.693995" lon="9.5675633"><ele>481.0</ele><time>2026-04-06T15:53:00.6Z</time></trkpt><trkpt lat="44.6941467" lon="9.567565"><ele>481.0</ele><time>2026-04-06T15:53:01.6Z</time></trkpt><trkpt lat="44.694295" lon="9.56753"><ele>481.0</ele><time>2026-04-06T15:53:02.6Z</time></trkpt><trkpt lat="44.6944367" lon="9.5674983"><ele>481.0</ele><time>2026-04-06T15:53:03.603Z</time></trkpt><trkpt lat="44.6945717" lon="9.56749"><ele>481.0</ele><time>2026-04-06T15:53:04.6Z</time></trkpt><trkpt lat="44.6947" lon="9.567525"><ele>480.0</ele><time>2026-04-06T15:53:05.602Z</time></trkpt><trkpt lat="44.6948233" lon="9.56762"><ele>479.0</ele><time>2026-04-06T15:53:06.601Z</time></trkpt><trkpt lat="44.6949367" lon="9.5677583"><ele>478.0</ele><time>2026-04-06T15:53:07.601Z</time></trkpt><trkpt lat="44.6950517" lon="9.567905"><ele>477.0</ele><time>2026-04-06T15:53:08.603Z</time></trkpt><trkpt lat="44.6951667" lon="9.5680417"><ele>477.75</ele><time>2026-04-06T15:53:09.599Z</time></trkpt><trkpt lat="44.6952883" lon="9.5681533"><ele>478.5</ele><time>2026-04-06T15:53:10.6Z</time></trkpt><trkpt lat="44.69542" lon="9.56823"><ele>479.25</ele><time>2026-04-06T15:53:11.602Z</time></trkpt><trkpt lat="44.6955617" lon="9.5682717"><ele>480.0</ele><time>2026-04-06T15:53:12.602Z</time></trkpt><trkpt lat="44.6957" lon="9.56828"><ele>480.0</ele><time>2026-04-06T15:53:13.602Z</time></trkpt><trkpt lat="44.6958317" lon="9.5682667"><ele>480.0</ele><time>2026-04-06T15:53:14.601Z</time></trkpt><trkpt lat="44.6959583" lon="9.56824"><ele>480.0</ele><time>2026-04-06T15:53:15.599Z</time></trkpt><trkpt lat="44.6960833" lon="9.568205"><ele>480.0</ele><time>2026-04-06T15:53:16.6Z</time></trkpt><trkpt lat="44.6962067" lon="9.5681633"><ele>479.75</ele><time>2026-04-06T15:53:17.601Z</time></trkpt><trkpt lat="44.6963333" lon="9.5681283"><ele>479.5</ele><time>2026-04-06T15:53:18.601Z</time></trkpt><trkpt lat="44.69646" lon="9.5681117"><ele>479.25</ele><time>2026-04-06T15:53:19.602Z</time></trkpt><trkpt lat="44.6965817" lon="9.5681267"><ele>479.0</ele><time>2026-04-06T15:53:20.602Z</time></trkpt><trkpt lat="44.6967083" lon="9.5681833"><ele>479.0</ele><time>2026-04-06T15:53:21.602Z</time></trkpt><trkpt lat="44.69684" lon="9.5682767"><ele>479.0</ele><time>2026-04-06T15:53:22.601Z</time></trkpt><trkpt lat="44.69699" lon="9.56838"><ele>479.0</ele><time>2026-04-06T15:53:23.602Z</time></trkpt><trkpt lat="44.6971667" lon="9.5684683"><ele>478.0</ele><time>2026-04-06T15:53:24.602Z</time></trkpt><trkpt lat="44.697355" lon="9.5685267"><ele>477.0</ele><time>2026-04-06T15:53:25.602Z</time></trkpt><trkpt lat="44.6975317" lon="9.5685717"><ele>476.0</ele><time>2026-04-06T15:53:26.601Z</time></trkpt><trkpt lat="44.6976917" lon="9.56862"><ele>477.75</ele><time>2026-04-06T15:53:27.603Z</time></trkpt><trkpt lat="44.697835" lon="9.5686467"><ele>479.5</ele><time>2026-04-06T15:53:28.601Z</time></trkpt><trkpt lat="44.697955" lon="9.56863"><ele>481.25</ele><time>2026-04-06T15:53:29.6Z</time></trkpt><trkpt lat="44.6980617" lon="9.568545"><ele>483.0</ele><time>2026-04-06T15:53:30.6Z</time></trkpt><trkpt lat="44.6981633" lon="9.5683933"><ele>483.0</ele><time>2026-04-06T15:53:31.601Z</time></trkpt><trkpt lat="44.69826" lon="9.5682083"><ele>483.0</ele><time>2026-04-06T15:53:32.603Z</time></trkpt><trkpt lat="44.6983617" lon="9.5680433"><ele>483.0</ele><time>2026-04-06T15:53:33.603Z</time></trkpt><trkpt lat="44.6984633" lon="9.5679017"><ele>482.5</ele><time>2026-04-06T15:53:34.602Z</time></trkpt><trkpt lat="44.6985733" lon="9.5677983"><ele>482.0</ele><time>2026-04-06T15:53:35.6Z</time></trkpt><trkpt lat="44.6987117" lon="9.5677717"><ele>481.5</ele><time>2026-04-06T15:53:36.598Z</time></trkpt><trkpt lat="44.6988533" lon="9.5678033"><ele>481.0</ele><time>2026-04-06T15:53:37.601Z</time></trkpt><trkpt lat="44.698985" lon="9.56787"><ele>481.0</ele><time>2026-04-06T15:53:38.6Z</time></trkpt><trkpt lat="44.6990917" lon="9.5679517"><ele>481.0</ele><time>2026-04-06T15:53:39.6Z</time></trkpt><trkpt lat="44.6991717" lon="9.5680717"><ele>481.0</ele><time>2026-04-06T15:53:40.601Z</time></trkpt><trkpt lat="44.6992367" lon="9.5682333"><ele>481.0</ele><time>2026-04-06T15:53:41.602Z</time></trkpt><trkpt lat="44.69929" lon="9.5684283"><ele>481.0</ele><time>2026-04-06T15:53:42.601Z</time></trkpt><trkpt lat="44.699355" lon="9.568635"><ele>481.0</ele><time>2026-04-06T15:53:43.601Z</time></trkpt><trkpt lat="44.69945" lon="9.5688167"><ele>481.0</ele><time>2026-04-06T15:53:44.6Z</time></trkpt><trkpt lat="44.699585" lon="9.5689617"><ele>481.33333333333337</ele><time>2026-04-06T15:53:45.6Z</time></trkpt><trkpt lat="44.6997533" lon="9.5690817"><ele>481.66666666666663</ele><time>2026-04-06T15:53:46.601Z</time></trkpt><trkpt lat="44.6999233" lon="9.5691783"><ele>482.0</ele><time>2026-04-06T15:53:47.602Z</time></trkpt><trkpt lat="44.7000867" lon="9.56925"><ele>482.0</ele><time>2026-04-06T15:53:48.602Z</time></trkpt><trkpt lat="44.700245" lon="9.5692917"><ele>482.0</ele><time>2026-04-06T15:53:49.602Z</time></trkpt><trkpt lat="44.7003983" lon="9.5693033"><ele>482.0</ele><time>2026-04-06T15:53:50.603Z</time></trkpt><trkpt lat="44.700545" lon="9.5693233"><ele>484.25</ele><time>2026-04-06T15:53:51.603Z</time></trkpt><trkpt lat="44.700685" lon="9.56937"><ele>486.5</ele><time>2026-04-06T15:53:52.601Z</time></trkpt><trkpt lat="44.7008183" lon="9.5694417"><ele>488.75</ele><time>2026-04-06T15:53:53.602Z</time></trkpt><trkpt lat="44.700945" lon="9.5695183"><ele>491.0</ele><time>2026-04-06T15:53:54.602Z</time></trkpt><trkpt lat="44.70107" lon="9.569565"><ele>489.0</ele><time>2026-04-06T15:53:55.601Z</time></trkpt><trkpt lat="44.7011933" lon="9.5695533"><ele>487.0</ele><time>2026-04-06T15:53:56.603Z</time></trkpt><trkpt lat="44.7013167" lon="9.5694733"><ele>485.0</ele><time>2026-04-06T15:53:57.599Z</time></trkpt><trkpt lat="44.701425" lon="9.5693533"><ele>483.0</ele><time>2026-04-06T15:53:58.602Z</time></trkpt><trkpt lat="44.70153" lon="9.5692367"><ele>479.5</ele><time>2026-04-06T15:53:59.602Z</time></trkpt><trkpt lat="44.7016467" lon="9.5691533"><ele>476.0</ele><time>2026-04-06T15:54:00.601Z</time></trkpt><trkpt lat="44.7017767" lon="9.5691283"><ele>472.5</ele><time>2026-04-06T15:54:01.601Z</time></trkpt><trkpt lat="44.701925" lon="9.5691633"><ele>469.0</ele><time>2026-04-06T15:54:02.603Z</time></trkpt><trkpt lat="44.7020883" lon="9.5692317"><ele>467.0</ele><time>2026-04-06T15:54:03.601Z</time></trkpt><trkpt lat="44.7022617" lon="9.569305"><ele>465.0</ele><time>2026-04-06T15:54:04.6Z</time></trkpt><trkpt lat="44.7024367" lon="9.569365"><ele>463.0</ele><time>2026-04-06T15:54:05.602Z</time></trkpt><trkpt lat="44.7026233" lon="9.5693967"><ele>462.0</ele><time>2026-04-06T15:54:06.601Z</time></trkpt><trkpt lat="44.70282" lon="9.5693917"><ele>461.0</ele><time>2026-04-06T15:54:07.602Z</time></trkpt><trkpt lat="44.703015" lon="9.569365"><ele>460.0</ele><time>2026-04-06T15:54:08.603Z</time></trkpt><trkpt lat="44.7031967" lon="9.569325"><ele>460.0</ele><time>2026-04-06T15:54:09.601Z</time></trkpt><trkpt lat="44.703365" lon="9.5692867"><ele>460.0</ele><time>2026-04-06T15:54:10.601Z</time></trkpt><trkpt lat="44.703525" lon="9.56927"><ele>460.0</ele><time>2026-04-06T15:54:11.6Z</time></trkpt><trkpt lat="44.703675" lon="9.5692867"><ele>458.5</ele><time>2026-04-06T15:54:12.603Z</time></trkpt><trkpt lat="44.7038117" lon="9.56934"><ele>457.0</ele><time>2026-04-06T15:54:13.602Z</time></trkpt><trkpt lat="44.703935" lon="9.5694283"><ele>455.5</ele><time>2026-04-06T15:54:14.601Z</time></trkpt><trkpt lat="44.7040417" lon="9.5695567"><ele>454.0</ele><time>2026-04-06T15:54:15.603Z</time></trkpt><trkpt lat="44.7041317" lon="9.5697283"><ele>457.75</ele><time>2026-04-06T15:54:16.601Z</time></trkpt><trkpt lat="44.7042167" lon="9.5699117"><ele>461.5</ele><time>2026-04-06T15:54:17.6Z</time></trkpt><trkpt lat="44.704295" lon="9.570085"><ele>465.25</ele><time>2026-04-06T15:54:18.602Z</time></trkpt><trkpt lat="44.7043717" lon="9.5702383"><ele>469.0</ele><time>2026-04-06T15:54:19.602Z</time></trkpt><trkpt lat="44.70446" lon="9.5703617"><ele>468.5</ele><time>2026-04-06T15:54:20.602Z</time></trkpt><trkpt lat="44.7045667" lon="9.5704383"><ele>468.0</ele><time>2026-04-06T15:54:21.602Z</time></trkpt><trkpt lat="44.7046867" lon="9.57046"><ele>467.5</ele><time>2026-04-06T15:54:22.601Z</time></trkpt><trkpt lat="44.7048017" lon="9.57042"><ele>467.0</ele><time>2026-04-06T15:54:23.601Z</time></trkpt><trkpt lat="44.7049017" lon="9.5703133"><ele>467.0</ele><time>2026-04-06T15:54:24.601Z</time></trkpt><trkpt lat="44.70498" lon="9.57015"><ele>467.0</ele><time>2026-04-06T15:54:25.601Z</time></trkpt><trkpt lat="44.7050483" lon="9.5699483"><ele>467.0</ele><time>2026-04-06T15:54:26.602Z</time></trkpt><trkpt lat="44.7051217" lon="9.5697333"><ele>467.3333333333333</ele><time>2026-04-06T15:54:27.602Z</time></trkpt><trkpt lat="44.7052133" lon="9.5695217"><ele>467.66666666666663</ele><time>2026-04-06T15:54:28.602Z</time></trkpt><trkpt lat="44.7053267" lon="9.5693183"><ele>468.0</ele><time>2026-04-06T15:54:29.601Z</time></trkpt><trkpt lat="44.7054583" lon="9.5691233"><ele>468.0</ele><time>2026-04-06T15:54:30.602Z</time></trkpt><trkpt lat="44.7056017" lon="9.5689283"><ele>468.0</ele><time>2026-04-06T15:54:31.602Z</time></trkpt><trkpt lat="44.7057433" lon="9.5687317"><ele>468.0</ele><time>2026-04-06T15:54:32.603Z</time></trkpt><trkpt lat="44.7058717" lon="9.56854"><ele>467.33333333333337</ele><time>2026-04-06T15:54:33.6Z</time></trkpt><trkpt lat="44.7059867" lon="9.5683583"><ele>466.6666666666667</ele><time>2026-04-06T15:54:34.601Z</time></trkpt><trkpt lat="44.7060983" lon="9.5681983"><ele>466.0</ele><time>2026-04-06T15:54:35.603Z</time></trkpt><trkpt lat="44.7062183" lon="9.5680583"><ele>466.0</ele><time>2026-04-06T15:54:36.603Z</time></trkpt><trkpt lat="44.70635" lon="9.56794"><ele>466.0</ele><time>2026-04-06T15:54:37.603Z</time></trkpt><trkpt lat="44.7065" lon="9.5678517"><ele>466.0</ele><time>2026-04-06T15:54:38.603Z</time></trkpt><trkpt lat="44.7066717" lon="9.5677917"><ele>461.33333333333337</ele><time>2026-04-06T15:54:39.603Z</time></trkpt><trkpt lat="44.7068567" lon="9.5677483"><ele>456.66666666666663</ele><time>2026-04-06T15:54:40.601Z</time></trkpt><trkpt lat="44.7070383" lon="9.5677117"><ele>452.0</ele><time>2026-04-06T15:54:41.602Z</time></trkpt><trkpt lat="44.70721" lon="9.56768"><ele>452.0</ele><time>2026-04-06T15:54:42.603Z</time></trkpt><trkpt lat="44.7073733" lon="9.5676567"><ele>452.0</ele><time>2026-04-06T15:54:43.6Z</time></trkpt><trkpt lat="44.707525" lon="9.5676517"><ele>452.0</ele><time>2026-04-06T15:54:44.602Z</time></trkpt><trkpt lat="44.7076667" lon="9.5676733"><ele>453.0</ele><time>2026-04-06T15:54:45.599Z</time></trkpt><trkpt lat="44.7077933" lon="9.5677417"><ele>454.0</ele><time>2026-04-06T15:54:46.602Z</time></trkpt><trkpt lat="44.7079183" lon="9.5678633"><ele>455.0</ele><time>2026-04-06T15:54:47.601Z</time></trkpt><trkpt lat="44.70805" lon="9.568005"><ele>455.0</ele><time>2026-04-06T15:54:48.602Z</time></trkpt><trkpt lat="44.70819" lon="9.56812"><ele>455.0</ele><time>2026-04-06T15:54:49.602Z</time></trkpt><trkpt lat="44.708335" lon="9.5681833"><ele>455.0</ele><time>2026-04-06T15:54:50.602Z</time></trkpt><trkpt lat="44.7084817" lon="9.5681933"><ele>452.5</ele><time>2026-04-06T15:54:51.601Z</time></trkpt><trkpt lat="44.70862" lon="9.5681517"><ele>450.0</ele><time>2026-04-06T15:54:52.602Z</time></trkpt><trkpt lat="44.708745" lon="9.568075"><ele>447.5</ele><time>2026-04-06T15:54:53.6Z</time></trkpt><trkpt lat="44.7088633" lon="9.568"><ele>445.0</ele><time>2026-04-06T15:54:54.601Z</time></trkpt><trkpt lat="44.708985" lon="9.56796"><ele>445.0</ele><time>2026-04-06T15:54:55.602Z</time></trkpt><trkpt lat="44.709115" lon="9.5679817"><ele>445.0</ele><time>2026-04-06T15:54:56.602Z</time></trkpt><trkpt lat="44.70925" lon="9.56806"><ele>445.0</ele><time>2026-04-06T15:54:57.602Z</time></trkpt><trkpt lat="44.70939" lon="9.568165"><ele>445.0</ele><time>2026-04-06T15:54:58.601Z</time></trkpt><trkpt lat="44.7095383" lon="9.5682783"><ele>443.33333333333337</ele><time>2026-04-06T15:54:59.603Z</time></trkpt><trkpt lat="44.7096933" lon="9.5683883"><ele>441.66666666666663</ele><time>2026-04-06T15:55:00.603Z</time></trkpt><trkpt lat="44.709845" lon="9.568485"><ele>440.0</ele><time>2026-04-06T15:55:01.601Z</time></trkpt><trkpt lat="44.7099883" lon="9.5685733"><ele>440.0</ele><time>2026-04-06T15:55:02.603Z</time></trkpt><trkpt lat="44.71012" lon="9.56866"><ele>440.0</ele><time>2026-04-06T15:55:03.602Z</time></trkpt><trkpt lat="44.71024" lon="9.5687517"><ele>440.0</ele><time>2026-04-06T15:55:04.599Z</time></trkpt><trkpt lat="44.7103483" lon="9.5688533"><ele>440.0</ele><time>2026-04-06T15:55:05.602Z</time></trkpt><trkpt lat="44.7104417" lon="9.5689633"><ele>440.5</ele><time>2026-04-06T15:55:06.602Z</time></trkpt><trkpt lat="44.7105283" lon="9.5690833"><ele>441.0</ele><time>2026-04-06T15:55:07.602Z</time></trkpt><trkpt lat="44.7106117" lon="9.5692083"><ele>441.5</ele><time>2026-04-06T15:55:08.6Z</time></trkpt><trkpt lat="44.7106917" lon="9.569335"><ele>442.0</ele><time>2026-04-06T15:55:09.602Z</time></trkpt><trkpt lat="44.71077" lon="9.5694583"><ele>442.6</ele><time>2026-04-06T15:55:10.602Z</time></trkpt><trkpt lat="44.71084" lon="9.5695767"><ele>443.20000000000005</ele><time>2026-04-06T15:55:11.602Z</time></trkpt><trkpt lat="44.7109083" lon="9.5696883"><ele>443.8</ele><time>2026-04-06T15:55:12.603Z</time></trkpt><trkpt lat="44.71098" lon="9.56979"><ele>444.4</ele><time>2026-04-06T15:55:13.603Z</time></trkpt><trkpt lat="44.7110633" lon="9.5698833"><ele>445.0</ele><time>2026-04-06T15:55:14.603Z</time></trkpt><trkpt lat="44.7111633" lon="9.56997"><ele>442.25</ele><time>2026-04-06T15:55:15.603Z</time></trkpt><trkpt lat="44.71128" lon="9.5700383"><ele>439.5</ele><time>2026-04-06T15:55:16.601Z</time></trkpt><trkpt lat="44.7114017" lon="9.57008"><ele>436.75</ele><time>2026-04-06T15:55:17.603Z</time></trkpt><trkpt lat="44.7115233" lon="9.57008"><ele>434.0</ele><time>2026-04-06T15:55:18.601Z</time></trkpt><trkpt lat="44.7116383" lon="9.5700383"><ele>434.0</ele><time>2026-04-06T15:55:19.6Z</time></trkpt><trkpt lat="44.7117483" lon="9.56996"><ele>434.0</ele><time>2026-04-06T15:55:20.603Z</time></trkpt><trkpt lat="44.7118583" lon="9.569855"><ele>434.0</ele><time>2026-04-06T15:55:21.6Z</time></trkpt><trkpt lat="44.7119683" lon="9.5697283"><ele>434.0</ele><time>2026-04-06T15:55:22.602Z</time></trkpt><trkpt lat="44.712085" lon="9.5695917"><ele>432.0</ele><time>2026-04-06T15:55:23.601Z</time></trkpt><trkpt lat="44.7122067" lon="9.5694517"><ele>430.0</ele><time>2026-04-06T15:55:24.601Z</time></trkpt><trkpt lat="44.7123233" lon="9.56932"><ele>428.0</ele><time>2026-04-06T15:55:25.602Z</time></trkpt><trkpt lat="44.712435" lon="9.5691917"><ele>428.0</ele><time>2026-04-06T15:55:26.602Z</time></trkpt><trkpt lat="44.71254" lon="9.5690683"><ele>428.0</ele><time>2026-04-06T15:55:27.603Z</time></trkpt><trkpt lat="44.7126483" lon="9.5689667"><ele>428.0</ele><time>2026-04-06T15:55:28.603Z</time></trkpt><trkpt lat="44.712765" lon="9.568895"><ele>428.0</ele><time>2026-04-06T15:55:29.603Z</time></trkpt><trkpt lat="44.7128817" lon="9.56886"><ele>430.0</ele><time>2026-04-06T15:55:30.602Z</time></trkpt><trkpt lat="44.7129967" lon="9.5688617"><ele>431.99999999999994</ele><time>2026-04-06T15:55:31.601Z</time></trkpt><trkpt lat="44.713105" lon="9.5688867"><ele>433.99999999999994</ele><time>2026-04-06T15:55:32.601Z</time></trkpt><trkpt lat="44.7132033" lon="9.5689183"><ele>436.0</ele><time>2026-04-06T15:55:33.602Z</time></trkpt><trkpt lat="44.7132983" lon="9.568965"><ele>438.0</ele><time>2026-04-06T15:55:34.6Z</time></trkpt><trkpt lat="44.713385" lon="9.56905"><ele>438.0</ele><time>2026-04-06T15:55:35.602Z</time></trkpt><trkpt lat="44.71346" lon="9.5691733"><ele>438.0</ele><time>2026-04-06T15:55:36.602Z</time></trkpt><trkpt lat="44.7135267" lon="9.5693067"><ele>438.0</ele><time>2026-04-06T15:55:37.599Z</time></trkpt><trkpt lat="44.71358" lon="9.56945"><ele>438.0</ele><time>2026-04-06T15:55:38.602Z</time></trkpt><trkpt lat="44.7136317" lon="9.5695983"><ele>439.25</ele><time>2026-04-06T15:55:39.601Z</time></trkpt><trkpt lat="44.7136833" lon="9.5697517"><ele>440.5</ele><time>2026-04-06T15:55:40.601Z</time></trkpt><trkpt lat="44.7137383" lon="9.5699017"><ele>441.75</ele><time>2026-04-06T15:55:41.602Z</time></trkpt><trkpt lat="44.7137883" lon="9.5700433"><ele>443.0</ele><time>2026-04-06T15:55:42.601Z</time></trkpt><trkpt lat="44.7138433" lon="9.570185"><ele>443.0</ele><time>2026-04-06T15:55:43.601Z</time></trkpt><trkpt lat="44.7139067" lon="9.5703267"><ele>443.0</ele><time>2026-04-06T15:55:44.602Z</time></trkpt><trkpt lat="44.7139967" lon="9.570445"><ele>443.0</ele><time>2026-04-06T15:55:45.603Z</time></trkpt><trkpt lat="44.7141183" lon="9.5705383"><ele>443.0</ele><time>2026-04-06T15:55:46.601Z</time></trkpt><trkpt lat="44.7142717" lon="9.570595"><ele>441.0</ele><time>2026-04-06T15:55:47.602Z</time></trkpt><trkpt lat="44.7144433" lon="9.5706417"><ele>439.0</ele><time>2026-04-06T15:55:48.6Z</time></trkpt><trkpt lat="44.71462" lon="9.5707033"><ele>437.0</ele><time>2026-04-06T15:55:49.6Z</time></trkpt><trkpt lat="44.7147983" lon="9.5707717"><ele>437.0</ele><time>2026-04-06T15:55:50.603Z</time></trkpt><trkpt lat="44.7149767" lon="9.5708417"><ele>437.0</ele><time>2026-04-06T15:55:51.601Z</time></trkpt><trkpt lat="44.715155" lon="9.5709117"><ele>437.0</ele><time>2026-04-06T15:55:52.601Z</time></trkpt><trkpt lat="44.715335" lon="9.57097"><ele>440.0</ele><time>2026-04-06T15:55:53.602Z</time></trkpt><trkpt lat="44.71551" lon="9.5710167"><ele>443.0</ele><time>2026-04-06T15:55:54.603Z</time></trkpt><trkpt lat="44.715685" lon="9.5710517"><ele>446.0</ele><time>2026-04-06T15:55:55.601Z</time></trkpt><trkpt lat="44.7158567" lon="9.5710833"><ele>446.0</ele><time>2026-04-06T15:55:56.601Z</time></trkpt><trkpt lat="44.71602" lon="9.57113"><ele>446.0</ele><time>2026-04-06T15:55:57.602Z</time></trkpt><trkpt lat="44.7161783" lon="9.5711867"><ele>446.0</ele><time>2026-04-06T15:55:58.601Z</time></trkpt><trkpt lat="44.7163317" lon="9.57125"><ele>440.66666666666663</ele><time>2026-04-06T15:55:59.603Z</time></trkpt><trkpt lat="44.71648" lon="9.5713183"><ele>435.33333333333337</ele><time>2026-04-06T15:56:00.603Z</time></trkpt><trkpt lat="44.716635" lon="9.5713717"><ele>430.0</ele><time>2026-04-06T15:56:01.604Z</time></trkpt><trkpt lat="44.7167883" lon="9.5714217"><ele>433.5</ele><time>2026-04-06T15:56:02.601Z</time></trkpt><trkpt lat="44.716935" lon="9.5714717"><ele>437.0</ele><time>2026-04-06T15:56:03.601Z</time></trkpt><trkpt lat="44.7170717" lon="9.57153"><ele>440.5</ele><time>2026-04-06T15:56:04.6Z</time></trkpt><trkpt lat="44.7171883" lon="9.571625"><ele>444.0</ele><time>2026-04-06T15:56:05.602Z</time></trkpt><trkpt lat="44.7173" lon="9.5717533"><ele>444.0</ele><time>2026-04-06T15:56:06.601Z</time></trkpt><trkpt lat="44.7174067" lon="9.5719017"><ele>444.0</ele><time>2026-04-06T15:56:07.602Z</time></trkpt><trkpt lat="44.7175167" lon="9.5720633"><ele>444.0</ele><time>2026-04-06T15:56:08.603Z</time></trkpt><trkpt lat="44.7176367" lon="9.5722417"><ele>443.33333333333337</ele><time>2026-04-06T15:56:09.602Z</time></trkpt><trkpt lat="44.71778" lon="9.5724433"><ele>442.6666666666667</ele><time>2026-04-06T15:56:10.6Z</time></trkpt><trkpt lat="44.7179367" lon="9.57269"><ele>442.0</ele><time>2026-04-06T15:56:11.602Z</time></trkpt><trkpt lat="44.7181" lon="9.5729633"><ele>442.0</ele><time>2026-04-06T15:56:12.602Z</time></trkpt><trkpt lat="44.7182617" lon="9.5732317"><ele>442.0</ele><time>2026-04-06T15:56:13.602Z</time></trkpt><trkpt lat="44.718415" lon="9.5734783"><ele>445.0</ele><time>2026-04-06T15:56:14.603Z</time></trkpt><trkpt lat="44.718555" lon="9.5737117"><ele>448.0</ele><time>2026-04-06T15:56:15.602Z</time></trkpt><trkpt lat="44.7186867" lon="9.5739317"><ele>451.0</ele><time>2026-04-06T15:56:16.6Z</time></trkpt><trkpt lat="44.7188133" lon="9.5741383"><ele>451.0</ele><time>2026-04-06T15:56:17.602Z</time></trkpt><trkpt lat="44.7189367" lon="9.5743267"><ele>451.0</ele><time>2026-04-06T15:56:18.6Z</time></trkpt><trkpt lat="44.71906" lon="9.5744883"><ele>451.0</ele><time>2026-04-06T15:56:19.602Z</time></trkpt><trkpt lat="44.71919" lon="9.5746233"><ele>448.0</ele><time>2026-04-06T15:56:20.6Z</time></trkpt><trkpt lat="44.719335" lon="9.5747183"><ele>445.0</ele><time>2026-04-06T15:56:21.601Z</time></trkpt><trkpt lat="44.7195067" lon="9.5747467"><ele>442.0</ele><time>2026-04-06T15:56:22.602Z</time></trkpt><trkpt lat="44.7197033" lon="9.5747133"><ele>442.0</ele><time>2026-04-06T15:56:23.601Z</time></trkpt><trkpt lat="44.719905" lon="9.574655"><ele>442.0</ele><time>2026-04-06T15:56:24.6Z</time></trkpt><trkpt lat="44.7200883" lon="9.5745883"><ele>442.0</ele><time>2026-04-06T15:56:25.601Z</time></trkpt><trkpt lat="44.7202667" lon="9.5745217"><ele>448.6666666666667</ele><time>2026-04-06T15:56:26.602Z</time></trkpt><trkpt lat="44.7204333" lon="9.57446"><ele>455.33333333333337</ele><time>2026-04-06T15:56:27.602Z</time></trkpt><trkpt lat="44.720585" lon="9.574405"><ele>462.0</ele><time>2026-04-06T15:56:28.603Z</time></trkpt><trkpt lat="44.7207317" lon="9.574365"><ele>462.0</ele><time>2026-04-06T15:56:29.601Z</time></trkpt><trkpt lat="44.72088" lon="9.5743633"><ele>462.0</ele><time>2026-04-06T15:56:30.603Z</time></trkpt><trkpt lat="44.7210233" lon="9.5744117"><ele>462.0</ele><time>2026-04-06T15:56:31.602Z</time></trkpt><trkpt lat="44.7211583" lon="9.574515"><ele>462.0</ele><time>2026-04-06T15:56:32.604Z</time></trkpt><trkpt lat="44.72128" lon="9.57466"><ele>461.0</ele><time>2026-04-06T15:56:33.602Z</time></trkpt><trkpt lat="44.7214" lon="9.5748233"><ele>460.0</ele><time>2026-04-06T15:56:34.602Z</time></trkpt><trkpt lat="44.7215267" lon="9.5749767"><ele>459.0</ele><time>2026-04-06T15:56:35.601Z</time></trkpt><trkpt lat="44.7216667" lon="9.57511"><ele>459.0</ele><time>2026-04-06T15:56:36.601Z</time></trkpt><trkpt lat="44.7218283" lon="9.5752183"><ele>459.0</ele><time>2026-04-06T15:56:37.603Z</time></trkpt><trkpt lat="44.7220033" lon="9.5753117"><ele>459.0</ele><time>2026-04-06T15:56:38.601Z</time></trkpt><trkpt lat="44.7221883" lon="9.5753983"><ele>457.0</ele><time>2026-04-06T15:56:39.602Z</time></trkpt><trkpt lat="44.7223833" lon="9.5754733"><ele>455.0</ele><time>2026-04-06T15:56:40.602Z</time></trkpt><trkpt lat="44.7225867" lon="9.5755333"><ele>453.0</ele><time>2026-04-06T15:56:41.6Z</time></trkpt><trkpt lat="44.722795" lon="9.5755783"><ele>453.0</ele><time>2026-04-06T15:56:42.6Z</time></trkpt><trkpt lat="44.723" lon="9.5756367"><ele>453.0</ele><time>2026-04-06T15:56:43.603Z</time></trkpt><trkpt lat="44.7232017" lon="9.5757167"><ele>453.0</ele><time>2026-04-06T15:56:44.601Z</time></trkpt><trkpt lat="44.7234017" lon="9.5758117"><ele>458.66666666666663</ele><time>2026-04-06T15:56:45.6Z</time></trkpt><trkpt lat="44.723595" lon="9.5759117"><ele>464.3333333333333</ele><time>2026-04-06T15:56:46.603Z</time></trkpt><trkpt lat="44.7237783" lon="9.5760067"><ele>470.0</ele><time>2026-04-06T15:56:47.602Z</time></trkpt><trkpt lat="44.7239533" lon="9.5760967"><ele>470.0</ele><time>2026-04-06T15:56:48.603Z</time></trkpt><trkpt lat="44.724125" lon="9.576185"><ele>470.0</ele><time>2026-04-06T15:56:49.602Z</time></trkpt><trkpt lat="44.7243067" lon="9.5762567"><ele>470.0</ele><time>2026-04-06T15:56:50.603Z</time></trkpt><trkpt lat="44.7245033" lon="9.5762967"><ele>460.0</ele><time>2026-04-06T15:56:51.603Z</time></trkpt><trkpt lat="44.7247033" lon="9.5763133"><ele>450.0</ele><time>2026-04-06T15:56:52.601Z</time></trkpt><trkpt lat="44.7249" lon="9.5763233"><ele>440.0</ele><time>2026-04-06T15:56:53.601Z</time></trkpt><trkpt lat="44.7250833" lon="9.5763517"><ele>444.66666666666663</ele><time>2026-04-06T15:56:54.603Z</time></trkpt><trkpt lat="44.725255" lon="9.5763917"><ele>449.33333333333337</ele><time>2026-04-06T15:56:55.601Z</time></trkpt><trkpt lat="44.7254183" lon="9.5764617"><ele>454.0</ele><time>2026-04-06T15:56:56.602Z</time></trkpt><trkpt lat="44.725575" lon="9.5765783"><ele>454.0</ele><time>2026-04-06T15:56:57.602Z</time></trkpt><trkpt lat="44.7257267" lon="9.5767167"><ele>454.0</ele><time>2026-04-06T15:56:58.603Z</time></trkpt><trkpt lat="44.7258717" lon="9.576855"><ele>454.0</ele><time>2026-04-06T15:56:59.603Z</time></trkpt><trkpt lat="44.7260083" lon="9.5769817"><ele>451.5</ele><time>2026-04-06T15:57:00.603Z</time></trkpt><trkpt lat="44.7261383" lon="9.5770883"><ele>449.0</ele><time>2026-04-06T15:57:01.602Z</time></trkpt><trkpt lat="44.7262667" lon="9.5771617"><ele>446.5</ele><time>2026-04-06T15:57:02.603Z</time></trkpt><trkpt lat="44.7263967" lon="9.5771883"><ele>444.0</ele><time>2026-04-06T15:57:03.602Z</time></trkpt><trkpt lat="44.72652" lon="9.5771517"><ele>444.0</ele><time>2026-04-06T15:57:04.603Z</time></trkpt><trkpt lat="44.7266283" lon="9.5770483"><ele>444.0</ele><time>2026-04-06T15:57:05.603Z</time></trkpt><trkpt lat="44.7267117" lon="9.5769067"><ele>444.0</ele><time>2026-04-06T15:57:06.602Z</time></trkpt><trkpt lat="44.7267817" lon="9.5767633"><ele>444.0</ele><time>2026-04-06T15:57:07.601Z</time></trkpt><trkpt lat="44.72685" lon="9.5766367"><ele>453.2</ele><time>2026-04-06T15:57:08.603Z</time></trkpt><trkpt lat="44.7269283" lon="9.5765517"><ele>462.4</ele><time>2026-04-06T15:57:09.603Z</time></trkpt><trkpt lat="44.7270183" lon="9.57651"><ele>471.6</ele><time>2026-04-06T15:57:10.603Z</time></trkpt><trkpt lat="44.72711" lon="9.5765233"><ele>480.8</ele><time>2026-04-06T15:57:11.601Z</time></trkpt><trkpt lat="44.7271867" lon="9.5765883"><ele>490.0</ele><time>2026-04-06T15:57:12.603Z</time></trkpt><trkpt lat="44.7272417" lon="9.5766933"><ele>490.0</ele><time>2026-04-06T15:57:13.602Z</time></trkpt><trkpt lat="44.7272583" lon="9.576845"><ele>490.0</ele><time>2026-04-06T15:57:14.604Z</time></trkpt><trkpt lat="44.7272383" lon="9.577035"><ele>490.0</ele><time>2026-04-06T15:57:15.603Z</time></trkpt><trkpt lat="44.7272067" lon="9.57724"><ele>490.0</ele><time>2026-04-06T15:57:16.602Z</time></trkpt><trkpt lat="44.72717" lon="9.5774383"><ele>489.5</ele><time>2026-04-06T15:57:17.602Z</time></trkpt><trkpt lat="44.7271367" lon="9.5776267"><ele>489.0</ele><time>2026-04-06T15:57:18.601Z</time></trkpt><trkpt lat="44.727105" lon="9.5778033"><ele>488.5</ele><time>2026-04-06T15:57:19.601Z</time></trkpt><trkpt lat="44.72709" lon="9.5779733"><ele>488.0</ele><time>2026-04-06T15:57:20.602Z</time></trkpt><trkpt lat="44.7271033" lon="9.5781283"><ele>484.2</ele><time>2026-04-06T15:57:21.603Z</time></trkpt><trkpt lat="44.72714" lon="9.5782633"><ele>480.4</ele><time>2026-04-06T15:57:22.603Z</time></trkpt><trkpt lat="44.7271817" lon="9.578395"><ele>476.59999999999997</ele><time>2026-04-06T15:57:23.603Z</time></trkpt><trkpt lat="44.7272217" lon="9.5785333"><ele>472.79999999999995</ele><time>2026-04-06T15:57:24.603Z</time></trkpt><trkpt lat="44.727265" lon="9.5786833"><ele>469.0</ele><time>2026-04-06T15:57:25.603Z</time></trkpt><trkpt lat="44.72731" lon="9.5788367"><ele>463.25</ele><time>2026-04-06T15:57:26.602Z</time></trkpt><trkpt lat="44.72736" lon="9.5789833"><ele>457.5</ele><time>2026-04-06T15:57:27.603Z</time></trkpt><trkpt lat="44.7274183" lon="9.5791267"><ele>451.75</ele><time>2026-04-06T15:57:28.603Z</time></trkpt><trkpt lat="44.7274833" lon="9.5792683"><ele>446.0</ele><time>2026-04-06T15:57:29.603Z</time></trkpt><trkpt lat="44.7275483" lon="9.57941"><ele>442.0</ele><time>2026-04-06T15:57:30.603Z</time></trkpt><trkpt lat="44.7276067" lon="9.5795633"><ele>438.0</ele><time>2026-04-06T15:57:31.603Z</time></trkpt><trkpt lat="44.7276667" lon="9.5797383"><ele>434.0</ele><time>2026-04-06T15:57:32.604Z</time></trkpt><trkpt lat="44.7277233" lon="9.5799383"><ele>430.0</ele><time>2026-04-06T15:57:33.603Z</time></trkpt><trkpt lat="44.7277717" lon="9.5801717"><ele>442.33333333333337</ele><time>2026-04-06T15:57:34.603Z</time></trkpt><trkpt lat="44.727815" lon="9.58044"><ele>454.66666666666663</ele><time>2026-04-06T15:57:35.603Z</time></trkpt><trkpt lat="44.7278567" lon="9.580725"><ele>467.0</ele><time>2026-04-06T15:57:36.603Z</time></trkpt><trkpt lat="44.727895" lon="9.5810017"><ele>462.66666666666663</ele><time>2026-04-06T15:57:37.602Z</time></trkpt><trkpt lat="44.72793" lon="9.581255"><ele>458.33333333333337</ele><time>2026-04-06T15:57:38.603Z</time></trkpt><trkpt lat="44.7279633" lon="9.5814883"><ele>454.0</ele><time>2026-04-06T15:57:39.601Z</time></trkpt><trkpt lat="44.7279983" lon="9.5817067"><ele>454.0</ele><time>2026-04-06T15:57:40.601Z</time></trkpt><trkpt lat="44.728035" lon="9.5819"><ele>454.0</ele><time>2026-04-06T15:57:41.603Z</time></trkpt><trkpt lat="44.72809" lon="9.5820733"><ele>454.0</ele><time>2026-04-06T15:57:42.602Z</time></trkpt><trkpt lat="44.7281733" lon="9.5822167"><ele>454.0</ele><time>2026-04-06T15:57:43.603Z</time></trkpt><trkpt lat="44.72829" lon="9.58231"><ele>456.0</ele><time>2026-04-06T15:57:44.603Z</time></trkpt><trkpt lat="44.7284167" lon="9.58237"><ele>458.0</ele><time>2026-04-06T15:57:45.601Z</time></trkpt><trkpt lat="44.7285367" lon="9.58244"><ele>460.0</ele><time>2026-04-06T15:57:46.601Z</time></trkpt><trkpt lat="44.7286417" lon="9.58256"><ele>462.0</ele><time>2026-04-06T15:57:47.603Z</time></trkpt><trkpt lat="44.72873" lon="9.5827167"><ele>454.0</ele><time>2026-04-06T15:57:48.602Z</time></trkpt><trkpt lat="44.7288217" lon="9.5828817"><ele>446.0</ele><time>2026-04-06T15:57:49.602Z</time></trkpt><trkpt lat="44.7289267" lon="9.58304"><ele>438.0</ele><time>2026-04-06T15:57:50.603Z</time></trkpt><trkpt lat="44.7290583" lon="9.5831883"><ele>438.0</ele><time>2026-04-06T15:57:51.601Z</time></trkpt><trkpt lat="44.7292217" lon="9.5833317"><ele>438.0</ele><time>2026-04-06T15:57:52.602Z</time></trkpt><trkpt lat="44.7294033" lon="9.5834767"><ele>438.0</ele><time>2026-04-06T15:57:53.603Z</time></trkpt><trkpt lat="44.7295833" lon="9.5836217"><ele>438.0</ele><time>2026-04-06T15:57:54.602Z</time></trkpt><trkpt lat="44.729755" lon="9.5837633"><ele>438.0</ele><time>2026-04-06T15:57:55.603Z</time></trkpt><trkpt lat="44.7299117" lon="9.5838933"><ele>438.0</ele><time>2026-04-06T15:57:56.602Z</time></trkpt><trkpt lat="44.7300517" lon="9.5840233"><ele>438.0</ele><time>2026-04-06T15:57:57.603Z</time></trkpt><trkpt lat="44.7301683" lon="9.5841717"><ele>438.0</ele><time>2026-04-06T15:57:58.602Z</time></trkpt><trkpt lat="44.7302683" lon="9.5843533"><ele>438.0</ele><time>2026-04-06T15:57:59.603Z</time></trkpt><trkpt lat="44.7303467" lon="9.584565"><ele>441.66666666666663</ele><time>2026-04-06T15:58:00.603Z</time></trkpt><trkpt lat="44.7304167" lon="9.584795"><ele>445.3333333333333</ele><time>2026-04-06T15:58:01.603Z</time></trkpt><trkpt lat="44.730495" lon="9.5850283"><ele>449.0</ele><time>2026-04-06T15:58:02.603Z</time></trkpt><trkpt lat="44.7305817" lon="9.58525"><ele>443.66666666666663</ele><time>2026-04-06T15:58:03.603Z</time></trkpt><trkpt lat="44.7306717" lon="9.585445"><ele>438.33333333333337</ele><time>2026-04-06T15:58:04.602Z</time></trkpt><trkpt lat="44.73076" lon="9.585615"><ele>433.0</ele><time>2026-04-06T15:58:05.603Z</time></trkpt><trkpt lat="44.730855" lon="9.5857583"><ele>433.0</ele><time>2026-04-06T15:58:06.602Z</time></trkpt><trkpt lat="44.7309833" lon="9.58586"><ele>433.0</ele><time>2026-04-06T15:58:07.603Z</time></trkpt><trkpt lat="44.731145" lon="9.5859233"><ele>433.0</ele><time>2026-04-06T15:58:08.603Z</time></trkpt><trkpt lat="44.73133" lon="9.5859717"><ele>433.6666666666667</ele><time>2026-04-06T15:58:09.604Z</time></trkpt><trkpt lat="44.7315267" lon="9.5860267"><ele>434.33333333333337</ele><time>2026-04-06T15:58:10.603Z</time></trkpt><trkpt lat="44.73172" lon="9.5860933"><ele>435.0</ele><time>2026-04-06T15:58:11.603Z</time></trkpt><trkpt lat="44.7319033" lon="9.586185"><ele>435.0</ele><time>2026-04-06T15:58:12.603Z</time></trkpt><trkpt lat="44.7320783" lon="9.5863"><ele>435.0</ele><time>2026-04-06T15:58:13.602Z</time></trkpt><trkpt lat="44.73224" lon="9.58644"><ele>435.0</ele><time>2026-04-06T15:58:14.603Z</time></trkpt><trkpt lat="44.7323933" lon="9.5865933"><ele>435.0</ele><time>2026-04-06T15:58:15.603Z</time></trkpt><trkpt lat="44.7325317" lon="9.586745"><ele>435.0</ele><time>2026-04-06T15:58:16.601Z</time></trkpt><trkpt lat="44.73267" lon="9.5868867"><ele>435.0</ele><time>2026-04-06T15:58:17.603Z</time></trkpt><trkpt lat="44.7328167" lon="9.5870067"><ele>432.33333333333337</ele><time>2026-04-06T15:58:18.602Z</time></trkpt><trkpt lat="44.7329683" lon="9.5871017"><ele>429.6666666666667</ele><time>2026-04-06T15:58:19.602Z</time></trkpt><trkpt lat="44.7331183" lon="9.5871767"><ele>427.0</ele><time>2026-04-06T15:58:20.601Z</time></trkpt><trkpt lat="44.7332617" lon="9.5872383"><ele>427.0</ele><time>2026-04-06T15:58:21.604Z</time></trkpt><trkpt lat="44.7334" lon="9.5872833"><ele>427.0</ele><time>2026-04-06T15:58:22.599Z</time></trkpt><trkpt lat="44.7335283" lon="9.5872967"><ele>427.0</ele><time>2026-04-06T15:58:23.602Z</time></trkpt><trkpt lat="44.733655" lon="9.5872733"><ele>427.0</ele><time>2026-04-06T15:58:24.6Z</time></trkpt><trkpt lat="44.7337783" lon="9.587225"><ele>426.75</ele><time>2026-04-06T15:58:25.603Z</time></trkpt><trkpt lat="44.7338983" lon="9.5871683"><ele>426.5</ele><time>2026-04-06T15:58:26.602Z</time></trkpt><trkpt lat="44.7340117" lon="9.5871233"><ele>426.25</ele><time>2026-04-06T15:58:27.602Z</time></trkpt><trkpt lat="44.7341233" lon="9.5870967"><ele>426.0</ele><time>2026-04-06T15:58:28.599Z</time></trkpt><trkpt lat="44.734235" lon="9.5870967"><ele>426.0</ele><time>2026-04-06T15:58:29.603Z</time></trkpt><trkpt lat="44.7343483" lon="9.587125"><ele>426.0</ele><time>2026-04-06T15:58:30.601Z</time></trkpt><trkpt lat="44.7344617" lon="9.587175"><ele>426.0</ele><time>2026-04-06T15:58:31.601Z</time></trkpt><trkpt lat="44.7345783" lon="9.5872333"><ele>426.0</ele><time>2026-04-06T15:58:32.602Z</time></trkpt><trkpt lat="44.7346967" lon="9.5872883"><ele>427.25</ele><time>2026-04-06T15:58:33.602Z</time></trkpt><trkpt lat="44.73482" lon="9.5873417"><ele>428.5</ele><time>2026-04-06T15:58:34.6Z</time></trkpt><trkpt lat="44.734945" lon="9.5873917"><ele>429.75</ele><time>2026-04-06T15:58:35.601Z</time></trkpt><trkpt lat="44.7350717" lon="9.587425"><ele>431.0</ele><time>2026-04-06T15:58:36.603Z</time></trkpt><trkpt lat="44.735195" lon="9.5874467"><ele>432.75</ele><time>2026-04-06T15:58:37.602Z</time></trkpt><trkpt lat="44.7353167" lon="9.5874633"><ele>434.5</ele><time>2026-04-06T15:58:38.602Z</time></trkpt><trkpt lat="44.7354333" lon="9.5874733"><ele>436.25</ele><time>2026-04-06T15:58:39.602Z</time></trkpt><trkpt lat="44.7355517" lon="9.5874767"><ele>438.0</ele><time>2026-04-06T15:58:40.601Z</time></trkpt><trkpt lat="44.7356733" lon="9.5874817"><ele>438.0</ele><time>2026-04-06T15:58:41.602Z</time></trkpt><trkpt lat="44.73579" lon="9.587485"><ele>437.99999999999994</ele><time>2026-04-06T15:58:42.603Z</time></trkpt><trkpt lat="44.7359" lon="9.5874883"><ele>437.99999999999994</ele><time>2026-04-06T15:58:43.602Z</time></trkpt><trkpt lat="44.736" lon="9.5874883"><ele>438.0</ele><time>2026-04-06T15:58:44.602Z</time></trkpt><trkpt lat="44.7361" lon="9.587485"><ele>438.0</ele><time>2026-04-06T15:58:45.603Z</time></trkpt><trkpt lat="44.736195" lon="9.5874783"><ele>437.1666666666667</ele><time>2026-04-06T15:58:46.603Z</time></trkpt><trkpt lat="44.7362867" lon="9.58745"><ele>436.33333333333337</ele><time>2026-04-06T15:58:47.603Z</time></trkpt><trkpt lat="44.7363733" lon="9.587405"><ele>435.5</ele><time>2026-04-06T15:58:48.602Z</time></trkpt><trkpt lat="44.736455" lon="9.587365"><ele>434.6666666666667</ele><time>2026-04-06T15:58:49.601Z</time></trkpt><trkpt lat="44.736535" lon="9.5873433"><ele>433.83333333333337</ele><time>2026-04-06T15:58:50.603Z</time></trkpt><trkpt lat="44.73661" lon="9.5873567"><ele>433.0</ele><time>2026-04-06T15:58:51.602Z</time></trkpt><trkpt lat="44.7366833" lon="9.587395"><ele>433.00000000000006</ele><time>2026-04-06T15:58:52.602Z</time></trkpt><trkpt lat="44.73675" lon="9.5874483"><ele>433.0</ele><time>2026-04-06T15:58:53.603Z</time></trkpt><trkpt lat="44.7368083" lon="9.58753"><ele>433.0</ele><time>2026-04-06T15:58:54.603Z</time></trkpt><trkpt lat="44.7368583" lon="9.58763"><ele>433.0</ele><time>2026-04-06T15:58:55.603Z</time></trkpt><trkpt lat="44.736905" lon="9.587725"><ele>433.00000000000006</ele><time>2026-04-06T15:58:56.603Z</time></trkpt><trkpt lat="44.7369567" lon="9.587815"><ele>433.0</ele><time>2026-04-06T15:58:57.603Z</time></trkpt><trkpt lat="44.7370233" lon="9.5878983"><ele>430.25</ele><time>2026-04-06T15:58:58.602Z</time></trkpt><trkpt lat="44.7371033" lon="9.5879683"><ele>427.5</ele><time>2026-04-06T15:58:59.601Z</time></trkpt><trkpt lat="44.7372" lon="9.588025"><ele>424.75</ele><time>2026-04-06T15:59:00.601Z</time></trkpt><trkpt lat="44.7373133" lon="9.5880583"><ele>422.0</ele><time>2026-04-06T15:59:01.603Z</time></trkpt><trkpt lat="44.7374517" lon="9.58807"><ele>422.0</ele><time>2026-04-06T15:59:02.602Z</time></trkpt><trkpt lat="44.7376067" lon="9.588075"><ele>422.0</ele><time>2026-04-06T15:59:03.603Z</time></trkpt><trkpt lat="44.73776" lon="9.588085"><ele>422.0</ele><time>2026-04-06T15:59:04.603Z</time></trkpt><trkpt lat="44.7378983" lon="9.5880983"><ele>422.0</ele><time>2026-04-06T15:59:05.603Z</time></trkpt><trkpt lat="44.7380217" lon="9.588115"><ele>423.6</ele><time>2026-04-06T15:59:06.602Z</time></trkpt><trkpt lat="44.7381333" lon="9.5881467"><ele>425.20000000000005</ele><time>2026-04-06T15:59:07.6Z</time></trkpt><trkpt lat="44.73823" lon="9.5882"><ele>426.8</ele><time>2026-04-06T15:59:08.603Z</time></trkpt><trkpt lat="44.7383167" lon="9.58826"><ele>428.4</ele><time>2026-04-06T15:59:09.602Z</time></trkpt><trkpt lat="44.7383933" lon="9.5883217"><ele>430.0</ele><time>2026-04-06T15:59:10.602Z</time></trkpt><trkpt lat="44.7384633" lon="9.5883833"><ele>430.0</ele><time>2026-04-06T15:59:11.603Z</time></trkpt><trkpt lat="44.7385383" lon="9.5884467"><ele>430.0</ele><time>2026-04-06T15:59:12.602Z</time></trkpt><trkpt lat="44.73862" lon="9.588505"><ele>430.0</ele><time>2026-04-06T15:59:13.6Z</time></trkpt><trkpt lat="44.7387117" lon="9.58855"><ele>430.0</ele><time>2026-04-06T15:59:14.602Z</time></trkpt><trkpt lat="44.7388067" lon="9.588585"><ele>430.0</ele><time>2026-04-06T15:59:15.599Z</time></trkpt><trkpt lat="44.738905" lon="9.588605"><ele>430.75</ele><time>2026-04-06T15:59:16.6Z</time></trkpt><trkpt lat="44.7390067" lon="9.588605"><ele>431.5</ele><time>2026-04-06T15:59:17.605Z</time></trkpt><trkpt lat="44.73912" lon="9.5885683"><ele>432.25</ele><time>2026-04-06T15:59:18.604Z</time></trkpt><trkpt lat="44.73924" lon="9.588495"><ele>433.0</ele><time>2026-04-06T15:59:19.604Z</time></trkpt><trkpt lat="44.7393617" lon="9.5884083"><ele>432.75</ele><time>2026-04-06T15:59:20.604Z</time></trkpt><trkpt lat="44.7394783" lon="9.5883333"><ele>432.5</ele><time>2026-04-06T15:59:21.603Z</time></trkpt><trkpt lat="44.7395883" lon="9.5882867"><ele>432.25</ele><time>2026-04-06T15:59:22.604Z</time></trkpt><trkpt lat="44.7396983" lon="9.58828"><ele>432.0</ele><time>2026-04-06T15:59:23.605Z</time></trkpt><trkpt lat="44.73981" lon="9.58831"><ele>432.0</ele><time>2026-04-06T15:59:24.602Z</time></trkpt><trkpt lat="44.73991" lon="9.5883683"><ele>432.00000000000006</ele><time>2026-04-06T15:59:25.602Z</time></trkpt><trkpt lat="44.7400033" lon="9.58844"><ele>432.00000000000006</ele><time>2026-04-06T15:59:26.601Z</time></trkpt><trkpt lat="44.7400933" lon="9.58851"><ele>432.0</ele><time>2026-04-06T15:59:27.603Z</time></trkpt><trkpt lat="44.7401817" lon="9.5885767"><ele>432.0</ele><time>2026-04-06T15:59:28.603Z</time></trkpt><trkpt lat="44.7402667" lon="9.588645"><ele>429.40000000000003</ele><time>2026-04-06T15:59:29.602Z</time></trkpt><trkpt lat="44.74035" lon="9.5887083"><ele>426.80000000000007</ele><time>2026-04-06T15:59:30.6Z</time></trkpt><trkpt lat="44.7404383" lon="9.5887633"><ele>424.2</ele><time>2026-04-06T15:59:31.603Z</time></trkpt><trkpt lat="44.7405333" lon="9.5887933"><ele>421.6</ele><time>2026-04-06T15:59:32.602Z</time></trkpt><trkpt lat="44.7406333" lon="9.588795"><ele>419.0</ele><time>2026-04-06T15:59:33.603Z</time></trkpt><trkpt lat="44.74073" lon="9.5887717"><ele>419.0</ele><time>2026-04-06T15:59:34.603Z</time></trkpt><trkpt lat="44.7408217" lon="9.5887317"><ele>419.0</ele><time>2026-04-06T15:59:35.601Z</time></trkpt><trkpt lat="44.7409067" lon="9.5887"><ele>419.0</ele><time>2026-04-06T15:59:36.602Z</time></trkpt><trkpt lat="44.7409933" lon="9.5887"><ele>419.0</ele><time>2026-04-06T15:59:37.602Z</time></trkpt><trkpt lat="44.7410817" lon="9.5887367"><ele>419.0</ele><time>2026-04-06T15:59:38.602Z</time></trkpt><trkpt lat="44.741165" lon="9.58879"><ele>420.99999999999994</ele><time>2026-04-06T15:59:39.603Z</time></trkpt><trkpt lat="44.7412383" lon="9.588855"><ele>423.0</ele><time>2026-04-06T15:59:40.6Z</time></trkpt><trkpt lat="44.7413" lon="9.588935"><ele>425.0</ele><time>2026-04-06T15:59:41.603Z</time></trkpt><trkpt lat="44.741345" lon="9.5890333"><ele>427.0</ele><time>2026-04-06T15:59:42.603Z</time></trkpt><trkpt lat="44.7413683" lon="9.589145"><ele>428.99999999999994</ele><time>2026-04-06T15:59:43.602Z</time></trkpt><trkpt lat="44.7413733" lon="9.5892567"><ele>431.0</ele><time>2026-04-06T15:59:44.603Z</time></trkpt><trkpt lat="44.7413667" lon="9.5893583"><ele>430.99999999999994</ele><time>2026-04-06T15:59:45.602Z</time></trkpt><trkpt lat="44.741365" lon="9.5894667"><ele>431.0</ele><time>2026-04-06T15:59:46.603Z</time></trkpt><trkpt lat="44.7413783" lon="9.5895783"><ele>431.0</ele><time>2026-04-06T15:59:47.601Z</time></trkpt><trkpt lat="44.7414133" lon="9.589685"><ele>431.0</ele><time>2026-04-06T15:59:48.603Z</time></trkpt><trkpt lat="44.7414683" lon="9.58977"><ele>430.99999999999994</ele><time>2026-04-06T15:59:49.603Z</time></trkpt><trkpt lat="44.74154" lon="9.5898283"><ele>431.0</ele><time>2026-04-06T15:59:50.602Z</time></trkpt><trkpt lat="44.741625" lon="9.5898633"><ele>431.6</ele><time>2026-04-06T15:59:51.602Z</time></trkpt><trkpt lat="44.7417167" lon="9.589865"><ele>432.20000000000005</ele><time>2026-04-06T15:59:52.603Z</time></trkpt><trkpt lat="44.7418167" lon="9.5898433"><ele>432.79999999999995</ele><time>2026-04-06T15:59:53.603Z</time></trkpt><trkpt lat="44.7419183" lon="9.5898283"><ele>433.4</ele><time>2026-04-06T15:59:54.602Z</time></trkpt><trkpt lat="44.742025" lon="9.5898433"><ele>434.0</ele><time>2026-04-06T15:59:55.602Z</time></trkpt><trkpt lat="44.74213" lon="9.589885"><ele>434.0</ele><time>2026-04-06T15:59:56.603Z</time></trkpt><trkpt lat="44.742225" lon="9.5899433"><ele>434.0</ele><time>2026-04-06T15:59:57.602Z</time></trkpt><trkpt lat="44.742315" lon="9.590015"><ele>434.0</ele><time>2026-04-06T15:59:58.603Z</time></trkpt><trkpt lat="44.742415" lon="9.5901"><ele>434.0</ele><time>2026-04-06T15:59:59.604Z</time></trkpt><trkpt lat="44.7425267" lon="9.5901983"><ele>434.0</ele><time>2026-04-06T16:00:00.602Z</time></trkpt><trkpt lat="44.7426533" lon="9.5903167"><ele>434.0</ele><time>2026-04-06T16:00:01.602Z</time></trkpt><trkpt lat="44.7427967" lon="9.590445"><ele>434.0</ele><time>2026-04-06T16:00:02.602Z</time></trkpt><trkpt lat="44.742955" lon="9.5905833"><ele>433.66666666666663</ele><time>2026-04-06T16:00:03.602Z</time></trkpt><trkpt lat="44.7431217" lon="9.5907267"><ele>433.33333333333337</ele><time>2026-04-06T16:00:04.602Z</time></trkpt><trkpt lat="44.7432967" lon="9.5908717"><ele>433.0</ele><time>2026-04-06T16:00:05.603Z</time></trkpt><trkpt lat="44.743475" lon="9.591015"><ele>429.6666666666667</ele><time>2026-04-06T16:00:06.603Z</time></trkpt><trkpt lat="44.7436583" lon="9.5911533"><ele>426.33333333333337</ele><time>2026-04-06T16:00:07.602Z</time></trkpt><trkpt lat="44.7438383" lon="9.5912833"><ele>423.0</ele><time>2026-04-06T16:00:08.604Z</time></trkpt><trkpt lat="44.7440133" lon="9.5914067"><ele>423.0</ele><time>2026-04-06T16:00:09.603Z</time></trkpt><trkpt lat="44.744185" lon="9.591535"><ele>423.0</ele><time>2026-04-06T16:00:10.602Z</time></trkpt><trkpt lat="44.7443517" lon="9.59166"><ele>423.0</ele><time>2026-04-06T16:00:11.602Z</time></trkpt><trkpt lat="44.7445083" lon="9.591785"><ele>416.66666666666663</ele><time>2026-04-06T16:00:12.603Z</time></trkpt><trkpt lat="44.744655" lon="9.591915"><ele>410.3333333333333</ele><time>2026-04-06T16:00:13.603Z</time></trkpt><trkpt lat="44.7447933" lon="9.59204"><ele>404.0</ele><time>2026-04-06T16:00:14.603Z</time></trkpt><trkpt lat="44.744925" lon="9.592155"><ele>404.0</ele><time>2026-04-06T16:00:15.602Z</time></trkpt><trkpt lat="44.745055" lon="9.5922583"><ele>404.0</ele><time>2026-04-06T16:00:16.602Z</time></trkpt><trkpt lat="44.745185" lon="9.5923517"><ele>404.0</ele><time>2026-04-06T16:00:17.603Z</time></trkpt><trkpt lat="44.7453133" lon="9.5924367"><ele>404.0</ele><time>2026-04-06T16:00:18.603Z</time></trkpt><trkpt lat="44.7454367" lon="9.5925217"><ele>401.5</ele><time>2026-04-06T16:00:19.603Z</time></trkpt><trkpt lat="44.7455567" lon="9.5926067"><ele>399.0</ele><time>2026-04-06T16:00:20.602Z</time></trkpt><trkpt lat="44.7456733" lon="9.5927017"><ele>396.5</ele><time>2026-04-06T16:00:21.603Z</time></trkpt><trkpt lat="44.7457967" lon="9.5928017"><ele>394.0</ele><time>2026-04-06T16:00:22.603Z</time></trkpt><trkpt lat="44.7459367" lon="9.59291"><ele>405.6666666666667</ele><time>2026-04-06T16:00:23.603Z</time></trkpt><trkpt lat="44.7460817" lon="9.59302"><ele>417.33333333333337</ele><time>2026-04-06T16:00:24.602Z</time></trkpt><trkpt lat="44.7462183" lon="9.5931283"><ele>429.0</ele><time>2026-04-06T16:00:25.602Z</time></trkpt><trkpt lat="44.746345" lon="9.59323"><ele>429.0</ele><time>2026-04-06T16:00:26.601Z</time></trkpt><trkpt lat="44.746465" lon="9.5933283"><ele>429.0</ele><time>2026-04-06T16:00:27.602Z</time></trkpt><trkpt lat="44.74658" lon="9.593415"><ele>429.0</ele><time>2026-04-06T16:00:28.602Z</time></trkpt><trkpt lat="44.74669" lon="9.5934833"><ele>429.0</ele><time>2026-04-06T16:00:29.603Z</time></trkpt><trkpt lat="44.7467967" lon="9.59354"><ele>428.2</ele><time>2026-04-06T16:00:30.602Z</time></trkpt><trkpt lat="44.7468983" lon="9.5935867"><ele>427.4</ele><time>2026-04-06T16:00:31.603Z</time></trkpt><trkpt lat="44.7469933" lon="9.593625"><ele>426.6</ele><time>2026-04-06T16:00:32.602Z</time></trkpt><trkpt lat="44.7470833" lon="9.5936567"><ele>425.8</ele><time>2026-04-06T16:00:33.602Z</time></trkpt><trkpt lat="44.7471717" lon="9.59367"><ele>425.0</ele><time>2026-04-06T16:00:34.6Z</time></trkpt><trkpt lat="44.7472567" lon="9.59366"><ele>425.0</ele><time>2026-04-06T16:00:35.602Z</time></trkpt><trkpt lat="44.7473367" lon="9.5936033"><ele>425.0</ele><time>2026-04-06T16:00:36.602Z</time></trkpt><trkpt lat="44.7473983" lon="9.5935033"><ele>425.0</ele><time>2026-04-06T16:00:37.602Z</time></trkpt><trkpt lat="44.7474417" lon="9.5933717"><ele>425.0</ele><time>2026-04-06T16:00:38.603Z</time></trkpt><trkpt lat="44.7474733" lon="9.59323"><ele>425.0</ele><time>2026-04-06T16:00:39.603Z</time></trkpt><trkpt lat="44.7475117" lon="9.5930967"><ele>425.0</ele><time>2026-04-06T16:00:40.603Z</time></trkpt><trkpt lat="44.7475717" lon="9.5929817"><ele>425.0</ele><time>2026-04-06T16:00:41.601Z</time></trkpt><trkpt lat="44.747655" lon="9.5928983"><ele>425.0</ele><time>2026-04-06T16:00:42.601Z</time></trkpt><trkpt lat="44.747755" lon="9.5928517"><ele>425.0</ele><time>2026-04-06T16:00:43.601Z</time></trkpt><trkpt lat="44.7478717" lon="9.59284"><ele>425.0</ele><time>2026-04-06T16:00:44.604Z</time></trkpt><trkpt lat="44.7480017" lon="9.5928633"><ele>423.3333333333333</ele><time>2026-04-06T16:00:45.603Z</time></trkpt><trkpt lat="44.7481483" lon="9.5929283"><ele>421.66666666666663</ele><time>2026-04-06T16:00:46.603Z</time></trkpt><trkpt lat="44.748295" lon="9.5930367"><ele>420.0</ele><time>2026-04-06T16:00:47.6Z</time></trkpt><trkpt lat="44.7484317" lon="9.5931667"><ele>420.25</ele><time>2026-04-06T16:00:48.603Z</time></trkpt><trkpt lat="44.7485567" lon="9.5932967"><ele>420.5</ele><time>2026-04-06T16:00:49.602Z</time></trkpt><trkpt lat="44.7486783" lon="9.5934083"><ele>420.75</ele><time>2026-04-06T16:00:50.602Z</time></trkpt><trkpt lat="44.7488017" lon="9.5934983"><ele>421.0</ele><time>2026-04-06T16:00:51.6Z</time></trkpt><trkpt lat="44.748925" lon="9.593565"><ele>421.0</ele><time>2026-04-06T16:00:52.603Z</time></trkpt><trkpt lat="44.7490433" lon="9.5936233"><ele>421.0</ele><time>2026-04-06T16:00:53.602Z</time></trkpt><trkpt lat="44.7491567" lon="9.5936667"><ele>421.0</ele><time>2026-04-06T16:00:54.603Z</time></trkpt><trkpt lat="44.7492633" lon="9.593685"><ele>421.0</ele><time>2026-04-06T16:00:55.602Z</time></trkpt><trkpt lat="44.74937" lon="9.5936767"><ele>418.25</ele><time>2026-04-06T16:00:56.603Z</time></trkpt><trkpt lat="44.7494767" lon="9.59365"><ele>415.5</ele><time>2026-04-06T16:00:57.6Z</time></trkpt><trkpt lat="44.7495817" lon="9.593605"><ele>412.75</ele><time>2026-04-06T16:00:58.602Z</time></trkpt><trkpt lat="44.7496817" lon="9.5935117"><ele>410.0</ele><time>2026-04-06T16:00:59.603Z</time></trkpt><trkpt lat="44.7497867" lon="9.5933567"><ele>410.0</ele><time>2026-04-06T16:01:00.603Z</time></trkpt><trkpt lat="44.749895" lon="9.5931767"><ele>410.0</ele><time>2026-04-06T16:01:01.603Z</time></trkpt><trkpt lat="44.75" lon="9.5930067"><ele>410.0</ele><time>2026-04-06T16:01:02.602Z</time></trkpt><trkpt lat="44.7500967" lon="9.59285"><ele>410.5</ele><time>2026-04-06T16:01:03.603Z</time></trkpt><trkpt lat="44.7501867" lon="9.5927133"><ele>411.0</ele><time>2026-04-06T16:01:04.601Z</time></trkpt><trkpt lat="44.7502717" lon="9.59259"><ele>411.5</ele><time>2026-04-06T16:01:05.603Z</time></trkpt><trkpt lat="44.75036" lon="9.5924833"><ele>412.0</ele><time>2026-04-06T16:01:06.602Z</time></trkpt><trkpt lat="44.75046" lon="9.5923917"><ele>412.0</ele><time>2026-04-06T16:01:07.603Z</time></trkpt><trkpt lat="44.75058" lon="9.5923133"><ele>412.0</ele><time>2026-04-06T16:01:08.603Z</time></trkpt><trkpt lat="44.7507217" lon="9.592265"><ele>412.0</ele><time>2026-04-06T16:01:09.602Z</time></trkpt><trkpt lat="44.75087" lon="9.592255"><ele>412.0</ele><time>2026-04-06T16:01:10.603Z</time></trkpt><trkpt lat="44.7510117" lon="9.5922717"><ele>411.0</ele><time>2026-04-06T16:01:11.601Z</time></trkpt><trkpt lat="44.7511433" lon="9.5923033"><ele>410.0</ele><time>2026-04-06T16:01:12.602Z</time></trkpt><trkpt lat="44.7512667" lon="9.5923383"><ele>409.0</ele><time>2026-04-06T16:01:13.602Z</time></trkpt><trkpt lat="44.7513833" lon="9.5923567"><ele>408.0</ele><time>2026-04-06T16:01:14.603Z</time></trkpt><trkpt lat="44.7514967" lon="9.5923567"><ele>408.0</ele><time>2026-04-06T16:01:15.6Z</time></trkpt><trkpt lat="44.751605" lon="9.5923433"><ele>408.0</ele><time>2026-04-06T16:01:16.602Z</time></trkpt><trkpt lat="44.751705" lon="9.59232"><ele>408.0</ele><time>2026-04-06T16:01:17.603Z</time></trkpt><trkpt lat="44.7518" lon="9.5922783"><ele>408.0</ele><time>2026-04-06T16:01:18.602Z</time></trkpt><trkpt lat="44.7518933" lon="9.592225"><ele>408.0</ele><time>2026-04-06T16:01:19.603Z</time></trkpt><trkpt lat="44.75199" lon="9.5921817"><ele>408.79999999999995</ele><time>2026-04-06T16:01:20.603Z</time></trkpt><trkpt lat="44.7520883" lon="9.5921633"><ele>409.6</ele><time>2026-04-06T16:01:21.603Z</time></trkpt><trkpt lat="44.7521883" lon="9.5921717"><ele>410.4</ele><time>2026-04-06T16:01:22.6Z</time></trkpt><trkpt lat="44.7522883" lon="9.5922017"><ele>411.20000000000005</ele><time>2026-04-06T16:01:23.601Z</time></trkpt><trkpt lat="44.7523883" lon="9.5922483"><ele>412.0</ele><time>2026-04-06T16:01:24.601Z</time></trkpt><trkpt lat="44.752485" lon="9.5923033"><ele>412.0</ele><time>2026-04-06T16:01:25.599Z</time></trkpt><trkpt lat="44.75258" lon="9.592365"><ele>412.0</ele><time>2026-04-06T16:01:26.6Z</time></trkpt><trkpt lat="44.7526717" lon="9.592435"><ele>412.0</ele><time>2026-04-06T16:01:27.599Z</time></trkpt><trkpt lat="44.7527583" lon="9.5925117"><ele>412.0</ele><time>2026-04-06T16:01:28.599Z</time></trkpt><trkpt lat="44.752835" lon="9.59259"><ele>412.0</ele><time>2026-04-06T16:01:29.601Z</time></trkpt><trkpt lat="44.7529167" lon="9.5926733"><ele>412.0</ele><time>2026-04-06T16:01:30.599Z</time></trkpt><trkpt lat="44.7530117" lon="9.5927517"><ele>412.0</ele><time>2026-04-06T16:01:31.599Z</time></trkpt><trkpt lat="44.7531183" lon="9.5928117"><ele>412.0</ele><time>2026-04-06T16:01:32.6Z</time></trkpt><trkpt lat="44.753225" lon="9.59285"><ele>412.0</ele><time>2026-04-06T16:01:33.6Z</time></trkpt><trkpt lat="44.7533333" lon="9.5928683"><ele>412.0</ele><time>2026-04-06T16:01:34.6Z</time></trkpt><trkpt lat="44.75344" lon="9.5928583"><ele>409.0</ele><time>2026-04-06T16:01:35.6Z</time></trkpt><trkpt lat="44.7535483" lon="9.5928167"><ele>406.0</ele><time>2026-04-06T16:01:36.6Z</time></trkpt><trkpt lat="44.7536333" lon="9.5927283"><ele>403.0</ele><time>2026-04-06T16:01:37.6Z</time></trkpt><trkpt lat="44.7537067" lon="9.592595"><ele>400.0</ele><time>2026-04-06T16:01:38.6Z</time></trkpt><trkpt lat="44.75378" lon="9.592415"><ele>400.0</ele><time>2026-04-06T16:01:39.6Z</time></trkpt><trkpt lat="44.753865" lon="9.5922017"><ele>400.0</ele><time>2026-04-06T16:01:40.599Z</time></trkpt><trkpt lat="44.753965" lon="9.591985"><ele>400.0</ele><time>2026-04-06T16:01:41.6Z</time></trkpt><trkpt lat="44.7540717" lon="9.591785"><ele>401.25</ele><time>2026-04-06T16:01:42.6Z</time></trkpt><trkpt lat="44.7541767" lon="9.5916083"><ele>402.5</ele><time>2026-04-06T16:01:43.599Z</time></trkpt><trkpt lat="44.7542767" lon="9.5914517"><ele>403.75</ele><time>2026-04-06T16:01:44.6Z</time></trkpt><trkpt lat="44.75437" lon="9.5913167"><ele>405.0</ele><time>2026-04-06T16:01:45.6Z</time></trkpt><trkpt lat="44.7544617" lon="9.5912"><ele>404.75</ele><time>2026-04-06T16:01:46.599Z</time></trkpt><trkpt lat="44.7545617" lon="9.5911067"><ele>404.5</ele><time>2026-04-06T16:01:47.599Z</time></trkpt><trkpt lat="44.7546717" lon="9.5910367"><ele>404.25</ele><time>2026-04-06T16:01:48.599Z</time></trkpt><trkpt lat="44.7547867" lon="9.5909917"><ele>404.0</ele><time>2026-04-06T16:01:49.599Z</time></trkpt><trkpt lat="44.7548967" lon="9.59097"><ele>404.0</ele><time>2026-04-06T16:01:50.6Z</time></trkpt><trkpt lat="44.7550017" lon="9.59096"><ele>404.0</ele><time>2026-04-06T16:01:51.6Z</time></trkpt><trkpt lat="44.7551067" lon="9.59095"><ele>404.0</ele><time>2026-04-06T16:01:52.599Z</time></trkpt><trkpt lat="44.7552133" lon="9.5909417"><ele>404.0</ele><time>2026-04-06T16:01:53.598Z</time></trkpt><trkpt lat="44.7553167" lon="9.5909483"><ele>404.0</ele><time>2026-04-06T16:01:54.6Z</time></trkpt><trkpt lat="44.755415" lon="9.5909833"><ele>404.3333333333333</ele><time>2026-04-06T16:01:55.599Z</time></trkpt><trkpt lat="44.7554967" lon="9.591055"><ele>404.66666666666663</ele><time>2026-04-06T16:01:56.6Z</time></trkpt><trkpt lat="44.7555483" lon="9.59114"><ele>405.0</ele><time>2026-04-06T16:01:57.6Z</time></trkpt><trkpt lat="44.755585" lon="9.5912167"><ele>405.33333333333337</ele><time>2026-04-06T16:01:58.599Z</time></trkpt><trkpt lat="44.7556433" lon="9.5913217"><ele>405.6666666666667</ele><time>2026-04-06T16:02:00.6Z</time></trkpt><trkpt lat="44.7557133" lon="9.591375"><ele>406.0</ele><time>2026-04-06T16:02:02.599Z</time></trkpt><trkpt lat="44.7558267" lon="9.5914017"><ele>406.0</ele><time>2026-04-06T16:02:04.6Z</time></trkpt><trkpt lat="44.7559283" lon="9.591425"><ele>406.0</ele><time>2026-04-06T16:02:06.6Z</time></trkpt><trkpt lat="44.7560217" lon="9.59148"><ele>406.0</ele><time>2026-04-06T16:02:08.6Z</time></trkpt><trkpt lat="44.7560983" lon="9.5915783"><ele>406.0</ele><time>2026-04-06T16:02:10.599Z</time></trkpt><trkpt lat="44.7561583" lon="9.5917117"><ele>406.0</ele><time>2026-04-06T16:02:12.601Z</time></trkpt><trkpt lat="44.7562067" lon="9.5918467"><ele>406.5</ele><time>2026-04-06T16:02:14.601Z</time></trkpt><trkpt lat="44.7562567" lon="9.5919983"><ele>407.0</ele><time>2026-04-06T16:02:16.599Z</time></trkpt><trkpt lat="44.756305" lon="9.5921417"><ele>407.5</ele><time>2026-04-06T16:02:18.6Z</time></trkpt><trkpt lat="44.7563733" lon="9.5922817"><ele>408.0</ele><time>2026-04-06T16:02:20.6Z</time></trkpt><trkpt lat="44.7564717" lon="9.5923633"><ele>408.0</ele><time>2026-04-06T16:02:22.6Z</time></trkpt><trkpt lat="44.7565417" lon="9.5923617"><ele>408.0</ele><time>2026-04-06T16:02:23.599Z</time></trkpt><trkpt lat="44.756615" lon="9.59233"><ele>408.0</ele><time>2026-04-06T16:02:24.601Z</time></trkpt><trkpt lat="44.7566817" lon="9.5922733"><ele>408.0</ele><time>2026-04-06T16:02:25.6Z</time></trkpt><trkpt lat="44.7567383" lon="9.592205"><ele>408.0</ele><time>2026-04-06T16:02:26.602Z</time></trkpt><trkpt lat="44.756785" lon="9.592115"><ele>408.0</ele><time>2026-04-06T16:02:27.6Z</time></trkpt><trkpt lat="44.7568067" lon="9.5920067"><ele>410.0</ele><time>2026-04-06T16:02:28.6Z</time></trkpt><trkpt lat="44.7568" lon="9.5918817"><ele>412.0</ele><time>2026-04-06T16:02:29.598Z</time></trkpt><trkpt lat="44.7567733" lon="9.5917683"><ele>414.0</ele><time>2026-04-06T16:02:30.6Z</time></trkpt><trkpt lat="44.7567167" lon="9.591675"><ele>416.0</ele><time>2026-04-06T16:02:31.6Z</time></trkpt><trkpt lat="44.7566533" lon="9.59161"><ele>418.0</ele><time>2026-04-06T16:02:32.6Z</time></trkpt><trkpt lat="44.7565883" lon="9.5915583"><ele>420.0</ele><time>2026-04-06T16:02:33.6Z</time></trkpt><trkpt lat="44.756525" lon="9.5915067"><ele>420.0</ele><time>2026-04-06T16:02:34.6Z</time></trkpt><trkpt lat="44.756465" lon="9.59144"><ele>420.0</ele><time>2026-04-06T16:02:35.599Z</time></trkpt><trkpt lat="44.7564167" lon="9.5913583"><ele>420.0</ele><time>2026-04-06T16:02:36.601Z</time></trkpt><trkpt lat="44.7563833" lon="9.591275"><ele>420.0</ele><time>2026-04-06T16:02:37.6Z</time></trkpt><trkpt lat="44.7563517" lon="9.5911217"><ele>420.0</ele><time>2026-04-06T16:02:39.599Z</time></trkpt><trkpt lat="44.75634" lon="9.5909733"><ele>420.0</ele><time>2026-04-06T16:02:41.6Z</time></trkpt><trkpt lat="44.756325" lon="9.5908433"><ele>419.0</ele><time>2026-04-06T16:02:43.6Z</time></trkpt><trkpt lat="44.756295" lon="9.5907017"><ele>418.0</ele><time>2026-04-06T16:02:45.6Z</time></trkpt><trkpt lat="44.756215" lon="9.59058"><ele>417.0</ele><time>2026-04-06T16:02:47.599Z</time></trkpt><trkpt lat="44.7561117" lon="9.5905117"><ele>416.0</ele><time>2026-04-06T16:02:49.598Z</time></trkpt><trkpt lat="44.756005" lon="9.5904617"><ele>415.0</ele><time>2026-04-06T16:02:51.598Z</time></trkpt><trkpt lat="44.75594" lon="9.590425"><ele>415.00000000000006</ele><time>2026-04-06T16:02:52.6Z</time></trkpt><trkpt lat="44.75588" lon="9.5903767"><ele>415.0</ele><time>2026-04-06T16:02:53.599Z</time></trkpt><trkpt lat="44.7558333" lon="9.590315"><ele>415.0</ele><time>2026-04-06T16:02:54.601Z</time></trkpt><trkpt lat="44.7558067" lon="9.5902333"><ele>415.0</ele><time>2026-04-06T16:02:55.6Z</time></trkpt><trkpt lat="44.7558517" lon="9.5900867"><ele>415.00000000000006</ele><time>2026-04-06T16:02:57.603Z</time></trkpt><trkpt lat="44.7559883" lon="9.59008"><ele>415.0</ele><time>2026-04-06T16:02:59.6Z</time></trkpt><trkpt lat="44.756065" lon="9.5901317"><ele>417.6</ele><time>2026-04-06T16:03:00.601Z</time></trkpt><trkpt lat="44.756145" lon="9.5902233"><ele>420.2</ele><time>2026-04-06T16:03:01.6Z</time></trkpt><trkpt lat="44.7562267" lon="9.590315"><ele>422.79999999999995</ele><time>2026-04-06T16:03:02.6Z</time></trkpt><trkpt lat="44.7563133" lon="9.5904033"><ele>425.4</ele><time>2026-04-06T16:03:03.602Z</time></trkpt><trkpt lat="44.7563983" lon="9.5904883"><ele>428.0</ele><time>2026-04-06T16:03:04.601Z</time></trkpt><trkpt lat="44.75648" lon="9.5905667"><ele>427.99999999999994</ele><time>2026-04-06T16:03:05.601Z</time></trkpt><trkpt lat="44.756555" lon="9.59064"><ele>428.0</ele><time>2026-04-06T16:03:06.6Z</time></trkpt><trkpt lat="44.7566267" lon="9.590705"><ele>428.0</ele><time>2026-04-06T16:03:07.602Z</time></trkpt><trkpt lat="44.7567017" lon="9.590755"><ele>428.0</ele><time>2026-04-06T16:03:08.602Z</time></trkpt><trkpt lat="44.756785" lon="9.5907833"><ele>427.99999999999994</ele><time>2026-04-06T16:03:09.604Z</time></trkpt><trkpt lat="44.7568767" lon="9.5907683"><ele>428.0</ele><time>2026-04-06T16:03:10.601Z</time></trkpt><trkpt lat="44.75696" lon="9.5907117"><ele>427.79999999999995</ele><time>2026-04-06T16:03:11.602Z</time></trkpt><trkpt lat="44.7570333" lon="9.590625"><ele>427.59999999999997</ele><time>2026-04-06T16:03:12.601Z</time></trkpt><trkpt lat="44.7571" lon="9.590515"><ele>427.40000000000003</ele><time>2026-04-06T16:03:13.601Z</time></trkpt><trkpt lat="44.75717" lon="9.5903867"><ele>427.20000000000005</ele><time>2026-04-06T16:03:14.601Z</time></trkpt><trkpt lat="44.75724" lon="9.59025"><ele>427.0</ele><time>2026-04-06T16:03:15.598Z</time></trkpt><trkpt lat="44.7573033" lon="9.590115"><ele>429.20000000000005</ele><time>2026-04-06T16:03:16.601Z</time></trkpt><trkpt lat="44.75736" lon="9.58999"><ele>431.40000000000003</ele><time>2026-04-06T16:03:17.598Z</time></trkpt><trkpt lat="44.75742" lon="9.5898783"><ele>433.59999999999997</ele><time>2026-04-06T16:03:18.6Z</time></trkpt><trkpt lat="44.7574833" lon="9.5897833"><ele>435.79999999999995</ele><time>2026-04-06T16:03:19.601Z</time></trkpt><trkpt lat="44.7575467" lon="9.5897017"><ele>438.0</ele><time>2026-04-06T16:03:20.601Z</time></trkpt><trkpt lat="44.75761" lon="9.5896333"><ele>438.0</ele><time>2026-04-06T16:03:21.6Z</time></trkpt><trkpt lat="44.75768" lon="9.589575"><ele>438.0</ele><time>2026-04-06T16:03:22.599Z</time></trkpt><trkpt lat="44.7577567" lon="9.589525"><ele>438.0</ele><time>2026-04-06T16:03:23.603Z</time></trkpt><trkpt lat="44.75784" lon="9.5895"><ele>438.0</ele><time>2026-04-06T16:03:24.6Z</time></trkpt><trkpt lat="44.7579333" lon="9.5895017"><ele>438.0</ele><time>2026-04-06T16:03:25.6Z</time></trkpt><trkpt lat="44.7580333" lon="9.5895417"><ele>438.0</ele><time>2026-04-06T16:03:26.6Z</time></trkpt><trkpt lat="44.7581317" lon="9.5896083"><ele>438.0</ele><time>2026-04-06T16:03:27.601Z</time></trkpt><trkpt lat="44.7582283" lon="9.58968"><ele>437.99999999999994</ele><time>2026-04-06T16:03:28.6Z</time></trkpt><trkpt lat="44.7583233" lon="9.5897533"><ele>437.99999999999994</ele><time>2026-04-06T16:03:29.6Z</time></trkpt><trkpt lat="44.7584167" lon="9.5898417"><ele>438.0</ele><time>2026-04-06T16:03:30.599Z</time></trkpt><trkpt lat="44.7584983" lon="9.58994"><ele>438.0</ele><time>2026-04-06T16:03:31.602Z</time></trkpt><trkpt lat="44.7585733" lon="9.5900367"><ele>438.4</ele><time>2026-04-06T16:03:32.6Z</time></trkpt><trkpt lat="44.75865" lon="9.5901267"><ele>438.79999999999995</ele><time>2026-04-06T16:03:33.598Z</time></trkpt><trkpt lat="44.7587383" lon="9.5902117"><ele>439.2</ele><time>2026-04-06T16:03:34.6Z</time></trkpt><trkpt lat="44.7588317" lon="9.5902867"><ele>439.6</ele><time>2026-04-06T16:03:35.599Z</time></trkpt><trkpt lat="44.7589267" lon="9.590355"><ele>440.0</ele><time>2026-04-06T16:03:36.601Z</time></trkpt><trkpt lat="44.759015" lon="9.5904283"><ele>440.0</ele><time>2026-04-06T16:03:37.601Z</time></trkpt><trkpt lat="44.7590933" lon="9.59051"><ele>440.0</ele><time>2026-04-06T16:03:38.6Z</time></trkpt><trkpt lat="44.7591633" lon="9.5906067"><ele>440.0</ele><time>2026-04-06T16:03:39.6Z</time></trkpt><trkpt lat="44.75923" lon="9.5907133"><ele>440.0</ele><time>2026-04-06T16:03:40.601Z</time></trkpt><trkpt lat="44.759295" lon="9.5908183"><ele>440.0</ele><time>2026-04-06T16:03:41.601Z</time></trkpt><trkpt lat="44.7593533" lon="9.5909233"><ele>440.2</ele><time>2026-04-06T16:03:42.6Z</time></trkpt><trkpt lat="44.7594067" lon="9.5910267"><ele>440.4</ele><time>2026-04-06T16:03:43.599Z</time></trkpt><trkpt lat="44.759465" lon="9.5911367"><ele>440.6</ele><time>2026-04-06T16:03:44.6Z</time></trkpt><trkpt lat="44.75953" lon="9.5912517"><ele>440.8</ele><time>2026-04-06T16:03:45.599Z</time></trkpt><trkpt lat="44.7596083" lon="9.591375"><ele>441.0</ele><time>2026-04-06T16:03:46.599Z</time></trkpt><trkpt lat="44.7597083" lon="9.5915083"><ele>441.0</ele><time>2026-04-06T16:03:47.599Z</time></trkpt><trkpt lat="44.75983" lon="9.59166"><ele>441.0</ele><time>2026-04-06T16:03:48.598Z</time></trkpt><trkpt lat="44.75996" lon="9.591835"><ele>441.0</ele><time>2026-04-06T16:03:49.6Z</time></trkpt><trkpt lat="44.7600967" lon="9.59203"><ele>440.66666666666663</ele><time>2026-04-06T16:03:50.601Z</time></trkpt><trkpt lat="44.76024" lon="9.5922267"><ele>440.3333333333333</ele><time>2026-04-06T16:03:51.6Z</time></trkpt><trkpt lat="44.7603833" lon="9.5924183"><ele>440.0</ele><time>2026-04-06T16:03:52.6Z</time></trkpt><trkpt lat="44.7605167" lon="9.592595"><ele>440.0</ele><time>2026-04-06T16:03:53.601Z</time></trkpt><trkpt lat="44.7606317" lon="9.5927633"><ele>440.0</ele><time>2026-04-06T16:03:54.603Z</time></trkpt><trkpt lat="44.7607267" lon="9.5929267"><ele>440.0</ele><time>2026-04-06T16:03:55.6Z</time></trkpt><trkpt lat="44.7607967" lon="9.5930933"><ele>437.0</ele><time>2026-04-06T16:03:56.602Z</time></trkpt><trkpt lat="44.760835" lon="9.5932633"><ele>434.0</ele><time>2026-04-06T16:03:57.602Z</time></trkpt><trkpt lat="44.76085" lon="9.59343"><ele>431.0</ele><time>2026-04-06T16:03:58.601Z</time></trkpt><trkpt lat="44.76086" lon="9.5935917"><ele>428.0</ele><time>2026-04-06T16:03:59.6Z</time></trkpt><trkpt lat="44.760875" lon="9.5937417"><ele>428.2</ele><time>2026-04-06T16:04:00.602Z</time></trkpt><trkpt lat="44.7609133" lon="9.593885"><ele>428.4</ele><time>2026-04-06T16:04:01.6Z</time></trkpt><trkpt lat="44.7609683" lon="9.5940133"><ele>428.59999999999997</ele><time>2026-04-06T16:04:02.601Z</time></trkpt><trkpt lat="44.7610283" lon="9.5941333"><ele>428.79999999999995</ele><time>2026-04-06T16:04:03.601Z</time></trkpt><trkpt lat="44.7610933" lon="9.5942483"><ele>429.0</ele><time>2026-04-06T16:04:04.6Z</time></trkpt><trkpt lat="44.7611683" lon="9.5943467"><ele>429.0</ele><time>2026-04-06T16:04:05.604Z</time></trkpt><trkpt lat="44.7612583" lon="9.5944167"><ele>429.0</ele><time>2026-04-06T16:04:06.603Z</time></trkpt><trkpt lat="44.761355" lon="9.5944683"><ele>429.0</ele><time>2026-04-06T16:04:07.602Z</time></trkpt><trkpt lat="44.7614483" lon="9.594525"><ele>429.0</ele><time>2026-04-06T16:04:08.604Z</time></trkpt><trkpt lat="44.761525" lon="9.5946117"><ele>429.0</ele><time>2026-04-06T16:04:09.603Z</time></trkpt><trkpt lat="44.76158" lon="9.5947283"><ele>426.79999999999995</ele><time>2026-04-06T16:04:10.599Z</time></trkpt><trkpt lat="44.7616167" lon="9.5948567"><ele>424.59999999999997</ele><time>2026-04-06T16:04:11.601Z</time></trkpt><trkpt lat="44.7616483" lon="9.594985"><ele>422.4</ele><time>2026-04-06T16:04:12.601Z</time></trkpt><trkpt lat="44.7616833" lon="9.5951217"><ele>420.2</ele><time>2026-04-06T16:04:13.601Z</time></trkpt><trkpt lat="44.761725" lon="9.5952667"><ele>418.0</ele><time>2026-04-06T16:04:14.602Z</time></trkpt><trkpt lat="44.7617783" lon="9.5954167"><ele>415.75</ele><time>2026-04-06T16:04:15.6Z</time></trkpt><trkpt lat="44.7618367" lon="9.5955633"><ele>413.5</ele><time>2026-04-06T16:04:16.601Z</time></trkpt><trkpt lat="44.7619" lon="9.5957083"><ele>411.25</ele><time>2026-04-06T16:04:17.601Z</time></trkpt><trkpt lat="44.7619633" lon="9.5958533"><ele>409.0</ele><time>2026-04-06T16:04:18.602Z</time></trkpt><trkpt lat="44.7620267" lon="9.595995"><ele>408.25</ele><time>2026-04-06T16:04:19.6Z</time></trkpt><trkpt lat="44.7620917" lon="9.5961267"><ele>407.5</ele><time>2026-04-06T16:04:20.602Z</time></trkpt><trkpt lat="44.7621683" lon="9.5962433"><ele>406.75</ele><time>2026-04-06T16:04:21.603Z</time></trkpt><trkpt lat="44.7622583" lon="9.5963417"><ele>406.0</ele><time>2026-04-06T16:04:22.602Z</time></trkpt><trkpt lat="44.7623633" lon="9.5964167"><ele>406.0</ele><time>2026-04-06T16:04:23.604Z</time></trkpt><trkpt lat="44.762475" lon="9.5964767"><ele>406.0</ele><time>2026-04-06T16:04:24.604Z</time></trkpt><trkpt lat="44.7625833" lon="9.596525"><ele>406.0</ele><time>2026-04-06T16:04:25.601Z</time></trkpt><trkpt lat="44.76269" lon="9.5965733"><ele>406.0</ele><time>2026-04-06T16:04:26.604Z</time></trkpt><trkpt lat="44.7627933" lon="9.5966183"><ele>407.0</ele><time>2026-04-06T16:04:27.603Z</time></trkpt><trkpt lat="44.7628917" lon="9.596665"><ele>408.0</ele><time>2026-04-06T16:04:28.601Z</time></trkpt><trkpt lat="44.7629833" lon="9.5967183"><ele>409.0</ele><time>2026-04-06T16:04:29.602Z</time></trkpt><trkpt lat="44.76307" lon="9.5967833"><ele>410.0</ele><time>2026-04-06T16:04:30.6Z</time></trkpt><trkpt lat="44.763145" lon="9.596865"><ele>411.0</ele><time>2026-04-06T16:04:31.601Z</time></trkpt><trkpt lat="44.763215" lon="9.5969583"><ele>408.4</ele><time>2026-04-06T16:04:32.601Z</time></trkpt><trkpt lat="44.7632783" lon="9.5970733"><ele>405.8</ele><time>2026-04-06T16:04:33.601Z</time></trkpt><trkpt lat="44.7633333" lon="9.5972033"><ele>403.2</ele><time>2026-04-06T16:04:34.601Z</time></trkpt><trkpt lat="44.7633767" lon="9.5973383"><ele>400.59999999999997</ele><time>2026-04-06T16:04:35.6Z</time></trkpt><trkpt lat="44.7634083" lon="9.5974683"><ele>398.0</ele><time>2026-04-06T16:04:36.602Z</time></trkpt><trkpt lat="44.7634267" lon="9.5975883"><ele>397.99999999999994</ele><time>2026-04-06T16:04:37.602Z</time></trkpt><trkpt lat="44.7634333" lon="9.5977"><ele>398.0</ele><time>2026-04-06T16:04:38.601Z</time></trkpt><trkpt lat="44.763435" lon="9.5978"><ele>398.0</ele><time>2026-04-06T16:04:39.603Z</time></trkpt><trkpt lat="44.763435" lon="9.5979017"><ele>398.0</ele><time>2026-04-06T16:04:40.601Z</time></trkpt><trkpt lat="44.7634467" lon="9.598005"><ele>398.0</ele><time>2026-04-06T16:04:41.6Z</time></trkpt><trkpt lat="44.7634667" lon="9.598095"><ele>397.99999999999994</ele><time>2026-04-06T16:04:42.602Z</time></trkpt><trkpt lat="44.763505" lon="9.5981733"><ele>398.0</ele><time>2026-04-06T16:04:43.6Z</time></trkpt><trkpt lat="44.7635617" lon="9.598235"><ele>397.0</ele><time>2026-04-06T16:04:44.601Z</time></trkpt><trkpt lat="44.7636383" lon="9.598275"><ele>396.0</ele><time>2026-04-06T16:04:45.6Z</time></trkpt><trkpt lat="44.763725" lon="9.5982967"><ele>395.0</ele><time>2026-04-06T16:04:46.598Z</time></trkpt><trkpt lat="44.7638217" lon="9.5983067"><ele>394.0</ele><time>2026-04-06T16:04:47.603Z</time></trkpt><trkpt lat="44.7639283" lon="9.5983067"><ele>393.0</ele><time>2026-04-06T16:04:48.601Z</time></trkpt><trkpt lat="44.7640433" lon="9.598295"><ele>393.0</ele><time>2026-04-06T16:04:49.603Z</time></trkpt><trkpt lat="44.76416" lon="9.59828"><ele>393.0</ele><time>2026-04-06T16:04:50.602Z</time></trkpt><trkpt lat="44.764275" lon="9.5982533"><ele>393.0</ele><time>2026-04-06T16:04:51.604Z</time></trkpt><trkpt lat="44.76439" lon="9.5982183"><ele>393.0</ele><time>2026-04-06T16:04:52.602Z</time></trkpt><trkpt lat="44.7645133" lon="9.5981817"><ele>392.75</ele><time>2026-04-06T16:04:53.603Z</time></trkpt><trkpt lat="44.7646383" lon="9.5981583"><ele>392.5</ele><time>2026-04-06T16:04:54.601Z</time></trkpt><trkpt lat="44.764765" lon="9.598155"><ele>392.25</ele><time>2026-04-06T16:04:55.602Z</time></trkpt><trkpt lat="44.7648883" lon="9.5981667"><ele>392.0</ele><time>2026-04-06T16:04:56.603Z</time></trkpt><trkpt lat="44.7650067" lon="9.5981917"><ele>392.0</ele><time>2026-04-06T16:04:57.601Z</time></trkpt><trkpt lat="44.7651183" lon="9.5982267"><ele>392.0</ele><time>2026-04-06T16:04:58.6Z</time></trkpt><trkpt lat="44.765225" lon="9.5982717"><ele>392.0</ele><time>2026-04-06T16:04:59.603Z</time></trkpt><trkpt lat="44.765325" lon="9.5983217"><ele>392.0</ele><time>2026-04-06T16:05:00.6Z</time></trkpt><trkpt lat="44.7654233" lon="9.598375"><ele>392.0</ele><time>2026-04-06T16:05:01.604Z</time></trkpt><trkpt lat="44.7655317" lon="9.5984367"><ele>394.0</ele><time>2026-04-06T16:05:02.602Z</time></trkpt><trkpt lat="44.76565" lon="9.598495"><ele>396.0</ele><time>2026-04-06T16:05:03.602Z</time></trkpt><trkpt lat="44.765775" lon="9.5985483"><ele>398.0</ele><time>2026-04-06T16:05:04.602Z</time></trkpt><trkpt lat="44.765915" lon="9.5986"><ele>400.0</ele><time>2026-04-06T16:05:05.603Z</time></trkpt><trkpt lat="44.7660667" lon="9.598655"><ele>398.0</ele><time>2026-04-06T16:05:06.603Z</time></trkpt><trkpt lat="44.7662183" lon="9.59872"><ele>396.0</ele><time>2026-04-06T16:05:07.604Z</time></trkpt><trkpt lat="44.766355" lon="9.5987833"><ele>394.0</ele><time>2026-04-06T16:05:08.602Z</time></trkpt><trkpt lat="44.7664783" lon="9.5988417"><ele>392.0</ele><time>2026-04-06T16:05:09.603Z</time></trkpt><trkpt lat="44.7665917" lon="9.5989067"><ele>392.0</ele><time>2026-04-06T16:05:10.599Z</time></trkpt><trkpt lat="44.7666983" lon="9.598995"><ele>392.0</ele><time>2026-04-06T16:05:11.603Z</time></trkpt><trkpt lat="44.7668233" lon="9.5991133"><ele>392.0</ele><time>2026-04-06T16:05:12.603Z</time></trkpt><trkpt lat="44.7669467" lon="9.599255"><ele>392.0</ele><time>2026-04-06T16:05:13.601Z</time></trkpt><trkpt lat="44.7670567" lon="9.5993917"><ele>388.5</ele><time>2026-04-06T16:05:14.603Z</time></trkpt><trkpt lat="44.767155" lon="9.5995117"><ele>385.0</ele><time>2026-04-06T16:05:15.601Z</time></trkpt><trkpt lat="44.7672533" lon="9.5996133"><ele>381.5</ele><time>2026-04-06T16:05:16.6Z</time></trkpt><trkpt lat="44.7673533" lon="9.5996917"><ele>378.0</ele><time>2026-04-06T16:05:17.602Z</time></trkpt><trkpt lat="44.76746" lon="9.5997417"><ele>378.0</ele><time>2026-04-06T16:05:18.602Z</time></trkpt><trkpt lat="44.7675717" lon="9.59977"><ele>378.0</ele><time>2026-04-06T16:05:19.601Z</time></trkpt><trkpt lat="44.7676883" lon="9.5997933"><ele>378.0</ele><time>2026-04-06T16:05:20.601Z</time></trkpt><trkpt lat="44.7678067" lon="9.599825"><ele>378.0</ele><time>2026-04-06T16:05:21.6Z</time></trkpt><trkpt lat="44.767925" lon="9.5998717"><ele>379.0</ele><time>2026-04-06T16:05:22.6Z</time></trkpt><trkpt lat="44.7680467" lon="9.5999233"><ele>380.0</ele><time>2026-04-06T16:05:23.601Z</time></trkpt><trkpt lat="44.7681667" lon="9.599965"><ele>381.0</ele><time>2026-04-06T16:05:24.603Z</time></trkpt><trkpt lat="44.7682917" lon="9.5999967"><ele>382.0</ele><time>2026-04-06T16:05:25.602Z</time></trkpt><trkpt lat="44.7684183" lon="9.6000233"><ele>381.75</ele><time>2026-04-06T16:05:26.601Z</time></trkpt><trkpt lat="44.768545" lon="9.6000533"><ele>381.5</ele><time>2026-04-06T16:05:27.601Z</time></trkpt><trkpt lat="44.7686667" lon="9.6000933"><ele>381.25</ele><time>2026-04-06T16:05:28.604Z</time></trkpt><trkpt lat="44.7687817" lon="9.600145"><ele>381.0</ele><time>2026-04-06T16:05:29.602Z</time></trkpt><trkpt lat="44.7688917" lon="9.6002033"><ele>381.0</ele><time>2026-04-06T16:05:30.6Z</time></trkpt><trkpt lat="44.769" lon="9.600265"><ele>381.0</ele><time>2026-04-06T16:05:31.601Z</time></trkpt><trkpt lat="44.769105" lon="9.6003267"><ele>381.0</ele><time>2026-04-06T16:05:32.602Z</time></trkpt><trkpt lat="44.7692067" lon="9.6003867"><ele>381.0</ele><time>2026-04-06T16:05:33.602Z</time></trkpt><trkpt lat="44.7693049" lon="9.6004459"><ele>381.0</ele><time>2026-04-06T16:05:34.601Z</time></trkpt><trkpt lat="44.7693991" lon="9.6005075"><ele>379.8</ele><time>2026-04-06T16:05:35.6Z</time></trkpt><trkpt lat="44.7694857" lon="9.6005754"><ele>378.6</ele><time>2026-04-06T16:05:36.601Z</time></trkpt><trkpt lat="44.7695624" lon="9.6006624"><ele>377.4</ele><time>2026-04-06T16:05:37.601Z</time></trkpt><trkpt lat="44.7696237" lon="9.6007636"><ele>376.2</ele><time>2026-04-06T16:05:38.601Z</time></trkpt><trkpt lat="44.7696713" lon="9.6008745"><ele>375.0</ele><time>2026-04-06T16:05:39.601Z</time></trkpt><trkpt lat="44.7697137" lon="9.6009915"><ele>375.0</ele><time>2026-04-06T16:05:40.603Z</time></trkpt><trkpt lat="44.7697515" lon="9.6011084"><ele>375.0</ele><time>2026-04-06T16:05:41.601Z</time></trkpt><trkpt lat="44.7697846" lon="9.6012194"><ele>375.0</ele><time>2026-04-06T16:05:42.601Z</time></trkpt><trkpt lat="44.7698133" lon="9.6013234"><ele>375.0</ele><time>2026-04-06T16:05:43.602Z</time></trkpt><trkpt lat="44.7698373" lon="9.6014242"><ele>375.0</ele><time>2026-04-06T16:05:44.601Z</time></trkpt><trkpt lat="44.7698607" lon="9.6015231"><ele>375.0</ele><time>2026-04-06T16:05:45.602Z</time></trkpt><trkpt lat="44.7698805" lon="9.6016188"><ele>374.0</ele><time>2026-04-06T16:05:46.599Z</time></trkpt><trkpt lat="44.7699003" lon="9.6017195"><ele>373.0</ele><time>2026-04-06T16:05:47.603Z</time></trkpt><trkpt lat="44.7699206" lon="9.6018272"><ele>372.0</ele><time>2026-04-06T16:05:48.603Z</time></trkpt><trkpt lat="44.7699471" lon="9.6019332"><ele>371.0</ele><time>2026-04-06T16:05:49.603Z</time></trkpt><trkpt lat="44.7699867" lon="9.6020281"><ele>370.0</ele><time>2026-04-06T16:05:50.603Z</time></trkpt><trkpt lat="44.7700411" lon="9.6021017"><ele>369.0</ele><time>2026-04-06T16:05:51.605Z</time></trkpt><trkpt lat="44.7701062" lon="9.6021574"><ele>367.6666666666667</ele><time>2026-04-06T16:05:52.601Z</time></trkpt><trkpt lat="44.7701767" lon="9.6021991"><ele>366.3333333333333</ele><time>2026-04-06T16:05:53.602Z</time></trkpt><trkpt lat="44.7702506" lon="9.6022325"><ele>365.0</ele><time>2026-04-06T16:05:54.601Z</time></trkpt><trkpt lat="44.770331" lon="9.6022579"><ele>363.66666666666663</ele><time>2026-04-06T16:05:55.601Z</time></trkpt><trkpt lat="44.7704123" lon="9.6022749"><ele>362.3333333333333</ele><time>2026-04-06T16:05:56.601Z</time></trkpt><trkpt lat="44.7704927" lon="9.6022777"><ele>361.0</ele><time>2026-04-06T16:05:57.602Z</time></trkpt><trkpt lat="44.7705755" lon="9.602252"><ele>361.0</ele><time>2026-04-06T16:05:58.6Z</time></trkpt><trkpt lat="44.7706547" lon="9.6021985"><ele>361.0</ele><time>2026-04-06T16:05:59.602Z</time></trkpt><trkpt lat="44.7707282" lon="9.602128"><ele>361.0</ele><time>2026-04-06T16:06:00.601Z</time></trkpt><trkpt lat="44.7708051" lon="9.6020679"><ele>361.0</ele><time>2026-04-06T16:06:01.6Z</time></trkpt><trkpt lat="44.7708897" lon="9.6020469"><ele>361.0</ele><time>2026-04-06T16:06:02.601Z</time></trkpt><trkpt lat="44.7709756" lon="9.6020682"><ele>361.0</ele><time>2026-04-06T16:06:03.602Z</time></trkpt><trkpt lat="44.771048" lon="9.6021317"><ele>360.4</ele><time>2026-04-06T16:06:04.599Z</time></trkpt><trkpt lat="44.771103" lon="9.6022307"><ele>359.8</ele><time>2026-04-06T16:06:05.602Z</time></trkpt><trkpt lat="44.7711494" lon="9.6023436"><ele>359.2</ele><time>2026-04-06T16:06:06.6Z</time></trkpt><trkpt lat="44.7711914" lon="9.6024579"><ele>358.59999999999997</ele><time>2026-04-06T16:06:07.599Z</time></trkpt><trkpt lat="44.7712369" lon="9.6025672"><ele>358.0</ele><time>2026-04-06T16:06:08.602Z</time></trkpt><trkpt lat="44.7712917" lon="9.6026731"><ele>358.0</ele><time>2026-04-06T16:06:09.602Z</time></trkpt><trkpt lat="44.7713598" lon="9.6027625"><ele>358.0</ele><time>2026-04-06T16:06:10.6Z</time></trkpt><trkpt lat="44.7714489" lon="9.6028241"><ele>358.0</ele><time>2026-04-06T16:06:11.6Z</time></trkpt><trkpt lat="44.7715515" lon="9.6028511"><ele>358.0</ele><time>2026-04-06T16:06:12.601Z</time></trkpt><trkpt lat="44.7716566" lon="9.6028594"><ele>358.0</ele><time>2026-04-06T16:06:13.6Z</time></trkpt><trkpt lat="44.7717585" lon="9.6028717"><ele>355.79999999999995</ele><time>2026-04-06T16:06:14.604Z</time></trkpt><trkpt lat="44.7718608" lon="9.602895"><ele>353.6</ele><time>2026-04-06T16:06:15.601Z</time></trkpt><trkpt lat="44.7719629" lon="9.6029285"><ele>351.4</ele><time>2026-04-06T16:06:16.601Z</time></trkpt><trkpt lat="44.7720616" lon="9.6029717"><ele>349.20000000000005</ele><time>2026-04-06T16:06:17.601Z</time></trkpt><trkpt lat="44.7721559" lon="9.603031"><ele>347.0</ele><time>2026-04-06T16:06:18.6Z</time></trkpt><trkpt lat="44.7722363" lon="9.6031177"><ele>347.0</ele><time>2026-04-06T16:06:19.6Z</time></trkpt><trkpt lat="44.7722986" lon="9.6032314"><ele>347.0</ele><time>2026-04-06T16:06:20.601Z</time></trkpt><trkpt lat="44.772341" lon="9.6033682"><ele>347.0</ele><time>2026-04-06T16:06:21.602Z</time></trkpt><trkpt lat="44.772355" lon="9.6035283"><ele>347.0</ele><time>2026-04-06T16:06:22.6Z</time></trkpt><trkpt lat="44.7723667" lon="9.6036867"><ele>347.0</ele><time>2026-04-06T16:06:23.602Z</time></trkpt><trkpt lat="44.7723817" lon="9.6038433"><ele>345.25</ele><time>2026-04-06T16:06:24.601Z</time></trkpt><trkpt lat="44.7724167" lon="9.6039933"><ele>343.5</ele><time>2026-04-06T16:06:25.599Z</time></trkpt><trkpt lat="44.7724633" lon="9.604135"><ele>341.75</ele><time>2026-04-06T16:06:26.601Z</time></trkpt><trkpt lat="44.77254" lon="9.604255"><ele>340.0</ele><time>2026-04-06T16:06:27.601Z</time></trkpt><trkpt lat="44.7726367" lon="9.6043583"><ele>340.5</ele><time>2026-04-06T16:06:28.6Z</time></trkpt><trkpt lat="44.7727433" lon="9.60444"><ele>341.0</ele><time>2026-04-06T16:06:29.601Z</time></trkpt><trkpt lat="44.7728483" lon="9.60451"><ele>341.5</ele><time>2026-04-06T16:06:30.601Z</time></trkpt><trkpt lat="44.77295" lon="9.6045717"><ele>342.0</ele><time>2026-04-06T16:06:31.6Z</time></trkpt><trkpt lat="44.7730467" lon="9.6046267"><ele>340.3333333333333</ele><time>2026-04-06T16:06:32.602Z</time></trkpt><trkpt lat="44.773135" lon="9.6046767"><ele>338.6666666666667</ele><time>2026-04-06T16:06:33.602Z</time></trkpt><trkpt lat="44.7732183" lon="9.604725"><ele>337.0</ele><time>2026-04-06T16:06:34.601Z</time></trkpt><trkpt lat="44.7732983" lon="9.60477"><ele>335.33333333333337</ele><time>2026-04-06T16:06:35.6Z</time></trkpt><trkpt lat="44.77338" lon="9.6048133"><ele>333.6666666666667</ele><time>2026-04-06T16:06:36.601Z</time></trkpt><trkpt lat="44.7734617" lon="9.6048567"><ele>332.0</ele><time>2026-04-06T16:06:37.601Z</time></trkpt><trkpt lat="44.773545" lon="9.6049017"><ele>331.6666666666667</ele><time>2026-04-06T16:06:38.601Z</time></trkpt><trkpt lat="44.773625" lon="9.6049483"><ele>331.33333333333337</ele><time>2026-04-06T16:06:39.601Z</time></trkpt><trkpt lat="44.7737017" lon="9.6049917"><ele>331.0</ele><time>2026-04-06T16:06:40.601Z</time></trkpt><trkpt lat="44.77377" lon="9.605025"><ele>330.6666666666667</ele><time>2026-04-06T16:06:41.603Z</time></trkpt><trkpt lat="44.7738417" lon="9.60505"><ele>330.3333333333333</ele><time>2026-04-06T16:06:42.6Z</time></trkpt><trkpt lat="44.7739233" lon="9.6050733"><ele>330.0</ele><time>2026-04-06T16:06:43.601Z</time></trkpt><trkpt lat="44.77402" lon="9.6051017"><ele>330.0</ele><time>2026-04-06T16:06:44.602Z</time></trkpt><trkpt lat="44.7741283" lon="9.605135"><ele>330.0</ele><time>2026-04-06T16:06:45.6Z</time></trkpt><trkpt lat="44.774235" lon="9.6051683"><ele>330.0</ele><time>2026-04-06T16:06:46.601Z</time></trkpt><trkpt lat="44.774325" lon="9.6051967"><ele>330.0</ele><time>2026-04-06T16:06:47.6Z</time></trkpt><trkpt lat="44.774395" lon="9.6052217"><ele>330.0</ele><time>2026-04-06T16:06:48.6Z</time></trkpt><trkpt lat="44.7744583" lon="9.60524"><ele>330.0</ele><time>2026-04-06T16:06:49.6Z</time></trkpt><trkpt lat="44.774585" lon="9.6052717"><ele>329.5</ele><time>2026-04-06T16:06:51.6Z</time></trkpt><trkpt lat="44.77467" lon="9.6052917"><ele>329.0</ele><time>2026-04-06T16:06:52.602Z</time></trkpt><trkpt lat="44.7747733" lon="9.605315"><ele>328.5</ele><time>2026-04-06T16:06:53.601Z</time></trkpt><trkpt lat="44.774895" lon="9.6053483"><ele>328.0</ele><time>2026-04-06T16:06:54.601Z</time></trkpt><trkpt lat="44.7750367" lon="9.605385"><ele>327.75</ele><time>2026-04-06T16:06:55.601Z</time></trkpt><trkpt lat="44.77519" lon="9.605425"><ele>327.5</ele><time>2026-04-06T16:06:56.601Z</time></trkpt><trkpt lat="44.7753383" lon="9.60546"><ele>327.25</ele><time>2026-04-06T16:06:57.601Z</time></trkpt><trkpt lat="44.775475" lon="9.60549"><ele>327.0</ele><time>2026-04-06T16:06:58.599Z</time></trkpt><trkpt lat="44.7755983" lon="9.6055167"><ele>327.0</ele><time>2026-04-06T16:06:59.601Z</time></trkpt><trkpt lat="44.775705" lon="9.60554"><ele>327.0</ele><time>2026-04-06T16:07:00.601Z</time></trkpt><trkpt lat="44.775795" lon="9.6055567"><ele>327.0</ele><time>2026-04-06T16:07:01.6Z</time></trkpt><trkpt lat="44.77587" lon="9.6055683"><ele>327.0</ele><time>2026-04-06T16:07:02.601Z</time></trkpt><trkpt lat="44.7759633" lon="9.6055783"><ele>327.0</ele><time>2026-04-06T16:07:04.6Z</time></trkpt><trkpt lat="44.77603" lon="9.6055833"><ele>327.0</ele><time>2026-04-06T16:07:06.6Z</time></trkpt><trkpt lat="44.7761133" lon="9.60559"><ele>326.6666666666667</ele><time>2026-04-06T16:07:08.604Z</time></trkpt><trkpt lat="44.7762017" lon="9.60561"><ele>326.3333333333333</ele><time>2026-04-06T16:07:10.601Z</time></trkpt><trkpt lat="44.7762483" lon="9.6056917"><ele>326.0</ele><time>2026-04-06T16:07:12.604Z</time></trkpt><trkpt lat="44.77625" lon="9.6058533"><ele>325.66666666666663</ele><time>2026-04-06T16:07:14.601Z</time></trkpt><trkpt lat="44.7762433" lon="9.605955"><ele>325.3333333333333</ele><time>2026-04-06T16:07:15.601Z</time></trkpt><trkpt lat="44.776235" lon="9.6060667"><ele>325.0</ele><time>2026-04-06T16:07:16.601Z</time></trkpt><trkpt lat="44.77623" lon="9.6061917"><ele>325.0</ele><time>2026-04-06T16:07:17.601Z</time></trkpt><trkpt lat="44.7762233" lon="9.6063133"><ele>325.0</ele><time>2026-04-06T16:07:18.6Z</time></trkpt><trkpt lat="44.7762167" lon="9.6064217"><ele>325.0</ele><time>2026-04-06T16:07:19.599Z</time></trkpt><trkpt lat="44.7762117" lon="9.60653"><ele>325.0</ele><time>2026-04-06T16:07:20.602Z</time></trkpt><trkpt lat="44.776205" lon="9.6066333"><ele>325.0</ele><time>2026-04-06T16:07:21.601Z</time></trkpt><trkpt lat="44.7762" lon="9.6067283"><ele>325.0</ele><time>2026-04-06T16:07:22.599Z</time></trkpt><trkpt lat="44.7761967" lon="9.6069017"><ele>325.8</ele><time>2026-04-06T16:07:24.601Z</time></trkpt><trkpt lat="44.7762217" lon="9.6070517"><ele>326.6</ele><time>2026-04-06T16:07:26.6Z</time></trkpt><trkpt lat="44.7763283" lon="9.607155"><ele>327.4</ele><time>2026-04-06T16:07:28.601Z</time></trkpt><trkpt lat="44.7764067" lon="9.607205"><ele>328.2</ele><time>2026-04-06T16:07:29.6Z</time></trkpt><trkpt lat="44.77649" lon="9.6072617"><ele>329.0</ele><time>2026-04-06T16:07:30.601Z</time></trkpt><trkpt lat="44.7765767" lon="9.6073167"><ele>329.0</ele><time>2026-04-06T16:07:31.601Z</time></trkpt><trkpt lat="44.776665" lon="9.6073717"><ele>329.0</ele><time>2026-04-06T16:07:32.601Z</time></trkpt><trkpt lat="44.776755" lon="9.6074283"><ele>329.0</ele><time>2026-04-06T16:07:33.601Z</time></trkpt><trkpt lat="44.7768467" lon="9.607485"><ele>329.0</ele><time>2026-04-06T16:07:34.601Z</time></trkpt><trkpt lat="44.7769417" lon="9.6075433"><ele>329.0</ele><time>2026-04-06T16:07:35.601Z</time></trkpt><trkpt lat="44.77704" lon="9.6075967"><ele>328.79999999999995</ele><time>2026-04-06T16:07:36.602Z</time></trkpt><trkpt lat="44.7771367" lon="9.6076567"><ele>328.59999999999997</ele><time>2026-04-06T16:07:37.6Z</time></trkpt><trkpt lat="44.7772333" lon="9.6077167"><ele>328.4</ele><time>2026-04-06T16:07:38.599Z</time></trkpt><trkpt lat="44.777335" lon="9.607775"><ele>328.2</ele><time>2026-04-06T16:07:39.601Z</time></trkpt><trkpt lat="44.777435" lon="9.6078317"><ele>328.0</ele><time>2026-04-06T16:07:40.601Z</time></trkpt><trkpt lat="44.7775367" lon="9.60789"><ele>328.0</ele><time>2026-04-06T16:07:41.601Z</time></trkpt><trkpt lat="44.7776417" lon="9.6079483"><ele>328.0</ele><time>2026-04-06T16:07:42.602Z</time></trkpt><trkpt lat="44.7777467" lon="9.6080033"><ele>328.0</ele><time>2026-04-06T16:07:43.601Z</time></trkpt><trkpt lat="44.77785" lon="9.6080617"><ele>328.0</ele><time>2026-04-06T16:07:44.601Z</time></trkpt><trkpt lat="44.7779567" lon="9.6081267"><ele>328.0</ele><time>2026-04-06T16:07:45.598Z</time></trkpt><trkpt lat="44.77806" lon="9.6081883"><ele>328.0</ele><time>2026-04-06T16:07:46.6Z</time></trkpt><trkpt lat="44.7781583" lon="9.6082467"><ele>328.0</ele><time>2026-04-06T16:07:47.6Z</time></trkpt><trkpt lat="44.7782567" lon="9.6083067"><ele>328.0</ele><time>2026-04-06T16:07:48.6Z</time></trkpt><trkpt lat="44.7783567" lon="9.608365"><ele>328.0</ele><time>2026-04-06T16:07:49.599Z</time></trkpt><trkpt lat="44.77846" lon="9.6084217"><ele>327.4</ele><time>2026-04-06T16:07:50.599Z</time></trkpt><trkpt lat="44.7785667" lon="9.60848"><ele>326.79999999999995</ele><time>2026-04-06T16:07:51.601Z</time></trkpt><trkpt lat="44.7786733" lon="9.60854"><ele>326.2</ele><time>2026-04-06T16:07:52.6Z</time></trkpt><trkpt lat="44.778775" lon="9.6085967"><ele>325.6</ele><time>2026-04-06T16:07:53.6Z</time></trkpt><trkpt lat="44.77887" lon="9.6086533"><ele>325.0</ele><time>2026-04-06T16:07:54.601Z</time></trkpt><trkpt lat="44.7789633" lon="9.6087067"><ele>325.0</ele><time>2026-04-06T16:07:55.601Z</time></trkpt><trkpt lat="44.7790633" lon="9.6087617"><ele>325.0</ele><time>2026-04-06T16:07:56.602Z</time></trkpt><trkpt lat="44.77917" lon="9.6088217"><ele>325.0</ele><time>2026-04-06T16:07:57.601Z</time></trkpt><trkpt lat="44.7792833" lon="9.608885"><ele>325.0</ele><time>2026-04-06T16:07:58.601Z</time></trkpt><trkpt lat="44.7794067" lon="9.6089533"><ele>325.25</ele><time>2026-04-06T16:07:59.599Z</time></trkpt><trkpt lat="44.7795333" lon="9.6090267"><ele>325.5</ele><time>2026-04-06T16:08:00.601Z</time></trkpt><trkpt lat="44.77966" lon="9.6091"><ele>325.75</ele><time>2026-04-06T16:08:01.602Z</time></trkpt><trkpt lat="44.7797833" lon="9.60917"><ele>326.0</ele><time>2026-04-06T16:08:02.601Z</time></trkpt><trkpt lat="44.779905" lon="9.6092417"><ele>326.0</ele><time>2026-04-06T16:08:03.6Z</time></trkpt><trkpt lat="44.78003" lon="9.6093133"><ele>326.0</ele><time>2026-04-06T16:08:04.601Z</time></trkpt><trkpt lat="44.780155" lon="9.6093833"><ele>326.0</ele><time>2026-04-06T16:08:05.601Z</time></trkpt><trkpt lat="44.7802833" lon="9.6094567"><ele>326.0</ele><time>2026-04-06T16:08:06.601Z</time></trkpt><trkpt lat="44.7804133" lon="9.609535"><ele>325.75</ele><time>2026-04-06T16:08:07.6Z</time></trkpt><trkpt lat="44.780545" lon="9.60961"><ele>325.5</ele><time>2026-04-06T16:08:08.6Z</time></trkpt><trkpt lat="44.7806767" lon="9.609685"><ele>325.25</ele><time>2026-04-06T16:08:09.599Z</time></trkpt><trkpt lat="44.780805" lon="9.6097583"><ele>325.0</ele><time>2026-04-06T16:08:10.601Z</time></trkpt><trkpt lat="44.7809317" lon="9.609835"><ele>325.0</ele><time>2026-04-06T16:08:11.601Z</time></trkpt><trkpt lat="44.78106" lon="9.6099117"><ele>325.0</ele><time>2026-04-06T16:08:12.6Z</time></trkpt><trkpt lat="44.78119" lon="9.60999"><ele>325.0</ele><time>2026-04-06T16:08:13.6Z</time></trkpt><trkpt lat="44.7813217" lon="9.6100667"><ele>325.0</ele><time>2026-04-06T16:08:14.601Z</time></trkpt><trkpt lat="44.781455" lon="9.610145"><ele>325.0</ele><time>2026-04-06T16:08:15.6Z</time></trkpt><trkpt lat="44.7815883" lon="9.610225"><ele>325.0</ele><time>2026-04-06T16:08:16.602Z</time></trkpt><trkpt lat="44.7817217" lon="9.6103017"><ele>325.0</ele><time>2026-04-06T16:08:17.601Z</time></trkpt><trkpt lat="44.7818533" lon="9.61037"><ele>325.0</ele><time>2026-04-06T16:08:18.601Z</time></trkpt><trkpt lat="44.7819867" lon="9.61042"><ele>325.25</ele><time>2026-04-06T16:08:19.601Z</time></trkpt><trkpt lat="44.782125" lon="9.610435"><ele>325.5</ele><time>2026-04-06T16:08:20.6Z</time></trkpt><trkpt lat="44.782265" lon="9.61041"><ele>325.75</ele><time>2026-04-06T16:08:21.6Z</time></trkpt><trkpt lat="44.7824017" lon="9.6103433"><ele>326.0</ele><time>2026-04-06T16:08:22.6Z</time></trkpt><trkpt lat="44.782535" lon="9.61023"><ele>325.33333333333337</ele><time>2026-04-06T16:08:23.599Z</time></trkpt><trkpt lat="44.7826617" lon="9.6100883"><ele>324.6666666666667</ele><time>2026-04-06T16:08:24.601Z</time></trkpt><trkpt lat="44.7827867" lon="9.6099283"><ele>324.0</ele><time>2026-04-06T16:08:25.6Z</time></trkpt><trkpt lat="44.7829133" lon="9.609765"><ele>324.0</ele><time>2026-04-06T16:08:26.602Z</time></trkpt><trkpt lat="44.783045" lon="9.6096067"><ele>324.0</ele><time>2026-04-06T16:08:27.601Z</time></trkpt><trkpt lat="44.7831817" lon="9.6094617"><ele>324.0</ele><time>2026-04-06T16:08:28.6Z</time></trkpt><trkpt lat="44.7833283" lon="9.6093317"><ele>322.0</ele><time>2026-04-06T16:08:29.6Z</time></trkpt><trkpt lat="44.783485" lon="9.60922"><ele>320.0</ele><time>2026-04-06T16:08:30.601Z</time></trkpt><trkpt lat="44.7836483" lon="9.6091233"><ele>318.0</ele><time>2026-04-06T16:08:31.601Z</time></trkpt><trkpt lat="44.7838217" lon="9.6090367"><ele>317.3333333333333</ele><time>2026-04-06T16:08:32.601Z</time></trkpt><trkpt lat="44.7840117" lon="9.6089583"><ele>316.66666666666663</ele><time>2026-04-06T16:08:33.6Z</time></trkpt><trkpt lat="44.78422" lon="9.6088917"><ele>316.0</ele><time>2026-04-06T16:08:34.6Z</time></trkpt><trkpt lat="44.7844417" lon="9.608835"><ele>316.0</ele><time>2026-04-06T16:08:35.601Z</time></trkpt><trkpt lat="44.7846733" lon="9.6087783"><ele>316.0</ele><time>2026-04-06T16:08:36.6Z</time></trkpt><trkpt lat="44.7849117" lon="9.6087217"><ele>316.0</ele><time>2026-04-06T16:08:37.6Z</time></trkpt><trkpt lat="44.7851567" lon="9.60866"><ele>316.0</ele><time>2026-04-06T16:08:38.602Z</time></trkpt><trkpt lat="44.7854017" lon="9.608595"><ele>314.5</ele><time>2026-04-06T16:08:39.601Z</time></trkpt><trkpt lat="44.7856467" lon="9.608535"><ele>313.0</ele><time>2026-04-06T16:08:40.603Z</time></trkpt><trkpt lat="44.7858967" lon="9.6084733"><ele>313.0</ele><time>2026-04-06T16:08:41.6Z</time></trkpt><trkpt lat="44.7861483" lon="9.60841"><ele>313.0</ele><time>2026-04-06T16:08:42.601Z</time></trkpt><trkpt lat="44.7863883" lon="9.6083517"><ele>313.0</ele><time>2026-04-06T16:08:43.601Z</time></trkpt><trkpt lat="44.786615" lon="9.6082983"><ele>313.0</ele><time>2026-04-06T16:08:44.6Z</time></trkpt><trkpt lat="44.78683" lon="9.6082483"><ele>313.0</ele><time>2026-04-06T16:08:45.601Z</time></trkpt><trkpt lat="44.7870333" lon="9.608195"><ele>311.3333333333333</ele><time>2026-04-06T16:08:46.601Z</time></trkpt><trkpt lat="44.787225" lon="9.60815"><ele>309.6666666666667</ele><time>2026-04-06T16:08:47.601Z</time></trkpt><trkpt lat="44.7874083" lon="9.608105"><ele>308.0</ele><time>2026-04-06T16:08:48.601Z</time></trkpt><trkpt lat="44.787585" lon="9.6080633"><ele>309.0</ele><time>2026-04-06T16:08:49.6Z</time></trkpt><trkpt lat="44.7877517" lon="9.608025"><ele>310.0</ele><time>2026-04-06T16:08:50.601Z</time></trkpt><trkpt lat="44.7879117" lon="9.6079883"><ele>311.0</ele><time>2026-04-06T16:08:51.6Z</time></trkpt><trkpt lat="44.7880667" lon="9.6079517"><ele>311.0</ele><time>2026-04-06T16:08:52.6Z</time></trkpt><trkpt lat="44.788225" lon="9.6079133"><ele>311.0</ele><time>2026-04-06T16:08:53.6Z</time></trkpt><trkpt lat="44.788385" lon="9.6078717"><ele>311.0</ele><time>2026-04-06T16:08:54.6Z</time></trkpt><trkpt lat="44.788545" lon="9.6078283"><ele>310.0</ele><time>2026-04-06T16:08:55.601Z</time></trkpt><trkpt lat="44.7887033" lon="9.6077867"><ele>309.0</ele><time>2026-04-06T16:08:56.6Z</time></trkpt><trkpt lat="44.7888617" lon="9.6077467"><ele>308.0</ele><time>2026-04-06T16:08:57.601Z</time></trkpt><trkpt lat="44.789015" lon="9.6077067"><ele>308.0</ele><time>2026-04-06T16:08:58.6Z</time></trkpt><trkpt lat="44.7891633" lon="9.6076717"><ele>308.0</ele><time>2026-04-06T16:08:59.599Z</time></trkpt><trkpt lat="44.7893117" lon="9.6076333"><ele>308.0</ele><time>2026-04-06T16:09:00.601Z</time></trkpt><trkpt lat="44.789465" lon="9.6075917"><ele>308.33333333333337</ele><time>2026-04-06T16:09:01.601Z</time></trkpt><trkpt lat="44.7896267" lon="9.6075433"><ele>308.6666666666667</ele><time>2026-04-06T16:09:02.601Z</time></trkpt><trkpt lat="44.7898083" lon="9.6074867"><ele>309.0</ele><time>2026-04-06T16:09:03.6Z</time></trkpt><trkpt lat="44.7900117" lon="9.607425"><ele>309.0</ele><time>2026-04-06T16:09:04.6Z</time></trkpt><trkpt lat="44.79023" lon="9.6073667"><ele>309.0</ele><time>2026-04-06T16:09:05.6Z</time></trkpt><trkpt lat="44.79046" lon="9.6073083"><ele>309.0</ele><time>2026-04-06T16:09:06.601Z</time></trkpt><trkpt lat="44.7906967" lon="9.6072433"><ele>309.0</ele><time>2026-04-06T16:09:07.6Z</time></trkpt><trkpt lat="44.7909417" lon="9.6071733"><ele>309.0</ele><time>2026-04-06T16:09:08.6Z</time></trkpt><trkpt lat="44.7911933" lon="9.6070933"><ele>309.0</ele><time>2026-04-06T16:09:09.601Z</time></trkpt><trkpt lat="44.7914483" lon="9.6070133"><ele>308.5</ele><time>2026-04-06T16:09:10.601Z</time></trkpt><trkpt lat="44.791705" lon="9.60693"><ele>308.0</ele><time>2026-04-06T16:09:11.6Z</time></trkpt><trkpt lat="44.7919583" lon="9.6068517"><ele>308.0</ele><time>2026-04-06T16:09:12.599Z</time></trkpt><trkpt lat="44.79221" lon="9.60677"><ele>308.0</ele><time>2026-04-06T16:09:13.601Z</time></trkpt><trkpt lat="44.7924583" lon="9.6066833"><ele>312.0</ele><time>2026-04-06T16:09:14.601Z</time></trkpt><trkpt lat="44.7926983" lon="9.6065983"><ele>316.0</ele><time>2026-04-06T16:09:15.6Z</time></trkpt><trkpt lat="44.7929283" lon="9.6065167"><ele>316.0</ele><time>2026-04-06T16:09:16.601Z</time></trkpt><trkpt lat="44.7931533" lon="9.6064367"><ele>316.0</ele><time>2026-04-06T16:09:17.6Z</time></trkpt><trkpt lat="44.7933733" lon="9.6063633"><ele>318.0</ele><time>2026-04-06T16:09:18.601Z</time></trkpt><trkpt lat="44.7935967" lon="9.606305"><ele>320.0</ele><time>2026-04-06T16:09:19.6Z</time></trkpt><trkpt lat="44.793825" lon="9.6062683"><ele>320.0</ele><time>2026-04-06T16:09:20.601Z</time></trkpt><trkpt lat="44.794055" lon="9.6062533"><ele>320.0</ele><time>2026-04-06T16:09:21.6Z</time></trkpt><trkpt lat="44.7942867" lon="9.6062583"><ele>321.5</ele><time>2026-04-06T16:09:22.6Z</time></trkpt><trkpt lat="44.7945167" lon="9.6062833"><ele>323.0</ele><time>2026-04-06T16:09:23.6Z</time></trkpt><trkpt lat="44.7947383" lon="9.6063267"><ele>323.0</ele><time>2026-04-06T16:09:24.6Z</time></trkpt><trkpt lat="44.7949533" lon="9.6063967"><ele>323.0</ele><time>2026-04-06T16:09:25.6Z</time></trkpt><trkpt lat="44.7951667" lon="9.6064883"><ele>323.0</ele><time>2026-04-06T16:09:26.601Z</time></trkpt><trkpt lat="44.795375" lon="9.6066017"><ele>323.0</ele><time>2026-04-06T16:09:27.602Z</time></trkpt><trkpt lat="44.7955783" lon="9.6067317"><ele>323.0</ele><time>2026-04-06T16:09:28.6Z</time></trkpt><trkpt lat="44.7957717" lon="9.6068717"><ele>323.0</ele><time>2026-04-06T16:09:29.601Z</time></trkpt><trkpt lat="44.7959583" lon="9.6070167"><ele>318.6666666666667</ele><time>2026-04-06T16:09:30.601Z</time></trkpt><trkpt lat="44.796135" lon="9.6071533"><ele>314.3333333333333</ele><time>2026-04-06T16:09:31.6Z</time></trkpt><trkpt lat="44.79631" lon="9.6072817"><ele>310.0</ele><time>2026-04-06T16:09:32.601Z</time></trkpt><trkpt lat="44.79649" lon="9.6074117"><ele>310.0</ele><time>2026-04-06T16:09:33.601Z</time></trkpt><trkpt lat="44.7966783" lon="9.6075317"><ele>310.0</ele><time>2026-04-06T16:09:34.6Z</time></trkpt><trkpt lat="44.796875" lon="9.6076333"><ele>310.0</ele><time>2026-04-06T16:09:35.601Z</time></trkpt><trkpt lat="44.7970783" lon="9.6077133"><ele>307.5</ele><time>2026-04-06T16:09:36.6Z</time></trkpt><trkpt lat="44.797295" lon="9.6077667"><ele>305.0</ele><time>2026-04-06T16:09:37.6Z</time></trkpt><trkpt lat="44.7975267" lon="9.6077917"><ele>305.5</ele><time>2026-04-06T16:09:38.601Z</time></trkpt><trkpt lat="44.7977633" lon="9.6077917"><ele>306.0</ele><time>2026-04-06T16:09:39.6Z</time></trkpt><trkpt lat="44.798005" lon="9.6077717"><ele>306.0</ele><time>2026-04-06T16:09:40.602Z</time></trkpt><trkpt lat="44.7982517" lon="9.6077417"><ele>306.0</ele><time>2026-04-06T16:09:41.601Z</time></trkpt><trkpt lat="44.79849" lon="9.6077133"><ele>306.0</ele><time>2026-04-06T16:09:42.601Z</time></trkpt><trkpt lat="44.7987167" lon="9.6076917"><ele>306.0</ele><time>2026-04-06T16:09:43.6Z</time></trkpt><trkpt lat="44.79894" lon="9.60769"><ele>306.0</ele><time>2026-04-06T16:09:44.602Z</time></trkpt><trkpt lat="44.7991667" lon="9.6077083"><ele>306.0</ele><time>2026-04-06T16:09:45.601Z</time></trkpt><trkpt lat="44.7994" lon="9.6077483"><ele>304.5</ele><time>2026-04-06T16:09:46.6Z</time></trkpt><trkpt lat="44.7996333" lon="9.60781"><ele>303.0</ele><time>2026-04-06T16:09:47.602Z</time></trkpt><trkpt lat="44.7998617" lon="9.6078883"><ele>302.5</ele><time>2026-04-06T16:09:48.601Z</time></trkpt><trkpt lat="44.8000883" lon="9.6079883"><ele>302.0</ele><time>2026-04-06T16:09:49.599Z</time></trkpt><trkpt lat="44.80031" lon="9.60811"><ele>302.0</ele><time>2026-04-06T16:09:50.6Z</time></trkpt><trkpt lat="44.800525" lon="9.6082633"><ele>302.0</ele><time>2026-04-06T16:09:51.6Z</time></trkpt><trkpt lat="44.8007317" lon="9.6084317"><ele>302.0</ele><time>2026-04-06T16:09:52.602Z</time></trkpt><trkpt lat="44.800935" lon="9.6086217"><ele>302.0</ele><time>2026-04-06T16:09:53.601Z</time></trkpt><trkpt lat="44.8011283" lon="9.6088333"><ele>298.0</ele><time>2026-04-06T16:09:54.601Z</time></trkpt><trkpt lat="44.8013117" lon="9.609065"><ele>294.0</ele><time>2026-04-06T16:09:55.601Z</time></trkpt><trkpt lat="44.8014883" lon="9.6093167"><ele>297.0</ele><time>2026-04-06T16:09:56.6Z</time></trkpt><trkpt lat="44.8016533" lon="9.6095817"><ele>300.0</ele><time>2026-04-06T16:09:57.601Z</time></trkpt><trkpt lat="44.8018133" lon="9.6098567"><ele>296.5</ele><time>2026-04-06T16:09:58.6Z</time></trkpt><trkpt lat="44.80197" lon="9.6101367"><ele>293.0</ele><time>2026-04-06T16:09:59.604Z</time></trkpt><trkpt lat="44.802125" lon="9.610415"><ele>293.0</ele><time>2026-04-06T16:10:00.601Z</time></trkpt><trkpt lat="44.8022817" lon="9.6106983"><ele>293.0</ele><time>2026-04-06T16:10:01.599Z</time></trkpt><trkpt lat="44.8024433" lon="9.6109833"><ele>294.5</ele><time>2026-04-06T16:10:02.601Z</time></trkpt><trkpt lat="44.8026083" lon="9.611265"><ele>296.0</ele><time>2026-04-06T16:10:03.6Z</time></trkpt><trkpt lat="44.8027767" lon="9.6115367"><ele>298.5</ele><time>2026-04-06T16:10:04.6Z</time></trkpt><trkpt lat="44.8029533" lon="9.611785"><ele>301.0</ele><time>2026-04-06T16:10:05.599Z</time></trkpt><trkpt lat="44.803145" lon="9.6120183"><ele>301.0</ele><time>2026-04-06T16:10:06.601Z</time></trkpt><trkpt lat="44.803345" lon="9.6122317"><ele>301.0</ele><time>2026-04-06T16:10:07.6Z</time></trkpt><trkpt lat="44.80355" lon="9.6124367"><ele>295.0</ele><time>2026-04-06T16:10:08.602Z</time></trkpt><trkpt lat="44.8037633" lon="9.6126267"><ele>289.0</ele><time>2026-04-06T16:10:09.6Z</time></trkpt><trkpt lat="44.803985" lon="9.6127983"><ele>290.0</ele><time>2026-04-06T16:10:10.6Z</time></trkpt><trkpt lat="44.8042167" lon="9.6129467"><ele>291.0</ele><time>2026-04-06T16:10:11.6Z</time></trkpt><trkpt lat="44.8044583" lon="9.6130767"><ele>291.0</ele><time>2026-04-06T16:10:12.601Z</time></trkpt><trkpt lat="44.8047033" lon="9.613195"><ele>291.0</ele><time>2026-04-06T16:10:13.601Z</time></trkpt><trkpt lat="44.8049517" lon="9.6132917"><ele>289.0</ele><time>2026-04-06T16:10:14.599Z</time></trkpt><trkpt lat="44.8052033" lon="9.6133717"><ele>287.0</ele><time>2026-04-06T16:10:15.6Z</time></trkpt><trkpt lat="44.80545" lon="9.6134367"><ele>287.0</ele><time>2026-04-06T16:10:16.601Z</time></trkpt><trkpt lat="44.8056883" lon="9.6134967"><ele>287.0</ele><time>2026-04-06T16:10:17.599Z</time></trkpt><trkpt lat="44.80592" lon="9.6135533"><ele>286.5</ele><time>2026-04-06T16:10:18.601Z</time></trkpt><trkpt lat="44.8061517" lon="9.6136067"><ele>286.0</ele><time>2026-04-06T16:10:19.6Z</time></trkpt><trkpt lat="44.806385" lon="9.613655"><ele>290.0</ele><time>2026-04-06T16:10:20.6Z</time></trkpt><trkpt lat="44.8066183" lon="9.6137033"><ele>294.0</ele><time>2026-04-06T16:10:21.601Z</time></trkpt><trkpt lat="44.80685" lon="9.6137533"><ele>294.0</ele><time>2026-04-06T16:10:22.6Z</time></trkpt><trkpt lat="44.8070817" lon="9.6138017"><ele>294.0</ele><time>2026-04-06T16:10:23.602Z</time></trkpt><trkpt lat="44.8073117" lon="9.6138567"><ele>294.0</ele><time>2026-04-06T16:10:24.6Z</time></trkpt><trkpt lat="44.8075433" lon="9.6139067"><ele>294.0</ele><time>2026-04-06T16:10:25.6Z</time></trkpt><trkpt lat="44.8077733" lon="9.61396"><ele>290.0</ele><time>2026-04-06T16:10:26.602Z</time></trkpt><trkpt lat="44.8080017" lon="9.614015"><ele>286.0</ele><time>2026-04-06T16:10:27.599Z</time></trkpt><trkpt lat="44.80823" lon="9.614075"><ele>286.0</ele><time>2026-04-06T16:10:28.6Z</time></trkpt><trkpt lat="44.8084633" lon="9.61413"><ele>286.0</ele><time>2026-04-06T16:10:29.6Z</time></trkpt><trkpt lat="44.808695" lon="9.614185"><ele>285.5</ele><time>2026-04-06T16:10:30.6Z</time></trkpt><trkpt lat="44.8089233" lon="9.61424"><ele>285.0</ele><time>2026-04-06T16:10:31.601Z</time></trkpt><trkpt lat="44.8091517" lon="9.6142933"><ele>284.5</ele><time>2026-04-06T16:10:32.602Z</time></trkpt><trkpt lat="44.8093783" lon="9.6143483"><ele>284.0</ele><time>2026-04-06T16:10:33.599Z</time></trkpt><trkpt lat="44.8096017" lon="9.6144083"><ele>284.0</ele><time>2026-04-06T16:10:34.601Z</time></trkpt><trkpt lat="44.809825" lon="9.6144683"><ele>284.0</ele><time>2026-04-06T16:10:35.599Z</time></trkpt><trkpt lat="44.81005" lon="9.614535"><ele>284.5</ele><time>2026-04-06T16:10:36.599Z</time></trkpt><trkpt lat="44.8102733" lon="9.6146167"><ele>285.0</ele><time>2026-04-06T16:10:37.601Z</time></trkpt><trkpt lat="44.8104933" lon="9.6147167"><ele>285.0</ele><time>2026-04-06T16:10:38.601Z</time></trkpt><trkpt lat="44.81071" lon="9.6148333"><ele>285.0</ele><time>2026-04-06T16:10:39.6Z</time></trkpt><trkpt lat="44.810925" lon="9.6149683"><ele>282.0</ele><time>2026-04-06T16:10:40.6Z</time></trkpt><trkpt lat="44.811135" lon="9.6151133"><ele>279.0</ele><time>2026-04-06T16:10:41.601Z</time></trkpt><trkpt lat="44.811345" lon="9.615265"><ele>284.0</ele><time>2026-04-06T16:10:42.601Z</time></trkpt><trkpt lat="44.8115533" lon="9.6154167"><ele>289.0</ele><time>2026-04-06T16:10:43.601Z</time></trkpt><trkpt lat="44.8117633" lon="9.6155717"><ele>284.5</ele><time>2026-04-06T16:10:44.599Z</time></trkpt><trkpt lat="44.811975" lon="9.615725"><ele>280.0</ele><time>2026-04-06T16:10:45.599Z</time></trkpt><trkpt lat="44.8121883" lon="9.6158783"><ele>280.0</ele><time>2026-04-06T16:10:46.599Z</time></trkpt><trkpt lat="44.812405" lon="9.6160317"><ele>280.0</ele><time>2026-04-06T16:10:47.602Z</time></trkpt><trkpt lat="44.81262" lon="9.6161883"><ele>278.5</ele><time>2026-04-06T16:10:48.601Z</time></trkpt><trkpt lat="44.8128367" lon="9.6163433"><ele>277.0</ele><time>2026-04-06T16:10:49.601Z</time></trkpt><trkpt lat="44.8130533" lon="9.6164983"><ele>277.0</ele><time>2026-04-06T16:10:50.601Z</time></trkpt><trkpt lat="44.8132717" lon="9.6166567"><ele>277.0</ele><time>2026-04-06T16:10:51.601Z</time></trkpt><trkpt lat="44.8134917" lon="9.616815"><ele>279.0</ele><time>2026-04-06T16:10:52.602Z</time></trkpt><trkpt lat="44.8137117" lon="9.6169733"><ele>281.0</ele><time>2026-04-06T16:10:53.602Z</time></trkpt><trkpt lat="44.8139317" lon="9.61713"><ele>281.0</ele><time>2026-04-06T16:10:54.601Z</time></trkpt><trkpt lat="44.8141533" lon="9.61728"><ele>281.0</ele><time>2026-04-06T16:10:55.601Z</time></trkpt><trkpt lat="44.8143783" lon="9.6174233"><ele>277.5</ele><time>2026-04-06T16:10:56.598Z</time></trkpt><trkpt lat="44.814605" lon="9.6175583"><ele>274.0</ele><time>2026-04-06T16:10:57.6Z</time></trkpt><trkpt lat="44.8148367" lon="9.617685"><ele>274.0</ele><time>2026-04-06T16:10:58.599Z</time></trkpt><trkpt lat="44.8150683" lon="9.617805"><ele>274.0</ele><time>2026-04-06T16:10:59.6Z</time></trkpt><trkpt lat="44.8153033" lon="9.6179117"><ele>278.5</ele><time>2026-04-06T16:11:00.601Z</time></trkpt><trkpt lat="44.8155383" lon="9.6180133"><ele>283.0</ele><time>2026-04-06T16:11:01.601Z</time></trkpt><trkpt lat="44.8157717" lon="9.6181083"><ele>280.0</ele><time>2026-04-06T16:11:02.6Z</time></trkpt><trkpt lat="44.8160033" lon="9.6181983"><ele>277.0</ele><time>2026-04-06T16:11:03.6Z</time></trkpt><trkpt lat="44.8162333" lon="9.6182867"><ele>277.0</ele><time>2026-04-06T16:11:04.601Z</time></trkpt><trkpt lat="44.8164633" lon="9.618375"><ele>277.0</ele><time>2026-04-06T16:11:05.6Z</time></trkpt><trkpt lat="44.8166933" lon="9.618455"><ele>275.0</ele><time>2026-04-06T16:11:06.601Z</time></trkpt><trkpt lat="44.8169217" lon="9.6185367"><ele>273.0</ele><time>2026-04-06T16:11:07.6Z</time></trkpt><trkpt lat="44.8171483" lon="9.6186167"><ele>276.5</ele><time>2026-04-06T16:11:08.6Z</time></trkpt><trkpt lat="44.817375" lon="9.6186983"><ele>280.0</ele><time>2026-04-06T16:11:09.602Z</time></trkpt><trkpt lat="44.8176017" lon="9.6187833"><ele>279.5</ele><time>2026-04-06T16:11:10.599Z</time></trkpt><trkpt lat="44.8178267" lon="9.6188683"><ele>279.0</ele><time>2026-04-06T16:11:11.601Z</time></trkpt><trkpt lat="44.8180533" lon="9.6189517"><ele>279.0</ele><time>2026-04-06T16:11:12.601Z</time></trkpt><trkpt lat="44.81828" lon="9.61904"><ele>279.0</ele><time>2026-04-06T16:11:13.601Z</time></trkpt><trkpt lat="44.8185067" lon="9.619125"><ele>275.5</ele><time>2026-04-06T16:11:14.6Z</time></trkpt><trkpt lat="44.818735" lon="9.6192067"><ele>272.0</ele><time>2026-04-06T16:11:15.6Z</time></trkpt><trkpt lat="44.8189667" lon="9.619295"><ele>272.0</ele><time>2026-04-06T16:11:16.6Z</time></trkpt><trkpt lat="44.8192033" lon="9.6193833"><ele>272.0</ele><time>2026-04-06T16:11:17.601Z</time></trkpt><trkpt lat="44.8194417" lon="9.6194733"><ele>274.0</ele><time>2026-04-06T16:11:18.602Z</time></trkpt><trkpt lat="44.8196817" lon="9.619565"><ele>276.0</ele><time>2026-04-06T16:11:19.601Z</time></trkpt><trkpt lat="44.8199233" lon="9.6196567"><ele>274.5</ele><time>2026-04-06T16:11:20.601Z</time></trkpt><trkpt lat="44.8201667" lon="9.6197433"><ele>273.0</ele><time>2026-04-06T16:11:21.6Z</time></trkpt><trkpt lat="44.8204133" lon="9.619825"><ele>273.0</ele><time>2026-04-06T16:11:22.601Z</time></trkpt><trkpt lat="44.8206617" lon="9.6198967"><ele>273.0</ele><time>2026-04-06T16:11:23.601Z</time></trkpt><trkpt lat="44.82091" lon="9.6199567"><ele>271.5</ele><time>2026-04-06T16:11:24.601Z</time></trkpt><trkpt lat="44.82116" lon="9.6200033"><ele>270.0</ele><time>2026-04-06T16:11:25.601Z</time></trkpt><trkpt lat="44.8214117" lon="9.6200317"><ele>270.0</ele><time>2026-04-06T16:11:26.601Z</time></trkpt><trkpt lat="44.8216683" lon="9.6200467"><ele>270.0</ele><time>2026-04-06T16:11:27.599Z</time></trkpt><trkpt lat="44.8219233" lon="9.6200533"><ele>270.5</ele><time>2026-04-06T16:11:28.602Z</time></trkpt><trkpt lat="44.8221767" lon="9.6200583"><ele>271.0</ele><time>2026-04-06T16:11:29.604Z</time></trkpt><trkpt lat="44.822425" lon="9.620065"><ele>269.0</ele><time>2026-04-06T16:11:30.601Z</time></trkpt><trkpt lat="44.8226733" lon="9.6200733"><ele>267.0</ele><time>2026-04-06T16:11:31.601Z</time></trkpt><trkpt lat="44.8229183" lon="9.6200783"><ele>267.0</ele><time>2026-04-06T16:11:32.6Z</time></trkpt><trkpt lat="44.8231633" lon="9.620085"><ele>267.0</ele><time>2026-04-06T16:11:33.6Z</time></trkpt><trkpt lat="44.823405" lon="9.6200883"><ele>266.0</ele><time>2026-04-06T16:11:34.6Z</time></trkpt><trkpt lat="44.8236483" lon="9.6200933"><ele>265.0</ele><time>2026-04-06T16:11:35.601Z</time></trkpt><trkpt lat="44.82389" lon="9.6201033"><ele>265.0</ele><time>2026-04-06T16:11:36.601Z</time></trkpt><trkpt lat="44.82413" lon="9.6201083"><ele>265.0</ele><time>2026-04-06T16:11:37.601Z</time></trkpt><trkpt lat="44.8243717" lon="9.6201133"><ele>265.5</ele><time>2026-04-06T16:11:38.603Z</time></trkpt><trkpt lat="44.824615" lon="9.620115"><ele>266.0</ele><time>2026-04-06T16:11:39.6Z</time></trkpt><trkpt lat="44.824855" lon="9.6201183"><ele>266.0</ele><time>2026-04-06T16:11:40.601Z</time></trkpt><trkpt lat="44.8250967" lon="9.62012"><ele>266.0</ele><time>2026-04-06T16:11:41.601Z</time></trkpt><trkpt lat="44.8253383" lon="9.6201117"><ele>266.0</ele><time>2026-04-06T16:11:42.603Z</time></trkpt><trkpt lat="44.82558" lon="9.6200883"><ele>266.0</ele><time>2026-04-06T16:11:43.603Z</time></trkpt><trkpt lat="44.8258233" lon="9.62005"><ele>270.5</ele><time>2026-04-06T16:11:44.602Z</time></trkpt><trkpt lat="44.826065" lon="9.6199983"><ele>275.0</ele><time>2026-04-06T16:11:45.602Z</time></trkpt><trkpt lat="44.8263067" lon="9.6199283"><ele>275.0</ele><time>2026-04-06T16:11:46.601Z</time></trkpt><trkpt lat="44.826545" lon="9.6198417"><ele>275.0</ele><time>2026-04-06T16:11:47.602Z</time></trkpt><trkpt lat="44.82678" lon="9.6197383"><ele>272.0</ele><time>2026-04-06T16:11:48.603Z</time></trkpt><trkpt lat="44.8270133" lon="9.6196167"><ele>269.0</ele><time>2026-04-06T16:11:49.601Z</time></trkpt><trkpt lat="44.8272433" lon="9.6194817"><ele>269.0</ele><time>2026-04-06T16:11:50.603Z</time></trkpt><trkpt lat="44.8274667" lon="9.6193283"><ele>269.0</ele><time>2026-04-06T16:11:51.603Z</time></trkpt><trkpt lat="44.827685" lon="9.6191583"><ele>277.0</ele><time>2026-04-06T16:11:52.601Z</time></trkpt><trkpt lat="44.8278983" lon="9.61897"><ele>285.0</ele><time>2026-04-06T16:11:53.602Z</time></trkpt><trkpt lat="44.8281033" lon="9.61877"><ele>288.0</ele><time>2026-04-06T16:11:54.601Z</time></trkpt><trkpt lat="44.828305" lon="9.61856"><ele>291.0</ele><time>2026-04-06T16:11:55.601Z</time></trkpt><trkpt lat="44.8285017" lon="9.6183517"><ele>291.0</ele><time>2026-04-06T16:11:56.601Z</time></trkpt><trkpt lat="44.828695" lon="9.6181467"><ele>291.0</ele><time>2026-04-06T16:11:57.6Z</time></trkpt><trkpt lat="44.82889" lon="9.6179533"><ele>279.0</ele><time>2026-04-06T16:11:58.601Z</time></trkpt><trkpt lat="44.8290883" lon="9.6177733"><ele>267.0</ele><time>2026-04-06T16:11:59.603Z</time></trkpt><trkpt lat="44.8292933" lon="9.6176083"><ele>271.5</ele><time>2026-04-06T16:12:00.601Z</time></trkpt><trkpt lat="44.829505" lon="9.617465"><ele>276.0</ele><time>2026-04-06T16:12:01.601Z</time></trkpt><trkpt lat="44.82972" lon="9.6173433"><ele>276.0</ele><time>2026-04-06T16:12:02.6Z</time></trkpt><trkpt lat="44.8299383" lon="9.6172433"><ele>276.0</ele><time>2026-04-06T16:12:03.601Z</time></trkpt><trkpt lat="44.83016" lon="9.6171617"><ele>277.0</ele><time>2026-04-06T16:12:04.6Z</time></trkpt><trkpt lat="44.8303867" lon="9.6171033"><ele>278.0</ele><time>2026-04-06T16:12:05.601Z</time></trkpt><trkpt lat="44.8306183" lon="9.617065"><ele>278.0</ele><time>2026-04-06T16:12:06.601Z</time></trkpt><trkpt lat="44.8308567" lon="9.6170417"><ele>278.0</ele><time>2026-04-06T16:12:07.601Z</time></trkpt><trkpt lat="44.8310967" lon="9.617025"><ele>277.5</ele><time>2026-04-06T16:12:08.6Z</time></trkpt><trkpt lat="44.8313367" lon="9.6170133"><ele>277.0</ele><time>2026-04-06T16:12:09.601Z</time></trkpt><trkpt lat="44.8315717" lon="9.6169967"><ele>269.5</ele><time>2026-04-06T16:12:10.6Z</time></trkpt><trkpt lat="44.8318083" lon="9.6169767"><ele>262.0</ele><time>2026-04-06T16:12:11.601Z</time></trkpt><trkpt lat="44.8320433" lon="9.6169533"><ele>262.0</ele><time>2026-04-06T16:12:12.6Z</time></trkpt><trkpt lat="44.8322783" lon="9.6169133"><ele>262.0</ele><time>2026-04-06T16:12:13.601Z</time></trkpt><trkpt lat="44.832515" lon="9.61685"><ele>266.5</ele><time>2026-04-06T16:12:14.601Z</time></trkpt><trkpt lat="44.8327483" lon="9.616755"><ele>271.0</ele><time>2026-04-06T16:12:15.6Z</time></trkpt><trkpt lat="44.832975" lon="9.6166317"><ele>271.0</ele><time>2026-04-06T16:12:16.604Z</time></trkpt><trkpt lat="44.833195" lon="9.6164817"><ele>271.0</ele><time>2026-04-06T16:12:17.6Z</time></trkpt><trkpt lat="44.833405" lon="9.6162983"><ele>271.5</ele><time>2026-04-06T16:12:18.601Z</time></trkpt><trkpt lat="44.8336033" lon="9.61609"><ele>272.0</ele><time>2026-04-06T16:12:19.601Z</time></trkpt><trkpt lat="44.8337933" lon="9.6158683"><ele>272.0</ele><time>2026-04-06T16:12:20.601Z</time></trkpt><trkpt lat="44.8339783" lon="9.61564"><ele>272.0</ele><time>2026-04-06T16:12:21.601Z</time></trkpt><trkpt lat="44.8341633" lon="9.6154183"><ele>269.5</ele><time>2026-04-06T16:12:22.6Z</time></trkpt><trkpt lat="44.8343567" lon="9.61521"><ele>267.0</ele><time>2026-04-06T16:12:23.601Z</time></trkpt><trkpt lat="44.8345583" lon="9.6150217"><ele>267.0</ele><time>2026-04-06T16:12:24.601Z</time></trkpt><trkpt lat="44.834775" lon="9.6148517"><ele>267.0</ele><time>2026-04-06T16:12:25.601Z</time></trkpt><trkpt lat="44.8349967" lon="9.61469"><ele>271.0</ele><time>2026-04-06T16:12:26.601Z</time></trkpt><trkpt lat="44.8352217" lon="9.6145233"><ele>275.0</ele><time>2026-04-06T16:12:27.6Z</time></trkpt><trkpt lat="44.83545" lon="9.6143567"><ele>267.0</ele><time>2026-04-06T16:12:28.6Z</time></trkpt><trkpt lat="44.8356767" lon="9.61419"><ele>259.0</ele><time>2026-04-06T16:12:29.601Z</time></trkpt><trkpt lat="44.8359" lon="9.6140267"><ele>261.5</ele><time>2026-04-06T16:12:30.602Z</time></trkpt><trkpt lat="44.836125" lon="9.6138667"><ele>264.0</ele><time>2026-04-06T16:12:31.601Z</time></trkpt><trkpt lat="44.8363517" lon="9.61371"><ele>259.5</ele><time>2026-04-06T16:12:32.602Z</time></trkpt><trkpt lat="44.8365767" lon="9.6135567"><ele>255.0</ele><time>2026-04-06T16:12:33.6Z</time></trkpt><trkpt lat="44.8368" lon="9.6134033"><ele>258.0</ele><time>2026-04-06T16:12:34.601Z</time></trkpt><trkpt lat="44.8370233" lon="9.6132467"><ele>261.0</ele><time>2026-04-06T16:12:35.601Z</time></trkpt><trkpt lat="44.83724" lon="9.6130883"><ele>261.0</ele><time>2026-04-06T16:12:36.601Z</time></trkpt><trkpt lat="44.8374483" lon="9.61293"><ele>261.0</ele><time>2026-04-06T16:12:37.6Z</time></trkpt><trkpt lat="44.8376517" lon="9.61278"><ele>258.0</ele><time>2026-04-06T16:12:38.599Z</time></trkpt><trkpt lat="44.83786" lon="9.6126383"><ele>255.0</ele><time>2026-04-06T16:12:39.6Z</time></trkpt><trkpt lat="44.8380783" lon="9.612505"><ele>255.0</ele><time>2026-04-06T16:12:40.601Z</time></trkpt><trkpt lat="44.8383017" lon="9.6123817"><ele>255.0</ele><time>2026-04-06T16:12:41.6Z</time></trkpt><trkpt lat="44.8385367" lon="9.6122767"><ele>255.0</ele><time>2026-04-06T16:12:42.601Z</time></trkpt><trkpt lat="44.8387767" lon="9.6121817"><ele>255.0</ele><time>2026-04-06T16:12:43.602Z</time></trkpt><trkpt lat="44.83902" lon="9.612105"><ele>255.0</ele><time>2026-04-06T16:12:44.6Z</time></trkpt><trkpt lat="44.8392717" lon="9.61205"><ele>255.0</ele><time>2026-04-06T16:12:45.601Z</time></trkpt><trkpt lat="44.839535" lon="9.6120183"><ele>253.5</ele><time>2026-04-06T16:12:46.601Z</time></trkpt><trkpt lat="44.839815" lon="9.6120117"><ele>252.0</ele><time>2026-04-06T16:12:47.601Z</time></trkpt><trkpt lat="44.8401067" lon="9.6120267"><ele>251.5</ele><time>2026-04-06T16:12:48.601Z</time></trkpt><trkpt lat="44.8404017" lon="9.612055"><ele>251.0</ele><time>2026-04-06T16:12:49.6Z</time></trkpt><trkpt lat="44.8406883" lon="9.6120917"><ele>251.0</ele><time>2026-04-06T16:12:50.601Z</time></trkpt><trkpt lat="44.84096" lon="9.6121317"><ele>251.0</ele><time>2026-04-06T16:12:51.601Z</time></trkpt><trkpt lat="44.84122" lon="9.6121783"><ele>249.0</ele><time>2026-04-06T16:12:52.6Z</time></trkpt><trkpt lat="44.841475" lon="9.6122367"><ele>247.0</ele><time>2026-04-06T16:12:53.601Z</time></trkpt><trkpt lat="44.8417283" lon="9.6123267"><ele>244.0</ele><time>2026-04-06T16:12:54.602Z</time></trkpt><trkpt lat="44.8419717" lon="9.61244"><ele>241.0</ele><time>2026-04-06T16:12:55.602Z</time></trkpt><trkpt lat="44.8422067" lon="9.6125783"><ele>241.0</ele><time>2026-04-06T16:12:56.601Z</time></trkpt><trkpt lat="44.8424333" lon="9.6127483"><ele>241.0</ele><time>2026-04-06T16:12:57.601Z</time></trkpt><trkpt lat="44.84265" lon="9.6129483"><ele>242.0</ele><time>2026-04-06T16:12:58.601Z</time></trkpt><trkpt lat="44.8428583" lon="9.61317"><ele>243.0</ele><time>2026-04-06T16:12:59.601Z</time></trkpt><trkpt lat="44.8430567" lon="9.613415"><ele>247.5</ele><time>2026-04-06T16:13:00.6Z</time></trkpt><trkpt lat="44.8432333" lon="9.6136733"><ele>252.0</ele><time>2026-04-06T16:13:01.601Z</time></trkpt><trkpt lat="44.8433967" lon="9.6139533"><ele>248.5</ele><time>2026-04-06T16:13:02.601Z</time></trkpt><trkpt lat="44.8435517" lon="9.6142467"><ele>245.0</ele><time>2026-04-06T16:13:03.601Z</time></trkpt><trkpt lat="44.8437017" lon="9.6145433"><ele>245.0</ele><time>2026-04-06T16:13:04.602Z</time></trkpt><trkpt lat="44.8438517" lon="9.6148367"><ele>245.0</ele><time>2026-04-06T16:13:05.6Z</time></trkpt><trkpt lat="44.8440033" lon="9.6151233"><ele>241.5</ele><time>2026-04-06T16:13:06.6Z</time></trkpt><trkpt lat="44.84416" lon="9.6154033"><ele>238.0</ele><time>2026-04-06T16:13:07.599Z</time></trkpt><trkpt lat="44.8443217" lon="9.6156767"><ele>238.0</ele><time>2026-04-06T16:13:08.601Z</time></trkpt><trkpt lat="44.8444933" lon="9.61594"><ele>238.0</ele><time>2026-04-06T16:13:09.601Z</time></trkpt><trkpt lat="44.8446767" lon="9.616195"><ele>240.5</ele><time>2026-04-06T16:13:10.603Z</time></trkpt><trkpt lat="44.844865" lon="9.6164417"><ele>243.0</ele><time>2026-04-06T16:13:11.603Z</time></trkpt><trkpt lat="44.8450517" lon="9.616685"><ele>241.0</ele><time>2026-04-06T16:13:12.6Z</time></trkpt><trkpt lat="44.8452367" lon="9.616925"><ele>239.0</ele><time>2026-04-06T16:13:13.602Z</time></trkpt><trkpt lat="44.84542" lon="9.617165"><ele>239.0</ele><time>2026-04-06T16:13:14.601Z</time></trkpt><trkpt lat="44.845605" lon="9.6174067"><ele>239.0</ele><time>2026-04-06T16:13:15.601Z</time></trkpt><trkpt lat="44.8457917" lon="9.6176467"><ele>238.5</ele><time>2026-04-06T16:13:16.6Z</time></trkpt><trkpt lat="44.84598" lon="9.617885"><ele>238.0</ele><time>2026-04-06T16:13:17.601Z</time></trkpt><trkpt lat="44.8461667" lon="9.6181233"><ele>238.0</ele><time>2026-04-06T16:13:18.601Z</time></trkpt><trkpt lat="44.8463517" lon="9.6183633"><ele>238.0</ele><time>2026-04-06T16:13:19.604Z</time></trkpt><trkpt lat="44.8465367" lon="9.6186017"><ele>240.5</ele><time>2026-04-06T16:13:20.602Z</time></trkpt><trkpt lat="44.84672" lon="9.6188383"><ele>243.0</ele><time>2026-04-06T16:13:21.602Z</time></trkpt><trkpt lat="44.8469067" lon="9.6190767"><ele>241.5</ele><time>2026-04-06T16:13:22.6Z</time></trkpt><trkpt lat="44.8470933" lon="9.6193167"><ele>240.0</ele><time>2026-04-06T16:13:23.603Z</time></trkpt><trkpt lat="44.8472817" lon="9.6195567"><ele>240.0</ele><time>2026-04-06T16:13:24.604Z</time></trkpt><trkpt lat="44.84747" lon="9.619795"><ele>240.0</ele><time>2026-04-06T16:13:25.603Z</time></trkpt><trkpt lat="44.8476583" lon="9.6200383"><ele>237.5</ele><time>2026-04-06T16:13:26.604Z</time></trkpt><trkpt lat="44.8478467" lon="9.62028"><ele>235.0</ele><time>2026-04-06T16:13:27.604Z</time></trkpt><trkpt lat="44.848035" lon="9.6205183"><ele>235.0</ele><time>2026-04-06T16:13:28.6Z</time></trkpt><trkpt lat="44.848225" lon="9.620755"><ele>235.0</ele><time>2026-04-06T16:13:29.602Z</time></trkpt><trkpt lat="44.848415" lon="9.6209917"><ele>236.0</ele><time>2026-04-06T16:13:30.602Z</time></trkpt><trkpt lat="44.8486033" lon="9.6212233"><ele>237.0</ele><time>2026-04-06T16:13:31.6Z</time></trkpt><trkpt lat="44.84879" lon="9.6214533"><ele>237.0</ele><time>2026-04-06T16:13:32.601Z</time></trkpt><trkpt lat="44.8489783" lon="9.6216817"><ele>237.0</ele><time>2026-04-06T16:13:33.601Z</time></trkpt><trkpt lat="44.84917" lon="9.62191"><ele>238.0</ele><time>2026-04-06T16:13:34.601Z</time></trkpt><trkpt lat="44.8493633" lon="9.622125"><ele>239.0</ele><time>2026-04-06T16:13:35.601Z</time></trkpt><trkpt lat="44.8495617" lon="9.62232"><ele>239.0</ele><time>2026-04-06T16:13:36.599Z</time></trkpt><trkpt lat="44.849775" lon="9.6224917"><ele>239.0</ele><time>2026-04-06T16:13:37.599Z</time></trkpt><trkpt lat="44.85" lon="9.622645"><ele>239.5</ele><time>2026-04-06T16:13:38.601Z</time></trkpt><trkpt lat="44.8502333" lon="9.62278"><ele>240.0</ele><time>2026-04-06T16:13:39.6Z</time></trkpt><trkpt lat="44.8504683" lon="9.6229033"><ele>240.0</ele><time>2026-04-06T16:13:40.602Z</time></trkpt><trkpt lat="44.8507033" lon="9.623025"><ele>240.0</ele><time>2026-04-06T16:13:41.601Z</time></trkpt><trkpt lat="44.8509367" lon="9.6231467"><ele>236.5</ele><time>2026-04-06T16:13:42.601Z</time></trkpt><trkpt lat="44.851165" lon="9.6232633"><ele>233.0</ele><time>2026-04-06T16:13:43.602Z</time></trkpt><trkpt lat="44.8513883" lon="9.6233783"><ele>233.0</ele><time>2026-04-06T16:13:44.601Z</time></trkpt><trkpt lat="44.851605" lon="9.6234883"><ele>233.0</ele><time>2026-04-06T16:13:45.6Z</time></trkpt><trkpt lat="44.8518167" lon="9.6235983"><ele>234.66666666666669</ele><time>2026-04-06T16:13:46.6Z</time></trkpt><trkpt lat="44.852025" lon="9.62371"><ele>236.33333333333331</ele><time>2026-04-06T16:13:47.601Z</time></trkpt><trkpt lat="44.85223" lon="9.62384"><ele>238.0</ele><time>2026-04-06T16:13:48.601Z</time></trkpt><trkpt lat="44.8524267" lon="9.6239917"><ele>238.0</ele><time>2026-04-06T16:13:49.601Z</time></trkpt><trkpt lat="44.852615" lon="9.6241617"><ele>238.0</ele><time>2026-04-06T16:13:50.601Z</time></trkpt><trkpt lat="44.8527933" lon="9.6243517"><ele>238.0</ele><time>2026-04-06T16:13:51.601Z</time></trkpt><trkpt lat="44.8529633" lon="9.6245633"><ele>233.5</ele><time>2026-04-06T16:13:52.602Z</time></trkpt><trkpt lat="44.8531233" lon="9.62479"><ele>229.0</ele><time>2026-04-06T16:13:53.601Z</time></trkpt><trkpt lat="44.8532767" lon="9.62503"><ele>229.0</ele><time>2026-04-06T16:13:54.601Z</time></trkpt><trkpt lat="44.8534283" lon="9.625275"><ele>229.0</ele><time>2026-04-06T16:13:55.601Z</time></trkpt><trkpt lat="44.85358" lon="9.62552"><ele>227.5</ele><time>2026-04-06T16:13:56.602Z</time></trkpt><trkpt lat="44.8537333" lon="9.625765"><ele>226.0</ele><time>2026-04-06T16:13:57.6Z</time></trkpt><trkpt lat="44.853885" lon="9.62601"><ele>226.33333333333331</ele><time>2026-04-06T16:13:58.601Z</time></trkpt><trkpt lat="44.8540333" lon="9.62625"><ele>226.66666666666669</ele><time>2026-04-06T16:13:59.603Z</time></trkpt><trkpt lat="44.85418" lon="9.6264833"><ele>227.0</ele><time>2026-04-06T16:14:00.601Z</time></trkpt><trkpt lat="44.854325" lon="9.6267133"><ele>227.0</ele><time>2026-04-06T16:14:01.601Z</time></trkpt><trkpt lat="44.8544733" lon="9.626935"><ele>227.0</ele><time>2026-04-06T16:14:02.602Z</time></trkpt><trkpt lat="44.8546267" lon="9.6271517"><ele>227.0</ele><time>2026-04-06T16:14:03.601Z</time></trkpt><trkpt lat="44.85478" lon="9.62736"><ele>229.0</ele><time>2026-04-06T16:14:04.6Z</time></trkpt><trkpt lat="44.8549317" lon="9.627555"><ele>231.0</ele><time>2026-04-06T16:14:05.601Z</time></trkpt><trkpt lat="44.8550767" lon="9.6277383"><ele>233.0</ele><time>2026-04-06T16:14:06.601Z</time></trkpt><trkpt lat="44.8552167" lon="9.627915"><ele>233.66666666666669</ele><time>2026-04-06T16:14:07.601Z</time></trkpt><trkpt lat="44.8553567" lon="9.62808"><ele>234.33333333333331</ele><time>2026-04-06T16:14:08.599Z</time></trkpt><trkpt lat="44.855495" lon="9.6282433"><ele>235.0</ele><time>2026-04-06T16:14:09.599Z</time></trkpt><trkpt lat="44.8556317" lon="9.6284017"><ele>235.0</ele><time>2026-04-06T16:14:10.602Z</time></trkpt><trkpt lat="44.8557667" lon="9.6285567"><ele>235.0</ele><time>2026-04-06T16:14:11.604Z</time></trkpt><trkpt lat="44.8558983" lon="9.6287067"><ele>235.0</ele><time>2026-04-06T16:14:12.602Z</time></trkpt><trkpt lat="44.856025" lon="9.6288517"><ele>233.66666666666666</ele><time>2026-04-06T16:14:13.601Z</time></trkpt><trkpt lat="44.8561517" lon="9.628995"><ele>232.33333333333331</ele><time>2026-04-06T16:14:14.604Z</time></trkpt><trkpt lat="44.8562717" lon="9.629135"><ele>231.0</ele><time>2026-04-06T16:14:15.601Z</time></trkpt><trkpt lat="44.856385" lon="9.6292717"><ele>231.0</ele><time>2026-04-06T16:14:16.599Z</time></trkpt><trkpt lat="44.8564983" lon="9.629405"><ele>231.0</ele><time>2026-04-06T16:14:17.599Z</time></trkpt><trkpt lat="44.85661" lon="9.6295333"><ele>231.0</ele><time>2026-04-06T16:14:18.599Z</time></trkpt><trkpt lat="44.85672" lon="9.62966"><ele>231.0</ele><time>2026-04-06T16:14:19.6Z</time></trkpt><trkpt lat="44.8568317" lon="9.6297933"><ele>231.66666666666669</ele><time>2026-04-06T16:14:20.601Z</time></trkpt><trkpt lat="44.8569467" lon="9.62993"><ele>232.33333333333334</ele><time>2026-04-06T16:14:21.599Z</time></trkpt><trkpt lat="44.8570633" lon="9.6300717"><ele>233.0</ele><time>2026-04-06T16:14:22.601Z</time></trkpt><trkpt lat="44.857185" lon="9.6302183"><ele>233.66666666666669</ele><time>2026-04-06T16:14:23.6Z</time></trkpt><trkpt lat="44.85731" lon="9.6303733"><ele>234.33333333333331</ele><time>2026-04-06T16:14:24.601Z</time></trkpt><trkpt lat="44.8574367" lon="9.63053"><ele>235.0</ele><time>2026-04-06T16:14:25.6Z</time></trkpt><trkpt lat="44.8575567" lon="9.6306883"><ele>234.0</ele><time>2026-04-06T16:14:26.601Z</time></trkpt><trkpt lat="44.8576683" lon="9.6308417"><ele>233.0</ele><time>2026-04-06T16:14:27.601Z</time></trkpt><trkpt lat="44.857775" lon="9.6309917"><ele>232.0</ele><time>2026-04-06T16:14:28.601Z</time></trkpt><trkpt lat="44.8578767" lon="9.631135"><ele>232.75</ele><time>2026-04-06T16:14:29.603Z</time></trkpt><trkpt lat="44.8579717" lon="9.6312683"><ele>233.5</ele><time>2026-04-06T16:14:30.602Z</time></trkpt><trkpt lat="44.8580667" lon="9.6313983"><ele>234.25</ele><time>2026-04-06T16:14:31.599Z</time></trkpt><trkpt lat="44.8581617" lon="9.6315283"><ele>235.0</ele><time>2026-04-06T16:14:32.603Z</time></trkpt><trkpt lat="44.8582567" lon="9.6316583"><ele>235.0</ele><time>2026-04-06T16:14:33.599Z</time></trkpt><trkpt lat="44.8583483" lon="9.6317833"><ele>235.0</ele><time>2026-04-06T16:14:34.601Z</time></trkpt><trkpt lat="44.8584367" lon="9.6319033"><ele>235.0</ele><time>2026-04-06T16:14:35.599Z</time></trkpt><trkpt lat="44.8585217" lon="9.6320217"><ele>235.0</ele><time>2026-04-06T16:14:36.601Z</time></trkpt><trkpt lat="44.8586133" lon="9.6321433"><ele>233.25</ele><time>2026-04-06T16:14:37.6Z</time></trkpt><trkpt lat="44.858715" lon="9.6322717"><ele>231.5</ele><time>2026-04-06T16:14:38.602Z</time></trkpt><trkpt lat="44.8588283" lon="9.6323967"><ele>229.75</ele><time>2026-04-06T16:14:39.601Z</time></trkpt><trkpt lat="44.85895" lon="9.6325117"><ele>228.0</ele><time>2026-04-06T16:14:40.601Z</time></trkpt><trkpt lat="44.8590767" lon="9.6326167"><ele>228.0</ele><time>2026-04-06T16:14:41.601Z</time></trkpt><trkpt lat="44.8592083" lon="9.632705"><ele>228.0</ele><time>2026-04-06T16:14:42.601Z</time></trkpt><trkpt lat="44.8593417" lon="9.63278"><ele>228.0</ele><time>2026-04-06T16:14:43.602Z</time></trkpt><trkpt lat="44.8594783" lon="9.632845"><ele>228.0</ele><time>2026-04-06T16:14:44.601Z</time></trkpt><trkpt lat="44.8596233" lon="9.6329033"><ele>227.33333333333331</ele><time>2026-04-06T16:14:45.601Z</time></trkpt><trkpt lat="44.8597733" lon="9.6329533"><ele>226.66666666666666</ele><time>2026-04-06T16:14:46.6Z</time></trkpt><trkpt lat="44.8599283" lon="9.6329967"><ele>226.0</ele><time>2026-04-06T16:14:47.601Z</time></trkpt><trkpt lat="44.8600867" lon="9.63304"><ele>224.66666666666666</ele><time>2026-04-06T16:14:48.601Z</time></trkpt><trkpt lat="44.8602467" lon="9.6330833"><ele>223.33333333333331</ele><time>2026-04-06T16:14:49.602Z</time></trkpt><trkpt lat="44.8604033" lon="9.6331283"><ele>222.0</ele><time>2026-04-06T16:14:50.6Z</time></trkpt><trkpt lat="44.860555" lon="9.633175"><ele>222.0</ele><time>2026-04-06T16:14:51.598Z</time></trkpt><trkpt lat="44.8607" lon="9.6332267"><ele>222.0</ele><time>2026-04-06T16:14:52.6Z</time></trkpt><trkpt lat="44.8608383" lon="9.6332817"><ele>222.0</ele><time>2026-04-06T16:14:53.603Z</time></trkpt><trkpt lat="44.8609717" lon="9.633345"><ele>222.0</ele><time>2026-04-06T16:14:54.602Z</time></trkpt><trkpt lat="44.861095" lon="9.63342"><ele>221.75</ele><time>2026-04-06T16:14:55.603Z</time></trkpt><trkpt lat="44.8612033" lon="9.6335117"><ele>221.5</ele><time>2026-04-06T16:14:56.603Z</time></trkpt><trkpt lat="44.8613033" lon="9.633615"><ele>221.25</ele><time>2026-04-06T16:14:57.601Z</time></trkpt><trkpt lat="44.8613933" lon="9.6337267"><ele>221.0</ele><time>2026-04-06T16:14:58.6Z</time></trkpt><trkpt lat="44.861485" lon="9.6338517"><ele>221.0</ele><time>2026-04-06T16:14:59.601Z</time></trkpt><trkpt lat="44.861585" lon="9.6340033"><ele>221.0</ele><time>2026-04-06T16:15:00.601Z</time></trkpt><trkpt lat="44.86169" lon="9.6341883"><ele>221.0</ele><time>2026-04-06T16:15:01.6Z</time></trkpt><trkpt lat="44.8617883" lon="9.6343917"><ele>219.33333333333334</ele><time>2026-04-06T16:15:02.601Z</time></trkpt><trkpt lat="44.861875" lon="9.6345933"><ele>217.66666666666669</ele><time>2026-04-06T16:15:03.601Z</time></trkpt><trkpt lat="44.8619533" lon="9.63478"><ele>216.0</ele><time>2026-04-06T16:15:04.601Z</time></trkpt><trkpt lat="44.86203" lon="9.63496"><ele>216.0</ele><time>2026-04-06T16:15:05.599Z</time></trkpt><trkpt lat="44.8621033" lon="9.6351367"><ele>216.0</ele><time>2026-04-06T16:15:06.601Z</time></trkpt><trkpt lat="44.8621767" lon="9.6353067"><ele>216.0</ele><time>2026-04-06T16:15:07.6Z</time></trkpt><trkpt lat="44.8622467" lon="9.635465"><ele>216.0</ele><time>2026-04-06T16:15:08.6Z</time></trkpt><trkpt lat="44.862315" lon="9.63562"><ele>217.0</ele><time>2026-04-06T16:15:09.601Z</time></trkpt><trkpt lat="44.8623833" lon="9.635775"><ele>218.0</ele><time>2026-04-06T16:15:10.601Z</time></trkpt><trkpt lat="44.8624517" lon="9.6359333"><ele>219.0</ele><time>2026-04-06T16:15:11.601Z</time></trkpt><trkpt lat="44.8625217" lon="9.6360883"><ele>220.0</ele><time>2026-04-06T16:15:12.602Z</time></trkpt><trkpt lat="44.8625983" lon="9.63623"><ele>219.5</ele><time>2026-04-06T16:15:13.601Z</time></trkpt><trkpt lat="44.8626817" lon="9.636355"><ele>219.0</ele><time>2026-04-06T16:15:14.601Z</time></trkpt><trkpt lat="44.862765" lon="9.636465"><ele>218.5</ele><time>2026-04-06T16:15:15.6Z</time></trkpt><trkpt lat="44.8628467" lon="9.636565"><ele>218.0</ele><time>2026-04-06T16:15:16.6Z</time></trkpt><trkpt lat="44.86293" lon="9.6366667"><ele>218.0</ele><time>2026-04-06T16:15:17.602Z</time></trkpt><trkpt lat="44.863015" lon="9.6367717"><ele>218.0</ele><time>2026-04-06T16:15:18.601Z</time></trkpt><trkpt lat="44.8631017" lon="9.636875"><ele>218.0</ele><time>2026-04-06T16:15:19.6Z</time></trkpt><trkpt lat="44.8631917" lon="9.6369783"><ele>218.0</ele><time>2026-04-06T16:15:20.602Z</time></trkpt><trkpt lat="44.8632817" lon="9.6370833"><ele>218.25</ele><time>2026-04-06T16:15:21.6Z</time></trkpt><trkpt lat="44.8633717" lon="9.6371867"><ele>218.5</ele><time>2026-04-06T16:15:22.599Z</time></trkpt><trkpt lat="44.86346" lon="9.63729"><ele>218.75</ele><time>2026-04-06T16:15:23.6Z</time></trkpt><trkpt lat="44.86355" lon="9.63739"><ele>219.0</ele><time>2026-04-06T16:15:24.601Z</time></trkpt><trkpt lat="44.8636367" lon="9.6374867"><ele>218.25</ele><time>2026-04-06T16:15:25.601Z</time></trkpt><trkpt lat="44.86372" lon="9.6375867"><ele>217.5</ele><time>2026-04-06T16:15:26.6Z</time></trkpt><trkpt lat="44.863805" lon="9.63769"><ele>216.75</ele><time>2026-04-06T16:15:27.6Z</time></trkpt><trkpt lat="44.8638933" lon="9.6377967"><ele>216.0</ele><time>2026-04-06T16:15:28.6Z</time></trkpt><trkpt lat="44.863985" lon="9.6379067"><ele>216.0</ele><time>2026-04-06T16:15:29.6Z</time></trkpt><trkpt lat="44.8640733" lon="9.638015"><ele>216.0</ele><time>2026-04-06T16:15:30.6Z</time></trkpt><trkpt lat="44.864165" lon="9.638125"><ele>216.0</ele><time>2026-04-06T16:15:31.602Z</time></trkpt><trkpt lat="44.8642517" lon="9.63824"><ele>216.0</ele><time>2026-04-06T16:15:32.602Z</time></trkpt><trkpt lat="44.8643383" lon="9.6383583"><ele>215.8</ele><time>2026-04-06T16:15:33.601Z</time></trkpt><trkpt lat="44.8644233" lon="9.6384717"><ele>215.60000000000002</ele><time>2026-04-06T16:15:34.6Z</time></trkpt><trkpt lat="44.8645033" lon="9.6385817"><ele>215.4</ele><time>2026-04-06T16:15:35.599Z</time></trkpt><trkpt lat="44.8645817" lon="9.6386933"><ele>215.2</ele><time>2026-04-06T16:15:36.601Z</time></trkpt><trkpt lat="44.864655" lon="9.6388033"><ele>215.0</ele><time>2026-04-06T16:15:37.601Z</time></trkpt><trkpt lat="44.8647317" lon="9.6389133"><ele>215.0</ele><time>2026-04-06T16:15:38.601Z</time></trkpt><trkpt lat="44.864805" lon="9.6390267"><ele>215.0</ele><time>2026-04-06T16:15:39.599Z</time></trkpt><trkpt lat="44.86488" lon="9.6391383"><ele>215.0</ele><time>2026-04-06T16:15:40.599Z</time></trkpt><trkpt lat="44.8649583" lon="9.63925"><ele>215.0</ele><time>2026-04-06T16:15:41.599Z</time></trkpt><trkpt lat="44.865035" lon="9.63936"><ele>215.0</ele><time>2026-04-06T16:15:42.601Z</time></trkpt><trkpt lat="44.8651083" lon="9.6394683"><ele>215.2</ele><time>2026-04-06T16:15:43.602Z</time></trkpt><trkpt lat="44.8651783" lon="9.6395717"><ele>215.4</ele><time>2026-04-06T16:15:44.6Z</time></trkpt><trkpt lat="44.8652433" lon="9.6396683"><ele>215.60000000000002</ele><time>2026-04-06T16:15:45.6Z</time></trkpt><trkpt lat="44.8653083" lon="9.6397617"><ele>215.8</ele><time>2026-04-06T16:15:46.6Z</time></trkpt><trkpt lat="44.8653717" lon="9.639855"><ele>216.0</ele><time>2026-04-06T16:15:47.601Z</time></trkpt><trkpt lat="44.865435" lon="9.63995"><ele>216.0</ele><time>2026-04-06T16:15:48.601Z</time></trkpt><trkpt lat="44.8654967" lon="9.6400467"><ele>216.00000000000003</ele><time>2026-04-06T16:15:49.601Z</time></trkpt><trkpt lat="44.8655617" lon="9.6401433"><ele>216.00000000000003</ele><time>2026-04-06T16:15:50.601Z</time></trkpt><trkpt lat="44.865635" lon="9.6402467"><ele>216.0</ele><time>2026-04-06T16:15:51.6Z</time></trkpt><trkpt lat="44.8657183" lon="9.6403483"><ele>216.0</ele><time>2026-04-06T16:15:52.6Z</time></trkpt><trkpt lat="44.86581" lon="9.640445"><ele>216.0</ele><time>2026-04-06T16:15:53.601Z</time></trkpt><trkpt lat="44.86591" lon="9.640535"><ele>216.0</ele><time>2026-04-06T16:15:54.6Z</time></trkpt><trkpt lat="44.8660167" lon="9.6406117"><ele>216.0</ele><time>2026-04-06T16:15:55.602Z</time></trkpt><trkpt lat="44.8661333" lon="9.6406717"><ele>216.0</ele><time>2026-04-06T16:15:56.602Z</time></trkpt><trkpt lat="44.8662533" lon="9.6407133"><ele>215.75</ele><time>2026-04-06T16:15:57.599Z</time></trkpt><trkpt lat="44.8663767" lon="9.6407383"><ele>215.5</ele><time>2026-04-06T16:15:58.6Z</time></trkpt><trkpt lat="44.8665017" lon="9.640745"><ele>215.25</ele><time>2026-04-06T16:15:59.6Z</time></trkpt><trkpt lat="44.8666267" lon="9.6407333"><ele>215.0</ele><time>2026-04-06T16:16:00.602Z</time></trkpt><trkpt lat="44.8667583" lon="9.6406967"><ele>215.0</ele><time>2026-04-06T16:16:01.601Z</time></trkpt><trkpt lat="44.866895" lon="9.6406383"><ele>215.0</ele><time>2026-04-06T16:16:02.601Z</time></trkpt><trkpt lat="44.86703" lon="9.64057"><ele>215.0</ele><time>2026-04-06T16:16:03.6Z</time></trkpt><trkpt lat="44.867165" lon="9.6404983"><ele>215.0</ele><time>2026-04-06T16:16:04.602Z</time></trkpt><trkpt lat="44.8673" lon="9.6404267"><ele>215.0</ele><time>2026-04-06T16:16:05.601Z</time></trkpt><trkpt lat="44.8674367" lon="9.64036"><ele>215.0</ele><time>2026-04-06T16:16:06.601Z</time></trkpt><trkpt lat="44.86758" lon="9.6403"><ele>215.0</ele><time>2026-04-06T16:16:07.6Z</time></trkpt><trkpt lat="44.867725" lon="9.640255"><ele>215.0</ele><time>2026-04-06T16:16:08.6Z</time></trkpt><trkpt lat="44.867875" lon="9.64023"><ele>214.5</ele><time>2026-04-06T16:16:09.6Z</time></trkpt><trkpt lat="44.8680217" lon="9.6402267"><ele>214.0</ele><time>2026-04-06T16:16:10.599Z</time></trkpt><trkpt lat="44.8681683" lon="9.6402367"><ele>213.5</ele><time>2026-04-06T16:16:11.601Z</time></trkpt><trkpt lat="44.8683133" lon="9.640265"><ele>213.0</ele><time>2026-04-06T16:16:12.599Z</time></trkpt><trkpt lat="44.8684567" lon="9.6403067"><ele>212.66666666666669</ele><time>2026-04-06T16:16:13.599Z</time></trkpt><trkpt lat="44.8686083" lon="9.6403533"><ele>212.33333333333334</ele><time>2026-04-06T16:16:14.601Z</time></trkpt><trkpt lat="44.868765" lon="9.6404"><ele>212.0</ele><time>2026-04-06T16:16:15.601Z</time></trkpt><trkpt lat="44.86893" lon="9.6404533"><ele>212.0</ele><time>2026-04-06T16:16:16.6Z</time></trkpt><trkpt lat="44.8691" lon="9.6405067"><ele>212.0</ele><time>2026-04-06T16:16:17.599Z</time></trkpt><trkpt lat="44.8692683" lon="9.6405583"><ele>212.0</ele><time>2026-04-06T16:16:18.6Z</time></trkpt><trkpt lat="44.869435" lon="9.6406117"><ele>211.33333333333334</ele><time>2026-04-06T16:16:19.601Z</time></trkpt><trkpt lat="44.8695983" lon="9.640665"><ele>210.66666666666669</ele><time>2026-04-06T16:16:20.602Z</time></trkpt><trkpt lat="44.8697617" lon="9.64072"><ele>210.0</ele><time>2026-04-06T16:16:21.601Z</time></trkpt><trkpt lat="44.8699233" lon="9.6407783"><ele>210.0</ele><time>2026-04-06T16:16:22.601Z</time></trkpt><trkpt lat="44.8700867" lon="9.640845"><ele>210.0</ele><time>2026-04-06T16:16:23.6Z</time></trkpt><trkpt lat="44.870245" lon="9.6409267"><ele>210.0</ele><time>2026-04-06T16:16:24.601Z</time></trkpt><trkpt lat="44.870395" lon="9.6410167"><ele>209.66666666666669</ele><time>2026-04-06T16:16:25.6Z</time></trkpt><trkpt lat="44.8705367" lon="9.641115"><ele>209.33333333333334</ele><time>2026-04-06T16:16:26.601Z</time></trkpt><trkpt lat="44.8706717" lon="9.6412217"><ele>209.0</ele><time>2026-04-06T16:16:27.602Z</time></trkpt><trkpt lat="44.8708" lon="9.641335"><ele>209.0</ele><time>2026-04-06T16:16:28.601Z</time></trkpt><trkpt lat="44.8709267" lon="9.6414583"><ele>209.0</ele><time>2026-04-06T16:16:29.599Z</time></trkpt><trkpt lat="44.8710533" lon="9.6415917"><ele>209.0</ele><time>2026-04-06T16:16:30.6Z</time></trkpt><trkpt lat="44.87118" lon="9.6417333"><ele>208.0</ele><time>2026-04-06T16:16:31.6Z</time></trkpt><trkpt lat="44.8713" lon="9.64189"><ele>207.0</ele><time>2026-04-06T16:16:32.601Z</time></trkpt><trkpt lat="44.8714183" lon="9.6420517"><ele>206.0</ele><time>2026-04-06T16:16:33.6Z</time></trkpt><trkpt lat="44.87154" lon="9.642215"><ele>206.0</ele><time>2026-04-06T16:16:34.601Z</time></trkpt><trkpt lat="44.87166" lon="9.64238"><ele>206.0</ele><time>2026-04-06T16:16:35.599Z</time></trkpt><trkpt lat="44.87178" lon="9.6425467"><ele>206.0</ele><time>2026-04-06T16:16:36.6Z</time></trkpt><trkpt lat="44.8718917" lon="9.6427083"><ele>205.5</ele><time>2026-04-06T16:16:37.6Z</time></trkpt><trkpt lat="44.8719983" lon="9.6428583"><ele>205.0</ele><time>2026-04-06T16:16:38.6Z</time></trkpt><trkpt lat="44.8720983" lon="9.6429983"><ele>204.5</ele><time>2026-04-06T16:16:39.6Z</time></trkpt><trkpt lat="44.8721967" lon="9.6431283"><ele>204.0</ele><time>2026-04-06T16:16:40.601Z</time></trkpt><trkpt lat="44.8722883" lon="9.6432517"><ele>204.0</ele><time>2026-04-06T16:16:41.601Z</time></trkpt><trkpt lat="44.8723767" lon="9.64337"><ele>204.0</ele><time>2026-04-06T16:16:42.601Z</time></trkpt><trkpt lat="44.8724567" lon="9.6434833"><ele>204.0</ele><time>2026-04-06T16:16:43.601Z</time></trkpt><trkpt lat="44.8725267" lon="9.643585"><ele>204.0</ele><time>2026-04-06T16:16:44.601Z</time></trkpt><trkpt lat="44.8725733" lon="9.6436717"><ele>204.0</ele><time>2026-04-06T16:16:45.599Z</time></trkpt><trkpt lat="44.872595" lon="9.6438033"><ele>204.79999999999998</ele><time>2026-04-06T16:16:47.6Z</time></trkpt><trkpt lat="44.8725517" lon="9.6439217"><ele>205.6</ele><time>2026-04-06T16:16:50.602Z</time></trkpt><trkpt lat="44.87252" lon="9.6440083"><ele>206.4</ele><time>2026-04-06T16:16:51.6Z</time></trkpt><trkpt lat="44.872485" lon="9.6441117"><ele>207.2</ele><time>2026-04-06T16:16:52.599Z</time></trkpt><trkpt lat="44.8724433" lon="9.6442317"><ele>208.0</ele><time>2026-04-06T16:16:53.602Z</time></trkpt><trkpt lat="44.8723983" lon="9.6443783"><ele>207.5</ele><time>2026-04-06T16:16:54.601Z</time></trkpt><trkpt lat="44.872365" lon="9.6445567"><ele>207.0</ele><time>2026-04-06T16:16:55.602Z</time></trkpt><trkpt lat="44.87234" lon="9.6447617"><ele>206.5</ele><time>2026-04-06T16:16:56.601Z</time></trkpt><trkpt lat="44.872315" lon="9.6449883"><ele>206.0</ele><time>2026-04-06T16:16:57.6Z</time></trkpt><trkpt lat="44.8722867" lon="9.645235"><ele>205.66666666666669</ele><time>2026-04-06T16:16:58.601Z</time></trkpt><trkpt lat="44.872255" lon="9.6454883"><ele>205.33333333333331</ele><time>2026-04-06T16:16:59.601Z</time></trkpt><trkpt lat="44.8722233" lon="9.6457333"><ele>205.0</ele><time>2026-04-06T16:17:00.602Z</time></trkpt><trkpt lat="44.87219" lon="9.645965"><ele>204.33333333333331</ele><time>2026-04-06T16:17:01.6Z</time></trkpt><trkpt lat="44.8721517" lon="9.6461883"><ele>203.66666666666669</ele><time>2026-04-06T16:17:02.601Z</time></trkpt><trkpt lat="44.8721033" lon="9.6464117"><ele>203.0</ele><time>2026-04-06T16:17:03.602Z</time></trkpt><trkpt lat="44.872035" lon="9.6466417"><ele>203.0</ele><time>2026-04-06T16:17:04.6Z</time></trkpt><trkpt lat="44.8719583" lon="9.6468867"><ele>203.0</ele><time>2026-04-06T16:17:05.6Z</time></trkpt><trkpt lat="44.8718867" lon="9.6471483"><ele>203.0</ele><time>2026-04-06T16:17:06.6Z</time></trkpt><trkpt lat="44.8718333" lon="9.6474333"><ele>203.0</ele><time>2026-04-06T16:17:07.599Z</time></trkpt><trkpt lat="44.8717917" lon="9.6477283"><ele>203.0</ele><time>2026-04-06T16:17:08.599Z</time></trkpt><trkpt lat="44.87176" lon="9.6480133"><ele>203.0</ele><time>2026-04-06T16:17:09.6Z</time></trkpt><trkpt lat="44.87173" lon="9.6482817"><ele>204.0</ele><time>2026-04-06T16:17:10.601Z</time></trkpt><trkpt lat="44.8717033" lon="9.648535"><ele>205.0</ele><time>2026-04-06T16:17:11.601Z</time></trkpt><trkpt lat="44.8716883" lon="9.6487833"><ele>206.0</ele><time>2026-04-06T16:17:12.6Z</time></trkpt><trkpt lat="44.8716917" lon="9.649035"><ele>206.0</ele><time>2026-04-06T16:17:13.601Z</time></trkpt><trkpt lat="44.8717183" lon="9.649285"><ele>206.0</ele><time>2026-04-06T16:17:14.603Z</time></trkpt><trkpt lat="44.8717683" lon="9.649535"><ele>206.0</ele><time>2026-04-06T16:17:15.601Z</time></trkpt><trkpt lat="44.8718417" lon="9.6497833"><ele>206.0</ele><time>2026-04-06T16:17:16.599Z</time></trkpt><trkpt lat="44.871935" lon="9.650035"><ele>206.0</ele><time>2026-04-06T16:17:17.603Z</time></trkpt><trkpt lat="44.8720367" lon="9.6502933"><ele>206.0</ele><time>2026-04-06T16:17:18.603Z</time></trkpt><trkpt lat="44.87214" lon="9.65056"><ele>206.33333333333334</ele><time>2026-04-06T16:17:19.6Z</time></trkpt><trkpt lat="44.8722467" lon="9.6508333"><ele>206.66666666666669</ele><time>2026-04-06T16:17:20.603Z</time></trkpt><trkpt lat="44.8723567" lon="9.6511067"><ele>207.0</ele><time>2026-04-06T16:17:21.601Z</time></trkpt><trkpt lat="44.8724667" lon="9.65138"><ele>207.33333333333331</ele><time>2026-04-06T16:17:22.601Z</time></trkpt><trkpt lat="44.8725767" lon="9.651655"><ele>207.66666666666666</ele><time>2026-04-06T16:17:23.601Z</time></trkpt><trkpt lat="44.8726867" lon="9.6519317"><ele>208.0</ele><time>2026-04-06T16:17:24.601Z</time></trkpt><trkpt lat="44.872795" lon="9.6522067"><ele>208.33333333333331</ele><time>2026-04-06T16:17:25.6Z</time></trkpt><trkpt lat="44.8729033" lon="9.6524817"><ele>208.66666666666669</ele><time>2026-04-06T16:17:26.6Z</time></trkpt><trkpt lat="44.873015" lon="9.6527533"><ele>209.0</ele><time>2026-04-06T16:17:27.6Z</time></trkpt><trkpt lat="44.8731317" lon="9.6530183"><ele>209.0</ele><time>2026-04-06T16:17:28.602Z</time></trkpt><trkpt lat="44.8732617" lon="9.6532733"><ele>209.0</ele><time>2026-04-06T16:17:29.6Z</time></trkpt><trkpt lat="44.8734083" lon="9.6535167"><ele>209.0</ele><time>2026-04-06T16:17:30.6Z</time></trkpt><trkpt lat="44.87357" lon="9.6537583"><ele>208.0</ele><time>2026-04-06T16:17:31.601Z</time></trkpt><trkpt lat="44.8737417" lon="9.6540033"><ele>207.0</ele><time>2026-04-06T16:17:32.6Z</time></trkpt><trkpt lat="44.87392" lon="9.65425"><ele>207.0</ele><time>2026-04-06T16:17:33.6Z</time></trkpt><trkpt lat="44.8740967" lon="9.6544933"><ele>207.0</ele><time>2026-04-06T16:17:34.601Z</time></trkpt><trkpt lat="44.8742667" lon="9.6547317"><ele>204.5</ele><time>2026-04-06T16:17:35.599Z</time></trkpt><trkpt lat="44.874435" lon="9.6549667"><ele>202.0</ele><time>2026-04-06T16:17:36.602Z</time></trkpt><trkpt lat="44.8746017" lon="9.6551967"><ele>203.0</ele><time>2026-04-06T16:17:37.601Z</time></trkpt><trkpt lat="44.8747683" lon="9.6554283"><ele>204.0</ele><time>2026-04-06T16:17:38.601Z</time></trkpt><trkpt lat="44.874935" lon="9.6556683"><ele>204.0</ele><time>2026-04-06T16:17:39.6Z</time></trkpt><trkpt lat="44.8751" lon="9.6559233"><ele>204.0</ele><time>2026-04-06T16:17:40.6Z</time></trkpt><trkpt lat="44.8752617" lon="9.6561883"><ele>202.5</ele><time>2026-04-06T16:17:41.604Z</time></trkpt><trkpt lat="44.8754217" lon="9.6564583"><ele>201.0</ele><time>2026-04-06T16:17:42.601Z</time></trkpt><trkpt lat="44.8755833" lon="9.65673"><ele>200.0</ele><time>2026-04-06T16:17:43.6Z</time></trkpt><trkpt lat="44.875745" lon="9.6570017"><ele>199.0</ele><time>2026-04-06T16:17:44.601Z</time></trkpt><trkpt lat="44.875905" lon="9.657265"><ele>198.0</ele><time>2026-04-06T16:17:45.601Z</time></trkpt><trkpt lat="44.876055" lon="9.6575167"><ele>197.0</ele><time>2026-04-06T16:17:46.6Z</time></trkpt><trkpt lat="44.8762" lon="9.6577617"><ele>197.0</ele><time>2026-04-06T16:17:47.602Z</time></trkpt><trkpt lat="44.8763417" lon="9.6580067"><ele>197.0</ele><time>2026-04-06T16:17:48.6Z</time></trkpt><trkpt lat="44.8764783" lon="9.6582533"><ele>197.0</ele><time>2026-04-06T16:17:49.601Z</time></trkpt><trkpt lat="44.87661" lon="9.658495"><ele>196.66666666666669</ele><time>2026-04-06T16:17:50.601Z</time></trkpt><trkpt lat="44.8767383" lon="9.6587267"><ele>196.33333333333331</ele><time>2026-04-06T16:17:51.6Z</time></trkpt><trkpt lat="44.8768617" lon="9.6589483"><ele>196.0</ele><time>2026-04-06T16:17:52.6Z</time></trkpt><trkpt lat="44.8769833" lon="9.6591633"><ele>196.0</ele><time>2026-04-06T16:17:53.601Z</time></trkpt><trkpt lat="44.877105" lon="9.6593667"><ele>196.0</ele><time>2026-04-06T16:17:54.601Z</time></trkpt><trkpt lat="44.8772283" lon="9.65955"><ele>196.0</ele><time>2026-04-06T16:17:55.601Z</time></trkpt><trkpt lat="44.8773567" lon="9.6597117"><ele>196.0</ele><time>2026-04-06T16:17:56.601Z</time></trkpt><trkpt lat="44.877485" lon="9.6598567"><ele>196.0</ele><time>2026-04-06T16:17:57.6Z</time></trkpt><trkpt lat="44.8776117" lon="9.6599833"><ele>196.0</ele><time>2026-04-06T16:17:58.601Z</time></trkpt><trkpt lat="44.8777317" lon="9.6601067"><ele>195.0</ele><time>2026-04-06T16:17:59.601Z</time></trkpt><trkpt lat="44.87785" lon="9.660235"><ele>194.0</ele><time>2026-04-06T16:18:00.601Z</time></trkpt><trkpt lat="44.8779683" lon="9.6603767"><ele>193.0</ele><time>2026-04-06T16:18:01.601Z</time></trkpt><trkpt lat="44.8781017" lon="9.6605167"><ele>193.0</ele><time>2026-04-06T16:18:02.601Z</time></trkpt><trkpt lat="44.878265" lon="9.660635"><ele>193.0</ele><time>2026-04-06T16:18:03.601Z</time></trkpt><trkpt lat="44.8784483" lon="9.6607383"><ele>193.0</ele><time>2026-04-06T16:18:04.6Z</time></trkpt><trkpt lat="44.8786383" lon="9.6608417"><ele>192.66666666666666</ele><time>2026-04-06T16:18:05.6Z</time></trkpt><trkpt lat="44.87883" lon="9.66094"><ele>192.33333333333331</ele><time>2026-04-06T16:18:06.601Z</time></trkpt><trkpt lat="44.8790133" lon="9.661035"><ele>192.0</ele><time>2026-04-06T16:18:07.6Z</time></trkpt><trkpt lat="44.8791867" lon="9.6611233"><ele>191.33333333333334</ele><time>2026-04-06T16:18:08.6Z</time></trkpt><trkpt lat="44.8793517" lon="9.6612033"><ele>190.66666666666669</ele><time>2026-04-06T16:18:09.598Z</time></trkpt><trkpt lat="44.8795117" lon="9.6612933"><ele>190.0</ele><time>2026-04-06T16:18:10.6Z</time></trkpt><trkpt lat="44.87967" lon="9.6614"><ele>190.0</ele><time>2026-04-06T16:18:11.602Z</time></trkpt><trkpt lat="44.87983" lon="9.6615233"><ele>190.0</ele><time>2026-04-06T16:18:12.6Z</time></trkpt><trkpt lat="44.8799967" lon="9.6616633"><ele>190.0</ele><time>2026-04-06T16:18:13.601Z</time></trkpt><trkpt lat="44.8801683" lon="9.6618067"><ele>190.0</ele><time>2026-04-06T16:18:14.6Z</time></trkpt><trkpt lat="44.8803383" lon="9.6619517"><ele>190.0</ele><time>2026-04-06T16:18:15.601Z</time></trkpt><trkpt lat="44.8805" lon="9.6620983"><ele>190.0</ele><time>2026-04-06T16:18:16.599Z</time></trkpt><trkpt lat="44.8806533" lon="9.6622483"><ele>190.0</ele><time>2026-04-06T16:18:17.6Z</time></trkpt><trkpt lat="44.880795" lon="9.6623983"><ele>190.0</ele><time>2026-04-06T16:18:18.601Z</time></trkpt><trkpt lat="44.8809233" lon="9.6625533"><ele>190.0</ele><time>2026-04-06T16:18:19.601Z</time></trkpt><trkpt lat="44.8810383" lon="9.6627133"><ele>189.33333333333334</ele><time>2026-04-06T16:18:20.6Z</time></trkpt><trkpt lat="44.8811317" lon="9.662885"><ele>188.66666666666666</ele><time>2026-04-06T16:18:21.601Z</time></trkpt><trkpt lat="44.8812067" lon="9.663075"><ele>188.0</ele><time>2026-04-06T16:18:22.601Z</time></trkpt><trkpt lat="44.881265" lon="9.6632767"><ele>188.0</ele><time>2026-04-06T16:18:23.601Z</time></trkpt><trkpt lat="44.8812933" lon="9.6634917"><ele>188.0</ele><time>2026-04-06T16:18:24.602Z</time></trkpt><trkpt lat="44.8812917" lon="9.6637167"><ele>188.0</ele><time>2026-04-06T16:18:25.601Z</time></trkpt><trkpt lat="44.8812617" lon="9.66395"><ele>187.66666666666666</ele><time>2026-04-06T16:18:26.601Z</time></trkpt><trkpt lat="44.8812033" lon="9.6641783"><ele>187.33333333333334</ele><time>2026-04-06T16:18:27.6Z</time></trkpt><trkpt lat="44.8811283" lon="9.6644017"><ele>187.0</ele><time>2026-04-06T16:18:28.599Z</time></trkpt><trkpt lat="44.8810433" lon="9.6646233"><ele>188.0</ele><time>2026-04-06T16:18:29.601Z</time></trkpt><trkpt lat="44.8809583" lon="9.6648367"><ele>189.0</ele><time>2026-04-06T16:18:30.6Z</time></trkpt><trkpt lat="44.880875" lon="9.6650433"><ele>190.0</ele><time>2026-04-06T16:18:31.601Z</time></trkpt><trkpt lat="44.880795" lon="9.665235"><ele>190.5</ele><time>2026-04-06T16:18:32.6Z</time></trkpt><trkpt lat="44.88072" lon="9.6654117"><ele>191.0</ele><time>2026-04-06T16:18:33.6Z</time></trkpt><trkpt lat="44.88065" lon="9.6655833"><ele>191.5</ele><time>2026-04-06T16:18:34.6Z</time></trkpt><trkpt lat="44.8805783" lon="9.665745"><ele>192.0</ele><time>2026-04-06T16:18:35.601Z</time></trkpt><trkpt lat="44.8805" lon="9.6658967"><ele>192.0</ele><time>2026-04-06T16:18:36.601Z</time></trkpt><trkpt lat="44.88041" lon="9.666035"><ele>192.0</ele><time>2026-04-06T16:18:37.599Z</time></trkpt><trkpt lat="44.8803033" lon="9.6661717"><ele>192.0</ele><time>2026-04-06T16:18:38.598Z</time></trkpt><trkpt lat="44.8801883" lon="9.6663133"><ele>192.0</ele><time>2026-04-06T16:18:39.601Z</time></trkpt><trkpt lat="44.8800733" lon="9.666455"><ele>192.25</ele><time>2026-04-06T16:18:40.6Z</time></trkpt><trkpt lat="44.8799617" lon="9.6665933"><ele>192.5</ele><time>2026-04-06T16:18:41.601Z</time></trkpt><trkpt lat="44.8798583" lon="9.6667267"><ele>192.75</ele><time>2026-04-06T16:18:42.6Z</time></trkpt><trkpt lat="44.8797583" lon="9.6668517"><ele>193.0</ele><time>2026-04-06T16:18:43.6Z</time></trkpt><trkpt lat="44.8796633" lon="9.6669683"><ele>192.25</ele><time>2026-04-06T16:18:44.6Z</time></trkpt><trkpt lat="44.8795783" lon="9.6670833"><ele>191.5</ele><time>2026-04-06T16:18:45.6Z</time></trkpt><trkpt lat="44.8795033" lon="9.6672117"><ele>190.75</ele><time>2026-04-06T16:18:46.599Z</time></trkpt><trkpt lat="44.87945" lon="9.6673667"><ele>190.0</ele><time>2026-04-06T16:18:47.598Z</time></trkpt><trkpt lat="44.8794267" lon="9.6675433"><ele>190.0</ele><time>2026-04-06T16:18:48.601Z</time></trkpt><trkpt lat="44.8794383" lon="9.6677383"><ele>190.0</ele><time>2026-04-06T16:18:49.601Z</time></trkpt><trkpt lat="44.8794717" lon="9.667945"><ele>190.0</ele><time>2026-04-06T16:18:50.6Z</time></trkpt><trkpt lat="44.8795133" lon="9.6681517"><ele>190.0</ele><time>2026-04-06T16:18:51.6Z</time></trkpt><trkpt lat="44.8795583" lon="9.66835"><ele>190.5</ele><time>2026-04-06T16:18:52.6Z</time></trkpt><trkpt lat="44.8796033" lon="9.66855"><ele>191.0</ele><time>2026-04-06T16:18:53.602Z</time></trkpt><trkpt lat="44.8796467" lon="9.668745"><ele>191.5</ele><time>2026-04-06T16:18:54.603Z</time></trkpt><trkpt lat="44.8796883" lon="9.6689283"><ele>192.0</ele><time>2026-04-06T16:18:55.603Z</time></trkpt><trkpt lat="44.8797283" lon="9.669105"><ele>192.5</ele><time>2026-04-06T16:18:56.601Z</time></trkpt><trkpt lat="44.8797667" lon="9.6692767"><ele>193.0</ele><time>2026-04-06T16:18:57.601Z</time></trkpt><trkpt lat="44.879805" lon="9.66945"><ele>193.5</ele><time>2026-04-06T16:18:58.601Z</time></trkpt><trkpt lat="44.8798417" lon="9.6696233"><ele>194.0</ele><time>2026-04-06T16:18:59.601Z</time></trkpt><trkpt lat="44.8798817" lon="9.6698"><ele>195.25</ele><time>2026-04-06T16:19:00.601Z</time></trkpt><trkpt lat="44.8799183" lon="9.6699683"><ele>196.5</ele><time>2026-04-06T16:19:01.602Z</time></trkpt><trkpt lat="44.879955" lon="9.6701333"><ele>197.75</ele><time>2026-04-06T16:19:02.601Z</time></trkpt><trkpt lat="44.879985" lon="9.6702933"><ele>199.0</ele><time>2026-04-06T16:19:03.601Z</time></trkpt><trkpt lat="44.8800183" lon="9.6704517"><ele>199.0</ele><time>2026-04-06T16:19:04.601Z</time></trkpt><trkpt lat="44.8800617" lon="9.6706033"><ele>199.0</ele><time>2026-04-06T16:19:05.601Z</time></trkpt><trkpt lat="44.88012" lon="9.6707417"><ele>199.0</ele><time>2026-04-06T16:19:06.599Z</time></trkpt><trkpt lat="44.8801967" lon="9.67086"><ele>199.0</ele><time>2026-04-06T16:19:07.6Z</time></trkpt><trkpt lat="44.8802933" lon="9.6709617"><ele>199.0</ele><time>2026-04-06T16:19:08.601Z</time></trkpt><trkpt lat="44.880395" lon="9.6710633"><ele>199.0</ele><time>2026-04-06T16:19:09.6Z</time></trkpt><trkpt lat="44.880495" lon="9.6711633"><ele>199.0</ele><time>2026-04-06T16:19:10.6Z</time></trkpt><trkpt lat="44.880585" lon="9.6712517"><ele>199.0</ele><time>2026-04-06T16:19:11.601Z</time></trkpt><trkpt lat="44.8806533" lon="9.6713183"><ele>199.0</ele><time>2026-04-06T16:19:12.6Z</time></trkpt><trkpt lat="44.8807417" lon="9.6714133"><ele>198.83333333333331</ele><time>2026-04-06T16:19:14.601Z</time></trkpt><trkpt lat="44.8808183" lon="9.67151"><ele>198.66666666666666</ele><time>2026-04-06T16:19:16.6Z</time></trkpt><trkpt lat="44.880865" lon="9.6715767"><ele>198.5</ele><time>2026-04-06T16:19:17.601Z</time></trkpt><trkpt lat="44.8809217" lon="9.6716583"><ele>198.33333333333331</ele><time>2026-04-06T16:19:18.599Z</time></trkpt><trkpt lat="44.8809917" lon="9.6717483"><ele>198.16666666666666</ele><time>2026-04-06T16:19:19.6Z</time></trkpt><trkpt lat="44.8810667" lon="9.6718433"><ele>198.0</ele><time>2026-04-06T16:19:20.599Z</time></trkpt><trkpt lat="44.8811467" lon="9.6719417"><ele>197.5</ele><time>2026-04-06T16:19:21.601Z</time></trkpt><trkpt lat="44.88124" lon="9.672045"><ele>197.0</ele><time>2026-04-06T16:19:22.599Z</time></trkpt><trkpt lat="44.8813467" lon="9.67216"><ele>196.5</ele><time>2026-04-06T16:19:23.601Z</time></trkpt><trkpt lat="44.8814617" lon="9.6722833"><ele>196.0</ele><time>2026-04-06T16:19:24.602Z</time></trkpt><trkpt lat="44.8815883" lon="9.6724183"><ele>196.0</ele><time>2026-04-06T16:19:25.602Z</time></trkpt><trkpt lat="44.8817283" lon="9.6725667"><ele>196.0</ele><time>2026-04-06T16:19:26.604Z</time></trkpt><trkpt lat="44.881875" lon="9.6727217"><ele>196.0</ele><time>2026-04-06T16:19:27.603Z</time></trkpt><trkpt lat="44.8820267" lon="9.67288"><ele>195.33333333333331</ele><time>2026-04-06T16:19:28.601Z</time></trkpt><trkpt lat="44.8821817" lon="9.6730417"><ele>194.66666666666669</ele><time>2026-04-06T16:19:29.603Z</time></trkpt><trkpt lat="44.88234" lon="9.673205"><ele>194.0</ele><time>2026-04-06T16:19:30.602Z</time></trkpt><trkpt lat="44.8824967" lon="9.67337"><ele>192.33333333333334</ele><time>2026-04-06T16:19:31.602Z</time></trkpt><trkpt lat="44.8826517" lon="9.6735317"><ele>190.66666666666669</ele><time>2026-04-06T16:19:32.603Z</time></trkpt><trkpt lat="44.882805" lon="9.67369"><ele>189.0</ele><time>2026-04-06T16:19:33.601Z</time></trkpt><trkpt lat="44.8829533" lon="9.6738467"><ele>189.0</ele><time>2026-04-06T16:19:34.601Z</time></trkpt><trkpt lat="44.8830933" lon="9.6740117"><ele>189.0</ele><time>2026-04-06T16:19:35.599Z</time></trkpt><trkpt lat="44.8832267" lon="9.6741817"><ele>189.0</ele><time>2026-04-06T16:19:36.6Z</time></trkpt><trkpt lat="44.883345" lon="9.6743517"><ele>188.33333333333334</ele><time>2026-04-06T16:19:37.6Z</time></trkpt><trkpt lat="44.8834583" lon="9.6745167"><ele>187.66666666666669</ele><time>2026-04-06T16:19:38.601Z</time></trkpt><trkpt lat="44.883565" lon="9.6746767"><ele>187.0</ele><time>2026-04-06T16:19:39.601Z</time></trkpt><trkpt lat="44.88367" lon="9.6748333"><ele>187.0</ele><time>2026-04-06T16:19:40.601Z</time></trkpt><trkpt lat="44.8837717" lon="9.674985"><ele>187.0</ele><time>2026-04-06T16:19:41.601Z</time></trkpt><trkpt lat="44.88387" lon="9.675125"><ele>187.0</ele><time>2026-04-06T16:19:42.599Z</time></trkpt><trkpt lat="44.8839633" lon="9.6752533"><ele>187.0</ele><time>2026-04-06T16:19:43.6Z</time></trkpt><trkpt lat="44.8840583" lon="9.67537"><ele>187.0</ele><time>2026-04-06T16:19:44.601Z</time></trkpt><trkpt lat="44.884155" lon="9.675475"><ele>187.0</ele><time>2026-04-06T16:19:45.598Z</time></trkpt><trkpt lat="44.8842583" lon="9.67557"><ele>187.0</ele><time>2026-04-06T16:19:46.6Z</time></trkpt><trkpt lat="44.88437" lon="9.67567"><ele>187.0</ele><time>2026-04-06T16:19:47.603Z</time></trkpt><trkpt lat="44.88449" lon="9.6757717"><ele>185.66666666666669</ele><time>2026-04-06T16:19:48.6Z</time></trkpt><trkpt lat="44.8846183" lon="9.6758767"><ele>184.33333333333334</ele><time>2026-04-06T16:19:49.6Z</time></trkpt><trkpt lat="44.8847517" lon="9.67599"><ele>183.0</ele><time>2026-04-06T16:19:50.601Z</time></trkpt><trkpt lat="44.88489" lon="9.676105"><ele>183.0</ele><time>2026-04-06T16:19:51.602Z</time></trkpt><trkpt lat="44.8850333" lon="9.6762233"><ele>183.0</ele><time>2026-04-06T16:19:52.6Z</time></trkpt><trkpt lat="44.88518" lon="9.6763483"><ele>183.0</ele><time>2026-04-06T16:19:53.601Z</time></trkpt><trkpt lat="44.88533" lon="9.6764767"><ele>182.33333333333334</ele><time>2026-04-06T16:19:54.601Z</time></trkpt><trkpt lat="44.8854867" lon="9.6766067"><ele>181.66666666666669</ele><time>2026-04-06T16:19:55.601Z</time></trkpt><trkpt lat="44.885645" lon="9.6767433"><ele>181.0</ele><time>2026-04-06T16:19:56.602Z</time></trkpt><trkpt lat="44.8858083" lon="9.6768817"><ele>180.0</ele><time>2026-04-06T16:19:57.598Z</time></trkpt><trkpt lat="44.8859733" lon="9.6770217"><ele>179.0</ele><time>2026-04-06T16:19:58.6Z</time></trkpt><trkpt lat="44.8861383" lon="9.67716"><ele>178.0</ele><time>2026-04-06T16:19:59.6Z</time></trkpt><trkpt lat="44.8863017" lon="9.6772967"><ele>178.0</ele><time>2026-04-06T16:20:00.6Z</time></trkpt><trkpt lat="44.8864633" lon="9.67743"><ele>178.0</ele><time>2026-04-06T16:20:01.6Z</time></trkpt><trkpt lat="44.886625" lon="9.6775633"><ele>178.0</ele><time>2026-04-06T16:20:02.601Z</time></trkpt><trkpt lat="44.8867867" lon="9.6776983"><ele>178.33333333333334</ele><time>2026-04-06T16:20:03.599Z</time></trkpt><trkpt lat="44.8869433" lon="9.67784"><ele>178.66666666666666</ele><time>2026-04-06T16:20:04.599Z</time></trkpt><trkpt lat="44.8870933" lon="9.677995"><ele>179.0</ele><time>2026-04-06T16:20:05.603Z</time></trkpt><trkpt lat="44.8872317" lon="9.678165"><ele>179.0</ele><time>2026-04-06T16:20:06.603Z</time></trkpt><trkpt lat="44.8873617" lon="9.6783583"><ele>179.0</ele><time>2026-04-06T16:20:07.601Z</time></trkpt><trkpt lat="44.8874833" lon="9.6785683"><ele>179.0</ele><time>2026-04-06T16:20:08.601Z</time></trkpt><trkpt lat="44.8875983" lon="9.6787983"><ele>178.33333333333331</ele><time>2026-04-06T16:20:09.6Z</time></trkpt><trkpt lat="44.887705" lon="9.6790433"><ele>177.66666666666666</ele><time>2026-04-06T16:20:10.6Z</time></trkpt><trkpt lat="44.8878033" lon="9.6793033"><ele>177.0</ele><time>2026-04-06T16:20:11.602Z</time></trkpt><trkpt lat="44.8878983" lon="9.6795733"><ele>176.0</ele><time>2026-04-06T16:20:12.6Z</time></trkpt><trkpt lat="44.8879933" lon="9.6798433"><ele>175.0</ele><time>2026-04-06T16:20:13.6Z</time></trkpt><trkpt lat="44.88809" lon="9.6801183"><ele>174.0</ele><time>2026-04-06T16:20:14.6Z</time></trkpt><trkpt lat="44.8881867" lon="9.6803917"><ele>174.0</ele><time>2026-04-06T16:20:15.603Z</time></trkpt><trkpt lat="44.8882817" lon="9.680665"><ele>174.0</ele><time>2026-04-06T16:20:16.6Z</time></trkpt><trkpt lat="44.8883767" lon="9.6809333"><ele>174.0</ele><time>2026-04-06T16:20:17.6Z</time></trkpt><trkpt lat="44.8884733" lon="9.6812"><ele>174.0</ele><time>2026-04-06T16:20:18.601Z</time></trkpt><trkpt lat="44.8885683" lon="9.6814633"><ele>174.0</ele><time>2026-04-06T16:20:19.599Z</time></trkpt><trkpt lat="44.888665" lon="9.6817267"><ele>174.0</ele><time>2026-04-06T16:20:20.602Z</time></trkpt><trkpt lat="44.88877" lon="9.68199"><ele>176.0</ele><time>2026-04-06T16:20:21.6Z</time></trkpt><trkpt lat="44.8888833" lon="9.6822517"><ele>178.0</ele><time>2026-04-06T16:20:22.599Z</time></trkpt><trkpt lat="44.8890083" lon="9.68251"><ele>180.0</ele><time>2026-04-06T16:20:23.6Z</time></trkpt><trkpt lat="44.889145" lon="9.6827683"><ele>177.0</ele><time>2026-04-06T16:20:24.601Z</time></trkpt><trkpt lat="44.88929" lon="9.6830283"><ele>174.0</ele><time>2026-04-06T16:20:25.601Z</time></trkpt><trkpt lat="44.8894383" lon="9.6832867"><ele>174.0</ele><time>2026-04-06T16:20:26.601Z</time></trkpt><trkpt lat="44.8895883" lon="9.683545"><ele>174.0</ele><time>2026-04-06T16:20:27.601Z</time></trkpt><trkpt lat="44.88974" lon="9.6838033"><ele>177.0</ele><time>2026-04-06T16:20:28.601Z</time></trkpt><trkpt lat="44.889895" lon="9.684065"><ele>180.0</ele><time>2026-04-06T16:20:29.6Z</time></trkpt><trkpt lat="44.89005" lon="9.68433"><ele>178.5</ele><time>2026-04-06T16:20:30.6Z</time></trkpt><trkpt lat="44.8902067" lon="9.6845967"><ele>177.0</ele><time>2026-04-06T16:20:31.6Z</time></trkpt><trkpt lat="44.8903633" lon="9.6848617"><ele>177.0</ele><time>2026-04-06T16:20:32.602Z</time></trkpt><trkpt lat="44.8905217" lon="9.685125"><ele>177.0</ele><time>2026-04-06T16:20:33.6Z</time></trkpt><trkpt lat="44.8906783" lon="9.6853867"><ele>177.0</ele><time>2026-04-06T16:20:34.601Z</time></trkpt><trkpt lat="44.8908333" lon="9.6856433"><ele>177.0</ele><time>2026-04-06T16:20:35.6Z</time></trkpt><trkpt lat="44.8909867" lon="9.6859"><ele>179.5</ele><time>2026-04-06T16:20:36.601Z</time></trkpt><trkpt lat="44.8911383" lon="9.6861517"><ele>182.0</ele><time>2026-04-06T16:20:37.602Z</time></trkpt><trkpt lat="44.8912917" lon="9.6864033"><ele>182.0</ele><time>2026-04-06T16:20:38.601Z</time></trkpt><trkpt lat="44.8914417" lon="9.6866583"><ele>182.0</ele><time>2026-04-06T16:20:39.601Z</time></trkpt><trkpt lat="44.8915883" lon="9.686915"><ele>183.33333333333331</ele><time>2026-04-06T16:20:40.6Z</time></trkpt><trkpt lat="44.8917283" lon="9.6871567"><ele>184.66666666666666</ele><time>2026-04-06T16:20:41.599Z</time></trkpt><trkpt lat="44.8918633" lon="9.6873833"><ele>186.0</ele><time>2026-04-06T16:20:42.6Z</time></trkpt><trkpt lat="44.891995" lon="9.6875967"><ele>183.66666666666666</ele><time>2026-04-06T16:20:43.599Z</time></trkpt><trkpt lat="44.89214" lon="9.68779"><ele>181.33333333333331</ele><time>2026-04-06T16:20:44.602Z</time></trkpt><trkpt lat="44.8923033" lon="9.6879483"><ele>179.0</ele><time>2026-04-06T16:20:45.6Z</time></trkpt><trkpt lat="44.8924733" lon="9.68807"><ele>177.33333333333331</ele><time>2026-04-06T16:20:46.602Z</time></trkpt><trkpt lat="44.8926417" lon="9.6881733"><ele>175.66666666666666</ele><time>2026-04-06T16:20:47.602Z</time></trkpt><trkpt lat="44.8927983" lon="9.688285"><ele>174.0</ele><time>2026-04-06T16:20:48.6Z</time></trkpt><trkpt lat="44.892945" lon="9.68843"><ele>174.33333333333334</ele><time>2026-04-06T16:20:49.601Z</time></trkpt><trkpt lat="44.8930817" lon="9.688625"><ele>174.66666666666669</ele><time>2026-04-06T16:20:50.601Z</time></trkpt><trkpt lat="44.893215" lon="9.6888533"><ele>175.0</ele><time>2026-04-06T16:20:51.6Z</time></trkpt><trkpt lat="44.8933483" lon="9.6890967"><ele>174.0</ele><time>2026-04-06T16:20:52.599Z</time></trkpt><trkpt lat="44.893485" lon="9.689345"><ele>173.0</ele><time>2026-04-06T16:20:53.6Z</time></trkpt><trkpt lat="44.893625" lon="9.6895933"><ele>172.0</ele><time>2026-04-06T16:20:54.6Z</time></trkpt><trkpt lat="44.8937633" lon="9.6898417"><ele>172.0</ele><time>2026-04-06T16:20:55.6Z</time></trkpt><trkpt lat="44.8938983" lon="9.69009"><ele>172.0</ele><time>2026-04-06T16:20:56.601Z</time></trkpt><trkpt lat="44.894035" lon="9.6903367"><ele>172.0</ele><time>2026-04-06T16:20:57.601Z</time></trkpt><trkpt lat="44.8941717" lon="9.6905833"><ele>172.0</ele><time>2026-04-06T16:20:58.6Z</time></trkpt><trkpt lat="44.8943033" lon="9.6908333"><ele>172.0</ele><time>2026-04-06T16:20:59.6Z</time></trkpt><trkpt lat="44.8944333" lon="9.69109"><ele>172.0</ele><time>2026-04-06T16:21:00.6Z</time></trkpt><trkpt lat="44.8945583" lon="9.6913517"><ele>172.0</ele><time>2026-04-06T16:21:01.6Z</time></trkpt><trkpt lat="44.8946817" lon="9.6916167"><ele>172.0</ele><time>2026-04-06T16:21:02.6Z</time></trkpt><trkpt lat="44.8948017" lon="9.6918867"><ele>176.5</ele><time>2026-04-06T16:21:03.601Z</time></trkpt><trkpt lat="44.894925" lon="9.692155"><ele>181.0</ele><time>2026-04-06T16:21:04.602Z</time></trkpt><trkpt lat="44.8950517" lon="9.6924233"><ele>175.0</ele><time>2026-04-06T16:21:05.601Z</time></trkpt><trkpt lat="44.8951917" lon="9.6926833"><ele>169.0</ele><time>2026-04-06T16:21:06.6Z</time></trkpt><trkpt lat="44.8953467" lon="9.6929317"><ele>169.0</ele><time>2026-04-06T16:21:07.602Z</time></trkpt><trkpt lat="44.8955167" lon="9.693165"><ele>169.0</ele><time>2026-04-06T16:21:08.6Z</time></trkpt><trkpt lat="44.8956917" lon="9.6933883"><ele>168.0</ele><time>2026-04-06T16:21:09.601Z</time></trkpt><trkpt lat="44.89587" lon="9.6936083"><ele>167.0</ele><time>2026-04-06T16:21:10.6Z</time></trkpt><trkpt lat="44.8960483" lon="9.6938317"><ele>167.0</ele><time>2026-04-06T16:21:11.602Z</time></trkpt><trkpt lat="44.896225" lon="9.69405"><ele>167.0</ele><time>2026-04-06T16:21:12.6Z</time></trkpt><trkpt lat="44.89639" lon="9.694265"><ele>165.33333333333331</ele><time>2026-04-06T16:21:13.604Z</time></trkpt><trkpt lat="44.8965417" lon="9.694495"><ele>163.66666666666666</ele><time>2026-04-06T16:21:14.601Z</time></trkpt><trkpt lat="44.8966817" lon="9.694745"><ele>162.0</ele><time>2026-04-06T16:21:15.601Z</time></trkpt><trkpt lat="44.8968183" lon="9.6950117"><ele>164.0</ele><time>2026-04-06T16:21:16.6Z</time></trkpt><trkpt lat="44.8969567" lon="9.6952883"><ele>166.0</ele><time>2026-04-06T16:21:17.603Z</time></trkpt><trkpt lat="44.8970967" lon="9.6955667"><ele>166.0</ele><time>2026-04-06T16:21:18.599Z</time></trkpt><trkpt lat="44.8972383" lon="9.695845"><ele>166.0</ele><time>2026-04-06T16:21:19.6Z</time></trkpt><trkpt lat="44.89738" lon="9.696125"><ele>169.0</ele><time>2026-04-06T16:21:20.601Z</time></trkpt><trkpt lat="44.89752" lon="9.696405"><ele>172.0</ele><time>2026-04-06T16:21:21.6Z</time></trkpt><trkpt lat="44.8976633" lon="9.696685"><ele>166.5</ele><time>2026-04-06T16:21:22.599Z</time></trkpt><trkpt lat="44.8978067" lon="9.6969717"><ele>161.0</ele><time>2026-04-06T16:21:23.601Z</time></trkpt><trkpt lat="44.8979517" lon="9.6972617"><ele>161.0</ele><time>2026-04-06T16:21:24.6Z</time></trkpt><trkpt lat="44.8980967" lon="9.69755"><ele>161.0</ele><time>2026-04-06T16:21:25.599Z</time></trkpt><trkpt lat="44.8982433" lon="9.6978417"><ele>159.0</ele><time>2026-04-06T16:21:26.6Z</time></trkpt><trkpt lat="44.8983883" lon="9.6981317"><ele>157.0</ele><time>2026-04-06T16:21:27.601Z</time></trkpt><trkpt lat="44.8985317" lon="9.6984183"><ele>158.5</ele><time>2026-04-06T16:21:28.6Z</time></trkpt><trkpt lat="44.8986733" lon="9.6987"><ele>160.0</ele><time>2026-04-06T16:21:29.601Z</time></trkpt><trkpt lat="44.8988117" lon="9.69898"><ele>160.0</ele><time>2026-04-06T16:21:30.601Z</time></trkpt><trkpt lat="44.8989483" lon="9.69926"><ele>160.0</ele><time>2026-04-06T16:21:31.603Z</time></trkpt><trkpt lat="44.89908" lon="9.6995467"><ele>159.0</ele><time>2026-04-06T16:21:32.601Z</time></trkpt><trkpt lat="44.8992017" lon="9.69984"><ele>158.0</ele><time>2026-04-06T16:21:33.6Z</time></trkpt><trkpt lat="44.8993183" lon="9.7001383"><ele>157.5</ele><time>2026-04-06T16:21:34.602Z</time></trkpt><trkpt lat="44.899435" lon="9.7004367"><ele>157.0</ele><time>2026-04-06T16:21:35.601Z</time></trkpt><trkpt lat="44.8995517" lon="9.700735"><ele>157.0</ele><time>2026-04-06T16:21:36.603Z</time></trkpt><trkpt lat="44.8996683" lon="9.7010367"><ele>157.0</ele><time>2026-04-06T16:21:37.602Z</time></trkpt><trkpt lat="44.899785" lon="9.7013417"><ele>157.0</ele><time>2026-04-06T16:21:38.601Z</time></trkpt><trkpt lat="44.8999033" lon="9.7016467"><ele>157.0</ele><time>2026-04-06T16:21:39.6Z</time></trkpt><trkpt lat="44.9000233" lon="9.7019533"><ele>154.5</ele><time>2026-04-06T16:21:40.599Z</time></trkpt><trkpt lat="44.9001433" lon="9.7022583"><ele>152.0</ele><time>2026-04-06T16:21:41.601Z</time></trkpt><trkpt lat="44.9002567" lon="9.7025533"><ele>152.33333333333331</ele><time>2026-04-06T16:21:42.6Z</time></trkpt><trkpt lat="44.9003667" lon="9.7028333"><ele>152.66666666666666</ele><time>2026-04-06T16:21:43.601Z</time></trkpt><trkpt lat="44.9004683" lon="9.7030983"><ele>153.0</ele><time>2026-04-06T16:21:44.6Z</time></trkpt><trkpt lat="44.9005683" lon="9.703355"><ele>154.33333333333334</ele><time>2026-04-06T16:21:45.6Z</time></trkpt><trkpt lat="44.9006617" lon="9.7036"><ele>155.66666666666669</ele><time>2026-04-06T16:21:46.602Z</time></trkpt><trkpt lat="44.9007567" lon="9.70384"><ele>157.0</ele><time>2026-04-06T16:21:47.6Z</time></trkpt><trkpt lat="44.9008517" lon="9.704085"><ele>155.33333333333334</ele><time>2026-04-06T16:21:48.599Z</time></trkpt><trkpt lat="44.9009483" lon="9.7043317"><ele>153.66666666666666</ele><time>2026-04-06T16:21:49.601Z</time></trkpt><trkpt lat="44.9010433" lon="9.70458"><ele>152.0</ele><time>2026-04-06T16:21:50.599Z</time></trkpt><trkpt lat="44.9011383" lon="9.7048233"><ele>152.0</ele><time>2026-04-06T16:21:51.6Z</time></trkpt><trkpt lat="44.9012333" lon="9.70506"><ele>152.0</ele><time>2026-04-06T16:21:52.602Z</time></trkpt><trkpt lat="44.9013267" lon="9.7052917"><ele>152.0</ele><time>2026-04-06T16:21:53.6Z</time></trkpt><trkpt lat="44.9014217" lon="9.70552"><ele>153.0</ele><time>2026-04-06T16:21:54.601Z</time></trkpt><trkpt lat="44.90152" lon="9.7057583"><ele>154.0</ele><time>2026-04-06T16:21:55.601Z</time></trkpt><trkpt lat="44.9016167" lon="9.7060017"><ele>155.0</ele><time>2026-04-06T16:21:56.601Z</time></trkpt><trkpt lat="44.9017067" lon="9.7062467"><ele>153.33333333333331</ele><time>2026-04-06T16:21:57.601Z</time></trkpt><trkpt lat="44.90179" lon="9.7064967"><ele>151.66666666666666</ele><time>2026-04-06T16:21:58.601Z</time></trkpt><trkpt lat="44.90188" lon="9.7067483"><ele>150.0</ele><time>2026-04-06T16:21:59.6Z</time></trkpt><trkpt lat="44.901975" lon="9.7070033"><ele>150.0</ele><time>2026-04-06T16:22:00.6Z</time></trkpt><trkpt lat="44.9020617" lon="9.70727"><ele>150.0</ele><time>2026-04-06T16:22:01.6Z</time></trkpt><trkpt lat="44.9021383" lon="9.707555"><ele>150.0</ele><time>2026-04-06T16:22:02.601Z</time></trkpt><trkpt lat="44.9022017" lon="9.7078533"><ele>150.66666666666666</ele><time>2026-04-06T16:22:03.599Z</time></trkpt><trkpt lat="44.90226" lon="9.7081567"><ele>151.33333333333331</ele><time>2026-04-06T16:22:04.6Z</time></trkpt><trkpt lat="44.9023133" lon="9.7084517"><ele>152.0</ele><time>2026-04-06T16:22:05.602Z</time></trkpt><trkpt lat="44.902365" lon="9.7087333"><ele>152.0</ele><time>2026-04-06T16:22:06.601Z</time></trkpt><trkpt lat="44.90241" lon="9.709"><ele>152.0</ele><time>2026-04-06T16:22:07.6Z</time></trkpt><trkpt lat="44.9024533" lon="9.709255"><ele>152.0</ele><time>2026-04-06T16:22:08.601Z</time></trkpt><trkpt lat="44.9024983" lon="9.7094967"><ele>152.0</ele><time>2026-04-06T16:22:09.6Z</time></trkpt><trkpt lat="44.9025467" lon="9.7097267"><ele>152.0</ele><time>2026-04-06T16:22:10.601Z</time></trkpt><trkpt lat="44.9026033" lon="9.7099517"><ele>152.0</ele><time>2026-04-06T16:22:11.6Z</time></trkpt><trkpt lat="44.9026683" lon="9.710165"><ele>151.0</ele><time>2026-04-06T16:22:12.601Z</time></trkpt><trkpt lat="44.9027333" lon="9.7103667"><ele>150.0</ele><time>2026-04-06T16:22:13.601Z</time></trkpt><trkpt lat="44.9027967" lon="9.7105583"><ele>149.0</ele><time>2026-04-06T16:22:14.601Z</time></trkpt><trkpt lat="44.9028583" lon="9.7107433"><ele>149.0</ele><time>2026-04-06T16:22:15.601Z</time></trkpt><trkpt lat="44.9029167" lon="9.71092"><ele>149.0</ele><time>2026-04-06T16:22:16.601Z</time></trkpt><trkpt lat="44.9029683" lon="9.7110917"><ele>149.0</ele><time>2026-04-06T16:22:17.604Z</time></trkpt><trkpt lat="44.90301" lon="9.71126"><ele>149.0</ele><time>2026-04-06T16:22:18.6Z</time></trkpt><trkpt lat="44.903035" lon="9.71143"><ele>149.0</ele><time>2026-04-06T16:22:19.6Z</time></trkpt><trkpt lat="44.9030367" lon="9.711605"><ele>149.0</ele><time>2026-04-06T16:22:20.603Z</time></trkpt><trkpt lat="44.903035" lon="9.7117867"><ele>149.0</ele><time>2026-04-06T16:22:21.599Z</time></trkpt><trkpt lat="44.9030467" lon="9.7119667"><ele>149.0</ele><time>2026-04-06T16:22:22.603Z</time></trkpt><trkpt lat="44.9030817" lon="9.7121517"><ele>149.0</ele><time>2026-04-06T16:22:23.599Z</time></trkpt><trkpt lat="44.9031333" lon="9.712345"><ele>149.0</ele><time>2026-04-06T16:22:24.602Z</time></trkpt><trkpt lat="44.9031817" lon="9.7125433"><ele>149.0</ele><time>2026-04-06T16:22:25.6Z</time></trkpt><trkpt lat="44.903225" lon="9.7127467"><ele>149.0</ele><time>2026-04-06T16:22:26.599Z</time></trkpt><trkpt lat="44.9032633" lon="9.712955"><ele>149.33333333333331</ele><time>2026-04-06T16:22:27.6Z</time></trkpt><trkpt lat="44.903295" lon="9.71317"><ele>149.66666666666666</ele><time>2026-04-06T16:22:28.601Z</time></trkpt><trkpt lat="44.9033183" lon="9.7133983"><ele>150.0</ele><time>2026-04-06T16:22:29.6Z</time></trkpt><trkpt lat="44.9033333" lon="9.713635"><ele>150.33333333333334</ele><time>2026-04-06T16:22:30.602Z</time></trkpt><trkpt lat="44.90335" lon="9.71388"><ele>150.66666666666669</ele><time>2026-04-06T16:22:31.6Z</time></trkpt><trkpt lat="44.9033683" lon="9.714125"><ele>151.0</ele><time>2026-04-06T16:22:32.6Z</time></trkpt><trkpt lat="44.90339" lon="9.71437"><ele>149.0</ele><time>2026-04-06T16:22:33.601Z</time></trkpt><trkpt lat="44.9034183" lon="9.7146183"><ele>147.0</ele><time>2026-04-06T16:22:34.601Z</time></trkpt><trkpt lat="44.90346" lon="9.71487"><ele>145.0</ele><time>2026-04-06T16:22:35.601Z</time></trkpt><trkpt lat="44.90351" lon="9.715125"><ele>145.66666666666669</ele><time>2026-04-06T16:22:36.6Z</time></trkpt><trkpt lat="44.903565" lon="9.715385"><ele>146.33333333333334</ele><time>2026-04-06T16:22:37.602Z</time></trkpt><trkpt lat="44.9036217" lon="9.7156467"><ele>147.0</ele><time>2026-04-06T16:22:38.602Z</time></trkpt><trkpt lat="44.9036767" lon="9.7159033"><ele>146.66666666666666</ele><time>2026-04-06T16:22:39.601Z</time></trkpt><trkpt lat="44.90373" lon="9.7161517"><ele>146.33333333333331</ele><time>2026-04-06T16:22:40.6Z</time></trkpt><trkpt lat="44.9037833" lon="9.7163883"><ele>146.0</ele><time>2026-04-06T16:22:41.601Z</time></trkpt><trkpt lat="44.90384" lon="9.7166217"><ele>146.0</ele><time>2026-04-06T16:22:42.6Z</time></trkpt><trkpt lat="44.9039067" lon="9.71685"><ele>146.0</ele><time>2026-04-06T16:22:43.6Z</time></trkpt><trkpt lat="44.9039867" lon="9.7170733"><ele>146.0</ele><time>2026-04-06T16:22:44.602Z</time></trkpt><trkpt lat="44.90408" lon="9.71729"><ele>146.0</ele><time>2026-04-06T16:22:45.601Z</time></trkpt><trkpt lat="44.9041867" lon="9.7174983"><ele>146.0</ele><time>2026-04-06T16:22:46.602Z</time></trkpt><trkpt lat="44.90431" lon="9.7176883"><ele>146.0</ele><time>2026-04-06T16:22:47.601Z</time></trkpt><trkpt lat="44.9044483" lon="9.71786"><ele>144.66666666666666</ele><time>2026-04-06T16:22:48.601Z</time></trkpt><trkpt lat="44.9046017" lon="9.7180133"><ele>143.33333333333334</ele><time>2026-04-06T16:22:49.6Z</time></trkpt><trkpt lat="44.9047683" lon="9.7181567"><ele>142.0</ele><time>2026-04-06T16:22:50.601Z</time></trkpt><trkpt lat="44.904945" lon="9.7183"><ele>142.0</ele><time>2026-04-06T16:22:51.601Z</time></trkpt><trkpt lat="44.905125" lon="9.7184417"><ele>142.0</ele><time>2026-04-06T16:22:52.602Z</time></trkpt><trkpt lat="44.9053017" lon="9.7185817"><ele>142.0</ele><time>2026-04-06T16:22:53.601Z</time></trkpt><trkpt lat="44.9054733" lon="9.7187183"><ele>142.0</ele><time>2026-04-06T16:22:54.6Z</time></trkpt><trkpt lat="44.90564" lon="9.71885"><ele>142.0</ele><time>2026-04-06T16:22:55.6Z</time></trkpt><trkpt lat="44.9058" lon="9.7189783"><ele>142.0</ele><time>2026-04-06T16:22:56.601Z</time></trkpt><trkpt lat="44.905955" lon="9.7191033"><ele>142.0</ele><time>2026-04-06T16:22:57.6Z</time></trkpt><trkpt lat="44.906105" lon="9.719225"><ele>142.0</ele><time>2026-04-06T16:22:58.599Z</time></trkpt><trkpt lat="44.9062483" lon="9.71934"><ele>142.0</ele><time>2026-04-06T16:22:59.6Z</time></trkpt><trkpt lat="44.9063833" lon="9.71945"><ele>142.0</ele><time>2026-04-06T16:23:00.6Z</time></trkpt><trkpt lat="44.9065183" lon="9.7195567"><ele>142.0</ele><time>2026-04-06T16:23:01.601Z</time></trkpt><trkpt lat="44.9066567" lon="9.7196667"><ele>142.0</ele><time>2026-04-06T16:23:02.602Z</time></trkpt><trkpt lat="44.9068" lon="9.719785"><ele>142.0</ele><time>2026-04-06T16:23:03.601Z</time></trkpt><trkpt lat="44.9069433" lon="9.7199117"><ele>142.0</ele><time>2026-04-06T16:23:04.6Z</time></trkpt><trkpt lat="44.90708" lon="9.720045"><ele>142.0</ele><time>2026-04-06T16:23:05.6Z</time></trkpt><trkpt lat="44.9072017" lon="9.7201967"><ele>141.66666666666669</ele><time>2026-04-06T16:23:06.601Z</time></trkpt><trkpt lat="44.9073017" lon="9.7203833"><ele>141.33333333333334</ele><time>2026-04-06T16:23:07.6Z</time></trkpt><trkpt lat="44.9073733" lon="9.720605"><ele>141.0</ele><time>2026-04-06T16:23:08.602Z</time></trkpt><trkpt lat="44.907415" lon="9.720845"><ele>141.33333333333334</ele><time>2026-04-06T16:23:09.602Z</time></trkpt><trkpt lat="44.9074267" lon="9.7210917"><ele>141.66666666666669</ele><time>2026-04-06T16:23:10.601Z</time></trkpt><trkpt lat="44.907405" lon="9.72134"><ele>142.0</ele><time>2026-04-06T16:23:11.601Z</time></trkpt><trkpt lat="44.90736" lon="9.72159"><ele>142.0</ele><time>2026-04-06T16:23:12.607Z</time></trkpt><trkpt lat="44.9073" lon="9.7218433"><ele>142.0</ele><time>2026-04-06T16:23:13.601Z</time></trkpt><trkpt lat="44.907235" lon="9.7220983"><ele>142.0</ele><time>2026-04-06T16:23:14.602Z</time></trkpt><trkpt lat="44.9071683" lon="9.7223583"><ele>142.0</ele><time>2026-04-06T16:23:15.601Z</time></trkpt><trkpt lat="44.9071017" lon="9.72262"><ele>142.0</ele><time>2026-04-06T16:23:16.601Z</time></trkpt><trkpt lat="44.9070367" lon="9.7228833"><ele>142.0</ele><time>2026-04-06T16:23:17.601Z</time></trkpt><trkpt lat="44.9069717" lon="9.7231467"><ele>141.33333333333334</ele><time>2026-04-06T16:23:18.6Z</time></trkpt><trkpt lat="44.906905" lon="9.723415"><ele>140.66666666666666</ele><time>2026-04-06T16:23:19.601Z</time></trkpt><trkpt lat="44.9068383" lon="9.723685"><ele>140.0</ele><time>2026-04-06T16:23:20.601Z</time></trkpt><trkpt lat="44.9067733" lon="9.72396"><ele>139.66666666666666</ele><time>2026-04-06T16:23:21.599Z</time></trkpt><trkpt lat="44.9067083" lon="9.7242367"><ele>139.33333333333334</ele><time>2026-04-06T16:23:22.6Z</time></trkpt><trkpt lat="44.906645" lon="9.72451"><ele>139.0</ele><time>2026-04-06T16:23:23.601Z</time></trkpt><trkpt lat="44.9065817" lon="9.7247783"><ele>139.66666666666669</ele><time>2026-04-06T16:23:24.6Z</time></trkpt><trkpt lat="44.9065167" lon="9.7250467"><ele>140.33333333333334</ele><time>2026-04-06T16:23:25.6Z</time></trkpt><trkpt lat="44.90645" lon="9.725315"><ele>141.0</ele><time>2026-04-06T16:23:26.602Z</time></trkpt><trkpt lat="44.90639" lon="9.7255833"><ele>141.0</ele><time>2026-04-06T16:23:27.601Z</time></trkpt><trkpt lat="44.9063333" lon="9.72585"><ele>141.0</ele><time>2026-04-06T16:23:28.602Z</time></trkpt><trkpt lat="44.906275" lon="9.7261167"><ele>141.0</ele><time>2026-04-06T16:23:29.603Z</time></trkpt><trkpt lat="44.906215" lon="9.7263833"><ele>140.66666666666666</ele><time>2026-04-06T16:23:30.602Z</time></trkpt><trkpt lat="44.9061567" lon="9.7266533"><ele>140.33333333333331</ele><time>2026-04-06T16:23:31.6Z</time></trkpt><trkpt lat="44.906095" lon="9.7269283"><ele>140.0</ele><time>2026-04-06T16:23:32.6Z</time></trkpt><trkpt lat="44.906035" lon="9.727205"><ele>139.66666666666666</ele><time>2026-04-06T16:23:33.599Z</time></trkpt><trkpt lat="44.9059733" lon="9.7274833"><ele>139.33333333333334</ele><time>2026-04-06T16:23:34.6Z</time></trkpt><trkpt lat="44.90591" lon="9.7277633"><ele>139.0</ele><time>2026-04-06T16:23:35.6Z</time></trkpt><trkpt lat="44.9058467" lon="9.7280383"><ele>139.0</ele><time>2026-04-06T16:23:36.599Z</time></trkpt><trkpt lat="44.9057833" lon="9.7283083"><ele>139.0</ele><time>2026-04-06T16:23:37.601Z</time></trkpt><trkpt lat="44.90572" lon="9.7285733"><ele>139.0</ele><time>2026-04-06T16:23:38.6Z</time></trkpt><trkpt lat="44.9056533" lon="9.7288283"><ele>139.0</ele><time>2026-04-06T16:23:39.601Z</time></trkpt><trkpt lat="44.9055833" lon="9.7290817"><ele>139.0</ele><time>2026-04-06T16:23:40.601Z</time></trkpt><trkpt lat="44.9055133" lon="9.7293317"><ele>139.0</ele><time>2026-04-06T16:23:41.6Z</time></trkpt><trkpt lat="44.9054433" lon="9.7295767"><ele>138.33333333333334</ele><time>2026-04-06T16:23:42.601Z</time></trkpt><trkpt lat="44.905375" lon="9.7298167"><ele>137.66666666666666</ele><time>2026-04-06T16:23:43.601Z</time></trkpt><trkpt lat="44.9053133" lon="9.7300483"><ele>137.0</ele><time>2026-04-06T16:23:44.601Z</time></trkpt><trkpt lat="44.9052567" lon="9.7302833"><ele>137.0</ele><time>2026-04-06T16:23:45.599Z</time></trkpt><trkpt lat="44.9052017" lon="9.73052"><ele>137.0</ele><time>2026-04-06T16:23:46.6Z</time></trkpt><trkpt lat="44.9051517" lon="9.7307533"><ele>137.0</ele><time>2026-04-06T16:23:47.601Z</time></trkpt><trkpt lat="44.9051033" lon="9.730975"><ele>139.0</ele><time>2026-04-06T16:23:48.601Z</time></trkpt><trkpt lat="44.90506" lon="9.7311817"><ele>141.0</ele><time>2026-04-06T16:23:49.6Z</time></trkpt><trkpt lat="44.9050217" lon="9.73139"><ele>143.0</ele><time>2026-04-06T16:23:50.601Z</time></trkpt><trkpt lat="44.9049967" lon="9.7316067"><ele>143.0</ele><time>2026-04-06T16:23:51.602Z</time></trkpt><trkpt lat="44.9049817" lon="9.7318317"><ele>143.0</ele><time>2026-04-06T16:23:52.601Z</time></trkpt><trkpt lat="44.904975" lon="9.73205"><ele>143.0</ele><time>2026-04-06T16:23:53.6Z</time></trkpt><trkpt lat="44.9049733" lon="9.7322633"><ele>142.0</ele><time>2026-04-06T16:23:54.601Z</time></trkpt><trkpt lat="44.9049817" lon="9.732475"><ele>141.0</ele><time>2026-04-06T16:23:55.6Z</time></trkpt><trkpt lat="44.904995" lon="9.7326833"><ele>140.0</ele><time>2026-04-06T16:23:56.603Z</time></trkpt><trkpt lat="44.9050167" lon="9.73289"><ele>139.0</ele><time>2026-04-06T16:23:57.603Z</time></trkpt><trkpt lat="44.9050417" lon="9.733085"><ele>138.5</ele><time>2026-04-06T16:23:58.601Z</time></trkpt><trkpt lat="44.90507" lon="9.7332767"><ele>138.0</ele><time>2026-04-06T16:23:59.601Z</time></trkpt><trkpt lat="44.9050967" lon="9.7334733"><ele>137.5</ele><time>2026-04-06T16:24:00.601Z</time></trkpt><trkpt lat="44.9051117" lon="9.733675"><ele>137.0</ele><time>2026-04-06T16:24:01.601Z</time></trkpt><trkpt lat="44.9051117" lon="9.7338817"><ele>137.0</ele><time>2026-04-06T16:24:02.601Z</time></trkpt><trkpt lat="44.9050883" lon="9.7340833"><ele>137.0</ele><time>2026-04-06T16:24:03.599Z</time></trkpt><trkpt lat="44.9050467" lon="9.7342817"><ele>137.0</ele><time>2026-04-06T16:24:04.602Z</time></trkpt><trkpt lat="44.9049983" lon="9.7344783"><ele>137.0</ele><time>2026-04-06T16:24:05.603Z</time></trkpt><trkpt lat="44.9049533" lon="9.7346767"><ele>138.0</ele><time>2026-04-06T16:24:06.601Z</time></trkpt><trkpt lat="44.9049217" lon="9.7348767"><ele>139.0</ele><time>2026-04-06T16:24:07.601Z</time></trkpt><trkpt lat="44.904915" lon="9.7350683"><ele>140.0</ele><time>2026-04-06T16:24:08.6Z</time></trkpt><trkpt lat="44.9049317" lon="9.7352483"><ele>141.0</ele><time>2026-04-06T16:24:09.601Z</time></trkpt><trkpt lat="44.9049583" lon="9.73543"><ele>141.25</ele><time>2026-04-06T16:24:10.601Z</time></trkpt><trkpt lat="44.9049783" lon="9.7356083"><ele>141.5</ele><time>2026-04-06T16:24:11.601Z</time></trkpt><trkpt lat="44.904975" lon="9.7357817"><ele>141.75</ele><time>2026-04-06T16:24:12.601Z</time></trkpt><trkpt lat="44.9049517" lon="9.7359533"><ele>142.0</ele><time>2026-04-06T16:24:13.601Z</time></trkpt><trkpt lat="44.9049217" lon="9.7361233"><ele>141.25</ele><time>2026-04-06T16:24:14.599Z</time></trkpt><trkpt lat="44.9048933" lon="9.736295"><ele>140.5</ele><time>2026-04-06T16:24:15.6Z</time></trkpt><trkpt lat="44.9048783" lon="9.736475"><ele>139.75</ele><time>2026-04-06T16:24:16.6Z</time></trkpt><trkpt lat="44.90489" lon="9.7366583"><ele>139.0</ele><time>2026-04-06T16:24:17.6Z</time></trkpt><trkpt lat="44.90493" lon="9.7368433"><ele>139.0</ele><time>2026-04-06T16:24:18.601Z</time></trkpt><trkpt lat="44.90499" lon="9.7370233"><ele>139.0</ele><time>2026-04-06T16:24:19.601Z</time></trkpt><trkpt lat="44.90506" lon="9.7372033"><ele>139.0</ele><time>2026-04-06T16:24:20.602Z</time></trkpt><trkpt lat="44.9051333" lon="9.737385"><ele>139.0</ele><time>2026-04-06T16:24:21.601Z</time></trkpt><trkpt lat="44.9052117" lon="9.737575"><ele>136.66666666666669</ele><time>2026-04-06T16:24:22.601Z</time></trkpt><trkpt lat="44.9052917" lon="9.73777"><ele>134.33333333333334</ele><time>2026-04-06T16:24:23.603Z</time></trkpt><trkpt lat="44.905375" lon="9.7379617"><ele>132.0</ele><time>2026-04-06T16:24:24.601Z</time></trkpt><trkpt lat="44.90547" lon="9.7381383"><ele>132.0</ele><time>2026-04-06T16:24:25.6Z</time></trkpt><trkpt lat="44.9055833" lon="9.7383017"><ele>132.0</ele><time>2026-04-06T16:24:26.601Z</time></trkpt><trkpt lat="44.9057067" lon="9.7384617"><ele>132.0</ele><time>2026-04-06T16:24:27.601Z</time></trkpt><trkpt lat="44.9058267" lon="9.7386283"><ele>131.0</ele><time>2026-04-06T16:24:28.601Z</time></trkpt><trkpt lat="44.9059417" lon="9.738805"><ele>130.0</ele><time>2026-04-06T16:24:29.601Z</time></trkpt><trkpt lat="44.9060533" lon="9.7389933"><ele>129.0</ele><time>2026-04-06T16:24:30.601Z</time></trkpt><trkpt lat="44.9061617" lon="9.739185"><ele>129.0</ele><time>2026-04-06T16:24:31.601Z</time></trkpt><trkpt lat="44.90627" lon="9.739375"><ele>129.0</ele><time>2026-04-06T16:24:32.602Z</time></trkpt><trkpt lat="44.90638" lon="9.7395633"><ele>129.0</ele><time>2026-04-06T16:24:33.601Z</time></trkpt><trkpt lat="44.9065" lon="9.739745"><ele>129.33333333333334</ele><time>2026-04-06T16:24:34.599Z</time></trkpt><trkpt lat="44.9066267" lon="9.73992"><ele>129.66666666666669</ele><time>2026-04-06T16:24:35.6Z</time></trkpt><trkpt lat="44.9067567" lon="9.74009"><ele>130.0</ele><time>2026-04-06T16:24:36.6Z</time></trkpt><trkpt lat="44.9068883" lon="9.740255"><ele>129.0</ele><time>2026-04-06T16:24:37.602Z</time></trkpt><trkpt lat="44.9070183" lon="9.7404117"><ele>128.0</ele><time>2026-04-06T16:24:38.602Z</time></trkpt><trkpt lat="44.9071483" lon="9.7405533"><ele>127.0</ele><time>2026-04-06T16:24:39.601Z</time></trkpt><trkpt lat="44.907275" lon="9.74067"><ele>127.0</ele><time>2026-04-06T16:24:40.601Z</time></trkpt><trkpt lat="44.9073967" lon="9.7407583"><ele>126.99999999999999</ele><time>2026-04-06T16:24:41.601Z</time></trkpt><trkpt lat="44.907505" lon="9.7408183"><ele>126.99999999999999</ele><time>2026-04-06T16:24:42.6Z</time></trkpt><trkpt lat="44.9076017" lon="9.74086"><ele>127.0</ele><time>2026-04-06T16:24:43.602Z</time></trkpt><trkpt lat="44.90769" lon="9.74089"><ele>127.0</ele><time>2026-04-06T16:24:44.602Z</time></trkpt><trkpt lat="44.907775" lon="9.7409133"><ele>126.5</ele><time>2026-04-06T16:24:45.6Z</time></trkpt><trkpt lat="44.90787" lon="9.7409333"><ele>126.0</ele><time>2026-04-06T16:24:46.601Z</time></trkpt><trkpt lat="44.9079867" lon="9.7409633"><ele>125.5</ele><time>2026-04-06T16:24:47.602Z</time></trkpt><trkpt lat="44.9081267" lon="9.741005"><ele>125.0</ele><time>2026-04-06T16:24:48.6Z</time></trkpt><trkpt lat="44.9082867" lon="9.7410517"><ele>124.33333333333333</ele><time>2026-04-06T16:24:49.602Z</time></trkpt><trkpt lat="44.908465" lon="9.7411"><ele>123.66666666666666</ele><time>2026-04-06T16:24:50.602Z</time></trkpt><trkpt lat="44.9086617" lon="9.74115"><ele>123.0</ele><time>2026-04-06T16:24:51.603Z</time></trkpt><trkpt lat="44.9088767" lon="9.7412067"><ele>123.0</ele><time>2026-04-06T16:24:52.601Z</time></trkpt><trkpt lat="44.9091083" lon="9.74127"><ele>123.0</ele><time>2026-04-06T16:24:53.6Z</time></trkpt><trkpt lat="44.9093617" lon="9.741335"><ele>122.5</ele><time>2026-04-06T16:24:54.601Z</time></trkpt><trkpt lat="44.9096367" lon="9.7414067"><ele>122.0</ele><time>2026-04-06T16:24:55.611Z</time></trkpt><trkpt lat="44.90993" lon="9.7414783"><ele>123.5</ele><time>2026-04-06T16:24:56.6Z</time></trkpt><trkpt lat="44.9102283" lon="9.74155"><ele>125.0</ele><time>2026-04-06T16:24:57.601Z</time></trkpt><trkpt lat="44.910525" lon="9.7416133"><ele>125.0</ele><time>2026-04-06T16:24:58.601Z</time></trkpt><trkpt lat="44.91082" lon="9.7416733"><ele>125.0</ele><time>2026-04-06T16:24:59.6Z</time></trkpt><trkpt lat="44.9111283" lon="9.741735"><ele>125.0</ele><time>2026-04-06T16:25:00.6Z</time></trkpt><trkpt lat="44.91143" lon="9.7417967"><ele>125.0</ele><time>2026-04-06T16:25:01.6Z</time></trkpt><trkpt lat="44.9117067" lon="9.7418567"><ele>124.5</ele><time>2026-04-06T16:25:02.6Z</time></trkpt><trkpt lat="44.9119683" lon="9.7419167"><ele>124.0</ele><time>2026-04-06T16:25:03.6Z</time></trkpt><trkpt lat="44.912215" lon="9.7419767"><ele>124.0</ele><time>2026-04-06T16:25:04.601Z</time></trkpt><trkpt lat="44.9124483" lon="9.7420383"><ele>124.0</ele><time>2026-04-06T16:25:05.599Z</time></trkpt><trkpt lat="44.912675" lon="9.7420983"><ele>123.5</ele><time>2026-04-06T16:25:06.6Z</time></trkpt><trkpt lat="44.9129" lon="9.7421583"><ele>123.0</ele><time>2026-04-06T16:25:07.6Z</time></trkpt><trkpt lat="44.9131183" lon="9.742215"><ele>123.0</ele><time>2026-04-06T16:25:08.6Z</time></trkpt><trkpt lat="44.9133317" lon="9.7422667"><ele>123.0</ele><time>2026-04-06T16:25:09.599Z</time></trkpt><trkpt lat="44.9135383" lon="9.7423167"><ele>123.0</ele><time>2026-04-06T16:25:10.6Z</time></trkpt><trkpt lat="44.91374" lon="9.7423667"><ele>122.66666666666666</ele><time>2026-04-06T16:25:11.601Z</time></trkpt><trkpt lat="44.9139367" lon="9.7424167"><ele>122.33333333333333</ele><time>2026-04-06T16:25:12.601Z</time></trkpt><trkpt lat="44.914125" lon="9.7424633"><ele>122.0</ele><time>2026-04-06T16:25:13.601Z</time></trkpt><trkpt lat="44.914305" lon="9.7425067"><ele>121.33333333333333</ele><time>2026-04-06T16:25:14.601Z</time></trkpt><trkpt lat="44.9144767" lon="9.7425483"><ele>120.66666666666666</ele><time>2026-04-06T16:25:15.6Z</time></trkpt><trkpt lat="44.9146367" lon="9.7425983"><ele>120.0</ele><time>2026-04-06T16:25:16.6Z</time></trkpt><trkpt lat="44.9147883" lon="9.7426783"><ele>120.0</ele><time>2026-04-06T16:25:17.602Z</time></trkpt><trkpt lat="44.9149333" lon="9.7428"><ele>120.0</ele><time>2026-04-06T16:25:18.603Z</time></trkpt><trkpt lat="44.9150617" lon="9.7429683"><ele>120.0</ele><time>2026-04-06T16:25:19.603Z</time></trkpt><trkpt lat="44.9151633" lon="9.7431783"><ele>120.0</ele><time>2026-04-06T16:25:20.603Z</time></trkpt><trkpt lat="44.9152333" lon="9.7434333"><ele>120.0</ele><time>2026-04-06T16:25:21.604Z</time></trkpt><trkpt lat="44.9152767" lon="9.7437233"><ele>120.0</ele><time>2026-04-06T16:25:22.601Z</time></trkpt><trkpt lat="44.9152983" lon="9.7440217"><ele>120.0</ele><time>2026-04-06T16:25:23.601Z</time></trkpt><trkpt lat="44.9152967" lon="9.7443067"><ele>120.0</ele><time>2026-04-06T16:25:24.6Z</time></trkpt><trkpt lat="44.9152833" lon="9.7445767"><ele>120.0</ele><time>2026-04-06T16:25:25.6Z</time></trkpt><trkpt lat="44.91526" lon="9.744835"><ele>119.66666666666666</ele><time>2026-04-06T16:25:26.6Z</time></trkpt><trkpt lat="44.9152317" lon="9.7450883"><ele>119.33333333333333</ele><time>2026-04-06T16:25:27.6Z</time></trkpt><trkpt lat="44.9152033" lon="9.7453383"><ele>119.0</ele><time>2026-04-06T16:25:28.599Z</time></trkpt><trkpt lat="44.9151767" lon="9.74559"><ele>119.0</ele><time>2026-04-06T16:25:29.6Z</time></trkpt><trkpt lat="44.9151483" lon="9.7458483"><ele>119.0</ele><time>2026-04-06T16:25:30.601Z</time></trkpt><trkpt lat="44.9151183" lon="9.7461083"><ele>119.0</ele><time>2026-04-06T16:25:31.601Z</time></trkpt><trkpt lat="44.9150917" lon="9.7463683"><ele>118.33333333333333</ele><time>2026-04-06T16:25:32.6Z</time></trkpt><trkpt lat="44.9150633" lon="9.746625"><ele>117.66666666666666</ele><time>2026-04-06T16:25:33.599Z</time></trkpt><trkpt lat="44.9150367" lon="9.7468783"><ele>117.0</ele><time>2026-04-06T16:25:34.6Z</time></trkpt><trkpt lat="44.9150083" lon="9.7471267"><ele>116.33333333333334</ele><time>2026-04-06T16:25:35.601Z</time></trkpt><trkpt lat="44.9149817" lon="9.7473717"><ele>115.66666666666667</ele><time>2026-04-06T16:25:36.601Z</time></trkpt><trkpt lat="44.914955" lon="9.7476083"><ele>115.0</ele><time>2026-04-06T16:25:37.599Z</time></trkpt><trkpt lat="44.91493" lon="9.74784"><ele>115.0</ele><time>2026-04-06T16:25:38.6Z</time></trkpt><trkpt lat="44.914905" lon="9.7480667"><ele>115.0</ele><time>2026-04-06T16:25:39.601Z</time></trkpt><trkpt lat="44.9148833" lon="9.7482983"><ele>115.0</ele><time>2026-04-06T16:25:40.6Z</time></trkpt><trkpt lat="44.9148733" lon="9.748535"><ele>115.0</ele><time>2026-04-06T16:25:41.6Z</time></trkpt><trkpt lat="44.9148783" lon="9.7487733"><ele>115.0</ele><time>2026-04-06T16:25:42.601Z</time></trkpt><trkpt lat="44.9149067" lon="9.7490083"><ele>115.0</ele><time>2026-04-06T16:25:43.611Z</time></trkpt><trkpt lat="44.914955" lon="9.749235"><ele>115.0</ele><time>2026-04-06T16:25:44.603Z</time></trkpt><trkpt lat="44.9150233" lon="9.749455"><ele>115.0</ele><time>2026-04-06T16:25:45.601Z</time></trkpt><trkpt lat="44.9151133" lon="9.7496617"><ele>115.0</ele><time>2026-04-06T16:25:46.6Z</time></trkpt><trkpt lat="44.9152267" lon="9.7498533"><ele>115.66666666666667</ele><time>2026-04-06T16:25:47.6Z</time></trkpt><trkpt lat="44.91536" lon="9.7500267"><ele>116.33333333333334</ele><time>2026-04-06T16:25:48.601Z</time></trkpt><trkpt lat="44.9155067" lon="9.7501783"><ele>117.0</ele><time>2026-04-06T16:25:49.6Z</time></trkpt><trkpt lat="44.9156717" lon="9.7503017"><ele>117.0</ele><time>2026-04-06T16:25:50.601Z</time></trkpt><trkpt lat="44.9158517" lon="9.7504117"><ele>117.0</ele><time>2026-04-06T16:25:51.601Z</time></trkpt><trkpt lat="44.91604" lon="9.7505233"><ele>117.0</ele><time>2026-04-06T16:25:52.601Z</time></trkpt><trkpt lat="44.9162233" lon="9.7506367"><ele>116.66666666666666</ele><time>2026-04-06T16:25:53.6Z</time></trkpt><trkpt lat="44.9164033" lon="9.75075"><ele>116.33333333333333</ele><time>2026-04-06T16:25:54.601Z</time></trkpt><trkpt lat="44.9165833" lon="9.7508633"><ele>116.0</ele><time>2026-04-06T16:25:55.601Z</time></trkpt><trkpt lat="44.9167633" lon="9.75098"><ele>115.0</ele><time>2026-04-06T16:25:56.603Z</time></trkpt><trkpt lat="44.9169483" lon="9.7510933"><ele>114.0</ele><time>2026-04-06T16:25:57.599Z</time></trkpt><trkpt lat="44.91713" lon="9.7512083"><ele>113.0</ele><time>2026-04-06T16:25:58.601Z</time></trkpt><trkpt lat="44.917315" lon="9.751325"><ele>113.0</ele><time>2026-04-06T16:25:59.6Z</time></trkpt><trkpt lat="44.9175017" lon="9.7514467"><ele>113.0</ele><time>2026-04-06T16:26:00.601Z</time></trkpt><trkpt lat="44.917695" lon="9.7515717"><ele>113.0</ele><time>2026-04-06T16:26:01.602Z</time></trkpt><trkpt lat="44.9178867" lon="9.751695"><ele>113.0</ele><time>2026-04-06T16:26:02.6Z</time></trkpt><trkpt lat="44.918075" lon="9.751815"><ele>113.0</ele><time>2026-04-06T16:26:03.6Z</time></trkpt><trkpt lat="44.9182617" lon="9.75193"><ele>113.0</ele><time>2026-04-06T16:26:04.601Z</time></trkpt><trkpt lat="44.918445" lon="9.752045"><ele>113.0</ele><time>2026-04-06T16:26:05.601Z</time></trkpt><trkpt lat="44.9186283" lon="9.7521617"><ele>113.0</ele><time>2026-04-06T16:26:06.601Z</time></trkpt><trkpt lat="44.9188083" lon="9.7522817"><ele>113.0</ele><time>2026-04-06T16:26:07.602Z</time></trkpt><trkpt lat="44.9189833" lon="9.7524133"><ele>113.0</ele><time>2026-04-06T16:26:08.602Z</time></trkpt><trkpt lat="44.9191517" lon="9.75257"><ele>113.0</ele><time>2026-04-06T16:26:09.6Z</time></trkpt><trkpt lat="44.9193217" lon="9.75275"><ele>113.0</ele><time>2026-04-06T16:26:10.601Z</time></trkpt><trkpt lat="44.9194883" lon="9.752945"><ele>112.66666666666666</ele><time>2026-04-06T16:26:11.601Z</time></trkpt><trkpt lat="44.9196483" lon="9.7531333"><ele>112.33333333333334</ele><time>2026-04-06T16:26:12.601Z</time></trkpt><trkpt lat="44.9198067" lon="9.7533133"><ele>112.0</ele><time>2026-04-06T16:26:13.6Z</time></trkpt><trkpt lat="44.91996" lon="9.7534917"><ele>111.66666666666667</ele><time>2026-04-06T16:26:14.601Z</time></trkpt><trkpt lat="44.92011" lon="9.7536683"><ele>111.33333333333334</ele><time>2026-04-06T16:26:15.6Z</time></trkpt><trkpt lat="44.9202567" lon="9.7538417"><ele>111.0</ele><time>2026-04-06T16:26:16.601Z</time></trkpt><trkpt lat="44.9204017" lon="9.7540083"><ele>111.0</ele><time>2026-04-06T16:26:17.6Z</time></trkpt><trkpt lat="44.9205433" lon="9.75417"><ele>111.0</ele><time>2026-04-06T16:26:18.601Z</time></trkpt><trkpt lat="44.9206783" lon="9.7543283"><ele>111.0</ele><time>2026-04-06T16:26:19.6Z</time></trkpt><trkpt lat="44.92081" lon="9.7544783"><ele>111.0</ele><time>2026-04-06T16:26:20.601Z</time></trkpt><trkpt lat="44.9209317" lon="9.7546183"><ele>111.0</ele><time>2026-04-06T16:26:21.6Z</time></trkpt><trkpt lat="44.92105" lon="9.7547533"><ele>111.0</ele><time>2026-04-06T16:26:22.6Z</time></trkpt><trkpt lat="44.9211617" lon="9.7548817"><ele>111.0</ele><time>2026-04-06T16:26:23.599Z</time></trkpt><trkpt lat="44.9212683" lon="9.7550067"><ele>111.0</ele><time>2026-04-06T16:26:24.601Z</time></trkpt><trkpt lat="44.9213683" lon="9.7551233"><ele>111.0</ele><time>2026-04-06T16:26:25.6Z</time></trkpt><trkpt lat="44.921465" lon="9.7552367"><ele>111.0</ele><time>2026-04-06T16:26:26.601Z</time></trkpt><trkpt lat="44.9215583" lon="9.75534"><ele>111.0</ele><time>2026-04-06T16:26:27.601Z</time></trkpt><trkpt lat="44.9216517" lon="9.755415"><ele>111.0</ele><time>2026-04-06T16:26:28.601Z</time></trkpt><trkpt lat="44.9217467" lon="9.755445"><ele>111.0</ele><time>2026-04-06T16:26:29.599Z</time></trkpt><trkpt lat="44.92184" lon="9.755435"><ele>111.0</ele><time>2026-04-06T16:26:30.601Z</time></trkpt><trkpt lat="44.921925" lon="9.7553933"><ele>111.0</ele><time>2026-04-06T16:26:31.6Z</time></trkpt><trkpt lat="44.9219983" lon="9.7553467"><ele>110.57142857142857</ele><time>2026-04-06T16:26:32.601Z</time></trkpt><trkpt lat="44.922065" lon="9.755315"><ele>110.14285714285715</ele><time>2026-04-06T16:26:33.601Z</time></trkpt><trkpt lat="44.9221317" lon="9.7553083"><ele>109.71428571428572</ele><time>2026-04-06T16:26:34.602Z</time></trkpt><trkpt lat="44.922195" lon="9.7553317"><ele>109.28571428571428</ele><time>2026-04-06T16:26:35.602Z</time></trkpt><trkpt lat="44.92225" lon="9.7553783"><ele>108.85714285714286</ele><time>2026-04-06T16:26:36.603Z</time></trkpt><trkpt lat="44.9222933" lon="9.7554483"><ele>108.42857142857143</ele><time>2026-04-06T16:26:37.602Z</time></trkpt><trkpt lat="44.9223283" lon="9.75553"><ele>108.0</ele><time>2026-04-06T16:26:38.602Z</time></trkpt><trkpt lat="44.92236" lon="9.7556083"><ele>108.0</ele><time>2026-04-06T16:26:39.602Z</time></trkpt><trkpt lat="44.9224617" lon="9.7556933"><ele>108.00000000000001</ele><time>2026-04-06T16:26:41.601Z</time></trkpt><trkpt lat="44.922565" lon="9.7556417"><ele>108.00000000000001</ele><time>2026-04-06T16:26:43.601Z</time></trkpt><trkpt lat="44.92261" lon="9.75546"><ele>108.0</ele><time>2026-04-06T16:26:45.603Z</time></trkpt><trkpt lat="44.92263" lon="9.755345"><ele>108.0</ele><time>2026-04-06T16:26:46.601Z</time></trkpt><trkpt lat="44.922665" lon="9.7552283"><ele>108.0</ele><time>2026-04-06T16:26:47.6Z</time></trkpt><trkpt lat="44.9227133" lon="9.75512"><ele>108.00000000000001</ele><time>2026-04-06T16:26:48.602Z</time></trkpt><trkpt lat="44.92278" lon="9.7550117"><ele>108.00000000000001</ele><time>2026-04-06T16:26:49.601Z</time></trkpt><trkpt lat="44.922865" lon="9.7549"><ele>108.0</ele><time>2026-04-06T16:26:50.601Z</time></trkpt><trkpt lat="44.9229667" lon="9.7547867"><ele>108.0</ele><time>2026-04-06T16:26:51.602Z</time></trkpt><trkpt lat="44.9230767" lon="9.75468"><ele>108.0</ele><time>2026-04-06T16:26:52.601Z</time></trkpt><trkpt lat="44.9231883" lon="9.7545883"><ele>108.0</ele><time>2026-04-06T16:26:53.601Z</time></trkpt><trkpt lat="44.9233083" lon="9.7545017"><ele>108.0</ele><time>2026-04-06T16:26:54.601Z</time></trkpt><trkpt lat="44.9234333" lon="9.7544133"><ele>108.0</ele><time>2026-04-06T16:26:55.601Z</time></trkpt><trkpt lat="44.92356" lon="9.7543233"><ele>108.5</ele><time>2026-04-06T16:26:56.601Z</time></trkpt><trkpt lat="44.9236867" lon="9.75423"><ele>109.0</ele><time>2026-04-06T16:26:57.601Z</time></trkpt><trkpt lat="44.923815" lon="9.7541333"><ele>109.5</ele><time>2026-04-06T16:26:58.602Z</time></trkpt><trkpt lat="44.923945" lon="9.7540383"><ele>110.0</ele><time>2026-04-06T16:26:59.601Z</time></trkpt><trkpt lat="44.924075" lon="9.7539417"><ele>110.0</ele><time>2026-04-06T16:27:00.604Z</time></trkpt><trkpt lat="44.92421" lon="9.753845"><ele>110.0</ele><time>2026-04-06T16:27:01.601Z</time></trkpt><trkpt lat="44.924345" lon="9.7537467"><ele>110.0</ele><time>2026-04-06T16:27:02.602Z</time></trkpt><trkpt lat="44.92448" lon="9.7536417"><ele>109.66666666666666</ele><time>2026-04-06T16:27:03.601Z</time></trkpt><trkpt lat="44.9246217" lon="9.7535283"><ele>109.33333333333334</ele><time>2026-04-06T16:27:04.602Z</time></trkpt><trkpt lat="44.92477" lon="9.7534067"><ele>109.0</ele><time>2026-04-06T16:27:05.602Z</time></trkpt><trkpt lat="44.9249233" lon="9.7532817"><ele>108.66666666666667</ele><time>2026-04-06T16:27:06.6Z</time></trkpt><trkpt lat="44.92508" lon="9.753155"><ele>108.33333333333334</ele><time>2026-04-06T16:27:07.601Z</time></trkpt><trkpt lat="44.9252383" lon="9.7530267"><ele>108.0</ele><time>2026-04-06T16:27:08.602Z</time></trkpt><trkpt lat="44.925395" lon="9.752895"><ele>108.0</ele><time>2026-04-06T16:27:09.602Z</time></trkpt><trkpt lat="44.9255483" lon="9.752765"><ele>108.0</ele><time>2026-04-06T16:27:10.601Z</time></trkpt><trkpt lat="44.9256933" lon="9.75264"><ele>108.0</ele><time>2026-04-06T16:27:11.602Z</time></trkpt><trkpt lat="44.92583" lon="9.7525183"><ele>108.0</ele><time>2026-04-06T16:27:12.602Z</time></trkpt><trkpt lat="44.9259633" lon="9.7523967"><ele>108.0</ele><time>2026-04-06T16:27:13.604Z</time></trkpt><trkpt lat="44.9260983" lon="9.7522733"><ele>108.0</ele><time>2026-04-06T16:27:14.601Z</time></trkpt><trkpt lat="44.92624" lon="9.7521517"><ele>108.0</ele><time>2026-04-06T16:27:15.602Z</time></trkpt><trkpt lat="44.9263933" lon="9.7520283"><ele>108.0</ele><time>2026-04-06T16:27:16.601Z</time></trkpt><trkpt lat="44.9265533" lon="9.7518917"><ele>108.0</ele><time>2026-04-06T16:27:17.6Z</time></trkpt><trkpt lat="44.9267183" lon="9.75175"><ele>107.66666666666666</ele><time>2026-04-06T16:27:18.602Z</time></trkpt><trkpt lat="44.9268883" lon="9.751605"><ele>107.33333333333333</ele><time>2026-04-06T16:27:19.601Z</time></trkpt><trkpt lat="44.92706" lon="9.751455"><ele>107.0</ele><time>2026-04-06T16:27:20.601Z</time></trkpt><trkpt lat="44.9272367" lon="9.7512983"><ele>107.0</ele><time>2026-04-06T16:27:21.601Z</time></trkpt><trkpt lat="44.927415" lon="9.75114"><ele>107.0</ele><time>2026-04-06T16:27:22.601Z</time></trkpt><trkpt lat="44.9275967" lon="9.7509783"><ele>107.0</ele><time>2026-04-06T16:27:23.603Z</time></trkpt><trkpt lat="44.92778" lon="9.7508167"><ele>107.66666666666666</ele><time>2026-04-06T16:27:24.602Z</time></trkpt><trkpt lat="44.9279667" lon="9.750655"><ele>108.33333333333334</ele><time>2026-04-06T16:27:25.602Z</time></trkpt><trkpt lat="44.9281583" lon="9.750495"><ele>109.0</ele><time>2026-04-06T16:27:26.602Z</time></trkpt><trkpt lat="44.9283533" lon="9.7503433"><ele>108.0</ele><time>2026-04-06T16:27:27.602Z</time></trkpt><trkpt lat="44.9285517" lon="9.7501983"><ele>107.0</ele><time>2026-04-06T16:27:28.603Z</time></trkpt><trkpt lat="44.9287567" lon="9.7500633"><ele>107.0</ele><time>2026-04-06T16:27:29.603Z</time></trkpt><trkpt lat="44.928965" lon="9.749935"><ele>107.0</ele><time>2026-04-06T16:27:30.601Z</time></trkpt><trkpt lat="44.9291733" lon="9.7498167"><ele>106.66666666666666</ele><time>2026-04-06T16:27:31.6Z</time></trkpt><trkpt lat="44.9293783" lon="9.7497133"><ele>106.33333333333334</ele><time>2026-04-06T16:27:32.604Z</time></trkpt><trkpt lat="44.9295733" lon="9.7496267"><ele>106.0</ele><time>2026-04-06T16:27:33.601Z</time></trkpt><trkpt lat="44.9297683" lon="9.7495517"><ele>106.0</ele><time>2026-04-06T16:27:34.601Z</time></trkpt><trkpt lat="44.9299633" lon="9.74948"><ele>106.0</ele><time>2026-04-06T16:27:35.6Z</time></trkpt><trkpt lat="44.93016" lon="9.749415"><ele>106.0</ele><time>2026-04-06T16:27:36.6Z</time></trkpt><trkpt lat="44.9303567" lon="9.7493533"><ele>106.66666666666667</ele><time>2026-04-06T16:27:37.601Z</time></trkpt><trkpt lat="44.93055" lon="9.7492967"><ele>107.33333333333334</ele><time>2026-04-06T16:27:38.6Z</time></trkpt><trkpt lat="44.9307367" lon="9.7492417"><ele>108.0</ele><time>2026-04-06T16:27:39.601Z</time></trkpt><trkpt lat="44.9309183" lon="9.74919"><ele>108.0</ele><time>2026-04-06T16:27:40.602Z</time></trkpt><trkpt lat="44.9311" lon="9.7491383"><ele>108.0</ele><time>2026-04-06T16:27:41.601Z</time></trkpt><trkpt lat="44.931285" lon="9.7490833"><ele>108.0</ele><time>2026-04-06T16:27:42.602Z</time></trkpt><trkpt lat="44.9314717" lon="9.7490283"><ele>108.0</ele><time>2026-04-06T16:27:43.602Z</time></trkpt><trkpt lat="44.9316567" lon="9.7489733"><ele>108.0</ele><time>2026-04-06T16:27:44.604Z</time></trkpt><trkpt lat="44.93184" lon="9.7489167"><ele>108.0</ele><time>2026-04-06T16:27:45.601Z</time></trkpt><trkpt lat="44.9320267" lon="9.7488583"><ele>107.66666666666666</ele><time>2026-04-06T16:27:46.602Z</time></trkpt><trkpt lat="44.932215" lon="9.7488017"><ele>107.33333333333333</ele><time>2026-04-06T16:27:47.602Z</time></trkpt><trkpt lat="44.932405" lon="9.7487467"><ele>107.0</ele><time>2026-04-06T16:27:48.6Z</time></trkpt><trkpt lat="44.9325917" lon="9.7486933"><ele>107.0</ele><time>2026-04-06T16:27:49.602Z</time></trkpt><trkpt lat="44.932775" lon="9.748645"><ele>107.0</ele><time>2026-04-06T16:27:50.602Z</time></trkpt><trkpt lat="44.9329583" lon="9.7486017"><ele>107.0</ele><time>2026-04-06T16:27:51.603Z</time></trkpt><trkpt lat="44.933145" lon="9.7485617"><ele>107.33333333333333</ele><time>2026-04-06T16:27:52.603Z</time></trkpt><trkpt lat="44.9333333" lon="9.7485317"><ele>107.66666666666666</ele><time>2026-04-06T16:27:53.602Z</time></trkpt><trkpt lat="44.9335233" lon="9.748505"><ele>108.0</ele><time>2026-04-06T16:27:54.602Z</time></trkpt><trkpt lat="44.933715" lon="9.7484817"><ele>107.33333333333334</ele><time>2026-04-06T16:27:55.601Z</time></trkpt><trkpt lat="44.933905" lon="9.74846"><ele>106.66666666666667</ele><time>2026-04-06T16:27:56.603Z</time></trkpt><trkpt lat="44.934095" lon="9.748435"><ele>106.0</ele><time>2026-04-06T16:27:57.602Z</time></trkpt><trkpt lat="44.9342833" lon="9.7484067"><ele>106.0</ele><time>2026-04-06T16:27:58.6Z</time></trkpt><trkpt lat="44.9344667" lon="9.748375"><ele>106.0</ele><time>2026-04-06T16:27:59.605Z</time></trkpt><trkpt lat="44.9346483" lon="9.7483367"><ele>106.0</ele><time>2026-04-06T16:28:00.6Z</time></trkpt><trkpt lat="44.9348267" lon="9.7482917"><ele>106.0</ele><time>2026-04-06T16:28:01.603Z</time></trkpt><trkpt lat="44.935005" lon="9.74824"><ele>106.0</ele><time>2026-04-06T16:28:02.604Z</time></trkpt><trkpt lat="44.93518" lon="9.7481783"><ele>106.0</ele><time>2026-04-06T16:28:03.599Z</time></trkpt><trkpt lat="44.9353517" lon="9.7481083"><ele>106.66666666666667</ele><time>2026-04-06T16:28:04.602Z</time></trkpt><trkpt lat="44.93552" lon="9.7480317"><ele>107.33333333333334</ele><time>2026-04-06T16:28:05.601Z</time></trkpt><trkpt lat="44.935685" lon="9.7479483"><ele>108.0</ele><time>2026-04-06T16:28:06.6Z</time></trkpt><trkpt lat="44.9358467" lon="9.74786"><ele>107.66666666666666</ele><time>2026-04-06T16:28:07.603Z</time></trkpt><trkpt lat="44.9360067" lon="9.7477617"><ele>107.33333333333333</ele><time>2026-04-06T16:28:08.602Z</time></trkpt><trkpt lat="44.9361667" lon="9.74766"><ele>107.0</ele><time>2026-04-06T16:28:09.6Z</time></trkpt><trkpt lat="44.93632" lon="9.7475567"><ele>107.0</ele><time>2026-04-06T16:28:10.601Z</time></trkpt><trkpt lat="44.9364683" lon="9.7474567"><ele>107.0</ele><time>2026-04-06T16:28:11.601Z</time></trkpt><trkpt lat="44.9366167" lon="9.7473567"><ele>107.0</ele><time>2026-04-06T16:28:12.6Z</time></trkpt><trkpt lat="44.93676" lon="9.74726"><ele>106.33333333333333</ele><time>2026-04-06T16:28:13.6Z</time></trkpt><trkpt lat="44.9369033" lon="9.74716"><ele>105.66666666666666</ele><time>2026-04-06T16:28:14.601Z</time></trkpt><trkpt lat="44.93705" lon="9.74706"><ele>105.0</ele><time>2026-04-06T16:28:15.601Z</time></trkpt><trkpt lat="44.9372017" lon="9.74696"><ele>105.33333333333334</ele><time>2026-04-06T16:28:16.603Z</time></trkpt><trkpt lat="44.9373517" lon="9.74686"><ele>105.66666666666667</ele><time>2026-04-06T16:28:17.601Z</time></trkpt><trkpt lat="44.9374983" lon="9.7467633"><ele>106.0</ele><time>2026-04-06T16:28:18.601Z</time></trkpt><trkpt lat="44.937645" lon="9.7466717"><ele>106.0</ele><time>2026-04-06T16:28:19.601Z</time></trkpt><trkpt lat="44.9377933" lon="9.7465783"><ele>106.0</ele><time>2026-04-06T16:28:20.602Z</time></trkpt><trkpt lat="44.9379417" lon="9.7464833"><ele>106.0</ele><time>2026-04-06T16:28:21.601Z</time></trkpt><trkpt lat="44.9380867" lon="9.7463917"><ele>106.0</ele><time>2026-04-06T16:28:22.601Z</time></trkpt><trkpt lat="44.9382317" lon="9.7463033"><ele>106.0</ele><time>2026-04-06T16:28:23.602Z</time></trkpt><trkpt lat="44.9383717" lon="9.74622"><ele>106.0</ele><time>2026-04-06T16:28:24.601Z</time></trkpt><trkpt lat="44.9385117" lon="9.74614"><ele>105.66666666666667</ele><time>2026-04-06T16:28:25.602Z</time></trkpt><trkpt lat="44.9386533" lon="9.7460633"><ele>105.33333333333334</ele><time>2026-04-06T16:28:26.602Z</time></trkpt><trkpt lat="44.938795" lon="9.74599"><ele>105.0</ele><time>2026-04-06T16:28:27.605Z</time></trkpt><trkpt lat="44.9389367" lon="9.7459183"><ele>105.0</ele><time>2026-04-06T16:28:28.602Z</time></trkpt><trkpt lat="44.93908" lon="9.7458467"><ele>105.0</ele><time>2026-04-06T16:28:29.602Z</time></trkpt><trkpt lat="44.9392283" lon="9.7457733"><ele>105.0</ele><time>2026-04-06T16:28:30.601Z</time></trkpt><trkpt lat="44.9393817" lon="9.7456917"><ele>105.33333333333334</ele><time>2026-04-06T16:28:31.602Z</time></trkpt><trkpt lat="44.9395433" lon="9.745605"><ele>105.66666666666667</ele><time>2026-04-06T16:28:32.601Z</time></trkpt><trkpt lat="44.93971" lon="9.7455217"><ele>106.0</ele><time>2026-04-06T16:28:33.602Z</time></trkpt><trkpt lat="44.9398767" lon="9.7454417"><ele>106.0</ele><time>2026-04-06T16:28:34.6Z</time></trkpt><trkpt lat="44.940045" lon="9.74536"><ele>106.0</ele><time>2026-04-06T16:28:35.604Z</time></trkpt><trkpt lat="44.9402117" lon="9.7452783"><ele>106.0</ele><time>2026-04-06T16:28:36.602Z</time></trkpt><trkpt lat="44.9403717" lon="9.7451983"><ele>105.66666666666667</ele><time>2026-04-06T16:28:37.601Z</time></trkpt><trkpt lat="44.9405267" lon="9.7451267"><ele>105.33333333333334</ele><time>2026-04-06T16:28:38.603Z</time></trkpt><trkpt lat="44.94068" lon="9.7450583"><ele>105.0</ele><time>2026-04-06T16:28:39.603Z</time></trkpt><trkpt lat="44.9408333" lon="9.74499"><ele>105.33333333333334</ele><time>2026-04-06T16:28:40.601Z</time></trkpt><trkpt lat="44.940985" lon="9.74492"><ele>105.66666666666667</ele><time>2026-04-06T16:28:41.602Z</time></trkpt><trkpt lat="44.9411367" lon="9.7448483"><ele>106.0</ele><time>2026-04-06T16:28:42.6Z</time></trkpt><trkpt lat="44.941285" lon="9.7447767"><ele>106.0</ele><time>2026-04-06T16:28:43.601Z</time></trkpt><trkpt lat="44.9414317" lon="9.7447067"><ele>106.0</ele><time>2026-04-06T16:28:44.606Z</time></trkpt><trkpt lat="44.9415767" lon="9.7446367"><ele>106.0</ele><time>2026-04-06T16:28:45.601Z</time></trkpt><trkpt lat="44.9417167" lon="9.7445717"><ele>105.75</ele><time>2026-04-06T16:28:46.602Z</time></trkpt><trkpt lat="44.9418517" lon="9.7445117"><ele>105.5</ele><time>2026-04-06T16:28:47.601Z</time></trkpt><trkpt lat="44.9419867" lon="9.744455"><ele>105.25</ele><time>2026-04-06T16:28:48.602Z</time></trkpt><trkpt lat="44.9421217" lon="9.7444033"><ele>105.0</ele><time>2026-04-06T16:28:49.602Z</time></trkpt><trkpt lat="44.9422517" lon="9.7443583"><ele>105.0</ele><time>2026-04-06T16:28:50.602Z</time></trkpt><trkpt lat="44.9423767" lon="9.7443233"><ele>105.0</ele><time>2026-04-06T16:28:51.604Z</time></trkpt><trkpt lat="44.9424967" lon="9.744295"><ele>105.0</ele><time>2026-04-06T16:28:52.601Z</time></trkpt><trkpt lat="44.9426133" lon="9.7442733"><ele>105.0</ele><time>2026-04-06T16:28:53.603Z</time></trkpt><trkpt lat="44.942725" lon="9.7442567"><ele>104.6</ele><time>2026-04-06T16:28:54.601Z</time></trkpt><trkpt lat="44.9428333" lon="9.7442467"><ele>104.2</ele><time>2026-04-06T16:28:55.602Z</time></trkpt><trkpt lat="44.942935" lon="9.744245"><ele>103.80000000000001</ele><time>2026-04-06T16:28:56.603Z</time></trkpt><trkpt lat="44.94303" lon="9.7442517"><ele>103.4</ele><time>2026-04-06T16:28:57.602Z</time></trkpt><trkpt lat="44.9431167" lon="9.744265"><ele>103.0</ele><time>2026-04-06T16:28:58.603Z</time></trkpt><trkpt lat="44.9431983" lon="9.74429"><ele>103.00000000000001</ele><time>2026-04-06T16:28:59.602Z</time></trkpt><trkpt lat="44.9432717" lon="9.7443333"><ele>103.0</ele><time>2026-04-06T16:29:00.602Z</time></trkpt><trkpt lat="44.943335" lon="9.7443983"><ele>103.0</ele><time>2026-04-06T16:29:01.602Z</time></trkpt><trkpt lat="44.94339" lon="9.7444683"><ele>103.0</ele><time>2026-04-06T16:29:02.601Z</time></trkpt><trkpt lat="44.9434517" lon="9.744525"><ele>103.00000000000001</ele><time>2026-04-06T16:29:03.603Z</time></trkpt><trkpt lat="44.9435217" lon="9.744555"><ele>103.0</ele><time>2026-04-06T16:29:04.602Z</time></trkpt><trkpt lat="44.943595" lon="9.7445483"><ele>102.80000000000001</ele><time>2026-04-06T16:29:05.601Z</time></trkpt><trkpt lat="44.94367" lon="9.744505"><ele>102.6</ele><time>2026-04-06T16:29:06.601Z</time></trkpt><trkpt lat="44.9437467" lon="9.74445"><ele>102.4</ele><time>2026-04-06T16:29:07.603Z</time></trkpt><trkpt lat="44.9438333" lon="9.7444117"><ele>102.19999999999999</ele><time>2026-04-06T16:29:08.604Z</time></trkpt><trkpt lat="44.94394" lon="9.7444217"><ele>102.0</ele><time>2026-04-06T16:29:09.603Z</time></trkpt><trkpt lat="44.94406" lon="9.74447"><ele>102.0</ele><time>2026-04-06T16:29:10.602Z</time></trkpt><trkpt lat="44.9442" lon="9.7445417"><ele>102.0</ele><time>2026-04-06T16:29:11.601Z</time></trkpt><trkpt lat="44.9443533" lon="9.7446267"><ele>102.0</ele><time>2026-04-06T16:29:12.602Z</time></trkpt><trkpt lat="44.9445183" lon="9.7447183"><ele>102.0</ele><time>2026-04-06T16:29:13.602Z</time></trkpt><trkpt lat="44.9446917" lon="9.744815"><ele>102.0</ele><time>2026-04-06T16:29:14.601Z</time></trkpt><trkpt lat="44.9448733" lon="9.7449183"><ele>102.0</ele><time>2026-04-06T16:29:15.601Z</time></trkpt><trkpt lat="44.9450617" lon="9.7450233"><ele>101.66666666666666</ele><time>2026-04-06T16:29:16.601Z</time></trkpt><trkpt lat="44.9452517" lon="9.7451333"><ele>101.33333333333333</ele><time>2026-04-06T16:29:17.601Z</time></trkpt><trkpt lat="44.9454417" lon="9.7452417"><ele>101.0</ele><time>2026-04-06T16:29:18.601Z</time></trkpt><trkpt lat="44.94563" lon="9.7453517"><ele>101.0</ele><time>2026-04-06T16:29:19.602Z</time></trkpt><trkpt lat="44.945815" lon="9.74546"><ele>101.0</ele><time>2026-04-06T16:29:20.602Z</time></trkpt><trkpt lat="44.9459933" lon="9.7455667"><ele>101.0</ele><time>2026-04-06T16:29:21.602Z</time></trkpt><trkpt lat="44.9461683" lon="9.74567"><ele>100.33333333333333</ele><time>2026-04-06T16:29:22.601Z</time></trkpt><trkpt lat="44.9463433" lon="9.7457733"><ele>99.66666666666666</ele><time>2026-04-06T16:29:23.602Z</time></trkpt><trkpt lat="44.946515" lon="9.7458733"><ele>99.0</ele><time>2026-04-06T16:29:24.602Z</time></trkpt><trkpt lat="44.94669" lon="9.7459733"><ele>99.0</ele><time>2026-04-06T16:29:25.602Z</time></trkpt><trkpt lat="44.9468617" lon="9.7460733"><ele>99.0</ele><time>2026-04-06T16:29:26.603Z</time></trkpt><trkpt lat="44.947025" lon="9.7461733"><ele>99.0</ele><time>2026-04-06T16:29:27.604Z</time></trkpt><trkpt lat="44.9471833" lon="9.7462717"><ele>99.0</ele><time>2026-04-06T16:29:28.602Z</time></trkpt><trkpt lat="44.94734" lon="9.7463683"><ele>99.0</ele><time>2026-04-06T16:29:29.602Z</time></trkpt><trkpt lat="44.9474967" lon="9.7464633"><ele>99.0</ele><time>2026-04-06T16:29:30.603Z</time></trkpt><trkpt lat="44.9476567" lon="9.7465567"><ele>98.66666666666666</ele><time>2026-04-06T16:29:31.602Z</time></trkpt><trkpt lat="44.9478133" lon="9.74665"><ele>98.33333333333333</ele><time>2026-04-06T16:29:32.603Z</time></trkpt><trkpt lat="44.9479717" lon="9.7467433"><ele>98.0</ele><time>2026-04-06T16:29:33.601Z</time></trkpt><trkpt lat="44.94813" lon="9.7468383"><ele>98.0</ele><time>2026-04-06T16:29:34.6Z</time></trkpt><trkpt lat="44.94829" lon="9.7469317"><ele>98.0</ele><time>2026-04-06T16:29:35.601Z</time></trkpt><trkpt lat="44.9484533" lon="9.7470283"><ele>98.0</ele><time>2026-04-06T16:29:36.601Z</time></trkpt><trkpt lat="44.948625" lon="9.7471267"><ele>97.66666666666666</ele><time>2026-04-06T16:29:37.602Z</time></trkpt><trkpt lat="44.9488017" lon="9.7472283"><ele>97.33333333333334</ele><time>2026-04-06T16:29:38.603Z</time></trkpt><trkpt lat="44.9489817" lon="9.7473333"><ele>97.0</ele><time>2026-04-06T16:29:39.602Z</time></trkpt><trkpt lat="44.9491583" lon="9.74744"><ele>97.0</ele><time>2026-04-06T16:29:40.604Z</time></trkpt><trkpt lat="44.949335" lon="9.747545"><ele>97.0</ele><time>2026-04-06T16:29:41.602Z</time></trkpt><trkpt lat="44.9495117" lon="9.7476517"><ele>97.0</ele><time>2026-04-06T16:29:42.601Z</time></trkpt><trkpt lat="44.9496917" lon="9.747765"><ele>97.0</ele><time>2026-04-06T16:29:43.602Z</time></trkpt><trkpt lat="44.9498733" lon="9.7478833"><ele>97.0</ele><time>2026-04-06T16:29:44.602Z</time></trkpt><trkpt lat="44.95005" lon="9.748005"><ele>97.0</ele><time>2026-04-06T16:29:45.602Z</time></trkpt><trkpt lat="44.95022" lon="9.7481283"><ele>97.0</ele><time>2026-04-06T16:29:46.601Z</time></trkpt><trkpt lat="44.950385" lon="9.74825"><ele>97.0</ele><time>2026-04-06T16:29:47.605Z</time></trkpt><trkpt lat="44.9505467" lon="9.74837"><ele>97.0</ele><time>2026-04-06T16:29:48.602Z</time></trkpt><trkpt lat="44.950705" lon="9.74849"><ele>96.66666666666667</ele><time>2026-04-06T16:29:49.602Z</time></trkpt><trkpt lat="44.9508583" lon="9.748605"><ele>96.33333333333334</ele><time>2026-04-06T16:29:50.602Z</time></trkpt><trkpt lat="44.9510133" lon="9.74872"><ele>96.0</ele><time>2026-04-06T16:29:51.602Z</time></trkpt><trkpt lat="44.9511683" lon="9.7488367"><ele>96.0</ele><time>2026-04-06T16:29:52.603Z</time></trkpt><trkpt lat="44.95133" lon="9.74896"><ele>96.0</ele><time>2026-04-06T16:29:53.601Z</time></trkpt><trkpt lat="44.9514967" lon="9.74909"><ele>96.0</ele><time>2026-04-06T16:29:54.602Z</time></trkpt><trkpt lat="44.95167" lon="9.7492217"><ele>96.33333333333334</ele><time>2026-04-06T16:29:55.602Z</time></trkpt><trkpt lat="44.95185" lon="9.7493567"><ele>96.66666666666667</ele><time>2026-04-06T16:29:56.601Z</time></trkpt><trkpt lat="44.952035" lon="9.7494967"><ele>97.0</ele><time>2026-04-06T16:29:57.602Z</time></trkpt><trkpt lat="44.95222" lon="9.749635"><ele>96.33333333333334</ele><time>2026-04-06T16:29:58.601Z</time></trkpt><trkpt lat="44.95241" lon="9.7497767"><ele>95.66666666666667</ele><time>2026-04-06T16:29:59.601Z</time></trkpt><trkpt lat="44.9526017" lon="9.74992"><ele>95.0</ele><time>2026-04-06T16:30:00.601Z</time></trkpt><trkpt lat="44.9527967" lon="9.750065"><ele>95.0</ele><time>2026-04-06T16:30:01.603Z</time></trkpt><trkpt lat="44.9529917" lon="9.7502133"><ele>95.0</ele><time>2026-04-06T16:30:02.603Z</time></trkpt><trkpt lat="44.9531867" lon="9.7503617"><ele>95.0</ele><time>2026-04-06T16:30:03.604Z</time></trkpt><trkpt lat="44.9533833" lon="9.75051"><ele>94.33333333333334</ele><time>2026-04-06T16:30:04.601Z</time></trkpt><trkpt lat="44.95358" lon="9.7506583"><ele>93.66666666666667</ele><time>2026-04-06T16:30:05.602Z</time></trkpt><trkpt lat="44.9537767" lon="9.7508067"><ele>93.0</ele><time>2026-04-06T16:30:06.601Z</time></trkpt><trkpt lat="44.9539733" lon="9.7509533"><ele>92.66666666666667</ele><time>2026-04-06T16:30:07.601Z</time></trkpt><trkpt lat="44.954165" lon="9.7510983"><ele>92.33333333333334</ele><time>2026-04-06T16:30:08.602Z</time></trkpt><trkpt lat="44.9543567" lon="9.7512417"><ele>92.0</ele><time>2026-04-06T16:30:09.602Z</time></trkpt><trkpt lat="44.95455" lon="9.7513833"><ele>92.0</ele><time>2026-04-06T16:30:10.601Z</time></trkpt><trkpt lat="44.954745" lon="9.7515283"><ele>92.0</ele><time>2026-04-06T16:30:11.602Z</time></trkpt><trkpt lat="44.9549417" lon="9.7516717"><ele>92.0</ele><time>2026-04-06T16:30:12.602Z</time></trkpt><trkpt lat="44.9551383" lon="9.7518083"><ele>91.66666666666667</ele><time>2026-04-06T16:30:13.602Z</time></trkpt><trkpt lat="44.955335" lon="9.7519383"><ele>91.33333333333333</ele><time>2026-04-06T16:30:14.602Z</time></trkpt><trkpt lat="44.9555333" lon="9.7520633"><ele>91.0</ele><time>2026-04-06T16:30:15.6Z</time></trkpt><trkpt lat="44.9557317" lon="9.7521817"><ele>91.0</ele><time>2026-04-06T16:30:16.601Z</time></trkpt><trkpt lat="44.9559317" lon="9.7522917"><ele>91.0</ele><time>2026-04-06T16:30:17.601Z</time></trkpt><trkpt lat="44.95613" lon="9.752395"><ele>91.0</ele><time>2026-04-06T16:30:18.601Z</time></trkpt><trkpt lat="44.9563267" lon="9.7524867"><ele>91.0</ele><time>2026-04-06T16:30:19.6Z</time></trkpt><trkpt lat="44.9565217" lon="9.7525717"><ele>91.0</ele><time>2026-04-06T16:30:20.602Z</time></trkpt><trkpt lat="44.956715" lon="9.7526483"><ele>91.0</ele><time>2026-04-06T16:30:21.602Z</time></trkpt><trkpt lat="44.9569083" lon="9.75272"><ele>90.66666666666666</ele><time>2026-04-06T16:30:22.601Z</time></trkpt><trkpt lat="44.9571033" lon="9.7527833"><ele>90.33333333333333</ele><time>2026-04-06T16:30:23.6Z</time></trkpt><trkpt lat="44.9572983" lon="9.7528367"><ele>90.0</ele><time>2026-04-06T16:30:24.602Z</time></trkpt><trkpt lat="44.9574933" lon="9.7528883"><ele>90.33333333333333</ele><time>2026-04-06T16:30:25.601Z</time></trkpt><trkpt lat="44.9576883" lon="9.752935"><ele>90.66666666666666</ele><time>2026-04-06T16:30:26.601Z</time></trkpt><trkpt lat="44.957885" lon="9.752975"><ele>91.0</ele><time>2026-04-06T16:30:27.6Z</time></trkpt><trkpt lat="44.9580817" lon="9.7530083"><ele>91.0</ele><time>2026-04-06T16:30:28.602Z</time></trkpt><trkpt lat="44.9582833" lon="9.753035"><ele>91.0</ele><time>2026-04-06T16:30:29.603Z</time></trkpt><trkpt lat="44.958485" lon="9.7530567"><ele>91.0</ele><time>2026-04-06T16:30:30.601Z</time></trkpt><trkpt lat="44.958685" lon="9.7530717"><ele>90.66666666666666</ele><time>2026-04-06T16:30:31.602Z</time></trkpt><trkpt lat="44.9588817" lon="9.7530783"><ele>90.33333333333333</ele><time>2026-04-06T16:30:32.603Z</time></trkpt><trkpt lat="44.9590717" lon="9.7530817"><ele>90.0</ele><time>2026-04-06T16:30:33.603Z</time></trkpt><trkpt lat="44.95926" lon="9.7530783"><ele>89.66666666666667</ele><time>2026-04-06T16:30:34.603Z</time></trkpt><trkpt lat="44.9594517" lon="9.7530717"><ele>89.33333333333334</ele><time>2026-04-06T16:30:35.604Z</time></trkpt><trkpt lat="44.9596433" lon="9.7530583"><ele>89.0</ele><time>2026-04-06T16:30:36.603Z</time></trkpt><trkpt lat="44.959835" lon="9.7530417"><ele>89.0</ele><time>2026-04-06T16:30:37.602Z</time></trkpt><trkpt lat="44.9600267" lon="9.7530183"><ele>89.0</ele><time>2026-04-06T16:30:38.602Z</time></trkpt><trkpt lat="44.9602133" lon="9.7529883"><ele>89.0</ele><time>2026-04-06T16:30:39.602Z</time></trkpt><trkpt lat="44.9603933" lon="9.7529517"><ele>89.33333333333334</ele><time>2026-04-06T16:30:40.602Z</time></trkpt><trkpt lat="44.96057" lon="9.7529133"><ele>89.66666666666667</ele><time>2026-04-06T16:30:41.601Z</time></trkpt><trkpt lat="44.96075" lon="9.7528683"><ele>90.0</ele><time>2026-04-06T16:30:42.601Z</time></trkpt><trkpt lat="44.96093" lon="9.7528183"><ele>89.66666666666667</ele><time>2026-04-06T16:30:43.601Z</time></trkpt><trkpt lat="44.9611067" lon="9.7527667"><ele>89.33333333333334</ele><time>2026-04-06T16:30:44.602Z</time></trkpt><trkpt lat="44.96128" lon="9.7527117"><ele>89.0</ele><time>2026-04-06T16:30:45.602Z</time></trkpt><trkpt lat="44.961445" lon="9.7526517"><ele>89.0</ele><time>2026-04-06T16:30:46.601Z</time></trkpt><trkpt lat="44.961605" lon="9.7525867"><ele>89.0</ele><time>2026-04-06T16:30:47.601Z</time></trkpt><trkpt lat="44.9617633" lon="9.7525183"><ele>89.0</ele><time>2026-04-06T16:30:48.601Z</time></trkpt><trkpt lat="44.9619133" lon="9.752445"><ele>89.25</ele><time>2026-04-06T16:30:49.6Z</time></trkpt><trkpt lat="44.9620533" lon="9.75237"><ele>89.5</ele><time>2026-04-06T16:30:50.602Z</time></trkpt><trkpt lat="44.9621883" lon="9.7522917"><ele>89.75</ele><time>2026-04-06T16:30:51.601Z</time></trkpt><trkpt lat="44.96232" lon="9.7522117"><ele>90.0</ele><time>2026-04-06T16:30:52.602Z</time></trkpt><trkpt lat="44.9624433" lon="9.75213"><ele>90.0</ele><time>2026-04-06T16:30:53.6Z</time></trkpt><trkpt lat="44.962555" lon="9.75205"><ele>90.0</ele><time>2026-04-06T16:30:54.601Z</time></trkpt><trkpt lat="44.9626617" lon="9.7519683"><ele>90.0</ele><time>2026-04-06T16:30:55.603Z</time></trkpt><trkpt lat="44.9627633" lon="9.7518833"><ele>90.0</ele><time>2026-04-06T16:30:56.601Z</time></trkpt><trkpt lat="44.962855" lon="9.7518017"><ele>90.0</ele><time>2026-04-06T16:30:57.601Z</time></trkpt><trkpt lat="44.962935" lon="9.7517267"><ele>90.0</ele><time>2026-04-06T16:30:58.601Z</time></trkpt><trkpt lat="44.9630067" lon="9.7516633"><ele>90.0</ele><time>2026-04-06T16:30:59.601Z</time></trkpt><trkpt lat="44.9630733" lon="9.75161"><ele>90.0</ele><time>2026-04-06T16:31:00.601Z</time></trkpt><trkpt lat="44.96314" lon="9.751565"><ele>90.0</ele><time>2026-04-06T16:31:01.601Z</time></trkpt><trkpt lat="44.9632083" lon="9.7515283"><ele>90.0</ele><time>2026-04-06T16:31:02.601Z</time></trkpt><trkpt lat="44.9632817" lon="9.7515067"><ele>90.0</ele><time>2026-04-06T16:31:03.599Z</time></trkpt><trkpt lat="44.9633567" lon="9.7515017"><ele>90.0</ele><time>2026-04-06T16:31:04.601Z</time></trkpt><trkpt lat="44.9634283" lon="9.7514967"><ele>90.0</ele><time>2026-04-06T16:31:05.601Z</time></trkpt><trkpt lat="44.9634933" lon="9.751475"><ele>90.0</ele><time>2026-04-06T16:31:06.601Z</time></trkpt><trkpt lat="44.9635517" lon="9.7514233"><ele>90.0</ele><time>2026-04-06T16:31:07.601Z</time></trkpt><trkpt lat="44.9636" lon="9.7513467"><ele>90.0</ele><time>2026-04-06T16:31:08.602Z</time></trkpt><trkpt lat="44.9636467" lon="9.751255"><ele>90.0</ele><time>2026-04-06T16:31:09.601Z</time></trkpt><trkpt lat="44.9637033" lon="9.7511567"><ele>89.6</ele><time>2026-04-06T16:31:10.602Z</time></trkpt><trkpt lat="44.96378" lon="9.7510633"><ele>89.2</ele><time>2026-04-06T16:31:11.601Z</time></trkpt><trkpt lat="44.963875" lon="9.7509783"><ele>88.80000000000001</ele><time>2026-04-06T16:31:12.6Z</time></trkpt><trkpt lat="44.96397" lon="9.750905"><ele>88.4</ele><time>2026-04-06T16:31:13.601Z</time></trkpt><trkpt lat="44.9640667" lon="9.7508367"><ele>88.0</ele><time>2026-04-06T16:31:14.6Z</time></trkpt><trkpt lat="44.964165" lon="9.7507633"><ele>87.5</ele><time>2026-04-06T16:31:15.601Z</time></trkpt><trkpt lat="44.9642683" lon="9.75068"><ele>87.0</ele><time>2026-04-06T16:31:16.602Z</time></trkpt><trkpt lat="44.9643717" lon="9.75059"><ele>86.5</ele><time>2026-04-06T16:31:17.6Z</time></trkpt><trkpt lat="44.9644783" lon="9.7504967"><ele>86.0</ele><time>2026-04-06T16:31:18.601Z</time></trkpt><trkpt lat="44.9645867" lon="9.750395"><ele>86.0</ele><time>2026-04-06T16:31:19.601Z</time></trkpt><trkpt lat="44.964695" lon="9.7502883"><ele>86.0</ele><time>2026-04-06T16:31:20.604Z</time></trkpt><trkpt lat="44.964805" lon="9.7501767"><ele>86.0</ele><time>2026-04-06T16:31:21.601Z</time></trkpt><trkpt lat="44.96492" lon="9.7500567"><ele>86.0</ele><time>2026-04-06T16:31:22.601Z</time></trkpt><trkpt lat="44.9650383" lon="9.7499233"><ele>86.66666666666667</ele><time>2026-04-06T16:31:23.6Z</time></trkpt><trkpt lat="44.9651567" lon="9.7497783"><ele>87.33333333333333</ele><time>2026-04-06T16:31:24.601Z</time></trkpt><trkpt lat="44.9652783" lon="9.7496283"><ele>88.0</ele><time>2026-04-06T16:31:25.6Z</time></trkpt><trkpt lat="44.9654" lon="9.749475"><ele>88.0</ele><time>2026-04-06T16:31:26.601Z</time></trkpt><trkpt lat="44.96552" lon="9.7493217"><ele>88.0</ele><time>2026-04-06T16:31:27.601Z</time></trkpt><trkpt lat="44.9656433" lon="9.749165"><ele>88.0</ele><time>2026-04-06T16:31:28.603Z</time></trkpt><trkpt lat="44.965765" lon="9.749005"><ele>88.0</ele><time>2026-04-06T16:31:29.604Z</time></trkpt><trkpt lat="44.9658883" lon="9.7488467"><ele>88.0</ele><time>2026-04-06T16:31:30.603Z</time></trkpt><trkpt lat="44.96601" lon="9.7486867"><ele>88.0</ele><time>2026-04-06T16:31:31.603Z</time></trkpt><trkpt lat="44.9661317" lon="9.748525"><ele>88.0</ele><time>2026-04-06T16:31:32.601Z</time></trkpt><trkpt lat="44.9662517" lon="9.7483683"><ele>88.0</ele><time>2026-04-06T16:31:33.603Z</time></trkpt><trkpt lat="44.9663717" lon="9.7482133"><ele>88.0</ele><time>2026-04-06T16:31:34.603Z</time></trkpt><trkpt lat="44.966495" lon="9.7480567"><ele>88.0</ele><time>2026-04-06T16:31:35.603Z</time></trkpt><trkpt lat="44.96662" lon="9.7478933"><ele>88.0</ele><time>2026-04-06T16:31:36.6Z</time></trkpt><trkpt lat="44.966745" lon="9.7477317"><ele>88.0</ele><time>2026-04-06T16:31:37.601Z</time></trkpt><trkpt lat="44.96687" lon="9.7475733"><ele>87.0</ele><time>2026-04-06T16:31:38.601Z</time></trkpt><trkpt lat="44.9669967" lon="9.7474167"><ele>86.0</ele><time>2026-04-06T16:31:39.601Z</time></trkpt><trkpt lat="44.9671233" lon="9.747255"><ele>85.0</ele><time>2026-04-06T16:31:40.6Z</time></trkpt><trkpt lat="44.96725" lon="9.7470883"><ele>85.0</ele><time>2026-04-06T16:31:41.601Z</time></trkpt><trkpt lat="44.96738" lon="9.7469183"><ele>85.0</ele><time>2026-04-06T16:31:42.601Z</time></trkpt><trkpt lat="44.9675117" lon="9.74675"><ele>85.0</ele><time>2026-04-06T16:31:43.601Z</time></trkpt><trkpt lat="44.9676483" lon="9.7465717"><ele>85.33333333333333</ele><time>2026-04-06T16:31:44.602Z</time></trkpt><trkpt lat="44.9677867" lon="9.7463917"><ele>85.66666666666667</ele><time>2026-04-06T16:31:45.601Z</time></trkpt><trkpt lat="44.967925" lon="9.7462083"><ele>86.0</ele><time>2026-04-06T16:31:46.602Z</time></trkpt><trkpt lat="44.968065" lon="9.74603"><ele>86.33333333333334</ele><time>2026-04-06T16:31:47.601Z</time></trkpt><trkpt lat="44.9682017" lon="9.7458567"><ele>86.66666666666667</ele><time>2026-04-06T16:31:48.601Z</time></trkpt><trkpt lat="44.9683383" lon="9.745685"><ele>87.0</ele><time>2026-04-06T16:31:49.601Z</time></trkpt><trkpt lat="44.9684717" lon="9.7455083"><ele>87.33333333333333</ele><time>2026-04-06T16:31:50.6Z</time></trkpt><trkpt lat="44.9686067" lon="9.74533"><ele>87.66666666666666</ele><time>2026-04-06T16:31:51.599Z</time></trkpt><trkpt lat="44.9687417" lon="9.7451533"><ele>88.0</ele><time>2026-04-06T16:31:52.6Z</time></trkpt><trkpt lat="44.96888" lon="9.74498"><ele>88.0</ele><time>2026-04-06T16:31:53.601Z</time></trkpt><trkpt lat="44.96902" lon="9.7448017"><ele>88.0</ele><time>2026-04-06T16:31:54.601Z</time></trkpt><trkpt lat="44.96916" lon="9.7446217"><ele>88.0</ele><time>2026-04-06T16:31:55.599Z</time></trkpt><trkpt lat="44.9693017" lon="9.7444367"><ele>88.33333333333333</ele><time>2026-04-06T16:31:56.602Z</time></trkpt><trkpt lat="44.9694483" lon="9.7442517"><ele>88.66666666666667</ele><time>2026-04-06T16:31:57.601Z</time></trkpt><trkpt lat="44.9695933" lon="9.7440617"><ele>89.0</ele><time>2026-04-06T16:31:58.601Z</time></trkpt><trkpt lat="44.9697417" lon="9.74387"><ele>89.0</ele><time>2026-04-06T16:31:59.603Z</time></trkpt><trkpt lat="44.96989" lon="9.7436767"><ele>89.0</ele><time>2026-04-06T16:32:00.601Z</time></trkpt><trkpt lat="44.97004" lon="9.7434817"><ele>89.0</ele><time>2026-04-06T16:32:01.602Z</time></trkpt><trkpt lat="44.9701917" lon="9.74329"><ele>88.33333333333334</ele><time>2026-04-06T16:32:02.603Z</time></trkpt><trkpt lat="44.97034" lon="9.7431033"><ele>87.66666666666667</ele><time>2026-04-06T16:32:03.602Z</time></trkpt><trkpt lat="44.970485" lon="9.742915"><ele>87.0</ele><time>2026-04-06T16:32:04.6Z</time></trkpt><trkpt lat="44.9706267" lon="9.74273"><ele>87.33333333333333</ele><time>2026-04-06T16:32:05.6Z</time></trkpt><trkpt lat="44.970765" lon="9.7425483"><ele>87.66666666666666</ele><time>2026-04-06T16:32:06.6Z</time></trkpt><trkpt lat="44.9709017" lon="9.7423683"><ele>88.0</ele><time>2026-04-06T16:32:07.6Z</time></trkpt><trkpt lat="44.9710383" lon="9.742195"><ele>87.33333333333333</ele><time>2026-04-06T16:32:08.599Z</time></trkpt><trkpt lat="44.971175" lon="9.7420233"><ele>86.66666666666667</ele><time>2026-04-06T16:32:09.6Z</time></trkpt><trkpt lat="44.9713083" lon="9.7418533"><ele>86.0</ele><time>2026-04-06T16:32:10.601Z</time></trkpt><trkpt lat="44.971435" lon="9.741685"><ele>86.0</ele><time>2026-04-06T16:32:11.601Z</time></trkpt><trkpt lat="44.9715517" lon="9.7415217"><ele>86.0</ele><time>2026-04-06T16:32:12.601Z</time></trkpt><trkpt lat="44.9716583" lon="9.7413617"><ele>86.0</ele><time>2026-04-06T16:32:13.601Z</time></trkpt><trkpt lat="44.9717583" lon="9.7412017"><ele>86.25</ele><time>2026-04-06T16:32:14.601Z</time></trkpt><trkpt lat="44.971855" lon="9.741045"><ele>86.5</ele><time>2026-04-06T16:32:15.601Z</time></trkpt><trkpt lat="44.9719433" lon="9.7408917"><ele>86.75</ele><time>2026-04-06T16:32:16.6Z</time></trkpt><trkpt lat="44.97202" lon="9.740755"><ele>87.0</ele><time>2026-04-06T16:32:17.601Z</time></trkpt><trkpt lat="44.9720883" lon="9.7406367"><ele>87.0</ele><time>2026-04-06T16:32:18.601Z</time></trkpt><trkpt lat="44.9721533" lon="9.7405383"><ele>87.0</ele><time>2026-04-06T16:32:19.6Z</time></trkpt><trkpt lat="44.9722167" lon="9.7404617"><ele>87.0</ele><time>2026-04-06T16:32:20.601Z</time></trkpt><trkpt lat="44.9722967" lon="9.7403983"><ele>87.0</ele><time>2026-04-06T16:32:21.601Z</time></trkpt><trkpt lat="44.9723967" lon="9.740355"><ele>87.0</ele><time>2026-04-06T16:32:22.601Z</time></trkpt><trkpt lat="44.9725167" lon="9.740345"><ele>87.33333333333333</ele><time>2026-04-06T16:32:23.601Z</time></trkpt><trkpt lat="44.9726567" lon="9.7403733"><ele>87.66666666666666</ele><time>2026-04-06T16:32:24.601Z</time></trkpt><trkpt lat="44.9728183" lon="9.7404283"><ele>88.0</ele><time>2026-04-06T16:32:25.601Z</time></trkpt><trkpt lat="44.9729983" lon="9.7404917"><ele>88.0</ele><time>2026-04-06T16:32:26.602Z</time></trkpt><trkpt lat="44.9731967" lon="9.740545"><ele>88.0</ele><time>2026-04-06T16:32:27.602Z</time></trkpt><trkpt lat="44.97341" lon="9.740595"><ele>88.0</ele><time>2026-04-06T16:32:28.601Z</time></trkpt><trkpt lat="44.97364" lon="9.7406417"><ele>86.5</ele><time>2026-04-06T16:32:29.603Z</time></trkpt><trkpt lat="44.97387" lon="9.7406817"><ele>85.0</ele><time>2026-04-06T16:32:30.601Z</time></trkpt><trkpt lat="44.97409" lon="9.7407117"><ele>86.0</ele><time>2026-04-06T16:32:31.602Z</time></trkpt><trkpt lat="44.9743083" lon="9.7407317"><ele>87.0</ele><time>2026-04-06T16:32:32.602Z</time></trkpt><trkpt lat="44.97452" lon="9.7407483"><ele>88.0</ele><time>2026-04-06T16:32:33.601Z</time></trkpt><trkpt lat="44.974725" lon="9.7407617"><ele>88.0</ele><time>2026-04-06T16:32:34.601Z</time></trkpt><trkpt lat="44.974925" lon="9.740775"><ele>88.0</ele><time>2026-04-06T16:32:35.6Z</time></trkpt><trkpt lat="44.9751183" lon="9.7407967"><ele>88.0</ele><time>2026-04-06T16:32:36.601Z</time></trkpt><trkpt lat="44.9753033" lon="9.7408217"><ele>87.66666666666666</ele><time>2026-04-06T16:32:37.601Z</time></trkpt><trkpt lat="44.9754783" lon="9.7408483"><ele>87.33333333333333</ele><time>2026-04-06T16:32:38.602Z</time></trkpt><trkpt lat="44.9756433" lon="9.7408783"><ele>87.0</ele><time>2026-04-06T16:32:39.601Z</time></trkpt><trkpt lat="44.9758" lon="9.740905"><ele>87.0</ele><time>2026-04-06T16:32:40.601Z</time></trkpt><trkpt lat="44.9759467" lon="9.7409333"><ele>87.0</ele><time>2026-04-06T16:32:41.602Z</time></trkpt><trkpt lat="44.976085" lon="9.7409567"><ele>87.0</ele><time>2026-04-06T16:32:42.601Z</time></trkpt><trkpt lat="44.97622" lon="9.740975"><ele>87.0</ele><time>2026-04-06T16:32:43.601Z</time></trkpt><trkpt lat="44.976355" lon="9.7409933"><ele>87.0</ele><time>2026-04-06T16:32:44.601Z</time></trkpt><trkpt lat="44.9764883" lon="9.7410133"><ele>87.0</ele><time>2026-04-06T16:32:45.6Z</time></trkpt><trkpt lat="44.9766133" lon="9.741025"><ele>87.0</ele><time>2026-04-06T16:32:46.602Z</time></trkpt><trkpt lat="44.9767367" lon="9.7410283"><ele>87.0</ele><time>2026-04-06T16:32:47.601Z</time></trkpt><trkpt lat="44.9768583" lon="9.7410267"><ele>87.19999999999999</ele><time>2026-04-06T16:32:48.601Z</time></trkpt><trkpt lat="44.9769733" lon="9.7410217"><ele>87.4</ele><time>2026-04-06T16:32:49.601Z</time></trkpt><trkpt lat="44.9770783" lon="9.7410133"><ele>87.6</ele><time>2026-04-06T16:32:50.603Z</time></trkpt><trkpt lat="44.9771767" lon="9.7409983"><ele>87.80000000000001</ele><time>2026-04-06T16:32:51.601Z</time></trkpt><trkpt lat="44.9772717" lon="9.7409783"><ele>88.0</ele><time>2026-04-06T16:32:52.6Z</time></trkpt><trkpt lat="44.9773783" lon="9.74095"><ele>88.0</ele><time>2026-04-06T16:32:53.601Z</time></trkpt><trkpt lat="44.977495" lon="9.7409233"><ele>88.0</ele><time>2026-04-06T16:32:54.601Z</time></trkpt><trkpt lat="44.9776233" lon="9.7409"><ele>88.0</ele><time>2026-04-06T16:32:55.6Z</time></trkpt><trkpt lat="44.977755" lon="9.7408833"><ele>88.0</ele><time>2026-04-06T16:32:56.602Z</time></trkpt><trkpt lat="44.9778883" lon="9.7408733"><ele>87.75</ele><time>2026-04-06T16:32:57.6Z</time></trkpt><trkpt lat="44.9780183" lon="9.7408583"><ele>87.5</ele><time>2026-04-06T16:32:58.601Z</time></trkpt><trkpt lat="44.97814" lon="9.7408417"><ele>87.25</ele><time>2026-04-06T16:32:59.601Z</time></trkpt><trkpt lat="44.9782567" lon="9.740825"><ele>87.0</ele><time>2026-04-06T16:33:00.602Z</time></trkpt><trkpt lat="44.9783733" lon="9.7408083"><ele>86.5</ele><time>2026-04-06T16:33:01.6Z</time></trkpt><trkpt lat="44.978495" lon="9.7407917"><ele>86.0</ele><time>2026-04-06T16:33:02.601Z</time></trkpt><trkpt lat="44.9786217" lon="9.7407767"><ele>85.5</ele><time>2026-04-06T16:33:03.602Z</time></trkpt><trkpt lat="44.9787667" lon="9.740775"><ele>85.0</ele><time>2026-04-06T16:33:04.6Z</time></trkpt><trkpt lat="44.978925" lon="9.7407783"><ele>85.0</ele><time>2026-04-06T16:33:05.601Z</time></trkpt><trkpt lat="44.97909" lon="9.74078"><ele>85.0</ele><time>2026-04-06T16:33:06.6Z</time></trkpt><trkpt lat="44.9792567" lon="9.740775"><ele>85.0</ele><time>2026-04-06T16:33:07.6Z</time></trkpt><trkpt lat="44.979435" lon="9.740765"><ele>84.66666666666666</ele><time>2026-04-06T16:33:08.603Z</time></trkpt><trkpt lat="44.97961" lon="9.7407433"><ele>84.33333333333333</ele><time>2026-04-06T16:33:09.601Z</time></trkpt><trkpt lat="44.9797733" lon="9.740705"><ele>84.0</ele><time>2026-04-06T16:33:10.6Z</time></trkpt><trkpt lat="44.979925" lon="9.74065"><ele>83.33333333333333</ele><time>2026-04-06T16:33:11.601Z</time></trkpt><trkpt lat="44.980075" lon="9.74058"><ele>82.66666666666666</ele><time>2026-04-06T16:33:12.601Z</time></trkpt><trkpt lat="44.9802167" lon="9.7405083"><ele>82.0</ele><time>2026-04-06T16:33:13.6Z</time></trkpt><trkpt lat="44.98035" lon="9.7404383"><ele>82.0</ele><time>2026-04-06T16:33:14.6Z</time></trkpt><trkpt lat="44.9804783" lon="9.7403717"><ele>82.0</ele><time>2026-04-06T16:33:15.602Z</time></trkpt><trkpt lat="44.9806" lon="9.7403067"><ele>82.0</ele><time>2026-04-06T16:33:16.603Z</time></trkpt><trkpt lat="44.98072" lon="9.7402467"><ele>82.0</ele><time>2026-04-06T16:33:17.602Z</time></trkpt><trkpt lat="44.980825" lon="9.7401795"><ele>81.8</ele><time>2026-04-06T16:33:18.601Z</time></trkpt><trkpt lat="44.9809017" lon="9.7400849"><ele>81.6</ele><time>2026-04-06T16:33:19.601Z</time></trkpt><trkpt lat="44.9809505" lon="9.7399581"><ele>81.39999999999999</ele><time>2026-04-06T16:33:20.603Z</time></trkpt><trkpt lat="44.9809738" lon="9.7398009"><ele>81.19999999999999</ele><time>2026-04-06T16:33:21.6Z</time></trkpt><trkpt lat="44.9809867" lon="9.7396204"><ele>81.0</ele><time>2026-04-06T16:33:22.603Z</time></trkpt><trkpt lat="44.9810024" lon="9.7394255"><ele>81.75</ele><time>2026-04-06T16:33:23.6Z</time></trkpt><trkpt lat="44.9810236" lon="9.7392309"><ele>82.5</ele><time>2026-04-06T16:33:24.602Z</time></trkpt><trkpt lat="44.981043" lon="9.7390423"><ele>83.25</ele><time>2026-04-06T16:33:25.602Z</time></trkpt><trkpt lat="44.9810596" lon="9.7388622"><ele>84.0</ele><time>2026-04-06T16:33:26.602Z</time></trkpt><trkpt lat="44.9810778" lon="9.7386876"><ele>84.2</ele><time>2026-04-06T16:33:27.601Z</time></trkpt><trkpt lat="44.9810968" lon="9.7385149"><ele>84.4</ele><time>2026-04-06T16:33:28.601Z</time></trkpt><trkpt lat="44.9811133" lon="9.7383548"><ele>84.6</ele><time>2026-04-06T16:33:29.602Z</time></trkpt><trkpt lat="44.9811284" lon="9.7382064"><ele>84.8</ele><time>2026-04-06T16:33:30.602Z</time></trkpt><trkpt lat="44.9811453" lon="9.7380697"><ele>85.0</ele><time>2026-04-06T16:33:31.603Z</time></trkpt><trkpt lat="44.9811633" lon="9.7379444"><ele>85.0</ele><time>2026-04-06T16:33:32.604Z</time></trkpt><trkpt lat="44.9811845" lon="9.7378278"><ele>85.0</ele><time>2026-04-06T16:33:33.603Z</time></trkpt><trkpt lat="44.98121" lon="9.7377213"><ele>85.0</ele><time>2026-04-06T16:33:34.602Z</time></trkpt><trkpt lat="44.9812281" lon="9.7376202"><ele>85.0</ele><time>2026-04-06T16:33:35.602Z</time></trkpt><trkpt lat="44.9812406" lon="9.7375245"><ele>85.0</ele><time>2026-04-06T16:33:36.602Z</time></trkpt><trkpt lat="44.9812509" lon="9.7374348"><ele>85.0</ele><time>2026-04-06T16:33:37.605Z</time></trkpt><trkpt lat="44.981273" lon="9.7372611"><ele>84.4</ele><time>2026-04-06T16:33:39.603Z</time></trkpt><trkpt lat="44.9812826" lon="9.7371619"><ele>83.8</ele><time>2026-04-06T16:33:40.602Z</time></trkpt><trkpt lat="44.981295" lon="9.7370435"><ele>83.19999999999999</ele><time>2026-04-06T16:33:41.601Z</time></trkpt><trkpt lat="44.9813189" lon="9.7369022"><ele>82.6</ele><time>2026-04-06T16:33:42.603Z</time></trkpt><trkpt lat="44.9813503" lon="9.7367423"><ele>82.0</ele><time>2026-04-06T16:33:43.602Z</time></trkpt><trkpt lat="44.9813783" lon="9.7365809"><ele>82.0</ele><time>2026-04-06T16:33:44.603Z</time></trkpt><trkpt lat="44.9814031" lon="9.7364147"><ele>82.0</ele><time>2026-04-06T16:33:45.602Z</time></trkpt><trkpt lat="44.9814257" lon="9.7362345"><ele>82.0</ele><time>2026-04-06T16:33:46.602Z</time></trkpt><trkpt lat="44.9814479" lon="9.7360485"><ele>82.0</ele><time>2026-04-06T16:33:47.603Z</time></trkpt><trkpt lat="44.9814685" lon="9.7358532"><ele>82.0</ele><time>2026-04-06T16:33:48.604Z</time></trkpt><trkpt lat="44.9814828" lon="9.7356595"><ele>82.0</ele><time>2026-04-06T16:33:49.603Z</time></trkpt><trkpt lat="44.9814901" lon="9.7354643"><ele>82.0</ele><time>2026-04-06T16:33:50.603Z</time></trkpt><trkpt lat="44.9814968" lon="9.7352758"><ele>82.0</ele><time>2026-04-06T16:33:51.603Z</time></trkpt><trkpt lat="44.9815094" lon="9.7350932"><ele>81.75</ele><time>2026-04-06T16:33:52.603Z</time></trkpt><trkpt lat="44.9815261" lon="9.7349151"><ele>81.5</ele><time>2026-04-06T16:33:53.604Z</time></trkpt><trkpt lat="44.9815444" lon="9.7347416"><ele>81.25</ele><time>2026-04-06T16:33:54.602Z</time></trkpt><trkpt lat="44.9815628" lon="9.7345667"><ele>81.0</ele><time>2026-04-06T16:33:55.604Z</time></trkpt><trkpt lat="44.9815836" lon="9.7343884"><ele>81.25</ele><time>2026-04-06T16:33:56.603Z</time></trkpt><trkpt lat="44.9816046" lon="9.734208"><ele>81.5</ele><time>2026-04-06T16:33:57.603Z</time></trkpt><trkpt lat="44.9816262" lon="9.7340266"><ele>81.75</ele><time>2026-04-06T16:33:58.603Z</time></trkpt><trkpt lat="44.9816478" lon="9.7338436"><ele>82.0</ele><time>2026-04-06T16:33:59.604Z</time></trkpt><trkpt lat="44.9816707" lon="9.7336588"><ele>82.0</ele><time>2026-04-06T16:34:00.603Z</time></trkpt><trkpt lat="44.9816947" lon="9.7334691"><ele>82.0</ele><time>2026-04-06T16:34:01.603Z</time></trkpt><trkpt lat="44.9817195" lon="9.733277"><ele>82.0</ele><time>2026-04-06T16:34:02.602Z</time></trkpt><trkpt lat="44.9817435" lon="9.7330828"><ele>82.0</ele><time>2026-04-06T16:34:03.603Z</time></trkpt><trkpt lat="44.9817661" lon="9.7328906"><ele>82.0</ele><time>2026-04-06T16:34:04.602Z</time></trkpt><trkpt lat="44.9817883" lon="9.7326925"><ele>82.0</ele><time>2026-04-06T16:34:05.602Z</time></trkpt><trkpt lat="44.9818117" lon="9.73249"><ele>82.0</ele><time>2026-04-06T16:34:06.602Z</time></trkpt><trkpt lat="44.9818367" lon="9.73229"><ele>82.0</ele><time>2026-04-06T16:34:07.602Z</time></trkpt><trkpt lat="44.98186" lon="9.73209"><ele>82.0</ele><time>2026-04-06T16:34:08.603Z</time></trkpt><trkpt lat="44.981885" lon="9.7318917"><ele>82.0</ele><time>2026-04-06T16:34:09.603Z</time></trkpt><trkpt lat="44.98191" lon="9.731695"><ele>82.0</ele><time>2026-04-06T16:34:10.601Z</time></trkpt><trkpt lat="44.981935" lon="9.7315017"><ele>82.0</ele><time>2026-04-06T16:34:11.603Z</time></trkpt><trkpt lat="44.9819583" lon="9.7313117"><ele>82.0</ele><time>2026-04-06T16:34:12.602Z</time></trkpt><trkpt lat="44.9819817" lon="9.7311267"><ele>82.0</ele><time>2026-04-06T16:34:13.604Z</time></trkpt><trkpt lat="44.9820017" lon="9.73095"><ele>82.0</ele><time>2026-04-06T16:34:14.605Z</time></trkpt><trkpt lat="44.9820217" lon="9.7307833"><ele>82.0</ele><time>2026-04-06T16:34:15.603Z</time></trkpt><trkpt lat="44.98204" lon="9.7306283"><ele>82.0</ele><time>2026-04-06T16:34:16.603Z</time></trkpt><trkpt lat="44.9820567" lon="9.730485"><ele>82.0</ele><time>2026-04-06T16:34:17.603Z</time></trkpt><trkpt lat="44.9820733" lon="9.730365"><ele>82.0</ele><time>2026-04-06T16:34:18.604Z</time></trkpt><trkpt lat="44.982085" lon="9.7302733"><ele>82.0</ele><time>2026-04-06T16:34:19.603Z</time></trkpt><trkpt lat="44.9820983" lon="9.7301683"><ele>82.0</ele><time>2026-04-06T16:34:21.603Z</time></trkpt><trkpt lat="44.9821033" lon="9.7300583"><ele>82.0</ele><time>2026-04-06T16:34:25.601Z</time></trkpt><trkpt lat="44.9820167" lon="9.7300267"><ele>81.0</ele><time>2026-04-06T16:34:28.602Z</time></trkpt><trkpt lat="44.9819417" lon="9.7300417"><ele>81.0</ele><time>2026-04-06T16:34:30.603Z</time></trkpt><trkpt lat="44.9818683" lon="9.73003"><ele>81.0</ele><time>2026-04-06T16:34:35.604Z</time></trkpt></trkseg></trk></gpx>